/BCO-DMO/nGOMx_acidification/pco2 ---- Level 0

      Directory  DocumentationDownload and Other Operations...

 - At level 0 -  - At last level -       Flat list

#  underway pCO2
#  PI: Wei-Jun Cai
#  data version: 1 (2019-07-01)
=========================
Region            Cruise         GPS_DateTime_UTC        Longitude  Latitude  Temperature  Salinity  pCO2                  Flag_pCO2  
-------------------------
MisPlume(west)    GOM_UW_1704    2017-04-06T13:07:17Z    -90.8261   28.9607   23.414       28.263    198.3043149           2          
MisPlume(west)    GOM_UW_1704    2017-04-06T13:08:46Z    -90.8263   28.9571   23.3458      28.344    199.9349002           2          
MisPlume(west)    GOM_UW_1704    2017-04-06T13:10:17Z    -90.8265   28.9534   23.3344      28.468    205.1842518           2          
MisPlume(west)    GOM_UW_1704    2017-04-06T13:11:46Z    -90.8267   28.9497   23.3409      28.553    209.9143781           2          
MisPlume(west)    GOM_UW_1704    2017-04-06T13:13:15Z    -90.8269   28.9461   23.322       28.63     206.6534239           2          
MisPlume(west)    GOM_UW_1704    2017-04-06T13:14:43Z    -90.8271   28.9425   23.3412      28.775    206.0740923           2          
MisPlume(west)    GOM_UW_1704    2017-04-06T13:16:12Z    -90.8273   28.9388   23.2769      28.851    209.6424059           2          
MisPlume(west)    GOM_UW_1704    2017-04-06T13:17:40Z    -90.8276   28.9352   23.1812      28.907    213.4805406           2          
MisPlume(west)    GOM_UW_1704    2017-04-06T13:19:09Z    -90.8278   28.9316   23.1554      28.945    223.0077686           2          
MisPlume(west)    GOM_UW_1704    2017-04-06T13:20:37Z    -90.8281   28.928    23.1009      28.977    227.4878429           2          
MisPlume(west)    GOM_UW_1704    2017-04-06T13:22:06Z    -90.8283   28.9243   23.1068      29.053    228.3962232           2          
MisPlume(west)    GOM_UW_1704    2017-04-06T13:23:34Z    -90.8285   28.9206   23.1364      29.091    226.970747            2          
MisPlume(west)    GOM_UW_1704    2017-04-06T13:25:03Z    -90.8287   28.9169   23.1251      29.132    224.4712655           2          
MisPlume(west)    GOM_UW_1704    2017-04-06T13:26:31Z    -90.8289   28.9133   23.1433      29.169    222.9045543           2          
MisPlume(west)    GOM_UW_1704    2017-04-06T13:27:59Z    -90.8291   28.9097   23.1234      29.228    219.3202063           2          
MisPlume(west)    GOM_UW_1704    2017-04-06T13:29:27Z    -90.8293   28.9062   22.9811      29.454    220.4772928           2          
MisPlume(west)    GOM_UW_1704    2017-04-06T13:30:57Z    -90.8295   28.9027   22.8476      29.574    229.6164926           2          
MisPlume(west)    GOM_UW_1704    2017-04-06T13:32:27Z    -90.8302   28.8991   22.7693      29.678    234.0434176           2          
MisPlume(west)    GOM_UW_1704    2017-04-06T13:33:55Z    -90.8308   28.8957   22.7235      29.752    236.3607953           2          
MisPlume(west)    GOM_UW_1704    2017-04-06T13:35:26Z    -90.8316   28.8921   22.6862      29.883    237.0375652           2          
MisPlume(west)    GOM_UW_1704    2017-04-06T13:36:56Z    -90.8323   28.8885   22.6534      30.015    239.9834461           2          
MisPlume(west)    GOM_UW_1704    2017-04-06T13:38:26Z    -90.8328   28.885    22.6308      30.109    245.2277797           2          
MisPlume(west)    GOM_UW_1704    2017-04-06T13:39:53Z    -90.8332   28.8815   22.6384      30.215    248.778648            2          
MisPlume(west)    GOM_UW_1704    2017-04-06T13:41:25Z    -90.8335   28.8778   22.652       30.322    258.3737139           2          
MisPlume(west)    GOM_UW_1704    2017-04-06T13:42:54Z    -90.8339   28.8742   22.6413      30.388    264.476288            2          
MisPlume(west)    GOM_UW_1704    2017-04-06T13:44:21Z    -90.8342   28.8706   22.6297      30.448    270.4244413           2          
MisPlume(west)    GOM_UW_1704    2017-04-06T13:45:53Z    -90.8343   28.8668   22.6231      30.525    272.7007064           2          
MisPlume(west)    GOM_UW_1704    2017-04-06T13:47:22Z    -90.8343   28.8632   22.5781      30.602    278.5915359           2          
MisPlume(west)    GOM_UW_1704    2017-04-06T13:48:51Z    -90.8343   28.8595   22.5228      30.609    284.9087707           2          
MisPlume(west)    GOM_UW_1704    2017-04-06T13:50:21Z    -90.8343   28.8557   22.4907      30.628    288.5263251           2          
MisPlume(west)    GOM_UW_1704    2017-04-06T13:51:51Z    -90.8343   28.8519   22.4601      30.694    294.7959708           2          
MisPlume(west)    GOM_UW_1704    2017-04-06T13:53:19Z    -90.8342   28.8482   22.4237      30.682    298.1682697           2          
MisPlume(west)    GOM_UW_1704    2017-04-06T13:54:48Z    -90.8339   28.8444   22.4         30.764    299.5909878           2          
MisPlume(west)    GOM_UW_1704    2017-04-06T13:56:17Z    -90.8336   28.8417   22.3766      30.744    305.4536111           2          
MisPlume(west)    GOM_UW_1704    2017-04-06T13:57:45Z    -90.8334   28.8413   22.3786      30.778    303.728739            2          
MisPlume(west)    GOM_UW_1704    2017-04-06T13:59:16Z    -90.8332   28.8409   22.3611      30.786    304.9085328           2          
MisPlume(west)    GOM_UW_1704    2017-04-06T14:00:46Z    -90.8331   28.8404   22.366       30.807    303.0299902           2          
MisPlume(west)    GOM_UW_1704    2017-04-06T14:02:14Z    -90.8328   28.8401   22.3603      30.812    304.417946            2          
MisPlume(west)    GOM_UW_1704    2017-04-06T14:03:42Z    -90.8327   28.8397   22.3577      30.824    305.2842113           2          
MisPlume(west)    GOM_UW_1704    2017-04-06T14:05:10Z    -90.8325   28.8393   22.3525      30.831    307.6620709           2          
MisPlume(west)    GOM_UW_1704    2017-04-06T14:06:40Z    -90.8323   28.839    22.3494      30.816    307.3630607           2          
MisPlume(west)    GOM_UW_1704    2017-04-06T14:08:10Z    -90.8321   28.8386   22.3421      30.82     304.6053589           2          
MisPlume(west)    GOM_UW_1704    2017-04-06T14:09:40Z    -90.8319   28.8382   22.3474      30.838    306.9031637           2          
MisPlume(west)    GOM_UW_1704    2017-04-06T14:11:10Z    -90.8317   28.8379   22.3434      30.857    309.3940089           2          
MisPlume(west)    GOM_UW_1704    2017-04-06T14:12:39Z    -90.8315   28.8375   22.3432      30.878    310.7643459           2          
MisPlume(west)    GOM_UW_1704    2017-04-06T14:14:08Z    -90.8312   28.8371   22.3405      30.893    311.0146166           2          
MisPlume(west)    GOM_UW_1704    2017-04-06T14:15:39Z    -90.831    28.8367   22.339       30.92     312.3970997           2          
MisPlume(west)    GOM_UW_1704    2017-04-06T14:17:08Z    -90.8308   28.8364   22.3345      30.935    314.0385252           2          
MisPlume(west)    GOM_UW_1704    2017-04-06T14:18:37Z    -90.8306   28.8361   22.3337      30.966    315.2428158           2          
MisPlume(west)    GOM_UW_1704    2017-04-06T14:20:04Z    -90.8303   28.8357   22.3279      30.988    316.5224164           2          
MisPlume(west)    GOM_UW_1704    2017-04-06T14:21:33Z    -90.8301   28.8354   22.3258      31.017    319.4953773           2          
MisPlume(west)    GOM_UW_1704    2017-04-06T14:23:02Z    -90.8298   28.835    22.323       31.02     320.31188             2          
MisPlume(west)    GOM_UW_1704    2017-04-06T14:24:30Z    -90.8295   28.8346   22.3226      31.046    319.9219672           2          
MisPlume(west)    GOM_UW_1704    2017-04-06T14:25:58Z    -90.8293   28.8343   22.3251      31.053    321.2944944           2          
MisPlume(west)    GOM_UW_1704    2017-04-06T14:27:26Z    -90.829    28.8339   22.333       30.997    320.8408155           2          
MisPlume(west)    GOM_UW_1704    2017-04-06T14:28:55Z    -90.8288   28.8336   22.3273      30.997    316.327709            2          
MisPlume(west)    GOM_UW_1704    2017-04-06T14:30:25Z    -90.8286   28.8332   22.335       31.005    316.2975435           2          
MisPlume(west)    GOM_UW_1704    2017-04-06T14:31:53Z    -90.8283   28.8329   22.337       31.037    317.2443063           2          
MisPlume(west)    GOM_UW_1704    2017-04-06T14:33:22Z    -90.828    28.8325   22.3333      31.04     319.6846809           2          
MisPlume(west)    GOM_UW_1704    2017-04-06T14:34:51Z    -90.8278   28.8321   22.3242      31.041    319.1475978           2          
MisPlume(west)    GOM_UW_1704    2017-04-06T14:36:19Z    -90.8275   28.8318   22.3322      31.067    320.4981031           2          
MisPlume(west)    GOM_UW_1704    2017-04-06T14:37:47Z    -90.8273   28.8314   22.329       31.069    320.6092421           2          
MisPlume(west)    GOM_UW_1704    2017-04-06T14:39:18Z    -90.8271   28.8311   22.3304      31.073    320.248205            2          
MisPlume(west)    GOM_UW_1704    2017-04-06T14:40:46Z    -90.8269   28.8307   22.3287      31.079    320.4363885           2          
MisPlume(west)    GOM_UW_1704    2017-04-06T14:42:17Z    -90.8266   28.8303   22.327       31.092    320.260993            2          
MisPlume(west)    GOM_UW_1704    2017-04-06T14:43:48Z    -90.8272   28.8284   22.3272      31.131    322.2015916           2          
MisPlume(west)    GOM_UW_1704    2017-04-06T14:45:17Z    -90.8271   28.8249   22.3827      31.278    328.0728912           2          
MisPlume(west)    GOM_UW_1704    2017-04-06T14:46:46Z    -90.827    28.8212   22.4227      31.321    330.9312431           2          
MisPlume(west)    GOM_UW_1704    2017-04-06T14:48:15Z    -90.827    28.8175   22.4526      31.294    327.8806936           2          
MisPlume(west)    GOM_UW_1704    2017-04-06T14:49:44Z    -90.8271   28.8139   22.4412      31.288    325.6410241           2          
MisPlume(west)    GOM_UW_1704    2017-04-06T14:51:12Z    -90.8272   28.8103   22.449       31.298    319.9874061           2          
MisPlume(west)    GOM_UW_1704    2017-04-06T14:52:41Z    -90.8274   28.8066   22.4594      31.377    306.205071            2          
MisPlume(west)    GOM_UW_1704    2017-04-06T14:54:12Z    -90.8275   28.8029   22.4926      31.401    301.4327605           2          
MisPlume(west)    GOM_UW_1704    2017-04-06T14:55:40Z    -90.8276   28.7993   22.4988      31.405    298.2115908           2          
MisPlume(west)    GOM_UW_1704    2017-04-06T14:57:12Z    -90.8278   28.7956   22.5171      31.449    292.7915385           2          
MisPlume(west)    GOM_UW_1704    2017-04-06T14:58:40Z    -90.828    28.792    22.5165      31.483    288.2596217           2          
MisPlume(west)    GOM_UW_1704    2017-04-06T15:00:09Z    -90.8281   28.7883   22.5208      31.51     289.4376103           2          
MisPlume(west)    GOM_UW_1704    2017-04-06T15:01:41Z    -90.8283   28.7845   22.5556      31.534    292.3406739           2          
MisPlume(west)    GOM_UW_1704    2017-04-06T15:03:09Z    -90.8284   28.7809   22.5404      31.51     291.8144754           2          
MisPlume(west)    GOM_UW_1704    2017-04-06T15:04:39Z    -90.8286   28.7772   22.5323      31.519    292.0886387           2          
MisPlume(west)    GOM_UW_1704    2017-04-06T15:06:11Z    -90.8288   28.7734   22.5403      31.514    295.0266219           2          
MisPlume(west)    GOM_UW_1704    2017-04-06T15:07:39Z    -90.829    28.7698   22.5597      31.535    294.0474551           2          
MisPlume(west)    GOM_UW_1704    2017-04-06T15:09:09Z    -90.8293   28.7661   22.5705      31.47     293.7563257           2          
MisPlume(west)    GOM_UW_1704    2017-04-06T15:10:39Z    -90.8296   28.7624   22.5715      31.462    291.2849417           2          
MisPlume(west)    GOM_UW_1704    2017-04-06T15:12:07Z    -90.8299   28.7587   22.5771      31.461    292.9123173           2          
MisPlume(west)    GOM_UW_1704    2017-04-06T15:13:36Z    -90.8302   28.7551   22.6137      31.44     291.3607465           2          
MisPlume(west)    GOM_UW_1704    2017-04-06T15:15:04Z    -90.8305   28.7515   22.6069      31.4      289.8924325           2          
MisPlume(west)    GOM_UW_1704    2017-04-06T15:16:34Z    -90.8308   28.7478   22.6271      31.397    288.1687617           2          
MisPlume(west)    GOM_UW_1704    2017-04-06T15:18:05Z    -90.8311   28.744    22.6154      31.351    286.5346031           2          
MisPlume(west)    GOM_UW_1704    2017-04-06T15:19:33Z    -90.8313   28.7404   22.6481      31.332    285.5994975           2          
MisPlume(west)    GOM_UW_1704    2017-04-06T15:21:02Z    -90.8316   28.7367   22.6271      31.321    280.645103            2          
MisPlume(west)    GOM_UW_1704    2017-04-06T15:22:31Z    -90.8319   28.7331   22.6437      31.312    278.404761            2          
MisPlume(west)    GOM_UW_1704    2017-04-06T15:24:00Z    -90.8322   28.7293   22.6231      31.272    277.961316            2          
MisPlume(west)    GOM_UW_1704    2017-04-06T15:25:27Z    -90.8325   28.7257   22.6217      31.234    276.1288465           2          
MisPlume(west)    GOM_UW_1704    2017-04-06T15:26:57Z    -90.8328   28.7219   22.633       31.215    273.4785982           2          
MisPlume(west)    GOM_UW_1704    2017-04-06T15:28:25Z    -90.8331   28.7183   22.683       31.218    274.2176218           2          
MisPlume(west)    GOM_UW_1704    2017-04-06T15:29:56Z    -90.8334   28.7169   22.6729      31.2      273.088911            2          
MisPlume(west)    GOM_UW_1704    2017-04-06T15:31:24Z    -90.8334   28.7166   22.6757      31.197    268.3693659           2          
MisPlume(west)    GOM_UW_1704    2017-04-06T15:32:53Z    -90.8334   28.7162   22.6695      31.191    267.1253026           2          
MisPlume(west)    GOM_UW_1704    2017-04-06T15:34:23Z    -90.8334   28.7158   22.6677      31.187    267.9473871           2          
MisPlume(west)    GOM_UW_1704    2017-04-06T15:35:52Z    -90.8334   28.7153   22.6731      31.186    267.4128075           2          
MisPlume(west)    GOM_UW_1704    2017-04-06T15:37:22Z    -90.8334   28.7149   22.6785      31.188    267.5284984           2          
MisPlume(west)    GOM_UW_1704    2017-04-06T15:38:53Z    -90.8334   28.7146   22.6728      31.183    267.6271671           2          
MisPlume(west)    GOM_UW_1704    2017-04-06T15:40:23Z    -90.8333   28.7142   22.6722      31.182    269.9757717           2          
MisPlume(west)    GOM_UW_1704    2017-04-06T15:41:52Z    -90.8333   28.7138   22.6769      31.182    267.6446197           2          
MisPlume(west)    GOM_UW_1704    2017-04-06T15:43:23Z    -90.8333   28.7134   22.6783      31.176    266.2313799           2          
MisPlume(west)    GOM_UW_1704    2017-04-06T15:44:53Z    -90.8333   28.713    22.6886      31.176    266.6925382           2          
MisPlume(west)    GOM_UW_1704    2017-04-06T15:46:22Z    -90.8332   28.7126   22.7109      31.185    267.6548692           2          
MisPlume(west)    GOM_UW_1704    2017-04-06T15:47:53Z    -90.8332   28.7122   22.7181      31.189    269.756451            2          
MisPlume(west)    GOM_UW_1704    2017-04-06T15:49:21Z    -90.8332   28.7117   22.7093      31.187    266.3960534           2          
MisPlume(west)    GOM_UW_1704    2017-04-06T15:50:50Z    -90.8332   28.7113   22.6924      31.18     266.4658037           2          
MisPlume(west)    GOM_UW_1704    2017-04-06T15:52:20Z    -90.8331   28.7108   22.6627      31.16     267.4521987           2          
MisPlume(west)    GOM_UW_1704    2017-04-06T15:53:50Z    -90.8331   28.7104   22.6744      31.159    266.9413201           2          
MisPlume(west)    GOM_UW_1704    2017-04-06T15:55:19Z    -90.833    28.71     22.6976      31.166    266.0606231           2          
MisPlume(west)    GOM_UW_1704    2017-04-06T15:56:47Z    -90.8329   28.7096   22.7156      31.174    266.4813437           2          
MisPlume(west)    GOM_UW_1704    2017-04-06T15:58:15Z    -90.8329   28.7092   22.7136      31.175    265.3951606           2          
MisPlume(west)    GOM_UW_1704    2017-04-06T15:59:42Z    -90.8328   28.7088   22.7096      31.176    266.1357628           2          
MisPlume(west)    GOM_UW_1704    2017-04-06T16:01:13Z    -90.8333   28.7071   22.7057      31.178    266.0583787           2          
MisPlume(west)    GOM_UW_1704    2017-04-06T16:02:44Z    -90.8331   28.7043   22.7574      31.147    267.1879849           2          
MisPlume(west)    GOM_UW_1704    2017-04-06T16:04:15Z    -90.8329   28.7015   22.785       31.143    264.6724072           2          
MisPlume(west)    GOM_UW_1704    2017-04-06T16:16:54Z    -90.8323   28.6782   22.9026      30.995    248.1503918           2          
MisPlume(west)    GOM_UW_1704    2017-04-06T16:18:23Z    -90.8323   28.6755   22.9169      30.976    245.4939391           2          
MisPlume(west)    GOM_UW_1704    2017-04-06T16:19:54Z    -90.8323   28.6727   22.8826      30.975    243.8120516           2          
MisPlume(west)    GOM_UW_1704    2017-04-06T16:21:22Z    -90.8323   28.67     22.9341      31.069    242.5338729           2          
MisPlume(west)    GOM_UW_1704    2017-04-06T16:22:50Z    -90.8324   28.6674   22.9312      31.062    243.8310836           2          
MisPlume(west)    GOM_UW_1704    2017-04-06T16:24:19Z    -90.8326   28.6647   22.9138      31.048    243.2637307           2          
MisPlume(west)    GOM_UW_1704    2017-04-06T16:25:47Z    -90.8328   28.6614   22.9117      31.031    239.0733119           2          
MisPlume(west)    GOM_UW_1704    2017-04-06T16:27:16Z    -90.8329   28.6576   22.9002      31.074    239.7061115           2          
MisPlume(west)    GOM_UW_1704    2017-04-06T16:28:44Z    -90.833    28.6539   22.8674      31.09     239.6889252           2          
MisPlume(west)    GOM_UW_1704    2017-04-06T16:30:12Z    -90.833    28.6503   22.876       31.129    241.5498745           2          
MisPlume(west)    GOM_UW_1704    2017-04-06T16:31:41Z    -90.8331   28.6466   22.8797      31.151    241.5156278           2          
MisPlume(west)    GOM_UW_1704    2017-04-06T16:33:10Z    -90.8331   28.6429   22.873       31.217    240.9355785           2          
MisPlume(west)    GOM_UW_1704    2017-04-06T16:34:39Z    -90.8332   28.6392   22.865       31.224    241.8314453           2          
MisPlume(west)    GOM_UW_1704    2017-04-06T16:36:07Z    -90.8333   28.6355   22.8551      31.241    240.5090168           2          
MisPlume(west)    GOM_UW_1704    2017-04-06T16:37:37Z    -90.8333   28.6317   22.8384      31.27     241.8813833           2          
MisPlume(west)    GOM_UW_1704    2017-04-06T16:39:08Z    -90.8333   28.6279   22.8352      31.361    242.0842668           2          
MisPlume(west)    GOM_UW_1704    2017-04-06T16:40:35Z    -90.8333   28.6243   22.8345      31.387    243.7478543           2          
MisPlume(west)    GOM_UW_1704    2017-04-06T16:42:04Z    -90.8333   28.6206   22.8324      31.381    243.794971            2          
MisPlume(west)    GOM_UW_1704    2017-04-06T16:43:32Z    -90.8333   28.617    22.8311      31.402    243.5873764           2          
MisPlume(west)    GOM_UW_1704    2017-04-06T16:45:00Z    -90.8334   28.6133   22.8124      31.378    240.4548415           2          
MisPlume(west)    GOM_UW_1704    2017-04-06T16:46:29Z    -90.8334   28.6096   22.815       31.343    239.6462039           2          
MisPlume(west)    GOM_UW_1704    2017-04-06T16:47:57Z    -90.8334   28.6085   22.8152      31.395    241.1326586           2          
MisPlume(west)    GOM_UW_1704    2017-04-06T16:49:28Z    -90.8333   28.6082   22.8229      31.404    238.6661945           2          
MisPlume(west)    GOM_UW_1704    2017-04-06T16:50:56Z    -90.8334   28.6079   22.8223      31.411    239.3451138           2          
MisPlume(west)    GOM_UW_1704    2017-04-06T16:52:27Z    -90.8335   28.6075   22.821       31.423    239.4504645           2          
MisPlume(west)    GOM_UW_1704    2017-04-06T16:53:56Z    -90.8336   28.6071   22.8215      31.422    238.3451043           2          
MisPlume(west)    GOM_UW_1704    2017-04-06T16:55:25Z    -90.8337   28.6067   22.8235      31.425    239.8382368           2          
MisPlume(west)    GOM_UW_1704    2017-04-06T16:56:53Z    -90.8337   28.6064   22.8171      31.433    237.8099412           2          
MisPlume(west)    GOM_UW_1704    2017-04-06T16:58:20Z    -90.8337   28.6061   22.8214      31.431    237.7919681           2          
MisPlume(west)    GOM_UW_1704    2017-04-06T16:59:50Z    -90.8337   28.6057   22.8201      31.428    237.56364             2          
MisPlume(west)    GOM_UW_1704    2017-04-06T17:01:18Z    -90.8338   28.6054   22.8165      31.426    237.777913            2          
MisPlume(west)    GOM_UW_1704    2017-04-06T17:02:47Z    -90.8338   28.605    22.8185      31.43     237.8641281           2          
MisPlume(west)    GOM_UW_1704    2017-04-06T17:04:18Z    -90.8338   28.6047   22.8228      31.443    235.9878519           2          
MisPlume(west)    GOM_UW_1704    2017-04-06T17:05:48Z    -90.8338   28.6043   22.8246      31.459    236.9488134           2          
MisPlume(west)    GOM_UW_1704    2017-04-06T17:07:18Z    -90.8337   28.604    22.8243      31.477    236.4290293           2          
MisPlume(west)    GOM_UW_1704    2017-04-06T17:08:46Z    -90.8336   28.6037   22.8249      31.495    236.4854819           2          
MisPlume(west)    GOM_UW_1704    2017-04-06T17:10:14Z    -90.8336   28.6034   22.8281      31.5      236.6045504           2          
MisPlume(west)    GOM_UW_1704    2017-04-06T17:11:43Z    -90.8336   28.6031   22.8289      31.5      236.779879            2          
MisPlume(west)    GOM_UW_1704    2017-04-06T17:13:13Z    -90.8336   28.6028   22.8293      31.501    237.1896834           2          
MisPlume(west)    GOM_UW_1704    2017-04-06T17:14:41Z    -90.8336   28.6024   22.8296      31.501    235.5601549           2          
MisPlume(west)    GOM_UW_1704    2017-04-06T17:16:09Z    -90.8336   28.6021   22.8327      31.503    235.4772145           2          
MisPlume(west)    GOM_UW_1704    2017-04-06T17:17:37Z    -90.8336   28.6017   22.8314      31.516    236.4966386           2          
MisPlume(west)    GOM_UW_1704    2017-04-06T17:19:06Z    -90.8336   28.6014   22.8342      31.52     234.8960562           2          
MisPlume(west)    GOM_UW_1704    2017-04-06T17:20:37Z    -90.8335   28.601    22.8353      31.521    234.3006784           2          
MisPlume(west)    GOM_UW_1704    2017-04-06T17:22:05Z    -90.8335   28.6008   22.8381      31.529    235.3809592           2          
MisPlume(west)    GOM_UW_1704    2017-04-06T17:23:35Z    -90.8337   28.5995   22.8332      31.537    235.3661986           2          
MisPlume(west)    GOM_UW_1704    2017-04-06T17:25:05Z    -90.8335   28.5969   22.8257      31.562    235.8430256           2          
MisPlume(west)    GOM_UW_1704    2017-04-06T17:26:34Z    -90.8333   28.5943   22.8272      31.609    237.9199759           2          
MisPlume(west)    GOM_UW_1704    2017-04-06T17:28:02Z    -90.8331   28.5917   22.8208      31.634    239.0953452           2          
MisPlume(west)    GOM_UW_1704    2017-04-06T17:29:34Z    -90.8329   28.589    22.8259      31.676    239.4869488           2          
MisPlume(west)    GOM_UW_1704    2017-04-06T17:31:02Z    -90.8328   28.5864   22.8201      31.767    241.6466458           2          
MisPlume(west)    GOM_UW_1704    2017-04-06T17:32:29Z    -90.8329   28.5838   22.8205      31.78     241.0718715           2          
MisPlume(west)    GOM_UW_1704    2017-04-06T17:33:59Z    -90.8329   28.5812   22.8072      31.807    240.2674155           2          
MisPlume(west)    GOM_UW_1704    2017-04-06T17:35:28Z    -90.8329   28.5787   22.8003      31.845    243.1053822           2          
MisPlume(west)    GOM_UW_1704    2017-04-06T17:36:56Z    -90.833    28.5759   22.8126      31.87     243.1342465           2          
MisPlume(west)    GOM_UW_1704    2017-04-06T17:38:26Z    -90.833    28.5722   22.8167      31.951    245.063246            2          
MisPlume(west)    GOM_UW_1704    2017-04-06T17:39:57Z    -90.8331   28.5684   22.8148      32.031    246.1838464           2          
MisPlume(west)    GOM_UW_1704    2017-04-06T17:41:26Z    -90.8332   28.5647   22.8174      32.05     250.0743077           2          
MisPlume(west)    GOM_UW_1704    2017-04-06T17:42:55Z    -90.8333   28.561    22.8204      32.05     246.7166814           2          
MisPlume(west)    GOM_UW_1704    2017-04-06T17:44:27Z    -90.8334   28.5571   22.8174      32.093    249.3495828           2          
MisPlume(west)    GOM_UW_1704    2017-04-06T17:45:58Z    -90.8334   28.5533   22.8213      32.162    246.1682768           2          
MisPlume(west)    GOM_UW_1704    2017-04-06T17:47:25Z    -90.8335   28.5497   22.823       32.176    247.360087            2          
MisPlume(west)    GOM_UW_1704    2017-04-06T17:48:54Z    -90.8336   28.5459   22.8242      32.225    247.6630354           2          
MisPlume(west)    GOM_UW_1704    2017-04-06T17:50:22Z    -90.8336   28.5422   22.8172      32.268    249.7344798           2          
MisPlume(west)    GOM_UW_1704    2017-04-06T17:51:53Z    -90.8335   28.5384   22.8175      32.294    251.4731618           2          
MisPlume(west)    GOM_UW_1704    2017-04-06T17:53:21Z    -90.8335   28.5347   22.8241      32.465    250.552933            2          
MisPlume(west)    GOM_UW_1704    2017-04-06T17:54:49Z    -90.8334   28.531    22.8228      32.552    257.2135077           2          
MisPlume(west)    GOM_UW_1704    2017-04-06T17:56:18Z    -90.8333   28.5273   22.8254      32.589    257.2737584           2          
MisPlume(west)    GOM_UW_1704    2017-04-06T17:57:46Z    -90.8332   28.5236   22.83        32.637    258.2874365           2          
MisPlume(west)    GOM_UW_1704    2017-04-06T17:59:15Z    -90.8332   28.5199   22.8341      32.689    261.0605649           2          
MisPlume(west)    GOM_UW_1704    2017-04-06T18:00:44Z    -90.8331   28.5162   22.8298      32.725    260.7474453           2          
MisPlume(west)    GOM_UW_1704    2017-04-06T18:02:16Z    -90.8331   28.5123   22.8257      32.775    260.776858            2          
MisPlume(west)    GOM_UW_1704    2017-04-06T18:03:43Z    -90.833    28.5087   22.8369      32.885    260.7257531           2          
MisPlume(west)    GOM_UW_1704    2017-04-06T18:05:12Z    -90.833    28.5051   22.8318      32.922    263.8974508           2          
MisPlume(west)    GOM_UW_1704    2017-04-06T18:06:43Z    -90.833    28.5016   22.8367      32.935    263.9996046           2          
MisPlume(west)    GOM_UW_1704    2017-04-06T18:08:11Z    -90.833    28.5008   22.8401      32.97     263.8321093           2          
MisPlume(west)    GOM_UW_1704    2017-04-06T18:09:42Z    -90.8329   28.5005   22.8498      32.985    264.9420722           2          
MisPlume(west)    GOM_UW_1704    2017-04-06T18:11:10Z    -90.8328   28.5002   22.8495      33.008    265.3549999           2          
MisPlume(west)    GOM_UW_1704    2017-04-06T18:12:38Z    -90.8328   28.4999   22.8525      33.012    264.5126329           2          
MisPlume(west)    GOM_UW_1704    2017-04-06T18:14:06Z    -90.8327   28.4996   22.8504      33.024    265.3881026           2          
MisPlume(west)    GOM_UW_1704    2017-04-06T18:15:35Z    -90.8327   28.4993   22.8545      33.018    266.4391414           2          
MisPlume(west)    GOM_UW_1704    2017-04-06T18:17:02Z    -90.8326   28.4989   22.8562      33.021    263.9928487           2          
MisPlume(west)    GOM_UW_1704    2017-04-06T18:18:31Z    -90.8325   28.4987   22.8581      33.013    264.6701187           2          
MisPlume(west)    GOM_UW_1704    2017-04-06T18:20:01Z    -90.8325   28.4984   22.865       33.001    264.5252027           2          
MisPlume(west)    GOM_UW_1704    2017-04-06T18:21:30Z    -90.8323   28.4981   22.8607      33.011    265.628883            2          
MisPlume(west)    GOM_UW_1704    2017-04-06T18:22:59Z    -90.8322   28.4978   22.8619      33.008    265.6649687           2          
MisPlume(west)    GOM_UW_1704    2017-04-06T18:24:27Z    -90.8321   28.4975   22.8653      33.015    264.0221658           2          
MisPlume(west)    GOM_UW_1704    2017-04-06T18:25:57Z    -90.832    28.4972   22.861       33.03     265.4961148           2          
MisPlume(west)    GOM_UW_1704    2017-04-06T18:27:27Z    -90.8319   28.4969   22.8662      33.031    265.182969            2          
MisPlume(west)    GOM_UW_1704    2017-04-06T18:28:58Z    -90.8318   28.4966   22.8713      33.046    264.0871094           2          
MisPlume(west)    GOM_UW_1704    2017-04-06T18:30:29Z    -90.8316   28.4964   22.8735      33.057    264.7373499           2          
MisPlume(west)    GOM_UW_1704    2017-04-06T18:31:59Z    -90.8313   28.4961   22.8746      33.076    267.1268824           2          
MisPlume(west)    GOM_UW_1704    2017-04-06T18:33:29Z    -90.831    28.496    22.8758      33.07     266.3264164           2          
MisPlume(west)    GOM_UW_1704    2017-04-06T18:34:57Z    -90.8309   28.4957   22.8737      33.076    265.7543135           2          
MisPlume(west)    GOM_UW_1704    2017-04-06T18:36:24Z    -90.8307   28.4955   22.8842      33.086    264.8579673           2          
MisPlume(west)    GOM_UW_1704    2017-04-06T18:37:54Z    -90.8305   28.4953   22.8822      33.109    266.2418928           2          
MisPlume(west)    GOM_UW_1704    2017-04-06T18:39:22Z    -90.8303   28.4951   22.889       33.123    265.061281            2          
MisPlume(west)    GOM_UW_1704    2017-04-06T18:40:53Z    -90.83     28.4949   22.89        33.118    265.8211179           2          
MisPlume(west)    GOM_UW_1704    2017-04-06T18:42:21Z    -90.8299   28.4947   22.8847      33.134    265.6192231           2          
MisPlume(west)    GOM_UW_1704    2017-04-06T18:43:50Z    -90.8297   28.4944   22.885       33.145    267.0594815           2          
MisPlume(west)    GOM_UW_1704    2017-04-06T18:45:18Z    -90.8295   28.4942   22.8867      33.151    266.8495242           2          
MisPlume(west)    GOM_UW_1704    2017-04-06T18:46:46Z    -90.8292   28.494    22.8873      33.159    267.0990565           2          
MisPlume(west)    GOM_UW_1704    2017-04-06T18:48:16Z    -90.8292   28.4937   22.8893      33.167    266.4642505           2          
MisPlume(west)    GOM_UW_1704    2017-04-06T18:49:45Z    -90.829    28.4935   22.8942      33.177    267.7548335           2          
MisPlume(west)    GOM_UW_1704    2017-04-06T18:51:13Z    -90.8289   28.4933   22.8969      33.194    266.6080723           2          
MisPlume(west)    GOM_UW_1704    2017-04-06T18:52:44Z    -90.8287   28.493    22.8989      33.216    267.1691533           2          
MisPlume(west)    GOM_UW_1704    2017-04-06T18:54:11Z    -90.8285   28.4928   22.9004      33.228    268.9599849           2          
MisPlume(west)    GOM_UW_1704    2017-04-06T18:55:40Z    -90.8283   28.4926   22.9051      33.27     273.0646092           2          
MisPlume(west)    GOM_UW_1704    2017-04-06T18:57:09Z    -90.8281   28.4923   22.9006      33.307    275.8139324           2          
MisPlume(west)    GOM_UW_1704    2017-04-06T18:58:37Z    -90.828    28.4921   22.9034      33.318    272.7075847           2          
MisPlume(west)    GOM_UW_1704    2017-04-06T19:00:08Z    -90.8278   28.4919   22.9089      33.32     276.0529167           2          
MisPlume(west)    GOM_UW_1704    2017-04-06T19:01:37Z    -90.8276   28.4918   22.9095      33.317    273.7568184           2          
MisPlume(west)    GOM_UW_1704    2017-04-06T19:03:08Z    -90.8275   28.4914   22.9083      33.31     274.0938284           2          
MisPlume(west)    GOM_UW_1704    2017-04-06T19:04:37Z    -90.8274   28.4911   22.9108      33.299    271.8770963           2          
MisPlume(west)    GOM_UW_1704    2017-04-06T19:06:08Z    -90.8273   28.4907   22.9091      33.298    270.9310974           2          
MisPlume(west)    GOM_UW_1704    2017-04-06T19:07:37Z    -90.8271   28.4906   22.9114      33.295    271.8105344           2          
MisPlume(west)    GOM_UW_1704    2017-04-06T19:09:05Z    -90.8269   28.4903   22.91        33.304    273.1846531           2          
MisPlume(west)    GOM_UW_1704    2017-04-06T19:10:33Z    -90.8267   28.49     22.913       33.313    271.693922            2          
MisPlume(west)    GOM_UW_1704    2017-04-06T19:12:01Z    -90.8264   28.4898   22.9147      33.331    273.1650751           2          
MisPlume(west)    GOM_UW_1704    2017-04-06T19:13:30Z    -90.8262   28.4896   22.9171      33.335    272.9870735           2          
MisPlume(west)    GOM_UW_1704    2017-04-06T19:26:07Z    -90.8334   28.4999   22.9134      33.09     274.6557136           2          
MisPlume(west)    GOM_UW_1704    2017-04-06T19:27:35Z    -90.8339   28.4997   22.9151      33.047    272.5366495           2          
MisPlume(west)    GOM_UW_1704    2017-04-06T19:29:03Z    -90.834    28.4993   22.9154      33.061    268.4756403           2          
MisPlume(west)    GOM_UW_1704    2017-04-06T19:30:33Z    -90.8339   28.4989   22.9219      33.066    268.4459119           2          
MisPlume(west)    GOM_UW_1704    2017-04-06T19:32:02Z    -90.8338   28.4986   22.9182      33.078    267.5999356           2          
MisPlume(west)    GOM_UW_1704    2017-04-06T19:33:31Z    -90.8336   28.4983   22.915       33.089    267.7124422           2          
MisPlume(west)    GOM_UW_1704    2017-04-06T19:34:58Z    -90.8334   28.498    22.9218      33.104    269.4373139           2          
MisPlume(west)    GOM_UW_1704    2017-04-06T19:36:27Z    -90.8333   28.4977   22.9151      33.138    270.8815721           2          
MisPlume(west)    GOM_UW_1704    2017-04-06T19:37:57Z    -90.8331   28.4974   22.924       33.12     268.3679256           2          
MisPlume(west)    GOM_UW_1704    2017-04-06T19:39:24Z    -90.8329   28.4971   22.9264      33.121    267.0181529           2          
MisPlume(west)    GOM_UW_1704    2017-04-06T19:40:54Z    -90.8328   28.4968   22.9284      33.127    268.5936704           2          
MisPlume(west)    GOM_UW_1704    2017-04-06T19:42:25Z    -90.8326   28.4965   22.9309      33.121    268.8148314           2          
MisPlume(west)    GOM_UW_1704    2017-04-06T19:43:53Z    -90.8325   28.4962   22.9331      33.13     268.9454309           2          
MisPlume(west)    GOM_UW_1704    2017-04-06T19:45:21Z    -90.8323   28.4959   22.9293      33.165    268.8409914           2          
MisPlume(west)    GOM_UW_1704    2017-04-06T19:46:50Z    -90.8321   28.4957   22.9289      33.157    268.7516315           2          
MisPlume(west)    GOM_UW_1704    2017-04-06T19:48:18Z    -90.8318   28.4954   22.933       33.202    269.8931412           2          
MisPlume(west)    GOM_UW_1704    2017-04-06T19:49:46Z    -90.8317   28.4951   22.9305      33.226    271.5381175           2          
MisPlume(west)    GOM_UW_1704    2017-04-06T19:51:16Z    -90.8316   28.4948   22.932       33.244    270.438557            2          
MisPlume(west)    GOM_UW_1704    2017-04-06T19:52:46Z    -90.8314   28.4945   22.9366      33.26     271.8025057           2          
MisPlume(west)    GOM_UW_1704    2017-04-06T19:54:14Z    -90.8311   28.4943   22.9348      33.28     272.1295631           2          
MisPlume(west)    GOM_UW_1704    2017-04-06T19:55:45Z    -90.8309   28.4941   22.9333      33.288    272.1166846           2          
MisPlume(west)    GOM_UW_1704    2017-04-06T19:57:16Z    -90.8307   28.4938   22.9367      33.298    275.0852765           2          
MisPlume(west)    GOM_UW_1704    2017-04-06T19:58:45Z    -90.8305   28.4935   22.9374      33.309    271.3781312           2          
MisPlume(west)    GOM_UW_1704    2017-04-06T20:00:13Z    -90.8304   28.4933   22.9409      33.321    273.6524551           2          
MisPlume(west)    GOM_UW_1704    2017-04-06T20:01:41Z    -90.8302   28.4931   22.9457      33.318    274.7798256           2          
MisPlume(west)    GOM_UW_1704    2017-04-06T20:03:10Z    -90.83     28.4928   22.9473      33.334    273.4340127           2          
MisPlume(west)    GOM_UW_1704    2017-04-06T20:04:39Z    -90.8298   28.4926   22.9491      33.337    275.784017            2          
MisPlume(west)    GOM_UW_1704    2017-04-06T20:06:06Z    -90.8305   28.4922   22.9506      33.35     272.9846432           2          
MisPlume(west)    GOM_UW_1704    2017-04-06T20:07:35Z    -90.8312   28.4939   22.9481      33.339    277.2071707           2          
MisPlume(west)    GOM_UW_1704    2017-04-06T20:09:05Z    -90.832    28.4963   22.9438      33.304    283.6937026           2          
MisPlume(west)    GOM_UW_1704    2017-04-06T20:10:33Z    -90.8328   28.4987   22.9419      33.28     281.5270056           2          
MisPlume(west)    GOM_UW_1704    2017-04-06T20:12:04Z    -90.8338   28.4999   22.9453      33.238    278.4559667           2          
MisPlume(west)    GOM_UW_1704    2017-04-06T20:13:32Z    -90.834    28.4995   22.9424      33.21     274.5959469           2          
MisPlume(west)    GOM_UW_1704    2017-04-06T20:15:00Z    -90.8339   28.4992   22.9461      33.219    273.9625977           2          
MisPlume(west)    GOM_UW_1704    2017-04-06T20:16:31Z    -90.8337   28.499    22.9476      33.236    272.0563163           2          
MisPlume(west)    GOM_UW_1704    2017-04-06T20:18:02Z    -90.8335   28.4987   22.9459      33.249    271.2478228           2          
MisPlume(west)    GOM_UW_1704    2017-04-06T20:19:30Z    -90.8333   28.4985   22.9446      33.263    272.1160902           2          
MisPlume(west)    GOM_UW_1704    2017-04-06T20:20:59Z    -90.8331   28.4983   22.9468      33.277    270.2374121           2          
MisPlume(west)    GOM_UW_1704    2017-04-06T20:22:27Z    -90.8329   28.498    22.9496      33.289    271.0124942           2          
MisPlume(west)    GOM_UW_1704    2017-04-06T20:23:56Z    -90.8327   28.4978   22.9476      33.301    270.3014483           2          
MisPlume(west)    GOM_UW_1704    2017-04-06T20:25:24Z    -90.8324   28.4975   22.9534      33.304    271.427614            2          
MisPlume(west)    GOM_UW_1704    2017-04-06T20:26:52Z    -90.8322   28.4973   22.954       33.313    271.2748995           2          
MisPlume(west)    GOM_UW_1704    2017-04-06T20:28:20Z    -90.832    28.4971   22.9558      33.335    271.4965067           2          
MisPlume(west)    GOM_UW_1704    2017-04-06T20:29:48Z    -90.8317   28.4968   22.959       33.345    271.2824021           2          
MisPlume(west)    GOM_UW_1704    2017-04-06T20:31:17Z    -90.8315   28.4966   22.9576      33.355    273.1144292           2          
MisPlume(west)    GOM_UW_1704    2017-04-06T20:32:45Z    -90.8311   28.4964   22.9618      33.379    272.940496            2          
MisPlume(west)    GOM_UW_1704    2017-04-06T20:34:15Z    -90.8308   28.4962   22.9637      33.408    273.1880922           2          
MisPlume(west)    GOM_UW_1704    2017-04-06T20:35:43Z    -90.8305   28.496    22.9627      33.421    274.9104664           2          
MisPlume(west)    GOM_UW_1704    2017-04-06T20:37:12Z    -90.8303   28.4958   22.9646      33.433    274.543147            2          
MisPlume(west)    GOM_UW_1704    2017-04-06T20:38:42Z    -90.83     28.4955   22.9651      33.443    274.1456489           2          
MisPlume(west)    GOM_UW_1704    2017-04-06T20:40:14Z    -90.8296   28.4953   22.9684      33.454    275.2016314           2          
MisPlume(west)    GOM_UW_1704    2017-04-06T20:41:42Z    -90.8293   28.4952   22.9692      33.459    275.5078228           2          
MisPlume(west)    GOM_UW_1704    2017-04-06T20:43:11Z    -90.829    28.495    22.97        33.474    274.7033231           2          
MisPlume(west)    GOM_UW_1704    2017-04-06T20:44:41Z    -90.8287   28.4948   22.9683      33.487    276.6766645           2          
MisPlume(west)    GOM_UW_1704    2017-04-06T20:46:09Z    -90.8284   28.4946   22.968       33.499    276.6146758           2          
MisPlume(west)    GOM_UW_1704    2017-04-06T20:47:37Z    -90.828    28.4944   22.9647      33.513    277.5479758           2          
MisPlume(west)    GOM_UW_1704    2017-04-06T20:49:06Z    -90.8277   28.4942   22.9646      33.524    277.7900641           2          
MisPlume(west)    GOM_UW_1704    2017-04-06T20:50:34Z    -90.8278   28.4938   22.9567      33.542    275.7388726           2          
MisPlume(west)    GOM_UW_1704    2017-04-06T20:52:03Z    -90.8288   28.4947   22.9641      33.53     276.7351119           2          
MisPlume(west)    GOM_UW_1704    2017-04-06T20:53:31Z    -90.8305   28.4967   22.9701      33.489    278.2349251           2          
MisPlume(west)    GOM_UW_1704    2017-04-06T20:55:01Z    -90.8322   28.4986   22.9691      33.412    280.6141102           2          
MisPlume(west)    GOM_UW_1704    2017-04-06T20:56:29Z    -90.8333   28.5      22.9573      33.318    281.5793932           2          
MisPlume(west)    GOM_UW_1704    2017-04-06T20:58:00Z    -90.8335   28.4999   22.957       33.331    273.6135284           2          
MisPlume(west)    GOM_UW_1704    2017-04-06T20:59:27Z    -90.8334   28.4998   22.9578      33.325    273.1782375           2          
MisPlume(west)    GOM_UW_1704    2017-04-06T21:00:56Z    -90.8331   28.4997   22.9565      33.361    273.7967966           2          
MisPlume(west)    GOM_UW_1704    2017-04-06T21:02:25Z    -90.8329   28.4996   22.957       33.359    272.3722527           2          
MisPlume(west)    GOM_UW_1704    2017-04-06T21:03:52Z    -90.8328   28.4994   22.9595      33.374    272.202398            2          
MisPlume(west)    GOM_UW_1704    2017-04-06T21:05:22Z    -90.8326   28.4991   22.9586      33.381    274.8988025           2          
MisPlume(west)    GOM_UW_1704    2017-04-06T21:06:50Z    -90.8324   28.4987   22.9667      33.407    272.7973838           2          
MisPlume(west)    GOM_UW_1704    2017-04-06T21:08:18Z    -90.8321   28.4985   22.9663      33.42     275.590124            2          
MisPlume(west)    GOM_UW_1704    2017-04-06T21:09:49Z    -90.8317   28.4983   22.97        33.436    276.7781426           2          
MisPlume(west)    GOM_UW_1704    2017-04-06T21:11:19Z    -90.8314   28.4981   22.9746      33.434    274.1152215           2          
MisPlume(west)    GOM_UW_1704    2017-04-06T21:12:48Z    -90.8311   28.4979   22.9828      33.435    273.7868089           2          
MisPlume(west)    GOM_UW_1704    2017-04-06T21:14:18Z    -90.8309   28.4976   22.9793      33.445    273.204558            2          
MisPlume(west)    GOM_UW_1704    2017-04-06T21:15:46Z    -90.8319   28.498    22.9787      33.46     274.2998513           2          
MisPlume(west)    GOM_UW_1704    2017-04-06T21:17:14Z    -90.8332   28.5      22.9738      33.417    279.5578083           2          
MisPlume(west)    GOM_UW_1704    2017-04-06T21:18:43Z    -90.8335   28.5002   22.9712      33.369    278.3529604           2          
MisPlume(west)    GOM_UW_1704    2017-04-06T21:20:12Z    -90.8334   28.5001   22.9668      33.435    274.9333698           2          
MisPlume(west)    GOM_UW_1704    2017-04-06T21:21:39Z    -90.8331   28.5001   22.9719      33.36     273.6773429           2          
MisPlume(west)    GOM_UW_1704    2017-04-06T21:23:08Z    -90.8329   28.5      22.9715      33.369    274.4721103           2          
MisPlume(west)    GOM_UW_1704    2017-04-06T21:24:36Z    -90.8327   28.4997   22.9709      33.383    274.8510718           2          
MisPlume(west)    GOM_UW_1704    2017-04-06T21:26:05Z    -90.8324   28.4994   22.9795      33.403    273.9356239           2          
MisPlume(west)    GOM_UW_1704    2017-04-06T21:27:33Z    -90.8321   28.4992   22.9799      33.413    277.7674267           2          
MisPlume(west)    GOM_UW_1704    2017-04-06T21:29:04Z    -90.8318   28.4991   22.9822      33.426    279.4444171           2          
MisPlume(west)    GOM_UW_1704    2017-04-06T21:30:33Z    -90.8317   28.4986   22.9803      33.436    275.8830254           2          
MisPlume(west)    GOM_UW_1704    2017-04-06T21:32:01Z    -90.8328   28.4994   22.9805      33.445    277.7142831           2          
MisPlume(west)    GOM_UW_1704    2017-04-06T21:33:31Z    -90.8333   28.5002   22.976       33.381    280.5554097           2          
MisPlume(west)    GOM_UW_1704    2017-04-06T21:35:02Z    -90.8334   28.4999   22.9773      33.416    276.3114776           2          
MisPlume(west)    GOM_UW_1704    2017-04-06T21:36:30Z    -90.8333   28.4996   22.975       33.401    278.487096            2          
MisPlume(west)    GOM_UW_1704    2017-04-06T21:38:00Z    -90.833    28.4994   22.9781      33.405    274.530106            2          
MisPlume(west)    GOM_UW_1704    2017-04-06T21:39:28Z    -90.8328   28.4993   22.9757      33.412    274.1632145           2          
MisPlume(west)    GOM_UW_1704    2017-04-06T21:41:00Z    -90.8327   28.4991   22.9785      33.425    275.3175889           2          
MisPlume(west)    GOM_UW_1704    2017-04-06T21:42:29Z    -90.8325   28.4991   22.9813      33.429    280.5350263           2          
MisPlume(west)    GOM_UW_1704    2017-04-06T21:43:57Z    -90.8323   28.4988   22.9759      33.447    280.5528949           2          
MisPlume(west)    GOM_UW_1704    2017-04-06T21:45:25Z    -90.8321   28.4985   22.9828      33.457    275.7014469           2          
MisPlume(west)    GOM_UW_1704    2017-04-06T21:46:56Z    -90.8319   28.4983   22.9827      33.453    276.2224958           2          
MisPlume(west)    GOM_UW_1704    2017-04-06T21:48:24Z    -90.8315   28.4981   22.9814      33.465    274.6239482           2          
MisPlume(west)    GOM_UW_1704    2017-04-06T21:49:52Z    -90.8312   28.498    22.9843      33.471    275.3190689           2          
MisPlume(west)    GOM_UW_1704    2017-04-06T21:51:21Z    -90.8311   28.498    22.9894      33.476    276.239541            2          
MisPlume(west)    GOM_UW_1704    2017-04-06T21:52:52Z    -90.831    28.4974   22.9862      33.489    278.5148363           2          
MisPlume(west)    GOM_UW_1704    2017-04-06T21:54:20Z    -90.8308   28.4971   22.9823      33.503    274.4159547           2          
MisPlume(west)    GOM_UW_1704    2017-04-06T21:55:49Z    -90.8306   28.4967   22.9864      33.504    274.4734822           2          
MisPlume(west)    GOM_UW_1704    2017-04-06T21:57:17Z    -90.8304   28.4964   22.9817      33.503    275.7520124           2          
MisPlume(west)    GOM_UW_1704    2017-04-06T21:58:46Z    -90.8302   28.4962   22.9814      33.524    274.5367717           2          
MisPlume(west)    GOM_UW_1704    2017-04-06T22:00:14Z    -90.8299   28.496    22.9743      33.515    276.8417443           2          
MisPlume(west)    GOM_UW_1704    2017-04-06T22:01:45Z    -90.8301   28.4948   22.9703      33.536    278.9890413           2          
MisPlume(west)    GOM_UW_1704    2017-04-06T22:03:14Z    -90.8301   28.4916   22.9686      33.565    277.4387336           2          
MisPlume(west)    GOM_UW_1704    2017-04-06T22:04:43Z    -90.83     28.4882   22.9684      33.63     279.4670456           2          
MisPlume(west)    GOM_UW_1704    2017-04-06T22:06:13Z    -90.8301   28.4848   22.9696      33.633    280.3714847           2          
MisPlume(west)    GOM_UW_1704    2017-04-06T22:07:42Z    -90.8301   28.4813   22.9674      33.719    282.1782421           2          
MisPlume(west)    GOM_UW_1704    2017-04-06T22:09:11Z    -90.8301   28.4779   22.9684      33.759    286.2660355           2          
MisPlume(west)    GOM_UW_1704    2017-04-06T22:10:40Z    -90.8301   28.4744   22.9722      33.817    287.0446582           2          
MisPlume(west)    GOM_UW_1704    2017-04-06T22:12:08Z    -90.8301   28.4711   22.9742      33.878    289.6813042           2          
MisPlume(west)    GOM_UW_1704    2017-04-06T22:13:37Z    -90.8301   28.4677   22.9742      33.937    289.8116951           2          
MisPlume(west)    GOM_UW_1704    2017-04-06T22:15:06Z    -90.8301   28.4642   22.9803      34.004    290.8229972           2          
MisPlume(west)    GOM_UW_1704    2017-04-06T22:16:36Z    -90.8301   28.4608   22.9762      34.063    294.6085494           2          
MisPlume(west)    GOM_UW_1704    2017-04-06T22:18:04Z    -90.8301   28.4574   22.9835      34.134    297.6556097           2          
MisPlume(west)    GOM_UW_1704    2017-04-06T22:19:33Z    -90.8301   28.454    22.9795      34.212    301.3385871           2          
MisPlume(west)    GOM_UW_1704    2017-04-06T22:21:02Z    -90.8301   28.4505   22.9775      34.308    305.0093674           2          
MisPlume(west)    GOM_UW_1704    2017-04-06T22:22:30Z    -90.8301   28.4472   22.9771      34.386    308.0767345           2          
MisPlume(west)    GOM_UW_1704    2017-04-06T22:35:06Z    -90.8304   28.4184   22.944       34.807    335.2433825           2          
MisPlume(west)    GOM_UW_1704    2017-04-06T22:36:36Z    -90.8304   28.415    22.9345      34.815    339.8095106           2          
MisPlume(west)    GOM_UW_1704    2017-04-06T22:38:04Z    -90.8305   28.4117   22.9364      34.842    341.716699            2          
MisPlume(west)    GOM_UW_1704    2017-04-06T22:39:34Z    -90.8306   28.4082   22.9276      34.866    344.3994413           2          
MisPlume(west)    GOM_UW_1704    2017-04-06T22:41:03Z    -90.8307   28.4048   22.8917      34.873    343.9487574           2          
MisPlume(west)    GOM_UW_1704    2017-04-06T22:42:32Z    -90.8307   28.4014   22.8728      34.914    346.5301861           2          
MisPlume(west)    GOM_UW_1704    2017-04-06T22:44:00Z    -90.8308   28.398    22.8635      34.957    351.5780604           2          
MisPlume(west)    GOM_UW_1704    2017-04-06T22:45:28Z    -90.8309   28.3947   22.8622      34.974    353.0535751           2          
MisPlume(west)    GOM_UW_1704    2017-04-06T22:46:56Z    -90.8309   28.3913   22.8665      35.017    353.3105705           2          
MisPlume(west)    GOM_UW_1704    2017-04-06T22:48:27Z    -90.831    28.3878   22.8671      35.046    356.4509273           2          
MisPlume(west)    GOM_UW_1704    2017-04-06T22:49:56Z    -90.8311   28.3844   22.8679      35.077    358.0617821           2          
MisPlume(west)    GOM_UW_1704    2017-04-06T22:51:25Z    -90.8312   28.3809   22.8714      35.124    359.187152            2          
MisPlume(west)    GOM_UW_1704    2017-04-06T22:52:53Z    -90.8312   28.3775   22.8645      35.163    360.8200366           2          
MisPlume(west)    GOM_UW_1704    2017-04-06T22:54:21Z    -90.8313   28.3741   22.8633      35.205    362.1472377           2          
MisPlume(west)    GOM_UW_1704    2017-04-06T22:55:49Z    -90.8313   28.3707   22.8641      35.248    362.5113443           2          
MisPlume(west)    GOM_UW_1704    2017-04-06T22:57:19Z    -90.8314   28.3672   22.8694      35.293    362.6811674           2          
MisPlume(west)    GOM_UW_1704    2017-04-06T22:58:46Z    -90.8315   28.3638   22.8735      35.34     364.7470498           2          
MisPlume(west)    GOM_UW_1704    2017-04-06T23:00:14Z    -90.8316   28.3604   22.8775      35.393    365.0690511           2          
MisPlume(west)    GOM_UW_1704    2017-04-06T23:01:43Z    -90.8316   28.357    22.8799      35.438    365.2655509           2          
MisPlume(west)    GOM_UW_1704    2017-04-06T23:03:12Z    -90.8317   28.3535   22.8875      35.497    365.2618712           2          
MisPlume(west)    GOM_UW_1704    2017-04-06T23:04:40Z    -90.8317   28.3502   22.8883      35.544    367.7676946           2          
MisPlume(west)    GOM_UW_1704    2017-04-06T23:06:08Z    -90.8318   28.3468   22.8888      35.562    368.4203272           2          
MisPlume(west)    GOM_UW_1704    2017-04-06T23:07:37Z    -90.8319   28.3433   22.8938      35.642    369.9068452           2          
MisPlume(west)    GOM_UW_1704    2017-04-06T23:09:04Z    -90.832    28.3399   22.8952      35.683    nd                    2          
MisPlume(west)    GOM_UW_1704    2017-04-06T23:10:36Z    -90.832    28.3364   22.8983      35.752    370.8589354           2          
MisPlume(west)    GOM_UW_1704    2017-04-06T23:12:07Z    -90.8321   28.3329   22.8994      35.796    371.5243385           2          
MisPlume(west)    GOM_UW_1704    2017-04-06T23:13:38Z    -90.8322   28.3294   22.9011      35.84     371.6194444           2          
MisPlume(west)    GOM_UW_1704    2017-04-06T23:15:06Z    -90.8322   28.326    22.9055      35.88     372.4329814           2          
MisPlume(west)    GOM_UW_1704    2017-04-06T23:16:35Z    -90.8323   28.3225   22.9082      35.908    373.3398287           2          
MisPlume(west)    GOM_UW_1704    2017-04-06T23:18:05Z    -90.8324   28.319    22.9067      35.927    374.0759551           2          
MisPlume(west)    GOM_UW_1704    2017-04-06T23:19:34Z    -90.8324   28.3156   22.9087      35.931    375.1034988           2          
MisPlume(west)    GOM_UW_1704    2017-04-06T23:21:02Z    -90.8325   28.3122   22.9117      35.974    374.6785077           2          
MisPlume(west)    GOM_UW_1704    2017-04-06T23:22:31Z    -90.8326   28.3088   22.9039      35.991    374.8367585           2          
MisPlume(west)    GOM_UW_1704    2017-04-06T23:24:00Z    -90.8327   28.3053   22.9081      36.014    375.7044495           2          
MisPlume(west)    GOM_UW_1704    2017-04-06T23:25:28Z    -90.8327   28.3019   22.9175      36.032    374.852716            2          
MisPlume(west)    GOM_UW_1704    2017-04-06T23:26:58Z    -90.8328   28.2984   22.9232      36.044    373.3902913           2          
MisPlume(west)    GOM_UW_1704    2017-04-06T23:28:29Z    -90.8328   28.2948   22.9266      36.066    374.5500036           2          
MisPlume(west)    GOM_UW_1704    2017-04-06T23:30:00Z    -90.8329   28.2913   22.9248      36.082    376.4631145           2          
MisPlume(west)    GOM_UW_1704    2017-04-06T23:31:29Z    -90.833    28.2878   22.9389      36.098    374.9333713           2          
MisPlume(west)    GOM_UW_1704    2017-04-06T23:32:57Z    -90.8331   28.2844   22.9383      36.122    376.5837618           2          
MisPlume(west)    GOM_UW_1704    2017-04-06T23:34:26Z    -90.8331   28.281    22.9443      36.147    377.9220983           2          
MisPlume(west)    GOM_UW_1704    2017-04-06T23:35:57Z    -90.8332   28.2775   22.957       36.161    380.3159925           2          
MisPlume(west)    GOM_UW_1704    2017-04-06T23:37:26Z    -90.8332   28.274    22.952       36.186    379.44143             2          
MisPlume(west)    GOM_UW_1704    2017-04-06T23:38:53Z    -90.8333   28.2707   22.9634      36.235    380.5466733           2          
MisPlume(west)    GOM_UW_1704    2017-04-06T23:40:24Z    -90.8334   28.2677   22.9642      36.231    382.1942152           2          
MisPlume(west)    GOM_UW_1704    2017-04-06T23:41:53Z    -90.8337   28.2668   22.9629      36.23     383.6838645           2          
MisPlume(west)    GOM_UW_1704    2017-04-06T23:43:21Z    -90.8338   28.2666   22.9674      36.23     381.881361            2          
MisPlume(west)    GOM_UW_1704    2017-04-06T23:44:50Z    -90.8335   28.2662   22.9742      36.23     382.4075954           2          
MisPlume(west)    GOM_UW_1704    2017-04-06T23:46:19Z    -90.8332   28.266    22.9643      36.229    383.410806            2          
MisPlume(west)    GOM_UW_1704    2017-04-06T23:47:47Z    -90.8329   28.2658   22.9729      36.227    383.1616845           2          
MisPlume(west)    GOM_UW_1704    2017-04-06T23:49:15Z    -90.8324   28.2656   22.9669      36.227    384.0669602           2          
MisPlume(west)    GOM_UW_1704    2017-04-06T23:50:44Z    -90.832    28.2654   22.9666      36.226    380.8150994           2          
MisPlume(west)    GOM_UW_1704    2017-04-06T23:52:13Z    -90.8317   28.2652   22.9619      36.225    380.9154355           2          
MisPlume(west)    GOM_UW_1704    2017-04-06T23:53:41Z    -90.8313   28.265    22.9638      36.224    379.3421667           2          
MisPlume(west)    GOM_UW_1704    2017-04-06T23:55:10Z    -90.8308   28.2649   22.9639      36.223    380.645162            2          
MisPlume(west)    GOM_UW_1704    2017-04-06T23:56:38Z    -90.8305   28.2647   22.9655      36.22     383.8822859           2          
MisPlume(west)    GOM_UW_1704    2017-04-06T23:58:07Z    -90.8301   28.2645   22.9643      36.22     380.3965663           2          
MisPlume(west)    GOM_UW_1704    2017-04-06T23:59:35Z    -90.8297   28.2643   22.9718      36.225    385.1853565           2          
MisPlume(west)    GOM_UW_1704    2017-04-07T00:01:03Z    -90.8293   28.2642   22.9619      36.223    384.2192048           2          
MisPlume(west)    GOM_UW_1704    2017-04-07T00:02:32Z    -90.8289   28.264    22.9637      36.221    382.000271            2          
MisPlume(west)    GOM_UW_1704    2017-04-07T00:04:00Z    -90.8285   28.2638   22.9692      36.22     382.7426071           2          
MisPlume(west)    GOM_UW_1704    2017-04-07T00:05:28Z    -90.8282   28.2636   22.9643      36.219    383.1073533           2          
MisPlume(west)    GOM_UW_1704    2017-04-07T00:06:58Z    -90.8278   28.2634   22.9663      36.218    384.0439792           2          
MisPlume(west)    GOM_UW_1704    2017-04-07T00:08:26Z    -90.8274   28.2632   22.9675      36.217    382.1090444           2          
MisPlume(west)    GOM_UW_1704    2017-04-07T00:09:56Z    -90.8269   28.263    22.9568      36.217    385.5302703           2          
MisPlume(west)    GOM_UW_1704    2017-04-07T00:11:24Z    -90.8265   28.2629   22.9528      36.216    381.4535249           2          
MisPlume(west)    GOM_UW_1704    2017-04-07T00:12:52Z    -90.8261   28.2627   22.9586      36.215    382.511637            2          
MisPlume(west)    GOM_UW_1704    2017-04-07T00:14:22Z    -90.8258   28.2624   22.9545      36.215    382.5318142           2          
MisPlume(west)    GOM_UW_1704    2017-04-07T00:15:50Z    -90.8254   28.2623   22.9597      36.215    383.9478194           2          
MisPlume(west)    GOM_UW_1704    2017-04-07T00:17:19Z    -90.825    28.2621   22.966       36.214    383.2072602           2          
MisPlume(west)    GOM_UW_1704    2017-04-07T00:18:46Z    -90.8247   28.2619   22.9616      36.214    383.0331559           2          
MisPlume(west)    GOM_UW_1704    2017-04-07T00:20:18Z    -90.8242   28.2617   22.9587      36.213    380.9803101           2          
MisPlume(west)    GOM_UW_1704    2017-04-07T00:21:49Z    -90.8238   28.2615   22.9525      36.211    379.4469294           2          
MisPlume(west)    GOM_UW_1704    2017-04-07T00:23:17Z    -90.8234   28.2613   22.9648      36.209    381.2782618           2          
MisPlume(west)    GOM_UW_1704    2017-04-07T00:24:45Z    -90.8231   28.2611   22.9515      36.209    378.4100742           2          
MisPlume(west)    GOM_UW_1704    2017-04-07T00:26:14Z    -90.8231   28.2591   22.9475      36.212    379.7674841           2          
MisPlume(west)    GOM_UW_1704    2017-04-07T00:27:43Z    -90.8232   28.2565   22.9521      36.209    379.005858            2          
MisPlume(west)    GOM_UW_1704    2017-04-07T00:29:11Z    -90.8233   28.2538   22.9565      36.204    380.9053659           2          
MisPlume(west)    GOM_UW_1704    2017-04-07T00:30:39Z    -90.8234   28.2512   22.9595      36.214    380.8361245           2          
MisPlume(west)    GOM_UW_1704    2017-04-07T00:32:08Z    -90.8235   28.2485   22.9626      36.214    380.7030884           2          
MisPlume(west)    GOM_UW_1704    2017-04-07T00:33:36Z    -90.8236   28.2458   22.9633      36.213    381.8104046           2          
MisPlume(west)    GOM_UW_1704    2017-04-07T00:35:03Z    -90.8237   28.2431   22.9613      36.215    379.9719135           2          
MisPlume(west)    GOM_UW_1704    2017-04-07T00:36:34Z    -90.8238   28.2403   22.9579      36.214    379.9571286           2          
MisPlume(west)    GOM_UW_1704    2017-04-07T00:38:02Z    -90.8239   28.2376   22.9426      36.216    379.4542081           2          
MisPlume(west)    GOM_UW_1704    2017-04-07T00:39:31Z    -90.824    28.2348   22.9432      36.216    380.4275922           2          
MisPlume(west)    GOM_UW_1704    2017-04-07T00:41:01Z    -90.8241   28.2321   22.9411      36.216    380.0685468           2          
MisPlume(west)    GOM_UW_1704    2017-04-07T00:42:30Z    -90.8242   28.2293   22.9392      36.216    377.7569245           2          
MisPlume(west)    GOM_UW_1704    2017-04-07T00:43:59Z    -90.8243   28.2266   22.9258      36.216    379.9546841           2          
MisPlume(west)    GOM_UW_1704    2017-04-07T00:45:28Z    -90.8245   28.2238   22.9288      36.205    378.7407837           2          
MisPlume(west)    GOM_UW_1704    2017-04-07T00:46:56Z    -90.8246   28.2211   22.9243      36.21     379.3214354           2          
MisPlume(west)    GOM_UW_1704    2017-04-07T00:48:25Z    -90.8246   28.2183   22.9163      36.218    380.0689503           2          
MisPlume(west)    GOM_UW_1704    2017-04-07T00:49:52Z    -90.8248   28.2157   22.9193      36.223    382.6630688           2          
MisPlume(west)    GOM_UW_1704    2017-04-07T00:51:21Z    -90.8249   28.2129   22.9123      36.222    379.0798038           2          
MisPlume(west)    GOM_UW_1704    2017-04-07T00:52:50Z    -90.825    28.2101   22.9017      36.225    378.6951069           2          
MisPlume(west)    GOM_UW_1704    2017-04-07T00:54:21Z    -90.8252   28.2067   22.8937      36.221    378.7090269           2          
MisPlume(west)    GOM_UW_1704    2017-04-07T00:55:49Z    -90.8253   28.2031   22.8929      36.22     379.0318752           2          
MisPlume(west)    GOM_UW_1704    2017-04-07T00:57:16Z    -90.8254   28.1994   22.8904      36.232    380.3883769           2          
MisPlume(west)    GOM_UW_1704    2017-04-07T00:58:48Z    -90.8256   28.1955   22.8758      36.239    379.8225197           2          
MisPlume(west)    GOM_UW_1704    2017-04-07T01:00:19Z    -90.8257   28.1917   22.8719      36.237    382.826642            2          
MisPlume(west)    GOM_UW_1704    2017-04-07T01:01:47Z    -90.8259   28.1879   22.8732      36.236    385.4227359           2          
MisPlume(west)    GOM_UW_1704    2017-04-07T01:03:15Z    -90.826    28.1843   22.87        36.235    382.6342391           2          
MisPlume(west)    GOM_UW_1704    2017-04-07T01:04:46Z    -90.8261   28.1805   22.867       36.234    382.1226183           2          
MisPlume(west)    GOM_UW_1704    2017-04-07T01:06:16Z    -90.8263   28.1767   22.8612      36.239    383.3367426           2          
MisPlume(west)    GOM_UW_1704    2017-04-07T01:07:45Z    -90.8265   28.1731   22.8665      36.23     383.3119324           2          
MisPlume(west)    GOM_UW_1704    2017-04-07T01:09:13Z    -90.8266   28.1694   22.8657      36.243    382.1904115           2          
MisPlume(west)    GOM_UW_1704    2017-04-07T01:10:42Z    -90.8267   28.1657   22.8675      36.241    383.9653853           2          
MisPlume(west)    GOM_UW_1704    2017-04-07T01:12:12Z    -90.8268   28.1619   22.8709      36.238    386.0719177           2          
MisPlume(west)    GOM_UW_1704    2017-04-07T01:13:40Z    -90.827    28.1582   22.8682      36.239    385.0815762           2          
MisPlume(west)    GOM_UW_1704    2017-04-07T01:15:09Z    -90.8271   28.1545   22.8654      36.237    385.7810945           2          
MisPlume(west)    GOM_UW_1704    2017-04-07T01:16:37Z    -90.8273   28.1508   22.8649      36.24     382.2179791           2          
MisPlume(west)    GOM_UW_1704    2017-04-07T01:18:06Z    -90.8275   28.1471   22.8567      36.238    383.5242132           2          
MisPlume(west)    GOM_UW_1704    2017-04-07T01:19:36Z    -90.8276   28.1433   22.8478      36.233    386.8612641           2          
MisPlume(west)    GOM_UW_1704    2017-04-07T01:21:05Z    -90.8277   28.1395   22.8481      36.235    387.3757185           2          
MisPlume(west)    GOM_UW_1704    2017-04-07T01:22:33Z    -90.8279   28.1358   22.8519      36.235    381.8436328           2          
MisPlume(west)    GOM_UW_1704    2017-04-07T01:24:03Z    -90.828    28.1321   22.8541      36.236    385.3091024           2          
MisPlume(west)    GOM_UW_1704    2017-04-07T01:25:32Z    -90.8282   28.1283   22.8623      36.237    386.3009338           2          
MisPlume(west)    GOM_UW_1704    2017-04-07T01:27:00Z    -90.8284   28.1245   22.8668      36.237    382.9325785           2          
MisPlume(west)    GOM_UW_1704    2017-04-07T01:28:28Z    -90.8285   28.1208   22.8712      36.235    386.2908102           2          
MisPlume(west)    GOM_UW_1704    2017-04-07T01:29:59Z    -90.8286   28.117    22.8801      36.232    387.9606641           2          
MisPlume(west)    GOM_UW_1704    2017-04-07T01:31:27Z    -90.8287   28.1132   22.8929      36.237    385.9138083           2          
MisPlume(west)    GOM_UW_1704    2017-04-07T01:44:04Z    -90.8301   28.0814   22.9437      36.197    388.712964            2          
MisPlume(west)    GOM_UW_1704    2017-04-07T01:45:33Z    -90.8302   28.0776   22.9507      36.214    388.6232023           2          
MisPlume(west)    GOM_UW_1704    2017-04-07T01:47:01Z    -90.8303   28.0739   22.9578      36.213    385.7126897           2          
MisPlume(west)    GOM_UW_1704    2017-04-07T01:48:32Z    -90.8305   28.0701   22.9723      36.211    384.2672703           2          
MisPlume(west)    GOM_UW_1704    2017-04-07T01:50:02Z    -90.8306   28.0664   22.9912      36.207    392.248636            2          
MisPlume(west)    GOM_UW_1704    2017-04-07T01:51:30Z    -90.8308   28.0627   23.0059      36.207    390.1886004           2          
MisPlume(west)    GOM_UW_1704    2017-04-07T01:52:59Z    -90.831    28.059    23.0285      36.203    389.9896773           2          
MisPlume(west)    GOM_UW_1704    2017-04-07T01:54:27Z    -90.8311   28.0553   23.0503      36.206    387.6798784           2          
MisPlume(west)    GOM_UW_1704    2017-04-07T01:55:54Z    -90.8312   28.0517   23.0659      36.212    389.5097009           2          
MisPlume(west)    GOM_UW_1704    2017-04-07T01:57:23Z    -90.8314   28.048    23.0869      36.219    387.9438299           2          
MisPlume(west)    GOM_UW_1704    2017-04-07T01:58:53Z    -90.8315   28.0443   23.1121      36.217    387.8291551           2          
MisPlume(west)    GOM_UW_1704    2017-04-07T02:00:22Z    -90.8317   28.0406   23.1205      36.223    390.1407266           2          
MisPlume(west)    GOM_UW_1704    2017-04-07T02:01:53Z    -90.8319   28.0369   23.1318      36.215    385.5503361           2          
MisPlume(west)    GOM_UW_1704    2017-04-07T02:03:22Z    -90.832    28.0332   23.1364      36.208    384.5988688           2          
MisPlume(west)    GOM_UW_1704    2017-04-07T02:04:53Z    -90.8321   28.0294   23.1571      36.237    385.0720536           2          
MisPlume(west)    GOM_UW_1704    2017-04-07T02:06:22Z    -90.8323   28.0257   23.16        36.241    387.517159            2          
MisPlume(west)    GOM_UW_1704    2017-04-07T02:07:52Z    -90.8325   28.022    23.1617      36.237    385.3147977           2          
MisPlume(west)    GOM_UW_1704    2017-04-07T02:09:21Z    -90.8326   28.0183   23.1764      36.256    388.5847015           2          
MisPlume(west)    GOM_UW_1704    2017-04-07T02:10:50Z    -90.8327   28.0146   23.188       36.257    390.101414            2          
MisPlume(west)    GOM_UW_1704    2017-04-07T02:12:21Z    -90.8329   28.0108   23.2017      36.27     387.0017292           2          
MisPlume(west)    GOM_UW_1704    2017-04-07T02:13:48Z    -90.833    28.0072   23.2107      36.265    389.0647781           2          
MisPlume(west)    GOM_UW_1704    2017-04-07T02:15:20Z    -90.8332   28.0034   23.2177      36.289    385.9634605           2          
MisPlume(west)    GOM_UW_1704    2017-04-07T02:16:50Z    -90.8333   27.9996   23.2165      36.283    386.5364151           2          
MisPlume(west)    GOM_UW_1704    2017-04-07T02:18:19Z    -90.8334   27.9959   23.2228      36.282    387.9006474           2          
MisPlume(west)    GOM_UW_1704    2017-04-07T02:19:49Z    -90.8336   27.9921   23.2169      36.275    389.412609            2          
MisPlume(west)    GOM_UW_1704    2017-04-07T02:21:19Z    -90.8338   27.9884   23.2204      36.281    386.1466286           2          
MisPlume(west)    GOM_UW_1704    2017-04-07T02:22:50Z    -90.8338   27.9846   23.223       36.27     388.8251275           2          
MisPlume(west)    GOM_UW_1704    2017-04-07T02:24:19Z    -90.834    27.9809   23.2289      36.284    386.2552509           2          
MisPlume(west)    GOM_UW_1704    2017-04-07T02:25:50Z    -90.8342   27.9771   23.2299      36.293    385.7920882           2          
MisPlume(west)    GOM_UW_1704    2017-04-07T02:27:20Z    -90.8343   27.9734   23.2322      36.314    385.8658332           2          
MisPlume(west)    GOM_UW_1704    2017-04-07T02:28:48Z    -90.8343   27.9697   23.2338      36.318    385.4835037           2          
MisPlume(west)    GOM_UW_1704    2017-04-07T02:30:18Z    -90.8341   27.9659   23.2316      36.319    384.2420987           2          
MisPlume(west)    GOM_UW_1704    2017-04-07T02:31:49Z    -90.8339   27.962    23.2273      36.318    385.2745338           2          
MisPlume(west)    GOM_UW_1704    2017-04-07T02:33:17Z    -90.8336   27.9583   23.2328      36.31     385.0189186           2          
MisPlume(west)    GOM_UW_1704    2017-04-07T02:34:45Z    -90.8334   27.9547   23.2322      36.323    387.8846013           2          
MisPlume(west)    GOM_UW_1704    2017-04-07T02:36:13Z    -90.8332   27.951    23.2318      36.322    384.8579201           2          
MisPlume(west)    GOM_UW_1704    2017-04-07T02:37:42Z    -90.8329   27.9472   23.2336      36.326    383.5837174           2          
MisPlume(west)    GOM_UW_1704    2017-04-07T02:39:11Z    -90.8327   27.9435   23.2359      36.328    385.6042082           2          
MisPlume(west)    GOM_UW_1704    2017-04-07T02:40:39Z    -90.8327   27.9398   23.2452      36.335    384.4046674           2          
MisPlume(west)    GOM_UW_1704    2017-04-07T02:42:07Z    -90.8327   27.9361   23.261       36.336    388.8203783           2          
MisPlume(west)    GOM_UW_1704    2017-04-07T02:43:36Z    -90.8327   27.9323   23.2604      36.339    386.476038            2          
MisPlume(west)    GOM_UW_1704    2017-04-07T02:45:05Z    -90.8327   27.9286   23.2731      36.324    384.840415            2          
MisPlume(west)    GOM_UW_1704    2017-04-07T02:46:33Z    -90.8327   27.9251   23.2812      36.341    383.9401494           2          
MisPlume(west)    GOM_UW_1704    2017-04-07T02:48:05Z    -90.8328   27.9243   23.2818      36.344    384.1001583           2          
MisPlume(west)    GOM_UW_1704    2017-04-07T02:49:33Z    -90.8323   27.9239   23.2872      36.346    384.2511854           2          
MisPlume(west)    GOM_UW_1704    2017-04-07T02:51:03Z    -90.8318   27.9236   23.2766      36.336    380.2125642           2          
MisPlume(west)    GOM_UW_1704    2017-04-07T02:52:31Z    -90.8313   27.9232   23.2876      36.346    378.5293833           2          
MisPlume(west)    GOM_UW_1704    2017-04-07T02:54:00Z    -90.8309   27.9228   23.2827      36.346    377.8629869           2          
MisPlume(west)    GOM_UW_1704    2017-04-07T02:55:28Z    -90.8304   27.9225   23.2787      36.346    380.921261            2          
MisPlume(west)    GOM_UW_1704    2017-04-07T02:56:57Z    -90.8299   27.9221   23.2888      36.345    379.5686292           2          
MisPlume(west)    GOM_UW_1704    2017-04-07T02:58:25Z    -90.8295   27.9217   23.2823      36.346    381.0833765           2          
MisPlume(west)    GOM_UW_1704    2017-04-07T02:59:53Z    -90.829    27.9214   23.283       36.345    379.3109476           2          
MisPlume(west)    GOM_UW_1704    2017-04-07T03:01:22Z    -90.8286   27.921    23.2827      36.344    379.9858792           2          
MisPlume(west)    GOM_UW_1704    2017-04-07T03:02:50Z    -90.8281   27.9206   23.2821      36.344    378.2160418           2          
MisPlume(west)    GOM_UW_1704    2017-04-07T03:04:19Z    -90.8278   27.9202   23.2814      36.344    377.5367496           2          
MisPlume(west)    GOM_UW_1704    2017-04-07T03:05:48Z    -90.8274   27.9198   23.2848      36.343    378.4883532           2          
MisPlume(west)    GOM_UW_1704    2017-04-07T03:07:16Z    -90.827    27.9194   23.2829      36.343    380.5510961           2          
MisPlume(west)    GOM_UW_1704    2017-04-07T03:08:44Z    -90.8266   27.9191   23.2957      36.342    379.3908326           2          
MisPlume(west)    GOM_UW_1704    2017-04-07T03:10:13Z    -90.8262   27.9187   23.2821      36.344    380.216377            2          
MisPlume(west)    GOM_UW_1704    2017-04-07T03:11:42Z    -90.8259   27.9183   23.2769      36.344    380.9074993           2          
MisPlume(west)    GOM_UW_1704    2017-04-07T03:13:10Z    -90.8255   27.9179   23.2898      36.344    378.3623127           2          
MisPlume(west)    GOM_UW_1704    2017-04-07T03:14:38Z    -90.8251   27.9175   23.2951      36.344    379.1678447           2          
MisPlume(west)    GOM_UW_1704    2017-04-07T03:16:08Z    -90.8246   27.9171   23.2879      36.344    377.2951916           2          
MisPlume(west)    GOM_UW_1704    2017-04-07T03:17:39Z    -90.824    27.9167   23.2984      36.344    379.0038417           2          
MisPlume(west)    GOM_UW_1704    2017-04-07T03:19:06Z    -90.8236   27.9163   23.3029      36.342    379.9001822           2          
MisPlume(west)    GOM_UW_1704    2017-04-07T03:20:35Z    -90.8232   27.9159   23.3004      36.343    378.4275442           2          
MisPlume(west)    GOM_UW_1704    2017-04-07T03:22:04Z    -90.8227   27.9155   23.2946      36.345    376.6225588           2          
MisPlume(west)    GOM_UW_1704    2017-04-07T03:23:31Z    -90.8223   27.9151   23.3001      36.344    379.8008635           2          
MisPlume(west)    GOM_UW_1704    2017-04-07T03:25:01Z    -90.8219   27.9147   23.2988      36.344    379.087321            2          
MisPlume(west)    GOM_UW_1704    2017-04-07T03:26:31Z    -90.8214   27.9143   23.3028      36.344    377.944413            2          
MisPlume(west)    GOM_UW_1704    2017-04-07T03:28:00Z    -90.8216   27.9126   23.3007      36.344    378.2318907           2          
MisPlume(west)    GOM_UW_1704    2017-04-07T03:29:27Z    -90.8218   27.9099   23.3078      36.346    382.8028613           2          
MisPlume(west)    GOM_UW_1704    2017-04-07T03:30:58Z    -90.8218   27.907    23.3196      36.346    383.4095998           2          
MisPlume(west)    GOM_UW_1704    2017-04-07T03:32:27Z    -90.8219   27.9042   23.3315      36.346    381.7148918           2          
MisPlume(west)    GOM_UW_1704    2017-04-07T03:33:57Z    -90.8219   27.9013   23.3456      36.347    386.2463438           2          
MisPlume(west)    GOM_UW_1704    2017-04-07T03:35:26Z    -90.822    27.8985   23.3569      36.348    381.8005017           2          
MisPlume(west)    GOM_UW_1704    2017-04-07T03:36:54Z    -90.8221   27.8958   23.3744      36.351    388.2262515           2          
MisPlume(west)    GOM_UW_1704    2017-04-07T03:38:25Z    -90.8221   27.8929   23.3932      36.352    390.2639311           2          
MisPlume(west)    GOM_UW_1704    2017-04-07T03:39:53Z    -90.8222   27.8901   23.3965      36.355    387.3690762           2          
MisPlume(west)    GOM_UW_1704    2017-04-07T03:41:22Z    -90.8222   27.8872   23.4045      36.354    390.7247093           2          
MisPlume(west)    GOM_UW_1704    2017-04-07T03:42:52Z    -90.8223   27.8844   23.4193      36.354    388.3466257           2          
MisPlume(west)    GOM_UW_1704    2017-04-07T03:44:20Z    -90.8224   27.8816   23.4286      36.368    383.4734556           2          
MisPlume(west)    GOM_UW_1704    2017-04-07T03:45:49Z    -90.8224   27.8788   23.4365      36.368    391.4092117           2          
MisPlume(west)    GOM_UW_1704    2017-04-07T03:47:19Z    -90.8225   27.8759   23.4462      36.366    393.2809378           2          
MisPlume(west)    GOM_UW_1704    2017-04-07T03:48:48Z    -90.8224   27.873    23.4612      36.365    384.9327984           2          
MisPlume(west)    GOM_UW_1704    2017-04-07T03:50:16Z    -90.8226   27.8702   23.4565      36.367    392.1162448           2          
MisPlume(west)    GOM_UW_1704    2017-04-07T03:51:45Z    -90.8226   27.8673   23.4684      36.373    390.7740214           2          
MisPlume(west)    GOM_UW_1704    2017-04-07T03:53:14Z    -90.8226   27.8644   23.472       36.374    390.1495494           2          
MisPlume(west)    GOM_UW_1704    2017-04-07T03:54:41Z    -90.8227   27.8616   23.4731      36.372    387.8371952           2          
MisPlume(west)    GOM_UW_1704    2017-04-07T03:56:11Z    -90.8228   27.8587   23.4799      36.371    390.6657241           2          
MisPlume(west)    GOM_UW_1704    2017-04-07T03:57:38Z    -90.8228   27.8558   23.4776      36.372    384.9014568           2          
MisPlume(west)    GOM_UW_1704    2017-04-07T03:59:07Z    -90.8229   27.853    23.4833      36.365    388.0252305           2          
MisPlume(west)    GOM_UW_1704    2017-04-07T04:00:38Z    -90.8229   27.85     23.4921      36.37     388.4936503           2          
MisPlume(west)    GOM_UW_1704    2017-04-07T04:02:06Z    -90.823    27.8471   23.4889      36.37     391.5290223           2          
MisPlume(west)    GOM_UW_1704    2017-04-07T04:03:37Z    -90.8231   27.8442   23.5013      36.369    390.0612242           2          
MisPlume(west)    GOM_UW_1704    2017-04-07T04:05:05Z    -90.8231   27.8413   23.5018      36.37     389.8313964           2          
MisPlume(west)    GOM_UW_1704    2017-04-07T04:06:33Z    -90.8232   27.8383   23.5109      36.374    389.7872466           2          
MisPlume(west)    GOM_UW_1704    2017-04-07T04:08:02Z    -90.8232   27.8355   23.5188      36.374    385.7766048           2          
MisPlume(west)    GOM_UW_1704    2017-04-07T04:09:31Z    -90.8233   27.8325   23.526       36.375    387.2833648           2          
MisPlume(west)    GOM_UW_1704    2017-04-07T04:10:59Z    -90.8234   27.8291   23.5262      36.372    386.0215934           2          
MisPlume(west)    GOM_UW_1704    2017-04-07T04:12:27Z    -90.8234   27.8253   23.5278      36.371    384.5253291           2          
MisPlume(west)    GOM_UW_1704    2017-04-07T04:13:57Z    -90.8236   27.8214   23.5351      36.361    387.3119159           2          
MisPlume(west)    GOM_UW_1704    2017-04-07T04:15:24Z    -90.8236   27.8176   23.5269      36.371    388.0620577           2          
MisPlume(west)    GOM_UW_1704    2017-04-07T04:16:56Z    -90.8237   27.8136   23.5316      36.368    386.9128813           2          
MisPlume(west)    GOM_UW_1704    2017-04-07T04:18:24Z    -90.8238   27.8098   23.5287      36.369    386.507031            2          
MisPlume(west)    GOM_UW_1704    2017-04-07T04:19:54Z    -90.8239   27.8059   23.5264      36.372    389.1414006           2          
MisPlume(west)    GOM_UW_1704    2017-04-07T04:21:22Z    -90.824    27.8021   23.5264      36.368    389.1031823           2          
MisPlume(west)    GOM_UW_1704    2017-04-07T04:22:54Z    -90.824    27.7981   23.5235      36.366    385.3849497           2          
MisPlume(west)    GOM_UW_1704    2017-04-07T04:24:21Z    -90.8242   27.7944   23.5215      36.364    386.6997712           2          
MisPlume(west)    GOM_UW_1704    2017-04-07T04:25:50Z    -90.8245   27.7906   23.5184      36.362    389.7146012           2          
MisPlume(west)    GOM_UW_1704    2017-04-07T04:27:22Z    -90.8247   27.7866   23.524       36.362    392.7184289           2          
MisPlume(west)    GOM_UW_1704    2017-04-07T04:28:52Z    -90.8249   27.7827   23.5316      36.344    391.0228468           2          
MisPlume(west)    GOM_UW_1704    2017-04-07T04:30:24Z    -90.8251   27.7788   23.5437      36.362    387.5898943           2          
MisPlume(west)    GOM_UW_1704    2017-04-07T04:31:52Z    -90.8254   27.775    23.552       36.359    392.9207808           2          
MisPlume(west)    GOM_UW_1704    2017-04-07T04:33:21Z    -90.8256   27.7712   23.561       36.355    392.0689715           2          
MisPlume(west)    GOM_UW_1704    2017-04-07T04:34:48Z    -90.8259   27.7675   23.5617      36.359    390.8496875           2          
MisPlume(west)    GOM_UW_1704    2017-04-07T04:36:17Z    -90.8261   27.7636   23.5669      36.357    387.322198            2          
MisPlume(west)    GOM_UW_1704    2017-04-07T04:37:45Z    -90.8262   27.7598   23.5708      36.358    388.081918            2          
MisPlume(west)    GOM_UW_1704    2017-04-07T04:39:13Z    -90.8264   27.756    23.5687      36.356    388.3914461           2          
MisPlume(west)    GOM_UW_1704    2017-04-07T04:40:42Z    -90.8265   27.7521   23.5727      36.355    388.5681606           2          
MisPlume(west)    GOM_UW_1704    2017-04-07T04:53:17Z    -90.8278   27.7194   23.5825      36.344    387.9492576           2          
MisPlume(west)    GOM_UW_1704    2017-04-07T04:54:46Z    -90.8279   27.7156   23.5793      36.344    389.904721            2          
MisPlume(west)    GOM_UW_1704    2017-04-07T04:56:18Z    -90.8281   27.7116   23.5895      36.34     386.3208283           2          
MisPlume(west)    GOM_UW_1704    2017-04-07T04:57:46Z    -90.8282   27.7077   23.5878      36.339    385.6189582           2          
MisPlume(west)    GOM_UW_1704    2017-04-07T04:59:14Z    -90.8284   27.7039   23.5791      36.329    385.9395442           2          
MisPlume(west)    GOM_UW_1704    2017-04-07T05:00:43Z    -90.8286   27.7001   23.5785      36.339    387.9722036           2          
MisPlume(west)    GOM_UW_1704    2017-04-07T05:02:14Z    -90.8287   27.6961   23.5821      36.341    386.4764473           2          
MisPlume(west)    GOM_UW_1704    2017-04-07T05:03:46Z    -90.8289   27.6921   23.58        36.339    387.9412413           2          
MisPlume(west)    GOM_UW_1704    2017-04-07T05:05:14Z    -90.829    27.6883   23.568       36.334    387.2886839           2          
MisPlume(west)    GOM_UW_1704    2017-04-07T05:06:41Z    -90.8292   27.6845   23.5583      36.34     388.9542082           2          
MisPlume(west)    GOM_UW_1704    2017-04-07T05:08:10Z    -90.8294   27.6806   23.56        36.321    386.8975232           2          
MisPlume(west)    GOM_UW_1704    2017-04-07T05:09:40Z    -90.8295   27.6767   23.5541      36.332    394.9168449           2          
MisPlume(west)    GOM_UW_1704    2017-04-07T05:11:11Z    -90.8296   27.6727   23.5503      36.337    388.9371964           2          
MisPlume(west)    GOM_UW_1704    2017-04-07T05:12:39Z    -90.8298   27.669    23.5391      36.338    390.2396992           2          
MisPlume(west)    GOM_UW_1704    2017-04-07T05:14:10Z    -90.83     27.665    23.5381      36.336    386.2450844           2          
MisPlume(west)    GOM_UW_1704    2017-04-07T05:15:39Z    -90.8301   27.6612   23.5216      36.332    388.4043854           2          
MisPlume(west)    GOM_UW_1704    2017-04-07T05:17:09Z    -90.8303   27.6573   23.514       36.33     389.2739315           2          
MisPlume(west)    GOM_UW_1704    2017-04-07T05:18:41Z    -90.8304   27.6533   23.5024      36.316    390.4253359           2          
MisPlume(west)    GOM_UW_1704    2017-04-07T05:20:11Z    -90.8306   27.6494   23.4854      36.33     389.6981142           2          
MisPlume(west)    GOM_UW_1704    2017-04-07T05:21:40Z    -90.8307   27.6456   23.4744      36.328    389.0598688           2          
MisPlume(west)    GOM_UW_1704    2017-04-07T05:23:09Z    -90.8309   27.6417   23.4629      36.33     391.2699064           2          
MisPlume(west)    GOM_UW_1704    2017-04-07T05:24:39Z    -90.831    27.6378   23.448       36.328    388.7074656           2          
MisPlume(west)    GOM_UW_1704    2017-04-07T05:26:07Z    -90.8312   27.6341   23.4344      36.328    390.1041529           2          
MisPlume(west)    GOM_UW_1704    2017-04-07T05:27:36Z    -90.8313   27.6303   23.4212      36.313    394.5583368           2          
MisPlume(west)    GOM_UW_1704    2017-04-07T05:29:08Z    -90.8315   27.6264   23.406       36.341    391.0289307           2          
MisPlume(west)    GOM_UW_1704    2017-04-07T05:30:36Z    -90.8316   27.6227   23.4025      36.34     385.030279            2          
MisPlume(west)    GOM_UW_1704    2017-04-07T05:32:05Z    -90.8318   27.6188   23.4078      36.346    388.6497678           2          
MisPlume(west)    GOM_UW_1704    2017-04-07T05:33:34Z    -90.8319   27.615    23.4049      36.339    394.0654501           2          
MisPlume(west)    GOM_UW_1704    2017-04-07T05:35:02Z    -90.8321   27.6112   23.4052      36.345    396.288838            2          
MisPlume(west)    GOM_UW_1704    2017-04-07T05:36:30Z    -90.8322   27.6075   23.408       36.342    393.0986059           2          
MisPlume(west)    GOM_UW_1704    2017-04-07T05:37:59Z    -90.8324   27.6036   23.4073      36.339    395.6988762           2          
MisPlume(west)    GOM_UW_1704    2017-04-07T05:39:28Z    -90.8325   27.5998   23.4096      36.34     397.8956455           2          
MisPlume(west)    GOM_UW_1704    2017-04-07T05:40:55Z    -90.8326   27.596    23.4088      36.332    394.232726            2          
MisPlume(west)    GOM_UW_1704    2017-04-07T05:42:24Z    -90.8327   27.5922   23.4088      36.329    390.8875066           2          
MisPlume(west)    GOM_UW_1704    2017-04-07T05:43:53Z    -90.8328   27.5884   23.4076      36.327    390.1447478           2          
MisPlume(west)    GOM_UW_1704    2017-04-07T05:45:24Z    -90.8329   27.5844   23.4096      36.332    392.1807298           2          
MisPlume(west)    GOM_UW_1704    2017-04-07T05:46:52Z    -90.8329   27.5806   23.4158      36.328    394.4389318           2          
MisPlume(west)    GOM_UW_1704    2017-04-07T05:48:20Z    -90.833    27.5768   23.4216      36.328    393.0692587           2          
MisPlume(west)    GOM_UW_1704    2017-04-07T05:49:52Z    -90.8331   27.5728   23.4194      36.335    390.0972033           2          
MisPlume(west)    GOM_UW_1704    2017-04-07T05:51:21Z    -90.8332   27.569    23.4127      36.333    390.2250044           2          
MisPlume(west)    GOM_UW_1704    2017-04-07T05:52:49Z    -90.8332   27.5651   23.4137      36.33     396.2918609           2          
MisPlume(west)    GOM_UW_1704    2017-04-07T05:54:18Z    -90.8333   27.5612   23.4224      36.327    393.0967404           2          
MisPlume(west)    GOM_UW_1704    2017-04-07T05:55:46Z    -90.8334   27.5574   23.4268      36.327    391.8138361           2          
MisPlume(west)    GOM_UW_1704    2017-04-07T05:57:14Z    -90.8334   27.5536   23.4328      36.32     391.8091686           2          
MisPlume(west)    GOM_UW_1704    2017-04-07T05:58:44Z    -90.8335   27.5497   23.4305      36.314    397.7675629           2          
MisPlume(west)    GOM_UW_1704    2017-04-07T06:00:14Z    -90.8335   27.5458   23.4313      36.309    401.6975609           2          
MisPlume(west)    GOM_UW_1704    2017-04-07T06:01:43Z    -90.8334   27.5421   23.4297      36.322    393.7234416           2          
MisPlume(west)    GOM_UW_1704    2017-04-07T06:03:12Z    -90.8332   27.54     23.4301      36.322    393.3498153           2          
MisPlume(west)    GOM_UW_1704    2017-04-07T06:04:42Z    -90.8334   27.5394   23.4259      36.32     392.9346362           2          
MisPlume(west)    GOM_UW_1704    2017-04-07T06:06:14Z    -90.8335   27.5389   23.4358      36.319    388.4068629           2          
MisPlume(west)    GOM_UW_1704    2017-04-07T06:07:43Z    -90.8335   27.5384   23.4385      36.319    389.4878211           2          
MisPlume(west)    GOM_UW_1704    2017-04-07T06:09:12Z    -90.8335   27.538    23.4358      36.321    388.0367129           2          
MisPlume(west)    GOM_UW_1704    2017-04-07T06:10:43Z    -90.8334   27.5376   23.438       36.32     384.4804784           2          
MisPlume(west)    GOM_UW_1704    2017-04-07T06:12:12Z    -90.8334   27.537    23.4401      36.319    392.4612454           2          
MisPlume(west)    GOM_UW_1704    2017-04-07T06:13:40Z    -90.8334   27.5365   23.438       36.319    386.296262            2          
MisPlume(west)    GOM_UW_1704    2017-04-07T06:52:19Z    -90.8348   27.5246   23.4727      36.321    383.6269651           2          
MisPlume(west)    GOM_UW_1704    2017-04-07T06:53:46Z    -90.8349   27.5242   23.4729      36.32     381.7002016           2          
MisPlume(west)    GOM_UW_1704    2017-04-07T06:55:15Z    -90.835    27.5238   23.4734      36.32     382.3051087           2          
MisPlume(west)    GOM_UW_1704    2017-04-07T06:56:44Z    -90.8351   27.5234   23.4639      36.32     385.0964942           2          
MisPlume(west)    GOM_UW_1704    2017-04-07T06:58:13Z    -90.8351   27.523    23.474       36.318    385.3160525           2          
MisPlume(west)    GOM_UW_1704    2017-04-07T06:59:43Z    -90.8351   27.5226   23.4819      36.318    383.1469051           2          
MisPlume(west)    GOM_UW_1704    2017-04-07T07:01:11Z    -90.8351   27.5222   23.4763      36.318    382.6084981           2          
MisPlume(west)    GOM_UW_1704    2017-04-07T07:02:41Z    -90.8352   27.5218   23.4621      36.32     383.7407423           2          
MisPlume(west)    GOM_UW_1704    2017-04-07T07:04:09Z    -90.8353   27.5213   23.4728      36.319    380.9357158           2          
MisPlume(west)    GOM_UW_1704    2017-04-07T07:05:38Z    -90.8354   27.5208   23.4547      36.319    380.403289            2          
MisPlume(west)    GOM_UW_1704    2017-04-07T07:07:09Z    -90.8355   27.5204   23.4685      36.318    382.4028208           2          
MisPlume(west)    GOM_UW_1704    2017-04-07T07:08:39Z    -90.8356   27.5199   23.466       36.319    381.0911682           2          
MisPlume(west)    GOM_UW_1704    2017-04-07T07:10:08Z    -90.8357   27.5195   23.4685      36.318    379.7889603           2          
MisPlume(west)    GOM_UW_1704    2017-04-07T07:11:37Z    -90.8358   27.519    23.4538      36.32     382.7675551           2          
MisPlume(west)    GOM_UW_1704    2017-04-07T07:13:05Z    -90.8359   27.5186   23.4634      36.32     381.5357962           2          
MisPlume(west)    GOM_UW_1704    2017-04-07T07:14:34Z    -90.836    27.5181   23.4658      36.319    381.7575362           2          
MisPlume(west)    GOM_UW_1704    2017-04-07T07:16:03Z    -90.8361   27.5177   23.4715      36.318    384.684557            2          
MisPlume(west)    GOM_UW_1704    2017-04-07T07:17:32Z    -90.8363   27.5173   23.4603      36.318    380.3225629           2          
MisPlume(west)    GOM_UW_1704    2017-04-07T07:19:03Z    -90.8364   27.5169   23.4641      36.317    379.9033315           2          
MisPlume(west)    GOM_UW_1704    2017-04-07T07:20:34Z    -90.8364   27.5164   23.4752      36.318    385.781362            2          
MisPlume(west)    GOM_UW_1704    2017-04-07T07:22:05Z    -90.8365   27.5159   23.4737      36.317    382.8353561           2          
MisPlume(west)    GOM_UW_1704    2017-04-07T07:23:34Z    -90.8366   27.5154   23.473       36.317    383.9759838           2          
MisPlume(west)    GOM_UW_1704    2017-04-07T07:25:03Z    -90.8366   27.515    23.4691      36.318    381.8268517           2          
MisPlume(west)    GOM_UW_1704    2017-04-07T07:26:34Z    -90.8366   27.5145   23.4673      36.317    382.8992752           2          
MisPlume(west)    GOM_UW_1704    2017-04-07T07:28:02Z    -90.8367   27.5141   23.4771      36.317    381.2357913           2          
MisPlume(west)    GOM_UW_1704    2017-04-07T07:29:32Z    -90.8367   27.5137   23.471       36.316    379.6539133           2          
MisPlume(west)    GOM_UW_1704    2017-04-07T07:31:01Z    -90.8368   27.5132   23.4738      36.318    380.2826106           2          
MisPlume(west)    GOM_UW_1704    2017-04-07T07:32:29Z    -90.8368   27.5128   23.469       36.318    378.2240866           2          
MisPlume(west)    GOM_UW_1704    2017-04-07T07:33:59Z    -90.8369   27.5124   23.4792      36.318    377.818751            2          
MisPlume(west)    GOM_UW_1704    2017-04-07T07:35:27Z    -90.8369   27.5119   23.4784      36.317    378.452108            2          
MisPlume(west)    GOM_UW_1704    2017-04-07T07:36:54Z    -90.837    27.5115   23.4794      36.317    378.3649912           2          
MisPlume(west)    GOM_UW_1704    2017-04-07T07:38:25Z    -90.8371   27.511    23.4728      36.317    378.6867497           2          
MisPlume(west)    GOM_UW_1704    2017-04-07T07:39:53Z    -90.8372   27.5106   23.4796      36.316    377.8998571           2          
MisPlume(west)    GOM_UW_1704    2017-04-07T07:41:24Z    -90.8373   27.5101   23.4828      36.326    376.5770165           2          
MisPlume(west)    GOM_UW_1704    2017-04-07T07:42:53Z    -90.8374   27.5097   23.4752      36.326    377.1157885           2          
MisPlume(west)    GOM_UW_1704    2017-04-07T07:44:21Z    -90.8375   27.5092   23.4796      36.325    377.431966            2          
MisPlume(west)    GOM_UW_1704    2017-04-07T07:45:50Z    -90.8376   27.5088   23.4776      36.325    377.596035            2          
MisPlume(west)    GOM_UW_1704    2017-04-07T07:47:20Z    -90.8377   27.5084   23.4758      36.325    380.7067623           2          
MisPlume(west)    GOM_UW_1704    2017-04-07T07:48:52Z    -90.8377   27.508    23.483       36.326    378.9981566           2          
MisPlume(west)    GOM_UW_1704    2017-04-07T07:50:23Z    -90.8379   27.5075   23.4849      36.325    377.7574056           2          
MisPlume(west)    GOM_UW_1704    2017-04-07T07:51:52Z    -90.838    27.507    23.4843      36.326    379.4182519           2          
MisPlume(west)    GOM_UW_1704    2017-04-07T08:05:47Z    -90.8388   27.5029   23.4741      36.324    380.2622975           2          
MisPlume(west)    GOM_UW_1704    2017-04-07T08:07:16Z    -90.8389   27.5025   23.4836      36.323    381.2397793           2          
MisPlume(west)    GOM_UW_1704    2017-04-07T08:08:45Z    -90.839    27.502    23.4856      36.323    381.1431623           2          
MisPlume(west)    GOM_UW_1704    2017-04-07T08:10:13Z    -90.8391   27.5015   23.4851      36.323    380.9316277           2          
MisPlume(west)    GOM_UW_1704    2017-04-07T08:11:43Z    -90.8392   27.5011   23.4831      36.323    380.6100052           2          
MisPlume(west)    GOM_UW_1704    2017-04-07T08:13:11Z    -90.8393   27.5006   23.4815      36.326    380.7144279           2          
MisPlume(west)    GOM_UW_1704    2017-04-07T08:14:40Z    -90.8394   27.5002   23.4907      36.325    380.9338812           2          
MisPlume(west)    GOM_UW_1704    2017-04-07T08:16:08Z    -90.8396   27.4998   23.4768      36.326    381.6203377           2          
MisPlume(west)    GOM_UW_1704    2017-04-07T08:17:37Z    -90.8397   27.4993   23.4887      36.324    380.7802816           2          
MisPlume(west)    GOM_UW_1704    2017-04-07T08:19:06Z    -90.8397   27.4989   23.4926      36.324    381.7553723           2          
MisPlume(west)    GOM_UW_1704    2017-04-07T08:20:35Z    -90.8397   27.4985   23.4806      36.324    380.5396644           2          
MisPlume(west)    GOM_UW_1704    2017-04-07T08:22:04Z    -90.8398   27.498    23.4858      36.323    379.8656391           2          
MisPlume(west)    GOM_UW_1704    2017-04-07T08:23:33Z    -90.8399   27.4976   23.4799      36.323    380.1498849           2          
MisPlume(west)    GOM_UW_1704    2017-04-07T08:25:00Z    -90.8401   27.4972   23.4827      36.324    381.9635459           2          
MisPlume(west)    GOM_UW_1704    2017-04-07T08:26:30Z    -90.8402   27.4967   23.4962      36.322    380.3069002           2          
MisPlume(west)    GOM_UW_1704    2017-04-07T08:27:59Z    -90.8403   27.4963   23.4996      36.322    381.1587527           2          
MisPlume(west)    GOM_UW_1704    2017-04-07T08:29:30Z    -90.8404   27.4959   23.485       36.322    380.225555            2          
MisPlume(west)    GOM_UW_1704    2017-04-07T08:30:59Z    -90.8404   27.4954   23.49        36.321    381.6060286           2          
MisPlume(west)    GOM_UW_1704    2017-04-07T08:32:28Z    -90.8405   27.495    23.4967      36.321    382.0041063           2          
MisPlume(west)    GOM_UW_1704    2017-04-07T08:33:57Z    -90.8406   27.4945   23.4877      36.321    379.6628641           2          
MisPlume(west)    GOM_UW_1704    2017-04-07T08:35:25Z    -90.8407   27.494    23.49        36.321    379.5145707           2          
MisPlume(west)    GOM_UW_1704    2017-04-07T08:36:53Z    -90.8408   27.4936   23.4949      36.32     381.1462136           2          
MisPlume(west)    GOM_UW_1704    2017-04-07T08:38:22Z    -90.8409   27.4932   23.4901      36.32     381.1370296           2          
MisPlume(west)    GOM_UW_1704    2017-04-07T08:39:51Z    -90.841    27.4927   23.4863      36.32     379.1824338           2          
MisPlume(west)    GOM_UW_1704    2017-04-07T08:41:20Z    -90.8411   27.4923   23.4863      36.322    379.9351524           2          
MisPlume(west)    GOM_UW_1704    2017-04-07T08:42:50Z    -90.8413   27.4918   23.497       36.321    379.1818498           2          
MisPlume(west)    GOM_UW_1704    2017-04-07T08:44:19Z    -90.8414   27.4914   23.4915      36.322    381.9326641           2          
MisPlume(west)    GOM_UW_1704    2017-04-07T08:45:47Z    -90.8415   27.4909   23.4904      36.321    381.6853358           2          
MisPlume(west)    GOM_UW_1704    2017-04-07T08:47:17Z    -90.8416   27.4905   23.4957      36.32     380.4477244           2          
MisPlume(west)    GOM_UW_1704    2017-04-07T08:48:46Z    -90.8422   27.4902   23.4926      36.32     380.4763687           2          
MisPlume(west)    GOM_UW_1704    2017-04-07T08:50:14Z    -90.8423   27.4922   23.4861      36.32     383.9170833           2          
MisPlume(west)    GOM_UW_1704    2017-04-07T08:51:42Z    -90.8418   27.4949   23.486       36.32     387.5727353           2          
MisPlume(west)    GOM_UW_1704    2017-04-07T08:53:11Z    -90.8413   27.4977   23.4819      36.327    385.4565383           2          
MisPlume(west)    GOM_UW_1704    2017-04-07T08:54:39Z    -90.8407   27.5007   23.4651      36.327    385.1484556           2          
MisPlume(west)    GOM_UW_1704    2017-04-07T08:56:07Z    -90.84     27.5039   23.4548      36.327    385.3263749           2          
MisPlume(west)    GOM_UW_1704    2017-04-07T08:57:35Z    -90.8393   27.5071   23.448       36.325    386.2295407           2          
MisPlume(west)    GOM_UW_1704    2017-04-07T08:59:04Z    -90.8387   27.5105   23.4357      36.325    385.9090612           2          
MisPlume(west)    GOM_UW_1704    2017-04-07T09:00:35Z    -90.8381   27.5139   23.422       36.326    385.1199619           2          
MisPlume(west)    GOM_UW_1704    2017-04-07T09:02:06Z    -90.8374   27.5173   23.4193      36.325    386.841172            2          
MisPlume(west)    GOM_UW_1704    2017-04-07T09:03:34Z    -90.8367   27.5206   23.4141      36.326    382.2929173           2          
MisPlume(west)    GOM_UW_1704    2017-04-07T09:05:03Z    -90.8361   27.5239   23.4016      36.329    384.9274906           2          
MisPlume(west)    GOM_UW_1704    2017-04-07T09:06:34Z    -90.8354   27.5273   23.3893      36.333    384.923365            2          
MisPlume(west)    GOM_UW_1704    2017-04-07T09:08:02Z    -90.8347   27.5306   23.3872      36.335    384.7225883           2          
MisPlume(west)    GOM_UW_1704    2017-04-07T09:09:30Z    -90.8341   27.5338   23.3824      36.336    385.4607402           2          
MisPlume(west)    GOM_UW_1704    2017-04-07T09:11:01Z    -90.8334   27.5372   23.3789      36.336    385.5823068           2          
MisPlume(west)    GOM_UW_1704    2017-04-07T09:12:30Z    -90.8338   27.5387   23.383       36.336    386.1677856           2          
MisPlume(west)    GOM_UW_1704    2017-04-07T09:13:59Z    -90.8343   27.5384   23.3833      36.335    382.5727128           2          
MisPlume(west)    GOM_UW_1704    2017-04-07T09:15:29Z    -90.8346   27.538    23.374       36.335    382.041569            2          
MisPlume(west)    GOM_UW_1704    2017-04-07T09:17:00Z    -90.8348   27.5375   23.3976      36.334    379.9671018           2          
MisPlume(west)    GOM_UW_1704    2017-04-07T09:18:31Z    -90.8348   27.5371   23.3756      36.336    383.0671245           2          
MisPlume(west)    GOM_UW_1704    2017-04-07T09:20:00Z    -90.835    27.5367   23.3781      36.335    381.1939696           2          
MisPlume(west)    GOM_UW_1704    2017-04-07T09:21:29Z    -90.8351   27.5362   23.3842      36.336    380.046299            2          
MisPlume(west)    GOM_UW_1704    2017-04-07T09:22:57Z    -90.8351   27.5358   23.3904      36.338    379.2920596           2          
MisPlume(west)    GOM_UW_1704    2017-04-07T09:24:26Z    -90.8352   27.5354   23.3866      36.33     379.1698037           2          
MisPlume(west)    GOM_UW_1704    2017-04-07T09:25:55Z    -90.8353   27.5349   23.3729      36.345    378.895369            2          
MisPlume(west)    GOM_UW_1704    2017-04-07T09:27:25Z    -90.8354   27.5344   23.3762      36.345    378.7921232           2          
MisPlume(west)    GOM_UW_1704    2017-04-07T09:28:55Z    -90.8356   27.534    23.3815      36.345    378.0191179           2          
MisPlume(west)    GOM_UW_1704    2017-04-07T09:30:23Z    -90.8357   27.5336   23.3849      36.344    379.230906            2          
MisPlume(west)    GOM_UW_1704    2017-04-07T09:31:52Z    -90.8358   27.5332   23.3839      36.344    381.2089195           2          
MisPlume(west)    GOM_UW_1704    2017-04-07T09:33:24Z    -90.8359   27.5327   23.3859      36.344    378.9315258           2          
MisPlume(west)    GOM_UW_1704    2017-04-07T09:34:54Z    -90.8359   27.5323   23.382       36.344    379.5674489           2          
MisPlume(west)    GOM_UW_1704    2017-04-07T09:36:23Z    -90.8359   27.5319   23.3842      36.344    378.6488024           2          
MisPlume(west)    GOM_UW_1704    2017-04-07T09:37:54Z    -90.836    27.5314   23.3779      36.344    378.2599902           2          
MisPlume(west)    GOM_UW_1704    2017-04-07T09:39:22Z    -90.8361   27.531    23.3835      36.344    378.5002906           2          
MisPlume(west)    GOM_UW_1704    2017-04-07T09:40:50Z    -90.8363   27.5306   23.3673      36.344    378.8433027           2          
MisPlume(west)    GOM_UW_1704    2017-04-07T09:42:21Z    -90.8363   27.5302   23.3849      36.343    379.5502735           2          
MisPlume(west)    GOM_UW_1704    2017-04-07T09:43:52Z    -90.8364   27.5298   23.3847      36.343    379.3195501           2          
MisPlume(west)    GOM_UW_1704    2017-04-07T09:45:23Z    -90.8365   27.5294   23.3831      36.344    377.3958896           2          
MisPlume(west)    GOM_UW_1704    2017-04-07T09:46:54Z    -90.8365   27.529    23.3768      36.344    375.6707603           2          
MisPlume(west)    GOM_UW_1704    2017-04-07T09:48:25Z    -90.8367   27.5286   23.3836      36.343    374.6433217           2          
MisPlume(west)    GOM_UW_1704    2017-04-07T09:49:52Z    -90.8368   27.5282   23.381       36.342    375.7019924           2          
MisPlume(west)    GOM_UW_1704    2017-04-07T09:51:21Z    -90.8369   27.5278   23.3857      36.341    375.9352095           2          
MisPlume(west)    GOM_UW_1704    2017-04-07T09:52:48Z    -90.8369   27.5274   23.3903      36.341    376.5125932           2          
MisPlume(west)    GOM_UW_1704    2017-04-07T09:54:17Z    -90.8369   27.527    23.3928      36.34     376.464464            2          
MisPlume(west)    GOM_UW_1704    2017-04-07T09:55:45Z    -90.8369   27.5267   23.3883      36.341    376.0422712           2          
MisPlume(west)    GOM_UW_1704    2017-04-07T09:57:15Z    -90.837    27.5263   23.3922      36.34     376.0617974           2          
MisPlume(west)    GOM_UW_1704    2017-04-07T09:58:47Z    -90.837    27.526    23.3911      36.34     375.0647031           2          
MisPlume(west)    GOM_UW_1704    2017-04-07T10:00:15Z    -90.837    27.5256   23.3871      36.341    375.8381966           2          
MisPlume(west)    GOM_UW_1704    2017-04-07T10:01:44Z    -90.837    27.5253   23.3928      36.347    377.0779818           2          
MisPlume(west)    GOM_UW_1704    2017-04-07T10:03:14Z    -90.837    27.5249   23.3946      36.347    376.0226251           2          
MisPlume(west)    GOM_UW_1704    2017-04-07T10:04:43Z    -90.837    27.5246   23.3907      36.347    374.7680178           2          
MisPlume(west)    GOM_UW_1704    2017-04-07T10:06:11Z    -90.8371   27.5242   23.3928      36.347    375.1807418           2          
MisPlume(west)    GOM_UW_1704    2017-04-07T10:07:40Z    -90.8372   27.5238   23.381       36.347    375.0496349           2          
MisPlume(west)    GOM_UW_1704    2017-04-07T10:09:08Z    -90.8373   27.5234   23.3864      36.347    375.7688807           2          
MisPlume(west)    GOM_UW_1704    2017-04-07T10:10:36Z    -90.8374   27.523    23.3908      36.347    375.1262047           2          
MisPlume(west)    GOM_UW_1704    2017-04-07T10:12:04Z    -90.8375   27.5227   23.3901      36.347    375.475004            2          
MisPlume(west)    GOM_UW_1704    2017-04-07T10:13:34Z    -90.8376   27.5222   23.3868      36.347    374.484563            2          
MisPlume(west)    GOM_UW_1704    2017-04-07T10:15:01Z    -90.8377   27.5219   23.3942      36.346    374.3464807           2          
MisPlume(west)    GOM_UW_1704    2017-04-07T10:16:33Z    -90.8379   27.5214   23.3898      36.346    375.5615381           2          
MisPlume(west)    GOM_UW_1704    2017-04-07T10:18:02Z    -90.838    27.521    23.3947      36.345    374.8368526           2          
MisPlume(west)    GOM_UW_1704    2017-04-07T10:19:29Z    -90.8382   27.5205   23.3873      36.345    374.8449397           2          
MisPlume(west)    GOM_UW_1704    2017-04-07T10:20:59Z    -90.8383   27.5202   23.384       36.345    374.4977381           2          
MisPlume(west)    GOM_UW_1704    2017-04-07T10:22:28Z    -90.8384   27.5197   23.3932      36.345    375.4509891           2          
MisPlume(west)    GOM_UW_1704    2017-04-07T10:23:56Z    -90.8386   27.5194   23.3982      36.344    375.448635            2          
MisPlume(west)    GOM_UW_1704    2017-04-07T10:25:26Z    -90.8388   27.519    23.408       36.344    374.0210623           2          
MisPlume(west)    GOM_UW_1704    2017-04-07T10:26:56Z    -90.8388   27.5186   23.3947      36.344    374.3515468           2          
MisPlume(west)    GOM_UW_1704    2017-04-07T10:28:26Z    -90.839    27.5182   23.3876      36.34     375.6838536           2          
MisPlume(west)    GOM_UW_1704    2017-04-07T10:29:54Z    -90.8391   27.5177   23.393       36.344    374.9044266           2          
MisPlume(west)    GOM_UW_1704    2017-04-07T10:31:23Z    -90.8392   27.5173   23.3932      36.345    374.4854602           2          
MisPlume(west)    GOM_UW_1704    2017-04-07T10:32:50Z    -90.8394   27.5168   23.3947      36.344    374.9876499           2          
MisPlume(west)    GOM_UW_1704    2017-04-07T10:34:19Z    -90.8396   27.5164   23.4003      36.343    375.1085053           2          
MisPlume(west)    GOM_UW_1704    2017-04-07T10:35:48Z    -90.8397   27.5159   23.4028      36.342    374.3446622           2          
MisPlume(west)    GOM_UW_1704    2017-04-07T10:37:18Z    -90.8398   27.5155   23.4003      36.344    374.8369433           2          
MisPlume(west)    GOM_UW_1704    2017-04-07T10:38:49Z    -90.8399   27.515    23.4092      36.343    374.0976867           2          
MisPlume(west)    GOM_UW_1704    2017-04-07T10:40:16Z    -90.8401   27.5146   23.4051      36.343    374.07992             2          
MisPlume(west)    GOM_UW_1704    2017-04-07T10:41:48Z    -90.8402   27.5141   23.4075      36.342    374.8814719           2          
MisPlume(west)    GOM_UW_1704    2017-04-07T10:43:17Z    -90.8404   27.5136   23.4138      36.342    374.9406146           2          
MisPlume(west)    GOM_UW_1704    2017-04-07T10:44:48Z    -90.8406   27.5131   23.4001      36.343    374.7612862           2          
MisPlume(west)    GOM_UW_1704    2017-04-07T10:46:17Z    -90.8409   27.5127   23.4028      36.342    374.8983352           2          
MisPlume(west)    GOM_UW_1704    2017-04-07T10:47:45Z    -90.8415   27.513    23.401       36.342    373.578723            2          
MisPlume(west)    GOM_UW_1704    2017-04-07T10:49:13Z    -90.8404   27.5147   23.405       36.342    377.6826606           2          
MisPlume(west)    GOM_UW_1704    2017-04-07T10:50:42Z    -90.8392   27.5167   23.3986      36.342    379.0218259           2          
MisPlume(west)    GOM_UW_1704    2017-04-07T10:52:11Z    -90.8378   27.5189   23.3873      36.344    377.4279521           2          
MisPlume(west)    GOM_UW_1704    2017-04-07T10:53:39Z    -90.8365   27.521    23.3884      36.343    376.1893519           2          
MisPlume(west)    GOM_UW_1704    2017-04-07T10:55:08Z    -90.8351   27.5232   23.3811      36.336    375.4628055           2          
MisPlume(west)    GOM_UW_1704    2017-04-07T10:56:36Z    -90.8338   27.5253   23.3854      36.338    377.8146176           2          
MisPlume(west)    GOM_UW_1704    2017-04-07T10:58:05Z    -90.8325   27.5274   23.3765      36.34     377.0525147           2          
MisPlume(west)    GOM_UW_1704    2017-04-07T10:59:33Z    -90.8312   27.5294   23.3804      36.342    377.5418288           2          
MisPlume(west)    GOM_UW_1704    2017-04-07T11:01:03Z    -90.8298   27.5316   23.386       36.341    377.7395073           2          
MisPlume(west)    GOM_UW_1704    2017-04-07T11:02:31Z    -90.8285   27.5337   23.381       36.345    376.8876171           2          
MisPlume(west)    GOM_UW_1704    2017-04-07T11:15:08Z    -90.8173   27.5517   23.3578      36.347    381.2276966           2          
MisPlume(west)    GOM_UW_1704    2017-04-07T11:16:36Z    -90.816    27.5538   23.3685      36.348    377.790017            2          
MisPlume(west)    GOM_UW_1704    2017-04-07T11:18:06Z    -90.8146   27.556    23.3657      36.349    378.5998865           2          
MisPlume(west)    GOM_UW_1704    2017-04-07T11:19:34Z    -90.8133   27.5581   23.3641      36.349    380.097911            2          
MisPlume(west)    GOM_UW_1704    2017-04-07T11:21:04Z    -90.8119   27.5603   23.3568      36.35     378.9431779           2          
MisPlume(west)    GOM_UW_1704    2017-04-07T11:22:33Z    -90.8106   27.5624   23.3584      36.35     379.7230082           2          
MisPlume(west)    GOM_UW_1704    2017-04-07T11:24:02Z    -90.8093   27.5645   23.3536      36.351    380.9114603           2          
MisPlume(west)    GOM_UW_1704    2017-04-07T11:25:29Z    -90.808    27.5665   23.3493      36.358    383.3640507           2          
MisPlume(west)    GOM_UW_1704    2017-04-07T11:26:59Z    -90.8066   27.5687   23.3549      36.359    380.9136619           2          
MisPlume(west)    GOM_UW_1704    2017-04-07T11:28:27Z    -90.8053   27.5709   23.3532      36.359    383.025789            2          
MisPlume(west)    GOM_UW_1704    2017-04-07T11:29:56Z    -90.8039   27.573    23.3569      36.361    383.9932226           2          
MisPlume(west)    GOM_UW_1704    2017-04-07T11:31:25Z    -90.8027   27.5751   23.3589      36.362    385.9485921           2          
MisPlume(west)    GOM_UW_1704    2017-04-07T11:32:54Z    -90.8013   27.5772   23.3595      36.361    383.8030182           2          
MisPlume(west)    GOM_UW_1704    2017-04-07T11:34:23Z    -90.8      27.5794   23.3632      36.362    385.9624399           2          
MisPlume(west)    GOM_UW_1704    2017-04-07T11:35:50Z    -90.7987   27.5816   23.3615      36.361    384.5840686           2          
MisPlume(west)    GOM_UW_1704    2017-04-07T11:37:19Z    -90.7973   27.5837   23.3506      36.363    387.9825472           2          
MisPlume(west)    GOM_UW_1704    2017-04-07T11:38:47Z    -90.796    27.5859   23.3544      36.363    385.1733688           2          
MisPlume(west)    GOM_UW_1704    2017-04-07T11:40:15Z    -90.7947   27.588    23.3507      36.363    385.1021654           2          
MisPlume(west)    GOM_UW_1704    2017-04-07T11:41:44Z    -90.7933   27.5902   23.3425      36.364    380.7887239           2          
MisPlume(west)    GOM_UW_1704    2017-04-07T11:43:13Z    -90.7918   27.5923   23.3383      36.363    382.4551437           2          
MisPlume(west)    GOM_UW_1704    2017-04-07T11:44:42Z    -90.7904   27.5945   23.3412      36.362    384.3153638           2          
MisPlume(west)    GOM_UW_1704    2017-04-07T11:46:11Z    -90.7891   27.5966   23.3364      36.362    385.5559577           2          
MisPlume(west)    GOM_UW_1704    2017-04-07T11:47:42Z    -90.7874   27.5991   23.3307      36.362    383.066958            2          
MisPlume(west)    GOM_UW_1704    2017-04-07T11:49:12Z    -90.7854   27.6021   23.3288      36.361    382.628918            2          
MisPlume(west)    GOM_UW_1704    2017-04-07T11:50:40Z    -90.7835   27.6051   23.3245      36.361    380.7395419           2          
MisPlume(west)    GOM_UW_1704    2017-04-07T11:52:09Z    -90.7815   27.6081   23.327       36.359    384.2783401           2          
MisPlume(west)    GOM_UW_1704    2017-04-07T11:53:38Z    -90.7796   27.6111   23.3173      36.359    380.7053162           2          
MisPlume(west)    GOM_UW_1704    2017-04-07T11:55:07Z    -90.7776   27.614    23.3149      36.363    386.7069287           2          
MisPlume(west)    GOM_UW_1704    2017-04-07T11:56:38Z    -90.7756   27.617    23.311       36.352    383.7034424           2          
MisPlume(west)    GOM_UW_1704    2017-04-07T11:58:06Z    -90.7737   27.62     23.3084      36.362    386.4215534           2          
MisPlume(west)    GOM_UW_1704    2017-04-07T11:59:38Z    -90.7717   27.623    23.3157      36.362    388.7660476           2          
MisPlume(west)    GOM_UW_1704    2017-04-07T12:01:06Z    -90.7698   27.626    23.3178      36.361    387.8877604           2          
MisPlume(west)    GOM_UW_1704    2017-04-07T12:02:34Z    -90.7678   27.629    23.3266      36.361    387.5133226           2          
MisPlume(west)    GOM_UW_1704    2017-04-07T12:04:02Z    -90.7659   27.6319   23.3297      36.36     389.8187026           2          
MisPlume(west)    GOM_UW_1704    2017-04-07T12:05:32Z    -90.7639   27.635    23.3249      36.36     385.5869319           2          
MisPlume(west)    GOM_UW_1704    2017-04-07T12:07:01Z    -90.762    27.638    23.3291      36.359    384.0047076           2          
MisPlume(west)    GOM_UW_1704    2017-04-07T12:08:29Z    -90.76     27.6409   23.3261      36.359    387.4068793           2          
MisPlume(west)    GOM_UW_1704    2017-04-07T12:09:58Z    -90.7581   27.644    23.3329      36.358    387.7044311           2          
MisPlume(west)    GOM_UW_1704    2017-04-07T12:11:29Z    -90.7561   27.647    23.3324      36.358    385.2314586           2          
MisPlume(west)    GOM_UW_1704    2017-04-07T12:12:57Z    -90.7542   27.65     23.3413      36.358    387.3957839           2          
MisPlume(west)    GOM_UW_1704    2017-04-07T12:14:26Z    -90.7522   27.6529   23.3483      36.359    386.4142822           2          
MisPlume(west)    GOM_UW_1704    2017-04-07T12:15:54Z    -90.7503   27.6559   23.3525      36.359    382.4367682           2          
MisPlume(west)    GOM_UW_1704    2017-04-07T12:17:24Z    -90.7483   27.6589   23.3635      36.357    383.2501291           2          
MisPlume(west)    GOM_UW_1704    2017-04-07T12:18:53Z    -90.7464   27.6619   23.3708      36.357    384.9472369           2          
MisPlume(west)    GOM_UW_1704    2017-04-07T12:20:21Z    -90.7445   27.6649   23.3768      36.355    381.3732968           2          
MisPlume(west)    GOM_UW_1704    2017-04-07T12:21:49Z    -90.7425   27.6678   23.3809      36.361    380.8244915           2          
MisPlume(west)    GOM_UW_1704    2017-04-07T12:23:19Z    -90.7405   27.6709   23.3799      36.361    379.3508055           2          
MisPlume(west)    GOM_UW_1704    2017-04-07T12:24:50Z    -90.7385   27.6739   23.3815      36.36     381.4172247           2          
MisPlume(west)    GOM_UW_1704    2017-04-07T12:26:19Z    -90.7366   27.6769   23.3849      36.358    382.3896003           2          
MisPlume(west)    GOM_UW_1704    2017-04-07T12:27:46Z    -90.7347   27.6798   23.383       36.357    382.4645417           2          
MisPlume(west)    GOM_UW_1704    2017-04-07T12:29:18Z    -90.7327   27.6829   23.3775      36.355    380.9584786           2          
MisPlume(west)    GOM_UW_1704    2017-04-07T12:30:46Z    -90.7307   27.6859   23.3776      36.355    381.4683092           2          
MisPlume(west)    GOM_UW_1704    2017-04-07T12:32:14Z    -90.7288   27.6889   23.3727      36.355    377.6356118           2          
MisPlume(west)    GOM_UW_1704    2017-04-07T12:33:43Z    -90.7269   27.6919   23.3713      36.356    379.0675381           2          
MisPlume(west)    GOM_UW_1704    2017-04-07T12:35:11Z    -90.7249   27.6948   23.3716      36.355    381.0161528           2          
MisPlume(west)    GOM_UW_1704    2017-04-07T12:36:42Z    -90.723    27.6979   23.3611      36.356    380.2810062           2          
MisPlume(west)    GOM_UW_1704    2017-04-07T12:38:10Z    -90.721    27.7009   23.3757      36.354    377.5984294           2          
MisPlume(west)    GOM_UW_1704    2017-04-07T12:39:38Z    -90.7191   27.7038   23.3705      36.354    378.87382             2          
MisPlume(west)    GOM_UW_1704    2017-04-07T12:41:06Z    -90.7171   27.7068   23.3763      36.353    377.7112671           2          
MisPlume(west)    GOM_UW_1704    2017-04-07T12:42:35Z    -90.7152   27.7098   23.3871      36.352    378.58007             2          
MisPlume(west)    GOM_UW_1704    2017-04-07T12:44:04Z    -90.7132   27.7128   23.3892      36.353    377.6864816           2          
MisPlume(west)    GOM_UW_1704    2017-04-07T12:45:33Z    -90.7112   27.7158   23.3995      36.353    377.907291            2          
MisPlume(west)    GOM_UW_1704    2017-04-07T12:47:02Z    -90.7093   27.7188   23.4069      36.353    380.0376005           2          
MisPlume(west)    GOM_UW_1704    2017-04-07T12:48:31Z    -90.7073   27.7218   23.4131      36.355    380.1448631           2          
MisPlume(west)    GOM_UW_1704    2017-04-07T12:50:00Z    -90.7053   27.7248   23.414       36.356    380.8068378           2          
MisPlume(west)    GOM_UW_1704    2017-04-07T12:51:31Z    -90.7033   27.7278   23.4182      36.356    380.1287783           2          
MisPlume(west)    GOM_UW_1704    2017-04-07T12:52:59Z    -90.7014   27.7309   23.4229      36.355    380.1855668           2          
MisPlume(west)    GOM_UW_1704    2017-04-07T12:54:28Z    -90.6994   27.7339   23.4311      36.355    378.2850939           2          
MisPlume(west)    GOM_UW_1704    2017-04-07T12:55:57Z    -90.6978   27.7369   23.4333      36.355    381.6045475           2          
MisPlume(west)    GOM_UW_1704    2017-04-07T12:57:28Z    -90.6961   27.7402   23.4424      36.355    379.8809006           2          
MisPlume(west)    GOM_UW_1704    2017-04-07T12:58:58Z    -90.6944   27.7434   23.4455      36.354    378.786055            2          
MisPlume(west)    GOM_UW_1704    2017-04-07T13:00:26Z    -90.6927   27.7465   23.4513      36.356    378.5238754           2          
MisPlume(west)    GOM_UW_1704    2017-04-07T13:01:55Z    -90.6911   27.7496   23.4521      36.356    380.9886347           2          
MisPlume(west)    GOM_UW_1704    2017-04-07T13:03:26Z    -90.6894   27.7529   23.4613      36.356    380.3199189           2          
MisPlume(west)    GOM_UW_1704    2017-04-07T13:04:56Z    -90.6877   27.7561   23.4527      36.356    380.8288504           2          
MisPlume(west)    GOM_UW_1704    2017-04-07T13:06:25Z    -90.686    27.7593   23.4611      36.355    378.2183991           2          
MisPlume(west)    GOM_UW_1704    2017-04-07T13:07:55Z    -90.6843   27.7625   23.4603      36.354    380.851781            2          
MisPlume(west)    GOM_UW_1704    2017-04-07T13:09:23Z    -90.6827   27.7657   23.4645      36.354    378.2097895           2          
MisPlume(west)    GOM_UW_1704    2017-04-07T13:10:52Z    -90.681    27.7688   23.4638      36.354    379.5023104           2          
MisPlume(west)    GOM_UW_1704    2017-04-07T13:12:20Z    -90.6793   27.7719   23.4605      36.355    379.5044166           2          
MisPlume(west)    GOM_UW_1704    2017-04-07T13:13:48Z    -90.6777   27.775    23.4622      36.355    379.6040302           2          
MisPlume(west)    GOM_UW_1704    2017-04-07T13:15:16Z    -90.6761   27.7782   23.4645      36.355    380.5790716           2          
MisPlume(west)    GOM_UW_1704    2017-04-07T13:16:44Z    -90.6744   27.7813   23.4608      36.355    377.9191672           2          
MisPlume(west)    GOM_UW_1704    2017-04-07T13:18:12Z    -90.6727   27.7845   23.464       36.355    378.4681839           2          
MisPlume(west)    GOM_UW_1704    2017-04-07T13:19:41Z    -90.671    27.7877   23.4607      36.355    378.806548            2          
MisPlume(west)    GOM_UW_1704    2017-04-07T13:21:10Z    -90.6693   27.7909   23.4609      36.354    378.2673522           2          
MisPlume(west)    GOM_UW_1704    2017-04-07T13:22:37Z    -90.6677   27.794    23.4618      36.354    379.1288607           2          
MisPlume(west)    GOM_UW_1704    2017-04-07T13:24:05Z    -90.666    27.7971   23.4574      36.354    379.575197            2          
MisPlume(west)    GOM_UW_1704    2017-04-07T13:25:33Z    -90.6644   27.8003   23.4588      36.355    377.8193192           2          
MisPlume(west)    GOM_UW_1704    2017-04-07T13:27:02Z    -90.6627   27.8034   23.4539      36.362    378.7776342           2          
MisPlume(west)    GOM_UW_1704    2017-04-07T13:28:33Z    -90.6607   27.8065   23.4535      36.361    378.2169902           2          
MisPlume(west)    GOM_UW_1704    2017-04-07T13:30:04Z    -90.6585   27.8096   23.4519      36.36     377.5875064           2          
MisPlume(west)    GOM_UW_1704    2017-04-07T13:31:33Z    -90.6564   27.8126   23.447       36.361    380.6514638           2          
MisPlume(west)    GOM_UW_1704    2017-04-07T13:33:00Z    -90.6544   27.8155   23.4463      36.361    378.2608608           2          
MisPlume(west)    GOM_UW_1704    2017-04-07T13:34:29Z    -90.6523   27.8185   23.4493      36.362    379.095264            2          
MisPlume(west)    GOM_UW_1704    2017-04-07T13:35:58Z    -90.6501   27.8215   23.451       36.363    378.8138866           2          
MisPlume(west)    GOM_UW_1704    2017-04-07T13:37:26Z    -90.648    27.8244   23.4536      36.362    379.6085503           2          
MisPlume(west)    GOM_UW_1704    2017-04-07T13:38:54Z    -90.646    27.8274   23.4554      36.363    378.5706506           2          
MisPlume(west)    GOM_UW_1704    2017-04-07T13:40:22Z    -90.6439   27.8304   23.4484      36.367    378.1792739           2          
MisPlume(west)    GOM_UW_1704    2017-04-07T13:41:51Z    -90.6417   27.8334   23.4478      36.365    380.5491651           2          
MisPlume(west)    GOM_UW_1704    2017-04-07T13:43:19Z    -90.6396   27.8363   23.4402      36.366    377.906128            2          
MisPlume(west)    GOM_UW_1704    2017-04-07T13:44:46Z    -90.6375   27.8392   23.4398      36.365    379.2498452           2          
MisPlume(west)    GOM_UW_1704    2017-04-07T13:46:15Z    -90.6354   27.8423   23.4375      36.365    380.2412252           2          
MisPlume(west)    GOM_UW_1704    2017-04-07T13:47:47Z    -90.6333   27.8454   23.4361      36.365    377.1526622           2          
MisPlume(west)    GOM_UW_1704    2017-04-07T13:49:16Z    -90.6311   27.8484   23.4288      36.365    376.3053349           2          
MisPlume(west)    GOM_UW_1704    2017-04-07T13:50:45Z    -90.629    27.8515   23.4252      36.364    378.1924738           2          
MisPlume(west)    GOM_UW_1704    2017-04-07T13:52:14Z    -90.6269   27.8544   23.4201      36.365    378.7502123           2          
MisPlume(west)    GOM_UW_1704    2017-04-07T13:53:45Z    -90.6247   27.8575   23.4168      36.365    377.4958355           2          
MisPlume(west)    GOM_UW_1704    2017-04-07T13:55:12Z    -90.6226   27.8604   23.4124      36.362    377.4029845           2          
MisPlume(west)    GOM_UW_1704    2017-04-07T13:56:41Z    -90.6205   27.8634   23.414       36.361    379.5139616           2          
MisPlume(west)    GOM_UW_1704    2017-04-07T13:58:12Z    -90.6183   27.8665   23.4117      36.361    378.7031268           2          
MisPlume(west)    GOM_UW_1704    2017-04-07T13:59:41Z    -90.6162   27.8695   23.4088      36.36     377.6497012           2          
MisPlume(west)    GOM_UW_1704    2017-04-07T14:01:10Z    -90.614    27.8726   23.4075      36.361    377.0519696           2          
MisPlume(west)    GOM_UW_1704    2017-04-07T14:02:39Z    -90.6119   27.8756   23.4091      36.36     377.0954132           2          
MisPlume(west)    GOM_UW_1704    2017-04-07T14:04:09Z    -90.6097   27.8787   23.406       36.36     377.1522223           2          
MisPlume(west)    GOM_UW_1704    2017-04-07T14:05:39Z    -90.6075   27.8817   23.4041      36.36     377.0330387           2          
MisPlume(west)    GOM_UW_1704    2017-04-07T14:07:10Z    -90.6053   27.8848   23.4034      36.361    376.2400465           2          
MisPlume(west)    GOM_UW_1704    2017-04-07T14:08:39Z    -90.6031   27.8879   23.4036      36.36     376.873195            2          
MisPlume(west)    GOM_UW_1704    2017-04-07T14:10:07Z    -90.6011   27.8909   23.4016      36.361    377.3453975           2          
MisPlume(west)    GOM_UW_1704    2017-04-07T14:11:39Z    -90.5988   27.8941   23.4001      36.361    378.0841885           2          
MisPlume(west)    GOM_UW_1704    2017-04-07T14:24:11Z    -90.5812   27.9203   23.3656      36.365    375.6287359           2          
MisPlume(west)    GOM_UW_1704    2017-04-07T14:25:42Z    -90.5792   27.9235   23.3529      36.364    376.3626116           2          
MisPlume(west)    GOM_UW_1704    2017-04-07T14:27:10Z    -90.5773   27.9266   23.3448      36.365    375.8085184           2          
MisPlume(west)    GOM_UW_1704    2017-04-07T14:28:38Z    -90.5753   27.9298   23.3405      36.363    376.2945249           2          
MisPlume(west)    GOM_UW_1704    2017-04-07T14:30:06Z    -90.5733   27.9329   23.3274      36.363    375.5598555           2          
MisPlume(west)    GOM_UW_1704    2017-04-07T14:31:37Z    -90.5712   27.9362   23.3252      36.363    374.6609435           2          
MisPlume(west)    GOM_UW_1704    2017-04-07T14:33:05Z    -90.5692   27.9394   23.321       36.363    375.4380747           2          
MisPlume(west)    GOM_UW_1704    2017-04-07T14:34:34Z    -90.5672   27.9426   23.3234      36.371    376.1695022           2          
MisPlume(west)    GOM_UW_1704    2017-04-07T14:36:01Z    -90.5653   27.9457   23.3221      36.353    375.7804036           2          
MisPlume(west)    GOM_UW_1704    2017-04-07T14:37:29Z    -90.5633   27.9488   23.3295      36.373    375.4282069           2          
MisPlume(west)    GOM_UW_1704    2017-04-07T14:38:58Z    -90.5613   27.952    23.3297      36.381    376.1001593           2          
MisPlume(west)    GOM_UW_1704    2017-04-07T14:40:29Z    -90.5593   27.9552   23.3319      36.382    376.2202267           2          
MisPlume(west)    GOM_UW_1704    2017-04-07T14:41:57Z    -90.5573   27.9584   23.3349      36.384    375.0173613           2          
MisPlume(west)    GOM_UW_1704    2017-04-07T14:43:26Z    -90.5553   27.9616   23.3378      36.384    376.2576687           2          
MisPlume(west)    GOM_UW_1704    2017-04-07T14:44:54Z    -90.5533   27.9647   23.3384      36.383    376.8973984           2          
MisPlume(west)    GOM_UW_1704    2017-04-07T14:46:22Z    -90.5514   27.9679   23.3436      36.384    376.0479756           2          
MisPlume(west)    GOM_UW_1704    2017-04-07T14:47:50Z    -90.5493   27.971    23.3466      36.384    376.2523414           2          
MisPlume(west)    GOM_UW_1704    2017-04-07T14:49:22Z    -90.5473   27.9743   23.3481      36.384    376.319014            2          
MisPlume(west)    GOM_UW_1704    2017-04-07T14:50:50Z    -90.5452   27.9775   23.3521      36.384    375.2645936           2          
MisPlume(west)    GOM_UW_1704    2017-04-07T14:52:20Z    -90.5432   27.9807   23.3564      36.384    375.6055599           2          
MisPlume(west)    GOM_UW_1704    2017-04-07T14:53:48Z    -90.5412   27.984    23.3587      36.384    376.7112064           2          
MisPlume(west)    GOM_UW_1704    2017-04-07T14:55:16Z    -90.5391   27.987    23.3578      36.384    375.6463686           2          
MisPlume(west)    GOM_UW_1704    2017-04-07T14:56:44Z    -90.537    27.9902   23.3556      36.384    376.1759462           2          
MisPlume(west)    GOM_UW_1704    2017-04-07T14:58:14Z    -90.5348   27.9934   23.3547      36.383    375.0293926           2          
MisPlume(west)    GOM_UW_1704    2017-04-07T14:59:42Z    -90.5327   27.9965   23.3541      36.382    375.9387585           2          
MisPlume(west)    GOM_UW_1704    2017-04-07T15:01:11Z    -90.5305   27.9996   23.3538      36.381    376.7046918           2          
MisPlume(west)    GOM_UW_1704    2017-04-07T15:02:39Z    -90.5284   28.0028   23.3496      36.38     376.0895653           2          
MisPlume(west)    GOM_UW_1704    2017-04-07T15:04:08Z    -90.5263   28.006    23.3465      36.379    375.2964401           2          
MisPlume(west)    GOM_UW_1704    2017-04-07T15:05:36Z    -90.5241   28.0091   23.3476      36.379    376.6689738           2          
MisPlume(west)    GOM_UW_1704    2017-04-07T15:07:04Z    -90.522    28.0122   23.3437      36.378    377.1492713           2          
MisPlume(west)    GOM_UW_1704    2017-04-07T15:08:34Z    -90.5198   28.0155   23.3351      36.371    376.10943             2          
MisPlume(west)    GOM_UW_1704    2017-04-07T15:10:03Z    -90.5176   28.0186   23.3338      36.382    377.9389018           2          
MisPlume(west)    GOM_UW_1704    2017-04-07T15:11:33Z    -90.5154   28.0218   23.3323      36.382    375.6408578           2          
MisPlume(west)    GOM_UW_1704    2017-04-07T15:13:01Z    -90.5132   28.025    23.3271      36.381    377.0745368           2          
MisPlume(west)    GOM_UW_1704    2017-04-07T15:14:30Z    -90.5111   28.0281   23.3232      36.381    375.8225627           2          
MisPlume(west)    GOM_UW_1704    2017-04-07T15:15:58Z    -90.5089   28.0313   23.3224      36.381    375.6409153           2          
MisPlume(west)    GOM_UW_1704    2017-04-07T15:17:25Z    -90.5068   28.0345   23.3235      36.38     377.2126013           2          
MisPlume(west)    GOM_UW_1704    2017-04-07T15:18:54Z    -90.5047   28.0377   23.3224      36.38     378.0996876           2          
MisPlume(west)    GOM_UW_1704    2017-04-07T15:20:21Z    -90.5025   28.0408   23.3192      36.381    376.5797883           2          
MisPlume(west)    GOM_UW_1704    2017-04-07T15:21:49Z    -90.5004   28.044    23.3193      36.384    378.9932095           2          
MisPlume(west)    GOM_UW_1704    2017-04-07T15:23:18Z    -90.4984   28.0472   23.3178      36.384    377.9412907           2          
MisPlume(west)    GOM_UW_1704    2017-04-07T15:24:49Z    -90.4962   28.0505   23.3193      36.383    375.5162742           2          
MisPlume(west)    GOM_UW_1704    2017-04-07T15:26:20Z    -90.494    28.0538   23.3182      36.383    376.8247922           2          
MisPlume(west)    GOM_UW_1704    2017-04-07T15:27:48Z    -90.492    28.057    23.319       36.383    377.7202137           2          
MisPlume(west)    GOM_UW_1704    2017-04-07T15:29:17Z    -90.4898   28.0603   23.3163      36.384    377.7342292           2          
MisPlume(west)    GOM_UW_1704    2017-04-07T15:30:45Z    -90.4877   28.0635   23.317       36.383    377.4529014           2          
MisPlume(west)    GOM_UW_1704    2017-04-07T15:32:13Z    -90.4856   28.0667   23.3166      36.383    376.5457599           2          
MisPlume(west)    GOM_UW_1704    2017-04-07T15:33:45Z    -90.4834   28.07     23.3112      36.383    377.5447474           2          
MisPlume(west)    GOM_UW_1704    2017-04-07T15:35:16Z    -90.4812   28.0733   23.3083      36.385    376.2181929           2          
MisPlume(west)    GOM_UW_1704    2017-04-07T15:36:45Z    -90.479    28.0766   23.3097      36.385    378.4530116           2          
MisPlume(west)    GOM_UW_1704    2017-04-07T15:38:13Z    -90.477    28.0798   23.3067      36.387    378.6110554           2          
MisPlume(west)    GOM_UW_1704    2017-04-07T15:39:44Z    -90.4748   28.0831   23.3057      36.387    376.8254899           2          
MisPlume(west)    GOM_UW_1704    2017-04-07T15:41:13Z    -90.4727   28.0864   23.308       36.388    377.4176073           2          
MisPlume(west)    GOM_UW_1704    2017-04-07T15:42:41Z    -90.4706   28.0896   23.3088      36.387    376.4055255           2          
MisPlume(west)    GOM_UW_1704    2017-04-07T15:44:09Z    -90.4684   28.0928   23.3101      36.387    377.5581176           2          
MisPlume(west)    GOM_UW_1704    2017-04-07T15:45:38Z    -90.4663   28.0961   23.3076      36.387    377.6593557           2          
MisPlume(west)    GOM_UW_1704    2017-04-07T15:47:06Z    -90.4642   28.0993   23.304       36.389    377.9569807           2          
MisPlume(west)    GOM_UW_1704    2017-04-07T15:48:37Z    -90.462    28.1026   23.2992      36.39     377.7452449           2          
MisPlume(west)    GOM_UW_1704    2017-04-07T15:50:05Z    -90.46     28.1059   23.2958      36.392    376.4289625           2          
MisPlume(west)    GOM_UW_1704    2017-04-07T15:51:33Z    -90.4579   28.1092   23.289       36.392    377.9847491           2          
MisPlume(west)    GOM_UW_1704    2017-04-07T15:53:02Z    -90.4558   28.1124   23.2775      36.392    375.7532666           2          
MisPlume(west)    GOM_UW_1704    2017-04-07T15:54:33Z    -90.4537   28.1158   23.2703      36.392    377.520485            2          
MisPlume(west)    GOM_UW_1704    2017-04-07T15:56:01Z    -90.4517   28.1191   23.265       36.392    377.5374224           2          
MisPlume(west)    GOM_UW_1704    2017-04-07T15:57:30Z    -90.4496   28.1224   23.2607      36.392    376.6886636           2          
MisPlume(west)    GOM_UW_1704    2017-04-07T15:58:59Z    -90.4476   28.1256   23.2506      36.391    375.536737            2          
MisPlume(west)    GOM_UW_1704    2017-04-07T16:00:28Z    -90.4455   28.1289   23.2431      36.39     375.9833296           2          
MisPlume(west)    GOM_UW_1704    2017-04-07T16:01:57Z    -90.4434   28.1321   23.2383      36.39     376.526811            2          
MisPlume(west)    GOM_UW_1704    2017-04-07T16:03:26Z    -90.4414   28.1354   23.2229      36.39     377.5823815           2          
MisPlume(west)    GOM_UW_1704    2017-04-07T16:04:54Z    -90.4393   28.1386   23.1981      36.388    376.4171457           2          
MisPlume(west)    GOM_UW_1704    2017-04-07T16:06:25Z    -90.4373   28.142    23.191       36.385    377.2786035           2          
MisPlume(west)    GOM_UW_1704    2017-04-07T16:07:53Z    -90.4352   28.1451   23.1855      36.383    375.4292319           2          
MisPlume(west)    GOM_UW_1704    2017-04-07T16:09:22Z    -90.4332   28.1484   23.1747      36.369    375.1544536           2          
MisPlume(west)    GOM_UW_1704    2017-04-07T16:10:51Z    -90.4312   28.1516   23.1693      36.374    376.1711674           2          
MisPlume(west)    GOM_UW_1704    2017-04-07T16:12:20Z    -90.4291   28.1549   23.1651      36.372    374.9648713           2          
MisPlume(west)    GOM_UW_1704    2017-04-07T16:13:48Z    -90.4271   28.1581   23.1627      36.37     374.2856097           2          
MisPlume(west)    GOM_UW_1704    2017-04-07T16:15:16Z    -90.4251   28.1613   23.1621      36.368    377.568278            2          
MisPlume(west)    GOM_UW_1704    2017-04-07T16:16:44Z    -90.4231   28.1645   23.159       36.365    378.792847            2          
MisPlume(west)    GOM_UW_1704    2017-04-07T16:18:13Z    -90.421    28.1678   23.153       36.36     377.233023            2          
MisPlume(west)    GOM_UW_1704    2017-04-07T16:19:44Z    -90.419    28.1711   23.1439      36.355    378.3495988           2          
MisPlume(west)    GOM_UW_1704    2017-04-07T16:21:12Z    -90.417    28.1743   23.1334      36.349    376.3429326           2          
MisPlume(west)    GOM_UW_1704    2017-04-07T16:22:43Z    -90.4148   28.1776   23.128       36.345    376.2372305           2          
MisPlume(west)    GOM_UW_1704    2017-04-07T16:24:12Z    -90.4128   28.1808   23.1222      36.341    377.8029135           2          
MisPlume(west)    GOM_UW_1704    2017-04-07T16:25:40Z    -90.4108   28.1841   23.113       36.332    379.1563853           2          
MisPlume(west)    GOM_UW_1704    2017-04-07T16:27:09Z    -90.4087   28.1873   23.1051      36.327    378.2122191           2          
MisPlume(west)    GOM_UW_1704    2017-04-07T16:28:37Z    -90.4067   28.1906   23.1002      36.323    379.0124186           2          
MisPlume(west)    GOM_UW_1704    2017-04-07T16:30:08Z    -90.4046   28.1939   23.0867      36.315    377.4320196           2          
MisPlume(west)    GOM_UW_1704    2017-04-07T16:31:37Z    -90.4025   28.1972   23.0703      36.308    378.4013056           2          
MisPlume(west)    GOM_UW_1704    2017-04-07T16:33:06Z    -90.3994   28.1989   23.0609      36.301    376.8841945           2          
MisPlume(west)    GOM_UW_1704    2017-04-07T16:34:34Z    -90.3958   28.197    23.057       36.296    376.367291            2          
MisPlume(west)    GOM_UW_1704    2017-04-07T16:36:05Z    -90.3924   28.1946   23.0586      36.302    378.5289302           2          
MisPlume(west)    GOM_UW_1704    2017-04-07T16:37:34Z    -90.389    28.1923   23.0587      36.301    377.9696065           2          
MisPlume(west)    GOM_UW_1704    2017-04-07T16:39:02Z    -90.3857   28.19     23.0712      36.306    nd                    2          
MisPlume(west)    GOM_UW_1704    2017-04-07T16:40:34Z    -90.3822   28.1876   23.0647      36.303    378.7110717           2          
MisPlume(west)    GOM_UW_1704    2017-04-07T16:42:01Z    -90.3789   28.1854   23.0719      36.305    378.5405668           2          
MisPlume(west)    GOM_UW_1704    2017-04-07T16:43:32Z    -90.3755   28.183    23.1051      36.319    377.6801694           2          
MisPlume(west)    GOM_UW_1704    2017-04-07T16:45:02Z    -90.3721   28.1807   23.1202      36.326    379.792601            2          
MisPlume(west)    GOM_UW_1704    2017-04-07T16:46:30Z    -90.3688   28.1784   23.1326      36.336    379.6018454           2          
MisPlume(west)    GOM_UW_1704    2017-04-07T16:47:58Z    -90.3655   28.1761   23.1422      36.341    382.4757418           2          
MisPlume(west)    GOM_UW_1704    2017-04-07T16:49:27Z    -90.3622   28.1738   23.1544      36.347    380.5094686           2          
MisPlume(west)    GOM_UW_1704    2017-04-07T16:50:56Z    -90.3589   28.1715   23.1588      36.347    378.0368064           2          
MisPlume(west)    GOM_UW_1704    2017-04-07T16:52:24Z    -90.3556   28.1691   23.1614      36.352    379.2495143           2          
MisPlume(west)    GOM_UW_1704    2017-04-07T16:53:51Z    -90.3524   28.1668   23.1659      36.352    377.4577008           2          
MisPlume(west)    GOM_UW_1704    2017-04-07T16:55:23Z    -90.349    28.1644   23.1728      36.357    377.7473593           2          
MisPlume(west)    GOM_UW_1704    2017-04-07T16:56:52Z    -90.3457   28.1621   23.1822      36.364    376.5451872           2          
MisPlume(west)    GOM_UW_1704    2017-04-07T16:58:20Z    -90.3424   28.1597   23.1889      36.368    378.0700646           2          
MisPlume(west)    GOM_UW_1704    2017-04-07T16:59:48Z    -90.3392   28.1574   23.1971      36.373    379.0244327           2          
MisPlume(west)    GOM_UW_1704    2017-04-07T17:01:17Z    -90.3359   28.1551   23.1997      36.374    377.5302046           2          
MisPlume(west)    GOM_UW_1704    2017-04-07T17:02:49Z    -90.3326   28.1527   23.2065      36.378    377.4961829           2          
MisPlume(west)    GOM_UW_1704    2017-04-07T17:04:18Z    -90.3293   28.1503   23.2115      36.38     376.0902158           2          
MisPlume(west)    GOM_UW_1704    2017-04-07T17:05:47Z    -90.326    28.1481   23.2233      36.384    376.5311159           2          
MisPlume(west)    GOM_UW_1704    2017-04-07T17:07:15Z    -90.3228   28.1457   23.225       36.386    376.7186198           2          
MisPlume(west)    GOM_UW_1704    2017-04-07T17:08:43Z    -90.3196   28.1434   23.2327      36.387    375.9187909           2          
MisPlume(west)    GOM_UW_1704    2017-04-07T17:10:11Z    -90.3163   28.1411   23.237       36.386    377.0941174           2          
MisPlume(west)    GOM_UW_1704    2017-04-07T17:11:40Z    -90.313    28.1387   23.235       36.388    376.3548723           2          
MisPlume(west)    GOM_UW_1704    2017-04-07T17:13:10Z    -90.3097   28.1364   23.2309      36.387    379.4603503           2          
MisPlume(west)    GOM_UW_1704    2017-04-07T17:14:40Z    -90.3064   28.134    23.2326      36.387    379.8252945           2          
MisPlume(west)    GOM_UW_1704    2017-04-07T17:16:07Z    -90.3032   28.1317   23.2558      36.385    381.9887116           2          
MisPlume(west)    GOM_UW_1704    2017-04-07T17:17:39Z    -90.2998   28.1293   23.2686      36.386    383.0641081           2          
MisPlume(west)    GOM_UW_1704    2017-04-07T17:19:06Z    -90.2966   28.1271   23.2809      36.386    380.1469092           2          
MisPlume(west)    GOM_UW_1704    2017-04-07T17:20:37Z    -90.2933   28.1247   23.2901      36.387    382.6530221           2          
MisPlume(west)    GOM_UW_1704    2017-04-07T17:33:14Z    -90.2657   28.1049   23.3149      36.377    379.8703795           2          
MisPlume(west)    GOM_UW_1704    2017-04-07T17:34:42Z    -90.2625   28.1026   23.3188      36.377    380.4901347           2          
MisPlume(west)    GOM_UW_1704    2017-04-07T17:36:10Z    -90.2592   28.1003   23.326       36.38     379.6174257           2          
MisPlume(west)    GOM_UW_1704    2017-04-07T17:37:38Z    -90.256    28.098    23.3257      36.378    381.0240062           2          
MisPlume(west)    GOM_UW_1704    2017-04-07T17:39:09Z    -90.2527   28.0956   23.3341      36.377    380.194925            2          
MisPlume(west)    GOM_UW_1704    2017-04-07T17:40:36Z    -90.2496   28.0934   23.3371      36.376    380.5824756           2          
MisPlume(west)    GOM_UW_1704    2017-04-07T17:42:06Z    -90.2463   28.0911   23.3454      36.375    382.2605919           2          
MisPlume(west)    GOM_UW_1704    2017-04-07T17:43:33Z    -90.2431   28.0888   23.3502      36.374    381.6988798           2          
MisPlume(west)    GOM_UW_1704    2017-04-07T17:45:03Z    -90.2399   28.0864   23.3499      36.377    382.0514903           2          
MisPlume(west)    GOM_UW_1704    2017-04-07T17:46:31Z    -90.2367   28.0842   23.3489      36.378    382.228151            2          
MisPlume(west)    GOM_UW_1704    2017-04-07T17:47:59Z    -90.2335   28.0819   23.3469      36.377    383.1176901           2          
MisPlume(west)    GOM_UW_1704    2017-04-07T17:49:28Z    -90.2302   28.0796   23.3426      36.378    383.6452196           2          
MisPlume(west)    GOM_UW_1704    2017-04-07T17:50:57Z    -90.227    28.0772   23.3417      36.378    382.0932047           2          
MisPlume(west)    GOM_UW_1704    2017-04-07T17:52:27Z    -90.2237   28.0749   23.3397      36.377    380.793505            2          
MisPlume(west)    GOM_UW_1704    2017-04-07T17:53:56Z    -90.2205   28.0726   23.3377      36.377    384.1138604           2          
MisPlume(west)    GOM_UW_1704    2017-04-07T17:55:26Z    -90.2172   28.0702   23.3333      36.378    385.2265598           2          
MisPlume(west)    GOM_UW_1704    2017-04-07T17:56:58Z    -90.2138   28.0678   23.3298      36.379    382.5637514           2          
MisPlume(west)    GOM_UW_1704    2017-04-07T17:58:26Z    -90.2105   28.0655   23.3289      36.379    384.4000626           2          
MisPlume(west)    GOM_UW_1704    2017-04-07T17:59:54Z    -90.2073   28.0633   23.3277      36.377    383.5316034           2          
MisPlume(west)    GOM_UW_1704    2017-04-07T18:01:22Z    -90.2041   28.061    23.3327      36.381    382.2996226           2          
MisPlume(west)    GOM_UW_1704    2017-04-07T18:02:51Z    -90.2009   28.0587   23.3282      36.382    383.2623704           2          
MisPlume(west)    GOM_UW_1704    2017-04-07T18:04:19Z    -90.1977   28.0564   23.3326      36.381    382.7043422           2          
MisPlume(west)    GOM_UW_1704    2017-04-07T18:05:47Z    -90.1945   28.054    23.3335      36.381    383.9410632           2          
MisPlume(west)    GOM_UW_1704    2017-04-07T18:07:18Z    -90.1912   28.0517   23.3392      36.388    382.9257817           2          
MisPlume(west)    GOM_UW_1704    2017-04-07T18:08:47Z    -90.1879   28.0494   23.3348      36.388    382.0461732           2          
MisPlume(west)    GOM_UW_1704    2017-04-07T18:10:18Z    -90.1846   28.047    23.3356      36.387    383.4845767           2          
MisPlume(west)    GOM_UW_1704    2017-04-07T18:11:47Z    -90.1814   28.0446   23.339       36.365    384.4744365           2          
MisPlume(west)    GOM_UW_1704    2017-04-07T18:13:15Z    -90.1781   28.0424   23.3338      36.389    383.9420957           2          
MisPlume(west)    GOM_UW_1704    2017-04-07T18:14:45Z    -90.1749   28.04     23.3329      36.389    385.3411855           2          
MisPlume(west)    GOM_UW_1704    2017-04-07T18:16:15Z    -90.1716   28.0377   23.3055      36.386    383.5263596           2          
MisPlume(west)    GOM_UW_1704    2017-04-07T18:17:43Z    -90.1684   28.0354   23.3316      36.386    384.1742185           2          
MisPlume(west)    GOM_UW_1704    2017-04-07T18:19:15Z    -90.165    28.033    23.3176      36.387    382.7058241           2          
MisPlume(west)    GOM_UW_1704    2017-04-07T18:20:43Z    -90.1618   28.0307   23.2705      36.384    388.4302407           2          
MisPlume(west)    GOM_UW_1704    2017-04-07T18:22:15Z    -90.1585   28.0283   23.3204      36.385    386.4241837           2          
MisPlume(west)    GOM_UW_1704    2017-04-07T18:23:46Z    -90.1552   28.026    23.3236      36.386    384.5662501           2          
MisPlume(west)    GOM_UW_1704    2017-04-07T18:25:16Z    -90.1519   28.0236   23.3422      36.387    384.13302             2          
MisPlume(west)    GOM_UW_1704    2017-04-07T18:26:45Z    -90.1487   28.0214   23.3656      36.389    383.0113524           2          
MisPlume(west)    GOM_UW_1704    2017-04-07T18:28:14Z    -90.1455   28.0191   23.3849      36.39     383.2407667           2          
MisPlume(west)    GOM_UW_1704    2017-04-07T18:29:44Z    -90.1423   28.0168   23.4271      36.393    383.421303            2          
MisPlume(west)    GOM_UW_1704    2017-04-07T18:31:12Z    -90.1392   28.0145   23.469       36.393    384.4947675           2          
MisPlume(west)    GOM_UW_1704    2017-04-07T18:32:41Z    -90.136    28.0122   23.5001      36.393    389.0756076           2          
MisPlume(west)    GOM_UW_1704    2017-04-07T18:34:09Z    -90.1329   28.0099   23.509       36.392    387.7215866           2          
MisPlume(west)    GOM_UW_1704    2017-04-07T18:35:39Z    -90.1296   28.0076   23.5027      36.393    389.6190903           2          
MisPlume(west)    GOM_UW_1704    2017-04-07T18:37:07Z    -90.1264   28.0054   23.5021      36.396    385.6170727           2          
MisPlume(west)    GOM_UW_1704    2017-04-07T18:38:36Z    -90.1232   28.0031   23.5006      36.397    388.7781486           2          
MisPlume(west)    GOM_UW_1704    2017-04-07T18:40:06Z    -90.12     28.0008   23.5008      36.393    386.6816201           2          
MisPlume(west)    GOM_UW_1704    2017-04-07T18:41:35Z    -90.1169   27.9985   23.5119      36.331    387.8619936           2          
MisPlume(west)    GOM_UW_1704    2017-04-07T18:43:04Z    -90.1137   27.9962   23.5206      36.392    388.9041854           2          
MisPlume(west)    GOM_UW_1704    2017-04-07T18:44:32Z    -90.1105   27.994    23.5272      36.392    388.9205196           2          
MisPlume(west)    GOM_UW_1704    2017-04-07T18:46:01Z    -90.1073   27.9917   23.5358      36.389    392.251681            2          
MisPlume(west)    GOM_UW_1704    2017-04-07T18:47:31Z    -90.1041   27.9894   23.5466      36.389    392.2515385           2          
MisPlume(west)    GOM_UW_1704    2017-04-07T18:48:58Z    -90.1009   27.9872   23.5599      36.361    387.4976858           2          
MisPlume(west)    GOM_UW_1704    2017-04-07T18:50:27Z    -90.0977   27.9848   23.5712      36.389    393.147032            2          
MisPlume(west)    GOM_UW_1704    2017-04-07T18:51:56Z    -90.0945   27.9825   23.581       36.387    391.4919244           2          
MisPlume(west)    GOM_UW_1704    2017-04-07T18:53:25Z    -90.0913   27.9802   23.6033      36.387    393.0464974           2          
MisPlume(west)    GOM_UW_1704    2017-04-07T18:54:54Z    -90.0881   27.978    23.628       36.385    390.5062208           2          
MisPlume(west)    GOM_UW_1704    2017-04-07T18:56:21Z    -90.0849   27.9757   23.6371      36.385    395.6416623           2          
MisPlume(west)    GOM_UW_1704    2017-04-07T18:57:53Z    -90.0816   27.9734   23.6553      36.384    396.307443            2          
MisPlume(west)    GOM_UW_1704    2017-04-07T18:59:21Z    -90.0785   27.9711   23.6798      36.383    395.3800375           2          
MisPlume(west)    GOM_UW_1704    2017-04-07T19:00:49Z    -90.0753   27.9688   23.6942      36.383    396.3337035           2          
MisPlume(west)    GOM_UW_1704    2017-04-07T19:02:18Z    -90.0721   27.9665   23.6984      36.38     395.6514549           2          
MisPlume(west)    GOM_UW_1704    2017-04-07T19:03:46Z    -90.069    27.9642   23.7029      36.379    398.5271146           2          
MisPlume(west)    GOM_UW_1704    2017-04-07T19:05:14Z    -90.0658   27.962    23.704       36.379    396.0567832           2          
MisPlume(west)    GOM_UW_1704    2017-04-07T19:06:43Z    -90.0626   27.9597   23.7053      36.379    391.8983756           2          
MisPlume(west)    GOM_UW_1704    2017-04-07T19:08:10Z    -90.0594   27.9574   23.7068      36.379    393.9365348           2          
MisPlume(west)    GOM_UW_1704    2017-04-07T19:09:40Z    -90.0561   27.9551   23.7103      36.378    393.5968974           2          
MisPlume(west)    GOM_UW_1704    2017-04-07T19:11:08Z    -90.0529   27.9528   23.7114      36.377    402.6221463           2          
MisPlume(west)    GOM_UW_1704    2017-04-07T19:12:36Z    -90.0497   27.9505   23.713       36.375    402.5136434           2          
MisPlume(west)    GOM_UW_1704    2017-04-07T19:14:04Z    -90.0465   27.9482   23.7187      36.374    398.5262741           2          
MisPlume(west)    GOM_UW_1704    2017-04-07T19:15:36Z    -90.0431   27.9458   23.7181      36.373    395.1499119           2          
MisPlume(west)    GOM_UW_1704    2017-04-07T19:17:06Z    -90.0399   27.9435   23.7281      36.371    400.4246136           2          
MisPlume(west)    GOM_UW_1704    2017-04-07T19:18:35Z    -90.0367   27.9412   23.7271      36.369    400.8662259           2          
MisPlume(west)    GOM_UW_1704    2017-04-07T19:20:04Z    -90.0334   27.9389   23.7414      36.368    394.7075357           2          
MisPlume(west)    GOM_UW_1704    2017-04-07T19:21:34Z    -90.0302   27.9365   23.7411      36.37     396.3948625           2          
MisPlume(west)    GOM_UW_1704    2017-04-07T19:23:04Z    -90.0269   27.9341   23.7407      36.369    402.0118314           2          
MisPlume(west)    GOM_UW_1704    2017-04-07T19:24:35Z    -90.0236   27.9318   23.7463      36.368    399.8090294           2          
MisPlume(west)    GOM_UW_1704    2017-04-07T19:26:03Z    -90.0204   27.9295   23.7468      36.371    398.1770052           2          
MisPlume(west)    GOM_UW_1704    2017-04-07T19:27:31Z    -90.0172   27.9272   23.7541      36.371    395.7915173           2          
MisPlume(west)    GOM_UW_1704    2017-04-07T19:28:58Z    -90.014    27.9249   23.7417      36.369    392.539828            2          
MisPlume(west)    GOM_UW_1704    2017-04-07T19:30:26Z    -90.0109   27.9226   23.7303      36.364    390.5739065           2          
MisPlume(west)    GOM_UW_1704    2017-04-07T19:31:56Z    -90.0076   27.9203   23.7348      36.366    396.4898835           2          
MisPlume(west)    GOM_UW_1704    2017-04-07T19:33:27Z    -90.0043   27.9179   23.7407      36.363    394.5649019           2          
MisPlume(west)    GOM_UW_1704    2017-04-07T20:12:32Z    -89.9983   27.916    23.7643      36.353    390.0444294           2          
MisPlume(west)    GOM_UW_1704    2017-04-07T20:14:00Z    -89.9981   27.916    23.7625      36.352    389.7810806           2          
MisPlume(west)    GOM_UW_1704    2017-04-07T20:15:32Z    -89.9979   27.9159   23.765       36.351    387.3994004           2          
MisPlume(west)    GOM_UW_1704    2017-04-07T20:17:01Z    -89.9978   27.9158   23.7761      36.353    386.8958095           2          
MisPlume(west)    GOM_UW_1704    2017-04-07T20:18:32Z    -89.9975   27.9158   23.7718      36.352    388.3376418           2          
MisPlume(west)    GOM_UW_1704    2017-04-07T20:20:01Z    -89.9973   27.9158   23.772       36.352    387.8773374           2          
MisPlume(west)    GOM_UW_1704    2017-04-07T20:21:32Z    -89.997    27.9157   23.7709      36.35     385.3242543           2          
MisPlume(west)    GOM_UW_1704    2017-04-07T20:23:00Z    -89.9968   27.9157   23.765       36.35     382.2135823           2          
MisPlume(west)    GOM_UW_1704    2017-04-07T20:24:31Z    -89.9972   27.9156   23.7682      36.349    381.9198186           2          
MisPlume(west)    GOM_UW_1704    2017-04-07T20:26:01Z    -89.9974   27.9182   23.7685      36.348    380.8742171           2          
MisPlume(west)    GOM_UW_1704    2017-04-07T20:27:29Z    -89.9975   27.9219   23.7652      36.347    385.2131656           2          
MisPlume(west)    GOM_UW_1704    2017-04-07T20:28:57Z    -89.9975   27.9257   23.7641      36.347    384.3501314           2          
MisPlume(west)    GOM_UW_1704    2017-04-07T20:30:26Z    -89.9976   27.9295   23.77        36.349    385.481921            2          
MisPlume(west)    GOM_UW_1704    2017-04-07T20:31:53Z    -89.9977   27.9333   23.7672      36.353    388.6919386           2          
MisPlume(west)    GOM_UW_1704    2017-04-07T20:33:25Z    -89.9978   27.9372   23.7693      36.355    385.9224783           2          
MisPlume(west)    GOM_UW_1704    2017-04-07T20:34:55Z    -89.9979   27.9411   23.7744      36.356    387.6876259           2          
MisPlume(west)    GOM_UW_1704    2017-04-07T20:36:25Z    -89.9979   27.9449   23.7684      36.356    387.696573            2          
MisPlume(west)    GOM_UW_1704    2017-04-07T20:37:53Z    -89.998    27.9487   23.7715      36.358    388.6077861           2          
MisPlume(west)    GOM_UW_1704    2017-04-07T20:39:24Z    -89.998    27.9526   23.784       36.374    391.4268804           2          
MisPlume(west)    GOM_UW_1704    2017-04-07T20:40:53Z    -89.9982   27.9564   23.7818      36.373    390.4342719           2          
MisPlume(west)    GOM_UW_1704    2017-04-07T20:42:22Z    -89.9982   27.9602   23.782       36.371    392.8893766           2          
MisPlume(west)    GOM_UW_1704    2017-04-07T20:43:52Z    -89.9982   27.964    23.7874      36.371    389.582922            2          
MisPlume(west)    GOM_UW_1704    2017-04-07T20:45:20Z    -89.9984   27.9678   23.7728      36.37     388.7204191           2          
MisPlume(west)    GOM_UW_1704    2017-04-07T20:46:48Z    -89.9984   27.9715   23.772       36.369    388.4942114           2          
MisPlume(west)    GOM_UW_1704    2017-04-07T20:48:17Z    -89.9985   27.9754   23.7705      36.369    389.5983624           2          
MisPlume(west)    GOM_UW_1704    2017-04-07T20:49:45Z    -89.9985   27.9791   23.7565      36.368    388.1621297           2          
MisPlume(west)    GOM_UW_1704    2017-04-07T20:51:14Z    -89.9986   27.983    23.7451      36.367    386.0436169           2          
MisPlume(west)    GOM_UW_1704    2017-04-07T20:52:42Z    -89.9988   27.9867   23.7392      36.367    389.9269208           2          
MisPlume(west)    GOM_UW_1704    2017-04-07T20:54:10Z    -89.9988   27.9905   23.7421      36.37     386.905813            2          
MisPlume(west)    GOM_UW_1704    2017-04-07T20:55:37Z    -89.9989   27.9943   23.7335      36.374    390.8098346           2          
MisPlume(west)    GOM_UW_1704    2017-04-07T20:57:07Z    -89.999    27.9981   23.7298      36.377    389.959623            2          
MisPlume(west)    GOM_UW_1704    2017-04-07T20:58:36Z    -89.9992   28.002    23.7262      36.374    391.3777613           2          
MisPlume(west)    GOM_UW_1704    2017-04-07T21:00:07Z    -89.9992   28.0059   23.7268      36.386    398.2290581           2          
MisPlume(west)    GOM_UW_1704    2017-04-07T21:01:36Z    -89.9993   28.0098   23.722       36.385    404.0569947           2          
MisPlume(west)    GOM_UW_1704    2017-04-07T21:03:06Z    -89.9994   28.0137   23.7177      36.386    397.9252734           2          
MisPlume(west)    GOM_UW_1704    2017-04-07T21:04:35Z    -89.9994   28.0175   23.7086      36.386    401.621888            2          
MisPlume(west)    GOM_UW_1704    2017-04-07T21:06:03Z    -89.9995   28.0213   23.7021      36.387    402.5735362           2          
MisPlume(west)    GOM_UW_1704    2017-04-07T21:07:31Z    -89.9996   28.0252   23.7036      36.388    400.3707708           2          
MisPlume(west)    GOM_UW_1704    2017-04-07T21:08:59Z    -89.9996   28.029    23.7004      36.388    399.2166516           2          
MisPlume(west)    GOM_UW_1704    2017-04-07T21:10:27Z    -89.9997   28.0328   23.6977      36.388    406.1649846           2          
MisPlume(west)    GOM_UW_1704    2017-04-07T21:24:42Z    -90.0004   28.0701   23.6205      36.386    395.4127965           2          
MisPlume(west)    GOM_UW_1704    2017-04-07T21:26:14Z    -90.0005   28.0741   23.618       36.387    395.4919811           2          
MisPlume(west)    GOM_UW_1704    2017-04-07T21:27:44Z    -90.0005   28.0781   23.6104      36.386    394.7116786           2          
MisPlume(west)    GOM_UW_1704    2017-04-07T21:29:16Z    -90.0006   28.0822   23.6174      36.387    393.6547423           2          
MisPlume(west)    GOM_UW_1704    2017-04-07T21:30:44Z    -90.0007   28.086    23.6167      36.389    395.7559962           2          
MisPlume(west)    GOM_UW_1704    2017-04-07T21:32:15Z    -90.0008   28.09     23.5874      36.394    395.8746434           2          
MisPlume(west)    GOM_UW_1704    2017-04-07T21:33:44Z    -90.0009   28.094    23.5677      36.395    392.856725            2          
MisPlume(west)    GOM_UW_1704    2017-04-07T21:35:12Z    -90.0009   28.0979   23.5671      36.4      394.4603169           2          
MisPlume(west)    GOM_UW_1704    2017-04-07T21:36:40Z    -90.001    28.1017   23.5038      36.398    392.8679486           2          
MisPlume(west)    GOM_UW_1704    2017-04-07T21:38:08Z    -90.0011   28.1056   23.4846      36.396    395.8593854           2          
MisPlume(west)    GOM_UW_1704    2017-04-07T21:39:36Z    -90.0012   28.1095   23.4677      36.396    389.2122661           2          
MisPlume(west)    GOM_UW_1704    2017-04-07T21:41:06Z    -90.0013   28.1134   23.4394      36.394    390.9800717           2          
MisPlume(west)    GOM_UW_1704    2017-04-07T21:42:34Z    -90.0013   28.1172   23.4125      36.392    387.8084958           2          
MisPlume(west)    GOM_UW_1704    2017-04-07T21:44:05Z    -90.0014   28.1212   23.3946      36.39     390.1927492           2          
MisPlume(west)    GOM_UW_1704    2017-04-07T21:45:33Z    -90.0014   28.1251   23.386       36.39     394.8660025           2          
MisPlume(west)    GOM_UW_1704    2017-04-07T21:47:01Z    -90.0016   28.1289   23.3747      36.39     392.3926812           2          
MisPlume(west)    GOM_UW_1704    2017-04-07T21:48:32Z    -90.0016   28.1329   23.3577      36.389    389.4766339           2          
MisPlume(west)    GOM_UW_1704    2017-04-07T21:50:03Z    -90.0017   28.137    23.3466      36.389    392.7871076           2          
MisPlume(west)    GOM_UW_1704    2017-04-07T21:51:31Z    -90.0018   28.1408   23.328       36.388    394.4843534           2          
MisPlume(west)    GOM_UW_1704    2017-04-07T21:53:00Z    -90.0019   28.1447   23.3141      36.387    398.5861306           2          
MisPlume(west)    GOM_UW_1704    2017-04-07T21:54:31Z    -90.002    28.1487   23.3044      36.391    397.3314336           2          
MisPlume(west)    GOM_UW_1704    2017-04-07T21:56:01Z    -90.002    28.1526   23.2872      36.388    398.3019433           2          
MisPlume(west)    GOM_UW_1704    2017-04-07T21:57:30Z    -90.0022   28.1565   23.2504      36.383    389.9702515           2          
MisPlume(west)    GOM_UW_1704    2017-04-07T21:58:58Z    -90.0022   28.1604   23.2324      36.379    390.6279761           2          
MisPlume(west)    GOM_UW_1704    2017-04-07T22:00:25Z    -90.0022   28.1642   23.228       36.379    393.9977482           2          
MisPlume(west)    GOM_UW_1704    2017-04-07T22:01:55Z    -90.0023   28.1681   23.2046      36.373    392.4607624           2          
MisPlume(west)    GOM_UW_1704    2017-04-07T22:03:23Z    -90.0024   28.1719   23.1908      36.369    389.84457             2          
MisPlume(west)    GOM_UW_1704    2017-04-07T22:04:52Z    -90.0025   28.1758   23.1804      36.366    392.1797844           2          
MisPlume(west)    GOM_UW_1704    2017-04-07T22:06:21Z    -90.0026   28.1797   23.1761      36.363    399.5302951           2          
MisPlume(west)    GOM_UW_1704    2017-04-07T22:07:49Z    -90.0026   28.1835   23.174       36.359    390.2256598           2          
MisPlume(west)    GOM_UW_1704    2017-04-07T22:09:19Z    -90.0027   28.1874   23.1692      36.353    388.1076609           2          
MisPlume(west)    GOM_UW_1704    2017-04-07T22:10:51Z    -90.0028   28.1915   23.1473      36.349    389.5019471           2          
MisPlume(west)    GOM_UW_1704    2017-04-07T22:12:20Z    -90.0029   28.1954   23.1608      36.349    383.8755117           2          
MisPlume(west)    GOM_UW_1704    2017-04-07T22:13:48Z    -90.0029   28.1992   23.1506      36.345    383.0466748           2          
MisPlume(west)    GOM_UW_1704    2017-04-07T22:15:16Z    -90.003    28.2031   23.156       36.344    382.3455197           2          
MisPlume(west)    GOM_UW_1704    2017-04-07T22:16:44Z    -90.0031   28.2069   23.1516      36.343    384.4842403           2          
MisPlume(west)    GOM_UW_1704    2017-04-07T22:18:13Z    -90.0032   28.2108   23.1436      36.34     379.0467499           2          
MisPlume(west)    GOM_UW_1704    2017-04-07T22:19:41Z    -90.0033   28.2146   23.1529      36.339    381.2577438           2          
MisPlume(west)    GOM_UW_1704    2017-04-07T22:21:09Z    -90.0034   28.2185   23.1613      36.338    381.3488162           2          
MisPlume(west)    GOM_UW_1704    2017-04-07T22:22:37Z    -90.0034   28.2223   23.1589      36.336    382.8616666           2          
MisPlume(west)    GOM_UW_1704    2017-04-07T22:24:05Z    -90.0029   28.2261   23.1654      36.337    383.0018808           2          
MisPlume(west)    GOM_UW_1704    2017-04-07T22:25:34Z    -90.0023   28.2301   23.163       36.336    380.299831            2          
MisPlume(west)    GOM_UW_1704    2017-04-07T22:27:02Z    -90.0018   28.2339   23.1683      36.335    380.2393609           2          
MisPlume(west)    GOM_UW_1704    2017-04-07T22:28:30Z    -90.0013   28.2378   23.1771      36.335    380.964986            2          
MisPlume(west)    GOM_UW_1704    2017-04-07T22:29:59Z    -90.0007   28.2417   23.1746      36.337    380.4836717           2          
MisPlume(west)    GOM_UW_1704    2017-04-07T22:31:29Z    -90.0002   28.2457   23.1924      36.338    379.6050341           2          
MisPlume(west)    GOM_UW_1704    2017-04-07T22:32:57Z    -89.9996   28.2492   23.1968      36.335    379.4839512           2          
MisPlume(west)    GOM_UW_1704    2017-04-07T22:34:26Z    -90        28.2506   23.1946      36.335    380.1823844           2          
MisPlume(west)    GOM_UW_1704    2017-04-07T22:35:55Z    -90.0002   28.2506   23.1951      36.334    379.9450217           2          
MisPlume(west)    GOM_UW_1704    2017-04-07T22:37:25Z    -90.0002   28.2506   23.1995      36.335    379.9521153           2          
MisPlume(west)    GOM_UW_1704    2017-04-07T22:38:53Z    -90.0001   28.2505   23.2058      36.334    379.0836321           2          
MisPlume(west)    GOM_UW_1704    2017-04-07T22:40:22Z    -90        28.2505   23.2081      36.318    378.1863296           2          
MisPlume(west)    GOM_UW_1704    2017-04-07T22:41:53Z    -89.9996   28.2505   23.2286      36.334    380.1275515           2          
MisPlume(west)    GOM_UW_1704    2017-04-07T22:43:21Z    -89.9991   28.2504   23.2167      36.335    378.7722742           2          
MisPlume(west)    GOM_UW_1704    2017-04-07T22:44:49Z    -89.9988   28.2504   23.1985      36.335    379.6814486           2          
MisPlume(west)    GOM_UW_1704    2017-04-07T22:46:18Z    -89.9983   28.2504   23.1964      36.335    379.4048326           2          
MisPlume(west)    GOM_UW_1704    2017-04-07T22:47:46Z    -89.9978   28.2504   23.1991      36.334    379.8088256           2          
MisPlume(west)    GOM_UW_1704    2017-04-07T22:49:13Z    -89.9974   28.2504   23.1959      36.333    378.8838887           2          
MisPlume(west)    GOM_UW_1704    2017-04-07T22:50:43Z    -89.9969   28.2503   23.1927      36.333    378.2907054           2          
MisPlume(west)    GOM_UW_1704    2017-04-07T22:52:14Z    -89.9964   28.2504   23.1919      36.333    377.1742423           2          
MisPlume(west)    GOM_UW_1704    2017-04-07T22:53:44Z    -89.996    28.2504   23.1923      36.338    378.9234055           2          
MisPlume(west)    GOM_UW_1704    2017-04-07T22:55:13Z    -89.9956   28.2504   23.1882      36.338    378.3686513           2          
MisPlume(west)    GOM_UW_1704    2017-04-07T22:56:42Z    -89.9951   28.2504   23.184       36.338    377.9910149           2          
MisPlume(west)    GOM_UW_1704    2017-04-07T22:58:10Z    -89.9947   28.2503   23.1814      36.336    378.0122727           2          
MisPlume(west)    GOM_UW_1704    2017-04-07T22:59:38Z    -89.9943   28.2503   23.1822      36.336    378.1677914           2          
MisPlume(west)    GOM_UW_1704    2017-04-07T23:01:07Z    -89.9939   28.2503   23.1918      36.336    378.4056572           2          
MisPlume(west)    GOM_UW_1704    2017-04-07T23:02:36Z    -89.9935   28.2503   23.1829      36.342    377.7481696           2          
MisPlume(west)    GOM_UW_1704    2017-04-07T23:04:04Z    -89.993    28.2502   23.1759      36.342    377.8026069           2          
MisPlume(west)    GOM_UW_1704    2017-04-07T23:05:33Z    -89.9925   28.2502   23.1828      36.342    377.8263506           2          
MisPlume(west)    GOM_UW_1704    2017-04-07T23:07:02Z    -89.992    28.2502   23.1862      36.342    376.0750658           2          
MisPlume(west)    GOM_UW_1704    2017-04-07T23:08:33Z    -89.9924   28.25     23.1826      36.342    375.6568315           2          
MisPlume(west)    GOM_UW_1704    2017-04-07T23:10:01Z    -89.9929   28.2521   23.1808      36.342    378.1465595           2          
MisPlume(west)    GOM_UW_1704    2017-04-07T23:11:31Z    -89.9931   28.2558   23.1902      36.341    379.805558            2          
MisPlume(west)    GOM_UW_1704    2017-04-07T23:13:00Z    -89.9932   28.2596   23.191       36.338    379.6703572           2          
MisPlume(west)    GOM_UW_1704    2017-04-07T23:14:29Z    -89.9934   28.2635   23.154       36.318    379.6955266           2          
MisPlume(west)    GOM_UW_1704    2017-04-07T23:15:57Z    -89.9935   28.2673   23.1171      36.296    381.9611151           2          
MisPlume(west)    GOM_UW_1704    2017-04-07T23:17:27Z    -89.9936   28.2711   23.0949      36.281    383.347484            2          
MisPlume(west)    GOM_UW_1704    2017-04-07T23:18:57Z    -89.9938   28.2749   23.0816      36.276    380.9304266           2          
MisPlume(west)    GOM_UW_1704    2017-04-07T23:20:25Z    -89.994    28.2787   23.0855      36.267    381.3787965           2          
MisPlume(west)    GOM_UW_1704    2017-04-07T23:21:53Z    -89.9941   28.2824   23.0816      36.257    381.8061814           2          
MisPlume(west)    GOM_UW_1704    2017-04-07T23:23:21Z    -89.9943   28.2862   23.0655      36.249    383.0156171           2          
MisPlume(west)    GOM_UW_1704    2017-04-07T23:24:52Z    -89.9944   28.29     23.0473      36.241    381.8377535           2          
MisPlume(west)    GOM_UW_1704    2017-04-07T23:26:20Z    -89.9945   28.2938   23.0431      36.236    381.7838614           2          
MisPlume(west)    GOM_UW_1704    2017-04-07T23:27:49Z    -89.9947   28.2976   23.0237      36.23     383.254346            2          
MisPlume(west)    GOM_UW_1704    2017-04-07T23:29:20Z    -89.9949   28.3015   23.0224      36.224    381.6690421           2          
MisPlume(west)    GOM_UW_1704    2017-04-07T23:30:49Z    -89.9951   28.3053   23.0433      36.225    382.7715768           2          
MisPlume(west)    GOM_UW_1704    2017-04-07T23:32:18Z    -89.9952   28.3091   23.069       36.217    380.2613597           2          
MisPlume(west)    GOM_UW_1704    2017-04-07T23:33:46Z    -89.9953   28.3129   23.063       36.201    378.984082            2          
MisPlume(west)    GOM_UW_1704    2017-04-07T23:35:15Z    -89.9955   28.3167   23.0348      36.176    379.3215654           2          
MisPlume(west)    GOM_UW_1704    2017-04-07T23:36:42Z    -89.9956   28.3203   23.0237      36.154    377.7644857           2          
MisPlume(west)    GOM_UW_1704    2017-04-07T23:38:10Z    -89.9957   28.3241   23.0073      36.139    378.0603308           2          
MisPlume(west)    GOM_UW_1704    2017-04-07T23:39:39Z    -89.9959   28.3278   22.9736      36.131    377.5539589           2          
MisPlume(west)    GOM_UW_1704    2017-04-07T23:41:08Z    -89.9961   28.3316   22.9373      36.122    377.640395            2          
MisPlume(west)    GOM_UW_1704    2017-04-07T23:42:37Z    -89.9962   28.3355   22.9167      36.113    375.9967094           2          
MisPlume(west)    GOM_UW_1704    2017-04-07T23:44:06Z    -89.9963   28.3392   22.8909      36.101    375.2490028           2          
MisPlume(west)    GOM_UW_1704    2017-04-07T23:45:35Z    -89.9965   28.343    22.8723      36.089    375.2194067           2          
MisPlume(west)    GOM_UW_1704    2017-04-07T23:47:03Z    -89.9966   28.3468   22.8805      36.089    375.3062081           2          
MisPlume(west)    GOM_UW_1704    2017-04-07T23:48:31Z    -89.9968   28.3506   22.8772      36.086    375.382565            2          
MisPlume(west)    GOM_UW_1704    2017-04-07T23:49:59Z    -89.997    28.3544   22.8598      36.09     375.3906494           2          
MisPlume(west)    GOM_UW_1704    2017-04-07T23:51:30Z    -89.9971   28.3583   22.838       36.093    372.4882428           2          
MisPlume(west)    GOM_UW_1704    2017-04-07T23:52:58Z    -89.9971   28.3621   22.8174      36.098    372.7785091           2          
MisPlume(west)    GOM_UW_1704    2017-04-07T23:54:27Z    -89.9972   28.3659   22.8396      36.111    375.2700298           2          
MisPlume(west)    GOM_UW_1704    2017-04-07T23:55:58Z    -89.9972   28.3697   22.8376      36.107    376.6566712           2          
MisPlume(west)    GOM_UW_1704    2017-04-07T23:57:26Z    -89.9973   28.3735   22.8132      36.121    376.0399387           2          
MisPlume(west)    GOM_UW_1704    2017-04-07T23:58:54Z    -89.9974   28.3772   22.7875      36.123    374.940191            2          
MisPlume(west)    GOM_UW_1704    2017-04-08T00:00:23Z    -89.9975   28.3809   22.8039      36.141    374.2628988           2          
MisPlume(west)    GOM_UW_1704    2017-04-08T00:01:52Z    -89.9975   28.3846   22.8791      36.159    375.9742318           2          
MisPlume(west)    GOM_UW_1704    2017-04-08T00:03:23Z    -89.9976   28.3884   22.9556      36.153    373.583575            2          
MisPlume(west)    GOM_UW_1704    2017-04-08T00:04:54Z    -89.9976   28.3921   22.9788      36.143    373.8562312           2          
MisPlume(west)    GOM_UW_1704    2017-04-08T00:06:23Z    -89.9977   28.3958   22.9869      36.137    372.4361739           2          
MisPlume(west)    GOM_UW_1704    2017-04-08T00:07:52Z    -89.9978   28.3995   22.964       36.133    372.0050162           2          
MisPlume(west)    GOM_UW_1704    2017-04-08T00:09:21Z    -89.9979   28.4031   22.9462      36.13     372.6487696           2          
MisPlume(west)    GOM_UW_1704    2017-04-08T00:10:52Z    -89.998    28.4069   22.9337      36.127    370.7165465           2          
MisPlume(west)    GOM_UW_1704    2017-04-08T00:12:23Z    -89.9981   28.4107   22.9559      36.127    371.8959472           2          
MisPlume(west)    GOM_UW_1704    2017-04-08T00:13:53Z    -89.9981   28.4144   22.9573      36.126    373.097627            2          
MisPlume(west)    GOM_UW_1704    2017-04-08T00:15:24Z    -89.9982   28.4182   22.9306      36.122    374.2319933           2          
MisPlume(west)    GOM_UW_1704    2017-04-08T00:16:53Z    -89.9983   28.4218   22.9488      36.115    376.0046624           2          
MisPlume(west)    GOM_UW_1704    2017-04-08T00:18:22Z    -89.9984   28.4256   22.9346      36.104    374.063694            2          
MisPlume(west)    GOM_UW_1704    2017-04-08T00:19:51Z    -89.9984   28.4292   22.9162      36.089    376.0210351           2          
MisPlume(west)    GOM_UW_1704    2017-04-08T00:21:19Z    -89.9985   28.4329   22.8896      36.073    375.3716801           2          
MisPlume(west)    GOM_UW_1704    2017-04-08T00:33:55Z    -89.9991   28.464    22.7169      35.193    329.9328189           2          
MisPlume(west)    GOM_UW_1704    2017-04-08T00:35:23Z    -89.9992   28.4676   22.6839      35.154    327.5372709           2          
MisPlume(west)    GOM_UW_1704    2017-04-08T00:36:53Z    -89.9992   28.4713   22.6628      35.12     327.4077475           2          
MisPlume(west)    GOM_UW_1704    2017-04-08T00:38:24Z    -89.9993   28.4751   22.6544      35.078    326.4567574           2          
MisPlume(west)    GOM_UW_1704    2017-04-08T00:39:53Z    -89.9994   28.4788   22.6375      35.058    327.0430594           2          
MisPlume(west)    GOM_UW_1704    2017-04-08T00:41:21Z    -89.9994   28.4825   22.5482      34.929    327.3650225           2          
MisPlume(west)    GOM_UW_1704    2017-04-08T00:42:50Z    -89.9995   28.4862   22.5475      34.802    325.3367838           2          
MisPlume(west)    GOM_UW_1704    2017-04-08T00:44:18Z    -89.9996   28.4899   22.4899      34.717    326.7483375           2          
MisPlume(west)    GOM_UW_1704    2017-04-08T00:45:45Z    -89.9997   28.4935   22.4512      34.415    323.9413853           2          
MisPlume(west)    GOM_UW_1704    2017-04-08T00:47:14Z    -89.9998   28.4972   22.5562      34.362    324.2767187           2          
MisPlume(west)    GOM_UW_1704    2017-04-08T00:48:42Z    -89.9998   28.5008   22.586       34.239    324.5869167           2          
MisPlume(west)    GOM_UW_1704    2017-04-08T00:50:12Z    -89.9999   28.5045   22.5123      34.099    321.4911074           2          
MisPlume(west)    GOM_UW_1704    2017-04-08T00:51:39Z    -89.9999   28.5081   22.4662      33.584    328.6030348           2          
MisPlume(west)    GOM_UW_1704    2017-04-08T00:53:08Z    -90        28.5116   22.4301      33.526    331.0913716           2          
MisPlume(west)    GOM_UW_1704    2017-04-08T00:54:36Z    -90.0012   28.5117   22.4982      33.634    327.8702591           2          
MisPlume(west)    GOM_UW_1704    2017-04-08T00:56:06Z    -90.0009   28.5082   22.4369      33.504    322.7357725           2          
MisPlume(west)    GOM_UW_1704    2017-04-08T00:57:35Z    -90.0004   28.5044   22.4595      33.686    329.5276858           2          
MisPlume(west)    GOM_UW_1704    2017-04-08T00:59:06Z    -90.0001   28.5023   22.3384      33.674    326.8624359           2          
MisPlume(west)    GOM_UW_1704    2017-04-08T01:00:36Z    -89.9999   28.502    22.6763      35.015    323.9179361           2          
MisPlume(west)    GOM_UW_1704    2017-04-08T01:02:08Z    -89.9997   28.5018   22.701       35.172    327.4930669           2          
MisPlume(west)    GOM_UW_1704    2017-04-08T01:03:38Z    -89.9996   28.5016   22.6114      34.537    320.6287227           2          
MisPlume(west)    GOM_UW_1704    2017-04-08T01:05:08Z    -89.9996   28.5014   22.4267      34.023    321.2632114           2          
MisPlume(west)    GOM_UW_1704    2017-04-08T01:06:36Z    -89.9994   28.5012   22.4831      34.262    324.0395881           2          
MisPlume(west)    GOM_UW_1704    2017-04-08T01:08:05Z    -89.9994   28.5011   22.5165      34.359    319.1573571           2          
MisPlume(west)    GOM_UW_1704    2017-04-08T01:09:34Z    -89.9993   28.501    22.5308      34.38     319.3464318           2          
MisPlume(west)    GOM_UW_1704    2017-04-08T01:11:02Z    -89.9992   28.5009   22.6444      34.761    318.2346289           2          
MisPlume(west)    GOM_UW_1704    2017-04-08T01:12:30Z    -89.9992   28.5008   22.6549      35.044    321.9283654           2          
MisPlume(west)    GOM_UW_1704    2017-04-08T01:13:59Z    -89.999    28.5007   22.6641      35.12     324.5098251           2          
MisPlume(west)    GOM_UW_1704    2017-04-08T01:15:30Z    -89.9988   28.5005   22.6584      35.102    325.3707107           2          
MisPlume(west)    GOM_UW_1704    2017-04-08T01:16:57Z    -89.9986   28.5004   22.6016      34.825    331.6070243           2          
MisPlume(west)    GOM_UW_1704    2017-04-08T01:18:27Z    -89.9985   28.5003   22.5606      34.714    329.9411016           2          
MisPlume(west)    GOM_UW_1704    2017-04-08T01:19:56Z    -89.9983   28.5002   22.6631      35.311    327.372925            2          
MisPlume(west)    GOM_UW_1704    2017-04-08T01:21:25Z    -89.9983   28.4998   22.691       35.408    336.8742604           2          
MisPlume(west)    GOM_UW_1704    2017-04-08T01:22:53Z    -89.9987   28.5008   22.6042      34.78     326.8450936           2          
MisPlume(west)    GOM_UW_1704    2017-04-08T01:24:23Z    -89.998    28.5041   22.4758      34.168    325.0294469           2          
MisPlume(west)    GOM_UW_1704    2017-04-08T01:25:54Z    -89.9971   28.5078   22.4938      33.998    325.8388327           2          
MisPlume(west)    GOM_UW_1704    2017-04-08T01:27:24Z    -89.9963   28.5115   22.3807      33.766    326.7466392           2          
MisPlume(west)    GOM_UW_1704    2017-04-08T01:28:54Z    -89.9955   28.5151   22.3235      33.566    330.7211101           2          
MisPlume(west)    GOM_UW_1704    2017-04-08T01:30:22Z    -89.9947   28.5187   22.3106      33.38     332.1430362           2          
MisPlume(west)    GOM_UW_1704    2017-04-08T01:31:50Z    -89.9938   28.5223   22.3168      33.303    333.7829607           2          
MisPlume(west)    GOM_UW_1704    2017-04-08T01:33:19Z    -89.993    28.5259   22.3123      33.093    336.3728768           2          
MisPlume(west)    GOM_UW_1704    2017-04-08T01:34:48Z    -89.9921   28.5295   22.2619      32.94     338.4115043           2          
MisPlume(west)    GOM_UW_1704    2017-04-08T01:36:16Z    -89.9911   28.533    22.3588      32.881    342.530021            2          
MisPlume(west)    GOM_UW_1704    2017-04-08T01:37:44Z    -89.9902   28.5365   22.2904      32.801    342.5589809           2          
MisPlume(west)    GOM_UW_1704    2017-04-08T01:39:13Z    -89.9893   28.5402   22.2555      32.601    341.0519324           2          
MisPlume(west)    GOM_UW_1704    2017-04-08T01:40:44Z    -89.9883   28.5438   22.3235      32.294    343.9181257           2          
MisPlume(west)    GOM_UW_1704    2017-04-08T01:42:15Z    -89.9873   28.5475   22.2536      31.772    350.0056034           2          
MisPlume(west)    GOM_UW_1704    2017-04-08T01:43:43Z    -89.9863   28.551    22.2571      31.517    350.5772184           2          
MisPlume(west)    GOM_UW_1704    2017-04-08T01:45:14Z    -89.9854   28.5547   22.0948      30.781    351.8525855           2          
MisPlume(west)    GOM_UW_1704    2017-04-08T01:46:44Z    -89.9845   28.5583   22.0804      30.354    352.7148052           2          
MisPlume(west)    GOM_UW_1704    2017-04-08T01:48:12Z    -89.9835   28.5619   22.0269      29.943    353.4079066           2          
MisPlume(west)    GOM_UW_1704    2017-04-08T01:49:43Z    -89.9826   28.5656   21.9614      29.602    351.6703324           2          
MisPlume(west)    GOM_UW_1704    2017-04-08T01:51:11Z    -89.9816   28.5692   21.9768      29.304    348.058352            2          
MisPlume(west)    GOM_UW_1704    2017-04-08T01:52:41Z    -89.9807   28.5728   22.004       29.145    344.5390072           2          
MisPlume(west)    GOM_UW_1704    2017-04-08T01:54:09Z    -89.9798   28.5764   22.0006      29.061    340.6932552           2          
MisPlume(west)    GOM_UW_1704    2017-04-08T01:55:37Z    -89.979    28.58     22.0376      28.962    338.0468902           2          
MisPlume(west)    GOM_UW_1704    2017-04-08T01:57:05Z    -89.9781   28.5836   22.0576      28.957    333.6049395           2          
MisPlume(west)    GOM_UW_1704    2017-04-08T01:58:34Z    -89.9772   28.5873   22.0865      28.933    329.7256569           2          
MisPlume(west)    GOM_UW_1704    2017-04-08T02:00:06Z    -89.9763   28.5911   22.0977      28.934    324.2221393           2          
MisPlume(west)    GOM_UW_1704    2017-04-08T02:01:33Z    -89.9754   28.5946   22.1199      28.893    322.159784            2          
MisPlume(west)    GOM_UW_1704    2017-04-08T02:03:01Z    -89.9746   28.5982   22.1177      28.877    319.0602684           2          
MisPlume(west)    GOM_UW_1704    2017-04-08T02:04:30Z    -89.9737   28.6018   22.1346      28.837    314.1282865           2          
MisPlume(west)    GOM_UW_1704    2017-04-08T02:05:59Z    -89.9728   28.6055   22.1593      28.799    309.9008518           2          
MisPlume(west)    GOM_UW_1704    2017-04-08T02:07:27Z    -89.972    28.609    22.1903      28.705    307.1084108           2          
MisPlume(west)    GOM_UW_1704    2017-04-08T02:08:58Z    -89.9712   28.6126   22.2007      28.604    302.4325577           2          
MisPlume(west)    GOM_UW_1704    2017-04-08T02:10:27Z    -89.9703   28.6161   22.2462      28.409    294.3501431           2          
MisPlume(west)    GOM_UW_1704    2017-04-08T02:11:54Z    -89.9693   28.6196   22.3007      28.272    282.7783987           2          
MisPlume(west)    GOM_UW_1704    2017-04-08T02:13:25Z    -89.9684   28.6232   22.3228      28.014    265.4472069           2          
MisPlume(west)    GOM_UW_1704    2017-04-08T02:14:53Z    -89.9676   28.6267   22.3327      27.943    nd                    2          
MisPlume(west)    GOM_UW_1704    2017-04-08T02:16:21Z    -89.9667   28.6301   22.3267      27.823    248.9910958           2          
MisPlume(west)    GOM_UW_1704    2017-04-08T02:17:52Z    -89.9658   28.6337   22.3597      27.681    238.9111149           2          
MisPlume(west)    GOM_UW_1704    2017-04-08T02:19:23Z    -89.9649   28.6373   22.3849      27.524    230.5300942           2          
MisPlume(west)    GOM_UW_1704    2017-04-08T02:20:51Z    -89.9641   28.6408   22.3947      27.375    216.7528594           2          
MisPlume(west)    GOM_UW_1704    2017-04-08T02:22:22Z    -89.9632   28.6443   22.4512      27.277    208.2604129           2          
MisPlume(west)    GOM_UW_1704    2017-04-08T02:23:49Z    -89.9624   28.6477   22.478       27.159    200.5081801           2          
MisPlume(west)    GOM_UW_1704    2017-04-08T02:25:17Z    -89.9616   28.6511   22.49        27.087    195.3961856           2          
MisPlume(west)    GOM_UW_1704    2017-04-08T02:26:46Z    -89.9607   28.6546   22.5609      27.027    188.5540664           2          
MisPlume(west)    GOM_UW_1704    2017-04-08T02:28:15Z    -89.9599   28.6581   22.6085      27.032    180.5439513           2          
MisPlume(west)    GOM_UW_1704    2017-04-08T02:29:44Z    -89.9591   28.6616   22.5495      26.911    167.4230733           2          
MisPlume(west)    GOM_UW_1704    2017-04-08T02:31:12Z    -89.9582   28.665    22.5507      27.072    166.6377845           2          
MisPlume(west)    GOM_UW_1704    2017-04-08T02:32:39Z    -89.9574   28.6683   22.5986      27.297    172.3078257           2          
MisPlume(west)    GOM_UW_1704    2017-04-08T02:34:08Z    -89.9565   28.6718   22.6644      27.457    174.6737297           2          
MisPlume(west)    GOM_UW_1704    2017-04-08T02:35:38Z    -89.9557   28.6753   22.6718      27.455    171.8734515           2          
MisPlume(west)    GOM_UW_1704    2017-04-08T02:37:08Z    -89.9548   28.6789   22.68        27.204    164.2495394           2          
MisPlume(west)    GOM_UW_1704    2017-04-08T02:38:36Z    -89.954    28.6823   22.6042      27.178    162.2884274           2          
MisPlume(west)    GOM_UW_1704    2017-04-08T02:40:03Z    -89.9531   28.6857   22.5724      27.243    162.2983489           2          
MisPlume(west)    GOM_UW_1704    2017-04-08T02:41:32Z    -89.9523   28.6892   22.5436      27.393    165.6065632           2          
MisPlume(west)    GOM_UW_1704    2017-04-08T02:43:01Z    -89.9515   28.6927   22.4606      27.5      166.0687285           2          
MisPlume(west)    GOM_UW_1704    2017-04-08T02:44:30Z    -89.9507   28.6963   22.4414      27.652    163.6941868           2          
MisPlume(west)    GOM_UW_1704    2017-04-08T02:45:58Z    -89.9498   28.6997   22.388       27.794    162.3277187           2          
MisPlume(west)    GOM_UW_1704    2017-04-08T02:47:26Z    -89.9489   28.7032   22.3077      27.93     165.2862937           2          
MisPlume(west)    GOM_UW_1704    2017-04-08T02:48:54Z    -89.9481   28.7067   22.2975      27.936    170.5032393           2          
MisPlume(west)    GOM_UW_1704    2017-04-08T02:50:25Z    -89.9472   28.7102   22.4031      27.958    170.9342431           2          
MisPlume(west)    GOM_UW_1704    2017-04-08T02:51:54Z    -89.9464   28.7137   22.4649      27.982    172.826452            2          
MisPlume(west)    GOM_UW_1704    2017-04-08T02:53:23Z    -89.9456   28.7172   22.575       28.012    173.9489856           2          
MisPlume(west)    GOM_UW_1704    2017-04-08T02:54:50Z    -89.9447   28.7206   22.7792      28.076    174.7079814           2          
MisPlume(west)    GOM_UW_1704    2017-04-08T02:56:18Z    -89.9439   28.724    22.7663      28.07     177.1548167           2          
MisPlume(west)    GOM_UW_1704    2017-04-08T02:57:47Z    -89.943    28.7275   22.8091      28.086    174.4085831           2          
MisPlume(west)    GOM_UW_1704    2017-04-08T02:59:19Z    -89.9422   28.7311   22.7914      28.096    175.6726317           2          
MisPlume(west)    GOM_UW_1704    2017-04-08T03:00:49Z    -89.9413   28.7346   22.7346      28.085    176.4529545           2          
MisPlume(west)    GOM_UW_1704    2017-04-08T03:02:18Z    -89.9404   28.7381   22.6932      28.074    176.7876829           2          
MisPlume(west)    GOM_UW_1704    2017-04-08T03:03:47Z    -89.9396   28.7416   22.7056      28.118    179.1224718           2          
MisPlume(west)    GOM_UW_1704    2017-04-08T03:05:16Z    -89.9387   28.7451   22.7246      28.239    180.3405228           2          
MisPlume(west)    GOM_UW_1704    2017-04-08T03:06:44Z    -89.9379   28.7486   22.8064      28.312    186.0965867           2          
MisPlume(west)    GOM_UW_1704    2017-04-08T03:08:12Z    -89.937    28.752    22.8189      28.372    186.1985588           2          
MisPlume(west)    GOM_UW_1704    2017-04-08T03:09:39Z    -89.9362   28.7555   22.7692      28.397    189.0674176           2          
MisPlume(west)    GOM_UW_1704    2017-04-08T03:11:11Z    -89.9354   28.7591   22.7449      28.414    192.0286711           2          
MisPlume(west)    GOM_UW_1704    2017-04-08T03:12:42Z    -89.9344   28.7627   22.876       28.439    190.6245789           2          
MisPlume(west)    GOM_UW_1704    2017-04-08T03:14:11Z    -89.9335   28.7654   22.8506      28.482    190.9604309           2          
MisPlume(west)    GOM_UW_1704    2017-04-08T03:15:40Z    -89.9336   28.7661   22.857       28.508    194.7495905           2          
MisPlume(west)    GOM_UW_1704    2017-04-08T03:17:10Z    -89.9336   28.7661   22.8576      28.504    194.7457842           2          
MisPlume(west)    GOM_UW_1704    2017-04-08T03:18:41Z    -89.9335   28.766    22.9198      28.518    195.1763261           2          
MisPlume(west)    GOM_UW_1704    2017-04-08T03:20:11Z    -89.9335   28.7659   22.9172      28.519    194.5714815           2          
MisPlume(west)    GOM_UW_1704    2017-04-08T03:21:42Z    -89.9334   28.7656   22.8861      28.523    196.3720106           2          
MisPlume(west)    GOM_UW_1704    2017-04-08T03:23:11Z    -89.9333   28.7653   22.9097      28.523    195.8300097           2          
MisPlume(west)    GOM_UW_1704    2017-04-08T03:24:40Z    -89.9333   28.765    22.8951      28.528    202.6827743           2          
MisPlume(west)    GOM_UW_1704    2017-04-08T03:26:09Z    -89.9333   28.7647   22.8606      28.529    196.1659621           2          
MisPlume(west)    GOM_UW_1704    2017-04-08T03:27:40Z    -89.9334   28.7645   22.8163      28.494    198.2103071           2          
MisPlume(west)    GOM_UW_1704    2017-04-08T03:29:10Z    -89.9334   28.7643   22.7905      28.481    197.1626238           2          
MisPlume(west)    GOM_UW_1704    2017-04-08T03:30:42Z    -89.9334   28.764    22.8001      28.477    185.4359342           2          
MisPlume(west)    GOM_UW_1704    2017-04-08T03:43:17Z    -89.9497   28.7724   22.5948      28.193    191.6729105           2          
MisPlume(west)    GOM_UW_1704    2017-04-08T03:44:48Z    -89.9539   28.7734   22.4749      28.06     186.1842              2          
MisPlume(west)    GOM_UW_1704    2017-04-08T03:46:17Z    -89.9579   28.7747   22.5446      28.023    182.9495627           2          
MisPlume(west)    GOM_UW_1704    2017-04-08T03:47:47Z    -89.9607   28.7775   22.6442      27.994    178.4180696           2          
MisPlume(west)    GOM_UW_1704    2017-04-08T03:49:19Z    -89.9632   28.7806   22.6858      27.984    176.7151656           2          
MisPlume(west)    GOM_UW_1704    2017-04-08T03:50:47Z    -89.9656   28.7837   22.667       27.965    176.610912            2          
MisPlume(west)    GOM_UW_1704    2017-04-08T03:52:18Z    -89.9681   28.7868   22.6312      27.929    175.4087513           2          
MisPlume(west)    GOM_UW_1704    2017-04-08T03:53:46Z    -89.9706   28.7898   22.6988      27.879    169.508132            2          
MisPlume(west)    GOM_UW_1704    2017-04-08T03:55:14Z    -89.973    28.7929   22.5955      27.874    168.3979779           2          
MisPlume(west)    GOM_UW_1704    2017-04-08T03:56:42Z    -89.9754   28.7959   22.7068      27.888    169.2096857           2          
MisPlume(west)    GOM_UW_1704    2017-04-08T03:58:13Z    -89.9778   28.7991   22.7525      27.916    167.6302336           2          
MisPlume(west)    GOM_UW_1704    2017-04-08T03:59:43Z    -89.9802   28.8022   22.7796      27.919    169.0055869           2          
MisPlume(west)    GOM_UW_1704    2017-04-08T04:01:11Z    -89.9825   28.8053   22.7416      27.893    163.5367341           2          
MisPlume(west)    GOM_UW_1704    2017-04-08T04:02:42Z    -89.9849   28.8085   22.6521      27.847    163.0011356           2          
MisPlume(west)    GOM_UW_1704    2017-04-08T04:04:13Z    -89.9872   28.8118   22.6524      27.824    165.3796607           2          
MisPlume(west)    GOM_UW_1704    2017-04-08T04:05:43Z    -89.9896   28.8149   22.6475      27.849    162.8787766           2          
MisPlume(west)    GOM_UW_1704    2017-04-08T04:07:10Z    -89.992    28.818    22.6615      27.816    164.7412419           2          
MisPlume(west)    GOM_UW_1704    2017-04-08T04:08:39Z    -89.9943   28.8212   22.632       27.793    164.5253492           2          
MisPlume(west)    GOM_UW_1704    2017-04-08T04:10:08Z    -89.9966   28.8244   22.6901      27.821    163.9455181           2          
MisPlume(west)    GOM_UW_1704    2017-04-08T04:11:36Z    -89.9987   28.8273   22.6799      27.837    166.0800013           2          
MisPlume(west)    GOM_UW_1704    2017-04-08T04:13:04Z    -89.9994   28.8281   22.6375      27.823    160.9079208           2          
MisPlume(west)    GOM_UW_1704    2017-04-08T04:14:33Z    -89.9994   28.8281   22.6104      27.894    nd                    2          
MisPlume(west)    GOM_UW_1704    2017-04-08T04:16:02Z    -89.9994   28.8281   22.6049      27.911    169.7522595           2          
MisPlume(west)    GOM_UW_1704    2017-04-08T04:17:33Z    -89.9994   28.8281   22.5953      27.924    166.8310192           2          
MisPlume(west)    GOM_UW_1704    2017-04-08T04:19:03Z    -89.9994   28.8281   22.5847      27.936    169.669749            2          
MisPlume(west)    GOM_UW_1704    2017-04-08T04:20:35Z    -89.9994   28.8281   22.5818      27.946    168.4340601           2          
MisPlume(west)    GOM_UW_1704    2017-04-08T04:22:05Z    -89.9994   28.8281   22.6159      27.914    167.7666939           2          
MisPlume(west)    GOM_UW_1704    2017-04-08T04:23:34Z    -89.9994   28.8281   22.6272      27.919    166.7568583           2          
MisPlume(west)    GOM_UW_1704    2017-04-08T04:25:02Z    -89.9994   28.828    22.5811      27.948    169.6169463           2          
MisPlume(west)    GOM_UW_1704    2017-04-08T04:26:33Z    -89.9994   28.828    22.5463      27.991    170.5181254           2          
MisPlume(west)    GOM_UW_1704    2017-04-08T04:28:03Z    -89.9994   28.828    22.5388      27.97     170.4572059           2          
MisPlume(west)    GOM_UW_1704    2017-04-08T04:29:32Z    -89.9994   28.828    22.5159      27.972    171.7944507           2          
MisPlume(west)    GOM_UW_1704    2017-04-08T04:31:01Z    -89.9989   28.8275   22.5868      27.841    168.164564            2          
MisPlume(west)    GOM_UW_1704    2017-04-08T04:32:30Z    -90.0017   28.8275   22.5902      27.838    165.2136992           2          
MisPlume(west)    GOM_UW_1704    2017-04-08T04:34:01Z    -90.006    28.8283   22.6104      27.834    162.9435572           2          
MisPlume(west)    GOM_UW_1704    2017-04-08T04:35:29Z    -90.0101   28.829    22.6603      27.854    160.7744746           2          
MisPlume(west)    GOM_UW_1704    2017-04-08T04:36:57Z    -90.0143   28.8296   22.6876      27.902    160.363945            2          
MisPlume(west)    GOM_UW_1704    2017-04-08T04:38:28Z    -90.0187   28.8302   22.7038      27.97     158.9646904           2          
MisPlume(west)    GOM_UW_1704    2017-04-08T04:39:57Z    -90.023    28.831    22.6912      27.999    158.2151083           2          
MisPlume(west)    GOM_UW_1704    2017-04-08T04:41:24Z    -90.0271   28.8317   22.6771      28.042    160.810106            2          
MisPlume(west)    GOM_UW_1704    2017-04-08T04:42:55Z    -90.0314   28.8325   22.7143      28.053    159.1700627           2          
MisPlume(west)    GOM_UW_1704    2017-04-08T04:44:24Z    -90.0357   28.8333   22.6524      28.121    158.6174804           2          
MisPlume(west)    GOM_UW_1704    2017-04-08T04:45:53Z    -90.0398   28.8343   22.6672      28.139    161.8494432           2          
MisPlume(west)    GOM_UW_1704    2017-04-08T04:47:20Z    -90.0428   28.8367   22.6895      28.127    162.0944903           2          
MisPlume(west)    GOM_UW_1704    2017-04-08T04:48:51Z    -90.0454   28.8399   22.6201      28.184    159.9777719           2          
MisPlume(west)    GOM_UW_1704    2017-04-08T04:50:21Z    -90.0479   28.843    22.5373      28.191    161.6598478           2          
MisPlume(west)    GOM_UW_1704    2017-04-08T04:51:51Z    -90.0504   28.8461   22.7171      28.216    167.3350404           2          
MisPlume(west)    GOM_UW_1704    2017-04-08T04:53:20Z    -90.0529   28.8492   22.6936      28.312    163.417953            2          
MisPlume(west)    GOM_UW_1704    2017-04-08T04:54:52Z    -90.0554   28.8524   22.5585      28.364    165.9979006           2          
MisPlume(west)    GOM_UW_1704    2017-04-08T04:56:20Z    -90.0578   28.8555   22.5695      28.326    166.7314106           2          
MisPlume(west)    GOM_UW_1704    2017-04-08T04:57:49Z    -90.0603   28.8585   22.5431      28.32     167.9019588           2          
MisPlume(west)    GOM_UW_1704    2017-04-08T04:59:17Z    -90.0627   28.8615   22.5652      28.296    163.5056093           2          
MisPlume(west)    GOM_UW_1704    2017-04-08T05:00:47Z    -90.0652   28.8645   22.6114      28.304    167.8647711           2          
MisPlume(west)    GOM_UW_1704    2017-04-08T05:02:14Z    -90.0675   28.8675   22.6935      28.298    159.9877064           2          
MisPlume(west)    GOM_UW_1704    2017-04-08T05:03:44Z    -90.0696   28.8707   22.609       28.319    159.0689163           2          
MisPlume(west)    GOM_UW_1704    2017-04-08T05:05:13Z    -90.0708   28.8742   22.7082      28.396    155.8541351           2          
MisPlume(west)    GOM_UW_1704    2017-04-08T05:06:40Z    -90.0715   28.8778   22.6363      28.409    166.7468826           2          
MisPlume(west)    GOM_UW_1704    2017-04-08T05:08:09Z    -90.0722   28.8814   22.6112      28.444    161.68803             2          
MisPlume(west)    GOM_UW_1704    2017-04-08T05:09:40Z    -90.0722   28.8852   22.5829      28.372    171.958197            2          
MisPlume(west)    GOM_UW_1704    2017-04-08T05:11:12Z    -90.0721   28.889    22.6468      28.377    171.1965861           2          
MisPlume(west)    GOM_UW_1704    2017-04-08T05:12:39Z    -90.0718   28.8926   22.6396      28.376    165.9739309           2          
MisPlume(west)    GOM_UW_1704    2017-04-08T05:14:10Z    -90.0709   28.8963   22.7234      28.5      167.5620477           2          
MisPlume(west)    GOM_UW_1704    2017-04-08T05:15:39Z    -90.0695   28.8997   22.8074      28.442    171.6523595           2          
MisPlume(west)    GOM_UW_1704    2017-04-08T05:17:07Z    -90.0681   28.9032   22.786       28.379    159.7531833           2          
MisPlume(west)    GOM_UW_1704    2017-04-08T05:18:35Z    -90.0666   28.9066   22.717       28.364    164.5430854           2          
MisPlume(west)    GOM_UW_1704    2017-04-08T05:20:05Z    -90.0652   28.9101   22.6085      28.362    162.9763938           2          
MisPlume(west)    GOM_UW_1704    2017-04-08T05:21:33Z    -90.0637   28.9135   22.6747      28.319    170.732612            2          
MisPlume(west)    GOM_UW_1704    2017-04-08T05:23:04Z    -90.0621   28.917    22.6613      28.257    160.8261673           2          
MisPlume(west)    GOM_UW_1704    2017-04-08T05:24:31Z    -90.0606   28.9204   22.6313      28.266    163.6180152           2          
MisPlume(west)    GOM_UW_1704    2017-04-08T05:26:00Z    -90.059    28.9238   22.5908      28.271    160.2990308           2          
MisPlume(west)    GOM_UW_1704    2017-04-08T05:27:29Z    -90.0574   28.9273   22.5521      28.34     158.5458931           2          
MisPlume(west)    GOM_UW_1704    2017-04-08T05:28:59Z    -90.0559   28.9308   22.5371      28.275    168.0496095           2          
MisPlume(west)    GOM_UW_1704    2017-04-08T05:30:27Z    -90.0543   28.9341   22.519       28.244    167.8695575           2          
MisPlume(west)    GOM_UW_1704    2017-04-08T05:31:55Z    -90.0528   28.9375   22.4983      28.218    164.5227994           2          
MisPlume(west)    GOM_UW_1704    2017-04-08T05:33:27Z    -90.0511   28.941    22.4432      28.227    163.8997241           2          
MisPlume(west)    GOM_UW_1704    2017-04-08T05:34:54Z    -90.0495   28.9443   22.4904      28.331    168.293102            2          
MisPlume(west)    GOM_UW_1704    2017-04-08T05:36:24Z    -90.0479   28.9478   22.6266      28.46     173.6615677           2          
MisPlume(west)    GOM_UW_1704    2017-04-08T05:37:54Z    -90.0465   28.9513   22.4697      28.473    173.8347004           2          
MisPlume(west)    GOM_UW_1704    2017-04-08T05:39:23Z    -90.045    28.9548   22.4825      28.425    170.2956482           2          
MisPlume(west)    GOM_UW_1704    2017-04-08T05:40:52Z    -90.0436   28.9581   22.474       28.404    162.5267229           2          
MisPlume(west)    GOM_UW_1704    2017-04-08T05:42:20Z    -90.0429   28.9594   22.4705      28.39     171.6624189           2          
MisPlume(west)    GOM_UW_1704    2017-04-08T05:43:50Z    -90.0428   28.9593   22.4782      28.827    167.7547323           2          
MisPlume(west)    GOM_UW_1704    2017-04-08T05:45:19Z    -90.0427   28.959    22.479       28.422    177.8021737           2          
MisPlume(west)    GOM_UW_1704    2017-04-08T05:46:50Z    -90.0424   28.9587   22.4627      28.357    160.603723            2          
MisPlume(west)    GOM_UW_1704    2017-04-08T05:48:18Z    -90.0423   28.9584   22.4707      28.399    165.1549856           2          
MisPlume(west)    GOM_UW_1704    2017-04-08T05:49:47Z    -90.042    28.958    22.4825      28.396    162.8393154           2          
MisPlume(west)    GOM_UW_1704    2017-04-08T05:51:18Z    -90.0418   28.9576   22.492       28.4      160.6685732           2          
MisPlume(west)    GOM_UW_1704    2017-04-08T05:52:46Z    -90.0415   28.9573   22.4859      28.401    163.2500209           2          
MisPlume(west)    GOM_UW_1704    2017-04-08T05:54:19Z    -90.0412   28.957    22.4843      28.402    161.6787406           2          
MisPlume(west)    GOM_UW_1704    2017-04-08T05:55:49Z    -90.041    28.9566   22.473       28.404    163.6763655           2          
MisPlume(west)    GOM_UW_1704    2017-04-08T05:57:17Z    -90.0408   28.9563   22.471       28.403    164.2217116           2          
MisPlume(west)    GOM_UW_1704    2017-04-08T05:58:48Z    -90.0405   28.9559   22.4864      28.403    158.8756388           2          
MisPlume(west)    GOM_UW_1704    2017-04-08T06:00:19Z    -90.0402   28.9556   22.4763      28.401    157.1222895           2          
MisPlume(west)    GOM_UW_1704    2017-04-08T06:01:50Z    -90.04     28.9552   22.4627      28.407    158.1346318           2          
MisPlume(west)    GOM_UW_1704    2017-04-08T06:03:19Z    -90.0411   28.9556   22.4666      28.415    156.0882799           2          
MisPlume(west)    GOM_UW_1704    2017-04-08T06:04:46Z    -90.0428   28.9573   22.4285      28.42     157.2841087           2          
MisPlume(west)    GOM_UW_1704    2017-04-08T06:06:16Z    -90.0447   28.9593   22.4134      28.4      160.6490215           2          
MisPlume(west)    GOM_UW_1704    2017-04-08T06:07:44Z    -90.0465   28.9612   22.3757      28.39     160.6564149           2          
MisPlume(west)    GOM_UW_1704    2017-04-08T06:09:11Z    -90.0484   28.9631   22.3444      28.387    160.5575156           2          
MisPlume(west)    GOM_UW_1704    2017-04-08T06:10:40Z    -90.0503   28.9649   22.3098      28.39     162.4179012           2          
MisPlume(west)    GOM_UW_1704    2017-04-08T06:12:08Z    -90.0522   28.9668   22.2792      28.316    159.2950373           2          
MisPlume(west)    GOM_UW_1704    2017-04-08T06:13:37Z    -90.0542   28.9687   22.2022      28.296    156.0766532           2          
MisPlume(west)    GOM_UW_1704    2017-04-08T06:15:06Z    -90.0561   28.9706   22.1307      28.317    158.2455045           2          
MisPlume(west)    GOM_UW_1704    2017-04-08T06:16:35Z    -90.0581   28.9725   22.106       28.39     156.3883417           2          
MisPlume(west)    GOM_UW_1704    2017-04-08T06:18:04Z    -90.06     28.9744   22.0095      28.462    160.1718748           2          
MisPlume(west)    GOM_UW_1704    2017-04-08T06:19:33Z    -90.062    28.9763   21.9813      28.497    159.0776874           2          
MisPlume(west)    GOM_UW_1704    2017-04-08T06:21:01Z    -90.0639   28.9781   21.9842      28.559    164.6286729           2          
MisPlume(west)    GOM_UW_1704    2017-04-08T06:22:30Z    -90.0658   28.98     21.9548      28.677    159.6115104           2          
MisPlume(west)    GOM_UW_1704    2017-04-08T06:24:00Z    -90.0678   28.982    21.883       28.844    162.2869421           2          
MisPlume(west)    GOM_UW_1704    2017-04-08T06:25:30Z    -90.0698   28.9839   21.9064      28.881    165.8407283           2          
MisPlume(west)    GOM_UW_1704    2017-04-08T06:27:00Z    -90.0719   28.9859   21.9209      28.93     169.4020074           2          
MisPlume(west)    GOM_UW_1704    2017-04-08T06:28:31Z    -90.0746   28.9885   21.941       29.083    172.6137268           2          
MisPlume(west)    GOM_UW_1704    2017-04-08T06:30:02Z    -90.0773   28.9912   21.9158      29.288    175.7780832           2          
MisPlume(west)    GOM_UW_1704    2017-04-08T06:31:30Z    -90.08     28.9938   21.9156      29.619    180.3961978           2          
MisPlume(west)    GOM_UW_1704    2017-04-08T06:32:59Z    -90.0826   28.9963   21.8678      29.43     186.2376905           2          
MisPlume(west)    GOM_UW_1704    2017-04-08T06:34:27Z    -90.0853   28.9989   21.8428      29.407    179.9797235           2          
MisPlume(west)    GOM_UW_1704    2017-04-08T06:35:55Z    -90.088    29.0015   21.8419      29.441    173.9862163           2          
MisPlume(west)    GOM_UW_1704    2017-04-08T06:37:25Z    -90.0906   29.0042   21.8388      29.476    171.6930761           2          
MisPlume(west)    GOM_UW_1704    2017-04-08T06:38:55Z    -90.0933   29.007    21.8217      29.535    172.4603086           2          
MisPlume(west)    GOM_UW_1704    2017-04-08T06:40:22Z    -90.0959   29.0097   21.7809      29.6      172.0847094           2          
MisPlume(west)    GOM_UW_1704    2017-04-08T06:52:58Z    -90.105    29.0202   21.97        30.709    225.0899803           2          
MisPlume(west)    GOM_UW_1704    2017-04-08T06:54:28Z    -90.1049   29.02     21.9644      30.69     220.2874193           2          
MisPlume(west)    GOM_UW_1704    2017-04-08T06:55:56Z    -90.1047   29.0197   21.9366      30.599    216.3638131           2          
MisPlume(west)    GOM_UW_1704    2017-04-08T06:57:24Z    -90.1046   29.0195   21.9675      30.55     214.8662735           2          
MisPlume(west)    GOM_UW_1704    2017-04-08T06:58:52Z    -90.1047   29.0192   22.0247      30.585    211.5193789           2          
MisPlume(west)    GOM_UW_1704    2017-04-08T07:00:20Z    -90.1068   29.0199   21.9902      30.641    215.8031967           2          
MisPlume(west)    GOM_UW_1704    2017-04-08T07:01:49Z    -90.1095   29.0212   22.0723      30.803    224.8207787           2          
MisPlume(west)    GOM_UW_1704    2017-04-08T07:03:18Z    -90.1121   29.0223   21.957       30.68     237.3637436           2          
MisPlume(west)    GOM_UW_1704    2017-04-08T07:04:46Z    -90.1147   29.0236   22.061       30.871    232.9596504           2          
MisPlume(west)    GOM_UW_1704    2017-04-08T07:06:14Z    -90.1173   29.0248   22.2101      31.026    237.8993036           2          
MisPlume(west)    GOM_UW_1704    2017-04-08T07:07:44Z    -90.1201   29.0261   22.3069      31.062    263.8496232           2          
MisPlume(west)    GOM_UW_1704    2017-04-08T07:09:13Z    -90.1228   29.0274   22.3053      31.071    277.3657923           2          
MisPlume(west)    GOM_UW_1704    2017-04-08T07:10:43Z    -90.1256   29.0287   22.2761      31.014    272.9710938           2          
MisPlume(west)    GOM_UW_1704    2017-04-08T07:12:12Z    -90.1283   29.0299   22.3172      30.973    274.6088279           2          
MisPlume(west)    GOM_UW_1704    2017-04-08T07:13:40Z    -90.131    29.0312   22.2234      30.962    274.7853516           2          
MisPlume(west)    GOM_UW_1704    2017-04-08T07:15:10Z    -90.1338   29.0324   22.1142      30.998    285.1592947           2          
MisPlume(west)    GOM_UW_1704    2017-04-08T07:16:37Z    -90.1364   29.0336   21.9905      30.902    291.4911082           2          
MisPlume(west)    GOM_UW_1704    2017-04-08T07:18:07Z    -90.1391   29.0349   21.9803      30.853    297.0514455           2          
MisPlume(west)    GOM_UW_1704    2017-04-08T07:19:36Z    -90.1418   29.0362   22.0547      30.854    293.7271946           2          
MisPlume(west)    GOM_UW_1704    2017-04-08T07:21:08Z    -90.1446   29.0375   22.0551      30.829    294.9382296           2          
MisPlume(west)    GOM_UW_1704    2017-04-08T07:22:39Z    -90.1473   29.0388   22.0221      30.8      306.339145            2          
MisPlume(west)    GOM_UW_1704    2017-04-08T07:24:07Z    -90.15     29.04     22.0214      30.85     305.19521             2          
MisPlume(west)    GOM_UW_1704    2017-04-08T07:25:35Z    -90.1526   29.0412   22.0097      30.955    303.8758731           2          
MisPlume(west)    GOM_UW_1704    2017-04-08T07:27:03Z    -90.1553   29.0424   22.0255      31.118    314.2313292           2          
MisPlume(west)    GOM_UW_1704    2017-04-08T07:28:31Z    -90.158    29.0437   22.0329      31.252    319.6650819           2          
MisPlume(west)    GOM_UW_1704    2017-04-08T07:30:00Z    -90.1606   29.045    22.0811      31.375    341.5028758           2          
MisPlume(west)    GOM_UW_1704    2017-04-08T07:31:29Z    -90.1631   29.0464   21.8887      31.114    351.2144413           2          
MisPlume(west)    GOM_UW_1704    2017-04-08T07:32:58Z    -90.1636   29.0468   21.8586      31.098    350.1809043           2          
MisPlume(west)    GOM_UW_1704    2017-04-08T07:34:25Z    -90.1636   29.0468   21.8067      30.991    367.3760981           2          
MisPlume(west)    GOM_UW_1704    2017-04-08T07:35:55Z    -90.1635   29.0468   21.7876      30.944    358.681607            2          
MisPlume(west)    GOM_UW_1704    2017-04-08T07:37:23Z    -90.1635   29.0467   21.7818      30.959    355.7337783           2          
MisPlume(west)    GOM_UW_1704    2017-04-08T07:38:53Z    -90.1634   29.0467   21.7394      30.928    355.1068341           2          
MisPlume(west)    GOM_UW_1704    2017-04-08T07:40:22Z    -90.1638   29.0465   21.7458      30.934    355.7446528           2          
MisPlume(west)    GOM_UW_1704    2017-04-08T07:41:50Z    -90.164    29.0445   21.6773      30.793    357.3725588           2          
MisPlume(west)    GOM_UW_1704    2017-04-08T07:43:19Z    -90.1644   29.042    21.6803      30.788    355.5027968           2          
MisPlume(west)    GOM_UW_1704    2017-04-08T07:44:46Z    -90.1647   29.0395   21.6688      30.736    358.6071955           2          
MisPlume(west)    GOM_UW_1704    2017-04-08T07:46:14Z    -90.1651   29.0369   21.7274      30.843    351.9815195           2          
MisPlume(west)    GOM_UW_1704    2017-04-08T07:47:45Z    -90.1655   29.0343   21.817       30.886    356.8071787           2          
MisPlume(west)    GOM_UW_1704    2017-04-08T07:49:14Z    -90.1658   29.032    21.7284      30.775    351.6057694           2          
MisPlume(west)    GOM_UW_1704    2017-04-08T07:50:42Z    -90.1661   29.0297   21.8094      30.859    351.7390656           2          
MisPlume(west)    GOM_UW_1704    2017-04-08T07:52:12Z    -90.1664   29.0274   21.8528      30.774    355.5548624           2          
MisPlume(west)    GOM_UW_1704    2017-04-08T07:53:40Z    -90.1668   29.0252   21.8748      30.789    347.9681045           2          
MisPlume(west)    GOM_UW_1704    2017-04-08T07:55:11Z    -90.1671   29.0228   21.8791      30.738    347.0657692           2          
MisPlume(west)    GOM_UW_1704    2017-04-08T07:56:40Z    -90.1674   29.0205   21.9241      30.714    345.7311628           2          
MisPlume(west)    GOM_UW_1704    2017-04-08T07:58:09Z    -90.1677   29.0181   21.9389      30.728    345.0454338           2          
MisPlume(west)    GOM_UW_1704    2017-04-08T07:59:38Z    -90.1681   29.0158   21.9049      30.693    351.8780126           2          
MisPlume(west)    GOM_UW_1704    2017-04-08T08:01:06Z    -90.1684   29.0135   21.955       30.7      345.78119             2          
MisPlume(west)    GOM_UW_1704    2017-04-08T08:02:34Z    -90.1688   29.0111   21.9921      30.689    340.8785649           2          
MisPlume(west)    GOM_UW_1704    2017-04-08T08:04:02Z    -90.1691   29.0087   22.0115      30.661    340.3843578           2          
MisPlume(west)    GOM_UW_1704    2017-04-08T08:05:30Z    -90.1694   29.0064   21.9876      30.602    336.7376683           2          
MisPlume(west)    GOM_UW_1704    2017-04-08T08:07:01Z    -90.1697   29.0039   22.0282      30.582    335.6626845           2          
MisPlume(west)    GOM_UW_1704    2017-04-08T08:08:30Z    -90.17     29.0015   22.0727      30.512    332.7690958           2          
MisPlume(west)    GOM_UW_1704    2017-04-08T08:10:00Z    -90.1704   28.9991   22.0474      30.437    329.1518266           2          
MisPlume(west)    GOM_UW_1704    2017-04-08T08:11:28Z    -90.1707   28.9968   22.0476      30.414    323.0254532           2          
MisPlume(west)    GOM_UW_1704    2017-04-08T08:12:57Z    -90.1711   28.9944   22.0046      30.405    317.5003284           2          
MisPlume(west)    GOM_UW_1704    2017-04-08T08:14:28Z    -90.1714   28.9919   21.9932      30.419    306.955187            2          
MisPlume(west)    GOM_UW_1704    2017-04-08T08:15:57Z    -90.1718   28.9896   21.9309      30.417    301.6154302           2          
MisPlume(west)    GOM_UW_1704    2017-04-08T08:17:27Z    -90.1722   28.9871   22.06        30.528    288.5354422           2          
MisPlume(west)    GOM_UW_1704    2017-04-08T08:18:56Z    -90.1725   28.9847   22.1066      30.545    278.6385008           2          
MisPlume(west)    GOM_UW_1704    2017-04-08T08:20:27Z    -90.1728   28.9822   22.1436      30.577    273.3907856           2          
MisPlume(west)    GOM_UW_1704    2017-04-08T08:21:58Z    -90.1731   28.9798   22.1713      30.603    274.2208918           2          
MisPlume(west)    GOM_UW_1704    2017-04-08T08:23:26Z    -90.1735   28.9774   22.246       30.626    275.2931696           2          
MisPlume(west)    GOM_UW_1704    2017-04-08T08:24:56Z    -90.1737   28.9753   22.2493      30.602    272.1869378           2          
MisPlume(west)    GOM_UW_1704    2017-04-08T08:26:25Z    -90.174    28.9731   22.2709      30.634    266.84342             2          
MisPlume(west)    GOM_UW_1704    2017-04-08T08:27:53Z    -90.1744   28.971    22.2612      30.615    264.9246068           2          
MisPlume(west)    GOM_UW_1704    2017-04-08T08:29:22Z    -90.1747   28.9688   22.2614      30.638    262.0622761           2          
MisPlume(west)    GOM_UW_1704    2017-04-08T08:30:52Z    -90.175    28.9666   22.2792      30.642    262.3036126           2          
MisPlume(west)    GOM_UW_1704    2017-04-08T08:32:23Z    -90.1753   28.9643   22.2951      30.636    262.015994            2          
MisPlume(west)    GOM_UW_1704    2017-04-08T08:33:50Z    -90.1757   28.9622   22.2824      30.642    263.3246962           2          
MisPlume(west)    GOM_UW_1704    2017-04-08T08:35:19Z    -90.1761   28.96     22.3114      30.689    261.6142856           2          
MisPlume(west)    GOM_UW_1704    2017-04-08T08:36:47Z    -90.1764   28.9578   22.3171      30.716    262.094549            2          
MisPlume(west)    GOM_UW_1704    2017-04-08T08:38:19Z    -90.1768   28.9555   22.3232      30.728    260.7414681           2          
MisPlume(west)    GOM_UW_1704    2017-04-08T08:39:48Z    -90.1772   28.9533   22.2628      30.718    255.6206349           2          
MisPlume(west)    GOM_UW_1704    2017-04-08T08:41:19Z    -90.1775   28.951    22.2093      30.634    244.2075987           2          
MisPlume(west)    GOM_UW_1704    2017-04-08T08:42:48Z    -90.1779   28.9488   22.1435      30.516    233.1459141           2          
MisPlume(west)    GOM_UW_1704    2017-04-08T08:44:16Z    -90.1782   28.9466   22.1027      30.468    221.2872362           2          
MisPlume(west)    GOM_UW_1704    2017-04-08T08:45:45Z    -90.1785   28.9444   22.0752      30.456    218.3834268           2          
MisPlume(west)    GOM_UW_1704    2017-04-08T08:47:13Z    -90.1789   28.9422   22.0728      30.487    217.3642482           2          
MisPlume(west)    GOM_UW_1704    2017-04-08T08:48:41Z    -90.1793   28.94     21.967       30.471    214.6783942           2          
MisPlume(west)    GOM_UW_1704    2017-04-08T08:50:10Z    -90.1796   28.9378   21.8328      30.356    204.190434            2          
MisPlume(west)    GOM_UW_1704    2017-04-08T08:51:39Z    -90.18     28.9356   21.7532      30.297    191.6581226           2          
MisPlume(west)    GOM_UW_1704    2017-04-08T08:53:07Z    -90.1803   28.9334   21.7261      30.293    188.7385797           2          
MisPlume(west)    GOM_UW_1704    2017-04-08T08:54:36Z    -90.1807   28.9312   21.7072      30.281    187.4393245           2          
MisPlume(west)    GOM_UW_1704    2017-04-08T08:56:05Z    -90.1811   28.929    21.7089      30.26     189.4629185           2          
MisPlume(west)    GOM_UW_1704    2017-04-08T08:57:32Z    -90.1814   28.9269   21.7169      30.288    189.4832421           2          
MisPlume(west)    GOM_UW_1704    2017-04-08T08:59:02Z    -90.1818   28.9246   21.7144      30.257    190.6012825           2          
MisPlume(west)    GOM_UW_1704    2017-04-08T09:00:29Z    -90.1821   28.9225   21.7317      30.243    192.8191095           2          
MisPlume(west)    GOM_UW_1704    2017-04-08T09:02:01Z    -90.1825   28.9202   21.7402      30.233    191.7852867           2          
MisPlume(west)    GOM_UW_1704    2017-04-08T09:03:32Z    -90.1829   28.918    21.7537      30.216    192.5230177           2          
MisPlume(west)    GOM_UW_1704    2017-04-08T09:05:03Z    -90.1832   28.9157   21.7724      30.211    193.6822242           2          
MisPlume(west)    GOM_UW_1704    2017-04-08T09:06:33Z    -90.1835   28.9135   21.7796      30.183    191.2903048           2          
MisPlume(west)    GOM_UW_1704    2017-04-08T09:08:04Z    -90.1839   28.9113   21.8108      30.246    194.3123262           2          
MisPlume(west)    GOM_UW_1704    2017-04-08T09:09:32Z    -90.1843   28.9091   21.8245      30.236    197.1450522           2          
MisPlume(west)    GOM_UW_1704    2017-04-08T09:11:03Z    -90.1846   28.9069   21.7928      30.246    197.6895264           2          
MisPlume(west)    GOM_UW_1704    2017-04-08T09:12:32Z    -90.185    28.9047   21.816       30.272    202.9672493           2          
MisPlume(west)    GOM_UW_1704    2017-04-08T09:14:03Z    -90.1853   28.9025   21.8231      30.272    203.8276748           2          
MisPlume(west)    GOM_UW_1704    2017-04-08T09:15:34Z    -90.1856   28.9003   21.8613      30.309    205.0478127           2          
MisPlume(west)    GOM_UW_1704    2017-04-08T09:17:06Z    -90.186    28.8981   21.8568      30.363    210.8776519           2          
MisPlume(west)    GOM_UW_1704    2017-04-08T09:18:35Z    -90.1863   28.8959   21.8671      30.381    214.9100944           2          
MisPlume(west)    GOM_UW_1704    2017-04-08T09:20:06Z    -90.1867   28.8937   21.8582      30.346    214.5848448           2          
MisPlume(west)    GOM_UW_1704    2017-04-08T09:21:34Z    -90.187    28.8917   21.9008      30.29     217.7743426           2          
MisPlume(west)    GOM_UW_1704    2017-04-08T09:23:02Z    -90.1874   28.8896   21.9115      30.226    213.5105312           2          
MisPlume(west)    GOM_UW_1704    2017-04-08T09:24:33Z    -90.1877   28.8874   21.9146      30.184    210.5450712           2          
MisPlume(west)    GOM_UW_1704    2017-04-08T09:26:05Z    -90.1881   28.8852   21.8914      30.108    210.2734387           2          
MisPlume(west)    GOM_UW_1704    2017-04-08T09:27:33Z    -90.1884   28.8831   21.7651      29.737    200.3215649           2          
MisPlume(west)    GOM_UW_1704    2017-04-08T09:29:04Z    -90.1888   28.8809   21.6808      29.436    189.7431464           2          
MisPlume(west)    GOM_UW_1704    2017-04-08T09:30:35Z    -90.1891   28.8788   21.6905      29.271    177.3654356           2          
MisPlume(west)    GOM_UW_1704    2017-04-08T09:32:05Z    -90.1895   28.8767   21.6936      29.237    173.3473302           2          
MisPlume(west)    GOM_UW_1704    2017-04-08T09:33:34Z    -90.1897   28.8746   21.7312      29.214    173.9718702           2          
MisPlume(west)    GOM_UW_1704    2017-04-08T09:35:03Z    -90.1901   28.8725   21.7499      29.203    171.277917            2          
MisPlume(west)    GOM_UW_1704    2017-04-08T09:36:30Z    -90.1904   28.8705   21.8057      29.185    174.0786027           2          
MisPlume(west)    GOM_UW_1704    2017-04-08T09:38:02Z    -90.1908   28.8684   21.8275      29.181    171.222204            2          
MisPlume(west)    GOM_UW_1704    2017-04-08T09:39:31Z    -90.1911   28.8663   21.8626      29.131    169.6761038           2          
MisPlume(west)    GOM_UW_1704    2017-04-08T09:40:59Z    -90.1914   28.8642   21.9361      29.131    169.6081933           2          
MisPlume(west)    GOM_UW_1704    2017-04-08T09:42:28Z    -90.1918   28.8621   21.975       29.144    170.8502513           2          
MisPlume(west)    GOM_UW_1704    2017-04-08T09:43:59Z    -90.1922   28.86     21.9973      29.15     169.7781015           2          
MisPlume(west)    GOM_UW_1704    2017-04-08T09:45:28Z    -90.1926   28.8571   22.0011      29.172    171.9431531           2          
MisPlume(west)    GOM_UW_1704    2017-04-08T09:46:57Z    -90.1931   28.8542   22.0217      29.191    170.7467987           2          
MisPlume(west)    GOM_UW_1704    2017-04-08T09:48:27Z    -90.1937   28.8511   22.0294      29.239    174.6662288           2          
MisPlume(west)    GOM_UW_1704    2017-04-08T09:49:58Z    -90.1944   28.8481   22.151       29.292    178.6225454           2          
MisPlume(west)    GOM_UW_1704    2017-04-08T10:02:36Z    -90.197    28.8312   22.1584      29.564    180.0933316           2          
MisPlume(west)    GOM_UW_1704    2017-04-08T10:04:04Z    -90.1974   28.8293   22.1575      29.575    180.6323825           2          
MisPlume(west)    GOM_UW_1704    2017-04-08T10:05:33Z    -90.1977   28.8273   22.1712      29.587    180.2311517           2          
MisPlume(west)    GOM_UW_1704    2017-04-08T10:07:01Z    -90.198    28.8254   22.1869      29.607    180.9140831           2          
MisPlume(west)    GOM_UW_1704    2017-04-08T10:08:29Z    -90.1983   28.8234   22.1867      29.63     180.3893482           2          
MisPlume(west)    GOM_UW_1704    2017-04-08T10:09:58Z    -90.1986   28.8215   22.1635      29.639    181.4050478           2          
MisPlume(west)    GOM_UW_1704    2017-04-08T10:11:25Z    -90.1989   28.8196   22.1636      29.656    180.8519717           2          
MisPlume(west)    GOM_UW_1704    2017-04-08T10:12:55Z    -90.199    28.8176   22.1908      29.662    184.1984253           2          
MisPlume(west)    GOM_UW_1704    2017-04-08T10:14:24Z    -90.1993   28.8157   22.1649      29.658    181.9179515           2          
MisPlume(west)    GOM_UW_1704    2017-04-08T10:15:52Z    -90.1998   28.8138   22.1748      29.675    181.8916197           2          
MisPlume(west)    GOM_UW_1704    2017-04-08T10:17:20Z    -90.2004   28.8119   22.1599      29.679    181.0329022           2          
MisPlume(west)    GOM_UW_1704    2017-04-08T10:18:49Z    -90.201    28.81     22.1388      29.683    181.0873949           2          
MisPlume(west)    GOM_UW_1704    2017-04-08T10:20:17Z    -90.2016   28.8081   22.1509      29.678    180.7129343           2          
MisPlume(west)    GOM_UW_1704    2017-04-08T10:21:48Z    -90.2022   28.8061   22.1634      29.687    182.7867106           2          
MisPlume(west)    GOM_UW_1704    2017-04-08T10:23:17Z    -90.2027   28.8041   22.1753      29.714    181.8501206           2          
MisPlume(west)    GOM_UW_1704    2017-04-08T10:24:46Z    -90.2032   28.8022   22.1853      29.737    181.3142237           2          
MisPlume(west)    GOM_UW_1704    2017-04-08T10:26:13Z    -90.2037   28.8003   22.1612      29.743    183.9462941           2          
MisPlume(west)    GOM_UW_1704    2017-04-08T10:27:43Z    -90.204    28.7983   22.113       29.74     182.652963            2          
MisPlume(west)    GOM_UW_1704    2017-04-08T10:29:13Z    -90.2043   28.7964   22.0273      29.688    182.0257199           2          
MisPlume(west)    GOM_UW_1704    2017-04-08T10:30:41Z    -90.2046   28.7945   21.9549      29.594    179.8600479           2          
MisPlume(west)    GOM_UW_1704    2017-04-08T10:32:09Z    -90.2049   28.7926   21.9337      29.58     178.7750487           2          
MisPlume(west)    GOM_UW_1704    2017-04-08T10:33:40Z    -90.2052   28.7906   21.9413      29.533    179.1897245           2          
MisPlume(west)    GOM_UW_1704    2017-04-08T10:35:12Z    -90.2054   28.7886   21.9152      29.516    178.9521612           2          
MisPlume(west)    GOM_UW_1704    2017-04-08T10:36:42Z    -90.2058   28.7867   21.9016      29.493    180.3290842           2          
MisPlume(west)    GOM_UW_1704    2017-04-08T10:38:11Z    -90.206    28.7847   21.873       29.463    179.9182485           2          
MisPlume(west)    GOM_UW_1704    2017-04-08T10:39:39Z    -90.2063   28.7828   21.8853      29.44     180.2046531           2          
MisPlume(west)    GOM_UW_1704    2017-04-08T10:41:07Z    -90.2065   28.7809   21.8692      29.432    179.2491646           2          
MisPlume(west)    GOM_UW_1704    2017-04-08T10:42:38Z    -90.2068   28.779    21.8795      29.406    180.3902755           2          
MisPlume(west)    GOM_UW_1704    2017-04-08T10:44:07Z    -90.2071   28.7769   21.8277      29.36     179.0753607           2          
MisPlume(west)    GOM_UW_1704    2017-04-08T10:45:37Z    -90.2074   28.7747   21.8312      29.349    179.7524774           2          
MisPlume(west)    GOM_UW_1704    2017-04-08T10:47:06Z    -90.2077   28.7725   21.8303      29.345    180.0115653           2          
MisPlume(west)    GOM_UW_1704    2017-04-08T10:48:36Z    -90.208    28.7703   21.833       29.341    183.6142985           2          
MisPlume(west)    GOM_UW_1704    2017-04-08T10:50:04Z    -90.2083   28.7681   21.8419      29.337    183.5508878           2          
MisPlume(west)    GOM_UW_1704    2017-04-08T10:51:33Z    -90.2086   28.7659   21.8376      29.347    181.9896092           2          
MisPlume(west)    GOM_UW_1704    2017-04-08T10:53:00Z    -90.2089   28.7638   21.8173      29.335    182.8447043           2          
MisPlume(west)    GOM_UW_1704    2017-04-08T10:54:30Z    -90.2092   28.7616   21.7936      29.321    182.7789947           2          
MisPlume(west)    GOM_UW_1704    2017-04-08T10:55:59Z    -90.2095   28.7595   21.7697      29.308    182.718823            2          
MisPlume(west)    GOM_UW_1704    2017-04-08T10:57:27Z    -90.2098   28.7573   21.7646      29.305    182.234346            2          
MisPlume(west)    GOM_UW_1704    2017-04-08T10:58:57Z    -90.2101   28.7552   21.7758      29.289    182.4887462           2          
MisPlume(west)    GOM_UW_1704    2017-04-08T11:00:28Z    -90.2104   28.753    21.7565      29.19     179.9927979           2          
MisPlume(west)    GOM_UW_1704    2017-04-08T11:01:57Z    -90.2107   28.7508   21.7741      29.161    179.1855257           2          
MisPlume(west)    GOM_UW_1704    2017-04-08T11:03:27Z    -90.2111   28.7486   21.7751      29.161    181.7245899           2          
MisPlume(west)    GOM_UW_1704    2017-04-08T11:04:56Z    -90.2114   28.7463   21.78        29.169    182.2645164           2          
MisPlume(west)    GOM_UW_1704    2017-04-08T11:06:27Z    -90.2117   28.7439   21.7771      29.178    180.9428786           2          
MisPlume(west)    GOM_UW_1704    2017-04-08T11:07:55Z    -90.212    28.7415   21.7776      29.19     182.5450504           2          
MisPlume(west)    GOM_UW_1704    2017-04-08T11:09:23Z    -90.2123   28.7392   21.831       29.122    183.6726528           2          
MisPlume(west)    GOM_UW_1704    2017-04-08T11:10:51Z    -90.2126   28.7369   21.8421      29.09     186.0062653           2          
MisPlume(west)    GOM_UW_1704    2017-04-08T11:12:19Z    -90.213    28.7346   21.8293      29.095    184.5912977           2          
MisPlume(west)    GOM_UW_1704    2017-04-08T11:13:49Z    -90.2133   28.7322   21.7988      29.06     186.8062607           2          
MisPlume(west)    GOM_UW_1704    2017-04-08T11:15:19Z    -90.2137   28.7299   21.7711      29.019    187.1913775           2          
MisPlume(west)    GOM_UW_1704    2017-04-08T11:16:50Z    -90.214    28.7275   21.7756      28.947    187.9684585           2          
MisPlume(west)    GOM_UW_1704    2017-04-08T11:18:18Z    -90.2143   28.7252   21.7892      28.931    187.7736708           2          
MisPlume(west)    GOM_UW_1704    2017-04-08T11:19:47Z    -90.2146   28.7229   21.7961      28.927    191.583153            2          
MisPlume(west)    GOM_UW_1704    2017-04-08T11:21:16Z    -90.2149   28.7206   21.7552      28.921    196.5780713           2          
MisPlume(west)    GOM_UW_1704    2017-04-08T11:22:44Z    -90.2152   28.7183   21.7513      28.923    198.0689583           2          
MisPlume(west)    GOM_UW_1704    2017-04-08T11:24:12Z    -90.2156   28.716    21.7379      28.93     200.4455891           2          
MisPlume(west)    GOM_UW_1704    2017-04-08T11:25:43Z    -90.2159   28.7137   21.6972      28.964    203.1847918           2          
MisPlume(west)    GOM_UW_1704    2017-04-08T11:27:12Z    -90.2163   28.7113   21.6882      28.956    212.6313301           2          
MisPlume(west)    GOM_UW_1704    2017-04-08T11:28:41Z    -90.2166   28.7089   21.6959      28.985    215.7893275           2          
MisPlume(west)    GOM_UW_1704    2017-04-08T11:30:12Z    -90.2169   28.7064   21.7019      28.979    220.0026391           2          
MisPlume(west)    GOM_UW_1704    2017-04-08T11:31:41Z    -90.2173   28.704    21.5931      28.856    229.6473028           2          
MisPlume(west)    GOM_UW_1704    2017-04-08T11:33:11Z    -90.2177   28.7016   21.5335      28.737    231.7622417           2          
MisPlume(west)    GOM_UW_1704    2017-04-08T11:34:40Z    -90.2181   28.6992   21.4919      28.654    229.5478992           2          
MisPlume(west)    GOM_UW_1704    2017-04-08T11:36:10Z    -90.2185   28.6968   21.5152      28.628    225.2599512           2          
MisPlume(west)    GOM_UW_1704    2017-04-08T11:37:39Z    -90.2189   28.6944   21.5364      28.602    221.1351867           2          
MisPlume(west)    GOM_UW_1704    2017-04-08T11:39:07Z    -90.2192   28.692    21.5441      28.603    219.8272277           2          
MisPlume(west)    GOM_UW_1704    2017-04-08T11:40:37Z    -90.2196   28.6896   21.521       28.589    220.3013142           2          
MisPlume(west)    GOM_UW_1704    2017-04-08T11:42:05Z    -90.22     28.6873   21.51        28.61     220.2459164           2          
MisPlume(west)    GOM_UW_1704    2017-04-08T11:43:33Z    -90.2203   28.685    21.5071      28.607    218.6009862           2          
MisPlume(west)    GOM_UW_1704    2017-04-08T11:45:01Z    -90.2207   28.6826   21.4983      28.586    223.4890246           2          
MisPlume(west)    GOM_UW_1704    2017-04-08T11:46:30Z    -90.2211   28.6802   21.4844      28.561    228.6763539           2          
MisPlume(west)    GOM_UW_1704    2017-04-08T11:47:59Z    -90.2215   28.6778   21.4694      28.57     232.7512766           2          
MisPlume(west)    GOM_UW_1704    2017-04-08T11:49:27Z    -90.2219   28.6755   21.4832      28.607    231.2756988           2          
MisPlume(west)    GOM_UW_1704    2017-04-08T11:50:55Z    -90.2223   28.6731   21.466       28.604    235.2363417           2          
MisPlume(west)    GOM_UW_1704    2017-04-08T11:52:26Z    -90.2226   28.6707   21.4333      28.522    225.5008591           2          
MisPlume(west)    GOM_UW_1704    2017-04-08T11:53:55Z    -90.223    28.6684   21.4224      28.577    223.3402725           2          
MisPlume(west)    GOM_UW_1704    2017-04-08T11:55:23Z    -90.2234   28.6661   21.4353      28.579    227.2553392           2          
MisPlume(west)    GOM_UW_1704    2017-04-08T11:56:54Z    -90.2238   28.6637   21.4477      28.554    228.0358591           2          
MisPlume(west)    GOM_UW_1704    2017-04-08T11:58:22Z    -90.2242   28.6614   21.4533      28.545    230.1681451           2          
MisPlume(west)    GOM_UW_1704    2017-04-08T11:59:50Z    -90.2246   28.659    21.4705      28.601    227.7409523           2          
MisPlume(west)    GOM_UW_1704    2017-04-08T12:01:22Z    -90.225    28.6566   21.4714      28.636    231.3500012           2          
MisPlume(west)    GOM_UW_1704    2017-04-08T12:02:51Z    -90.2253   28.6542   21.48        28.723    234.8090593           2          
MisPlume(west)    GOM_UW_1704    2017-04-08T12:04:20Z    -90.2257   28.6519   21.4731      28.808    237.7936086           2          
MisPlume(west)    GOM_UW_1704    2017-04-08T12:05:50Z    -90.2261   28.6495   21.4613      28.775    245.3835371           2          
MisPlume(west)    GOM_UW_1704    2017-04-08T12:07:22Z    -90.2264   28.6471   21.51        28.841    243.769953            2          
MisPlume(west)    GOM_UW_1704    2017-04-08T12:08:51Z    -90.2268   28.6448   21.5068      28.912    246.7470062           2          
MisPlume(west)    GOM_UW_1704    2017-04-08T12:10:19Z    -90.2272   28.6425   21.5062      28.943    251.3694309           2          
MisPlume(west)    GOM_UW_1704    2017-04-08T12:11:47Z    -90.2277   28.6402   21.4951      28.999    250.5657597           2          
MisPlume(west)    GOM_UW_1704    2017-04-08T12:13:18Z    -90.2281   28.6378   21.5024      29.1      246.6977962           2          
MisPlume(west)    GOM_UW_1704    2017-04-08T12:14:47Z    -90.2286   28.6354   21.4961      29.141    246.2991067           2          
MisPlume(west)    GOM_UW_1704    2017-04-08T12:16:15Z    -90.2291   28.6331   21.4818      29.135    246.7706163           2          
MisPlume(west)    GOM_UW_1704    2017-04-08T12:17:46Z    -90.2296   28.6307   21.4469      29.157    246.3399322           2          
MisPlume(west)    GOM_UW_1704    2017-04-08T12:19:17Z    -90.2301   28.6282   21.4132      29.13     254.1656944           2          
MisPlume(west)    GOM_UW_1704    2017-04-08T12:20:47Z    -90.2305   28.6258   21.3911      29.172    257.2370085           2          
MisPlume(west)    GOM_UW_1704    2017-04-08T12:22:16Z    -90.231    28.6235   21.3931      29.194    253.4033453           2          
MisPlume(west)    GOM_UW_1704    2017-04-08T12:23:44Z    -90.2315   28.6212   21.4363      29.317    257.9797392           2          
MisPlume(west)    GOM_UW_1704    2017-04-08T12:25:14Z    -90.2319   28.6187   21.4161      29.365    252.817928            2          
MisPlume(west)    GOM_UW_1704    2017-04-08T12:26:43Z    -90.2324   28.6164   21.4229      29.432    257.9432846           2          
MisPlume(west)    GOM_UW_1704    2017-04-08T12:28:12Z    -90.2329   28.614    21.4279      29.548    252.1105996           2          
MisPlume(west)    GOM_UW_1704    2017-04-08T12:29:41Z    -90.2334   28.6115   21.4192      29.607    251.8273101           2          
MisPlume(west)    GOM_UW_1704    2017-04-08T12:31:09Z    -90.2335   28.6105   21.4421      29.675    260.9090067           2          
MisPlume(west)    GOM_UW_1704    2017-04-08T12:32:37Z    -90.2341   28.6105   21.4744      29.761    254.4817566           2          
MisPlume(west)    GOM_UW_1704    2017-04-08T12:34:06Z    -90.2347   28.6105   21.8895      32.151    274.8718448           2          
MisPlume(west)    GOM_UW_1704    2017-04-08T12:35:34Z    -90.2353   28.6105   21.7407      30.889    273.785923            2          
MisPlume(west)    GOM_UW_1704    2017-04-08T12:37:04Z    -90.236    28.6104   21.5475      29.977    258.7542083           2          
MisPlume(west)    GOM_UW_1704    2017-04-08T12:38:32Z    -90.2366   28.6103   21.4809      29.79     256.6724081           2          
MisPlume(west)    GOM_UW_1704    2017-04-08T12:40:00Z    -90.2373   28.6103   21.4765      29.78     259.558765            2          
MisPlume(west)    GOM_UW_1704    2017-04-08T12:41:28Z    -90.2379   28.6103   21.4664      29.803    252.6047361           2          
MisPlume(west)    GOM_UW_1704    2017-04-08T12:42:57Z    -90.2385   28.6102   21.4776      29.783    254.198891            2          
MisPlume(west)    GOM_UW_1704    2017-04-08T12:44:26Z    -90.2392   28.6102   21.5161      29.898    251.5426058           2          
MisPlume(west)    GOM_UW_1704    2017-04-08T12:45:57Z    -90.2398   28.6102   21.5249      29.939    254.7340552           2          
MisPlume(west)    GOM_UW_1704    2017-04-08T12:47:28Z    -90.2405   28.6102   21.6757      30.588    258.5596851           2          
MisPlume(west)    GOM_UW_1704    2017-04-08T12:48:58Z    -90.2413   28.6105   21.7917      31.159    263.0977614           2          
MisPlume(west)    GOM_UW_1704    2017-04-08T12:50:27Z    -90.2422   28.6135   21.4669      29.796    262.151985            2          
MisPlume(west)    GOM_UW_1704    2017-04-08T12:51:55Z    -90.243    28.6173   21.441       29.706    255.904053            2          
MisPlume(west)    GOM_UW_1704    2017-04-08T12:53:24Z    -90.2434   28.6212   21.4618      29.745    252.0749059           2          
MisPlume(west)    GOM_UW_1704    2017-04-08T12:54:52Z    -90.2442   28.6251   21.42        29.429    251.9009975           2          
MisPlume(west)    GOM_UW_1704    2017-04-08T12:56:21Z    -90.2449   28.629    21.3842      29.322    252.0291168           2          
MisPlume(west)    GOM_UW_1704    2017-04-08T12:57:50Z    -90.2457   28.6329   21.4244      29.325    250.8079256           2          
MisPlume(west)    GOM_UW_1704    2017-04-08T12:59:17Z    -90.2464   28.6367   21.4196      29.218    247.3284719           2          
MisPlume(west)    GOM_UW_1704    2017-04-08T13:11:57Z    -90.2532   28.6707   21.5017      28.686    231.1902656           2          
MisPlume(west)    GOM_UW_1704    2017-04-08T13:13:25Z    -90.254    28.6746   21.4776      28.651    228.722311            2          
MisPlume(west)    GOM_UW_1704    2017-04-08T13:14:56Z    -90.2548   28.6787   21.4685      28.613    224.2420892           2          
MisPlume(west)    GOM_UW_1704    2017-04-08T13:16:24Z    -90.2556   28.6826   21.4709      28.546    220.3890887           2          
MisPlume(west)    GOM_UW_1704    2017-04-08T13:17:53Z    -90.2564   28.6866   21.4284      28.528    217.3850842           2          
MisPlume(west)    GOM_UW_1704    2017-04-08T13:19:20Z    -90.2572   28.6906   21.4285      28.556    215.170428            2          
MisPlume(west)    GOM_UW_1704    2017-04-08T13:20:48Z    -90.258    28.6946   21.457       28.649    218.6114095           2          
MisPlume(west)    GOM_UW_1704    2017-04-08T13:22:16Z    -90.2589   28.6986   21.4516      28.57     222.3640171           2          
MisPlume(west)    GOM_UW_1704    2017-04-08T13:23:45Z    -90.2608   28.7024   21.456       28.63     223.4176512           2          
MisPlume(west)    GOM_UW_1704    2017-04-08T13:25:16Z    -90.263    28.7063   21.4845      28.713    221.3467697           2          
MisPlume(west)    GOM_UW_1704    2017-04-08T13:26:44Z    -90.2651   28.7101   21.4965      28.714    213.8084629           2          
MisPlume(west)    GOM_UW_1704    2017-04-08T13:28:12Z    -90.2672   28.7138   21.5023      28.7      211.0542756           2          
MisPlume(west)    GOM_UW_1704    2017-04-08T13:29:44Z    -90.2694   28.7178   21.4697      28.755    216.1176433           2          
MisPlume(west)    GOM_UW_1704    2017-04-08T13:31:15Z    -90.2709   28.7218   21.4636      28.876    217.5148102           2          
MisPlume(west)    GOM_UW_1704    2017-04-08T13:32:45Z    -90.2717   28.7259   21.542       29.028    222.2585838           2          
MisPlume(west)    GOM_UW_1704    2017-04-08T13:34:15Z    -90.2723   28.7299   21.6053      29.135    217.5159387           2          
MisPlume(west)    GOM_UW_1704    2017-04-08T13:35:42Z    -90.2727   28.7339   21.6195      29.133    210.2133792           2          
MisPlume(west)    GOM_UW_1704    2017-04-08T13:37:11Z    -90.2732   28.7379   21.6467      29.088    204.9359872           2          
MisPlume(west)    GOM_UW_1704    2017-04-08T13:38:39Z    -90.2735   28.7419   21.6784      29.074    200.2207565           2          
MisPlume(west)    GOM_UW_1704    2017-04-08T13:40:10Z    -90.2739   28.746    21.6963      29.063    194.768536            2          
MisPlume(west)    GOM_UW_1704    2017-04-08T13:41:41Z    -90.2742   28.7501   21.6925      29.073    190.915805            2          
MisPlume(west)    GOM_UW_1704    2017-04-08T13:43:11Z    -90.2745   28.7541   21.6793      29.141    186.6171574           2          
MisPlume(west)    GOM_UW_1704    2017-04-08T13:44:39Z    -90.2748   28.758    21.6998      29.19     183.8191558           2          
MisPlume(west)    GOM_UW_1704    2017-04-08T13:46:07Z    -90.2751   28.7619   21.7278      29.203    185.4305452           2          
MisPlume(west)    GOM_UW_1704    2017-04-08T13:47:37Z    -90.2753   28.766    21.6784      29.307    184.2727423           2          
MisPlume(west)    GOM_UW_1704    2017-04-08T13:49:10Z    -90.2755   28.7701   21.7071      29.296    182.8277314           2          
MisPlume(west)    GOM_UW_1704    2017-04-08T13:50:38Z    -90.2757   28.774    21.6706      29.287    181.6601374           2          
MisPlume(west)    GOM_UW_1704    2017-04-08T13:52:05Z    -90.276    28.7779   21.6815      29.397    179.1911291           2          
MisPlume(west)    GOM_UW_1704    2017-04-08T13:53:34Z    -90.2762   28.7819   21.6859      29.421    179.2820235           2          
MisPlume(west)    GOM_UW_1704    2017-04-08T13:55:01Z    -90.2765   28.7858   21.7271      29.462    179.3018831           2          
MisPlume(west)    GOM_UW_1704    2017-04-08T13:56:30Z    -90.2763   28.788    21.7594      29.47     179.1259875           2          
MisPlume(west)    GOM_UW_1704    2017-04-08T13:57:58Z    -90.2768   28.7887   21.7618      29.467    182.7677015           2          
MisPlume(west)    GOM_UW_1704    2017-04-08T13:59:27Z    -90.2775   28.7891   21.755       29.46     184.0068824           2          
MisPlume(west)    GOM_UW_1704    2017-04-08T14:00:54Z    -90.2783   28.7895   21.7631      29.467    177.9427317           2          
MisPlume(west)    GOM_UW_1704    2017-04-08T14:02:23Z    -90.2791   28.7897   21.7781      29.469    178.2366021           2          
MisPlume(west)    GOM_UW_1704    2017-04-08T14:03:51Z    -90.2797   28.7898   21.7862      29.47     176.1224341           2          
MisPlume(west)    GOM_UW_1704    2017-04-08T14:05:22Z    -90.2803   28.7899   21.7791      29.473    176.008181            2          
MisPlume(west)    GOM_UW_1704    2017-04-08T14:06:52Z    -90.281    28.7899   21.7807      29.467    176.7054049           2          
MisPlume(west)    GOM_UW_1704    2017-04-08T14:08:19Z    -90.2816   28.79     21.7855      29.475    176.4812354           2          
MisPlume(west)    GOM_UW_1704    2017-04-08T14:09:49Z    -90.2823   28.7901   21.7895      29.476    177.5791322           2          
MisPlume(west)    GOM_UW_1704    2017-04-08T14:11:17Z    -90.2829   28.7902   21.7833      29.48     175.6365473           2          
MisPlume(west)    GOM_UW_1704    2017-04-08T14:12:44Z    -90.2836   28.7904   21.7859      29.475    175.3694773           2          
MisPlume(west)    GOM_UW_1704    2017-04-08T14:14:13Z    -90.2843   28.7905   21.8097      29.496    174.8288627           2          
MisPlume(west)    GOM_UW_1704    2017-04-08T14:15:40Z    -90.2868   28.7918   21.7962      29.497    175.3083346           2          
MisPlume(west)    GOM_UW_1704    2017-04-08T14:17:10Z    -90.2911   28.7936   21.818       29.549    175.7357183           2          
MisPlume(west)    GOM_UW_1704    2017-04-08T14:18:38Z    -90.2955   28.7954   21.824       29.576    176.7747983           2          
MisPlume(west)    GOM_UW_1704    2017-04-08T14:20:09Z    -90.3001   28.7972   21.8413      29.676    178.7214385           2          
MisPlume(west)    GOM_UW_1704    2017-04-08T14:21:39Z    -90.3045   28.799    21.8423      29.764    177.8203129           2          
MisPlume(west)    GOM_UW_1704    2017-04-08T14:23:11Z    -90.3091   28.8008   21.8717      29.844    175.3132374           2          
MisPlume(west)    GOM_UW_1704    2017-04-08T14:24:39Z    -90.3134   28.8026   21.8939      29.97     175.7868485           2          
MisPlume(west)    GOM_UW_1704    2017-04-08T14:26:11Z    -90.3179   28.8045   21.9224      30.02     179.4838847           2          
MisPlume(west)    GOM_UW_1704    2017-04-08T14:27:40Z    -90.3222   28.8063   21.9217      30.104    180.7652586           2          
MisPlume(west)    GOM_UW_1704    2017-04-08T14:29:09Z    -90.3266   28.808    21.9273      30.142    177.9021034           2          
MisPlume(west)    GOM_UW_1704    2017-04-08T14:30:36Z    -90.3309   28.8098   21.9513      30.149    178.0695619           2          
MisPlume(west)    GOM_UW_1704    2017-04-08T14:32:04Z    -90.3352   28.8115   21.9439      30.206    182.3102519           2          
MisPlume(west)    GOM_UW_1704    2017-04-08T14:33:33Z    -90.3395   28.8133   21.9667      30.234    178.9924067           2          
MisPlume(west)    GOM_UW_1704    2017-04-08T14:35:04Z    -90.344    28.8151   21.9959      30.254    177.5628492           2          
MisPlume(west)    GOM_UW_1704    2017-04-08T14:36:32Z    -90.3482   28.8168   22.012       30.235    179.2998492           2          
MisPlume(west)    GOM_UW_1704    2017-04-08T14:38:03Z    -90.3527   28.8186   22.0246      30.258    180.3188394           2          
MisPlume(west)    GOM_UW_1704    2017-04-08T14:39:32Z    -90.357    28.8202   22.0179      30.278    181.4257617           2          
MisPlume(west)    GOM_UW_1704    2017-04-08T14:41:00Z    -90.3613   28.8219   22.0005      30.267    181.9561885           2          
MisPlume(west)    GOM_UW_1704    2017-04-08T14:42:29Z    -90.3656   28.8236   21.9956      30.292    181.7236433           2          
MisPlume(west)    GOM_UW_1704    2017-04-08T14:43:59Z    -90.37     28.8253   22.0108      30.327    184.8398773           2          
MisPlume(west)    GOM_UW_1704    2017-04-08T14:45:28Z    -90.3744   28.827    22.0213      30.366    183.3391337           2          
MisPlume(west)    GOM_UW_1704    2017-04-08T14:46:56Z    -90.3786   28.8286   22.0288      30.496    186.2858749           2          
MisPlume(west)    GOM_UW_1704    2017-04-08T14:48:26Z    -90.383    28.8304   22.0123      30.478    189.6880709           2          
MisPlume(west)    GOM_UW_1704    2017-04-08T14:49:55Z    -90.3873   28.8321   21.997       30.475    188.3329326           2          
MisPlume(west)    GOM_UW_1704    2017-04-08T14:51:25Z    -90.3917   28.8338   21.9771      30.483    189.1302003           2          
MisPlume(west)    GOM_UW_1704    2017-04-08T14:52:54Z    -90.396    28.8355   21.983       30.496    189.9863145           2          
MisPlume(west)    GOM_UW_1704    2017-04-08T14:54:22Z    -90.4003   28.8371   21.9667      30.498    189.1028696           2          
MisPlume(west)    GOM_UW_1704    2017-04-08T14:55:51Z    -90.4046   28.8388   21.9332      30.482    188.6185469           2          
MisPlume(west)    GOM_UW_1704    2017-04-08T14:57:18Z    -90.4089   28.8405   21.8836      30.486    187.0703207           2          
MisPlume(west)    GOM_UW_1704    2017-04-08T14:58:50Z    -90.4134   28.8422   21.8369      30.505    189.6562188           2          
MisPlume(west)    GOM_UW_1704    2017-04-08T15:00:18Z    -90.4178   28.8435   21.771       30.485    192.1162128           2          
MisPlume(west)    GOM_UW_1704    2017-04-08T15:01:47Z    -90.4223   28.8449   21.7275      30.624    191.1720176           2          
MisPlume(west)    GOM_UW_1704    2017-04-08T15:03:16Z    -90.4268   28.8463   21.6802      30.611    189.0114876           2          
MisPlume(west)    GOM_UW_1704    2017-04-08T15:04:44Z    -90.4312   28.8476   21.8189      31.289    194.7534481           2          
MisPlume(west)    GOM_UW_1704    2017-04-08T15:06:12Z    -90.4355   28.8489   21.817       31.313    208.6478265           2          
MisPlume(west)    GOM_UW_1704    2017-04-08T15:07:40Z    -90.4399   28.8502   21.8183      31.374    209.9555985           2          
MisPlume(west)    GOM_UW_1704    2017-04-08T15:09:09Z    -90.4443   28.8515   21.7747      31.336    209.2039917           2          
MisPlume(west)    GOM_UW_1704    2017-04-08T15:10:37Z    -90.4486   28.8528   21.792       31.456    209.8392806           2          
MisPlume(west)    GOM_UW_1704    2017-04-08T15:12:06Z    -90.453    28.8541   21.8112      32.039    215.5074325           2          
MisPlume(west)    GOM_UW_1704    2017-04-08T15:13:34Z    -90.4571   28.8554   21.8585      32.138    221.8554266           2          
MisPlume(west)    GOM_UW_1704    2017-04-08T15:15:06Z    -90.4614   28.8567   22.0877      32.4      264.7641302           2          
MisPlume(west)    GOM_UW_1704    2017-04-08T15:16:34Z    -90.4655   28.8579   22.0481      32.358    275.4670523           2          
MisPlume(west)    GOM_UW_1704    2017-04-08T15:18:03Z    -90.4696   28.8592   22.0618      32.358    274.3978199           2          
MisPlume(west)    GOM_UW_1704    2017-04-08T15:19:31Z    -90.4737   28.8604   22.0812      32.314    288.6315998           2          
MisPlume(west)    GOM_UW_1704    2017-04-08T15:21:00Z    -90.4778   28.8616   22.0905      32.254    291.8573843           2          
MisPlume(west)    GOM_UW_1704    2017-04-08T15:22:29Z    -90.4819   28.8628   22.0678      32.159    287.8805947           2          
MisPlume(west)    GOM_UW_1704    2017-04-08T15:23:58Z    -90.486    28.8641   22.0854      32.06     283.6192863           2          
MisPlume(west)    GOM_UW_1704    2017-04-08T15:25:26Z    -90.4877   28.8646   22.0626      31.951    283.3437165           2          
MisPlume(west)    GOM_UW_1704    2017-04-08T15:26:55Z    -90.4881   28.8649   22.0755      31.93     282.0240949           2          
MisPlume(west)    GOM_UW_1704    2017-04-08T15:28:23Z    -90.4884   28.865    22.0713      31.926    282.627832            2          
MisPlume(west)    GOM_UW_1704    2017-04-08T15:29:51Z    -90.4886   28.8652   22.0861      31.92     284.9266113           2          
MisPlume(west)    GOM_UW_1704    2017-04-08T15:31:19Z    -90.4892   28.8651   22.0633      31.913    284.6673179           2          
MisPlume(west)    GOM_UW_1704    2017-04-08T15:32:48Z    -90.4909   28.8658   22.0595      31.884    284.5992737           2          
MisPlume(west)    GOM_UW_1704    2017-04-08T15:34:16Z    -90.4914   28.866    22.0824      31.844    285.0195093           2          
MisPlume(west)    GOM_UW_1704    2017-04-08T15:35:47Z    -90.4919   28.8659   22.082       31.841    290.1249242           2          
MisPlume(west)    GOM_UW_1704    2017-04-08T15:37:18Z    -90.4923   28.8659   22.0839      31.832    286.2352995           2          
MisPlume(west)    GOM_UW_1704    2017-04-08T15:38:49Z    -90.4927   28.8657   22.0972      31.826    287.3520508           2          
MisPlume(west)    GOM_UW_1704    2017-04-08T15:40:20Z    -90.493    28.8656   22.0931      31.822    287.0951909           2          
MisPlume(west)    GOM_UW_1704    2017-04-08T15:41:48Z    -90.4933   28.8654   22.0941      31.82     287.3426945           2          
MisPlume(west)    GOM_UW_1704    2017-04-08T15:43:17Z    -90.4936   28.8652   22.0939      31.816    286.7221828           2          
MisPlume(west)    GOM_UW_1704    2017-04-08T15:44:46Z    -90.4939   28.865    22.0959      31.815    285.5643523           2          
MisPlume(west)    GOM_UW_1704    2017-04-08T15:46:14Z    -90.4942   28.8649   22.0925      31.812    285.7964636           2          
MisPlume(west)    GOM_UW_1704    2017-04-08T15:47:44Z    -90.4946   28.8647   22.0863      31.809    285.3265979           2          
MisPlume(west)    GOM_UW_1704    2017-04-08T15:49:12Z    -90.4949   28.8646   22.1019      31.808    285.1207848           2          
MisPlume(west)    GOM_UW_1704    2017-04-08T15:50:40Z    -90.4952   28.8644   22.1144      31.814    285.4280484           2          
MisPlume(west)    GOM_UW_1704    2017-04-08T15:52:09Z    -90.4955   28.8643   22.1246      31.816    285.9909283           2          
MisPlume(west)    GOM_UW_1704    2017-04-08T15:53:39Z    -90.4958   28.8642   22.1837      31.838    287.9910125           2          
MisPlume(west)    GOM_UW_1704    2017-04-08T15:55:10Z    -90.4961   28.864    22.2547      31.856    291.1255254           2          
MisPlume(west)    GOM_UW_1704    2017-04-08T15:56:41Z    -90.4964   28.8638   22.2735      31.854    294.7122215           2          
MisPlume(west)    GOM_UW_1704    2017-04-08T15:58:12Z    -90.4968   28.8637   22.2871      31.844    295.9343663           2          
MisPlume(west)    GOM_UW_1704    2017-04-08T15:59:40Z    -90.4971   28.8635   22.2855      31.85     295.040021            2          
MisPlume(west)    GOM_UW_1704    2017-04-08T16:01:11Z    -90.4974   28.8634   22.2908      31.837    294.9473543           2          
MisPlume(west)    GOM_UW_1704    2017-04-08T16:02:39Z    -90.4977   28.8632   22.2979      31.834    292.7513248           2          
MisPlume(west)    GOM_UW_1704    2017-04-08T16:04:08Z    -90.498    28.863    22.295       31.834    292.6364003           2          
MisPlume(west)    GOM_UW_1704    2017-04-08T16:05:37Z    -90.4984   28.8629   22.2948      31.835    293.2010402           2          
MisPlume(west)    GOM_UW_1704    2017-04-08T16:07:09Z    -90.4988   28.8627   22.3002      31.828    292.5978693           2          
MisPlume(west)    GOM_UW_1704    2017-04-08T16:08:38Z    -90.4992   28.8625   22.3028      31.826    290.6493077           2          
MisPlume(west)    GOM_UW_1704    2017-04-08T16:21:17Z    -90.4968   28.8652   22.18        31.839    286.6180866           2          
MisPlume(west)    GOM_UW_1704    2017-04-08T16:22:49Z    -90.4972   28.8652   22.1982      31.846    287.0006427           2          
MisPlume(west)    GOM_UW_1704    2017-04-08T16:24:17Z    -90.4976   28.8651   22.2177      31.852    287.9446862           2          
MisPlume(west)    GOM_UW_1704    2017-04-08T16:25:46Z    -90.498    28.8651   22.2399      31.862    288.101984            2          
MisPlume(west)    GOM_UW_1704    2017-04-08T16:27:14Z    -90.4984   28.865    22.2779      31.872    290.2465137           2          
MisPlume(west)    GOM_UW_1704    2017-04-08T16:28:46Z    -90.4988   28.8649   22.3014      31.88     292.3570988           2          
MisPlume(west)    GOM_UW_1704    2017-04-08T16:30:15Z    -90.4991   28.8648   22.3301      31.884    294.209403            2          
MisPlume(west)    GOM_UW_1704    2017-04-08T16:31:44Z    -90.4995   28.8648   22.3216      31.89     295.0097654           2          
MisPlume(west)    GOM_UW_1704    2017-04-08T16:33:12Z    -90.4989   28.8653   22.3134      31.889    296.0888278           2          
MisPlume(west)    GOM_UW_1704    2017-04-08T16:34:40Z    -90.4962   28.8653   22.2119      31.858    294.4618456           2          
MisPlume(west)    GOM_UW_1704    2017-04-08T16:36:12Z    -90.4957   28.8653   22.1729      31.896    288.1290364           2          
MisPlume(west)    GOM_UW_1704    2017-04-08T16:37:40Z    -90.4959   28.8653   22.1535      31.899    286.1357464           2          
MisPlume(west)    GOM_UW_1704    2017-04-08T16:39:08Z    -90.4962   28.8652   22.1617      31.899    285.5584536           2          
MisPlume(west)    GOM_UW_1704    2017-04-08T16:40:38Z    -90.4965   28.8653   22.1606      31.9      284.7116181           2          
MisPlume(west)    GOM_UW_1704    2017-04-08T16:42:07Z    -90.4969   28.8653   22.1743      31.893    285.4497085           2          
MisPlume(west)    GOM_UW_1704    2017-04-08T16:43:39Z    -90.4973   28.8652   22.189       31.891    286.5498124           2          
MisPlume(west)    GOM_UW_1704    2017-04-08T16:45:07Z    -90.4976   28.8652   22.1997      31.888    284.5286759           2          
MisPlume(west)    GOM_UW_1704    2017-04-08T16:46:35Z    -90.498    28.8652   22.2139      31.885    285.0186723           2          
MisPlume(west)    GOM_UW_1704    2017-04-08T16:48:03Z    -90.4984   28.8652   22.2186      31.882    284.3751681           2          
MisPlume(west)    GOM_UW_1704    2017-04-08T16:49:31Z    -90.4987   28.8651   22.2122      31.877    284.3113359           2          
MisPlume(west)    GOM_UW_1704    2017-04-08T16:51:01Z    -90.4991   28.865    22.2145      31.873    284.7272323           2          
MisPlume(west)    GOM_UW_1704    2017-04-08T17:30:08Z    -90.5026   28.865    22.4718      31.837    299.587808            2          
MisPlume(west)    GOM_UW_1704    2017-04-08T17:31:36Z    -90.4996   28.8658   22.4181      31.903    292.6344655           2          
MisPlume(west)    GOM_UW_1704    2017-04-08T17:33:04Z    -90.4971   28.8665   22.2983      31.926    286.2011986           2          
MisPlume(west)    GOM_UW_1704    2017-04-08T17:34:32Z    -90.4967   28.867    22.3352      31.968    290.7954995           2          
MisPlume(west)    GOM_UW_1704    2017-04-08T17:36:00Z    -90.4967   28.867    22.2426      31.966    288.1346343           2          
MisPlume(west)    GOM_UW_1704    2017-04-08T17:37:31Z    -90.4967   28.8671   22.2455      31.973    287.6638463           2          
MisPlume(west)    GOM_UW_1704    2017-04-08T17:50:52Z    -90.4965   28.8671   22.2707      32.031    296.4258744           2          
MisPlume(west)    GOM_UW_1704    2017-04-08T17:52:21Z    -90.4965   28.8672   22.244       32.008    295.0077697           2          
MisPlume(west)    GOM_UW_1704    2017-04-08T17:53:53Z    -90.4965   28.8672   22.2137      32.019    287.2801284           2          
MisPlume(west)    GOM_UW_1704    2017-04-08T17:55:20Z    -90.4965   28.8672   22.3264      32.009    288.1615101           2          
MisPlume(west)    GOM_UW_1704    2017-04-08T17:56:50Z    -90.4965   28.8672   22.3117      32.006    284.7341123           2          
MisPlume(west)    GOM_UW_1704    2017-04-08T17:58:21Z    -90.4965   28.8672   22.2417      32.034    283.8275955           2          
MisPlume(west)    GOM_UW_1704    2017-04-08T17:59:51Z    -90.4966   28.8672   22.2279      32.047    284.5931447           2          
MisPlume(west)    GOM_UW_1704    2017-04-08T18:01:19Z    -90.4967   28.8673   22.2356      32.05     291.5703994           2          
MisPlume(west)    GOM_UW_1704    2017-04-08T18:02:48Z    -90.497    28.8675   22.2704      32.034    290.3847478           2          
MisPlume(west)    GOM_UW_1704    2017-04-08T18:04:20Z    -90.4972   28.8678   22.3847      32.014    289.1817744           2          
MisPlume(west)    GOM_UW_1704    2017-04-08T18:05:50Z    -90.4974   28.8679   22.4319      32.016    287.0426677           2          
MisPlume(west)    GOM_UW_1704    2017-04-08T18:07:21Z    -90.4977   28.8679   22.3918      32.01     284.9800907           2          
MisPlume(west)    GOM_UW_1704    2017-04-08T18:08:49Z    -90.498    28.868    22.4188      32.009    289.1360043           2          
MisPlume(west)    GOM_UW_1704    2017-04-08T18:10:18Z    -90.4983   28.8681   22.4675      32.011    288.0428485           2          
MisPlume(west)    GOM_UW_1704    2017-04-08T18:11:49Z    -90.4986   28.8683   22.4757      32.013    286.3148747           2          
MisPlume(west)    GOM_UW_1704    2017-04-08T18:13:18Z    -90.4989   28.8684   22.4531      32.008    287.4819266           2          
MisPlume(west)    GOM_UW_1704    2017-04-08T18:14:50Z    -90.4991   28.8686   22.4359      32.001    289.4992926           2          
MisPlume(west)    GOM_UW_1704    2017-04-08T18:16:19Z    -90.4994   28.8687   22.4511      31.993    291.3531285           2          
MisPlume(west)    GOM_UW_1704    2017-04-08T18:17:49Z    -90.4996   28.8688   22.4643      31.99     290.3563047           2          
MisPlume(west)    GOM_UW_1704    2017-04-08T18:19:18Z    -90.4999   28.869    22.4467      31.991    292.6517025           2          
MisPlume(west)    GOM_UW_1704    2017-04-08T18:20:46Z    -90.5001   28.8692   22.4323      31.992    295.5259987           2          
MisPlume(west)    GOM_UW_1704    2017-04-08T18:22:14Z    -90.5003   28.8694   22.4441      31.984    293.5655724           2          
MisPlume(west)    GOM_UW_1704    2017-04-08T18:23:42Z    -90.5006   28.8696   22.4278      31.985    289.1790621           2          
MisPlume(west)    GOM_UW_1704    2017-04-08T18:25:11Z    -90.5008   28.8697   22.3957      31.988    292.4974456           2          
MisPlume(west)    GOM_UW_1704    2017-04-08T18:26:42Z    -90.501    28.8699   22.4476      31.983    292.4591348           2          
MisPlume(west)    GOM_UW_1704    2017-04-08T18:28:14Z    -90.5012   28.8701   22.4963      31.988    291.9557715           2          
MisPlume(west)    GOM_UW_1704    2017-04-08T18:29:41Z    -90.5014   28.8703   22.4555      31.978    290.6438575           2          
MisPlume(west)    GOM_UW_1704    2017-04-08T18:31:10Z    -90.5015   28.8705   22.4345      31.972    292.0152363           2          
MisPlume(west)    GOM_UW_1704    2017-04-08T18:32:41Z    -90.5018   28.8705   22.468       31.97     289.6581873           2          
MisPlume(west)    GOM_UW_1704    2017-04-08T18:34:09Z    -90.4999   28.87     22.4626      31.973    290.5832756           2          
MisPlume(west)    GOM_UW_1704    2017-04-08T18:35:39Z    -90.4965   28.8695   22.4867      32.025    292.671908            2          
MisPlume(west)    GOM_UW_1704    2017-04-08T18:37:07Z    -90.4943   28.8692   22.4613      32.056    287.701205            2          
MisPlume(west)    GOM_UW_1704    2017-04-08T18:38:38Z    -90.4922   28.869    22.4102      32.085    286.6643575           2          
MisPlume(west)    GOM_UW_1704    2017-04-08T18:40:07Z    -90.492    28.869    22.3992      32.1      286.7974073           2          
MisPlume(west)    GOM_UW_1704    2017-04-08T18:41:35Z    -90.4918   28.8687   22.3773      32.09     285.2384415           2          
MisPlume(west)    GOM_UW_1704    2017-04-08T18:43:06Z    -90.4918   28.8687   22.1851      32.142    286.4418147           2          
MisPlume(west)    GOM_UW_1704    2017-04-08T18:44:34Z    -90.492    28.8687   22.1788      32.128    284.1398523           2          
MisPlume(west)    GOM_UW_1704    2017-04-08T18:46:04Z    -90.4922   28.8688   22.4055      32.091    281.9234121           2          
MisPlume(west)    GOM_UW_1704    2017-04-08T18:47:35Z    -90.4922   28.8688   22.215       32.123    285.3352021           2          
MisPlume(west)    GOM_UW_1704    2017-04-08T18:49:04Z    -90.4924   28.8688   22.2307      32.158    285.6825068           2          
MisPlume(west)    GOM_UW_1704    2017-04-08T18:50:32Z    -90.4927   28.8688   22.3474      32.093    283.6681187           2          
MisPlume(west)    GOM_UW_1704    2017-04-08T18:52:03Z    -90.4929   28.8689   22.3137      32.081    281.7941376           2          
MisPlume(west)    GOM_UW_1704    2017-04-08T18:53:31Z    -90.4931   28.869    22.3588      32.079    281.8457971           2          
MisPlume(west)    GOM_UW_1704    2017-04-08T18:54:59Z    -90.4933   28.869    22.4218      32.082    283.9488193           2          
MisPlume(west)    GOM_UW_1704    2017-04-08T18:56:27Z    -90.4936   28.8692   22.5663      32.09     284.3608207           2          
MisPlume(west)    GOM_UW_1704    2017-04-08T18:57:56Z    -90.4938   28.8693   22.609       32.095    284.3786994           2          
MisPlume(west)    GOM_UW_1704    2017-04-08T18:59:27Z    -90.494    28.8695   22.6306      32.095    288.3137596           2          
MisPlume(west)    GOM_UW_1704    2017-04-08T19:00:58Z    -90.4943   28.8697   22.6534      32.093    289.3187797           2          
MisPlume(west)    GOM_UW_1704    2017-04-08T19:02:25Z    -90.4945   28.8699   22.6455      32.065    289.395888            2          
MisPlume(west)    GOM_UW_1704    2017-04-08T19:03:53Z    -90.4947   28.8701   22.6169      32.054    290.056272            2          
MisPlume(west)    GOM_UW_1704    2017-04-08T19:05:21Z    -90.4948   28.8703   22.5881      32.077    284.0438188           2          
MisPlume(west)    GOM_UW_1704    2017-04-08T19:06:49Z    -90.495    28.8705   22.5914      32.077    281.5194389           2          
MisPlume(west)    GOM_UW_1704    2017-04-08T19:08:21Z    -90.4952   28.8707   22.6007      32.079    282.0702522           2          
MisPlume(west)    GOM_UW_1704    2017-04-08T19:09:49Z    -90.4954   28.8709   22.609       32.081    283.2919915           2          
MisPlume(west)    GOM_UW_1704    2017-04-08T19:11:20Z    -90.4956   28.871    22.5749      32.079    286.8911354           2          
MisPlume(west)    GOM_UW_1704    2017-04-08T19:12:47Z    -90.4958   28.8712   22.5642      32.072    288.8435893           2          
MisPlume(west)    GOM_UW_1704    2017-04-08T19:14:16Z    -90.496    28.8714   22.5649      32.075    286.7884706           2          
MisPlume(west)    GOM_UW_1704    2017-04-08T19:15:43Z    -90.4962   28.8716   22.5411      32.083    291.7250016           2          
MisPlume(west)    GOM_UW_1704    2017-04-08T19:17:12Z    -90.4974   28.8733   22.5879      32.066    288.7293698           2          
MisPlume(west)    GOM_UW_1704    2017-04-08T19:18:41Z    -90.4985   28.8766   22.6032      32.041    291.0571918           2          
MisPlume(west)    GOM_UW_1704    2017-04-08T19:20:11Z    -90.4997   28.88     22.604       32.003    286.8979434           2          
MisPlume(west)    GOM_UW_1704    2017-04-08T19:21:40Z    -90.5009   28.8836   22.5162      31.897    296.9620107           2          
MisPlume(west)    GOM_UW_1704    2017-04-08T19:23:08Z    -90.5022   28.8873   22.6593      31.966    290.5373501           2          
MisPlume(west)    GOM_UW_1704    2017-04-08T19:24:37Z    -90.5035   28.8909   22.6627      31.85     293.5243827           2          
MisPlume(west)    GOM_UW_1704    2017-04-08T19:26:05Z    -90.5047   28.8945   22.6868      31.852    291.9619563           2          
MisPlume(west)    GOM_UW_1704    2017-04-08T19:27:36Z    -90.506    28.8983   22.6887      31.838    295.8308887           2          
MisPlume(west)    GOM_UW_1704    2017-04-08T19:29:04Z    -90.5073   28.9019   22.6654      31.814    295.810205            2          
MisPlume(west)    GOM_UW_1704    2017-04-08T19:30:35Z    -90.5087   28.9057   22.6591      31.797    291.3006033           2          
MisPlume(west)    GOM_UW_1704    2017-04-08T19:32:03Z    -90.5099   28.9094   22.7059      31.792    292.7458373           2          
MisPlume(west)    GOM_UW_1704    2017-04-08T19:33:32Z    -90.5112   28.9131   22.6999      31.804    293.1481401           2          
MisPlume(west)    GOM_UW_1704    2017-04-08T19:35:01Z    -90.5125   28.9168   22.8207      31.832    290.857805            2          
MisPlume(west)    GOM_UW_1704    2017-04-08T19:36:31Z    -90.5138   28.9206   22.7973      31.828    293.7031709           2          
MisPlume(west)    GOM_UW_1704    2017-04-08T19:37:59Z    -90.5151   28.9243   22.659       31.76     292.8052842           2          
MisPlume(west)    GOM_UW_1704    2017-04-08T19:39:29Z    -90.5165   28.928    22.7827      31.836    287.9223753           2          
MisPlume(west)    GOM_UW_1704    2017-04-08T19:41:00Z    -90.5178   28.9319   22.6815      31.856    279.4799347           2          
MisPlume(west)    GOM_UW_1704    2017-04-08T19:42:27Z    -90.519    28.9355   22.6813      31.78     270.387131            2          
MisPlume(west)    GOM_UW_1704    2017-04-08T19:43:55Z    -90.5203   28.9392   22.6849      31.682    258.8086764           2          
MisPlume(west)    GOM_UW_1704    2017-04-08T19:45:26Z    -90.5217   28.9431   22.7714      31.536    239.434235            2          
MisPlume(west)    GOM_UW_1704    2017-04-08T19:46:54Z    -90.523    28.9469   22.736       31.456    243.161681            2          
MisPlume(west)    GOM_UW_1704    2017-04-08T19:48:22Z    -90.5241   28.9501   22.7689      31.418    245.3091438           2          
MisPlume(west)    GOM_UW_1704    2017-04-08T19:49:50Z    -90.5244   28.9507   22.6048      31.397    247.9422431           2          
MisPlume(west)    GOM_UW_1704    2017-04-08T19:51:20Z    -90.5248   28.951    22.4577      31.408    255.1495221           2          
MisPlume(west)    GOM_UW_1704    2017-04-08T19:52:49Z    -90.5252   28.9512   22.6133      31.382    246.8486729           2          
MisPlume(west)    GOM_UW_1704    2017-04-08T19:54:18Z    -90.5256   28.9515   22.4987      31.38     243.5388925           2          
MisPlume(west)    GOM_UW_1704    2017-04-08T19:55:48Z    -90.526    28.9517   22.5386      31.377    244.361735            2          
MisPlume(west)    GOM_UW_1704    2017-04-08T19:57:17Z    -90.5263   28.9519   22.5947      31.373    243.1466042           2          
MisPlume(west)    GOM_UW_1704    2017-04-08T19:58:48Z    -90.5265   28.9523   22.6316      31.362    243.1420169           2          
MisPlume(west)    GOM_UW_1704    2017-04-08T20:00:16Z    -90.5253   28.9535   22.6613      31.355    247.0275742           2          
MisPlume(west)    GOM_UW_1704    2017-04-08T20:01:47Z    -90.5238   28.9552   22.686       31.318    244.9343256           2          
MisPlume(west)    GOM_UW_1704    2017-04-08T20:03:16Z    -90.5222   28.957    22.8373      31.207    245.8198709           2          
MisPlume(west)    GOM_UW_1704    2017-04-08T20:04:45Z    -90.5206   28.9587   22.852       31.16     241.8022763           2          
MisPlume(west)    GOM_UW_1704    2017-04-08T20:06:12Z    -90.519    28.9605   22.8213      31.134    242.3975214           2          
MisPlume(west)    GOM_UW_1704    2017-04-08T20:07:41Z    -90.5174   28.9622   22.8257      31.09     247.2938971           2          
MisPlume(west)    GOM_UW_1704    2017-04-08T20:09:09Z    -90.5159   28.964    22.8007      31.044    245.348407            2          
MisPlume(west)    GOM_UW_1704    2017-04-08T20:10:37Z    -90.5143   28.9657   22.7025      30.991    248.4059148           2          
MisPlume(west)    GOM_UW_1704    2017-04-08T20:12:07Z    -90.5128   28.9674   22.6427      30.94     246.7319242           2          
MisPlume(west)    GOM_UW_1704    2017-04-08T20:13:36Z    -90.5113   28.9691   22.621       30.896    246.6412628           2          
MisPlume(west)    GOM_UW_1704    2017-04-08T20:15:04Z    -90.5098   28.9708   22.6458      30.834    248.2798186           2          
MisPlume(west)    GOM_UW_1704    2017-04-08T20:16:32Z    -90.5083   28.9724   22.7278      30.761    247.2907112           2          
MisPlume(west)    GOM_UW_1704    2017-04-08T20:18:03Z    -90.5068   28.9742   22.7902      30.729    243.1674451           2          
MisPlume(west)    GOM_UW_1704    2017-04-08T20:19:30Z    -90.5049   28.9761   22.808       30.718    250.818263            2          
MisPlume(west)    GOM_UW_1704    2017-04-08T20:21:02Z    -90.5022   28.9792   22.7853      30.661    249.205904            2          
MisPlume(west)    GOM_UW_1704    2017-04-08T20:22:30Z    -90.4997   28.9822   22.5216      30.572    251.0894659           2          
MisPlume(west)    GOM_UW_1704    2017-04-08T20:23:57Z    -90.497    28.9851   22.5993      30.445    247.7442874           2          
MisPlume(west)    GOM_UW_1704    2017-04-08T20:25:29Z    -90.4942   28.9882   22.738       30.33     244.2582682           2          
MisPlume(west)    GOM_UW_1704    2017-04-08T20:26:56Z    -90.4916   28.9912   22.6324      30.282    242.8141928           2          
MisPlume(west)    GOM_UW_1704    2017-04-08T20:28:25Z    -90.4889   28.9942   22.6992      30.233    240.2796773           2          
MisPlume(west)    GOM_UW_1704    2017-04-08T20:29:53Z    -90.4862   28.9972   22.7394      30.172    239.504832            2          
MisPlume(west)    GOM_UW_1704    2017-04-08T20:31:21Z    -90.4835   29.0002   22.783       30.09     235.4671484           2          
MisPlume(west)    GOM_UW_1704    2017-04-08T20:32:48Z    -90.4809   29.0031   22.8325      30.027    234.1758337           2          
MisPlume(west)    GOM_UW_1704    2017-04-08T20:34:17Z    -90.4782   29.0061   23.0172      29.864    237.1396272           2          
MisPlume(west)    GOM_UW_1704    2017-04-08T20:35:44Z    -90.4756   29.0091   22.7061      29.82     227.7862016           2          
MisPlume(west)    GOM_UW_1704    2017-04-08T20:37:12Z    -90.4729   29.0122   22.9147      29.835    226.7188803           2          
MisPlume(west)    GOM_UW_1704    2017-04-08T20:38:41Z    -90.4702   29.0151   22.8271      29.833    228.0389826           2          
MisPlume(west)    GOM_UW_1704    2017-04-08T20:40:09Z    -90.4675   29.0181   22.8308      29.795    225.447366            2          
MisPlume(west)    GOM_UW_1704    2017-04-08T20:41:38Z    -90.4654   29.02     22.9481      29.771    225.4910074           2          
MisPlume(west)    GOM_UW_1704    2017-04-08T20:43:05Z    -90.4647   29.0203   23           29.785    227.5675945           2          
MisPlume(west)    GOM_UW_1704    2017-04-08T20:44:33Z    -90.4646   29.0204   22.5811      30.026    229.3011531           2          
MisPlume(west)    GOM_UW_1704    2017-04-08T20:46:04Z    -90.4646   29.0204   22.6658      29.928    242.7043362           2          
MisPlume(west)    GOM_UW_1704    2017-04-08T20:47:33Z    -90.4645   29.0205   22.6851      29.864    222.279725            2          
MisPlume(west)    GOM_UW_1704    2017-04-08T21:00:12Z    -90.458    29.0191   22.8835      29.818    222.8290173           2          
MisPlume(west)    GOM_UW_1704    2017-04-08T21:01:40Z    -90.4541   29.0178   22.8766      29.871    224.8586564           2          
MisPlume(west)    GOM_UW_1704    2017-04-08T21:03:09Z    -90.45     29.0165   22.8735      29.905    224.8442027           2          
MisPlume(west)    GOM_UW_1704    2017-04-08T21:04:37Z    -90.446    29.0152   22.7965      29.933    226.6145438           2          
MisPlume(west)    GOM_UW_1704    2017-04-08T21:06:08Z    -90.4419   29.0139   22.7843      29.971    227.8904904           2          
MisPlume(west)    GOM_UW_1704    2017-04-08T21:07:36Z    -90.4379   29.0127   22.7375      30.017    228.7428651           2          
MisPlume(west)    GOM_UW_1704    2017-04-08T21:09:04Z    -90.4339   29.0114   22.5762      30.068    229.9986638           2          
MisPlume(west)    GOM_UW_1704    2017-04-08T21:10:32Z    -90.4299   29.0101   22.7953      30.099    231.6542737           2          
MisPlume(west)    GOM_UW_1704    2017-04-08T21:12:02Z    -90.4257   29.0088   22.6638      30.142    234.0934303           2          
MisPlume(west)    GOM_UW_1704    2017-04-08T21:13:32Z    -90.4217   29.0074   22.8428      30.153    237.1276929           2          
MisPlume(west)    GOM_UW_1704    2017-04-08T21:15:01Z    -90.4176   29.0061   22.8358      30.18     234.1107581           2          
MisPlume(west)    GOM_UW_1704    2017-04-08T21:16:30Z    -90.4135   29.0048   22.7317      30.209    232.6270215           2          
MisPlume(west)    GOM_UW_1704    2017-04-08T21:17:58Z    -90.4094   29.0035   22.6971      30.216    232.4325601           2          
MisPlume(west)    GOM_UW_1704    2017-04-08T21:19:27Z    -90.4053   29.0022   22.8399      30.221    234.4864644           2          
MisPlume(west)    GOM_UW_1704    2017-04-08T21:20:55Z    -90.4013   29.0009   22.8051      30.239    234.6598908           2          
MisPlume(west)    GOM_UW_1704    2017-04-08T21:22:23Z    -90.3972   29.0005   22.8481      30.228    236.2143449           2          
MisPlume(west)    GOM_UW_1704    2017-04-08T21:23:54Z    -90.3934   29.0027   22.851       30.229    237.1675674           2          
MisPlume(west)    GOM_UW_1704    2017-04-08T21:25:22Z    -90.3894   29.0045   22.8559      30.241    235.8785154           2          
MisPlume(west)    GOM_UW_1704    2017-04-08T21:26:51Z    -90.3854   29.0064   22.9073      30.225    238.1081077           2          
MisPlume(west)    GOM_UW_1704    2017-04-08T21:28:18Z    -90.3815   29.0083   22.8467      30.239    236.8054576           2          
MisPlume(west)    GOM_UW_1704    2017-04-08T21:29:49Z    -90.3774   29.0103   22.8597      30.25     234.8443576           2          
MisPlume(west)    GOM_UW_1704    2017-04-08T21:31:19Z    -90.3734   29.0122   22.8166      30.303    237.9574153           2          
MisPlume(west)    GOM_UW_1704    2017-04-08T21:32:49Z    -90.3693   29.0142   22.7418      30.336    239.0302164           2          
MisPlume(west)    GOM_UW_1704    2017-04-08T21:34:18Z    -90.3654   29.0161   22.7618      30.361    240.8548308           2          
MisPlume(west)    GOM_UW_1704    2017-04-08T21:35:48Z    -90.3613   29.0181   22.6884      30.367    243.4382606           2          
MisPlume(west)    GOM_UW_1704    2017-04-08T21:37:20Z    -90.3572   29.0201   22.72        30.358    242.508876            2          
MisPlume(west)    GOM_UW_1704    2017-04-08T21:38:47Z    -90.3532   29.022    22.7607      30.366    244.6857418           2          
MisPlume(west)    GOM_UW_1704    2017-04-08T21:40:16Z    -90.3492   29.0239   22.7768      30.376    245.7989466           2          
MisPlume(west)    GOM_UW_1704    2017-04-08T21:41:47Z    -90.3449   29.0256   22.8034      30.405    245.0003139           2          
MisPlume(west)    GOM_UW_1704    2017-04-08T21:43:15Z    -90.3408   29.0274   22.8216      30.429    246.2740853           2          
MisPlume(west)    GOM_UW_1704    2017-04-08T21:44:45Z    -90.3366   29.0291   22.7971      30.469    249.3313914           2          
MisPlume(west)    GOM_UW_1704    2017-04-08T21:46:15Z    -90.3324   29.0307   22.7155      30.516    252.3605383           2          
MisPlume(west)    GOM_UW_1704    2017-04-08T21:47:43Z    -90.3283   29.0324   22.8195      30.534    254.6352682           2          
MisPlume(west)    GOM_UW_1704    2017-04-08T21:49:13Z    -90.3242   29.0341   22.7556      30.618    261.6003583           2          
MisPlume(west)    GOM_UW_1704    2017-04-08T21:50:44Z    -90.32     29.0358   22.7787      30.64     263.1252983           2          
MisPlume(west)    GOM_UW_1704    2017-04-08T21:52:15Z    -90.3158   29.0375   22.803       30.725    273.2418627           2          
MisPlume(west)    GOM_UW_1704    2017-04-08T21:53:45Z    -90.3117   29.0392   22.7151      30.694    276.7861003           2          
MisPlume(west)    GOM_UW_1704    2017-04-08T21:55:15Z    -90.3076   29.0409   22.776       30.657    282.1983694           2          
MisPlume(west)    GOM_UW_1704    2017-04-08T21:56:44Z    -90.3035   29.0426   22.7202      30.595    294.341625            2          
MisPlume(west)    GOM_UW_1704    2017-04-08T21:58:15Z    -90.2993   29.0442   22.8365      30.711    294.7428357           2          
MisPlume(west)    GOM_UW_1704    2017-04-08T21:59:43Z    -90.2953   29.0459   22.8128      30.703    296.4660963           2          
MisPlume(west)    GOM_UW_1704    2017-04-08T22:01:14Z    -90.291    29.0472   22.8621      30.71     296.7684795           2          
MisPlume(west)    GOM_UW_1704    2017-04-08T22:02:42Z    -90.2869   29.0487   22.8578      30.459    297.7071737           2          
MisPlume(west)    GOM_UW_1704    2017-04-08T22:04:14Z    -90.2827   29.0501   22.7125      30.312    284.8424308           2          
MisPlume(west)    GOM_UW_1704    2017-04-08T22:05:44Z    -90.2785   29.0515   22.6707      30.233    281.8462411           2          
MisPlume(west)    GOM_UW_1704    2017-04-08T22:07:15Z    -90.2743   29.0529   22.6529      30.184    289.6157857           2          
MisPlume(west)    GOM_UW_1704    2017-04-08T22:08:43Z    -90.2702   29.0543   22.5616      30.157    295.4882853           2          
MisPlume(west)    GOM_UW_1704    2017-04-08T22:10:15Z    -90.2659   29.0557   22.5869      30.255    298.1888579           2          
MisPlume(west)    GOM_UW_1704    2017-04-08T22:11:46Z    -90.2617   29.0571   22.6075      30.313    296.0957148           2          
MisPlume(west)    GOM_UW_1704    2017-04-08T22:13:14Z    -90.2576   29.0585   22.5852      30.32     295.5948136           2          
MisPlume(west)    GOM_UW_1704    2017-04-08T22:14:42Z    -90.2535   29.0599   22.6234      30.424    293.4036768           2          
MisPlume(west)    GOM_UW_1704    2017-04-08T22:16:10Z    -90.2494   29.0613   22.6041      30.521    297.6073643           2          
MisPlume(west)    GOM_UW_1704    2017-04-08T22:17:40Z    -90.2451   29.0628   22.7368      30.72     285.4694524           2          
MisPlume(west)    GOM_UW_1704    2017-04-08T22:19:08Z    -90.2411   29.0644   22.6972      30.742    282.8180841           2          
MisPlume(west)    GOM_UW_1704    2017-04-08T22:20:36Z    -90.2371   29.066    22.6836      30.751    281.6336787           2          
MisPlume(west)    GOM_UW_1704    2017-04-08T22:22:07Z    -90.2329   29.0676   22.6625      30.746    278.9389027           2          
MisPlume(west)    GOM_UW_1704    2017-04-08T22:23:36Z    -90.2288   29.0692   22.7064      30.79     277.71841             2          
MisPlume(west)    GOM_UW_1704    2017-04-08T22:25:07Z    -90.2258   29.0718   22.7089      30.79     279.1551461           2          
MisPlume(west)    GOM_UW_1704    2017-04-08T22:26:34Z    -90.2235   29.075    22.6916      30.799    280.750808            2          
MisPlume(west)    GOM_UW_1704    2017-04-08T22:28:03Z    -90.2211   29.0783   22.6063      30.757    275.506552            2          
MisPlume(west)    GOM_UW_1704    2017-04-08T22:29:31Z    -90.2183   29.081    22.537       30.963    282.0845039           2          
MisPlume(west)    GOM_UW_1704    2017-04-08T22:31:00Z    -90.2142   29.0823   22.5653      30.876    285.0731301           2          
MisPlume(west)    GOM_UW_1704    2017-04-08T22:32:29Z    -90.21     29.0834   22.5648      30.897    288.687083            2          
MisPlume(west)    GOM_UW_1704    2017-04-08T22:33:59Z    -90.2058   29.0844   22.5069      30.942    289.3339293           2          
MisPlume(west)    GOM_UW_1704    2017-04-08T22:35:27Z    -90.2017   29.0854   22.5401      30.94     290.0307132           2          
MisPlume(west)    GOM_UW_1704    2017-04-08T22:36:57Z    -90.1974   29.0864   22.604       30.948    288.8438621           2          
MisPlume(west)    GOM_UW_1704    2017-04-08T22:38:27Z    -90.1931   29.0874   22.6093      30.972    288.1994268           2          
MisPlume(west)    GOM_UW_1704    2017-04-08T22:39:56Z    -90.1888   29.0884   22.6461      30.962    291.8421582           2          
MisPlume(west)    GOM_UW_1704    2017-04-08T22:41:25Z    -90.1846   29.0894   22.6506      31.015    289.7249897           2          
MisPlume(west)    GOM_UW_1704    2017-04-08T22:42:53Z    -90.1804   29.0903   22.7056      30.972    286.4580512           2          
MisPlume(west)    GOM_UW_1704    2017-04-08T22:44:21Z    -90.1762   29.0913   22.5328      31.021    284.8895673           2          
MisPlume(west)    GOM_UW_1704    2017-04-08T22:45:50Z    -90.1719   29.0923   22.5463      31.016    280.3654656           2          
MisPlume(west)    GOM_UW_1704    2017-04-08T22:47:18Z    -90.1677   29.0933   22.5699      31.003    280.0274185           2          
MisPlume(west)    GOM_UW_1704    2017-04-08T22:48:49Z    -90.1633   29.0943   22.5635      31.039    277.046697            2          
MisPlume(west)    GOM_UW_1704    2017-04-08T22:50:17Z    -90.159    29.0953   22.5614      31.037    277.5887949           2          
MisPlume(west)    GOM_UW_1704    2017-04-08T22:51:45Z    -90.1548   29.0964   22.5888      31.019    275.7573259           2          
MisPlume(west)    GOM_UW_1704    2017-04-08T22:53:13Z    -90.151    29.0983   22.599       31.069    275.4259415           2          
MisPlume(west)    GOM_UW_1704    2017-04-08T22:54:42Z    -90.1472   29.1003   22.6598      31.085    274.3447552           2          
MisPlume(west)    GOM_UW_1704    2017-04-08T22:56:14Z    -90.1434   29.1026   22.8459      30.345    267.5222879           2          
MisPlume(west)    GOM_UW_1704    2017-04-08T22:57:42Z    -90.1396   29.1048   22.8937      30.224    205.5009735           2          
MisPlume(west)    GOM_UW_1704    2017-04-08T22:59:13Z    -90.1357   29.1069   22.834       31.086    247.2893515           2          
MisPlume(west)    GOM_UW_1704    2017-04-08T23:00:41Z    -90.1318   29.1088   22.7869      30.959    277.0028045           2          
MisPlume(west)    GOM_UW_1704    2017-04-08T23:02:11Z    -90.1277   29.1108   22.8065      30.542    253.3701764           2          
MisPlume(west)    GOM_UW_1704    2017-04-08T23:03:39Z    -90.1236   29.1128   22.8534      30.087    214.3695999           2          
MisPlume(west)    GOM_UW_1704    2017-04-08T23:05:10Z    -90.1194   29.1148   22.8823      30.007    191.9465255           2          
MisPlume(west)    GOM_UW_1704    2017-04-08T23:06:40Z    -90.1152   29.1168   22.843       29.736    183.2326082           2          
MisPlume(west)    GOM_UW_1704    2017-04-08T23:08:07Z    -90.1112   29.1187   22.8636      29.597    169.3357163           2          
MisPlume(west)    GOM_UW_1704    2017-04-08T23:09:37Z    -90.1069   29.1208   22.8516      29.412    164.0913173           2          
MisPlume(west)    GOM_UW_1704    2017-04-08T23:11:06Z    -90.1028   29.1228   22.8799      29.262    156.9062031           2          
MisPlume(west)    GOM_UW_1704    2017-04-08T23:12:34Z    -90.0987   29.1248   22.858       29.17     151.8466234           2          
MisPlume(west)    GOM_UW_1704    2017-04-08T23:14:03Z    -90.0945   29.1268   22.834       29.098    149.8535744           2          
MisPlume(west)    GOM_UW_1704    2017-04-08T23:15:30Z    -90.0905   29.1287   22.8427      29.001    144.9065308           2          
MisPlume(west)    GOM_UW_1704    2017-04-08T23:17:01Z    -90.086    29.1304   22.8965      28.951    140.8011401           2          
MisPlume(west)    GOM_UW_1704    2017-04-08T23:18:30Z    -90.0816   29.1319   22.8594      28.943    140.2138799           2          
MisPlume(west)    GOM_UW_1704    2017-04-08T23:19:58Z    -90.0772   29.1336   22.9309      28.901    142.7642021           2          
MisPlume(west)    GOM_UW_1704    2017-04-08T23:21:26Z    -90.0729   29.1352   22.9464      28.85     142.1393651           2          
MisPlume(west)    GOM_UW_1704    2017-04-08T23:22:55Z    -90.0685   29.1368   22.8936      28.824    137.9765148           2          
MisPlume(west)    GOM_UW_1704    2017-04-08T23:24:26Z    -90.064    29.1385   22.9242      28.811    138.5317817           2          
MisPlume(west)    GOM_UW_1704    2017-04-08T23:25:54Z    -90.0596   29.1401   22.8334      28.778    136.0759217           2          
MisPlume(west)    GOM_UW_1704    2017-04-08T23:27:22Z    -90.0553   29.1418   22.9286      28.754    138.7493769           2          
MisPlume(west)    GOM_UW_1704    2017-04-08T23:28:53Z    -90.051    29.1439   22.8778      28.74     137.8423755           2          
MisPlume(west)    GOM_UW_1704    2017-04-08T23:30:21Z    -90.0469   29.1459   22.894       28.74     137.2800121           2          
MisPlume(west)    GOM_UW_1704    2017-04-08T23:31:50Z    -90.0427   29.148    22.945       28.691    143.9702859           2          
MisPlume(west)    GOM_UW_1704    2017-04-08T23:33:21Z    -90.0384   29.1502   22.9616      28.633    138.1030934           2          
MisPlume(west)    GOM_UW_1704    2017-04-08T23:34:50Z    -90.0343   29.1523   22.9017      28.599    140.0527925           2          
MisPlume(west)    GOM_UW_1704    2017-04-08T23:36:18Z    -90.0301   29.1544   22.8521      28.59     140.6957664           2          
MisPlume(west)    GOM_UW_1704    2017-04-08T23:37:47Z    -90.0259   29.1565   22.8517      28.555    136.6195901           2          
MisPlume(west)    GOM_UW_1704    2017-04-08T23:39:15Z    -90.0217   29.1586   22.8768      28.501    137.366602            2          
MisPlume(west)    GOM_UW_1704    2017-04-08T23:40:44Z    -90.0175   29.1608   22.8878      28.493    139.7431031           2          
MisPlume(west)    GOM_UW_1704    2017-04-08T23:42:13Z    -90.0133   29.1629   22.8898      28.467    138.617765            2          
MisPlume(west)    GOM_UW_1704    2017-04-08T23:43:41Z    -90.0091   29.165    22.8486      28.467    136.8388682           2          
MisPlume(west)    GOM_UW_1704    2017-04-08T23:45:09Z    -90.005    29.1671   22.8351      28.454    137.6642836           2          
MisPlume(west)    GOM_UW_1704    2017-04-08T23:46:39Z    -90.0007   29.1693   22.8857      28.354    144.3220447           2          
MisPlume(west)    GOM_UW_1704    2017-04-08T23:48:09Z    -89.9964   29.1715   22.9016      28.358    138.9838287           2          
MisPlume(west)    GOM_UW_1704    2017-04-08T23:49:38Z    -89.9921   29.1735   22.9081      28.367    139.8914773           2          
MisPlume(west)    GOM_UW_1704    2017-04-08T23:51:07Z    -89.9879   29.1757   22.8961      28.402    140.4439335           2          
MisPlume(west)    GOM_UW_1704    2017-04-08T23:52:36Z    -89.9837   29.1778   22.8895      28.377    141.1711394           2          
MisPlume(west)    GOM_UW_1704    2017-04-08T23:54:05Z    -89.9794   29.1799   22.8022      28.489    146.995067            2          
MisPlume(west)    GOM_UW_1704    2017-04-08T23:55:36Z    -89.9751   29.1821   22.8464      28.324    141.4582582           2          
MisPlume(west)    GOM_UW_1704    2017-04-08T23:57:05Z    -89.9709   29.1843   22.8959      28.254    142.0502114           2          
MisPlume(west)    GOM_UW_1704    2017-04-09T00:09:44Z    -89.935    29.2023   22.7083      28.356    138.0461452           2          
MisPlume(west)    GOM_UW_1704    2017-04-09T00:11:12Z    -89.9309   29.2044   22.6905      28.427    137.025109            2          
MisPlume(west)    GOM_UW_1704    2017-04-09T00:12:41Z    -89.9267   29.2064   22.7169      28.497    140.0123943           2          
MisPlume(west)    GOM_UW_1704    2017-04-09T00:14:10Z    -89.9227   29.2085   22.6084      28.498    135.5052681           2          
MisPlume(west)    GOM_UW_1704    2017-04-09T00:15:38Z    -89.9186   29.2106   22.7075      28.438    135.6727              2          
MisPlume(west)    GOM_UW_1704    2017-04-09T00:17:09Z    -89.9144   29.2127   22.7227      28.466    136.6590223           2          
MisPlume(west)    GOM_UW_1704    2017-04-09T00:18:36Z    -89.9104   29.2147   22.7408      28.435    136.4477922           2          
MisPlume(west)    GOM_UW_1704    2017-04-09T00:20:05Z    -89.9063   29.2167   22.7978      28.538    144.2833645           2          
MisPlume(west)    GOM_UW_1704    2017-04-09T00:21:35Z    -89.9022   29.2188   22.6538      28.691    140.9340126           2          
MisPlume(west)    GOM_UW_1704    2017-04-09T00:23:03Z    -89.8982   29.2208   22.5807      28.717    140.5281534           2          
MisPlume(west)    GOM_UW_1704    2017-04-09T00:24:33Z    -89.894    29.2229   22.6003      28.623    143.0908256           2          
MisPlume(west)    GOM_UW_1704    2017-04-09T00:26:03Z    -89.8899   29.225    22.727       28.615    141.089811            2          
MisPlume(west)    GOM_UW_1704    2017-04-09T00:27:31Z    -89.8859   29.227    22.6683      28.661    139.6807342           2          
MisPlume(west)    GOM_UW_1704    2017-04-09T00:29:00Z    -89.8818   29.2291   22.6776      28.598    137.757835            2          
MisPlume(west)    GOM_UW_1704    2017-04-09T00:30:29Z    -89.8777   29.2311   22.5349      28.798    136.3502559           2          
MisPlume(west)    GOM_UW_1704    2017-04-09T00:32:00Z    -89.8736   29.2332   22.5872      28.667    146.7912876           2          
MisPlume(west)    GOM_UW_1704    2017-04-09T00:33:30Z    -89.8695   29.2353   22.6491      28.604    136.7567773           2          
MisPlume(west)    GOM_UW_1704    2017-04-09T00:34:59Z    -89.8654   29.2373   22.6635      28.573    133.3941978           2          
MisPlume(west)    GOM_UW_1704    2017-04-09T00:36:26Z    -89.8615   29.2393   22.7456      28.595    137.0055974           2          
MisPlume(west)    GOM_UW_1704    2017-04-09T00:37:56Z    -89.8574   29.2414   22.7891      28.617    134.6897333           2          
MisPlume(west)    GOM_UW_1704    2017-04-09T00:39:26Z    -89.8533   29.2435   22.6638      28.789    136.0613625           2          
MisPlume(west)    GOM_UW_1704    2017-04-09T00:40:55Z    -89.8493   29.2455   22.592       28.804    132.3972882           2          
MisPlume(west)    GOM_UW_1704    2017-04-09T00:42:26Z    -89.8451   29.2475   22.5634      28.806    132.7850268           2          
MisPlume(west)    GOM_UW_1704    2017-04-09T00:43:55Z    -89.8411   29.2495   22.5512      28.8      130.9879072           2          
MisPlume(west)    GOM_UW_1704    2017-04-09T00:45:26Z    -89.8371   29.2516   22.4949      28.763    135.4499864           2          
MisPlume(west)    GOM_UW_1704    2017-04-09T00:46:54Z    -89.8331   29.2536   22.5006      28.73     134.3822823           2          
MisPlume(west)    GOM_UW_1704    2017-04-09T00:48:22Z    -89.8292   29.2556   22.5301      28.687    128.9570079           2          
MisPlume(west)    GOM_UW_1704    2017-04-09T00:49:50Z    -89.8252   29.2576   22.5775      28.594    132.2938368           2          
MisPlume(west)    GOM_UW_1704    2017-04-09T00:51:18Z    -89.8213   29.2595   22.5236      28.599    128.4847932           2          
MisPlume(west)    GOM_UW_1704    2017-04-09T00:52:46Z    -89.8172   29.2613   22.5401      28.503    131.8585232           2          
MisPlume(west)    GOM_UW_1704    2017-04-09T00:54:17Z    -89.813    29.2631   22.5448      28.428    126.5323496           2          
MisPlume(west)    GOM_UW_1704    2017-04-09T00:55:45Z    -89.8089   29.2648   22.4887      28.475    130.1747052           2          
MisPlume(west)    GOM_UW_1704    2017-04-09T00:57:14Z    -89.8047   29.2666   22.5615      28.396    125.687854            2          
MisPlume(west)    GOM_UW_1704    2017-04-09T00:58:45Z    -89.8004   29.2684   22.5968      28.398    123.8756744           2          
MisPlume(west)    GOM_UW_1704    2017-04-09T01:00:14Z    -89.7963   29.2701   22.6404      28.353    128.2451541           2          
MisPlume(west)    GOM_UW_1704    2017-04-09T01:01:41Z    -89.7922   29.2718   22.5787      28.356    126.8224207           2          
MisPlume(west)    GOM_UW_1704    2017-04-09T01:03:10Z    -89.7881   29.2735   22.588       28.377    126.7474155           2          
MisPlume(west)    GOM_UW_1704    2017-04-09T01:04:38Z    -89.7839   29.2752   22.6064      28.39     127.3273325           2          
MisPlume(west)    GOM_UW_1704    2017-04-09T01:06:07Z    -89.7798   29.2768   22.576       29.338    134.1920986           2          
MisPlume(west)    GOM_UW_1704    2017-04-09T01:07:35Z    -89.7758   29.2785   22.6077      28.935    166.9103068           2          
MisPlume(west)    GOM_UW_1704    2017-04-09T01:09:05Z    -89.7717   29.2801   22.4566      29.071    146.4219209           2          
MisPlume(west)    GOM_UW_1704    2017-04-09T01:10:33Z    -89.7677   29.2817   22.4628      29.361    152.9693454           2          
MisPlume(west)    GOM_UW_1704    2017-04-09T01:12:03Z    -89.7637   29.2834   22.5199      29.546    162.6470713           2          
MisPlume(west)    GOM_UW_1704    2017-04-09T01:13:35Z    -89.7596   29.2852   22.5789      29.986    160.6234619           2          
MisPlume(west)    GOM_UW_1704    2017-04-09T01:15:05Z    -89.7557   29.2871   22.5691      30.228    175.7881257           2          
MisPlume(west)    GOM_UW_1704    2017-04-09T01:16:35Z    -89.7519   29.2889   22.5104      30.699    189.9318152           2          
MisPlume(west)    GOM_UW_1704    2017-04-09T01:18:03Z    -89.7479   29.2898   22.4152      30.879    203.4977754           2          
MisPlume(west)    GOM_UW_1704    2017-04-09T01:19:32Z    -89.7442   29.288    22.2761      31.244    211.6942731           2          
MisPlume(west)    GOM_UW_1704    2017-04-09T01:21:00Z    -89.7406   29.286    22.3074      30.913    217.7557817           2          
MisPlume(west)    GOM_UW_1704    2017-04-09T01:22:29Z    -89.7374   29.2835   22.3203      30.777    201.1255707           2          
MisPlume(west)    GOM_UW_1704    2017-04-09T01:23:58Z    -89.7339   29.2813   22.291       30.59     201.8251686           2          
MisPlume(west)    GOM_UW_1704    2017-04-09T01:25:25Z    -89.7301   29.2797   22.256       30.129    196.8790014           2          
MisPlume(west)    GOM_UW_1704    2017-04-09T01:26:57Z    -89.7259   29.2779   22.3641      29.366    171.5333645           2          
MisPlume(west)    GOM_UW_1704    2017-04-09T01:28:27Z    -89.7227   29.2755   22.4516      29.138    152.0745025           2          
MisPlume(west)    GOM_UW_1704    2017-04-09T01:29:58Z    -89.7209   29.2721   22.593       28.944    150.4579454           2          
MisPlume(west)    GOM_UW_1704    2017-04-09T01:31:28Z    -89.7191   29.2685   22.6819      28.723    141.576363            2          
MisPlume(west)    GOM_UW_1704    2017-04-09T01:32:58Z    -89.7172   29.2651   22.7594      28.658    150.0013501           2          
MisPlume(west)    GOM_UW_1704    2017-04-09T01:34:29Z    -89.7152   29.2615   22.7922      28.505    143.6327986           2          
MisPlume(west)    GOM_UW_1704    2017-04-09T01:35:59Z    -89.7123   29.2587   22.7542      28.505    149.3754666           2          
MisPlume(west)    GOM_UW_1704    2017-04-09T01:37:28Z    -89.7086   29.2566   22.7378      28.488    154.2995838           2          
MisPlume(west)    GOM_UW_1704    2017-04-09T01:38:57Z    -89.7043   29.2553   22.7034      28.41     139.8713113           2          
MisPlume(west)    GOM_UW_1704    2017-04-09T01:40:26Z    -89.6998   29.2543   22.6352      28.349    139.2923717           2          
MisPlume(west)    GOM_UW_1704    2017-04-09T01:41:54Z    -89.6953   29.2533   22.6089      28.4      134.5675248           2          
MisPlume(west)    GOM_UW_1704    2017-04-09T01:43:25Z    -89.6906   29.2523   22.5735      28.331    136.6152529           2          
MisPlume(west)    GOM_UW_1704    2017-04-09T01:44:54Z    -89.6861   29.2513   22.5801      28.398    141.9102789           2          
MisPlume(west)    GOM_UW_1704    2017-04-09T01:46:22Z    -89.6817   29.2504   22.5519      28.354    137.8823207           2          
MisPlume(west)    GOM_UW_1704    2017-04-09T01:47:51Z    -89.6773   29.2491   22.5168      28.38     138.892357            2          
MisPlume(west)    GOM_UW_1704    2017-04-09T01:49:20Z    -89.6731   29.2476   22.5031      28.32     137.3242365           2          
MisPlume(west)    GOM_UW_1704    2017-04-09T01:50:49Z    -89.6688   29.246    22.5256      28.47     144.1085556           2          
MisPlume(west)    GOM_UW_1704    2017-04-09T01:52:20Z    -89.6645   29.2444   22.475       28.364    136.690925            2          
MisPlume(west)    GOM_UW_1704    2017-04-09T01:53:48Z    -89.6603   29.2428   22.4661      28.409    139.9981403           2          
MisPlume(west)    GOM_UW_1704    2017-04-09T01:55:17Z    -89.6561   29.2413   22.6021      28.823    140.0249778           2          
MisPlume(west)    GOM_UW_1704    2017-04-09T01:56:46Z    -89.6521   29.2399   22.2413      20.339    152.4502584           2          
MisPlume(west)    GOM_UW_1704    2017-04-09T01:58:14Z    -89.6483   29.2384   22.3002      16.971    282.1798085           2          
MisPlume(west)    GOM_UW_1704    2017-04-09T01:59:43Z    -89.6445   29.237    22.3633      17.228    332.8043676           2          
MisPlume(west)    GOM_UW_1704    2017-04-09T02:01:11Z    -89.6407   29.2356   22.265       17.084    355.5236593           2          
MisPlume(west)    GOM_UW_1704    2017-04-09T02:02:39Z    -89.637    29.2342   22.2389      16.213    386.5878846           2          
MisPlume(west)    GOM_UW_1704    2017-04-09T02:04:10Z    -89.6331   29.2328   22.1363      14.533    432.8746272           2          
MisPlume(west)    GOM_UW_1704    2017-04-09T02:05:39Z    -89.6294   29.2314   22.2099      12.995    458.2765544           2          
MisPlume(west)    GOM_UW_1704    2017-04-09T02:07:10Z    -89.6255   29.23     22.0633      12.863    456.7357418           2          
MisPlume(west)    GOM_UW_1704    2017-04-09T02:08:39Z    -89.6218   29.2286   21.989       13.298    458.7057077           2          
MisPlume(west)    GOM_UW_1704    2017-04-09T02:10:07Z    -89.6181   29.2273   22.1294      12.547    452.9713885           2          
MisPlume(west)    GOM_UW_1704    2017-04-09T02:11:34Z    -89.6144   29.2259   22.1526      12.213    452.8191014           2          
MisPlume(west)    GOM_UW_1704    2017-04-09T02:13:02Z    -89.6107   29.2245   22.2208      10.803    441.1830732           2          
MisPlume(west)    GOM_UW_1704    2017-04-09T02:14:32Z    -89.607    29.2231   22.2694      10.756    430.8679327           2          
MisPlume(west)    GOM_UW_1704    2017-04-09T02:16:03Z    -89.6032   29.2217   22.219       10.005    429.216753            2          
MisPlume(west)    GOM_UW_1704    2017-04-09T02:17:33Z    -89.5995   29.2203   22.17        9.585     433.8408765           2          
MisPlume(west)    GOM_UW_1704    2017-04-09T02:19:02Z    -89.5958   29.219    22.1114      9.717     441.813008            2          
MisPlume(west)    GOM_UW_1704    2017-04-09T02:20:30Z    -89.5921   29.2176   22.1245      9.114     449.8031635           2          
MisPlume(west)    GOM_UW_1704    2017-04-09T02:21:59Z    -89.5884   29.2162   22.0458      8.689     455.6166017           2          
MisPlume(west)    GOM_UW_1704    2017-04-09T02:23:30Z    -89.5845   29.2151   21.9472      8.162     463.5181861           2          
MisPlume(west)    GOM_UW_1704    2017-04-09T02:24:58Z    -89.5807   29.214    21.8054      7.648     480.2101691           2          
MisPlume(west)    GOM_UW_1704    2017-04-09T02:26:26Z    -89.577    29.2128   21.7993      6.705     505.7651687           2          
MisPlume(west)    GOM_UW_1704    2017-04-09T02:27:57Z    -89.5731   29.2117   21.8096      6.763     520.6837761           2          
MisPlume(west)    GOM_UW_1704    2017-04-09T02:29:26Z    -89.5693   29.2105   21.9057      5.783     532.5887946           2          
MisPlume(west)    GOM_UW_1704    2017-04-09T02:30:56Z    -89.5654   29.2094   21.9328      5.622     561.6632994           2          
MisPlume(west)    GOM_UW_1704    2017-04-09T02:32:24Z    -89.5616   29.2084   21.8628      5.584     576.1488052           2          
MisPlume(west)    GOM_UW_1704    2017-04-09T02:33:54Z    -89.5577   29.2073   21.7929      5.247     580.5191167           2          
MisPlume(west)    GOM_UW_1704    2017-04-09T02:35:22Z    -89.5538   29.2063   21.8198      5.107     598.2587404           2          
MisPlume(west)    GOM_UW_1704    2017-04-09T02:36:50Z    -89.55     29.2053   21.8568      4.726     614.4795118           2          
MisPlume(west)    GOM_UW_1704    2017-04-09T02:38:17Z    -89.5462   29.2043   21.7582      4.607     623.351075            2          
MisPlume(west)    GOM_UW_1704    2017-04-09T02:39:48Z    -89.5422   29.2032   21.5095      4.065     625.3053769           2          
MisPlume(west)    GOM_UW_1704    2017-04-09T02:41:16Z    -89.5383   29.2022   21.4293      4.546     635.8792875           2          
MisPlume(west)    GOM_UW_1704    2017-04-09T02:42:47Z    -89.5344   29.2011   21.1756      3.757     630.2795576           2          
MisPlume(west)    GOM_UW_1704    2017-04-09T02:44:17Z    -89.5308   29.1996   21.0499      3.678     637.2888045           2          
MisPlume(west)    GOM_UW_1704    2017-04-09T02:45:46Z    -89.5278   29.1973   20.909       3.611     646.0632168           2          
MisPlume(west)    GOM_UW_1704    2017-04-09T02:47:15Z    -89.5248   29.1949   20.7602      3.822     668.635284            2          
MisPlume(west)    GOM_UW_1704    2017-04-09T02:48:46Z    -89.522    29.1924   20.6443      3.913     682.1474824           2          
MisPlume(west)    GOM_UW_1704    2017-04-09T02:50:13Z    -89.5191   29.1902   20.8104      4.221     699.3887513           2          
MisPlume(west)    GOM_UW_1704    2017-04-09T02:51:45Z    -89.5157   29.1881   20.4583      3.558     707.5969681           2          
MisPlume(west)    GOM_UW_1704    2017-04-09T02:53:13Z    -89.5125   29.186    20.3331      3.515     735.9020957           2          
MisPlume(west)    GOM_UW_1704    2017-04-09T02:54:43Z    -89.5092   29.1839   20.0993      3.576     751.3402796           2          
MisPlume(west)    GOM_UW_1704    2017-04-09T02:56:14Z    -89.5059   29.1818   19.7945      3.603     778.9182813           2          
MisPlume(west)    GOM_UW_1704    2017-04-09T02:57:43Z    -89.5026   29.1797   19.5828      3.248     774.2393244           2          
MisPlume(west)    GOM_UW_1704    2017-04-09T02:59:12Z    -89.5006   29.1768   19.4362      3.149     783.2958554           2          
MisPlume(west)    GOM_UW_1704    2017-04-09T03:00:40Z    -89.5006   29.1734   19.4271      3.053     827.1563233           2          
MisPlume(west)    GOM_UW_1704    2017-04-09T03:02:08Z    -89.5005   29.17     19.7246      3.153     892.3624849           2          
MisPlume(west)    GOM_UW_1704    2017-04-09T03:03:37Z    -89.5005   29.1665   19.5428      2.808     937.7031498           2          
MisPlume(west)    GOM_UW_1704    2017-04-09T03:05:05Z    -89.5005   29.163    19.5058      3.078     930.0666755           2          
MisPlume(west)    GOM_UW_1704    2017-04-09T03:06:36Z    -89.5005   29.1595   19.4288      3.203     918.1563845           2          
MisPlume(west)    GOM_UW_1704    2017-04-09T03:19:13Z    -89.5003   29.1295   20.9872      5.178     544.1874462           2          
MisPlume(west)    GOM_UW_1704    2017-04-09T03:20:45Z    -89.5002   29.1257   21.2119      5.648     513.6637743           2          
MisPlume(west)    GOM_UW_1704    2017-04-09T03:22:15Z    -89.5002   29.122    21.7041      6.537     485.716526            2          
MisPlume(west)    GOM_UW_1704    2017-04-09T03:23:43Z    -89.5001   29.1184   21.8906      7.069     473.1668191           2          
MisPlume(west)    GOM_UW_1704    2017-04-09T03:25:13Z    -89.5      29.1147   21.9334      7.081     468.99189             2          
MisPlume(west)    GOM_UW_1704    2017-04-09T03:26:43Z    -89.5      29.1111   22.0664      7.985     457.0672779           2          
MisPlume(west)    GOM_UW_1704    2017-04-09T03:28:14Z    -89.4999   29.1074   22.0128      8.104     448.3928851           2          
MisPlume(west)    GOM_UW_1704    2017-04-09T03:29:43Z    -89.4998   29.1037   22.0429      8.794     434.5488829           2          
MisPlume(west)    GOM_UW_1704    2017-04-09T03:31:13Z    -89.4997   29.1      22.0062      9.346     423.7270599           2          
MisPlume(west)    GOM_UW_1704    2017-04-09T03:32:41Z    -89.4996   29.0964   21.9619      9.795     413.7356451           2          
MisPlume(west)    GOM_UW_1704    2017-04-09T03:34:11Z    -89.4996   29.0927   21.9795      10.379    399.8853822           2          
MisPlume(west)    GOM_UW_1704    2017-04-09T03:35:39Z    -89.4995   29.0891   22.0348      11.101    381.1206139           2          
MisPlume(west)    GOM_UW_1704    2017-04-09T03:37:09Z    -89.4994   29.0853   22.1554      11.705    362.614189            2          
MisPlume(west)    GOM_UW_1704    2017-04-09T03:38:38Z    -89.4994   29.0816   22.2759      12.328    339.676914            2          
MisPlume(west)    GOM_UW_1704    2017-04-09T03:40:08Z    -89.4993   29.0779   22.2241      12.567    324.615299            2          
MisPlume(west)    GOM_UW_1704    2017-04-09T03:41:38Z    -89.4993   29.0741   22.1087      12.786    311.4500656           2          
MisPlume(west)    GOM_UW_1704    2017-04-09T03:43:09Z    -89.4993   29.0703   22.0711      12.57     311.6202836           2          
MisPlume(west)    GOM_UW_1704    2017-04-09T03:44:37Z    -89.4993   29.0667   22.1873      13.122    304.9417542           2          
MisPlume(west)    GOM_UW_1704    2017-04-09T03:46:05Z    -89.4992   29.063    22.188       13.201    302.3638288           2          
MisPlume(west)    GOM_UW_1704    2017-04-09T03:47:33Z    -89.4993   29.0594   22.337       13.493    308.1133285           2          
MisPlume(west)    GOM_UW_1704    2017-04-09T03:49:04Z    -89.4992   29.0557   22.4768      14.043    299.4623307           2          
MisPlume(west)    GOM_UW_1704    2017-04-09T03:50:32Z    -89.4993   29.052    22.8393      14.989    302.3696779           2          
MisPlume(west)    GOM_UW_1704    2017-04-09T03:52:00Z    -89.5023   29.0512   23.0458      15.133    311.4255821           2          
MisPlume(west)    GOM_UW_1704    2017-04-09T03:53:31Z    -89.5055   29.0537   22.8286      15.588    310.7168329           2          
MisPlume(west)    GOM_UW_1704    2017-04-09T03:54:59Z    -89.5086   29.0561   22.5054      16.024    294.2988218           2          
MisPlume(west)    GOM_UW_1704    2017-04-09T03:56:28Z    -89.5117   29.0584   21.8108      15.849    300.9327758           2          
MisPlume(west)    GOM_UW_1704    2017-04-09T03:57:58Z    -89.5148   29.0608   21.5582      15.48     296.7342444           2          
MisPlume(west)    GOM_UW_1704    2017-04-09T03:59:27Z    -89.5179   29.0631   21.5922      15.344    291.4539621           2          
MisPlume(west)    GOM_UW_1704    2017-04-09T04:00:54Z    -89.5209   29.0653   21.6374      15.347    288.3661163           2          
MisPlume(west)    GOM_UW_1704    2017-04-09T04:02:22Z    -89.5238   29.0676   21.6334      15.504    287.9482812           2          
MisPlume(west)    GOM_UW_1704    2017-04-09T04:03:52Z    -89.5269   29.07     21.6316      15.499    294.4672373           2          
MisPlume(west)    GOM_UW_1704    2017-04-09T04:05:22Z    -89.53     29.0722   21.7024      16.244    299.0276499           2          
MisPlume(west)    GOM_UW_1704    2017-04-09T04:06:52Z    -89.533    29.0746   21.6969      16.886    300.7669385           2          
MisPlume(west)    GOM_UW_1704    2017-04-09T04:08:23Z    -89.5362   29.0769   21.5765      17.425    294.9186037           2          
MisPlume(west)    GOM_UW_1704    2017-04-09T04:09:52Z    -89.5392   29.0792   21.5287      18.365    290.6381232           2          
MisPlume(west)    GOM_UW_1704    2017-04-09T04:11:21Z    -89.5421   29.0814   21.9026      19.277    283.4166492           2          
MisPlume(west)    GOM_UW_1704    2017-04-09T04:12:50Z    -89.545    29.0836   22.2192      20.691    262.9721752           2          
MisPlume(west)    GOM_UW_1704    2017-04-09T04:14:21Z    -89.548    29.0859   22.1847      20.339    249.6749382           2          
MisPlume(west)    GOM_UW_1704    2017-04-09T04:15:52Z    -89.5509   29.0881   22.0262      19.512    252.8564268           2          
MisPlume(west)    GOM_UW_1704    2017-04-09T04:17:22Z    -89.5539   29.0903   21.8936      19.095    260.304041            2          
MisPlume(west)    GOM_UW_1704    2017-04-09T04:18:51Z    -89.5569   29.0927   21.869       19.542    262.165387            2          
MisPlume(west)    GOM_UW_1704    2017-04-09T04:20:19Z    -89.5598   29.0949   21.833       20.019    258.5685134           2          
MisPlume(west)    GOM_UW_1704    2017-04-09T04:21:48Z    -89.5628   29.0971   21.8163      21.016    245.0366312           2          
MisPlume(west)    GOM_UW_1704    2017-04-09T04:23:16Z    -89.5658   29.0994   21.7325      21.987    234.088142            2          
MisPlume(west)    GOM_UW_1704    2017-04-09T04:24:44Z    -89.5687   29.1016   21.8573      24.872    211.1391229           2          
MisPlume(west)    GOM_UW_1704    2017-04-09T04:26:12Z    -89.5716   29.1038   22.4196      27.75     153.4303525           2          
MisPlume(west)    GOM_UW_1704    2017-04-09T04:27:40Z    -89.5744   29.106    22.4521      27.737    144.74666             2          
MisPlume(west)    GOM_UW_1704    2017-04-09T04:29:09Z    -89.5774   29.1082   22.2716      27.632    143.0439817           2          
MisPlume(west)    GOM_UW_1704    2017-04-09T04:30:37Z    -89.5802   29.1104   22.2482      27.539    132.878339            2          
MisPlume(west)    GOM_UW_1704    2017-04-09T04:32:06Z    -89.5831   29.1126   22.3642      27.519    133.7983136           2          
MisPlume(west)    GOM_UW_1704    2017-04-09T04:33:36Z    -89.5861   29.1148   22.357       27.494    134.1709788           2          
MisPlume(west)    GOM_UW_1704    2017-04-09T04:35:07Z    -89.5891   29.117    22.4309      27.491    134.4391151           2          
MisPlume(west)    GOM_UW_1704    2017-04-09T04:36:35Z    -89.5922   29.1189   22.4878      27.467    137.3946477           2          
MisPlume(west)    GOM_UW_1704    2017-04-09T04:38:04Z    -89.5953   29.1209   22.5609      27.448    135.9010817           2          
MisPlume(west)    GOM_UW_1704    2017-04-09T04:39:31Z    -89.5983   29.1228   22.5686      27.442    135.5363605           2          
MisPlume(west)    GOM_UW_1704    2017-04-09T04:41:03Z    -89.6016   29.1249   22.634       27.428    142.5548529           2          
MisPlume(west)    GOM_UW_1704    2017-04-09T04:42:31Z    -89.6044   29.127    22.6418      27.414    145.1041144           2          
MisPlume(west)    GOM_UW_1704    2017-04-09T04:43:59Z    -89.6073   29.1292   22.5811      27.412    144.2942783           2          
MisPlume(west)    GOM_UW_1704    2017-04-09T04:45:30Z    -89.6103   29.1314   22.42        27.365    136.5404368           2          
MisPlume(west)    GOM_UW_1704    2017-04-09T04:47:01Z    -89.6133   29.1337   22.3791      27.323    135.0309018           2          
MisPlume(west)    GOM_UW_1704    2017-04-09T04:48:31Z    -89.6162   29.136    22.4234      27.3      127.2694276           2          
MisPlume(west)    GOM_UW_1704    2017-04-09T04:50:01Z    -89.6192   29.1382   22.4684      27.297    131.8020226           2          
MisPlume(west)    GOM_UW_1704    2017-04-09T04:51:30Z    -89.6221   29.1404   22.4522      27.298    126.96168             2          
MisPlume(west)    GOM_UW_1704    2017-04-09T04:52:57Z    -89.625    29.1426   22.4916      27.309    128.8367122           2          
MisPlume(west)    GOM_UW_1704    2017-04-09T04:54:26Z    -89.6279   29.1449   22.5382      27.32     130.9638503           2          
MisPlume(west)    GOM_UW_1704    2017-04-09T04:55:56Z    -89.6309   29.1471   22.4968      27.321    128.8618845           2          
MisPlume(west)    GOM_UW_1704    2017-04-09T04:57:27Z    -89.6339   29.1494   22.5352      27.327    129.3520378           2          
MisPlume(west)    GOM_UW_1704    2017-04-09T04:58:55Z    -89.6368   29.1516   22.5598      27.337    127.9721996           2          
MisPlume(west)    GOM_UW_1704    2017-04-09T05:00:24Z    -89.6398   29.1538   22.5418      27.354    129.0981939           2          
MisPlume(west)    GOM_UW_1704    2017-04-09T05:01:51Z    -89.6427   29.156    22.5276      27.315    128.9120672           2          
MisPlume(west)    GOM_UW_1704    2017-04-09T05:03:22Z    -89.6457   29.1582   22.503       27.384    129.271677            2          
MisPlume(west)    GOM_UW_1704    2017-04-09T05:04:50Z    -89.6486   29.1605   22.563       27.406    129.132802            2          
MisPlume(west)    GOM_UW_1704    2017-04-09T05:06:20Z    -89.6515   29.1629   22.5294      27.394    130.4721993           2          
MisPlume(west)    GOM_UW_1704    2017-04-09T05:07:50Z    -89.6545   29.1652   22.4828      27.4      130.5658829           2          
MisPlume(west)    GOM_UW_1704    2017-04-09T05:09:22Z    -89.6575   29.1676   22.4465      27.431    129.8152136           2          
MisPlume(west)    GOM_UW_1704    2017-04-09T05:10:50Z    -89.6604   29.1699   22.4374      27.451    128.5493023           2          
MisPlume(west)    GOM_UW_1704    2017-04-09T05:12:18Z    -89.6634   29.1722   22.4         27.471    130.7184157           2          
MisPlume(west)    GOM_UW_1704    2017-04-09T05:13:48Z    -89.6663   29.1746   22.3558      27.54     131.2953379           2          
MisPlume(west)    GOM_UW_1704    2017-04-09T05:15:17Z    -89.6693   29.177    22.2649      27.602    130.8468788           2          
MisPlume(west)    GOM_UW_1704    2017-04-09T05:16:48Z    -89.6722   29.1794   22.2207      27.629    131.8859579           2          
MisPlume(west)    GOM_UW_1704    2017-04-09T05:18:16Z    -89.6751   29.1817   22.2347      27.605    129.1919225           2          
MisPlume(west)    GOM_UW_1704    2017-04-09T05:19:47Z    -89.6782   29.184    22.1281      27.675    130.1626743           2          
MisPlume(west)    GOM_UW_1704    2017-04-09T05:21:18Z    -89.6813   29.1864   22.0934      27.73     131.6751619           2          
MisPlume(west)    GOM_UW_1704    2017-04-09T05:22:46Z    -89.6842   29.1887   22.1245      27.786    134.4663087           2          
MisPlume(west)    GOM_UW_1704    2017-04-09T05:24:14Z    -89.6872   29.191    22.1088      27.808    137.2291448           2          
MisPlume(west)    GOM_UW_1704    2017-04-09T05:25:45Z    -89.6902   29.1934   22.0965      27.865    137.514038            2          
MisPlume(west)    GOM_UW_1704    2017-04-09T05:27:14Z    -89.6932   29.1958   22.0882      27.895    144.4023611           2          
MisPlume(west)    GOM_UW_1704    2017-04-09T05:28:42Z    -89.6962   29.1981   22.0424      27.933    139.169078            2          
MisPlume(west)    GOM_UW_1704    2017-04-09T05:30:13Z    -89.6992   29.2005   22.0418      27.963    132.5040611           2          
MisPlume(west)    GOM_UW_1704    2017-04-09T05:31:43Z    -89.7023   29.203    22.0298      28.002    135.5838077           2          
MisPlume(west)    GOM_UW_1704    2017-04-09T05:33:12Z    -89.7053   29.2053   22.0421      28.065    137.6239868           2          
MisPlume(west)    GOM_UW_1704    2017-04-09T05:34:41Z    -89.7083   29.2077   22.0476      28.089    135.5672776           2          
MisPlume(west)    GOM_UW_1704    2017-04-09T05:36:09Z    -89.7113   29.21     22.0747      28.149    137.8032744           2          
MisPlume(west)    GOM_UW_1704    2017-04-09T05:37:37Z    -89.7143   29.2123   22.0463      28.173    134.2535664           2          
MisPlume(west)    GOM_UW_1704    2017-04-09T05:39:05Z    -89.7174   29.2146   22.0025      28.226    141.1354291           2          
MisPlume(west)    GOM_UW_1704    2017-04-09T05:40:34Z    -89.7204   29.2169   21.9844      28.288    153.7056886           2          
MisPlume(west)    GOM_UW_1704    2017-04-09T05:42:02Z    -89.7234   29.2192   21.9762      28.338    143.8574124           2          
MisPlume(west)    GOM_UW_1704    2017-04-09T05:43:32Z    -89.7266   29.2216   21.9867      28.387    146.7470254           2          
MisPlume(west)    GOM_UW_1704    2017-04-09T05:45:02Z    -89.7297   29.224    21.9686      28.45     143.7034091           2          
MisPlume(west)    GOM_UW_1704    2017-04-09T05:46:33Z    -89.733    29.2265   21.9496      28.503    145.2893156           2          
MisPlume(west)    GOM_UW_1704    2017-04-09T05:48:03Z    -89.7361   29.2289   21.9359      28.601    152.7893169           2          
MisPlume(west)    GOM_UW_1704    2017-04-09T05:49:34Z    -89.7393   29.2312   21.9173      28.673    151.8453368           2          
MisPlume(west)    GOM_UW_1704    2017-04-09T05:51:06Z    -89.7425   29.2337   21.8945      28.744    150.7477451           2          
MisPlume(west)    GOM_UW_1704    2017-04-09T05:52:37Z    -89.7457   29.2361   21.8811      28.814    158.6983225           2          
MisPlume(west)    GOM_UW_1704    2017-04-09T05:54:04Z    -89.7485   29.2383   21.8348      28.864    155.6351339           2          
MisPlume(west)    GOM_UW_1704    2017-04-09T05:55:34Z    -89.7494   29.239    21.7885      28.939    154.7937374           2          
MisPlume(west)    GOM_UW_1704    2017-04-09T05:57:02Z    -89.7494   29.239    21.9366      31.661    174.1385134           2          
MisPlume(west)    GOM_UW_1704    2017-04-09T05:58:31Z    -89.7494   29.239    22.0482      29.906    224.5974906           2          
MisPlume(west)    GOM_UW_1704    2017-04-09T06:00:00Z    -89.7495   29.239    21.9328      29.447    172.5546767           2          
MisPlume(west)    GOM_UW_1704    2017-04-09T06:01:28Z    -89.7495   29.239    21.9878      29.4      161.0342697           2          
MisPlume(west)    GOM_UW_1704    2017-04-09T06:02:56Z    -89.7496   29.239    21.9637      29.402    156.0986608           2          
MisPlume(west)    GOM_UW_1704    2017-04-09T06:04:23Z    -89.7496   29.239    21.9588      29.422    168.7983515           2          
MisPlume(west)    GOM_UW_1704    2017-04-09T06:05:54Z    -89.7496   29.239    22.1044      29.922    166.5665543           2          
MisPlume(west)    GOM_UW_1704    2017-04-09T06:07:25Z    -89.7503   29.2382   21.9296      29.342    166.8003936           2          
MisPlume(west)    GOM_UW_1704    2017-04-09T06:08:53Z    -89.7506   29.2349   21.7525      29.009    157.524761            2          
MisPlume(west)    GOM_UW_1704    2017-04-09T06:10:22Z    -89.7506   29.2311   21.7835      28.997    162.2775725           2          
MisPlume(west)    GOM_UW_1704    2017-04-09T06:11:50Z    -89.7505   29.2273   21.8101      28.914    155.7744831           2          
MisPlume(west)    GOM_UW_1704    2017-04-09T06:13:19Z    -89.7505   29.2235   21.8471      28.9      154.7257786           2          
MisPlume(west)    GOM_UW_1704    2017-04-09T06:14:50Z    -89.7505   29.2196   21.829       28.872    142.3595948           2          
MisPlume(west)    GOM_UW_1704    2017-04-09T06:16:18Z    -89.7505   29.2159   21.8283      28.786    135.9697696           2          
MisPlume(west)    GOM_UW_1704    2017-04-09T06:28:57Z    -89.7505   29.1833   21.9919      28.308    135.6670105           2          
MisPlume(west)    GOM_UW_1704    2017-04-09T06:30:25Z    -89.7505   29.1795   21.9967      28.215    136.5254727           2          
MisPlume(west)    GOM_UW_1704    2017-04-09T06:31:53Z    -89.7504   29.1758   21.9921      28.127    147.9226309           2          
MisPlume(west)    GOM_UW_1704    2017-04-09T06:33:23Z    -89.7496   29.1733   22.0078      28.027    133.5532121           2          
MisPlume(west)    GOM_UW_1704    2017-04-09T06:34:51Z    -89.749    29.1744   22.0367      28.005    147.6280533           2          
MisPlume(west)    GOM_UW_1704    2017-04-09T06:36:21Z    -89.7496   29.1766   21.9896      28.059    148.2247569           2          
MisPlume(west)    GOM_UW_1704    2017-04-09T06:37:49Z    -89.7499   29.1773   21.9591      28.109    136.0948973           2          
MisPlume(west)    GOM_UW_1704    2017-04-09T06:39:20Z    -89.7498   29.1773   21.9804      28.142    134.3196654           2          
MisPlume(west)    GOM_UW_1704    2017-04-09T06:40:51Z    -89.7498   29.1772   22.0011      28.137    137.6783874           2          
MisPlume(west)    GOM_UW_1704    2017-04-09T06:42:19Z    -89.7498   29.1772   21.9924      28.137    135.6529763           2          
MisPlume(west)    GOM_UW_1704    2017-04-09T06:43:47Z    -89.7497   29.1772   21.9576      28.122    137.2858848           2          
MisPlume(west)    GOM_UW_1704    2017-04-09T06:45:17Z    -89.7497   29.1772   21.9456      28.112    139.8197592           2          
MisPlume(west)    GOM_UW_1704    2017-04-09T06:46:46Z    -89.7496   29.1771   21.9396      28.111    133.1145474           2          
MisPlume(west)    GOM_UW_1704    2017-04-09T06:48:13Z    -89.7495   29.1771   21.9469      28.111    130.2792372           2          
MisPlume(west)    GOM_UW_1704    2017-04-09T06:49:45Z    -89.7491   29.1772   21.9536      28.119    132.2941489           2          
MisPlume(west)    GOM_UW_1704    2017-04-09T06:51:16Z    -89.7479   29.1765   21.9584      28.138    131.6660038           2          
MisPlume(west)    GOM_UW_1704    2017-04-09T06:52:45Z    -89.7477   29.1741   21.9455      28.078    135.049984            2          
MisPlume(west)    GOM_UW_1704    2017-04-09T06:54:16Z    -89.7476   29.1713   22.0036      28.035    136.698807            2          
MisPlume(west)    GOM_UW_1704    2017-04-09T06:55:47Z    -89.7476   29.1684   22.0597      28.021    142.3965925           2          
MisPlume(west)    GOM_UW_1704    2017-04-09T06:57:14Z    -89.7476   29.1658   22.1008      28.038    139.2688621           2          
MisPlume(west)    GOM_UW_1704    2017-04-09T06:58:42Z    -89.7475   29.1634   22.0788      28.035    140.8037457           2          
MisPlume(west)    GOM_UW_1704    2017-04-09T07:00:12Z    -89.7476   29.1611   22.0836      28.002    132.4437353           2          
MisPlume(west)    GOM_UW_1704    2017-04-09T07:01:41Z    -89.7477   29.1588   22.0921      27.941    144.4133348           2          
MisPlume(west)    GOM_UW_1704    2017-04-09T07:03:09Z    -89.7477   29.1565   22.1422      27.91     136.0260821           2          
MisPlume(west)    GOM_UW_1704    2017-04-09T07:04:38Z    -89.7477   29.1542   22.142       27.932    142.584102            2          
MisPlume(west)    GOM_UW_1704    2017-04-09T07:06:07Z    -89.7478   29.1518   22.1356      27.934    134.2660293           2          
MisPlume(west)    GOM_UW_1704    2017-04-09T07:07:35Z    -89.7478   29.1495   22.1259      27.941    145.2067078           2          
MisPlume(west)    GOM_UW_1704    2017-04-09T07:09:04Z    -89.7479   29.1469   22.0719      27.941    142.2932145           2          
MisPlume(west)    GOM_UW_1704    2017-04-09T07:10:34Z    -89.748    29.1431   22.0342      27.976    151.660456            2          
MisPlume(west)    GOM_UW_1704    2017-04-09T07:12:03Z    -89.7481   29.1393   22.0552      27.996    143.5428567           2          
MisPlume(west)    GOM_UW_1704    2017-04-09T07:13:31Z    -89.7481   29.1355   22.0552      28.017    148.3406549           2          
MisPlume(west)    GOM_UW_1704    2017-04-09T07:14:59Z    -89.7482   29.1318   22.1569      27.91     141.8710032           2          
MisPlume(west)    GOM_UW_1704    2017-04-09T07:16:30Z    -89.7483   29.1279   22.1277      27.854    149.0981844           2          
MisPlume(west)    GOM_UW_1704    2017-04-09T07:17:58Z    -89.7484   29.124    22.0832      27.829    143.891525            2          
MisPlume(west)    GOM_UW_1704    2017-04-09T07:19:27Z    -89.7485   29.1202   22.2068      27.774    143.9580913           2          
MisPlume(west)    GOM_UW_1704    2017-04-09T07:20:55Z    -89.7485   29.1163   22.2846      27.751    143.7681698           2          
MisPlume(west)    GOM_UW_1704    2017-04-09T07:22:23Z    -89.7486   29.1125   22.2962      27.794    152.5944228           2          
MisPlume(west)    GOM_UW_1704    2017-04-09T07:23:51Z    -89.7487   29.1086   22.3249      27.767    143.4760688           2          
MisPlume(west)    GOM_UW_1704    2017-04-09T07:25:22Z    -89.7488   29.1046   22.3456      27.781    149.7730544           2          
MisPlume(west)    GOM_UW_1704    2017-04-09T07:26:50Z    -89.7489   29.1008   22.3378      27.775    145.903415            2          
MisPlume(west)    GOM_UW_1704    2017-04-09T07:28:21Z    -89.749    29.0968   22.3662      27.806    153.5409518           2          
MisPlume(west)    GOM_UW_1704    2017-04-09T07:29:49Z    -89.7491   29.0929   22.3745      27.823    155.0211244           2          
MisPlume(west)    GOM_UW_1704    2017-04-09T07:31:20Z    -89.7491   29.0889   22.3845      27.839    147.2105788           2          
MisPlume(west)    GOM_UW_1704    2017-04-09T07:32:49Z    -89.7492   29.085    22.3853      27.815    147.1888074           2          
MisPlume(west)    GOM_UW_1704    2017-04-09T07:34:20Z    -89.7492   29.0809   22.3674      27.809    147.8580909           2          
MisPlume(west)    GOM_UW_1704    2017-04-09T07:35:51Z    -89.7493   29.0769   22.3331      27.829    151.9056484           2          
MisPlume(west)    GOM_UW_1704    2017-04-09T07:37:21Z    -89.7494   29.0729   22.3474      27.819    150.5080559           2          
MisPlume(west)    GOM_UW_1704    2017-04-09T07:38:51Z    -89.7491   29.0702   22.3931      27.807    153.5585817           2          
MisPlume(west)    GOM_UW_1704    2017-04-09T07:40:20Z    -89.7489   29.0699   22.4083      27.8      152.8462301           2          
MisPlume(west)    GOM_UW_1704    2017-04-09T07:41:50Z    -89.749    29.0698   22.409       27.798    147.2271664           2          
MisPlume(west)    GOM_UW_1704    2017-04-09T07:43:18Z    -89.7489   29.0696   22.404       27.79     152.2692988           2          
MisPlume(west)    GOM_UW_1704    2017-04-09T07:44:47Z    -89.7489   29.0695   22.4071      27.796    148.8631387           2          
MisPlume(west)    GOM_UW_1704    2017-04-09T07:46:14Z    -89.7488   29.0695   22.4051      27.827    148.1721391           2          
MisPlume(west)    GOM_UW_1704    2017-04-09T07:47:44Z    -89.7487   29.0694   22.3853      28.195    149.0547863           2          
MisPlume(west)    GOM_UW_1704    2017-04-09T07:49:12Z    -89.7487   29.0693   22.3969      27.892    154.2956091           2          
MisPlume(west)    GOM_UW_1704    2017-04-09T07:50:40Z    -89.7486   29.0692   22.3968      27.806    147.1341577           2          
MisPlume(west)    GOM_UW_1704    2017-04-09T07:52:09Z    -89.7484   29.0689   22.4104      27.804    147.5848727           2          
MisPlume(west)    GOM_UW_1704    2017-04-09T07:53:37Z    -89.7483   29.0688   22.3957      27.801    148.6191794           2          
MisPlume(west)    GOM_UW_1704    2017-04-09T07:55:08Z    -89.7482   29.0687   22.3841      27.791    149.2185143           2          
MisPlume(west)    GOM_UW_1704    2017-04-09T07:56:40Z    -89.747    29.0682   22.383       27.799    150.7581048           2          
MisPlume(west)    GOM_UW_1704    2017-04-09T07:58:08Z    -89.7468   29.066    22.3775      27.804    147.6288976           2          
MisPlume(west)    GOM_UW_1704    2017-04-09T07:59:37Z    -89.7468   29.0635   22.386       27.755    156.1325414           2          
MisPlume(west)    GOM_UW_1704    2017-04-09T08:01:05Z    -89.7469   29.0609   22.4309      27.727    153.931593            2          
MisPlume(west)    GOM_UW_1704    2017-04-09T08:02:34Z    -89.747    29.0583   22.4559      27.722    146.6017765           2          
MisPlume(west)    GOM_UW_1704    2017-04-09T08:04:02Z    -89.747    29.0558   22.4685      27.732    145.2608372           2          
MisPlume(west)    GOM_UW_1704    2017-04-09T08:05:31Z    -89.7471   29.0532   22.4566      27.723    148.9823259           2          
MisPlume(west)    GOM_UW_1704    2017-04-09T08:07:02Z    -89.7471   29.0505   22.4605      27.698    145.6186227           2          
MisPlume(west)    GOM_UW_1704    2017-04-09T08:08:31Z    -89.7471   29.0479   22.4527      27.705    152.2393764           2          
MisPlume(west)    GOM_UW_1704    2017-04-09T08:10:00Z    -89.7472   29.0454   22.4418      27.712    153.9262462           2          
MisPlume(west)    GOM_UW_1704    2017-04-09T08:11:30Z    -89.7472   29.0427   22.4251      27.707    154.5860979           2          
MisPlume(west)    GOM_UW_1704    2017-04-09T08:12:59Z    -89.7473   29.0402   22.3919      27.689    149.3753119           2          
MisPlume(west)    GOM_UW_1704    2017-04-09T08:14:26Z    -89.7475   29.0371   22.4055      27.672    153.5498837           2          
MisPlume(west)    GOM_UW_1704    2017-04-09T08:15:55Z    -89.7475   29.0331   22.4356      27.681    154.5050505           2          
MisPlume(west)    GOM_UW_1704    2017-04-09T08:17:24Z    -89.7476   29.0292   22.407       27.703    152.5762754           2          
MisPlume(west)    GOM_UW_1704    2017-04-09T08:18:52Z    -89.7476   29.0253   22.3939      27.705    156.65505             2          
MisPlume(west)    GOM_UW_1704    2017-04-09T08:20:21Z    -89.7477   29.0214   22.4249      27.688    151.4417406           2          
MisPlume(west)    GOM_UW_1704    2017-04-09T08:21:49Z    -89.7478   29.0176   22.4291      27.685    165.0590776           2          
MisPlume(west)    GOM_UW_1704    2017-04-09T08:23:17Z    -89.7479   29.0138   22.2776      27.286    158.5304465           2          
MisPlume(west)    GOM_UW_1704    2017-04-09T08:24:48Z    -89.7479   29.01     21.8546      25.873    205.5654718           2          
MisPlume(west)    GOM_UW_1704    2017-04-09T08:26:15Z    -89.7481   29.0064   21.8701      25.843    214.3708384           2          
MisPlume(west)    GOM_UW_1704    2017-04-09T08:27:44Z    -89.7481   29.0027   21.9244      25.936    221.73523             2          
MisPlume(west)    GOM_UW_1704    2017-04-09T08:29:13Z    -89.7482   28.9989   21.8861      25.786    224.8622034           2          
MisPlume(west)    GOM_UW_1704    2017-04-09T08:30:42Z    -89.7483   28.9952   21.9413      25.933    229.4489733           2          
MisPlume(west)    GOM_UW_1704    2017-04-09T08:32:10Z    -89.7482   28.9915   21.8294      25.911    227.3609025           2          
MisPlume(west)    GOM_UW_1704    2017-04-09T08:33:39Z    -89.7482   28.9877   21.6288      25.737    228.7471659           2          
MisPlume(west)    GOM_UW_1704    2017-04-09T08:35:06Z    -89.7483   28.9841   21.5968      25.841    231.4689321           2          
MisPlume(west)    GOM_UW_1704    2017-04-09T08:36:38Z    -89.7483   28.9802   21.406       25.62     227.3432046           2          
MisPlume(west)    GOM_UW_1704    2017-04-09T08:38:07Z    -89.7483   28.9765   21.2202      25.388    244.9627133           2          
MisPlume(west)    GOM_UW_1704    2017-04-09T08:39:36Z    -89.7483   28.9728   21.1621      25.35     235.3923442           2          
MisPlume(west)    GOM_UW_1704    2017-04-09T08:41:05Z    -89.7483   28.969    21.1441      25.392    244.53491             2          
MisPlume(west)    GOM_UW_1704    2017-04-09T08:42:33Z    -89.7483   28.9652   21.2635      25.612    239.2872772           2          
MisPlume(west)    GOM_UW_1704    2017-04-09T08:44:01Z    -89.7484   28.9615   21.233       25.771    238.9873495           2          
MisPlume(west)    GOM_UW_1704    2017-04-09T08:45:31Z    -89.7486   28.9576   21.2799      25.794    241.1859199           2          
MisPlume(west)    GOM_UW_1704    2017-04-09T08:46:59Z    -89.7487   28.9539   21.0058      25.504    242.1318641           2          
MisPlume(west)    GOM_UW_1704    2017-04-09T08:48:26Z    -89.749    28.9502   21.1777      25.655    245.3369651           2          
MisPlume(west)    GOM_UW_1704    2017-04-09T08:49:55Z    -89.7492   28.9464   21.1818      25.622    239.8087242           2          
MisPlume(west)    GOM_UW_1704    2017-04-09T08:51:23Z    -89.7494   28.9429   21.3091      25.587    238.1411504           2          
MisPlume(west)    GOM_UW_1704    2017-04-09T08:52:51Z    -89.7497   28.9419   21.3317      25.831    250.124654            2          
MisPlume(west)    GOM_UW_1704    2017-04-09T08:54:22Z    -89.7497   28.9419   22.4114      28.064    216.1543054           2          
MisPlume(west)    GOM_UW_1704    2017-04-09T08:55:50Z    -89.7497   28.9419   22.4189      27.962    206.2724348           2          
MisPlume(west)    GOM_UW_1704    2017-04-09T08:57:19Z    -89.7496   28.9419   22.3765      27.918    198.3454714           2          
MisPlume(west)    GOM_UW_1704    2017-04-09T08:58:49Z    -89.7496   28.9419   22.2068      27.745    205.7088439           2          
MisPlume(west)    GOM_UW_1704    2017-04-09T09:00:18Z    -89.7495   28.9419   22.2163      27.815    210.3822525           2          
MisPlume(west)    GOM_UW_1704    2017-04-09T09:01:50Z    -89.7495   28.9419   22.1672      27.671    211.24843             2          
MisPlume(west)    GOM_UW_1704    2017-04-09T09:03:18Z    -89.7494   28.9419   22.1635      27.65     203.8836242           2          
MisPlume(west)    GOM_UW_1704    2017-04-09T09:04:46Z    -89.7493   28.9419   22.1882      27.739    203.7469163           2          
MisPlume(west)    GOM_UW_1704    2017-04-09T09:06:15Z    -89.7492   28.9419   22.159       27.676    209.1649665           2          
MisPlume(west)    GOM_UW_1704    2017-04-09T09:07:44Z    -89.7491   28.942    22.0041      27.28     215.6219956           2          
MisPlume(west)    GOM_UW_1704    2017-04-09T09:09:12Z    -89.7488   28.9422   22.1         27.58     213.5315788           2          
MisPlume(west)    GOM_UW_1704    2017-04-09T09:10:39Z    -89.7486   28.9424   22.0479      27.439    216.2744021           2          
MisPlume(west)    GOM_UW_1704    2017-04-09T09:12:08Z    -89.7487   28.9425   22.0263      27.377    210.1838157           2          
MisPlume(west)    GOM_UW_1704    2017-04-09T09:13:36Z    -89.7498   28.9416   21.2593      25.717    226.7161507           2          
MisPlume(west)    GOM_UW_1704    2017-04-09T09:15:05Z    -89.75     28.9395   21.2216      25.653    246.3574065           2          
MisPlume(west)    GOM_UW_1704    2017-04-09T09:16:34Z    -89.75     28.9371   21.0967      25.662    246.5722831           2          
MisPlume(west)    GOM_UW_1704    2017-04-09T09:18:03Z    -89.75     28.9347   21.0507      25.535    255.7549416           2          
MisPlume(west)    GOM_UW_1704    2017-04-09T09:19:31Z    -89.7501   28.9323   21.0614      25.537    257.3333248           2          
MisPlume(west)    GOM_UW_1704    2017-04-09T09:21:00Z    -89.7502   28.9299   21.1884      25.763    246.6091314           2          
MisPlume(west)    GOM_UW_1704    2017-04-09T09:22:30Z    -89.7502   28.9274   21.2082      25.746    251.7028947           2          
MisPlume(west)    GOM_UW_1704    2017-04-09T09:23:59Z    -89.7503   28.925    21.3045      25.772    256.2661259           2          
MisPlume(west)    GOM_UW_1704    2017-04-09T09:25:27Z    -89.7503   28.9226   21.326       25.715    254.3067414           2          
MisPlume(west)    GOM_UW_1704    2017-04-09T09:38:00Z    -89.7508   28.9004   21.4098      25.983    259.027006            2          
MisPlume(west)    GOM_UW_1704    2017-04-09T09:39:29Z    -89.7509   28.8967   21.1161      25.655    258.3137269           2          
MisPlume(west)    GOM_UW_1704    2017-04-09T09:41:00Z    -89.7509   28.8929   21.0424      25.115    279.3693347           2          
MisPlume(west)    GOM_UW_1704    2017-04-09T09:42:30Z    -89.751    28.8891   21.0534      24.806    293.9801112           2          
MisPlume(west)    GOM_UW_1704    2017-04-09T09:43:59Z    -89.7509   28.8853   21.0836      24.733    296.6827689           2          
MisPlume(west)    GOM_UW_1704    2017-04-09T09:45:29Z    -89.7508   28.8815   21.0867      24.824    296.6310051           2          
MisPlume(west)    GOM_UW_1704    2017-04-09T09:47:00Z    -89.7507   28.8777   21.1055      24.977    285.374133            2          
MisPlume(west)    GOM_UW_1704    2017-04-09T09:48:31Z    -89.7506   28.8738   21.0247      25.071    282.5434417           2          
MisPlume(west)    GOM_UW_1704    2017-04-09T09:49:59Z    -89.7506   28.8701   21.0659      25.221    277.2277742           2          
MisPlume(west)    GOM_UW_1704    2017-04-09T09:51:27Z    -89.7505   28.8664   21.052       25.081    280.5042237           2          
MisPlume(west)    GOM_UW_1704    2017-04-09T09:52:55Z    -89.7505   28.8627   21.043       24.834    279.4239063           2          
MisPlume(west)    GOM_UW_1704    2017-04-09T09:54:24Z    -89.7504   28.8589   21.0392      24.797    287.7201169           2          
MisPlume(west)    GOM_UW_1704    2017-04-09T09:55:54Z    -89.7503   28.8552   21.0356      24.684    285.9862099           2          
MisPlume(west)    GOM_UW_1704    2017-04-09T09:57:25Z    -89.7503   28.8515   21.0086      24.505    293.5983746           2          
MisPlume(west)    GOM_UW_1704    2017-04-09T09:58:53Z    -89.7502   28.8478   20.9521      24.353    297.3261751           2          
MisPlume(west)    GOM_UW_1704    2017-04-09T10:00:23Z    -89.7501   28.8441   21.0592      24.63     296.0401992           2          
MisPlume(west)    GOM_UW_1704    2017-04-09T10:01:51Z    -89.75     28.8404   20.9935      24.602    286.8148169           2          
MisPlume(west)    GOM_UW_1704    2017-04-09T10:03:22Z    -89.75     28.8366   21.0377      24.732    275.4490639           2          
MisPlume(west)    GOM_UW_1704    2017-04-09T10:04:50Z    -89.7499   28.8329   20.9917      24.618    277.0250022           2          
MisPlume(west)    GOM_UW_1704    2017-04-09T10:06:18Z    -89.7498   28.8292   20.9625      24.586    277.7962157           2          
MisPlume(west)    GOM_UW_1704    2017-04-09T10:07:46Z    -89.7497   28.8255   20.98        24.599    276.6307901           2          
MisPlume(west)    GOM_UW_1704    2017-04-09T10:09:14Z    -89.7497   28.8219   20.8622      24.363    282.1135157           2          
MisPlume(west)    GOM_UW_1704    2017-04-09T10:10:43Z    -89.7496   28.8183   20.6638      23.875    285.8189703           2          
MisPlume(west)    GOM_UW_1704    2017-04-09T10:12:11Z    -89.7495   28.8146   20.4612      23.328    305.8463326           2          
MisPlume(west)    GOM_UW_1704    2017-04-09T10:13:39Z    -89.7494   28.8109   20.4864      23.242    313.7731699           2          
MisPlume(west)    GOM_UW_1704    2017-04-09T10:15:10Z    -89.7493   28.8071   20.4779      23.175    318.0245272           2          
MisPlume(west)    GOM_UW_1704    2017-04-09T10:16:40Z    -89.7492   28.8033   20.4413      23.118    319.4295978           2          
MisPlume(west)    GOM_UW_1704    2017-04-09T10:18:08Z    -89.7492   28.7997   20.3475      22.874    315.3151619           2          
MisPlume(west)    GOM_UW_1704    2017-04-09T10:19:36Z    -89.7491   28.796    20.1624      22.391    321.3885114           2          
MisPlume(west)    GOM_UW_1704    2017-04-09T10:21:06Z    -89.749    28.7923   20.1808      22.411    322.0835499           2          
MisPlume(west)    GOM_UW_1704    2017-04-09T10:22:37Z    -89.7489   28.7885   20.2389      22.324    325.0925955           2          
MisPlume(west)    GOM_UW_1704    2017-04-09T10:24:06Z    -89.7489   28.7848   20.2936      22.428    322.8238934           2          
MisPlume(west)    GOM_UW_1704    2017-04-09T10:25:36Z    -89.7488   28.7811   20.5132      22.683    325.5342914           2          
MisPlume(west)    GOM_UW_1704    2017-04-09T10:27:08Z    -89.7488   28.7773   20.593       22.846    321.5087357           2          
MisPlume(west)    GOM_UW_1704    2017-04-09T10:28:36Z    -89.7487   28.7736   20.7027      22.999    319.6747616           2          
MisPlume(west)    GOM_UW_1704    2017-04-09T10:30:06Z    -89.7488   28.7698   20.718       23.079    319.2265824           2          
MisPlume(west)    GOM_UW_1704    2017-04-09T10:31:35Z    -89.7489   28.7661   20.6891      23.311    319.5247685           2          
MisPlume(west)    GOM_UW_1704    2017-04-09T10:33:02Z    -89.7491   28.7624   20.7142      23.507    314.8253793           2          
MisPlume(west)    GOM_UW_1704    2017-04-09T10:34:31Z    -89.7493   28.7587   20.6812      23.547    314.641858            2          
MisPlume(west)    GOM_UW_1704    2017-04-09T10:36:01Z    -89.7494   28.7549   20.7679      23.746    312.2361389           2          
MisPlume(west)    GOM_UW_1704    2017-04-09T10:37:29Z    -89.7495   28.7511   20.9136      24.204    304.4118523           2          
MisPlume(west)    GOM_UW_1704    2017-04-09T10:38:59Z    -89.7496   28.7481   20.9266      24.407    300.7454764           2          
MisPlume(west)    GOM_UW_1704    2017-04-09T10:40:31Z    -89.7501   28.7479   21.8462      27.97     286.6324746           2          
MisPlume(west)    GOM_UW_1704    2017-04-09T10:42:00Z    -89.7504   28.7477   22.3403      29.85     251.7230738           2          
MisPlume(west)    GOM_UW_1704    2017-04-09T10:43:28Z    -89.7508   28.7476   22.3652      30.024    256.6111802           2          
MisPlume(west)    GOM_UW_1704    2017-04-09T10:44:56Z    -89.7511   28.7476   22.2498      29.387    252.789153            2          
MisPlume(west)    GOM_UW_1704    2017-04-09T10:46:27Z    -89.7515   28.7476   22.0609      28.563    247.7423757           2          
MisPlume(west)    GOM_UW_1704    2017-04-09T10:47:56Z    -89.7517   28.7477   21.9288      27.98     251.3471575           2          
MisPlume(west)    GOM_UW_1704    2017-04-09T10:49:24Z    -89.752    28.7477   22.1022      28.535    241.7162204           2          
MisPlume(west)    GOM_UW_1704    2017-04-09T10:50:54Z    -89.7522   28.7477   22.0127      28.167    228.9349582           2          
MisPlume(west)    GOM_UW_1704    2017-04-09T10:52:25Z    -89.7525   28.7478   22.1495      28.668    213.8524914           2          
MisPlume(west)    GOM_UW_1704    2017-04-09T10:53:55Z    -89.7529   28.7478   22.2068      28.859    211.9426739           2          
MisPlume(west)    GOM_UW_1704    2017-04-09T10:55:23Z    -89.7532   28.7479   22.2002      28.851    219.6866695           2          
MisPlume(west)    GOM_UW_1704    2017-04-09T10:56:52Z    -89.7535   28.7479   22.2209      28.911    219.2871408           2          
MisPlume(west)    GOM_UW_1704    2017-04-09T10:58:21Z    -89.7538   28.7479   22.2451      29.014    221.6302643           2          
MisPlume(west)    GOM_UW_1704    2017-04-09T10:59:49Z    -89.7541   28.7479   22.2122      28.888    222.5419261           2          
MisPlume(west)    GOM_UW_1704    2017-04-09T11:01:18Z    -89.7553   28.7478   22.2154      28.867    216.9155834           2          
MisPlume(west)    GOM_UW_1704    2017-04-09T11:02:46Z    -89.7555   28.746    21.1945      25.444    249.7038367           2          
MisPlume(west)    GOM_UW_1704    2017-04-09T11:04:15Z    -89.7553   28.7438   20.8789      24.605    291.420578            2          
MisPlume(west)    GOM_UW_1704    2017-04-09T11:05:43Z    -89.7552   28.7415   20.9391      24.732    300.4515563           2          
MisPlume(west)    GOM_UW_1704    2017-04-09T11:07:13Z    -89.7552   28.7391   20.9789      24.961    290.7698927           2          
MisPlume(west)    GOM_UW_1704    2017-04-09T11:08:41Z    -89.7551   28.7368   21.0451      25.124    287.2566852           2          
MisPlume(west)    GOM_UW_1704    2017-04-09T11:10:10Z    -89.7551   28.7344   21.0412      25.165    285.6373148           2          
MisPlume(west)    GOM_UW_1704    2017-04-09T11:11:38Z    -89.7551   28.7321   21.0375      25.249    282.2261174           2          
MisPlume(west)    GOM_UW_1704    2017-04-09T11:13:07Z    -89.755    28.7298   21.0066      25.356    280.9522781           2          
MisPlume(west)    GOM_UW_1704    2017-04-09T11:14:36Z    -89.755    28.7275   21.0707      25.549    278.3518151           2          
MisPlume(west)    GOM_UW_1704    2017-04-09T11:16:05Z    -89.7549   28.7252   21.0984      25.839    277.5061073           2          
MisPlume(west)    GOM_UW_1704    2017-04-09T11:17:34Z    -89.7549   28.7228   21.1529      26.155    271.4057742           2          
MisPlume(west)    GOM_UW_1704    2017-04-09T11:19:05Z    -89.7549   28.7205   21.2817      26.572    260.9392617           2          
MisPlume(west)    GOM_UW_1704    2017-04-09T11:20:33Z    -89.7548   28.7181   21.3059      26.789    255.6857935           2          
MisPlume(west)    GOM_UW_1704    2017-04-09T11:22:03Z    -89.7548   28.7158   21.3371      26.94     251.9530163           2          
MisPlume(west)    GOM_UW_1704    2017-04-09T11:23:36Z    -89.7547   28.7133   21.2947      27.04     250.9752217           2          
MisPlume(west)    GOM_UW_1704    2017-04-09T11:25:03Z    -89.7547   28.711    21.2948      27.016    251.8386332           2          
MisPlume(west)    GOM_UW_1704    2017-04-09T11:26:32Z    -89.7546   28.7087   21.4232      27.255    255.7867472           2          
MisPlume(west)    GOM_UW_1704    2017-04-09T11:27:59Z    -89.7545   28.7064   21.4335      27.331    248.89122             2          
MisPlume(west)    GOM_UW_1704    2017-04-09T11:29:29Z    -89.7545   28.704    21.3643      27.34     252.163551            2          
MisPlume(west)    GOM_UW_1704    2017-04-09T11:30:57Z    -89.7545   28.7017   21.4426      27.575    249.8321773           2          
MisPlume(west)    GOM_UW_1704    2017-04-09T11:32:25Z    -89.7544   28.6994   21.5729      27.898    243.3995453           2          
MisPlume(west)    GOM_UW_1704    2017-04-09T11:33:54Z    -89.7544   28.697    21.594       28.098    238.1491695           2          
MisPlume(west)    GOM_UW_1704    2017-04-09T11:35:23Z    -89.7543   28.6947   21.6112      28.21     243.7214257           2          
MisPlume(west)    GOM_UW_1704    2017-04-09T11:36:51Z    -89.7543   28.6923   21.5342      28.211    247.9257785           2          
MisPlume(west)    GOM_UW_1704    2017-04-09T11:38:19Z    -89.7542   28.69     21.4653      28.239    257.484051            2          
MisPlume(west)    GOM_UW_1704    2017-04-09T11:39:47Z    -89.7542   28.6877   21.4124      28.432    260.7459431           2          
MisPlume(west)    GOM_UW_1704    2017-04-09T11:41:17Z    -89.7541   28.6853   21.6249      28.831    260.3404739           2          
MisPlume(west)    GOM_UW_1704    2017-04-09T11:42:45Z    -89.7541   28.6829   21.7939      29.197    258.286032            2          
MisPlume(west)    GOM_UW_1704    2017-04-09T11:44:14Z    -89.7541   28.6806   21.8103      29.335    257.1362348           2          
MisPlume(west)    GOM_UW_1704    2017-04-09T11:45:42Z    -89.754    28.6783   21.8848      29.67     256.7471773           2          
MisPlume(west)    GOM_UW_1704    2017-04-09T11:47:13Z    -89.7539   28.6759   22.1508      30.165    257.858985            2          
MisPlume(west)    GOM_UW_1704    2017-04-09T11:48:41Z    -89.7539   28.6737   22.2283      30.237    257.6415487           2          
MisPlume(west)    GOM_UW_1704    2017-04-09T11:50:09Z    -89.7539   28.6714   22.1475      30.253    264.7879212           2          
MisPlume(west)    GOM_UW_1704    2017-04-09T11:51:38Z    -89.7538   28.6691   22.1204      30.285    262.9654478           2          
MisPlume(west)    GOM_UW_1704    2017-04-09T11:53:08Z    -89.7538   28.6667   22.0532      30.308    267.7049413           2          
MisPlume(west)    GOM_UW_1704    2017-04-09T11:54:37Z    -89.7537   28.6644   21.9489      30.38     269.9194973           2          
MisPlume(west)    GOM_UW_1704    2017-04-09T11:56:04Z    -89.7537   28.6615   21.7757      30.437    263.4319521           2          
MisPlume(west)    GOM_UW_1704    2017-04-09T11:57:33Z    -89.7539   28.6576   22.0215      30.87     266.0821013           2          
MisPlume(west)    GOM_UW_1704    2017-04-09T11:59:02Z    -89.7539   28.6537   22.0743      31.413    264.6114171           2          
MisPlume(west)    GOM_UW_1704    2017-04-09T12:00:31Z    -89.7538   28.6498   22.0461      31.704    246.1476717           2          
MisPlume(west)    GOM_UW_1704    2017-04-09T12:02:00Z    -89.7537   28.646    21.991       32.205    246.148996            2          
MisPlume(west)    GOM_UW_1704    2017-04-09T12:03:29Z    -89.7536   28.6422   22.0978      32.843    252.7660505           2          
MisPlume(west)    GOM_UW_1704    2017-04-09T12:04:56Z    -89.7535   28.6385   22.0925      33.172    263.5732812           2          
MisPlume(west)    GOM_UW_1704    2017-04-09T12:06:26Z    -89.7534   28.6347   22.3633      33.637    272.9454871           2          
MisPlume(west)    GOM_UW_1704    2017-04-09T12:07:54Z    -89.7534   28.6309   22.2931      33.793    280.4145369           2          
MisPlume(west)    GOM_UW_1704    2017-04-09T12:09:23Z    -89.7533   28.627    22.2733      33.937    285.9409957           2          
MisPlume(west)    GOM_UW_1704    2017-04-09T12:10:51Z    -89.7533   28.6232   22.2372      34.123    289.6856537           2          
MisPlume(west)    GOM_UW_1704    2017-04-09T12:12:21Z    -89.7532   28.6193   22.2459      34.297    293.4802202           2          
MisPlume(west)    GOM_UW_1704    2017-04-09T12:13:49Z    -89.7531   28.6155   22.0228      34.401    295.8652361           2          
MisPlume(west)    GOM_UW_1704    2017-04-09T12:15:17Z    -89.753    28.6116   22.1696      34.763    300.8541725           2          
MisPlume(west)    GOM_UW_1704    2017-04-09T12:16:48Z    -89.7529   28.6077   22.2357      34.903    311.7088775           2          
MisPlume(west)    GOM_UW_1704    2017-04-09T12:18:16Z    -89.7528   28.604    22.2569      34.878    314.5651726           2          
MisPlume(west)    GOM_UW_1704    2017-04-09T12:19:46Z    -89.7527   28.6001   22.2356      34.909    312.2365184           2          
MisPlume(west)    GOM_UW_1704    2017-04-09T12:21:15Z    -89.7527   28.5963   22.1735      34.884    314.4054408           2          
MisPlume(west)    GOM_UW_1704    2017-04-09T12:22:43Z    -89.7526   28.5925   22.0942      34.928    310.8012473           2          
MisPlume(west)    GOM_UW_1704    2017-04-09T12:24:11Z    -89.7525   28.5886   22.0655      35.061    314.1457749           2          
MisPlume(west)    GOM_UW_1704    2017-04-09T12:25:40Z    -89.7524   28.5848   22.0638      35.212    317.6384456           2          
MisPlume(west)    GOM_UW_1704    2017-04-09T12:27:08Z    -89.7523   28.581    22.0474      35.482    329.657076            2          
MisPlume(west)    GOM_UW_1704    2017-04-09T12:28:36Z    -89.7523   28.5774   22.4145      35.822    340.7302494           2          
MisPlume(west)    GOM_UW_1704    2017-04-09T12:30:06Z    -89.7522   28.5736   22.407       35.813    343.0703007           2          
MisPlume(west)    GOM_UW_1704    2017-04-09T12:31:35Z    -89.7521   28.5699   22.3402      35.785    341.6474684           2          
MisPlume(west)    GOM_UW_1704    2017-04-09T12:33:03Z    -89.752    28.5663   22.3326      35.793    340.1886817           2          
MisPlume(west)    GOM_UW_1704    2017-04-09T12:34:34Z    -89.752    28.5625   22.4638      35.863    339.2355379           2          
MisPlume(west)    GOM_UW_1704    2017-04-09T12:47:13Z    -89.7511   28.5313   22.6284      36.089    366.3646838           2          
MisPlume(west)    GOM_UW_1704    2017-04-09T12:48:45Z    -89.7509   28.5276   22.6666      36.11     366.6099221           2          
MisPlume(west)    GOM_UW_1704    2017-04-09T12:50:14Z    -89.7507   28.524    22.6736      36.115    368.1460045           2          
MisPlume(west)    GOM_UW_1704    2017-04-09T12:51:43Z    -89.7506   28.5203   22.7029      36.132    366.6292645           2          
MisPlume(west)    GOM_UW_1704    2017-04-09T12:53:12Z    -89.7505   28.5167   22.7028      36.138    367.3525709           2          
MisPlume(west)    GOM_UW_1704    2017-04-09T12:54:41Z    -89.7503   28.5131   22.7068      36.144    366.7109914           2          
MisPlume(west)    GOM_UW_1704    2017-04-09T12:56:12Z    -89.7502   28.5095   22.7171      36.148    366.5950744           2          
MisPlume(west)    GOM_UW_1704    2017-04-09T12:57:43Z    -89.75     28.5058   22.714       36.149    366.877409            2          
MisPlume(west)    GOM_UW_1704    2017-04-09T12:59:12Z    -89.7499   28.5022   22.7104      36.154    367.3591379           2          
MisPlume(west)    GOM_UW_1704    2017-04-09T13:00:40Z    -89.7501   28.5005   22.6853      36.152    368.6926049           2          
MisPlume(west)    GOM_UW_1704    2017-04-09T13:02:08Z    -89.7497   28.5005   22.6711      36.149    371.0371391           2          
MisPlume(west)    GOM_UW_1704    2017-04-09T13:03:37Z    -89.7494   28.5008   22.6777      36.148    367.7864797           2          
MisPlume(west)    GOM_UW_1704    2017-04-09T13:05:07Z    -89.7493   28.5011   22.6861      36.149    369.1903075           2          
MisPlume(west)    GOM_UW_1704    2017-04-09T13:06:35Z    -89.7492   28.5014   22.6862      36.134    368.7000462           2          
MisPlume(west)    GOM_UW_1704    2017-04-09T13:08:06Z    -89.7491   28.5017   22.7394      36.147    368.2750425           2          
MisPlume(west)    GOM_UW_1704    2017-04-09T13:09:35Z    -89.7491   28.5019   22.7099      36.148    367.8971106           2          
MisPlume(west)    GOM_UW_1704    2017-04-09T13:11:04Z    -89.749    28.5021   22.7194      36.146    369.1005675           2          
MisPlume(west)    GOM_UW_1704    2017-04-09T13:12:35Z    -89.749    28.5023   22.6992      36.147    nd                    2          
MisPlume(west)    GOM_UW_1704    2017-04-09T13:14:04Z    -89.749    28.5025   22.7222      36.147    368.0939601           2          
MisPlume(west)    GOM_UW_1704    2017-04-09T13:15:33Z    -89.7489   28.5026   22.7093      36.147    368.0782737           2          
MisPlume(west)    GOM_UW_1704    2017-04-09T13:17:01Z    -89.7489   28.5027   22.7225      36.147    367.4534302           2          
MisPlume(west)    GOM_UW_1704    2017-04-09T13:18:29Z    -89.7489   28.503    22.702       36.147    368.5324007           2          
MisPlume(west)    GOM_UW_1704    2017-04-09T13:19:57Z    -89.7489   28.503    22.7268      36.146    368.8205758           2          
MisPlume(west)    GOM_UW_1704    2017-04-09T13:21:25Z    -89.7489   28.5032   22.7141      36.146    369.4283833           2          
MisPlume(west)    GOM_UW_1704    2017-04-09T13:22:53Z    -89.7488   28.5034   22.7057      36.146    367.988497            2          
MisPlume(west)    GOM_UW_1704    2017-04-09T13:24:24Z    -89.7488   28.5035   22.706       36.146    369.9138759           2          
MisPlume(west)    GOM_UW_1704    2017-04-09T13:25:52Z    -89.7488   28.5037   22.7157      36.146    367.541194            2          
MisPlume(west)    GOM_UW_1704    2017-04-09T13:27:23Z    -89.7488   28.5039   22.7153      36.146    369.413669            2          
MisPlume(west)    GOM_UW_1704    2017-04-09T13:28:51Z    -89.7487   28.504    22.7067      36.146    367.8653861           2          
MisPlume(west)    GOM_UW_1704    2017-04-09T13:30:23Z    -89.7487   28.504    22.7133      36.147    368.1076437           2          
MisPlume(west)    GOM_UW_1704    2017-04-09T13:31:53Z    -89.7487   28.5042   22.7198      36.131    369.5782693           2          
MisPlume(west)    GOM_UW_1704    2017-04-09T13:33:21Z    -89.7487   28.5045   22.7216      36.146    367.5486261           2          
MisPlume(west)    GOM_UW_1704    2017-04-09T13:34:49Z    -89.7486   28.5046   22.7127      36.146    368.4857814           2          
MisPlume(west)    GOM_UW_1704    2017-04-09T13:36:17Z    -89.7486   28.5047   22.708       36.146    369.3200761           2          
MisPlume(west)    GOM_UW_1704    2017-04-09T13:37:46Z    -89.7486   28.505    22.705       36.146    367.309118            2          
MisPlume(west)    GOM_UW_1704    2017-04-09T13:39:15Z    -89.7486   28.5052   22.7163      36.146    367.9583186           2          
MisPlume(west)    GOM_UW_1704    2017-04-09T13:40:46Z    -89.7486   28.5054   22.734       36.146    367.1064141           2          
MisPlume(west)    GOM_UW_1704    2017-04-09T13:42:13Z    -89.7486   28.5056   22.7361      36.146    367.082672            2          
MisPlume(west)    GOM_UW_1704    2017-04-09T13:43:46Z    -89.7485   28.5058   22.7281      36.146    366.2875156           2          
MisPlume(west)    GOM_UW_1704    2017-04-09T13:45:14Z    -89.7485   28.506    22.7242      36.146    366.7197837           2          
MisPlume(west)    GOM_UW_1704    2017-04-09T13:46:43Z    -89.7475   28.5073   22.7308      36.143    366.6759462           2          
MisPlume(west)    GOM_UW_1704    2017-04-09T13:48:11Z    -89.7459   28.5094   22.7449      36.144    367.7691917           2          
MisPlume(west)    GOM_UW_1704    2017-04-09T13:49:39Z    -89.7442   28.5115   22.7554      36.143    367.8341039           2          
MisPlume(west)    GOM_UW_1704    2017-04-09T13:51:08Z    -89.7424   28.5136   22.7533      36.141    368.3846236           2          
MisPlume(west)    GOM_UW_1704    2017-04-09T13:52:36Z    -89.7405   28.5157   22.7503      36.13     370.448661            2          
MisPlume(west)    GOM_UW_1704    2017-04-09T13:54:05Z    -89.7387   28.5178   22.7544      36.137    368.2819983           2          
MisPlume(west)    GOM_UW_1704    2017-04-09T13:55:35Z    -89.7368   28.52     22.7505      36.131    366.7392121           2          
MisPlume(west)    GOM_UW_1704    2017-04-09T13:57:03Z    -89.735    28.5221   22.7522      36.134    368.0946458           2          
MisPlume(west)    GOM_UW_1704    2017-04-09T13:58:32Z    -89.7332   28.5243   22.7527      36.136    367.9831055           2          
MisPlume(west)    GOM_UW_1704    2017-04-09T14:00:00Z    -89.7314   28.5263   22.738       36.128    367.6943912           2          
MisPlume(west)    GOM_UW_1704    2017-04-09T14:01:29Z    -89.7296   28.5284   22.7372      36.125    367.2877922           2          
MisPlume(west)    GOM_UW_1704    2017-04-09T14:02:57Z    -89.7278   28.5305   22.7372      36.123    366.7275756           2          
MisPlume(west)    GOM_UW_1704    2017-04-09T14:04:26Z    -89.726    28.5326   22.7363      36.12     366.8192067           2          
MisPlume(west)    GOM_UW_1704    2017-04-09T14:05:54Z    -89.7242   28.5347   22.7355      36.119    367.4173922           2          
MisPlume(west)    GOM_UW_1704    2017-04-09T14:07:24Z    -89.7223   28.5368   22.733       36.117    366.5635096           2          
MisPlume(west)    GOM_UW_1704    2017-04-09T14:08:53Z    -89.7205   28.539    22.7281      36.114    367.6014358           2          
MisPlume(west)    GOM_UW_1704    2017-04-09T14:10:22Z    -89.7186   28.5411   22.7252      36.11     368.3926755           2          
MisPlume(west)    GOM_UW_1704    2017-04-09T14:11:49Z    -89.7169   28.5432   22.7242      36.107    366.5946326           2          
MisPlume(west)    GOM_UW_1704    2017-04-09T14:13:19Z    -89.715    28.5453   22.7209      36.105    366.0456581           2          
MisPlume(west)    GOM_UW_1704    2017-04-09T14:14:48Z    -89.7132   28.5474   22.7303      36.108    366.0954165           2          
MisPlume(west)    GOM_UW_1704    2017-04-09T14:16:17Z    -89.7114   28.5495   22.74        36.109    366.346597            2          
MisPlume(west)    GOM_UW_1704    2017-04-09T14:17:46Z    -89.7096   28.5516   22.7479      36.111    366.4460548           2          
MisPlume(west)    GOM_UW_1704    2017-04-09T14:19:14Z    -89.7078   28.5537   22.7503      36.111    365.3850952           2          
MisPlume(west)    GOM_UW_1704    2017-04-09T14:20:45Z    -89.7059   28.5558   22.7386      36.104    368.6950151           2          
MisPlume(west)    GOM_UW_1704    2017-04-09T14:22:14Z    -89.7041   28.5579   22.7415      36.104    365.5123481           2          
MisPlume(west)    GOM_UW_1704    2017-04-09T14:23:42Z    -89.7023   28.56     22.7271      36.097    366.2254043           2          
MisPlume(west)    GOM_UW_1704    2017-04-09T14:25:11Z    -89.7005   28.562    22.7156      36.088    366.7348321           2          
MisPlume(west)    GOM_UW_1704    2017-04-09T14:26:39Z    -89.6987   28.5641   22.7003      36.076    365.4193011           2          
MisPlume(west)    GOM_UW_1704    2017-04-09T14:28:08Z    -89.6969   28.5662   22.688       36.065    364.5870533           2          
MisPlume(west)    GOM_UW_1704    2017-04-09T14:29:36Z    -89.6951   28.5682   22.6769      36.056    364.8428889           2          
MisPlume(west)    GOM_UW_1704    2017-04-09T14:31:05Z    -89.6933   28.5703   22.6715      36.051    363.518058            2          
MisPlume(west)    GOM_UW_1704    2017-04-09T14:32:34Z    -89.6915   28.5723   22.6686      36.047    364.0652627           2          
MisPlume(west)    GOM_UW_1704    2017-04-09T14:34:01Z    -89.6898   28.5744   22.6715      36.047    365.2947518           2          
MisPlume(west)    GOM_UW_1704    2017-04-09T14:35:32Z    -89.6879   28.5765   22.675       36.054    366.5397806           2          
MisPlume(west)    GOM_UW_1704    2017-04-09T14:37:03Z    -89.6861   28.5786   22.6832      36.056    366.836446            2          
MisPlume(west)    GOM_UW_1704    2017-04-09T14:38:32Z    -89.6843   28.5807   22.6856      36.058    364.7726747           2          
MisPlume(west)    GOM_UW_1704    2017-04-09T14:40:01Z    -89.6823   28.583    22.6869      36.06     365.5009897           2          
MisPlume(west)    GOM_UW_1704    2017-04-09T14:41:28Z    -89.6796   28.5861   22.692       36.066    365.4745592           2          
MisPlume(west)    GOM_UW_1704    2017-04-09T14:42:57Z    -89.6769   28.5893   22.6992      36.068    365.2213953           2          
MisPlume(west)    GOM_UW_1704    2017-04-09T14:44:28Z    -89.6742   28.5925   22.6973      36.067    365.6950202           2          
MisPlume(west)    GOM_UW_1704    2017-04-09T14:45:56Z    -89.6715   28.5955   22.6889      36.059    366.6668132           2          
MisPlume(west)    GOM_UW_1704    2017-04-09T14:47:24Z    -89.6688   28.5986   22.6895      36.054    365.9136277           2          
MisPlume(west)    GOM_UW_1704    2017-04-09T14:48:52Z    -89.6662   28.6017   22.6917      36.055    367.4119853           2          
MisPlume(west)    GOM_UW_1704    2017-04-09T14:50:20Z    -89.6635   28.6048   22.6873      36.057    368.4634991           2          
MisPlume(west)    GOM_UW_1704    2017-04-09T14:51:50Z    -89.6608   28.6079   22.6834      36.055    365.5470834           2          
MisPlume(west)    GOM_UW_1704    2017-04-09T14:53:19Z    -89.6581   28.611    22.6881      36.06     366.163855            2          
MisPlume(west)    GOM_UW_1704    2017-04-09T14:54:46Z    -89.6555   28.614    22.6931      36.067    365.1024294           2          
MisPlume(west)    GOM_UW_1704    2017-04-09T14:56:15Z    -89.6529   28.6171   22.7103      36.107    366.2248878           2          
MisPlume(west)    GOM_UW_1704    2017-04-09T14:57:46Z    -89.6501   28.6203   22.7211      36.119    368.2372897           2          
MisPlume(west)    GOM_UW_1704    2017-04-09T14:59:15Z    -89.6474   28.6234   22.7299      36.123    368.5540655           2          
MisPlume(west)    GOM_UW_1704    2017-04-09T15:00:46Z    -89.6447   28.6265   22.7267      36.12     369.6400209           2          
MisPlume(west)    GOM_UW_1704    2017-04-09T15:02:15Z    -89.642    28.6296   22.7019      36.093    368.0745133           2          
MisPlume(west)    GOM_UW_1704    2017-04-09T15:03:43Z    -89.6394   28.6326   22.6812      36.08     365.952865            2          
MisPlume(west)    GOM_UW_1704    2017-04-09T15:05:12Z    -89.6368   28.6356   22.6693      36.077    366.02566             2          
MisPlume(west)    GOM_UW_1704    2017-04-09T15:06:40Z    -89.6341   28.6387   22.6684      36.077    364.6730559           2          
MisPlume(west)    GOM_UW_1704    2017-04-09T15:08:08Z    -89.6315   28.6417   22.6675      36.074    365.3323246           2          
MisPlume(west)    GOM_UW_1704    2017-04-09T15:09:36Z    -89.6289   28.6447   22.6554      36.069    363.9911065           2          
MisPlume(west)    GOM_UW_1704    2017-04-09T15:11:07Z    -89.6262   28.6479   22.6431      36.027    364.2576377           2          
MisPlume(west)    GOM_UW_1704    2017-04-09T15:12:37Z    -89.6235   28.6509   22.5954      36.009    368.4593092           2          
MisPlume(west)    GOM_UW_1704    2017-04-09T15:14:07Z    -89.6209   28.6539   22.5365      35.893    358.8765769           2          
MisPlume(west)    GOM_UW_1704    2017-04-09T15:15:34Z    -89.6184   28.6568   22.5495      35.863    355.0693045           2          
MisPlume(west)    GOM_UW_1704    2017-04-09T15:17:04Z    -89.6159   28.6598   22.5742      35.634    348.6355628           2          
MisPlume(west)    GOM_UW_1704    2017-04-09T15:18:33Z    -89.6134   28.6626   22.5601      35.482    340.2756505           2          
MisPlume(west)    GOM_UW_1704    2017-04-09T15:20:02Z    -89.6109   28.6655   22.5806      35.427    335.6431631           2          
MisPlume(west)    GOM_UW_1704    2017-04-09T15:21:30Z    -89.6084   28.6683   22.6407      35.409    333.0874301           2          
MisPlume(west)    GOM_UW_1704    2017-04-09T15:22:59Z    -89.606    28.6712   22.6721      35.314    331.0315404           2          
MisPlume(west)    GOM_UW_1704    2017-04-09T15:24:30Z    -89.6034   28.6741   22.7213      35.215    324.987838            2          
MisPlume(west)    GOM_UW_1704    2017-04-09T15:25:58Z    -89.601    28.677    22.7642      35.14     319.3528429           2          
MisPlume(west)    GOM_UW_1704    2017-04-09T15:27:27Z    -89.5985   28.6798   22.4236      34.152    308.0477378           2          
MisPlume(west)    GOM_UW_1704    2017-04-09T15:28:55Z    -89.5961   28.6825   22.5198      33.818    289.5060121           2          
MisPlume(west)    GOM_UW_1704    2017-04-09T15:30:23Z    -89.5937   28.6853   22.4485      33.672    278.2231278           2          
MisPlume(west)    GOM_UW_1704    2017-04-09T15:31:53Z    -89.5913   28.6881   22.4603      33.659    270.4502608           2          
MisPlume(west)    GOM_UW_1704    2017-04-09T15:33:21Z    -89.5889   28.6908   22.4418      33.413    264.9658442           2          
MisPlume(west)    GOM_UW_1704    2017-04-09T15:34:50Z    -89.5865   28.6936   22.3284      33.154    264.8513655           2          
MisPlume(west)    GOM_UW_1704    2017-04-09T15:36:18Z    -89.5841   28.6965   22.2363      33.031    263.7868337           2          
MisPlume(west)    GOM_UW_1704    2017-04-09T15:37:45Z    -89.5817   28.6992   22.2035      32.615    280.9368949           2          
MisPlume(west)    GOM_UW_1704    2017-04-09T15:39:15Z    -89.5793   28.702    22.0583      32.332    289.2580908           2          
MisPlume(west)    GOM_UW_1704    2017-04-09T15:40:44Z    -89.5768   28.7048   21.9892      32.156    295.2896448           2          
MisPlume(west)    GOM_UW_1704    2017-04-09T15:42:16Z    -89.5743   28.7077   22.0101      32.107    292.3051383           2          
MisPlume(west)    GOM_UW_1704    2017-04-09T15:43:44Z    -89.5719   28.7105   22.0031      31.959    294.0485436           2          
MisPlume(west)    GOM_UW_1704    2017-04-09T15:56:18Z    -89.5517   28.7338   21.4813      24.216    266.9940049           2          
MisPlume(west)    GOM_UW_1704    2017-04-09T15:57:47Z    -89.5494   28.7365   21.4075      24.035    266.1143407           2          
MisPlume(west)    GOM_UW_1704    2017-04-09T15:59:15Z    -89.547    28.7392   21.5163      23.699    260.3933394           2          
MisPlume(west)    GOM_UW_1704    2017-04-09T16:00:46Z    -89.5447   28.742    21.434       23.385    254.8952832           2          
MisPlume(west)    GOM_UW_1704    2017-04-09T16:02:15Z    -89.5423   28.7447   21.5824      23.229    250.6211083           2          
MisPlume(west)    GOM_UW_1704    2017-04-09T16:03:44Z    -89.54     28.7474   21.5834      22.579    254.2266219           2          
MisPlume(west)    GOM_UW_1704    2017-04-09T16:05:15Z    -89.5375   28.7502   21.5355      22.081    254.9611339           2          
MisPlume(west)    GOM_UW_1704    2017-04-09T16:06:43Z    -89.5352   28.7529   21.4463      21.376    261.8851693           2          
MisPlume(west)    GOM_UW_1704    2017-04-09T16:08:12Z    -89.5328   28.7556   21.39        21.009    266.2338275           2          
MisPlume(west)    GOM_UW_1704    2017-04-09T16:09:40Z    -89.5305   28.7583   21.3363      20.744    272.4193998           2          
MisPlume(west)    GOM_UW_1704    2017-04-09T16:11:09Z    -89.5281   28.761    21.3588      20.764    273.8607119           2          
MisPlume(west)    GOM_UW_1704    2017-04-09T16:12:38Z    -89.5258   28.7637   21.313       20.583    277.9905198           2          
MisPlume(west)    GOM_UW_1704    2017-04-09T16:14:09Z    -89.5234   28.7665   21.2844      20.327    285.21939             2          
MisPlume(west)    GOM_UW_1704    2017-04-09T16:15:40Z    -89.521    28.7693   21.298       20.224    293.5149897           2          
MisPlume(west)    GOM_UW_1704    2017-04-09T16:17:09Z    -89.5186   28.772    21.4141      20.31     304.7602961           2          
MisPlume(west)    GOM_UW_1704    2017-04-09T16:18:37Z    -89.5162   28.7746   21.3593      19.903    318.139834            2          
MisPlume(west)    GOM_UW_1704    2017-04-09T16:20:06Z    -89.5139   28.7774   21.3338      19.766    327.0376429           2          
MisPlume(west)    GOM_UW_1704    2017-04-09T16:21:36Z    -89.5116   28.78     21.3055      19.42     330.554359            2          
MisPlume(west)    GOM_UW_1704    2017-04-09T16:23:08Z    -89.5093   28.7828   21.2391      19.001    341.2932098           2          
MisPlume(west)    GOM_UW_1704    2017-04-09T16:24:35Z    -89.507    28.7854   21.159       18.642    349.4057735           2          
MisPlume(west)    GOM_UW_1704    2017-04-09T16:26:04Z    -89.5047   28.7881   21.1035      18.273    357.1681206           2          
MisPlume(west)    GOM_UW_1704    2017-04-09T16:27:32Z    -89.5024   28.7907   21.0673      17.808    365.8884374           2          
MisPlume(west)    GOM_UW_1704    2017-04-09T16:29:00Z    -89.5001   28.7934   20.9656      16.94     384.7544216           2          
MisPlume(west)    GOM_UW_1704    2017-04-09T16:30:29Z    -89.4978   28.796    20.8402      16.321    407.5383192           2          
MisPlume(west)    GOM_UW_1704    2017-04-09T16:31:58Z    -89.4955   28.7987   20.7452      15.246    434.3421909           2          
MisPlume(west)    GOM_UW_1704    2017-04-09T16:33:29Z    -89.4931   28.8014   20.7026      15.139    461.5522654           2          
MisPlume(west)    GOM_UW_1704    2017-04-09T16:34:57Z    -89.4908   28.8041   20.6425      14.496    476.6954187           2          
MisPlume(west)    GOM_UW_1704    2017-04-09T16:36:28Z    -89.4885   28.8068   20.5939      13.777    499.8273724           2          
MisPlume(west)    GOM_UW_1704    2017-04-09T16:37:58Z    -89.4861   28.8095   20.5561      13.44     511.0053124           2          
MisPlume(west)    GOM_UW_1704    2017-04-09T16:39:30Z    -89.4837   28.8122   20.5223      13.286    502.4220738           2          
MisPlume(west)    GOM_UW_1704    2017-04-09T16:40:59Z    -89.4814   28.8149   20.4665      12.736    535.8827497           2          
MisPlume(west)    GOM_UW_1704    2017-04-09T16:42:26Z    -89.4791   28.8175   20.4787      12.259    534.0970608           2          
MisPlume(west)    GOM_UW_1704    2017-04-09T16:43:55Z    -89.4768   28.8202   20.4426      11.995    556.4709239           2          
MisPlume(west)    GOM_UW_1704    2017-04-09T16:45:24Z    -89.4745   28.8229   20.4806      10.989    572.3091251           2          
MisPlume(west)    GOM_UW_1704    2017-04-09T16:46:53Z    -89.4722   28.8256   20.4234      10.579    597.9532821           2          
MisPlume(west)    GOM_UW_1704    2017-04-09T16:48:24Z    -89.4698   28.8283   20.3026      10.623    627.3176743           2          
MisPlume(west)    GOM_UW_1704    2017-04-09T16:49:53Z    -89.4674   28.831    20.2875      10.244    645.7573027           2          
MisPlume(west)    GOM_UW_1704    2017-04-09T16:51:24Z    -89.4651   28.8338   20.3778      9.991     672.7605528           2          
MisPlume(west)    GOM_UW_1704    2017-04-09T16:52:53Z    -89.4627   28.8365   20.3651      9.949     686.8923769           2          
MisPlume(west)    GOM_UW_1704    2017-04-09T16:54:21Z    -89.4603   28.8392   20.3438      9.737     690.6456315           2          
MisPlume(west)    GOM_UW_1704    2017-04-09T16:55:49Z    -89.458    28.8419   20.2643      9.504     709.062395            2          
MisPlume(west)    GOM_UW_1704    2017-04-09T16:57:22Z    -89.4555   28.8447   20.194       8.473     759.4312024           2          
MisPlume(west)    GOM_UW_1704    2017-04-09T16:58:52Z    -89.4531   28.8475   20.1192      8.197     774.153653            2          
MisPlume(west)    GOM_UW_1704    2017-04-09T17:00:20Z    -89.451    28.8503   20.0275      7.333     824.4810704           2          
MisPlume(west)    GOM_UW_1704    2017-04-09T17:01:51Z    -89.4487   28.8532   19.9579      6.509     851.9998329           2          
MisPlume(west)    GOM_UW_1704    2017-04-09T17:03:19Z    -89.4465   28.856    19.7715      5.956     921.0784292           2          
MisPlume(west)    GOM_UW_1704    2017-04-09T17:04:50Z    -89.4442   28.8589   19.7639      4.125     972.2424843           2          
MisPlume(west)    GOM_UW_1704    2017-04-09T17:06:18Z    -89.442    28.8618   19.6249      3.855     1019.315777           2          
MisPlume(west)    GOM_UW_1704    2017-04-09T17:07:47Z    -89.4398   28.8648   19.551       3.54      1036.951608           2          
MisPlume(west)    GOM_UW_1704    2017-04-09T17:09:15Z    -89.4379   28.868    19.5578      3.537     1035.039761           2          
MisPlume(west)    GOM_UW_1704    2017-04-09T17:10:43Z    -89.4363   28.8713   19.5399      3.473     1030.378646           2          
MisPlume(west)    GOM_UW_1704    2017-04-09T17:12:11Z    -89.4347   28.8746   19.5633      3.061     1046.444748           2          
MisPlume(west)    GOM_UW_1704    2017-04-09T17:13:41Z    -89.4341   28.8782   19.5236      3.103     1051.364572           2          
MisPlume(west)    GOM_UW_1704    2017-04-09T17:15:08Z    -89.4334   28.8817   19.5478      3.159     1052.682656           2          
MisPlume(west)    GOM_UW_1704    2017-04-09T17:16:37Z    -89.4331   28.8853   19.5649      2.994     1064.784687           2          
MisPlume(west)    GOM_UW_1704    2017-04-09T17:18:05Z    -89.4328   28.8889   19.5064      2.923     1077.756875           2          
MisPlume(west)    GOM_UW_1704    2017-04-09T17:19:33Z    -89.4326   28.8925   19.4829      2.856     1095.551062           2          
MisPlume(west)    GOM_UW_1704    2017-04-09T17:21:01Z    -89.4324   28.8961   19.5544      3.083     1107.890595           2          
MisPlume(west)    GOM_UW_1704    2017-04-09T17:22:29Z    -89.4324   28.8997   19.6225      3.352     1111.985425           2          
MisPlume(west)    GOM_UW_1704    2017-04-09T17:23:58Z    -89.4322   28.9028   18.4068      4.105     1117.209191           2          
MisPlume(west)    GOM_UW_1704    2017-04-09T17:25:26Z    -89.4319   28.9055   17.7087      2.782     1407.336535           2          
MisPlume(west)    GOM_UW_1704    2017-04-09T17:26:57Z    -89.4305   28.9078   17.4863      1.386     1577.328667           2          
MisPlume(west)    GOM_UW_1704    2017-04-09T17:28:26Z    -89.4288   28.91     17.4034      1.2       1648.379079           2          
MisPlume(west)    GOM_UW_1704    2017-04-09T17:29:55Z    -89.4272   28.9121   17.4783      1.114     1651.938432           2          
MisPlume(west)    GOM_UW_1704    2017-04-09T17:31:25Z    -89.4256   28.9142   17.614       1.056     1649.100163           2          
MisPlume(west)    GOM_UW_1704    2017-04-09T17:32:56Z    -89.4239   28.9164   17.6227      1.016     1651.032166           2          
MisPlume(west)    GOM_UW_1704    2017-04-09T17:34:24Z    -89.4222   28.9185   17.6268      1.036     1651.251877           2          
MisPlume(west)    GOM_UW_1704    2017-04-09T17:35:54Z    -89.4205   28.9207   17.6143      1.001     1657.906088           2          
MisPlume(west)    GOM_UW_1704    2017-04-09T17:37:24Z    -89.4187   28.9229   17.6177      0.988     1663.482616           2          
MisPlume(west)    GOM_UW_1704    2017-04-09T17:38:52Z    -89.4169   28.925    17.6407      0.978     1663.014666           2          
MisPlume(west)    GOM_UW_1704    2017-04-09T17:40:21Z    -89.4152   28.9272   17.6371      0.979     1666.744292           2          
MisPlume(west)    GOM_UW_1704    2017-04-09T17:41:49Z    -89.4135   28.9294   17.6723      0.996     1658.614423           2          
MisPlume(west)    GOM_UW_1704    2017-04-09T17:43:20Z    -89.4117   28.9317   17.7033      0.981     1658.474398           2          
MisPlume(west)    GOM_UW_1704    2017-04-09T17:44:48Z    -89.41     28.9339   17.6693      0.9       1660.562368           2          
MisPlume(west)    GOM_UW_1704    2017-04-09T17:46:17Z    -89.4081   28.9362   17.6743      0.86      1663.210322           2          
MisPlume(west)    GOM_UW_1704    2017-04-09T17:47:45Z    -89.4062   28.9385   17.614       0.899     1677.886675           2          
MisPlume(west)    GOM_UW_1704    2017-04-09T17:49:16Z    -89.4043   28.9408   17.5584      0.878     1683.641591           2          
MisPlume(west)    GOM_UW_1704    2017-04-09T17:50:43Z    -89.4026   28.9431   17.5642      0.804     1692.987679           2          
MisPlume(west)    GOM_UW_1704    2017-04-09T17:52:12Z    -89.4008   28.9455   17.5594      0.798     1696.309929           2          
MisPlume(west)    GOM_UW_1704    2017-04-09T17:53:41Z    -89.399    28.9479   17.4957      0.765     1699.597481           2          
MisPlume(west)    GOM_UW_1704    2017-04-09T17:55:12Z    -89.3972   28.9503   17.5091      0.702     1712.173117           2          
MisPlume(west)    GOM_UW_1704    2017-04-09T17:56:44Z    -89.3954   28.9528   17.541       0.674     1713.519185           2          
MisPlume(west)    GOM_UW_1704    2017-04-09T17:58:11Z    -89.3937   28.9551   17.5343      0.679     1712.826632           2          
MisPlume(west)    GOM_UW_1704    2017-04-09T17:59:41Z    -89.3918   28.9575   17.469       0.65      1723.249082           2          
MisPlume(west)    GOM_UW_1704    2017-04-09T18:01:09Z    -89.39     28.9598   17.4907      0.605     1724.10107            2          
MisPlume(west)    GOM_UW_1704    2017-04-09T18:02:40Z    -89.388    28.9622   17.5354      0.605     1727.93143            2          
MisPlume(west)    GOM_UW_1704    2017-04-09T18:04:08Z    -89.3862   28.9645   17.528       0.53      1717.979948           2          
MisPlume(west)    GOM_UW_1704    2017-04-09T18:05:38Z    -89.3843   28.9669   17.5085      0.455     1729.613434           2          
MisPlume(west)    GOM_UW_1704    2017-04-09T18:07:07Z    -89.3824   28.9693   17.4617      0.535     1742.745531           2          
MisPlume(west)    GOM_UW_1704    2017-04-09T18:08:34Z    -89.3805   28.9716   17.4754      0.537     1732.827641           2          
MisPlume(west)    GOM_UW_1704    2017-04-09T18:10:06Z    -89.3785   28.974    17.4555      0.434     1748.029967           2          
MisPlume(west)    GOM_UW_1704    2017-04-09T18:11:34Z    -89.3766   28.9762   17.4168      0.368     1752.564484           2          
MisPlume(west)    GOM_UW_1704    2017-04-09T18:13:02Z    -89.3746   28.9785   17.445       0.347     1764.104286           2          
MisPlume(west)    GOM_UW_1704    2017-04-09T18:14:30Z    -89.3726   28.9807   17.428       0.363     1758.533538           2          
MisPlume(west)    GOM_UW_1704    2017-04-09T18:15:59Z    -89.3706   28.9829   17.4105      0.307     1769.756543           2          
MisPlume(west)    GOM_UW_1704    2017-04-09T18:17:30Z    -89.3685   28.9852   17.3946      0.315     1779.869353           2          
MisPlume(west)    GOM_UW_1704    2017-04-09T18:18:58Z    -89.3665   28.9874   17.4063      0.284     1772.334016           2          
MisPlume(west)    GOM_UW_1704    2017-04-09T18:20:28Z    -89.3645   28.9896   17.3786      0.264     1778.760514           2          
MisPlume(west)    GOM_UW_1704    2017-04-09T18:21:58Z    -89.3624   28.9918   17.4094      0.239     1781.84507            2          
MisPlume(west)    GOM_UW_1704    2017-04-09T18:23:30Z    -89.3603   28.9941   17.3854      0.253     1777.770295           2          
MisPlume(west)    GOM_UW_1704    2017-04-09T18:24:58Z    -89.3582   28.9963   17.3448      0.253     1786.335262           2          
MisPlume(west)    GOM_UW_1704    2017-04-09T18:26:26Z    -89.3563   28.9987   17.3475      0.26      1790.216633           2          
MisPlume(west)    GOM_UW_1704    2017-04-09T18:27:55Z    -89.3545   29.0011   17.3902      0.244     1785.818384           2          
MisPlume(west)    GOM_UW_1704    2017-04-09T18:29:24Z    -89.3526   29.0035   17.3958      0.229     1783.527389           2          
MisPlume(west)    GOM_UW_1704    2017-04-09T18:30:51Z    -89.3509   29.0058   17.4194      0.219     1781.535424           2          
MisPlume(west)    GOM_UW_1704    2017-04-09T18:32:19Z    -89.3491   29.0082   17.3976      0.219     1780.191511           2          
MisPlume(west)    GOM_UW_1704    2017-04-09T18:33:48Z    -89.3474   29.0106   17.3535      0.232     1789.666292           2          
MisPlume(west)    GOM_UW_1704    2017-04-09T18:35:19Z    -89.3457   29.0131   17.3461      0.214     1795.810982           2          
MisPlume(west)    GOM_UW_1704    2017-04-09T18:36:50Z    -89.3438   29.0155   17.3586      0.209     1791.903865           2          
MisPlume(west)    GOM_UW_1704    2017-04-09T18:38:19Z    -89.3419   29.0177   17.3893      0.209     1790.862695           2          
MisPlume(west)    GOM_UW_1704    2017-04-09T18:39:49Z    -89.3402   29.0196   17.3947      0.21      1788.587918           2          
MisPlume(west)    GOM_UW_1704    2017-04-09T18:41:21Z    -89.3382   29.022    17.3942      0.213     1784.811011           2          
MisPlume(west)    GOM_UW_1704    2017-04-09T18:42:48Z    -89.3364   29.0244   17.3537      0.219     1788.822176           2          
MisPlume(west)    GOM_UW_1704    2017-04-09T18:44:18Z    -89.3346   29.0268   17.3318      0.217     1797.165697           2          
MisPlume(west)    GOM_UW_1704    2017-04-09T18:45:45Z    -89.3328   29.0291   17.2791      0.227     1797.226278           2          
MisPlume(west)    GOM_UW_1704    2017-04-09T18:47:14Z    -89.3309   29.0315   17.3856      0.208     1793.961552           2          
MisPlume(west)    GOM_UW_1704    2017-04-09T18:48:41Z    -89.3291   29.0337   17.4489      0.215     1788.022798           2          
MisPlume(west)    GOM_UW_1704    2017-04-09T18:50:13Z    -89.3268   29.0359   17.4186      0.211     1781.398822           2          
MisPlume(west)    GOM_UW_1704    2017-04-09T18:51:41Z    -89.3255   29.0372   17.4056      0.209     1779.559048           2          
MisPlume(west)    GOM_UW_1704    2017-04-09T18:53:09Z    -89.3247   29.0379   17.4444      0.209     1776.929157           2          
MisPlume(west)    GOM_UW_1704    2017-04-09T19:05:46Z    -89.333    29.0304   17.4396      0.215     1779.142914           2          
MisPlume(west)    GOM_UW_1704    2017-04-09T19:07:15Z    -89.3335   29.0299   17.469       0.222     1773.183902           2          
MisPlume(west)    GOM_UW_1704    2017-04-09T19:08:43Z    -89.3336   29.0291   17.4985      0.217     1775.412824           2          
MisPlume(west)    GOM_UW_1704    2017-04-09T19:10:14Z    -89.3337   29.0283   17.4133      0.237     1776.819936           2          
MisPlume(west)    GOM_UW_1704    2017-04-09T19:11:43Z    -89.3345   29.0277   17.5072      0.231     1794.837916           2          
MisPlume(west)    GOM_UW_1704    2017-04-09T19:13:11Z    -89.3355   29.0265   17.3728      0.244     1789.080241           2          
MisPlume(west)    GOM_UW_1704    2017-04-09T19:14:42Z    -89.3367   29.025    17.3275      0.238     1794.218841           2          
MisPlume(west)    GOM_UW_1704    2017-04-09T19:16:11Z    -89.3384   29.023    17.3907      0.236     1790.021472           2          
MisPlume(west)    GOM_UW_1704    2017-04-09T19:17:40Z    -89.3399   29.0209   17.3662      0.246     1793.857602           2          
MisPlume(west)    GOM_UW_1704    2017-04-09T19:19:08Z    -89.3414   29.0185   17.3463      0.239     1797.916963           2          
MisPlume(west)    GOM_UW_1704    2017-04-09T19:20:37Z    -89.343    29.0162   17.3633      0.233     1800.006386           2          
MisPlume(west)    GOM_UW_1704    2017-04-09T19:22:09Z    -89.3448   29.014    17.3419      0.246     1789.411904           2          
MisPlume(west)    GOM_UW_1704    2017-04-09T19:23:37Z    -89.3469   29.0113   17.386       0.243     1802.951313           2          
MisPlume(west)    GOM_UW_1704    2017-04-09T19:25:05Z    -89.3492   29.0085   17.3762      0.333     1795.095558           2          
MisPlume(west)    GOM_UW_1704    2017-04-09T19:26:34Z    -89.3516   29.0057   17.3788      0.241     1793.220054           2          
MisPlume(west)    GOM_UW_1704    2017-04-09T19:28:04Z    -89.354    29.0028   17.4232      0.307     1783.886145           2          
MisPlume(west)    GOM_UW_1704    2017-04-09T19:29:34Z    -89.3565   28.9998   17.336       0.283     1795.135739           2          
MisPlume(west)    GOM_UW_1704    2017-04-09T19:31:04Z    -89.359    28.9968   17.4036      0.273     1790.92131            2          
MisPlume(west)    GOM_UW_1704    2017-04-09T19:32:34Z    -89.3619   28.9932   17.3974      0.263     1782.152565           2          
MisPlume(west)    GOM_UW_1704    2017-04-09T19:34:03Z    -89.365    28.9896   17.4339      0.302     1790.285035           2          
MisPlume(west)    GOM_UW_1704    2017-04-09T19:35:30Z    -89.368    28.9859   17.4435      0.295     1791.139287           2          
MisPlume(west)    GOM_UW_1704    2017-04-09T19:36:59Z    -89.3712   28.9823   17.4693      0.382     1784.679157           2          
MisPlume(west)    GOM_UW_1704    2017-04-09T19:38:28Z    -89.3743   28.9784   17.4977      0.379     1782.861715           2          
MisPlume(west)    GOM_UW_1704    2017-04-09T19:39:56Z    -89.3772   28.9747   17.489       0.468     1777.112464           2          
MisPlume(west)    GOM_UW_1704    2017-04-09T19:41:24Z    -89.3788   28.9726   17.4473      0.599     1769.768633           2          
MisPlume(west)    GOM_UW_1704    2017-04-09T19:42:55Z    -89.3781   28.9723   17.4995      0.609     1711.632235           2          
MisPlume(west)    GOM_UW_1704    2017-04-09T19:44:23Z    -89.3777   28.9726   17.5408      0.436     1758.95431            2          
MisPlume(west)    GOM_UW_1704    2017-04-09T19:45:51Z    -89.3775   28.9728   17.5352      0.384     1764.96241            2          
MisPlume(west)    GOM_UW_1704    2017-04-09T19:47:22Z    -89.3775   28.9736   17.4886      0.496     1764.204926           2          
MisPlume(west)    GOM_UW_1704    2017-04-09T19:48:51Z    -89.3786   28.9736   17.4709      0.726     1760.360052           2          
MisPlume(west)    GOM_UW_1704    2017-04-09T19:50:19Z    -89.3793   28.973    17.619       2.026     1631.915631           2          
MisPlume(west)    GOM_UW_1704    2017-04-09T19:51:47Z    -89.3798   28.9725   17.5155      0.898     1681.391044           2          
MisPlume(west)    GOM_UW_1704    2017-04-09T19:53:16Z    -89.3803   28.972    17.5145      0.755     1725.389013           2          
MisPlume(west)    GOM_UW_1704    2017-04-09T19:54:44Z    -89.3814   28.9709   17.5129      0.699     1740.594839           2          
MisPlume(west)    GOM_UW_1704    2017-04-09T19:56:16Z    -89.3839   28.9679   17.5266      0.863     1740.030477           2          
MisPlume(west)    GOM_UW_1704    2017-04-09T19:57:44Z    -89.3866   28.965    17.5213      0.8       1728.063947           2          
MisPlume(west)    GOM_UW_1704    2017-04-09T19:59:14Z    -89.3897   28.9617   17.5896      0.748     1720.045431           2          
MisPlume(west)    GOM_UW_1704    2017-04-09T20:00:44Z    -89.3926   28.958    17.5929      0.781     1724.573504           2          
MisPlume(west)    GOM_UW_1704    2017-04-09T20:02:12Z    -89.3955   28.9544   17.6006      0.844     1715.647736           2          
MisPlume(west)    GOM_UW_1704    2017-04-09T20:03:42Z    -89.3983   28.9506   17.6449      0.863     1713.148481           2          
MisPlume(west)    GOM_UW_1704    2017-04-09T20:05:11Z    -89.401    28.9468   17.6171      0.883     1709.81104            2          
MisPlume(west)    GOM_UW_1704    2017-04-09T20:06:40Z    -89.4036   28.9431   17.649       0.946     1700.402614           2          
MisPlume(west)    GOM_UW_1704    2017-04-09T20:08:08Z    -89.4063   28.9393   17.6403      0.975     1695.793805           2          
MisPlume(west)    GOM_UW_1704    2017-04-09T20:09:37Z    -89.4091   28.9355   17.6584      0.932     1692.175671           2          
MisPlume(west)    GOM_UW_1704    2017-04-09T20:11:05Z    -89.4117   28.9317   17.7056      0.951     1688.94257            2          
MisPlume(west)    GOM_UW_1704    2017-04-09T20:12:34Z    -89.4145   28.9278   17.7497      1.015     1676.203404           2          
MisPlume(west)    GOM_UW_1704    2017-04-09T20:14:03Z    -89.4176   28.9241   17.7695      1.07      1673.587587           2          
MisPlume(west)    GOM_UW_1704    2017-04-09T20:15:33Z    -89.4207   28.9204   17.7679      1.197     1662.095715           2          
MisPlume(west)    GOM_UW_1704    2017-04-09T20:17:02Z    -89.4238   28.9167   17.7449      1.184     1659.72556            2          
MisPlume(west)    GOM_UW_1704    2017-04-09T20:18:30Z    -89.4269   28.913    17.769       1.294     1653.290501           2          
MisPlume(west)    GOM_UW_1704    2017-04-09T20:20:00Z    -89.4298   28.9091   17.7301      1.196     1663.205951           2          
MisPlume(west)    GOM_UW_1704    2017-04-09T20:21:29Z    -89.4325   28.905    17.6601      1.451     1657.933056           2          
MisPlume(west)    GOM_UW_1704    2017-04-09T20:22:57Z    -89.4349   28.9011   17.7112      2.344     1634.841868           2          
MisPlume(west)    GOM_UW_1704    2017-04-09T20:24:25Z    -89.4377   28.8975   18.8328      11.697    1441.191539           2          
MisPlume(west)    GOM_UW_1704    2017-04-09T20:25:56Z    -89.4405   28.8939   17.9904      3.12      1339.940061           2          
MisPlume(west)    GOM_UW_1704    2017-04-09T20:27:24Z    -89.4431   28.8905   18.1954      4.567     1306.04263            2          
MisPlume(west)    GOM_UW_1704    2017-04-09T20:28:53Z    -89.4457   28.8874   20.241       3.284     1038.313424           2          
MisPlume(west)    GOM_UW_1704    2017-04-09T20:30:21Z    -89.4482   28.8845   20.322       3.239     938.5522943           2          
MisPlume(west)    GOM_UW_1704    2017-04-09T20:31:50Z    -89.4507   28.8815   20.2735      3.187     931.5740644           2          
MisPlume(west)    GOM_UW_1704    2017-04-09T20:33:21Z    -89.4533   28.8784   20.2661      2.854     916.5172399           2          
MisPlume(west)    GOM_UW_1704    2017-04-09T20:34:50Z    -89.4559   28.8755   20.3339      2.777     880.3994323           2          
MisPlume(west)    GOM_UW_1704    2017-04-09T20:36:19Z    -89.4585   28.8725   20.4902      2.66      839.1675218           2          
MisPlume(west)    GOM_UW_1704    2017-04-09T20:37:47Z    -89.4599   28.8703   20.764       2.903     835.5536673           2          
MisPlume(west)    GOM_UW_1704    2017-04-09T20:39:16Z    -89.4603   28.8701   20.908       19.302    776.3431666           2          
MisPlume(west)    GOM_UW_1704    2017-04-09T20:40:44Z    -89.4608   28.87     20.7377      14.063    412.485429            2          
MisPlume(west)    GOM_UW_1704    2017-04-09T20:42:15Z    -89.4614   28.8698   20.6341      14.201    452.1943728           2          
MisPlume(west)    GOM_UW_1704    2017-04-09T20:43:44Z    -89.4619   28.8696   20.4528      15.892    425.710526            2          
MisPlume(west)    GOM_UW_1704    2017-04-09T20:45:12Z    -89.4624   28.8695   20.4941      16.119    448.737204            2          
MisPlume(west)    GOM_UW_1704    2017-04-09T20:46:41Z    -89.463    28.8693   20.3154      14.606    427.9657701           2          
MisPlume(west)    GOM_UW_1704    2017-04-09T20:48:09Z    -89.4636   28.8692   20.469       17.042    472.6195071           2          
MisPlume(west)    GOM_UW_1704    2017-04-09T20:49:37Z    -89.4643   28.8691   20.4936      17.443    454.9747094           2          
MisPlume(west)    GOM_UW_1704    2017-04-09T20:51:05Z    -89.465    28.869    20.5959      18.992    389.025723            2          
MisPlume(west)    GOM_UW_1704    2017-04-09T20:52:35Z    -89.4657   28.8688   20.4961      19.224    322.6249253           2          
MisPlume(west)    GOM_UW_1704    2017-04-09T20:54:04Z    -89.4663   28.8678   20.5742      4.799     418.0090245           2          
MisPlume(west)    GOM_UW_1704    2017-04-09T20:55:34Z    -89.4638   28.8676   20.8005      3.448     777.3720008           2          
MisPlume(west)    GOM_UW_1704    2017-04-09T20:57:02Z    -89.4616   28.8674   20.8684      3         795.0771097           2          
MisPlume(west)    GOM_UW_1704    2017-04-09T20:58:31Z    -89.4592   28.8672   20.7395      2.628     783.8516387           2          
MisPlume(west)    GOM_UW_1704    2017-04-09T21:00:02Z    -89.4572   28.867    20.5951      2.895     752.9696629           2          
MisPlume(west)    GOM_UW_1704    2017-04-09T21:01:31Z    -89.4557   28.8667   20.8329      3.248     587.8278706           2          
MisPlume(west)    GOM_UW_1704    2017-04-09T21:02:59Z    -89.4544   28.8663   20.7336      3.041     596.9891718           2          
MisPlume(west)    GOM_UW_1704    2017-04-09T21:04:28Z    -89.4531   28.8658   20.6491      2.772     646.0385502           2          
MisPlume(west)    GOM_UW_1704    2017-04-09T21:05:56Z    -89.4518   28.8655   20.4588      2.563     709.7051067           2          
MisPlume(west)    GOM_UW_1704    2017-04-09T21:07:24Z    -89.4499   28.8653   20.406       2.845     831.3669368           2          
MisPlume(west)    GOM_UW_1704    2017-04-09T21:08:52Z    -89.4476   28.8651   20.6705      2.924     840.4092891           2          
MisPlume(west)    GOM_UW_1704    2017-04-09T21:10:22Z    -89.4452   28.8649   20.8474      3.008     815.835222            2          
MisPlume(west)    GOM_UW_1704    2017-04-09T21:11:52Z    -89.4429   28.8646   21.1817      2.678     816.8706883           2          
MisPlume(west)    GOM_UW_1704    2017-04-09T21:13:20Z    -89.4405   28.8644   21.3708      2.728     800.9253244           2          
MisPlume(west)    GOM_UW_1704    2017-04-09T21:14:48Z    -89.4375   28.8641   21.5036      2.734     756.5782012           2          
MisPlume(west)    GOM_UW_1704    2017-04-09T21:16:16Z    -89.4336   28.8638   20.8483      2.312     794.5898916           2          
MisPlume(west)    GOM_UW_1704    2017-04-09T21:17:45Z    -89.4298   28.8634   20.757       2.251     818.3824102           2          
MisPlume(west)    GOM_UW_1704    2017-04-09T21:19:14Z    -89.4259   28.8632   20.9163      2.365     764.9383653           2          
MisPlume(west)    GOM_UW_1704    2017-04-09T21:20:44Z    -89.422    28.8628   20.9681      2.9       705.1474785           2          
MisPlume(west)    GOM_UW_1704    2017-04-09T21:22:13Z    -89.418    28.8625   21.0675      3.093     669.272192            2          
MisPlume(west)    GOM_UW_1704    2017-04-09T21:23:41Z    -89.4141   28.8622   21.3318      4.002     602.3594779           2          
MisPlume(west)    GOM_UW_1704    2017-04-09T21:25:12Z    -89.4101   28.8619   21.6577      8.088     425.0676254           2          
MisPlume(west)    GOM_UW_1704    2017-04-09T21:26:41Z    -89.4061   28.8615   21.718       8.911     308.0236938           2          
MisPlume(west)    GOM_UW_1704    2017-04-09T21:28:09Z    -89.402    28.8612   21.7614      9.153     304.7127827           2          
MisPlume(west)    GOM_UW_1704    2017-04-09T21:29:38Z    -89.3979   28.8609   21.6294      8.737     309.034765            2          
MisPlume(west)    GOM_UW_1704    2017-04-09T21:31:09Z    -89.3937   28.8606   21.9373      10.039    289.5264904           2          
MisPlume(west)    GOM_UW_1704    2017-04-09T21:32:38Z    -89.3896   28.8603   22.1327      12.571    261.0265409           2          
MisPlume(west)    GOM_UW_1704    2017-04-09T21:34:07Z    -89.3854   28.86     22.197       17.013    267.0918098           2          
MisPlume(west)    GOM_UW_1704    2017-04-09T21:35:36Z    -89.3813   28.8596   22.1137      17.961    254.2947538           2          
MisPlume(west)    GOM_UW_1704    2017-04-09T21:37:05Z    -89.3771   28.8593   22.12        19.166    242.2445858           2          
MisPlume(west)    GOM_UW_1704    2017-04-09T21:38:33Z    -89.3729   28.859    22.174       20.85     225.4276513           2          
MisPlume(west)    GOM_UW_1704    2017-04-09T21:40:03Z    -89.3687   28.8587   22.3286      23.438    209.7181692           2          
MisPlume(west)    GOM_UW_1704    2017-04-09T21:41:33Z    -89.3644   28.8584   22.2707      26.486    188.3059664           2          
MisPlume(west)    GOM_UW_1704    2017-04-09T21:43:02Z    -89.3602   28.8581   22.4308      28.026    182.3509313           2          
MisPlume(west)    GOM_UW_1704    2017-04-09T21:44:31Z    -89.3561   28.8578   22.5049      29.146    181.8281376           2          
MisPlume(west)    GOM_UW_1704    2017-04-09T21:46:02Z    -89.3518   28.8575   22.5888      29.575    180.7070544           2          
MisPlume(west)    GOM_UW_1704    2017-04-09T21:47:32Z    -89.3476   28.8571   22.6417      30.418    186.1477558           2          
MisPlume(west)    GOM_UW_1704    2017-04-09T21:49:00Z    -89.3435   28.8568   22.8243      30.858    188.3498507           2          
MisPlume(west)    GOM_UW_1704    2017-04-09T21:50:30Z    -89.3393   28.8565   22.8292      31.419    192.0585157           2          
MisPlume(west)    GOM_UW_1704    2017-04-09T21:51:59Z    -89.3351   28.8561   22.9161      32.538    205.4267784           2          
MisPlume(west)    GOM_UW_1704    2017-04-09T21:53:27Z    -89.331    28.8558   22.954       33.154    222.0028359           2          
MisPlume(west)    GOM_UW_1704    2017-04-09T21:54:57Z    -89.3268   28.8555   22.9625      33.809    238.4763559           2          
MisPlume(west)    GOM_UW_1704    2017-04-09T21:56:25Z    -89.3227   28.8551   22.9546      34.158    253.2212468           2          
MisPlume(west)    GOM_UW_1704    2017-04-09T21:57:55Z    -89.3185   28.8548   22.9571      34.424    264.4991314           2          
MisPlume(west)    GOM_UW_1704    2017-04-09T21:59:23Z    -89.3144   28.8545   22.9789      34.76     275.257915            2          
MisPlume(west)    GOM_UW_1704    2017-04-09T22:00:51Z    -89.3103   28.8542   23.1235      35.106    289.2963388           2          
MisPlume(west)    GOM_UW_1704    2017-04-09T22:02:19Z    -89.3062   28.8539   23.1587      35.38     302.9456596           2          
MisPlume(west)    GOM_UW_1704    2017-04-09T22:14:53Z    -89.2714   28.8508   23.0931      36.006    346.4548153           2          
MisPlume(west)    GOM_UW_1704    2017-04-09T22:16:24Z    -89.2672   28.8503   23.0139      36.145    353.1705122           2          
MisPlume(west)    GOM_UW_1704    2017-04-09T22:17:55Z    -89.263    28.8498   22.7981      36.24     368.977445            2          
MisPlume(west)    GOM_UW_1704    2017-04-09T22:19:25Z    -89.2588   28.8492   22.7531      36.228    374.4225681           2          
MisPlume(west)    GOM_UW_1704    2017-04-09T22:20:55Z    -89.2545   28.8487   22.7439      36.229    375.1637713           2          
MisPlume(west)    GOM_UW_1704    2017-04-09T22:22:26Z    -89.2502   28.8482   22.7297      36.231    374.7831553           2          
MisPlume(west)    GOM_UW_1704    2017-04-09T22:23:55Z    -89.246    28.8477   22.7312      36.233    374.8154354           2          
MisPlume(west)    GOM_UW_1704    2017-04-09T22:25:23Z    -89.2418   28.8471   22.7567      36.236    374.8495298           2          
MisPlume(west)    GOM_UW_1704    2017-04-09T22:26:51Z    -89.2376   28.8466   22.7761      36.237    374.4453175           2          
MisPlume(west)    GOM_UW_1704    2017-04-09T22:28:20Z    -89.2334   28.8461   22.7857      36.236    374.4148892           2          
MisPlume(west)    GOM_UW_1704    2017-04-09T22:29:48Z    -89.2292   28.8456   22.8152      36.243    374.2741574           2          
MisPlume(west)    GOM_UW_1704    2017-04-09T22:31:17Z    -89.2249   28.8451   22.8174      36.24     373.8942202           2          
MisPlume(west)    GOM_UW_1704    2017-04-09T22:32:47Z    -89.2206   28.8445   22.8034      36.236    374.4928862           2          
MisPlume(west)    GOM_UW_1704    2017-04-09T22:34:16Z    -89.2163   28.844    22.7995      36.233    374.2266455           2          
MisPlume(west)    GOM_UW_1704    2017-04-09T22:35:44Z    -89.2121   28.8435   22.8192      36.23     372.7297128           2          
MisPlume(west)    GOM_UW_1704    2017-04-09T22:37:13Z    -89.2078   28.8429   22.825       36.227    372.0545262           2          
MisPlume(west)    GOM_UW_1704    2017-04-09T22:38:42Z    -89.2036   28.8424   22.8394      36.222    370.998598            2          
MisPlume(west)    GOM_UW_1704    2017-04-09T22:40:09Z    -89.1994   28.8419   22.8541      36.212    371.3246824           2          
MisPlume(west)    GOM_UW_1704    2017-04-09T22:41:40Z    -89.1949   28.8413   22.8521      36.205    370.9580231           2          
MisPlume(west)    GOM_UW_1704    2017-04-09T22:43:10Z    -89.1905   28.8408   22.8582      36.215    370.9557326           2          
MisPlume(west)    GOM_UW_1704    2017-04-09T22:44:40Z    -89.1861   28.8403   22.8276      36.218    371.7021094           2          
MisPlume(west)    GOM_UW_1704    2017-04-09T22:46:10Z    -89.1817   28.8397   22.8325      36.217    372.0655978           2          
MisPlume(west)    GOM_UW_1704    2017-04-09T22:47:40Z    -89.1773   28.8392   22.8218      36.209    372.5291945           2          
MisPlume(west)    GOM_UW_1704    2017-04-09T22:49:08Z    -89.173    28.8386   22.8299      36.198    373.0463314           2          
MisPlume(west)    GOM_UW_1704    2017-04-09T22:50:36Z    -89.1686   28.8381   22.8252      36.195    372.0431405           2          
MisPlume(west)    GOM_UW_1704    2017-04-09T22:52:03Z    -89.1643   28.8376   22.8086      36.192    372.8929501           2          
MisPlume(west)    GOM_UW_1704    2017-04-09T22:53:32Z    -89.1599   28.837    22.8098      36.194    372.9177329           2          
MisPlume(west)    GOM_UW_1704    2017-04-09T22:55:01Z    -89.1555   28.8365   22.8015      36.197    373.8362126           2          
MisPlume(west)    GOM_UW_1704    2017-04-09T22:56:31Z    -89.1511   28.836    22.8081      36.201    373.4856156           2          
MisPlume(west)    GOM_UW_1704    2017-04-09T22:58:02Z    -89.1466   28.8354   22.8065      36.204    374.9447767           2          
MisPlume(west)    GOM_UW_1704    2017-04-09T22:59:31Z    -89.1421   28.8348   22.8342      36.209    375.4834593           2          
MisPlume(west)    GOM_UW_1704    2017-04-09T23:01:02Z    -89.1376   28.8343   22.871       36.22     379.425776            2          
MisPlume(west)    GOM_UW_1704    2017-04-09T23:02:34Z    -89.1331   28.8337   22.9462      36.24     383.2620571           2          
MisPlume(west)    GOM_UW_1704    2017-04-09T23:04:02Z    -89.1287   28.8332   22.9838      36.263    384.7607215           2          
MisPlume(west)    GOM_UW_1704    2017-04-09T23:05:30Z    -89.1244   28.8327   23.0021      36.276    384.7094124           2          
MisPlume(west)    GOM_UW_1704    2017-04-09T23:07:01Z    -89.1199   28.8322   23.025       36.275    385.1557233           2          
MisPlume(west)    GOM_UW_1704    2017-04-09T23:08:33Z    -89.1153   28.8318   23.0584      36.305    384.6329816           2          
MisPlume(west)    GOM_UW_1704    2017-04-09T23:10:01Z    -89.1109   28.8314   23.0775      36.316    383.9771088           2          
MisPlume(west)    GOM_UW_1704    2017-04-09T23:11:29Z    -89.1065   28.831    23.0847      36.322    384.7242204           2          
MisPlume(west)    GOM_UW_1704    2017-04-09T23:12:59Z    -89.1021   28.8306   23.1128      36.338    384.63873             2          
MisPlume(west)    GOM_UW_1704    2017-04-09T23:14:29Z    -89.0977   28.8308   23.1333      36.346    383.843032            2          
MisPlume(west)    GOM_UW_1704    2017-04-09T23:15:58Z    -89.095    28.8341   23.1296      36.349    382.4065504           2          
MisPlume(west)    GOM_UW_1704    2017-04-09T23:17:27Z    -89.0922   28.8374   23.1307      36.348    384.9892411           2          
MisPlume(west)    GOM_UW_1704    2017-04-09T23:18:59Z    -89.0893   28.8409   23.1213      36.347    385.8580341           2          
MisPlume(west)    GOM_UW_1704    2017-04-09T23:20:27Z    -89.0865   28.8443   23.1187      36.347    386.3982301           2          
MisPlume(west)    GOM_UW_1704    2017-04-09T23:21:54Z    -89.0838   28.8476   23.1076      36.344    382.8641729           2          
MisPlume(west)    GOM_UW_1704    2017-04-09T23:23:23Z    -89.081    28.851    23.0986      36.339    383.9828913           2          
MisPlume(west)    GOM_UW_1704    2017-04-09T23:24:53Z    -89.0781   28.8544   23.0981      36.337    382.4706702           2          
MisPlume(west)    GOM_UW_1704    2017-04-09T23:26:24Z    -89.0753   28.8578   23.0909      36.335    385.7340778           2          
MisPlume(west)    GOM_UW_1704    2017-04-09T23:27:52Z    -89.0725   28.8612   23.0972      36.338    385.2280408           2          
MisPlume(west)    GOM_UW_1704    2017-04-09T23:29:20Z    -89.0697   28.8645   23.0844      36.333    384.5636079           2          
MisPlume(west)    GOM_UW_1704    2017-04-09T23:30:48Z    -89.0669   28.8679   23.0877      36.334    385.1731355           2          
MisPlume(west)    GOM_UW_1704    2017-04-09T23:32:17Z    -89.0641   28.8713   23.0908      36.336    382.3189206           2          
MisPlume(west)    GOM_UW_1704    2017-04-09T23:33:45Z    -89.0613   28.8746   23.0778      36.333    386.1895614           2          
MisPlume(west)    GOM_UW_1704    2017-04-09T23:35:13Z    -89.0585   28.878    23.073       36.332    388.3944133           2          
MisPlume(west)    GOM_UW_1704    2017-04-09T23:36:42Z    -89.0557   28.8814   23.0722      36.332    389.9794013           2          
MisPlume(west)    GOM_UW_1704    2017-04-09T23:38:11Z    -89.0529   28.8848   23.0686      36.331    386.4208601           2          
MisPlume(west)    GOM_UW_1704    2017-04-09T23:39:40Z    -89.05     28.8882   23.0742      36.333    387.2522423           2          
MisPlume(west)    GOM_UW_1704    2017-04-09T23:41:08Z    -89.0473   28.8916   23.0813      36.337    383.3266466           2          
MisPlume(west)    GOM_UW_1704    2017-04-09T23:42:36Z    -89.0444   28.8949   23.0848      36.339    383.9636928           2          
MisPlume(west)    GOM_UW_1704    2017-04-09T23:44:07Z    -89.0416   28.8984   23.0843      36.336    386.9987394           2          
MisPlume(west)    GOM_UW_1704    2017-04-09T23:45:36Z    -89.0387   28.9018   23.0761      36.336    387.025687            2          
MisPlume(west)    GOM_UW_1704    2017-04-09T23:47:04Z    -89.0359   28.9051   23.0862      36.337    387.9231795           2          
MisPlume(west)    GOM_UW_1704    2017-04-09T23:48:32Z    -89.0332   28.9085   23.0784      36.34     387.9805893           2          
MisPlume(west)    GOM_UW_1704    2017-04-09T23:50:01Z    -89.0303   28.9119   23.0815      36.339    386.9500893           2          
MisPlume(west)    GOM_UW_1704    2017-04-09T23:51:28Z    -89.0276   28.9152   23.094       36.345    383.9868387           2          
MisPlume(west)    GOM_UW_1704    2017-04-09T23:52:59Z    -89.0247   28.9187   23.091       36.345    381.1678193           2          
MisPlume(west)    GOM_UW_1704    2017-04-09T23:54:28Z    -89.0219   28.9221   23.0942      36.344    385.6644345           2          
MisPlume(west)    GOM_UW_1704    2017-04-09T23:55:56Z    -89.019    28.9255   23.0952      36.346    387.3234136           2          
MisPlume(west)    GOM_UW_1704    2017-04-09T23:57:24Z    -89.0162   28.9288   23.088       36.343    387.5333286           2          
MisPlume(west)    GOM_UW_1704    2017-04-09T23:58:53Z    -89.0134   28.9322   23.081       36.34     387.2013097           2          
MisPlume(east)    GOM_UW_1704    2017-04-10T00:00:21Z    -89.0106   28.9356   23.0721      36.334    387.8823153           2          
MisPlume(east)    GOM_UW_1704    2017-04-10T00:01:48Z    -89.0079   28.939    23.0689      36.331    387.3746295           2          
MisPlume(east)    GOM_UW_1704    2017-04-10T00:03:17Z    -89.005    28.9424   23.07        36.334    386.1923075           2          
MisPlume(east)    GOM_UW_1704    2017-04-10T00:04:45Z    -89.0022   28.9457   23.0649      36.322    387.821808            2          
MisPlume(east)    GOM_UW_1704    2017-04-10T00:06:13Z    -88.9994   28.9491   23.0665      36.337    382.3332032           2          
MisPlume(east)    GOM_UW_1704    2017-04-10T00:07:42Z    -88.9965   28.9525   23.0631      36.336    383.341419            2          
MisPlume(east)    GOM_UW_1704    2017-04-10T00:09:10Z    -88.9937   28.9559   23.0511      36.332    379.2282531           2          
MisPlume(east)    GOM_UW_1704    2017-04-10T00:10:41Z    -88.9908   28.9594   23.0446      36.333    381.7386082           2          
MisPlume(east)    GOM_UW_1704    2017-04-10T00:12:09Z    -88.988    28.9627   23.0371      36.332    380.4774662           2          
MisPlume(east)    GOM_UW_1704    2017-04-10T00:13:39Z    -88.9852   28.9662   23.0324      36.33     380.6800535           2          
MisPlume(east)    GOM_UW_1704    2017-04-10T00:15:10Z    -88.9823   28.9697   23.0185      36.33     378.6321412           2          
MisPlume(east)    GOM_UW_1704    2017-04-10T00:16:38Z    -88.9795   28.973    23.0107      36.33     378.6924415           2          
MisPlume(east)    GOM_UW_1704    2017-04-10T00:18:07Z    -88.9767   28.9764   23.0197      36.331    379.4580553           2          
MisPlume(east)    GOM_UW_1704    2017-04-10T00:19:35Z    -88.9739   28.9798   23.0398      36.342    379.7509395           2          
MisPlume(east)    GOM_UW_1704    2017-04-10T00:21:02Z    -88.9711   28.9831   23.0522      36.345    379.1456429           2          
MisPlume(east)    GOM_UW_1704    2017-04-10T00:22:32Z    -88.9682   28.9866   23.071       36.354    379.8127857           2          
MisPlume(east)    GOM_UW_1704    2017-04-10T00:23:59Z    -88.9654   28.9899   23.0815      36.359    378.5678311           2          
MisPlume(east)    GOM_UW_1704    2017-04-10T00:25:28Z    -88.9626   28.9934   23.0981      36.369    378.7801945           2          
MisPlume(east)    GOM_UW_1704    2017-04-10T00:26:57Z    -88.9598   28.9968   23.1159      36.375    378.8453919           2          
MisPlume(east)    GOM_UW_1704    2017-04-10T00:28:26Z    -88.9571   29.0003   23.1214      36.377    380.5999624           2          
MisPlume(east)    GOM_UW_1704    2017-04-10T00:29:54Z    -88.9543   29.0037   23.1185      36.376    379.899558            2          
MisPlume(east)    GOM_UW_1704    2017-04-10T00:31:24Z    -88.9515   29.0072   23.125       36.384    377.3107437           2          
MisPlume(east)    GOM_UW_1704    2017-04-10T00:32:55Z    -88.9487   29.0107   23.1103      36.383    378.7680796           2          
MisPlume(east)    GOM_UW_1704    2017-04-10T00:34:24Z    -88.946    29.0142   23.1122      36.384    378.1399956           2          
MisPlume(east)    GOM_UW_1704    2017-04-10T00:35:52Z    -88.9433   29.0175   23.1074      36.384    378.336798            2          
MisPlume(east)    GOM_UW_1704    2017-04-10T00:37:19Z    -88.9406   29.0209   23.1051      36.359    378.3619558           2          
MisPlume(east)    GOM_UW_1704    2017-04-10T00:38:49Z    -88.9378   29.0244   23.1075      36.381    377.8494117           2          
MisPlume(east)    GOM_UW_1704    2017-04-10T00:40:19Z    -88.935    29.0278   23.1064      36.381    378.9631779           2          
MisPlume(east)    GOM_UW_1704    2017-04-10T00:41:47Z    -88.9323   29.0312   23.1136      36.382    377.5435736           2          
MisPlume(east)    GOM_UW_1704    2017-04-10T00:43:16Z    -88.9295   29.0347   23.1111      36.379    377.7848116           2          
MisPlume(east)    GOM_UW_1704    2017-04-10T00:44:44Z    -88.9268   29.0381   23.1078      36.376    377.5763434           2          
MisPlume(east)    GOM_UW_1704    2017-04-10T00:46:14Z    -88.924    29.0416   23.0945      36.375    377.0555941           2          
MisPlume(east)    GOM_UW_1704    2017-04-10T00:47:45Z    -88.9212   29.0451   23.0771      36.372    375.8131034           2          
MisPlume(east)    GOM_UW_1704    2017-04-10T00:49:13Z    -88.9184   29.0485   23.0736      36.366    374.7121799           2          
MisPlume(east)    GOM_UW_1704    2017-04-10T00:50:41Z    -88.9157   29.052    23.0639      36.36     374.3394236           2          
MisPlume(east)    GOM_UW_1704    2017-04-10T00:52:10Z    -88.913    29.0554   23.0457      36.348    373.3238166           2          
MisPlume(east)    GOM_UW_1704    2017-04-10T00:53:39Z    -88.9102   29.0589   23.041       36.343    373.9629046           2          
MisPlume(east)    GOM_UW_1704    2017-04-10T00:55:10Z    -88.9074   29.0624   23.0453      36.343    374.767291            2          
MisPlume(east)    GOM_UW_1704    2017-04-10T00:56:40Z    -88.9046   29.0659   23.0471      36.342    373.8180315           2          
MisPlume(east)    GOM_UW_1704    2017-04-10T00:58:11Z    -88.9018   29.0693   23.0564      36.337    374.2544346           2          
MisPlume(east)    GOM_UW_1704    2017-04-10T00:59:39Z    -88.899    29.0726   22.998       36.184    372.0714192           2          
MisPlume(east)    GOM_UW_1704    2017-04-10T01:01:10Z    -88.8963   29.0761   22.9277      35.984    362.838841            2          
MisPlume(east)    GOM_UW_1704    2017-04-10T01:02:38Z    -88.8937   29.0794   22.9569      35.956    348.4930804           2          
MisPlume(east)    GOM_UW_1704    2017-04-10T01:04:07Z    -88.891    29.0827   22.9687      35.947    347.1609614           2          
MisPlume(east)    GOM_UW_1704    2017-04-10T01:05:37Z    -88.8883   29.0861   22.9407      35.879    345.2772702           2          
MisPlume(east)    GOM_UW_1704    2017-04-10T01:07:06Z    -88.8856   29.0894   22.9229      35.906    343.7782623           2          
MisPlume(east)    GOM_UW_1704    2017-04-10T01:08:37Z    -88.8829   29.0928   22.9325      36.039    347.361752            2          
MisPlume(east)    GOM_UW_1704    2017-04-10T01:10:05Z    -88.8802   29.0962   22.946       36.025    356.5058519           2          
MisPlume(east)    GOM_UW_1704    2017-04-10T01:11:35Z    -88.8775   29.0996   22.958       36.017    357.5072747           2          
MisPlume(east)    GOM_UW_1704    2017-04-10T01:24:11Z    -88.8545   29.1282   22.8657      35.782    344.876759            2          
MisPlume(east)    GOM_UW_1704    2017-04-10T01:25:39Z    -88.8519   29.1315   22.8744      35.735    340.4037136           2          
MisPlume(east)    GOM_UW_1704    2017-04-10T01:27:07Z    -88.8491   29.1348   22.8736      35.702    339.1577816           2          
MisPlume(east)    GOM_UW_1704    2017-04-10T01:28:35Z    -88.8464   29.1381   22.851       35.679    335.0818745           2          
MisPlume(east)    GOM_UW_1704    2017-04-10T01:30:06Z    -88.8435   29.1414   22.8434      35.683    337.0405584           2          
MisPlume(east)    GOM_UW_1704    2017-04-10T01:31:34Z    -88.8406   29.1446   22.8561      35.723    338.3991171           2          
MisPlume(east)    GOM_UW_1704    2017-04-10T01:33:02Z    -88.8378   29.1479   22.8666      35.738    339.024819            2          
MisPlume(east)    GOM_UW_1704    2017-04-10T01:34:33Z    -88.8349   29.1513   22.8835      35.713    338.1264964           2          
MisPlume(east)    GOM_UW_1704    2017-04-10T01:36:01Z    -88.8321   29.1545   22.9082      35.719    337.5949716           2          
MisPlume(east)    GOM_UW_1704    2017-04-10T01:37:29Z    -88.8293   29.1578   22.8815      35.705    336.9082708           2          
MisPlume(east)    GOM_UW_1704    2017-04-10T01:39:01Z    -88.8264   29.1612   22.8875      35.8      339.68379             2          
MisPlume(east)    GOM_UW_1704    2017-04-10T01:40:30Z    -88.8235   29.1645   22.8927      35.784    342.3154266           2          
MisPlume(east)    GOM_UW_1704    2017-04-10T01:41:57Z    -88.8207   29.1677   22.9067      35.797    339.0362737           2          
MisPlume(east)    GOM_UW_1704    2017-04-10T01:43:26Z    -88.8178   29.171    22.916       35.797    344.878136            2          
MisPlume(east)    GOM_UW_1704    2017-04-10T01:44:55Z    -88.815    29.1743   22.8654      35.768    338.9870363           2          
MisPlume(east)    GOM_UW_1704    2017-04-10T01:46:24Z    -88.8122   29.1777   22.8805      35.802    339.5255183           2          
MisPlume(east)    GOM_UW_1704    2017-04-10T01:47:53Z    -88.8097   29.1811   22.8684      35.826    343.6866126           2          
MisPlume(east)    GOM_UW_1704    2017-04-10T01:49:23Z    -88.8094   29.1853   22.863       35.816    341.5840747           2          
MisPlume(east)    GOM_UW_1704    2017-04-10T01:50:51Z    -88.8093   29.1893   22.8792      35.788    343.9041733           2          
MisPlume(east)    GOM_UW_1704    2017-04-10T01:52:19Z    -88.8093   29.1934   22.9462      35.733    334.3702837           2          
MisPlume(east)    GOM_UW_1704    2017-04-10T01:53:49Z    -88.8091   29.1976   22.9068      35.537    326.1335298           2          
MisPlume(east)    GOM_UW_1704    2017-04-10T01:55:17Z    -88.809    29.2017   22.9572      35.458    315.6363591           2          
MisPlume(east)    GOM_UW_1704    2017-04-10T01:56:45Z    -88.8088   29.2057   22.9775      35.395    316.0496954           2          
MisPlume(east)    GOM_UW_1704    2017-04-10T01:58:14Z    -88.8086   29.2096   22.9616      35.222    310.50137             2          
MisPlume(east)    GOM_UW_1704    2017-04-10T01:59:42Z    -88.8084   29.2131   22.9694      35.194    307.1171366           2          
MisPlume(east)    GOM_UW_1704    2017-04-10T02:01:10Z    -88.8083   29.2162   22.9747      35.159    306.2451526           2          
MisPlume(east)    GOM_UW_1704    2017-04-10T02:02:39Z    -88.8082   29.2192   22.9432      35.072    301.982132            2          
MisPlume(east)    GOM_UW_1704    2017-04-10T02:04:07Z    -88.8081   29.2221   22.9011      34.989    293.5041434           2          
MisPlume(east)    GOM_UW_1704    2017-04-10T02:05:38Z    -88.808    29.2252   22.8686      34.866    288.2961016           2          
MisPlume(east)    GOM_UW_1704    2017-04-10T02:07:06Z    -88.8079   29.228    22.757       34.125    278.9305248           2          
MisPlume(east)    GOM_UW_1704    2017-04-10T02:08:35Z    -88.8077   29.2309   22.7529      33.644    251.7928582           2          
MisPlume(east)    GOM_UW_1704    2017-04-10T02:10:04Z    -88.8076   29.2339   22.7224      33.584    234.0253139           2          
MisPlume(east)    GOM_UW_1704    2017-04-10T02:11:32Z    -88.8076   29.2367   22.6312      33.337    235.1986731           2          
MisPlume(east)    GOM_UW_1704    2017-04-10T02:13:02Z    -88.8074   29.2396   22.605       33.105    226.5612267           2          
MisPlume(east)    GOM_UW_1704    2017-04-10T02:14:31Z    -88.8073   29.2425   22.4267      32.679    222.2394181           2          
MisPlume(east)    GOM_UW_1704    2017-04-10T02:16:00Z    -88.8072   29.2454   22.3818      32.226    213.8208798           2          
MisPlume(east)    GOM_UW_1704    2017-04-10T02:17:29Z    -88.807    29.2482   22.2612      31.863    210.4889639           2          
MisPlume(east)    GOM_UW_1704    2017-04-10T02:18:57Z    -88.8069   29.2511   22.17        31.595    234.4958533           2          
MisPlume(east)    GOM_UW_1704    2017-04-10T02:20:25Z    -88.8068   29.254    22.0233      31.184    219.7979491           2          
MisPlume(east)    GOM_UW_1704    2017-04-10T02:21:55Z    -88.8067   29.2569   22.1044      31.254    260.342978            2          
MisPlume(east)    GOM_UW_1704    2017-04-10T02:23:23Z    -88.8066   29.2598   21.969       30.862    264.1179972           2          
MisPlume(east)    GOM_UW_1704    2017-04-10T02:24:52Z    -88.8065   29.2627   21.9594      30.606    245.5409125           2          
MisPlume(east)    GOM_UW_1704    2017-04-10T02:26:20Z    -88.8064   29.2656   21.8519      30.048    272.8472459           2          
MisPlume(east)    GOM_UW_1704    2017-04-10T02:27:51Z    -88.8062   29.2685   21.7967      29.722    294.2824594           2          
MisPlume(east)    GOM_UW_1704    2017-04-10T02:29:22Z    -88.8061   29.2715   21.8125      29.481    295.0111753           2          
MisPlume(east)    GOM_UW_1704    2017-04-10T02:30:50Z    -88.806    29.2744   21.9038      29.563    272.8950198           2          
MisPlume(east)    GOM_UW_1704    2017-04-10T02:32:19Z    -88.8059   29.2773   21.9535      29.707    244.3596256           2          
MisPlume(east)    GOM_UW_1704    2017-04-10T02:33:47Z    -88.8057   29.2802   21.9373      29.573    232.2849259           2          
MisPlume(east)    GOM_UW_1704    2017-04-10T02:35:17Z    -88.8056   29.2832   21.9218      29.33     234.087368            2          
MisPlume(east)    GOM_UW_1704    2017-04-10T02:36:49Z    -88.8055   29.2862   21.8719      29.013    253.7531398           2          
MisPlume(east)    GOM_UW_1704    2017-04-10T02:38:19Z    -88.8054   29.2893   21.8639      28.61     263.8465299           2          
MisPlume(east)    GOM_UW_1704    2017-04-10T02:39:47Z    -88.8052   29.2922   21.8834      28.493    253.1971072           2          
MisPlume(east)    GOM_UW_1704    2017-04-10T02:41:15Z    -88.8051   29.2952   21.8707      28.152    237.5539244           2          
MisPlume(east)    GOM_UW_1704    2017-04-10T02:42:43Z    -88.805    29.2982   21.9406      27.668    229.6106913           2          
MisPlume(east)    GOM_UW_1704    2017-04-10T02:44:11Z    -88.8048   29.3011   22.0125      27.313    220.1483905           2          
MisPlume(east)    GOM_UW_1704    2017-04-10T02:45:39Z    -88.8047   29.3041   22.0522      27.114    219.3802814           2          
MisPlume(east)    GOM_UW_1704    2017-04-10T02:47:10Z    -88.8046   29.3072   22.045       27.014    214.0821405           2          
MisPlume(east)    GOM_UW_1704    2017-04-10T02:48:40Z    -88.8045   29.3102   22.053       26.862    203.1101339           2          
MisPlume(east)    GOM_UW_1704    2017-04-10T02:50:08Z    -88.8043   29.3133   22.0742      26.675    193.6711109           2          
MisPlume(east)    GOM_UW_1704    2017-04-10T02:51:37Z    -88.8041   29.3163   22.0996      26.424    191.1439176           2          
MisPlume(east)    GOM_UW_1704    2017-04-10T02:53:06Z    -88.8038   29.3193   22.0407      25.792    176.9529051           2          
MisPlume(east)    GOM_UW_1704    2017-04-10T02:54:36Z    -88.8036   29.3223   21.8673      24.684    149.0112421           2          
MisPlume(east)    GOM_UW_1704    2017-04-10T02:56:05Z    -88.8033   29.3253   21.7474      24.489    146.9733218           2          
MisPlume(east)    GOM_UW_1704    2017-04-10T02:57:36Z    -88.8031   29.3284   21.7241      24.41     148.2968299           2          
MisPlume(east)    GOM_UW_1704    2017-04-10T02:59:03Z    -88.8029   29.3314   21.6563      24.222    155.2898863           2          
MisPlume(east)    GOM_UW_1704    2017-04-10T03:00:32Z    -88.8026   29.3345   21.7318      24.17     143.5786767           2          
MisPlume(east)    GOM_UW_1704    2017-04-10T03:02:01Z    -88.8023   29.3375   21.7253      24.098    143.6736866           2          
MisPlume(east)    GOM_UW_1704    2017-04-10T03:03:28Z    -88.8021   29.3405   21.6052      23.969    146.8402975           2          
MisPlume(east)    GOM_UW_1704    2017-04-10T03:04:59Z    -88.8019   29.3436   21.6166      23.654    144.1098137           2          
MisPlume(east)    GOM_UW_1704    2017-04-10T03:06:28Z    -88.8018   29.3468   21.601       23.568    138.3845853           2          
MisPlume(east)    GOM_UW_1704    2017-04-10T03:07:59Z    -88.8017   29.3499   21.5445      23.038    145.9879722           2          
MisPlume(east)    GOM_UW_1704    2017-04-10T03:09:28Z    -88.8015   29.353    21.4879      22.622    142.8743054           2          
MisPlume(east)    GOM_UW_1704    2017-04-10T03:10:56Z    -88.8014   29.356    21.4184      22.43     134.470339            2          
MisPlume(east)    GOM_UW_1704    2017-04-10T03:12:24Z    -88.8013   29.3591   21.4054      22.164    133.5636503           2          
MisPlume(east)    GOM_UW_1704    2017-04-10T03:13:53Z    -88.8012   29.3622   21.4073      22.014    128.8805132           2          
MisPlume(east)    GOM_UW_1704    2017-04-10T03:15:24Z    -88.8011   29.3653   21.2788      21.784    126.7016035           2          
MisPlume(east)    GOM_UW_1704    2017-04-10T03:16:52Z    -88.8009   29.3683   21.2405      21.654    130.1813407           2          
MisPlume(east)    GOM_UW_1704    2017-04-10T03:18:21Z    -88.8008   29.3713   21.226       21.493    126.9595647           2          
MisPlume(east)    GOM_UW_1704    2017-04-10T03:19:49Z    -88.8007   29.3744   21.212       21.186    120.1378272           2          
MisPlume(east)    GOM_UW_1704    2017-04-10T03:21:18Z    -88.8006   29.3774   21.2365      20.837    119.8991805           2          
MisPlume(east)    GOM_UW_1704    2017-04-10T03:22:46Z    -88.8005   29.3805   21.2226      20.342    118.455614            2          
MisPlume(east)    GOM_UW_1704    2017-04-10T03:24:15Z    -88.8003   29.3835   21.1907      20.049    118.2166704           2          
MisPlume(east)    GOM_UW_1704    2017-04-10T03:25:42Z    -88.8002   29.3865   21.1662      19.598    113.9379116           2          
MisPlume(east)    GOM_UW_1704    2017-04-10T03:27:10Z    -88.8001   29.3896   21.1844      19.032    116.4851772           2          
MisPlume(east)    GOM_UW_1704    2017-04-10T03:28:39Z    -88.7999   29.3926   21.1722      18.026    119.9735291           2          
MisPlume(east)    GOM_UW_1704    2017-04-10T03:30:10Z    -88.7999   29.3957   21.2195      16.941    121.6621894           2          
MisPlume(east)    GOM_UW_1704    2017-04-10T03:31:39Z    -88.7997   29.3987   21.2682      15.567    126.4167089           2          
MisPlume(east)    GOM_UW_1704    2017-04-10T03:33:07Z    -88.7996   29.4017   21.3013      14.753    133.9506215           2          
MisPlume(east)    GOM_UW_1704    2017-04-10T03:34:35Z    -88.7995   29.4048   21.2787      14.335    131.6767083           2          
MisPlume(east)    GOM_UW_1704    2017-04-10T03:36:02Z    -88.7994   29.4078   21.2842      14.054    127.2917683           2          
MisPlume(east)    GOM_UW_1704    2017-04-10T03:37:31Z    -88.7993   29.4109   21.2844      13.923    131.4719388           2          
MisPlume(east)    GOM_UW_1704    2017-04-10T03:39:02Z    -88.7991   29.414    21.2721      13.705    122.7956157           2          
MisPlume(east)    GOM_UW_1704    2017-04-10T03:40:32Z    -88.799    29.4171   21.2699      13.738    129.4847338           2          
MisPlume(east)    GOM_UW_1704    2017-04-10T03:42:00Z    -88.7989   29.4201   21.2708      13.737    124.4994789           2          
MisPlume(east)    GOM_UW_1704    2017-04-10T03:43:29Z    -88.7988   29.4232   21.2692      13.844    122.676984            2          
MisPlume(east)    GOM_UW_1704    2017-04-10T03:44:57Z    -88.7987   29.4262   21.2706      13.874    124.0777552           2          
MisPlume(east)    GOM_UW_1704    2017-04-10T03:46:28Z    -88.7986   29.4292   21.2836      14.03     121.0573865           2          
MisPlume(east)    GOM_UW_1704    2017-04-10T03:47:57Z    -88.7986   29.4322   21.3068      14.163    130.7251064           2          
MisPlume(east)    GOM_UW_1704    2017-04-10T03:49:25Z    -88.7986   29.4352   21.326       14.395    122.0327608           2          
MisPlume(east)    GOM_UW_1704    2017-04-10T03:50:57Z    -88.7985   29.4383   21.3262      14.46     132.8028858           2          
MisPlume(east)    GOM_UW_1704    2017-04-10T03:52:24Z    -88.7986   29.4412   21.2735      14.669    134.0006831           2          
MisPlume(east)    GOM_UW_1704    2017-04-10T03:53:55Z    -88.7986   29.4442   21.3253      15.184    136.2430104           2          
MisPlume(east)    GOM_UW_1704    2017-04-10T03:55:24Z    -88.7986   29.4472   21.3236      15.397    135.069412            2          
MisPlume(east)    GOM_UW_1704    2017-04-10T03:56:52Z    -88.7986   29.4502   21.3551      15.471    135.0368737           2          
MisPlume(east)    GOM_UW_1704    2017-04-10T03:58:24Z    -88.7986   29.4533   21.3306      15.532    138.4237525           2          
MisPlume(east)    GOM_UW_1704    2017-04-10T03:59:54Z    -88.7985   29.4562   21.322       15.416    140.2677142           2          
MisPlume(east)    GOM_UW_1704    2017-04-10T04:01:24Z    -88.7986   29.4592   21.3316      15.651    141.0689869           2          
MisPlume(east)    GOM_UW_1704    2017-04-10T04:02:52Z    -88.7985   29.4621   21.445       15.76     141.3838613           2          
MisPlume(east)    GOM_UW_1704    2017-04-10T04:04:21Z    -88.7985   29.465    21.3879      15.285    146.0397208           2          
MisPlume(east)    GOM_UW_1704    2017-04-10T04:05:50Z    -88.7985   29.4679   21.3673      15.305    147.2993386           2          
MisPlume(east)    GOM_UW_1704    2017-04-10T04:07:17Z    -88.7984   29.4708   21.3912      15.827    152.3588535           2          
MisPlume(east)    GOM_UW_1704    2017-04-10T04:08:47Z    -88.7984   29.4738   21.4238      16.044    151.6236875           2          
MisPlume(east)    GOM_UW_1704    2017-04-10T04:10:15Z    -88.7984   29.4767   21.4432      16.685    150.1095047           2          
MisPlume(east)    GOM_UW_1704    2017-04-10T04:11:43Z    -88.7984   29.4795   21.4845      16.733    146.5260396           2          
MisPlume(east)    GOM_UW_1704    2017-04-10T04:13:12Z    -88.7984   29.4824   21.4564      16.883    149.6150107           2          
MisPlume(east)    GOM_UW_1704    2017-04-10T04:14:40Z    -88.7985   29.4853   21.4767      17.54     147.1029593           2          
MisPlume(east)    GOM_UW_1704    2017-04-10T04:16:08Z    -88.7985   29.4882   21.507       17.901    152.058875            2          
MisPlume(east)    GOM_UW_1704    2017-04-10T04:17:40Z    -88.7986   29.4912   21.5185      18.297    150.1855931           2          
MisPlume(east)    GOM_UW_1704    2017-04-10T04:19:08Z    -88.799    29.4941   21.5034      18.219    159.4632624           2          
MisPlume(east)    GOM_UW_1704    2017-04-10T04:20:37Z    -88.7995   29.4969   21.5234      18.654    150.1107371           2          
MisPlume(east)    GOM_UW_1704    2017-04-10T04:33:14Z    -88.8013   29.5049   21.7572      23.801    158.3564646           2          
MisPlume(east)    GOM_UW_1704    2017-04-10T04:34:42Z    -88.8014   29.5053   21.7149      22.54     166.4582975           2          
MisPlume(east)    GOM_UW_1704    2017-04-10T04:36:11Z    -88.8015   29.5058   21.8388      25.377    179.8984124           2          
MisPlume(east)    GOM_UW_1704    2017-04-10T04:37:38Z    -88.8015   29.5063   21.7794      23.782    169.2055041           2          
MisPlume(east)    GOM_UW_1704    2017-04-10T04:39:07Z    -88.8016   29.5068   21.8285      23.906    164.8924285           2          
MisPlume(east)    GOM_UW_1704    2017-04-10T04:40:37Z    -88.8018   29.5073   21.6992      21.403    168.5198947           2          
MisPlume(east)    GOM_UW_1704    2017-04-10T04:42:04Z    -88.8019   29.5079   21.6974      21.332    158.3395704           2          
MisPlume(east)    GOM_UW_1704    2017-04-10T04:43:34Z    -88.8015   29.509    21.7089      21.823    157.619226            2          
MisPlume(east)    GOM_UW_1704    2017-04-10T04:45:01Z    -88.8023   29.5098   21.7079      21.735    154.5850889           2          
MisPlume(east)    GOM_UW_1704    2017-04-10T04:46:30Z    -88.8039   29.5098   21.6066      20.555    146.2096349           2          
MisPlume(east)    GOM_UW_1704    2017-04-10T04:47:58Z    -88.8055   29.5093   21.6021      20.577    161.2561962           2          
MisPlume(east)    GOM_UW_1704    2017-04-10T04:49:26Z    -88.8075   29.5089   21.6338      20.776    155.8365188           2          
MisPlume(east)    GOM_UW_1704    2017-04-10T04:50:54Z    -88.8097   29.5087   21.6449      21.222    153.0333367           2          
MisPlume(east)    GOM_UW_1704    2017-04-10T04:52:22Z    -88.812    29.5085   21.6043      21.143    154.1511886           2          
MisPlume(east)    GOM_UW_1704    2017-04-10T04:53:51Z    -88.8142   29.5083   21.6158      21.289    155.1561292           2          
MisPlume(east)    GOM_UW_1704    2017-04-10T04:55:20Z    -88.8165   29.5081   21.6198      21.281    153.9302462           2          
MisPlume(east)    GOM_UW_1704    2017-04-10T04:56:50Z    -88.8187   29.508    21.6076      21.75     160.3623956           2          
MisPlume(east)    GOM_UW_1704    2017-04-10T04:58:18Z    -88.821    29.5078   21.591       21.361    160.5259232           2          
MisPlume(east)    GOM_UW_1704    2017-04-10T04:59:47Z    -88.8232   29.5077   21.6167      22.233    nd                    2          
MisPlume(east)    GOM_UW_1704    2017-04-10T05:01:17Z    -88.8255   29.5075   21.5938      22.055    160.2103663           2          
MisPlume(east)    GOM_UW_1704    2017-04-10T05:02:46Z    -88.8277   29.5073   21.5219      21.728    163.2629091           2          
MisPlume(east)    GOM_UW_1704    2017-04-10T05:04:13Z    -88.8299   29.5072   21.5914      22.187    158.2678526           2          
MisPlume(east)    GOM_UW_1704    2017-04-10T05:05:42Z    -88.8322   29.5071   21.5862      22.572    159.6796314           2          
MisPlume(east)    GOM_UW_1704    2017-04-10T05:07:10Z    -88.8345   29.507    21.5465      22.162    162.5365618           2          
MisPlume(east)    GOM_UW_1704    2017-04-10T05:08:39Z    -88.8383   29.5069   21.5402      22.297    165.0890241           2          
MisPlume(east)    GOM_UW_1704    2017-04-10T05:10:07Z    -88.8422   29.5069   21.4802      20.677    164.6803539           2          
MisPlume(east)    GOM_UW_1704    2017-04-10T05:11:35Z    -88.846    29.5067   21.4625      19.299    168.1688392           2          
MisPlume(east)    GOM_UW_1704    2017-04-10T05:13:03Z    -88.8498   29.5065   21.4868      18.918    168.1151909           2          
MisPlume(east)    GOM_UW_1704    2017-04-10T05:14:31Z    -88.8537   29.5063   21.5113      18.749    166.5669597           2          
MisPlume(east)    GOM_UW_1704    2017-04-10T05:15:59Z    -88.8575   29.5061   21.5097      18.476    170.773484            2          
MisPlume(east)    GOM_UW_1704    2017-04-10T05:17:30Z    -88.8614   29.5059   21.5325      18.371    169.2010743           2          
MisPlume(east)    GOM_UW_1704    2017-04-10T05:18:58Z    -88.8652   29.5056   21.5534      18.259    175.2263983           2          
MisPlume(east)    GOM_UW_1704    2017-04-10T05:20:27Z    -88.869    29.5054   21.555       18.075    175.6649377           2          
MisPlume(east)    GOM_UW_1704    2017-04-10T05:21:54Z    -88.8728   29.5052   21.5425      18.127    177.6939425           2          
MisPlume(east)    GOM_UW_1704    2017-04-10T05:23:24Z    -88.8767   29.505    21.4994      17.583    180.2869128           2          
MisPlume(east)    GOM_UW_1704    2017-04-10T05:24:52Z    -88.8805   29.5047   21.5012      17.901    182.0427832           2          
MisPlume(east)    GOM_UW_1704    2017-04-10T05:26:20Z    -88.8843   29.5045   21.4962      17.873    179.481138            2          
MisPlume(east)    GOM_UW_1704    2017-04-10T05:27:49Z    -88.8881   29.5043   21.5034      17.748    177.3306015           2          
MisPlume(east)    GOM_UW_1704    2017-04-10T05:29:18Z    -88.892    29.504    21.5256      17.411    174.6126389           2          
MisPlume(east)    GOM_UW_1704    2017-04-10T05:30:47Z    -88.8959   29.5038   21.5389      17.424    168.56015             2          
MisPlume(east)    GOM_UW_1704    2017-04-10T05:32:18Z    -88.8998   29.5035   21.548       17.59     169.3096742           2          
MisPlume(east)    GOM_UW_1704    2017-04-10T05:33:45Z    -88.9036   29.5033   21.5643      17.63     168.1480084           2          
MisPlume(east)    GOM_UW_1704    2017-04-10T05:35:14Z    -88.9075   29.5031   21.5562      17.511    169.0304092           2          
MisPlume(east)    GOM_UW_1704    2017-04-10T05:36:42Z    -88.9113   29.5029   21.5839      17.649    164.9262504           2          
MisPlume(east)    GOM_UW_1704    2017-04-10T05:38:10Z    -88.9151   29.5026   21.5592      17.369    165.1170888           2          
MisPlume(east)    GOM_UW_1704    2017-04-10T05:39:38Z    -88.919    29.5024   21.5748      17.01     164.0760425           2          
MisPlume(east)    GOM_UW_1704    2017-04-10T05:41:07Z    -88.9229   29.5022   21.6058      17.49     166.1566901           2          
MisPlume(east)    GOM_UW_1704    2017-04-10T05:42:34Z    -88.9267   29.5019   21.6059      17.185    167.499826            2          
MisPlume(east)    GOM_UW_1704    2017-04-10T05:44:02Z    -88.9305   29.5017   21.6063      17.615    170.0862175           2          
MisPlume(east)    GOM_UW_1704    2017-04-10T05:45:31Z    -88.9344   29.5015   21.6214      17.425    172.0861038           2          
MisPlume(east)    GOM_UW_1704    2017-04-10T05:46:59Z    -88.9383   29.5014   21.6365      17.418    173.9922462           2          
MisPlume(east)    GOM_UW_1704    2017-04-10T05:48:28Z    -88.9421   29.5012   21.6407      17.559    180.5938122           2          
MisPlume(east)    GOM_UW_1704    2017-04-10T05:49:56Z    -88.946    29.501    21.6409      17.685    179.4815434           2          
MisPlume(east)    GOM_UW_1704    2017-04-10T05:51:27Z    -88.95     29.5008   21.6286      17.671    182.4120066           2          
MisPlume(east)    GOM_UW_1704    2017-04-10T05:52:55Z    -88.9538   29.5007   21.6176      17.711    187.3566018           2          
MisPlume(east)    GOM_UW_1704    2017-04-10T05:54:25Z    -88.9578   29.5005   21.6233      17.968    188.4436444           2          
MisPlume(east)    GOM_UW_1704    2017-04-10T05:55:54Z    -88.9617   29.5003   21.631       17.983    193.5874102           2          
MisPlume(east)    GOM_UW_1704    2017-04-10T05:57:23Z    -88.9656   29.5001   21.6199      18.664    195.4872892           2          
MisPlume(east)    GOM_UW_1704    2017-04-10T05:58:52Z    -88.9696   29.4999   21.5885      18.066    195.4474007           2          
MisPlume(east)    GOM_UW_1704    2017-04-10T06:00:23Z    -88.9736   29.4998   21.6189      19.097    198.289102            2          
MisPlume(east)    GOM_UW_1704    2017-04-10T06:01:51Z    -88.9775   29.4996   21.6068      18.89     200.1766752           2          
MisPlume(east)    GOM_UW_1704    2017-04-10T06:03:19Z    -88.9814   29.4994   21.6049      19.381    203.5348783           2          
MisPlume(east)    GOM_UW_1704    2017-04-10T06:04:49Z    -88.9854   29.4992   21.6089      19.322    206.4799885           2          
MisPlume(east)    GOM_UW_1704    2017-04-10T06:06:19Z    -88.9895   29.499    21.602       19.765    208.3405242           2          
MisPlume(east)    GOM_UW_1704    2017-04-10T06:07:47Z    -88.9934   29.4989   21.5815      19.856    212.5298243           2          
MisPlume(east)    GOM_UW_1704    2017-04-10T06:09:18Z    -88.9973   29.4987   21.596       20.203    216.7209949           2          
MisPlume(east)    GOM_UW_1704    2017-04-10T06:10:47Z    -88.9987   29.4984   21.5879      20.153    215.2759965           2          
MisPlume(east)    GOM_UW_1704    2017-04-10T06:12:15Z    -88.9987   29.4988   21.7694      23.835    219.2994091           2          
MisPlume(east)    GOM_UW_1704    2017-04-10T06:13:44Z    -88.9989   29.4993   21.7758      22.548    237.2054579           2          
MisPlume(east)    GOM_UW_1704    2017-04-10T06:15:13Z    -88.9991   29.4997   21.6141      20.319    226.8302108           2          
MisPlume(east)    GOM_UW_1704    2017-04-10T06:16:43Z    -88.9993   29.5003   21.6706      21.314    221.4493439           2          
MisPlume(east)    GOM_UW_1704    2017-04-10T06:18:13Z    -88.9995   29.5008   21.6525      21.052    227.2807104           2          
MisPlume(east)    GOM_UW_1704    2017-04-10T06:19:43Z    -88.9996   29.5013   21.6064      20.643    230.973627            2          
MisPlume(east)    GOM_UW_1704    2017-04-10T06:21:11Z    -88.9998   29.5019   21.5517      20.267    231.5940739           2          
MisPlume(east)    GOM_UW_1704    2017-04-10T06:22:40Z    -88.9999   29.5025   21.5391      20.326    227.3699176           2          
MisPlume(east)    GOM_UW_1704    2017-04-10T06:24:08Z    -89.0001   29.5031   21.5804      20.593    220.6891882           2          
MisPlume(east)    GOM_UW_1704    2017-04-10T06:25:36Z    -88.9997   29.5038   21.582       20.768    221.6241525           2          
MisPlume(east)    GOM_UW_1704    2017-04-10T06:27:04Z    -88.9989   29.503    21.5297      20.425    222.9550432           2          
MisPlume(east)    GOM_UW_1704    2017-04-10T06:28:32Z    -88.9982   29.5017   21.5504      20.481    221.9851018           2          
MisPlume(east)    GOM_UW_1704    2017-04-10T06:30:04Z    -88.9974   29.5002   21.5619      20.312    222.0663886           2          
MisPlume(east)    GOM_UW_1704    2017-04-10T06:31:33Z    -88.9966   29.4988   21.5208      19.936    218.6362793           2          
MisPlume(east)    GOM_UW_1704    2017-04-10T06:33:02Z    -88.9958   29.4976   21.5482      20.042    215.5180704           2          
MisPlume(east)    GOM_UW_1704    2017-04-10T06:34:31Z    -88.995    29.4963   21.5405      20.404    217.3550578           2          
MisPlume(east)    GOM_UW_1704    2017-04-10T06:36:02Z    -88.9942   29.4949   21.5529      20.213    215.4094238           2          
MisPlume(east)    GOM_UW_1704    2017-04-10T06:37:31Z    -88.9933   29.4935   21.541       19.914    215.896866            2          
MisPlume(east)    GOM_UW_1704    2017-04-10T06:38:58Z    -88.9926   29.4923   21.5561      19.925    220.4543358           2          
MisPlume(east)    GOM_UW_1704    2017-04-10T06:40:27Z    -88.9918   29.491    21.5186      19.377    217.3589339           2          
MisPlume(east)    GOM_UW_1704    2017-04-10T06:41:55Z    -88.9909   29.4896   21.4904      19.178    215.6407567           2          
MisPlume(east)    GOM_UW_1704    2017-04-10T06:43:23Z    -88.99     29.4882   21.5193      19.21     220.5222571           2          
MisPlume(east)    GOM_UW_1704    2017-04-10T06:44:55Z    -88.9892   29.4868   21.5289      19.244    221.7875382           2          
MisPlume(east)    GOM_UW_1704    2017-04-10T06:46:22Z    -88.9884   29.4855   21.5199      18.924    218.109577            2          
MisPlume(east)    GOM_UW_1704    2017-04-10T06:47:53Z    -88.9877   29.484    21.508       18.848    219.3258649           2          
MisPlume(east)    GOM_UW_1704    2017-04-10T06:49:24Z    -88.987    29.4826   21.5435      19.334    219.3463843           2          
MisPlume(east)    GOM_UW_1704    2017-04-10T06:50:55Z    -88.9865   29.4813   21.4668      18.987    220.18707             2          
MisPlume(east)    GOM_UW_1704    2017-04-10T06:52:23Z    -88.9859   29.4799   21.4675      18.889    221.1047692           2          
MisPlume(east)    GOM_UW_1704    2017-04-10T06:53:52Z    -88.9853   29.4783   21.4904      19.078    218.4891841           2          
MisPlume(east)    GOM_UW_1704    2017-04-10T06:55:19Z    -88.9846   29.4768   21.4727      19.09     220.0243978           2          
MisPlume(east)    GOM_UW_1704    2017-04-10T06:56:50Z    -88.9833   29.4739   21.438       18.923    223.744995            2          
MisPlume(east)    GOM_UW_1704    2017-04-10T06:58:19Z    -88.9818   29.4707   21.39        18.835    225.2559324           2          
MisPlume(east)    GOM_UW_1704    2017-04-10T06:59:47Z    -88.9803   29.4677   21.3261      18.818    224.8467162           2          
MisPlume(east)    GOM_UW_1704    2017-04-10T07:01:15Z    -88.9789   29.4646   21.3449      19.161    220.1945905           2          
MisPlume(east)    GOM_UW_1704    2017-04-10T07:02:43Z    -88.9775   29.4614   21.318       19.686    219.4145186           2          
MisPlume(east)    GOM_UW_1704    2017-04-10T07:04:13Z    -88.976    29.4583   21.3375      19.875    220.71927             2          
MisPlume(east)    GOM_UW_1704    2017-04-10T07:05:43Z    -88.9746   29.4552   21.3498      20.191    221.1448647           2          
MisPlume(east)    GOM_UW_1704    2017-04-10T07:07:11Z    -88.9731   29.4521   21.3231      20.213    218.8278879           2          
MisPlume(east)    GOM_UW_1704    2017-04-10T07:08:39Z    -88.9717   29.4491   21.2874      19.886    216.9598907           2          
MisPlume(east)    GOM_UW_1704    2017-04-10T07:10:08Z    -88.9704   29.446    21.2811      19.895    219.5665014           2          
MisPlume(east)    GOM_UW_1704    2017-04-10T07:11:35Z    -88.969    29.443    21.2767      19.822    218.0384773           2          
MisPlume(east)    GOM_UW_1704    2017-04-10T07:13:07Z    -88.9675   29.4398   21.2312      19.738    222.8738975           2          
MisPlume(east)    GOM_UW_1704    2017-04-10T07:14:37Z    -88.966    29.4367   21.2516      19.914    222.0082026           2          
MisPlume(east)    GOM_UW_1704    2017-04-10T07:16:06Z    -88.9646   29.4335   21.2457      19.988    216.822524            2          
MisPlume(east)    GOM_UW_1704    2017-04-10T07:17:37Z    -88.9631   29.4304   21.2231      19.893    215.691014            2          
MisPlume(east)    GOM_UW_1704    2017-04-10T07:19:08Z    -88.9616   29.4272   21.294       20.252    216.9866813           2          
MisPlume(east)    GOM_UW_1704    2017-04-10T07:20:39Z    -88.9601   29.424    21.2624      20.128    219.8287527           2          
MisPlume(east)    GOM_UW_1704    2017-04-10T07:22:07Z    -88.9587   29.4209   21.2419      20.309    219.0149605           2          
MisPlume(east)    GOM_UW_1704    2017-04-10T07:23:35Z    -88.9573   29.4178   21.2904      20.563    219.4163126           2          
MisPlume(east)    GOM_UW_1704    2017-04-10T07:25:06Z    -88.9558   29.4146   21.2583      20.58     218.0793584           2          
MisPlume(east)    GOM_UW_1704    2017-04-10T07:26:34Z    -88.9544   29.4115   21.2323      20.64     220.4410292           2          
MisPlume(east)    GOM_UW_1704    2017-04-10T07:28:03Z    -88.9529   29.4084   21.2529      20.667    213.0588302           2          
MisPlume(east)    GOM_UW_1704    2017-04-10T07:29:34Z    -88.9515   29.4053   21.2743      20.774    214.2435106           2          
MisPlume(east)    GOM_UW_1704    2017-04-10T07:42:12Z    -88.939    29.3786   21.3134      21.591    195.209621            2          
MisPlume(east)    GOM_UW_1704    2017-04-10T07:43:42Z    -88.9376   29.3755   21.2908      21.692    186.7072505           2          
MisPlume(east)    GOM_UW_1704    2017-04-10T07:45:11Z    -88.9362   29.3725   21.3076      21.794    181.2723754           2          
MisPlume(east)    GOM_UW_1704    2017-04-10T07:46:42Z    -88.9348   29.3694   21.3258      22.089    177.071411            2          
MisPlume(east)    GOM_UW_1704    2017-04-10T07:48:13Z    -88.9333   29.3662   21.2995      22.119    184.1743194           2          
MisPlume(east)    GOM_UW_1704    2017-04-10T07:49:41Z    -88.9318   29.3631   21.3189      22.194    182.0106527           2          
MisPlume(east)    GOM_UW_1704    2017-04-10T07:51:12Z    -88.9304   29.3601   21.3276      22.391    184.7378425           2          
MisPlume(east)    GOM_UW_1704    2017-04-10T07:52:41Z    -88.929    29.3571   21.368       22.956    182.0633191           2          
MisPlume(east)    GOM_UW_1704    2017-04-10T07:54:09Z    -88.9276   29.3541   21.3717      22.969    188.0158284           2          
MisPlume(east)    GOM_UW_1704    2017-04-10T07:55:39Z    -88.9262   29.3509   21.3868      23.369    185.7135517           2          
MisPlume(east)    GOM_UW_1704    2017-04-10T07:57:10Z    -88.9247   29.3478   21.4099      23.471    190.4084125           2          
MisPlume(east)    GOM_UW_1704    2017-04-10T07:58:38Z    -88.9233   29.3447   21.4012      23.547    190.8038766           2          
MisPlume(east)    GOM_UW_1704    2017-04-10T08:00:08Z    -88.9219   29.3416   21.4387      23.932    191.5376898           2          
MisPlume(east)    GOM_UW_1704    2017-04-10T08:01:39Z    -88.9205   29.3386   21.4478      24.275    191.517007            2          
MisPlume(east)    GOM_UW_1704    2017-04-10T08:03:09Z    -88.9191   29.3356   21.476       24.525    187.3643914           2          
MisPlume(east)    GOM_UW_1704    2017-04-10T08:04:40Z    -88.9177   29.3326   21.5222      24.921    190.7059705           2          
MisPlume(east)    GOM_UW_1704    2017-04-10T08:06:11Z    -88.9162   29.3295   21.5265      25.068    187.3837533           2          
MisPlume(east)    GOM_UW_1704    2017-04-10T08:07:39Z    -88.9148   29.3265   21.5756      25.586    187.5137969           2          
MisPlume(east)    GOM_UW_1704    2017-04-10T08:09:09Z    -88.9134   29.3235   21.5852      25.956    192.0293814           2          
MisPlume(east)    GOM_UW_1704    2017-04-10T08:10:38Z    -88.912    29.3205   21.5606      26.219    197.8144006           2          
MisPlume(east)    GOM_UW_1704    2017-04-10T08:12:07Z    -88.9106   29.3175   21.6133      26.495    207.0806915           2          
MisPlume(east)    GOM_UW_1704    2017-04-10T08:13:37Z    -88.9092   29.3144   21.644       26.791    203.8133004           2          
MisPlume(east)    GOM_UW_1704    2017-04-10T08:15:07Z    -88.9078   29.3113   21.5806      26.78     208.0895371           2          
MisPlume(east)    GOM_UW_1704    2017-04-10T08:16:36Z    -88.9063   29.3083   21.6339      27.155    212.0604863           2          
MisPlume(east)    GOM_UW_1704    2017-04-10T08:18:07Z    -88.9049   29.3052   21.5843      27.308    220.2748361           2          
MisPlume(east)    GOM_UW_1704    2017-04-10T08:19:35Z    -88.9036   29.3022   21.5065      27.797    246.2027426           2          
MisPlume(east)    GOM_UW_1704    2017-04-10T08:21:06Z    -88.9025   29.2997   21.5765      28.214    260.6791301           2          
MisPlume(east)    GOM_UW_1704    2017-04-10T08:22:37Z    -88.9019   29.2997   21.6034      28.25     264.8343423           2          
MisPlume(east)    GOM_UW_1704    2017-04-10T08:24:08Z    -88.9019   29.3003   21.6063      28.323    265.2169132           2          
MisPlume(east)    GOM_UW_1704    2017-04-10T08:25:37Z    -88.902    29.301    21.6039      28.261    271.2868754           2          
MisPlume(east)    GOM_UW_1704    2017-04-10T08:27:06Z    -88.9022   29.3015   21.6095      28.286    269.3541221           2          
MisPlume(east)    GOM_UW_1704    2017-04-10T08:28:37Z    -88.9025   29.302    21.6053      28.275    273.0212051           2          
MisPlume(east)    GOM_UW_1704    2017-04-10T08:30:06Z    -88.9028   29.3026   21.5839      28.213    273.2038359           2          
MisPlume(east)    GOM_UW_1704    2017-04-10T08:31:36Z    -88.903    29.3032   21.5728      28.185    274.6717987           2          
MisPlume(east)    GOM_UW_1704    2017-04-10T08:33:06Z    -88.9032   29.3037   21.514       28.054    276.8996956           2          
MisPlume(east)    GOM_UW_1704    2017-04-10T08:34:38Z    -88.9035   29.3042   21.497       27.97     281.7823551           2          
MisPlume(east)    GOM_UW_1704    2017-04-10T08:36:07Z    -88.9038   29.3048   21.4968      27.954    276.6713606           2          
MisPlume(east)    GOM_UW_1704    2017-04-10T08:37:38Z    -88.904    29.3054   21.5175      27.912    271.1061953           2          
MisPlume(east)    GOM_UW_1704    2017-04-10T08:39:09Z    -88.9042   29.306    21.5259      27.819    266.5665646           2          
MisPlume(east)    GOM_UW_1704    2017-04-10T08:40:36Z    -88.9045   29.3066   21.5472      27.782    260.845043            2          
MisPlume(east)    GOM_UW_1704    2017-04-10T08:42:04Z    -88.9047   29.3071   21.5552      27.772    254.8203183           2          
MisPlume(east)    GOM_UW_1704    2017-04-10T08:43:32Z    -88.905    29.3076   21.5692      27.807    247.8721709           2          
MisPlume(east)    GOM_UW_1704    2017-04-10T08:45:02Z    -88.9053   29.3082   21.629       27.869    238.0680809           2          
MisPlume(east)    GOM_UW_1704    2017-04-10T08:46:30Z    -88.9055   29.3087   21.627       27.82     237.0237055           2          
MisPlume(east)    GOM_UW_1704    2017-04-10T08:48:01Z    -88.9059   29.3093   21.6043      27.815    237.9285418           2          
MisPlume(east)    GOM_UW_1704    2017-04-10T08:49:30Z    -88.9061   29.3099   21.5848      27.803    242.7667739           2          
MisPlume(east)    GOM_UW_1704    2017-04-10T08:51:01Z    -88.9064   29.3105   21.5675      27.763    237.0495249           2          
MisPlume(east)    GOM_UW_1704    2017-04-10T08:52:28Z    -88.9066   29.3112   21.5108      27.773    245.2264405           2          
MisPlume(east)    GOM_UW_1704    2017-04-10T08:53:59Z    -88.9069   29.3118   21.516       27.877    257.5522091           2          
MisPlume(east)    GOM_UW_1704    2017-04-10T08:55:27Z    -88.9071   29.3123   21.5315      27.903    263.1805606           2          
MisPlume(east)    GOM_UW_1704    2017-04-10T08:56:56Z    -88.9074   29.3129   21.5198      27.874    257.2906065           2          
MisPlume(east)    GOM_UW_1704    2017-04-10T08:58:24Z    -88.9076   29.3135   21.5415      27.904    255.8472084           2          
MisPlume(east)    GOM_UW_1704    2017-04-10T08:59:52Z    -88.9077   29.3141   21.5374      27.866    257.0545591           2          
MisPlume(east)    GOM_UW_1704    2017-04-10T09:01:21Z    -88.9079   29.3148   21.5578      27.806    253.3669116           2          
MisPlume(east)    GOM_UW_1704    2017-04-10T09:02:50Z    -88.9081   29.3154   21.5505      27.731    249.8634847           2          
MisPlume(east)    GOM_UW_1704    2017-04-10T09:04:18Z    -88.9083   29.316    21.5956      27.723    246.6812512           2          
MisPlume(east)    GOM_UW_1704    2017-04-10T09:05:46Z    -88.9083   29.3166   21.6427      27.749    236.9699804           2          
MisPlume(east)    GOM_UW_1704    2017-04-10T09:07:14Z    -88.9075   29.3169   21.6396      27.724    233.7394559           2          
MisPlume(east)    GOM_UW_1704    2017-04-10T09:08:46Z    -88.9078   29.3152   21.5797      27.789    243.3251218           2          
MisPlume(east)    GOM_UW_1704    2017-04-10T09:10:15Z    -88.9082   29.3126   21.53        27.805    251.7714285           2          
MisPlume(east)    GOM_UW_1704    2017-04-10T09:11:45Z    -88.9085   29.3098   21.5465      27.931    260.705559            2          
MisPlume(east)    GOM_UW_1704    2017-04-10T09:13:13Z    -88.909    29.3068   21.5588      27.91     259.9741608           2          
MisPlume(east)    GOM_UW_1704    2017-04-10T09:14:41Z    -88.9094   29.3037   21.5608      27.784    255.2356219           2          
MisPlume(east)    GOM_UW_1704    2017-04-10T09:16:09Z    -88.9099   29.3006   21.5583      26.267    248.1907967           2          
MisPlume(east)    GOM_UW_1704    2017-04-10T09:17:36Z    -88.9103   29.2975   21.6768      25.149    169.2846012           2          
MisPlume(east)    GOM_UW_1704    2017-04-10T09:19:07Z    -88.9107   29.2944   21.6657      23.924    151.7877709           2          
MisPlume(east)    GOM_UW_1704    2017-04-10T09:20:35Z    -88.9111   29.2914   21.6897      23.51     150.1789491           2          
MisPlume(east)    GOM_UW_1704    2017-04-10T09:22:04Z    -88.9116   29.2883   21.7078      23.316    145.1996275           2          
MisPlume(east)    GOM_UW_1704    2017-04-10T09:23:32Z    -88.912    29.2852   21.7489      23.331    141.4278546           2          
MisPlume(east)    GOM_UW_1704    2017-04-10T09:25:00Z    -88.9124   29.2821   21.7395      22.697    140.9625764           2          
MisPlume(east)    GOM_UW_1704    2017-04-10T09:26:29Z    -88.9129   29.2789   21.784       22.711    137.3902398           2          
MisPlume(east)    GOM_UW_1704    2017-04-10T09:27:58Z    -88.9133   29.2758   21.7844      22.798    140.9874715           2          
MisPlume(east)    GOM_UW_1704    2017-04-10T09:29:28Z    -88.9141   29.2726   21.5516      22.224    149.2154534           2          
MisPlume(east)    GOM_UW_1704    2017-04-10T09:30:56Z    -88.9147   29.2696   21.3519      20.399    148.8882039           2          
MisPlume(east)    GOM_UW_1704    2017-04-10T09:32:24Z    -88.9153   29.2665   21.356       20.446    154.2101136           2          
MisPlume(east)    GOM_UW_1704    2017-04-10T09:33:55Z    -88.9161   29.2633   21.2358      19.976    158.3561947           2          
MisPlume(east)    GOM_UW_1704    2017-04-10T09:35:23Z    -88.9168   29.2601   21.2696      20.701    169.7510616           2          
MisPlume(east)    GOM_UW_1704    2017-04-10T09:36:51Z    -88.9175   29.257    21.1674      19.542    176.0581545           2          
MisPlume(east)    GOM_UW_1704    2017-04-10T09:38:19Z    -88.9182   29.2539   21.1354      19.671    188.2529606           2          
MisPlume(east)    GOM_UW_1704    2017-04-10T09:39:47Z    -88.9189   29.2508   21.1021      18.887    196.7701871           2          
MisPlume(east)    GOM_UW_1704    2017-04-10T09:41:16Z    -88.9196   29.2477   21.0835      18.566    196.4098589           2          
MisPlume(east)    GOM_UW_1704    2017-04-10T09:42:48Z    -88.9203   29.2444   21.0288      18.156    193.1730065           2          
MisPlume(east)    GOM_UW_1704    2017-04-10T09:44:16Z    -88.921    29.2413   21.0493      18.574    208.0984944           2          
MisPlume(east)    GOM_UW_1704    2017-04-10T09:45:45Z    -88.9217   29.2381   21.0557      19.312    216.9029892           2          
MisPlume(east)    GOM_UW_1704    2017-04-10T09:47:13Z    -88.9223   29.2349   21.1092      20.11     214.5157225           2          
MisPlume(east)    GOM_UW_1704    2017-04-10T09:48:42Z    -88.923    29.2317   21.1294      21.202    221.1326925           2          
MisPlume(east)    GOM_UW_1704    2017-04-10T09:50:12Z    -88.9236   29.2284   21.1932      23.207    235.8343045           2          
MisPlume(east)    GOM_UW_1704    2017-04-10T09:51:41Z    -88.9242   29.2253   21.1751      24.663    210.446426            2          
MisPlume(east)    GOM_UW_1704    2017-04-10T09:53:10Z    -88.9249   29.2223   21.243       25.82     210.6644956           2          
MisPlume(east)    GOM_UW_1704    2017-04-10T09:54:38Z    -88.9255   29.2192   21.2791      26.383    224.3979057           2          
MisPlume(east)    GOM_UW_1704    2017-04-10T09:56:06Z    -88.9261   29.2163   21.3737      27.104    232.5871109           2          
MisPlume(east)    GOM_UW_1704    2017-04-10T09:57:34Z    -88.9267   29.2133   21.4358      27.579    240.3857682           2          
MisPlume(east)    GOM_UW_1704    2017-04-10T09:59:02Z    -88.9273   29.2104   21.4417      27.8      248.9467099           2          
MisPlume(east)    GOM_UW_1704    2017-04-10T10:00:31Z    -88.9279   29.2074   21.4109      27.947    259.003293            2          
MisPlume(east)    GOM_UW_1704    2017-04-10T10:01:58Z    -88.9285   29.2045   21.369       28.008    261.8802762           2          
MisPlume(east)    GOM_UW_1704    2017-04-10T10:03:28Z    -88.9291   29.2015   21.3971      28.434    265.2946697           2          
MisPlume(east)    GOM_UW_1704    2017-04-10T10:04:56Z    -88.9297   29.1986   21.4185      28.749    267.8073001           2          
MisPlume(east)    GOM_UW_1704    2017-04-10T10:06:24Z    -88.9307   29.1958   21.4156      28.9      275.2934766           2          
MisPlume(east)    GOM_UW_1704    2017-04-10T10:07:52Z    -88.9319   29.1931   21.4657      29.069    278.5054408           2          
MisPlume(east)    GOM_UW_1704    2017-04-10T10:09:20Z    -88.9333   29.1905   21.4551      28.989    277.1895356           2          
MisPlume(east)    GOM_UW_1704    2017-04-10T10:10:48Z    -88.9347   29.1878   21.4637      28.87     269.1741768           2          
MisPlume(east)    GOM_UW_1704    2017-04-10T10:12:16Z    -88.936    29.1852   21.4907      29.075    266.5578873           2          
MisPlume(east)    GOM_UW_1704    2017-04-10T10:13:46Z    -88.9372   29.1824   21.5554      29.509    264.8927163           2          
MisPlume(east)    GOM_UW_1704    2017-04-10T10:15:15Z    -88.9385   29.1796   21.6031      29.688    266.2810007           2          
MisPlume(east)    GOM_UW_1704    2017-04-10T10:16:46Z    -88.9398   29.1768   21.6246      29.815    268.3201374           2          
MisPlume(east)    GOM_UW_1704    2017-04-10T10:18:14Z    -88.941    29.1742   21.684       30.035    266.9142221           2          
MisPlume(east)    GOM_UW_1704    2017-04-10T10:19:44Z    -88.9424   29.1714   21.7106      30.174    265.21012             2          
MisPlume(east)    GOM_UW_1704    2017-04-10T10:21:13Z    -88.9439   29.1687   21.6797      30.084    264.4131126           2          
MisPlume(east)    GOM_UW_1704    2017-04-10T10:22:42Z    -88.9453   29.166    21.6887      30.083    268.4064146           2          
MisPlume(east)    GOM_UW_1704    2017-04-10T10:24:11Z    -88.9467   29.1633   21.734       30.225    272.3264868           2          
MisPlume(east)    GOM_UW_1704    2017-04-10T10:25:38Z    -88.9481   29.1607   21.747       30.298    275.0778726           2          
MisPlume(east)    GOM_UW_1704    2017-04-10T10:27:07Z    -88.9496   29.158    21.7372      30.294    273.3987277           2          
MisPlume(east)    GOM_UW_1704    2017-04-10T10:28:35Z    -88.951    29.1554   21.7262      30.218    271.4732767           2          
MisPlume(east)    GOM_UW_1704    2017-04-10T10:30:05Z    -88.9524   29.1527   21.7222      30.191    269.1262719           2          
MisPlume(east)    GOM_UW_1704    2017-04-10T10:31:36Z    -88.9539   29.1499   21.7147      30.191    273.7659074           2          
MisPlume(east)    GOM_UW_1704    2017-04-10T10:33:04Z    -88.9554   29.1473   21.7161      30.207    273.6937838           2          
MisPlume(east)    GOM_UW_1704    2017-04-10T10:34:33Z    -88.9567   29.1446   21.7292      30.228    277.2641898           2          
MisPlume(east)    GOM_UW_1704    2017-04-10T10:36:01Z    -88.9581   29.1419   21.7329      30.226    278.1167208           2          
MisPlume(east)    GOM_UW_1704    2017-04-10T10:37:30Z    -88.9596   29.1392   21.7364      30.239    281.6964352           2          
MisPlume(east)    GOM_UW_1704    2017-04-10T10:38:59Z    -88.961    29.1366   21.7491      30.244    286.0643226           2          
MisPlume(east)    GOM_UW_1704    2017-04-10T10:51:34Z    -88.9804   29.1177   21.3248      27.183    237.6332755           2          
MisPlume(east)    GOM_UW_1704    2017-04-10T10:53:05Z    -88.983    29.1156   21.3376      26.697    229.1593318           2          
MisPlume(east)    GOM_UW_1704    2017-04-10T10:54:33Z    -88.9856   29.1135   21.2925      26.015    214.4943174           2          
MisPlume(east)    GOM_UW_1704    2017-04-10T10:56:03Z    -88.9883   29.1114   21.4523      26.36     204.8338502           2          
MisPlume(east)    GOM_UW_1704    2017-04-10T10:57:31Z    -88.9909   29.1092   21.3025      24.875    204.3291908           2          
MisPlume(east)    GOM_UW_1704    2017-04-10T10:59:01Z    -88.9936   29.1071   21.3061      24.621    185.6182181           2          
MisPlume(east)    GOM_UW_1704    2017-04-10T11:00:29Z    -88.9962   29.105    21.29        24.927    185.1180972           2          
MisPlume(east)    GOM_UW_1704    2017-04-10T11:01:58Z    -88.9989   29.1029   21.3591      24.02     185.3236621           2          
MisPlume(west)    GOM_UW_1704    2017-04-10T11:03:27Z    -89.0021   29.1014   21.4374      23.951    179.7223529           2          
MisPlume(west)    GOM_UW_1704    2017-04-10T11:04:56Z    -89.0055   29.1001   21.4201      23.149    173.6754874           2          
MisPlume(west)    GOM_UW_1704    2017-04-10T11:44:09Z    -89.0286   29.0712   21.288       21.861    163.4725312           2          
MisPlume(west)    GOM_UW_1704    2017-04-10T11:45:41Z    -89.0298   29.0697   21.2062      21.897    161.8261697           2          
MisPlume(west)    GOM_UW_1704    2017-04-10T11:47:09Z    -89.0309   29.0682   21.2006      21.434    156.1390949           2          
MisPlume(west)    GOM_UW_1704    2017-04-10T11:48:38Z    -89.0321   29.0667   21.2182      21.358    154.9116378           2          
MisPlume(west)    GOM_UW_1704    2017-04-10T11:50:05Z    -89.0331   29.0653   21.2462      21.759    155.2517205           2          
MisPlume(west)    GOM_UW_1704    2017-04-10T11:51:37Z    -89.0353   29.0627   21.1321      21.77     154.8399646           2          
MisPlume(west)    GOM_UW_1704    2017-04-10T11:53:07Z    -89.0375   29.06     20.9756      20.416    163.0455312           2          
MisPlume(west)    GOM_UW_1704    2017-04-10T11:54:36Z    -89.0397   29.0574   20.8803      18.847    177.210409            2          
MisPlume(west)    GOM_UW_1704    2017-04-10T11:56:06Z    -89.0419   29.0547   20.8317      19.07     182.6598022           2          
MisPlume(west)    GOM_UW_1704    2017-04-10T11:57:34Z    -89.044    29.0522   20.8689      19.947    194.8008835           2          
MisPlume(west)    GOM_UW_1704    2017-04-10T11:59:03Z    -89.0462   29.0495   21.0012      22.24     205.0025815           2          
MisPlume(west)    GOM_UW_1704    2017-04-10T12:00:32Z    -89.0484   29.0469   21.291       24.951    208.5074329           2          
MisPlume(west)    GOM_UW_1704    2017-04-10T12:02:00Z    -89.0506   29.0442   21.4162      25.261    211.1486329           2          
MisPlume(west)    GOM_UW_1704    2017-04-10T12:03:29Z    -89.0528   29.0415   21.5171      26.002    215.8625519           2          
MisPlume(west)    GOM_UW_1704    2017-04-10T12:04:57Z    -89.055    29.0389   21.6875      26.672    224.3360199           2          
MisPlume(west)    GOM_UW_1704    2017-04-10T12:06:27Z    -89.0572   29.0362   21.7778      27.003    241.8768614           2          
MisPlume(west)    GOM_UW_1704    2017-04-10T12:07:55Z    -89.0594   29.0335   21.7777      26.973    251.0226807           2          
MisPlume(west)    GOM_UW_1704    2017-04-10T12:09:27Z    -89.0617   29.0308   21.6758      26.676    257.7568839           2          
MisPlume(west)    GOM_UW_1704    2017-04-10T12:10:57Z    -89.0641   29.0281   21.6623      26.513    256.3243037           2          
MisPlume(west)    GOM_UW_1704    2017-04-10T12:12:26Z    -89.0663   29.0253   21.7682      27.424    249.9115893           2          
MisPlume(west)    GOM_UW_1704    2017-04-10T12:13:57Z    -89.0686   29.0226   21.8836      28.075    251.190828            2          
MisPlume(west)    GOM_UW_1704    2017-04-10T12:15:25Z    -89.0708   29.0199   21.8229      27.977    250.6586319           2          
MisPlume(west)    GOM_UW_1704    2017-04-10T12:16:53Z    -89.0731   29.0172   21.9483      28.861    242.5334866           2          
MisPlume(west)    GOM_UW_1704    2017-04-10T12:32:18Z    -89.0962   28.9894   21.3221      28.952    331.5759063           2          
MisPlume(west)    GOM_UW_1704    2017-04-10T12:33:46Z    -89.0982   28.9869   21.2738      28.924    331.7208886           2          
MisPlume(west)    GOM_UW_1704    2017-04-10T12:35:14Z    -89.1002   28.9844   21.2282      28.55     342.5637161           2          
MisPlume(west)    GOM_UW_1704    2017-04-10T12:36:42Z    -89.1024   28.9819   21.1757      28.018    338.9413956           2          
MisPlume(west)    GOM_UW_1704    2017-04-10T12:38:10Z    -89.1044   28.9792   21.1356      28.023    332.5771683           2          
MisPlume(west)    GOM_UW_1704    2017-04-10T12:43:07Z    -89.1115   28.9702   21.0864      27.885    335.6867679           2          
MisPlume(west)    GOM_UW_1704    2017-04-10T12:44:35Z    -89.1135   28.9675   21.0622      27.847    340.8682424           2          
MisPlume(west)    GOM_UW_1704    2017-04-10T12:46:05Z    -89.1157   28.9647   21.3331      29.562    347.0962292           2          
MisPlume(west)    GOM_UW_1704    2017-04-10T12:47:33Z    -89.1177   28.9622   22.0901      33.268    363.7067549           2          
MisPlume(west)    GOM_UW_1704    2017-04-10T12:49:04Z    -89.1194   28.9605   22.1838      33.518    360.5989531           2          
MisPlume(west)    GOM_UW_1704    2017-04-10T12:50:33Z    -89.1193   28.9607   22.2087      33.624    343.8011216           2          
MisPlume(west)    GOM_UW_1704    2017-04-10T12:52:03Z    -89.1193   28.9612   22.2065      33.563    340.8378888           2          
MisPlume(west)    GOM_UW_1704    2017-04-10T12:53:31Z    -89.1194   28.9616   22.2105      33.517    342.5277391           2          
MisPlume(west)    GOM_UW_1704    2017-04-10T12:55:01Z    -89.1194   28.962    22.2118      33.434    343.2074384           2          
MisPlume(west)    GOM_UW_1704    2017-04-10T12:56:29Z    -89.1194   28.9624   22.1632      33.31     345.7955578           2          
MisPlume(west)    GOM_UW_1704    2017-04-10T12:57:58Z    -89.1195   28.9628   22.1379      33.241    344.884755            2          
MisPlume(west)    GOM_UW_1704    2017-04-10T12:59:27Z    -89.1195   28.9632   22.1289      33.207    346.8917496           2          
MisPlume(west)    GOM_UW_1704    2017-04-10T13:00:55Z    -89.1196   28.9636   22.1107      33.172    349.2599225           2          
MisPlume(west)    GOM_UW_1704    2017-04-10T13:02:22Z    -89.1192   28.9645   22.0931      33.133    349.0391947           2          
MisPlume(west)    GOM_UW_1704    2017-04-10T13:16:07Z    -89.1291   28.9548   22.1646      32.763    361.1961208           2          
MisPlume(west)    GOM_UW_1704    2017-04-10T13:17:38Z    -89.1304   28.9533   22.1825      32.712    367.7863321           2          
MisPlume(west)    GOM_UW_1704    2017-04-10T13:19:09Z    -89.132    28.9515   22.1932      32.745    372.9844135           2          
MisPlume(west)    GOM_UW_1704    2017-04-10T13:20:37Z    -89.1343   28.949    22.2001      32.717    373.3433793           2          
MisPlume(west)    GOM_UW_1704    2017-04-10T13:22:05Z    -89.1366   28.9464   22.1903      32.611    370.3572899           2          
MisPlume(west)    GOM_UW_1704    2017-04-10T13:23:34Z    -89.139    28.9438   22.1797      32.47     367.9782483           2          
MisPlume(west)    GOM_UW_1704    2017-04-10T13:25:02Z    -89.1414   28.9412   22.1465      32.39     361.3262278           2          
MisPlume(west)    GOM_UW_1704    2017-04-10T13:26:31Z    -89.1439   28.9385   22.1655      32.375    360.7756001           2          
MisPlume(west)    GOM_UW_1704    2017-04-10T13:28:00Z    -89.1465   28.9359   22.1561      32.314    358.3913893           2          
MisPlume(west)    GOM_UW_1704    2017-04-10T13:29:28Z    -89.149    28.9334   22.2147      32.491    355.060508            2          
MisPlume(west)    GOM_UW_1704    2017-04-10T13:30:56Z    -89.1516   28.9307   22.2484      32.633    356.3186827           2          
MisPlume(west)    GOM_UW_1704    2017-04-10T13:32:25Z    -89.1542   28.9281   22.3342      33.14     355.775628            2          
MisPlume(west)    GOM_UW_1704    2017-04-10T13:33:53Z    -89.1568   28.9256   22.3826      33.267    339.4493008           2          
MisPlume(west)    GOM_UW_1704    2017-04-10T13:35:21Z    -89.1595   28.923    22.3563      33.373    314.7262917           2          
MisPlume(west)    GOM_UW_1704    2017-04-10T13:36:50Z    -89.1622   28.9203   22.2909      33.614    304.2598272           2          
MisPlume(west)    GOM_UW_1704    2017-04-10T13:38:19Z    -89.165    28.9176   22.3592      33.74     305.6345752           2          
MisPlume(west)    GOM_UW_1704    2017-04-10T13:39:47Z    -89.1677   28.915    22.4871      33.781    298.5188622           2          
MisPlume(west)    GOM_UW_1704    2017-04-10T13:41:16Z    -89.1705   28.9123   22.4456      33.746    290.2765252           2          
MisPlume(west)    GOM_UW_1704    2017-04-10T13:42:43Z    -89.1732   28.9096   22.5126      34.353    299.890909            2          
MisPlume(west)    GOM_UW_1704    2017-04-10T13:44:13Z    -89.1759   28.9069   22.5349      34.612    312.7689624           2          
MisPlume(west)    GOM_UW_1704    2017-04-10T13:45:40Z    -89.1786   28.9043   22.5427      34.785    312.2311254           2          
MisPlume(west)    GOM_UW_1704    2017-04-10T13:47:11Z    -89.1817   28.9018   22.6094      35.094    316.4185758           2          
MisPlume(west)    GOM_UW_1704    2017-04-10T13:48:42Z    -89.1847   28.8991   22.775       35.611    328.0694572           2          
MisPlume(west)    GOM_UW_1704    2017-04-10T13:50:11Z    -89.1877   28.8966   22.7727      35.843    337.6099653           2          
MisPlume(west)    GOM_UW_1704    2017-04-10T13:51:41Z    -89.1906   28.894    22.779       35.939    346.6751436           2          
MisPlume(west)    GOM_UW_1704    2017-04-10T13:53:09Z    -89.1934   28.8914   22.7328      36.069    354.2743182           2          
MisPlume(west)    GOM_UW_1704    2017-04-10T13:54:39Z    -89.1963   28.8889   22.7882      36.089    358.4886496           2          
MisPlume(west)    GOM_UW_1704    2017-04-10T13:56:06Z    -89.1991   28.8865   22.8662      36.115    359.8894736           2          
MisPlume(west)    GOM_UW_1704    2017-04-10T13:57:35Z    -89.2019   28.884    22.8463      36.151    362.2229602           2          
MisPlume(west)    GOM_UW_1704    2017-04-10T13:59:03Z    -89.2046   28.8817   22.8033      36.084    359.1392581           2          
MisPlume(west)    GOM_UW_1704    2017-04-10T14:00:31Z    -89.2073   28.8793   22.8309      36.09     355.6305303           2          
MisPlume(west)    GOM_UW_1704    2017-04-10T14:01:59Z    -89.21     28.8769   22.8264      36.098    357.1855676           2          
MisPlume(west)    GOM_UW_1704    2017-04-10T14:03:28Z    -89.2128   28.8745   22.8252      36.111    359.0363409           2          
MisPlume(west)    GOM_UW_1704    2017-04-10T14:04:58Z    -89.2156   28.8721   22.8084      36.125    360.4388486           2          
MisPlume(west)    GOM_UW_1704    2017-04-10T14:06:26Z    -89.2183   28.8697   22.8018      36.138    363.3754035           2          
MisPlume(west)    GOM_UW_1704    2017-04-10T14:07:55Z    -89.2211   28.8673   22.8055      36.142    365.0152535           2          
MisPlume(west)    GOM_UW_1704    2017-04-10T14:09:22Z    -89.2238   28.8649   22.8319      36.147    365.6250916           2          
MisPlume(west)    GOM_UW_1704    2017-04-10T14:10:51Z    -89.2266   28.8624   22.8192      36.148    365.9586352           2          
MisPlume(west)    GOM_UW_1704    2017-04-10T14:12:20Z    -89.2293   28.86     22.8142      36.145    365.9531922           2          
MisPlume(west)    GOM_UW_1704    2017-04-10T14:13:52Z    -89.2322   28.8575   22.8014      36.158    366.5524302           2          
MisPlume(west)    GOM_UW_1704    2017-04-10T14:15:20Z    -89.235    28.8551   22.7917      36.163    365.2493721           2          
MisPlume(west)    GOM_UW_1704    2017-04-10T14:16:47Z    -89.2376   28.8527   22.7605      36.16     362.9964656           2          
MisPlume(west)    GOM_UW_1704    2017-04-10T14:18:15Z    -89.2403   28.8503   22.7816      36.18     363.234653            2          
MisPlume(west)    GOM_UW_1704    2017-04-10T14:19:47Z    -89.2431   28.8479   22.7913      36.197    363.8824543           2          
MisPlume(west)    GOM_UW_1704    2017-04-10T14:21:16Z    -89.2459   28.8455   22.7714      36.201    364.1199845           2          
MisPlume(west)    GOM_UW_1704    2017-04-10T14:22:43Z    -89.2485   28.8432   22.7734      36.215    364.5117649           2          
MisPlume(west)    GOM_UW_1704    2017-04-10T14:24:12Z    -89.2512   28.8408   22.7271      36.195    365.5185388           2          
MisPlume(west)    GOM_UW_1704    2017-04-10T14:25:40Z    -89.2539   28.8384   22.7168      36.187    365.3351251           2          
MisPlume(west)    GOM_UW_1704    2017-04-10T14:27:10Z    -89.2566   28.836    22.7044      36.182    365.8096759           2          
MisPlume(west)    GOM_UW_1704    2017-04-10T14:28:37Z    -89.2593   28.8337   22.6964      36.172    365.5310727           2          
MisPlume(west)    GOM_UW_1704    2017-04-10T14:30:05Z    -89.262    28.8313   22.6827      36.156    363.4566208           2          
MisPlume(west)    GOM_UW_1704    2017-04-10T14:31:34Z    -89.2648   28.8289   22.6983      36.154    361.484526            2          
MisPlume(west)    GOM_UW_1704    2017-04-10T14:33:01Z    -89.2674   28.8265   22.7151      36.152    361.560685            2          
MisPlume(west)    GOM_UW_1704    2017-04-10T14:34:33Z    -89.2702   28.824    22.7272      36.152    361.4773985           2          
MisPlume(west)    GOM_UW_1704    2017-04-10T14:36:00Z    -89.2729   28.8217   22.7414      36.168    364.3428652           2          
MisPlume(west)    GOM_UW_1704    2017-04-10T14:37:30Z    -89.2757   28.8193   22.7639      36.176    365.2381744           2          
MisPlume(west)    GOM_UW_1704    2017-04-10T14:38:58Z    -89.2784   28.8169   22.7273      36.17     366.8027463           2          
MisPlume(west)    GOM_UW_1704    2017-04-10T14:40:29Z    -89.2812   28.8144   22.691       36.158    370.363874            2          
MisPlume(west)    GOM_UW_1704    2017-04-10T14:41:58Z    -89.2839   28.812    22.6624      36.145    369.956209            2          
MisPlume(west)    GOM_UW_1704    2017-04-10T14:43:28Z    -89.2867   28.8096   22.6483      36.139    369.9655225           2          
MisPlume(west)    GOM_UW_1704    2017-04-10T14:44:56Z    -89.2894   28.8073   22.6614      36.156    370.0359713           2          
MisPlume(west)    GOM_UW_1704    2017-04-10T14:46:25Z    -89.292    28.8049   22.7036      36.181    372.080982            2          
MisPlume(west)    GOM_UW_1704    2017-04-10T14:47:52Z    -89.2947   28.8026   22.7217      36.167    373.9486673           2          
MisPlume(west)    GOM_UW_1704    2017-04-10T14:49:20Z    -89.2974   28.8002   22.7258      36.183    375.2348095           2          
MisPlume(west)    GOM_UW_1704    2017-04-10T14:50:52Z    -89.3003   28.7985   22.7153      36.181    375.5110324           2          
MisPlume(west)    GOM_UW_1704    2017-04-10T14:52:19Z    -89.3042   28.7987   22.7091      36.174    375.1337674           2          
MisPlume(west)    GOM_UW_1704    2017-04-10T14:53:49Z    -89.3082   28.7988   22.7122      36.176    374.9325546           2          
MisPlume(west)    GOM_UW_1704    2017-04-10T14:55:17Z    -89.3122   28.7988   22.7112      36.175    373.394047            2          
MisPlume(west)    GOM_UW_1704    2017-04-10T14:56:45Z    -89.3161   28.7989   22.7042      36.172    373.6107926           2          
MisPlume(west)    GOM_UW_1704    2017-04-10T14:58:17Z    -89.3202   28.7989   22.699       36.168    374.3765055           2          
MisPlume(west)    GOM_UW_1704    2017-04-10T14:59:48Z    -89.3244   28.799    22.6946      36.17     374.2382551           2          
MisPlume(west)    GOM_UW_1704    2017-04-10T15:01:19Z    -89.3285   28.7989   22.6987      36.155    373.984054            2          
MisPlume(west)    GOM_UW_1704    2017-04-10T15:02:48Z    -89.3326   28.7989   22.6942      36.176    374.4407771           2          
MisPlume(west)    GOM_UW_1704    2017-04-10T15:04:16Z    -89.3366   28.799    22.6862      36.174    374.791198            2          
MisPlume(west)    GOM_UW_1704    2017-04-10T15:05:47Z    -89.3407   28.799    22.6755      36.121    375.553162            2          
MisPlume(west)    GOM_UW_1704    2017-04-10T15:07:17Z    -89.3448   28.799    22.6652      36.074    374.8419451           2          
MisPlume(west)    GOM_UW_1704    2017-04-10T15:08:46Z    -89.3489   28.799    22.6268      36.11     368.7508762           2          
MisPlume(west)    GOM_UW_1704    2017-04-10T15:10:16Z    -89.3531   28.799    22.6597      36.098    366.2003658           2          
MisPlume(west)    GOM_UW_1704    2017-04-10T15:11:43Z    -89.357    28.7991   22.6779      36.073    366.2589156           2          
MisPlume(west)    GOM_UW_1704    2017-04-10T15:13:11Z    -89.3611   28.7991   22.7023      36.049    nd                    2          
MisPlume(west)    GOM_UW_1704    2017-04-10T15:14:40Z    -89.3652   28.7991   22.699       36.05     361.0834722           2          
MisPlume(west)    GOM_UW_1704    2017-04-10T15:16:09Z    -89.3693   28.7991   22.7357      36.003    358.6858277           2          
MisPlume(west)    GOM_UW_1704    2017-04-10T15:17:37Z    -89.3734   28.7992   22.81        35.977    354.7321237           2          
MisPlume(west)    GOM_UW_1704    2017-04-10T15:19:06Z    -89.3776   28.7992   22.7802      35.931    353.7584845           2          
MisPlume(west)    GOM_UW_1704    2017-04-10T15:20:33Z    -89.3816   28.7991   22.7691      35.896    351.0960853           2          
MisPlume(west)    GOM_UW_1704    2017-04-10T15:22:01Z    -89.3857   28.7992   22.8912      35.866    344.8770138           2          
MisPlume(west)    GOM_UW_1704    2017-04-10T15:23:30Z    -89.3898   28.7992   22.8895      35.777    340.9104337           2          
MisPlume(west)    GOM_UW_1704    2017-04-10T15:24:58Z    -89.3938   28.7992   22.9436      35.773    346.0840743           2          
MisPlume(west)    GOM_UW_1704    2017-04-10T15:26:26Z    -89.3979   28.7992   22.9446      35.681    336.922207            2          
MisPlume(west)    GOM_UW_1704    2017-04-10T15:27:54Z    -89.402    28.7992   22.861       35.623    335.5362022           2          
MisPlume(west)    GOM_UW_1704    2017-04-10T15:29:22Z    -89.406    28.7992   22.8398      35.46     328.3833599           2          
MisPlume(west)    GOM_UW_1704    2017-04-10T15:30:52Z    -89.4101   28.7992   22.7761      35.261    337.6525683           2          
MisPlume(west)    GOM_UW_1704    2017-04-10T15:32:19Z    -89.4141   28.7992   22.7332      34.97     332.4249296           2          
MisPlume(west)    GOM_UW_1704    2017-04-10T15:33:49Z    -89.4182   28.7992   22.6222      34.608    351.8558747           2          
MisPlume(west)    GOM_UW_1704    2017-04-10T15:35:17Z    -89.4222   28.7993   22.4659      34.327    378.795448            2          
MisPlume(west)    GOM_UW_1704    2017-04-10T15:36:48Z    -89.4264   28.7993   21.8047      31.508    364.0222605           2          
MisPlume(west)    GOM_UW_1704    2017-04-10T15:38:19Z    -89.4306   28.7993   21.7386      29.66     294.9108601           2          
MisPlume(west)    GOM_UW_1704    2017-04-10T15:39:50Z    -89.4348   28.7994   21.6861      28.247    303.8126888           2          
MisPlume(west)    GOM_UW_1704    2017-04-10T15:41:19Z    -89.439    28.7993   21.6126      27.044    308.1587157           2          
MisPlume(west)    GOM_UW_1704    2017-04-10T15:42:48Z    -89.443    28.7994   21.6205      26.773    311.7650894           2          
MisPlume(west)    GOM_UW_1704    2017-04-10T15:44:16Z    -89.4472   28.7994   21.6441      26.082    328.8774129           2          
MisPlume(west)    GOM_UW_1704    2017-04-10T15:45:45Z    -89.4514   28.7994   21.7798      25.301    317.9132175           2          
MisPlume(west)    GOM_UW_1704    2017-04-10T15:47:13Z    -89.4555   28.7994   21.8464      24.457    271.7925893           2          
MisPlume(west)    GOM_UW_1704    2017-04-10T15:48:40Z    -89.4596   28.7994   21.9617      23.864    243.1816461           2          
MisPlume(west)    GOM_UW_1704    2017-04-10T15:50:10Z    -89.4639   28.7994   22.028       22.751    222.6030158           2          
MisPlume(west)    GOM_UW_1704    2017-04-10T15:51:38Z    -89.4682   28.7994   21.9476      22.779    217.3518484           2          
MisPlume(west)    GOM_UW_1704    2017-04-10T15:53:06Z    -89.4724   28.7995   21.9646      21.645    210.176538            2          
MisPlume(west)    GOM_UW_1704    2017-04-10T15:54:35Z    -89.4767   28.7995   21.824       20.602    208.5058366           2          
MisPlume(west)    GOM_UW_1704    2017-04-10T15:56:03Z    -89.481    28.7995   21.7502      20.207    220.5411582           2          
MisPlume(west)    GOM_UW_1704    2017-04-10T15:57:31Z    -89.4854   28.7996   21.7836      20.306    222.7357623           2          
MisPlume(west)    GOM_UW_1704    2017-04-10T15:59:01Z    -89.4898   28.7996   21.7487      20.312    212.2681882           2          
MisPlume(west)    GOM_UW_1704    2017-04-10T16:00:29Z    -89.4942   28.7996   21.7117      20.08     224.299002            2          
MisPlume(west)    GOM_UW_1704    2017-04-10T16:01:58Z    -89.4986   28.7996   21.7131      20.539    220.5800654           2          
MisPlume(west)    GOM_UW_1704    2017-04-10T16:03:27Z    -89.503    28.7996   21.8082      21.194    208.3962368           2          
MisPlume(west)    GOM_UW_1704    2017-04-10T16:04:54Z    -89.5074   28.7996   21.7518      21.587    201.8193364           2          
MisPlume(west)    GOM_UW_1704    2017-04-10T16:06:23Z    -89.5119   28.7996   21.7535      21.201    203.1430262           2          
MisPlume(west)    GOM_UW_1704    2017-04-10T16:07:52Z    -89.5164   28.7997   21.5697      20.151    209.5296203           2          
MisPlume(west)    GOM_UW_1704    2017-04-10T16:09:21Z    -89.5209   28.7997   21.6756      20.313    213.2685609           2          
MisPlume(west)    GOM_UW_1704    2017-04-10T16:10:49Z    -89.5254   28.7997   21.5741      20.014    213.1659213           2          
MisPlume(west)    GOM_UW_1704    2017-04-10T16:12:17Z    -89.5299   28.7997   21.7523      20.677    222.2261365           2          
MisPlume(west)    GOM_UW_1704    2017-04-10T16:24:54Z    -89.5683   28.7999   21.8193      22.494    218.9560045           2          
MisPlume(west)    GOM_UW_1704    2017-04-10T16:26:23Z    -89.5729   28.7999   21.7872      23.334    212.2660333           2          
MisPlume(west)    GOM_UW_1704    2017-04-10T16:27:51Z    -89.5773   28.7999   21.7389      23.568    218.1319368           2          
MisPlume(west)    GOM_UW_1704    2017-04-10T16:29:20Z    -89.5818   28.8      21.6753      23.692    228.0537907           2          
MisPlume(west)    GOM_UW_1704    2017-04-10T16:30:48Z    -89.5863   28.8      21.6958      23.848    232.0002587           2          
MisPlume(west)    GOM_UW_1704    2017-04-10T16:32:15Z    -89.5908   28.8      21.7107      23.923    230.8894628           2          
MisPlume(west)    GOM_UW_1704    2017-04-10T16:33:45Z    -89.5955   28.8      21.7811      24.064    228.6955703           2          
MisPlume(west)    GOM_UW_1704    2017-04-10T16:35:12Z    -89.6      28.8001   21.7644      24.21     229.6128414           2          
MisPlume(west)    GOM_UW_1704    2017-04-10T16:36:43Z    -89.6047   28.8      21.806       24.405    217.7560689           2          
MisPlume(west)    GOM_UW_1704    2017-04-10T16:38:13Z    -89.6093   28.8      21.7522      24.823    216.622104            2          
MisPlume(west)    GOM_UW_1704    2017-04-10T16:39:42Z    -89.6139   28.8001   21.7968      24.722    216.3890433           2          
MisPlume(west)    GOM_UW_1704    2017-04-10T16:41:09Z    -89.6184   28.8001   21.8026      24.745    208.8449762           2          
MisPlume(west)    GOM_UW_1704    2017-04-10T16:42:40Z    -89.6231   28.8001   21.7543      24.589    206.5048908           2          
MisPlume(west)    GOM_UW_1704    2017-04-10T16:44:09Z    -89.6277   28.8001   21.8034      24.926    201.1489679           2          
MisPlume(west)    GOM_UW_1704    2017-04-10T16:45:39Z    -89.6323   28.8001   21.8111      24.848    195.2048748           2          
MisPlume(west)    GOM_UW_1704    2017-04-10T16:47:07Z    -89.6368   28.8001   21.8264      24.699    194.2038335           2          
MisPlume(west)    GOM_UW_1704    2017-04-10T16:48:35Z    -89.6413   28.8001   21.821       24.655    190.9755224           2          
MisPlume(west)    GOM_UW_1704    2017-04-10T16:50:06Z    -89.6459   28.8002   21.9294      24.575    187.8671231           2          
MisPlume(west)    GOM_UW_1704    2017-04-10T16:51:35Z    -89.6505   28.8002   21.935       24.683    186.9572225           2          
MisPlume(west)    GOM_UW_1704    2017-04-10T16:53:03Z    -89.655    28.8002   22.006       24.749    185.702392            2          
MisPlume(west)    GOM_UW_1704    2017-04-10T16:54:34Z    -89.6597   28.8002   22.0692      25.031    185.8512699           2          
MisPlume(west)    GOM_UW_1704    2017-04-10T16:56:02Z    -89.6642   28.8002   22.0407      25.144    183.5998308           2          
MisPlume(west)    GOM_UW_1704    2017-04-10T16:57:30Z    -89.6688   28.8003   22.0719      25.291    182.1082281           2          
MisPlume(west)    GOM_UW_1704    2017-04-10T16:58:58Z    -89.6733   28.8003   22.0912      25.517    183.1213173           2          
MisPlume(west)    GOM_UW_1704    2017-04-10T17:00:26Z    -89.6778   28.8003   22.1363      25.86     181.9310755           2          
MisPlume(west)    GOM_UW_1704    2017-04-10T17:01:55Z    -89.6824   28.8003   22.2084      25.996    182.8368175           2          
MisPlume(west)    GOM_UW_1704    2017-04-10T17:03:24Z    -89.687    28.8003   22.2309      26.284    184.2413601           2          
MisPlume(west)    GOM_UW_1704    2017-04-10T17:04:52Z    -89.6915   28.8004   22.3224      26.455    185.6558165           2          
MisPlume(west)    GOM_UW_1704    2017-04-10T17:06:24Z    -89.6962   28.8004   22.2804      26.463    186.017147            2          
MisPlume(west)    GOM_UW_1704    2017-04-10T17:07:51Z    -89.7006   28.8004   22.319       26.309    188.0784659           2          
MisPlume(west)    GOM_UW_1704    2017-04-10T17:09:19Z    -89.7052   28.8004   22.378       26.32     182.0998131           2          
MisPlume(west)    GOM_UW_1704    2017-04-10T17:10:48Z    -89.7098   28.8      22.4026      26.438    181.7104336           2          
MisPlume(west)    GOM_UW_1704    2017-04-10T17:12:17Z    -89.7141   28.7991   22.3205      26.652    186.8679434           2          
MisPlume(west)    GOM_UW_1704    2017-04-10T17:13:44Z    -89.7185   28.7986   22.3391      26.713    186.5868933           2          
MisPlume(west)    GOM_UW_1704    2017-04-10T17:15:14Z    -89.723    28.7982   22.4561      26.773    183.297331            2          
MisPlume(west)    GOM_UW_1704    2017-04-10T17:16:44Z    -89.7276   28.7979   22.4928      26.88     192.2294487           2          
MisPlume(west)    GOM_UW_1704    2017-04-10T17:18:13Z    -89.7321   28.7975   22.4522      26.971    185.2177136           2          
MisPlume(west)    GOM_UW_1704    2017-04-10T17:19:43Z    -89.7367   28.7971   22.4401      27.05     185.5111702           2          
MisPlume(west)    GOM_UW_1704    2017-04-10T17:21:11Z    -89.7412   28.7967   22.5138      27.058    189.391472            2          
MisPlume(west)    GOM_UW_1704    2017-04-10T17:22:39Z    -89.7457   28.7963   22.4808      27.055    187.64661             2          
MisPlume(west)    GOM_UW_1704    2017-04-10T17:24:08Z    -89.7503   28.7959   22.4411      27.032    183.7487989           2          
MisPlume(west)    GOM_UW_1704    2017-04-10T17:25:37Z    -89.7548   28.7955   22.4594      27.149    179.1677884           2          
MisPlume(west)    GOM_UW_1704    2017-04-10T17:27:05Z    -89.7593   28.7951   22.4463      27.35     185.8483041           2          
MisPlume(west)    GOM_UW_1704    2017-04-10T17:28:34Z    -89.7639   28.7947   22.4302      27.455    189.5408654           2          
MisPlume(west)    GOM_UW_1704    2017-04-10T17:30:02Z    -89.7684   28.7943   22.437       27.494    187.0038053           2          
MisPlume(west)    GOM_UW_1704    2017-04-10T17:31:31Z    -89.773    28.7939   22.41        27.608    186.2366528           2          
MisPlume(west)    GOM_UW_1704    2017-04-10T17:32:59Z    -89.7774   28.7929   22.4156      27.742    186.4732699           2          
MisPlume(west)    GOM_UW_1704    2017-04-10T17:34:29Z    -89.7817   28.7913   22.3952      27.889    191.7175424           2          
MisPlume(west)    GOM_UW_1704    2017-04-10T17:35:57Z    -89.7856   28.7894   22.4212      27.929    195.5608437           2          
MisPlume(west)    GOM_UW_1704    2017-04-10T17:37:26Z    -89.7896   28.7875   22.4487      27.989    191.2934007           2          
MisPlume(west)    GOM_UW_1704    2017-04-10T17:38:54Z    -89.7936   28.7856   22.4675      28.07     192.4665103           2          
MisPlume(west)    GOM_UW_1704    2017-04-10T17:40:22Z    -89.7975   28.7837   22.4511      28.233    194.1015908           2          
MisPlume(west)    GOM_UW_1704    2017-04-10T17:41:51Z    -89.8015   28.7817   22.4509      28.354    198.4104801           2          
MisPlume(west)    GOM_UW_1704    2017-04-10T17:43:19Z    -89.8054   28.7798   22.4919      28.394    199.6913743           2          
MisPlume(west)    GOM_UW_1704    2017-04-10T17:44:48Z    -89.8094   28.7779   22.5796      28.519    196.9046964           2          
MisPlume(west)    GOM_UW_1704    2017-04-10T17:46:16Z    -89.8134   28.776    22.507       28.718    198.8658977           2          
MisPlume(west)    GOM_UW_1704    2017-04-10T17:47:46Z    -89.8177   28.7746   22.5268      28.753    202.6237536           2          
MisPlume(west)    GOM_UW_1704    2017-04-10T17:49:15Z    -89.8224   28.7741   22.5685      28.815    199.4856883           2          
MisPlume(west)    GOM_UW_1704    2017-04-10T17:50:46Z    -89.8271   28.7736   22.5255      29.006    204.0267795           2          
MisPlume(west)    GOM_UW_1704    2017-04-10T17:52:17Z    -89.8318   28.7731   22.5776      28.98     209.5066457           2          
MisPlume(west)    GOM_UW_1704    2017-04-10T17:53:44Z    -89.8363   28.7726   22.6079      29.06     nd                    2          
MisPlume(west)    GOM_UW_1704    2017-04-10T17:55:12Z    -89.8409   28.7721   22.6467      29.21     213.2386137           2          
MisPlume(west)    GOM_UW_1704    2017-04-10T17:56:41Z    -89.8455   28.7716   22.5947      29.139    210.776975            2          
MisPlume(west)    GOM_UW_1704    2017-04-10T17:58:09Z    -89.85     28.7711   22.6117      29.194    215.8000801           2          
MisPlume(west)    GOM_UW_1704    2017-04-10T17:59:38Z    -89.8546   28.7707   22.5621      29.233    216.0892843           2          
MisPlume(west)    GOM_UW_1704    2017-04-10T18:01:05Z    -89.859    28.7702   22.6174      29.238    216.8449801           2          
MisPlume(west)    GOM_UW_1704    2017-04-10T18:02:37Z    -89.8637   28.7697   22.6073      29.372    216.2816382           2          
MisPlume(west)    GOM_UW_1704    2017-04-10T18:04:05Z    -89.8682   28.7692   22.623       29.387    221.4143746           2          
MisPlume(west)    GOM_UW_1704    2017-04-10T18:05:35Z    -89.8728   28.7687   22.6346      29.449    221.3649463           2          
MisPlume(west)    GOM_UW_1704    2017-04-10T18:07:04Z    -89.8774   28.7682   22.7196      29.479    222.654881            2          
MisPlume(west)    GOM_UW_1704    2017-04-10T18:08:32Z    -89.8818   28.7677   22.6264      29.458    226.0626628           2          
MisPlume(west)    GOM_UW_1704    2017-04-10T18:10:01Z    -89.8863   28.7673   22.7391      29.507    224.2098915           2          
MisPlume(west)    GOM_UW_1704    2017-04-10T18:11:30Z    -89.8908   28.7668   22.7015      29.501    228.5272928           2          
MisPlume(west)    GOM_UW_1704    2017-04-10T18:12:59Z    -89.8953   28.7663   22.7704      29.511    225.7654539           2          
MisPlume(west)    GOM_UW_1704    2017-04-10T18:14:26Z    -89.8996   28.7658   22.657       29.547    228.1502529           2          
MisPlume(west)    GOM_UW_1704    2017-04-10T18:15:56Z    -89.9041   28.7653   22.6969      29.519    227.0402853           2          
MisPlume(west)    GOM_UW_1704    2017-04-10T18:17:23Z    -89.9086   28.7648   22.7386      29.505    224.1532943           2          
MisPlume(west)    GOM_UW_1704    2017-04-10T18:18:52Z    -89.913    28.7644   22.7212      29.507    227.5426187           2          
MisPlume(west)    GOM_UW_1704    2017-04-10T18:20:19Z    -89.9174   28.7639   22.7766      29.545    228.3008929           2          
MisPlume(west)    GOM_UW_1704    2017-04-10T18:21:49Z    -89.9219   28.7633   22.7299      29.75     233.9013483           2          
MisPlume(west)    GOM_UW_1704    2017-04-10T18:23:18Z    -89.9264   28.7628   22.7963      29.816    241.3012437           2          
MisPlume(west)    GOM_UW_1704    2017-04-10T18:24:46Z    -89.9309   28.7623   22.7718      29.913    248.886526            2          
MisPlume(west)    GOM_UW_1704    2017-04-10T18:26:15Z    -89.9354   28.7618   22.7661      29.993    245.7572308           2          
MisPlume(west)    GOM_UW_1704    2017-04-10T18:27:43Z    -89.9398   28.7613   22.8433      30.142    251.3842373           2          
MisPlume(west)    GOM_UW_1704    2017-04-10T18:29:12Z    -89.9442   28.7608   22.7621      30.23     247.5090934           2          
MisPlume(west)    GOM_UW_1704    2017-04-10T18:30:40Z    -89.9486   28.7603   22.7772      30.187    247.7808372           2          
MisPlume(west)    GOM_UW_1704    2017-04-10T18:32:11Z    -89.9532   28.7597   22.7465      30.239    259.1555899           2          
MisPlume(west)    GOM_UW_1704    2017-04-10T18:33:40Z    -89.9577   28.7592   22.8132      30.285    262.9337859           2          
MisPlume(west)    GOM_UW_1704    2017-04-10T18:35:08Z    -89.9621   28.7587   22.8429      30.468    266.2967799           2          
MisPlume(west)    GOM_UW_1704    2017-04-10T18:36:39Z    -89.9667   28.7582   22.8627      30.681    266.2054224           2          
MisPlume(west)    GOM_UW_1704    2017-04-10T18:38:07Z    -89.9712   28.7577   22.882       30.748    271.8603865           2          
MisPlume(west)    GOM_UW_1704    2017-04-10T18:39:35Z    -89.9757   28.7571   22.8365      30.848    274.5671518           2          
MisPlume(west)    GOM_UW_1704    2017-04-10T18:41:03Z    -89.9801   28.7566   22.7325      30.927    261.9714905           2          
MisPlume(west)    GOM_UW_1704    2017-04-10T18:42:32Z    -89.9845   28.7561   22.7966      31.025    258.4340058           2          
MisPlume(west)    GOM_UW_1704    2017-04-10T18:43:59Z    -89.9888   28.7556   22.7524      31.165    262.7026259           2          
MisPlume(west)    GOM_UW_1704    2017-04-10T18:45:31Z    -89.9934   28.7551   22.7722      31.216    269.1639573           2          
MisPlume(west)    GOM_UW_1704    2017-04-10T18:46:59Z    -89.9978   28.7545   22.916       31.296    267.9007076           2          
MisPlume(west)    GOM_UW_1704    2017-04-10T18:48:27Z    -90.0022   28.7541   22.891       31.412    278.2722714           2          
MisPlume(west)    GOM_UW_1704    2017-04-10T18:49:56Z    -90.0065   28.7535   22.84        31.389    279.3983487           2          
MisPlume(west)    GOM_UW_1704    2017-04-10T18:51:23Z    -90.0108   28.7531   22.8562      31.492    283.8476013           2          
MisPlume(west)    GOM_UW_1704    2017-04-10T18:52:53Z    -90.0153   28.7525   22.8928      31.592    282.9171978           2          
MisPlume(west)    GOM_UW_1704    2017-04-10T18:54:24Z    -90.0199   28.7521   22.9664      31.657    282.6308183           2          
MisPlume(west)    GOM_UW_1704    2017-04-10T18:55:51Z    -90.0242   28.7515   22.9789      31.766    276.6933358           2          
MisPlume(west)    GOM_UW_1704    2017-04-10T18:57:19Z    -90.0285   28.751    23.0077      31.807    274.0280157           2          
MisPlume(west)    GOM_UW_1704    2017-04-10T18:58:50Z    -90.033    28.7505   23.0997      31.968    272.6795541           2          
MisPlume(west)    GOM_UW_1704    2017-04-10T19:00:19Z    -90.0373   28.7508   23.0685      32.057    262.4819906           2          
MisPlume(west)    GOM_UW_1704    2017-04-10T19:01:47Z    -90.0416   28.7512   23.014       32.001    263.918249            2          
MisPlume(west)    GOM_UW_1704    2017-04-10T19:03:16Z    -90.046    28.7516   23.0008      31.989    261.8471148           2          
MisPlume(west)    GOM_UW_1704    2017-04-10T19:04:46Z    -90.0504   28.7521   22.9265      31.833    240.8327619           2          
MisPlume(west)    GOM_UW_1704    2017-04-10T19:06:15Z    -90.0547   28.7525   22.9286      31.819    217.1930203           2          
MisPlume(west)    GOM_UW_1704    2017-04-10T19:07:42Z    -90.0589   28.7529   22.982       31.77     217.9348525           2          
MisPlume(west)    GOM_UW_1704    2017-04-10T19:09:12Z    -90.0632   28.7533   22.8699      31.664    242.1217546           2          
MisPlume(west)    GOM_UW_1704    2017-04-10T19:10:40Z    -90.0675   28.7537   22.9138      31.712    245.3028237           2          
MisPlume(west)    GOM_UW_1704    2017-04-10T19:12:08Z    -90.0718   28.7542   22.8426      31.633    261.419226            2          
MisPlume(west)    GOM_UW_1704    2017-04-10T19:13:36Z    -90.076    28.7546   22.8393      31.613    266.1173313           2          
MisPlume(west)    GOM_UW_1704    2017-04-10T19:15:04Z    -90.0803   28.755    22.7535      31.579    270.4698069           2          
MisPlume(west)    GOM_UW_1704    2017-04-10T19:16:32Z    -90.0845   28.7554   22.7549      31.595    274.438418            2          
MisPlume(west)    GOM_UW_1704    2017-04-10T19:18:00Z    -90.0888   28.7559   22.8073      31.651    278.8765527           2          
MisPlume(west)    GOM_UW_1704    2017-04-10T19:19:30Z    -90.0931   28.7563   22.9474      31.701    284.1192799           2          
MisPlume(west)    GOM_UW_1704    2017-04-10T19:20:58Z    -90.0973   28.7567   23.0392      31.557    283.2374731           2          
MisPlume(west)    GOM_UW_1704    2017-04-10T19:33:32Z    -90.1339   28.7603   23.2849      31.725    281.0854283           2          
MisPlume(west)    GOM_UW_1704    2017-04-10T19:35:03Z    -90.1383   28.7607   23.2585      31.914    277.2055633           2          
MisPlume(west)    GOM_UW_1704    2017-04-10T19:36:32Z    -90.1426   28.7612   23.2252      32.001    271.3174496           2          
MisPlume(west)    GOM_UW_1704    2017-04-10T19:38:00Z    -90.1469   28.7616   23.2729      32.127    255.643726            2          
MisPlume(west)    GOM_UW_1704    2017-04-10T19:39:29Z    -90.1513   28.7621   23.2087      32.329    252.9785088           2          
MisPlume(west)    GOM_UW_1704    2017-04-10T19:40:56Z    -90.1556   28.7625   23.2204      32.409    237.3831627           2          
MisPlume(west)    GOM_UW_1704    2017-04-10T19:42:25Z    -90.16     28.7629   23.373       32.361    232.3600221           2          
MisPlume(west)    GOM_UW_1704    2017-04-10T19:43:53Z    -90.1644   28.7634   23.4887      32.591    236.2313057           2          
MisPlume(west)    GOM_UW_1704    2017-04-10T19:45:21Z    -90.1688   28.7638   23.5012      32.773    230.7113669           2          
MisPlume(west)    GOM_UW_1704    2017-04-10T19:46:51Z    -90.1732   28.7643   23.4279      32.933    231.7039206           2          
MisPlume(west)    GOM_UW_1704    2017-04-10T19:48:20Z    -90.1774   28.7646   23.1518      33.322    230.0907546           2          
MisPlume(west)    GOM_UW_1704    2017-04-10T19:49:48Z    -90.1816   28.7651   23.0991      33.206    217.4169131           2          
MisPlume(west)    GOM_UW_1704    2017-04-10T19:51:18Z    -90.1858   28.7655   23.0584      33.125    214.0610409           2          
MisPlume(west)    GOM_UW_1704    2017-04-10T19:52:49Z    -90.1902   28.766    22.9198      33.184    222.5864374           2          
MisPlume(west)    GOM_UW_1704    2017-04-10T19:54:18Z    -90.1945   28.7664   22.871       33.193    225.5405682           2          
MisPlume(west)    GOM_UW_1704    2017-04-10T19:55:46Z    -90.1987   28.7668   22.7915      33.232    221.1869849           2          
MisPlume(west)    GOM_UW_1704    2017-04-10T19:57:16Z    -90.2031   28.7672   22.8894      33.254    220.0315823           2          
MisPlume(west)    GOM_UW_1704    2017-04-10T19:58:44Z    -90.2074   28.7676   22.875       33.286    217.0813113           2          
MisPlume(west)    GOM_UW_1704    2017-04-10T20:00:16Z    -90.2118   28.7681   22.8336      33.328    216.8167106           2          
MisPlume(west)    GOM_UW_1704    2017-04-10T20:01:47Z    -90.2163   28.7685   22.9012      33.321    213.8361112           2          
MisPlume(west)    GOM_UW_1704    2017-04-10T20:03:18Z    -90.2207   28.7689   22.9233      33.42     211.8737315           2          
MisPlume(west)    GOM_UW_1704    2017-04-10T20:04:45Z    -90.2249   28.7693   22.939       33.589    221.2272405           2          
MisPlume(west)    GOM_UW_1704    2017-04-10T20:06:15Z    -90.2291   28.7698   22.8015      33.952    238.9821175           2          
MisPlume(west)    GOM_UW_1704    2017-04-10T20:07:42Z    -90.2333   28.7702   22.6736      33.954    260.6992874           2          
MisPlume(west)    GOM_UW_1704    2017-04-10T20:09:12Z    -90.2375   28.7707   22.7977      34.007    271.3363685           2          
MisPlume(west)    GOM_UW_1704    2017-04-10T20:10:41Z    -90.2417   28.7711   22.7817      33.983    270.3067818           2          
MisPlume(west)    GOM_UW_1704    2017-04-10T20:12:12Z    -90.2461   28.7716   22.7458      33.989    270.9816231           2          
MisPlume(west)    GOM_UW_1704    2017-04-10T20:13:41Z    -90.2503   28.772    22.6907      34.014    271.0977389           2          
MisPlume(west)    GOM_UW_1704    2017-04-10T20:15:12Z    -90.2546   28.7725   22.6813      34.031    272.1337202           2          
MisPlume(west)    GOM_UW_1704    2017-04-10T20:16:41Z    -90.2589   28.773    22.7257      34.115    274.4521583           2          
MisPlume(west)    GOM_UW_1704    2017-04-10T20:18:09Z    -90.2631   28.7733   22.7503      34.205    284.5027927           2          
MisPlume(west)    GOM_UW_1704    2017-04-10T20:19:40Z    -90.2674   28.7738   22.7441      34.332    291.7891944           2          
MisPlume(west)    GOM_UW_1704    2017-04-10T20:21:08Z    -90.2716   28.7743   22.7195      34.444    302.7669478           2          
MisPlume(west)    GOM_UW_1704    2017-04-10T20:22:37Z    -90.2758   28.7747   22.6742      34.521    315.7331842           2          
MisPlume(west)    GOM_UW_1704    2017-04-10T20:24:06Z    -90.28     28.7752   22.6628      34.551    313.9696042           2          
MisPlume(west)    GOM_UW_1704    2017-04-10T20:25:37Z    -90.2843   28.7756   22.6342      34.59     313.8638265           2          
MisPlume(west)    GOM_UW_1704    2017-04-10T20:27:07Z    -90.2886   28.7761   22.6625      34.641    319.1663381           2          
MisPlume(west)    GOM_UW_1704    2017-04-10T20:28:35Z    -90.2928   28.7765   22.6748      34.631    322.1615072           2          
MisPlume(west)    GOM_UW_1704    2017-04-10T20:30:05Z    -90.2971   28.777    22.7153      34.651    317.2492041           2          
MisPlume(west)    GOM_UW_1704    2017-04-10T20:31:35Z    -90.3014   28.7774   22.814       34.74     318.3449095           2          
MisPlume(west)    GOM_UW_1704    2017-04-10T20:33:06Z    -90.3057   28.7779   22.8473      34.828    325.8720687           2          
MisPlume(west)    GOM_UW_1704    2017-04-10T20:34:35Z    -90.31     28.7784   22.8135      34.933    331.0537363           2          
MisPlume(west)    GOM_UW_1704    2017-04-10T20:36:06Z    -90.3143   28.7788   22.8932      35.007    334.1284872           2          
MisPlume(west)    GOM_UW_1704    2017-04-10T20:37:34Z    -90.3185   28.7792   22.9128      34.964    338.5334991           2          
MisPlume(west)    GOM_UW_1704    2017-04-10T20:39:02Z    -90.3226   28.7797   22.7698      34.748    338.5922493           2          
MisPlume(west)    GOM_UW_1704    2017-04-10T20:40:31Z    -90.3268   28.7801   22.8837      34.588    338.6589573           2          
MisPlume(west)    GOM_UW_1704    2017-04-10T20:42:02Z    -90.331    28.7805   23.0021      34.48     331.3703388           2          
MisPlume(west)    GOM_UW_1704    2017-04-10T20:43:30Z    -90.3352   28.781    23.1505      34.21     307.0054691           2          
MisPlume(west)    GOM_UW_1704    2017-04-10T20:45:00Z    -90.3394   28.7815   23.0683      34.017    303.2297434           2          
MisPlume(west)    GOM_UW_1704    2017-04-10T20:46:30Z    -90.3437   28.7819   23.0624      33.636    292.6784692           2          
MisPlume(west)    GOM_UW_1704    2017-04-10T20:47:58Z    -90.3479   28.7824   22.8867      33.347    268.9945898           2          
MisPlume(west)    GOM_UW_1704    2017-04-10T20:49:27Z    -90.3521   28.7828   22.8442      33.218    246.926725            2          
MisPlume(west)    GOM_UW_1704    2017-04-10T20:50:56Z    -90.3563   28.7833   22.7947      33.111    243.407333            2          
MisPlume(west)    GOM_UW_1704    2017-04-10T20:52:25Z    -90.3606   28.7837   22.8532      33.052    235.3821868           2          
MisPlume(west)    GOM_UW_1704    2017-04-10T20:53:55Z    -90.3649   28.7842   22.759       32.927    228.9351079           2          
MisPlume(west)    GOM_UW_1704    2017-04-10T20:55:23Z    -90.369    28.7846   22.7564      32.887    227.781965            2          
MisPlume(west)    GOM_UW_1704    2017-04-10T20:56:54Z    -90.3734   28.7851   22.7239      32.836    225.7675737           2          
MisPlume(west)    GOM_UW_1704    2017-04-10T20:58:25Z    -90.3777   28.7855   22.9181      32.71     228.84933             2          
MisPlume(west)    GOM_UW_1704    2017-04-10T20:59:54Z    -90.3819   28.786    22.8351      32.516    221.6897207           2          
MisPlume(west)    GOM_UW_1704    2017-04-10T21:01:21Z    -90.386    28.7864   22.9317      32.475    214.4732107           2          
MisPlume(west)    GOM_UW_1704    2017-04-10T21:02:51Z    -90.3903   28.7868   22.8408      32.358    214.4786209           2          
MisPlume(west)    GOM_UW_1704    2017-04-10T21:04:22Z    -90.3946   28.7873   23.0154      32.166    206.6862811           2          
MisPlume(west)    GOM_UW_1704    2017-04-10T21:05:52Z    -90.3989   28.7877   22.9266      32.04     202.668299            2          
MisPlume(west)    GOM_UW_1704    2017-04-10T21:07:21Z    -90.4031   28.7882   22.8809      31.952    197.520311            2          
MisPlume(west)    GOM_UW_1704    2017-04-10T21:08:52Z    -90.4074   28.7886   22.888       31.89     201.260478            2          
MisPlume(west)    GOM_UW_1704    2017-04-10T21:10:21Z    -90.4116   28.789    22.8437      31.835    198.2939796           2          
MisPlume(west)    GOM_UW_1704    2017-04-10T21:11:49Z    -90.4158   28.7894   22.8161      31.78     198.140538            2          
MisPlume(west)    GOM_UW_1704    2017-04-10T21:13:17Z    -90.4199   28.7898   22.7357      31.797    199.9108547           2          
MisPlume(west)    GOM_UW_1704    2017-04-10T21:14:46Z    -90.4241   28.7902   22.8201      31.811    204.9261484           2          
MisPlume(west)    GOM_UW_1704    2017-04-10T21:16:14Z    -90.4282   28.7906   22.7561      31.822    203.2634999           2          
MisPlume(west)    GOM_UW_1704    2017-04-10T21:17:43Z    -90.4324   28.791    22.6263      31.826    210.0676863           2          
MisPlume(west)    GOM_UW_1704    2017-04-10T21:19:10Z    -90.4365   28.7914   22.5724      31.827    210.6390422           2          
MisPlume(west)    GOM_UW_1704    2017-04-10T21:20:38Z    -90.4406   28.7918   22.5475      31.857    216.5388842           2          
MisPlume(west)    GOM_UW_1704    2017-04-10T21:22:08Z    -90.4449   28.7922   22.5019      31.879    215.2884864           2          
MisPlume(west)    GOM_UW_1704    2017-04-10T21:23:36Z    -90.449    28.7926   22.6858      31.904    217.4379661           2          
MisPlume(west)    GOM_UW_1704    2017-04-10T21:25:05Z    -90.4532   28.793    22.7589      31.6      239.9546364           2          
MisPlume(west)    GOM_UW_1704    2017-04-10T21:26:32Z    -90.4573   28.7934   22.7372      31.491    255.6134483           2          
MisPlume(west)    GOM_UW_1704    2017-04-10T21:28:01Z    -90.4616   28.7938   22.7411      31.428    263.5862742           2          
MisPlume(west)    GOM_UW_1704    2017-04-10T21:29:31Z    -90.4658   28.7942   22.7968      31.341    267.2202496           2          
MisPlume(west)    GOM_UW_1704    2017-04-10T21:30:59Z    -90.47     28.7946   22.7229      31.196    264.8717509           2          
MisPlume(west)    GOM_UW_1704    2017-04-10T21:32:28Z    -90.4741   28.795    22.6515      31.149    257.558851            2          
MisPlume(west)    GOM_UW_1704    2017-04-10T21:33:55Z    -90.4782   28.7953   22.6863      31.128    250.8135653           2          
MisPlume(west)    GOM_UW_1704    2017-04-10T21:35:23Z    -90.4824   28.7957   22.6726      31.118    249.8172738           2          
MisPlume(west)    GOM_UW_1704    2017-04-10T21:36:54Z    -90.4866   28.7962   22.7024      31.123    244.9811482           2          
MisPlume(west)    GOM_UW_1704    2017-04-10T21:38:23Z    -90.4909   28.7965   22.7385      31.143    242.4491349           2          
MisPlume(west)    GOM_UW_1704    2017-04-10T21:39:51Z    -90.4951   28.7969   22.8024      31.165    244.7254022           2          
MisPlume(west)    GOM_UW_1704    2017-04-10T21:41:21Z    -90.4993   28.7973   22.8935      31.187    245.4341416           2          
MisPlume(west)    GOM_UW_1704    2017-04-10T21:42:49Z    -90.5034   28.7978   22.9496      31.202    247.5167706           2          
MisPlume(west)    GOM_UW_1704    2017-04-10T21:44:17Z    -90.5076   28.7982   22.8624      31.197    250.4494442           2          
MisPlume(west)    GOM_UW_1704    2017-04-10T21:45:45Z    -90.5118   28.7986   22.7966      31.197    251.1261304           2          
MisPlume(west)    GOM_UW_1704    2017-04-10T21:47:14Z    -90.5159   28.799    22.7855      31.222    251.8511704           2          
MisPlume(west)    GOM_UW_1704    2017-04-10T21:48:42Z    -90.5201   28.7994   22.8313      31.239    254.3375747           2          
MisPlume(west)    GOM_UW_1704    2017-04-10T21:50:10Z    -90.5243   28.7998   22.8581      31.27     250.6785609           2          
MisPlume(west)    GOM_UW_1704    2017-04-10T21:51:41Z    -90.5285   28.8002   22.7734      31.276    249.191086            2          
MisPlume(west)    GOM_UW_1704    2017-04-10T21:53:09Z    -90.5326   28.8006   22.7687      31.278    247.7981186           2          
MisPlume(west)    GOM_UW_1704    2017-04-10T21:54:36Z    -90.5366   28.8009   22.8413      31.291    249.8077327           2          
MisPlume(west)    GOM_UW_1704    2017-04-10T21:56:05Z    -90.5408   28.8013   22.8167      31.288    246.4790498           2          
MisPlume(west)    GOM_UW_1704    2017-04-10T21:57:33Z    -90.545    28.8017   22.8043      31.283    246.4615534           2          
MisPlume(west)    GOM_UW_1704    2017-04-10T21:59:01Z    -90.5492   28.8021   22.8304      31.293    247.1322687           2          
MisPlume(west)    GOM_UW_1704    2017-04-10T22:00:30Z    -90.5534   28.8025   22.8988      31.297    249.6475959           2          
MisPlume(west)    GOM_UW_1704    2017-04-10T22:01:58Z    -90.5575   28.8028   22.8664      31.299    246.8436034           2          
MisPlume(west)    GOM_UW_1704    2017-04-10T22:03:27Z    -90.5617   28.8032   22.8802      31.302    246.0275423           2          
MisPlume(west)    GOM_UW_1704    2017-04-10T22:04:58Z    -90.5661   28.8037   22.8676      31.306    245.9055976           2          
MisPlume(west)    GOM_UW_1704    2017-04-10T22:06:29Z    -90.5704   28.8041   22.8898      31.304    247.0658545           2          
MisPlume(west)    GOM_UW_1704    2017-04-10T22:07:57Z    -90.5745   28.8044   22.9014      31.305    247.2378067           2          
MisPlume(west)    GOM_UW_1704    2017-04-10T22:09:26Z    -90.5786   28.8048   22.8903      31.301    249.840542            2          
MisPlume(west)    GOM_UW_1704    2017-04-10T22:10:54Z    -90.5828   28.8052   22.8867      31.309    248.5929335           2          
MisPlume(west)    GOM_UW_1704    2017-04-10T22:12:21Z    -90.5869   28.8056   22.8911      31.307    249.5050024           2          
MisPlume(west)    GOM_UW_1704    2017-04-10T22:13:51Z    -90.5911   28.8059   22.8896      31.306    248.226181            2          
MisPlume(west)    GOM_UW_1704    2017-04-10T22:15:19Z    -90.5953   28.8063   22.8712      31.309    248.0742678           2          
MisPlume(west)    GOM_UW_1704    2017-04-10T22:16:48Z    -90.5995   28.8067   22.8662      31.311    248.1349162           2          
MisPlume(west)    GOM_UW_1704    2017-04-10T22:18:15Z    -90.6036   28.8071   22.898       31.31     248.2224609           2          
MisPlume(west)    GOM_UW_1704    2017-04-10T22:19:44Z    -90.6078   28.8075   22.8621      31.304    249.4416244           2          
MisPlume(west)    GOM_UW_1704    2017-04-10T22:21:13Z    -90.612    28.8079   22.8697      31.309    249.2344849           2          
MisPlume(west)    GOM_UW_1704    2017-04-10T22:22:40Z    -90.6161   28.8083   22.8258      31.319    250.0241466           2          
MisPlume(west)    GOM_UW_1704    2017-04-10T22:24:12Z    -90.6205   28.8087   22.8431      31.317    250.7752904           2          
MisPlume(west)    GOM_UW_1704    2017-04-10T22:25:42Z    -90.6248   28.809    22.8041      31.314    250.0259156           2          
MisPlume(west)    GOM_UW_1704    2017-04-10T22:27:10Z    -90.629    28.8094   22.8097      31.324    253.0175136           2          
MisPlume(west)    GOM_UW_1704    2017-04-10T22:28:39Z    -90.6332   28.8098   22.8344      31.329    252.7052261           2          
MisPlume(west)    GOM_UW_1704    2017-04-10T22:30:09Z    -90.6375   28.8102   22.8104      31.327    252.2269291           2          
MisPlume(west)    GOM_UW_1704    2017-04-10T22:42:47Z    -90.6734   28.8135   22.6895      31.352    260.1536065           2          
MisPlume(west)    GOM_UW_1704    2017-04-10T22:44:16Z    -90.6777   28.8139   22.6665      31.36     261.024574            2          
MisPlume(west)    GOM_UW_1704    2017-04-10T22:45:44Z    -90.6819   28.8143   22.6839      31.364    263.1628048           2          
MisPlume(west)    GOM_UW_1704    2017-04-10T22:47:12Z    -90.6861   28.8147   22.654       31.377    264.5615931           2          
MisPlume(west)    GOM_UW_1704    2017-04-10T22:48:40Z    -90.6904   28.8151   22.6413      31.384    266.4236686           2          
MisPlume(west)    GOM_UW_1704    2017-04-10T22:50:09Z    -90.6947   28.8155   22.6541      31.411    265.7113637           2          
MisPlume(west)    GOM_UW_1704    2017-04-10T22:51:40Z    -90.6991   28.8159   22.6415      31.436    266.8852031           2          
MisPlume(west)    GOM_UW_1704    2017-04-10T22:53:08Z    -90.7033   28.8163   22.657       31.459    269.869388            2          
MisPlume(west)    GOM_UW_1704    2017-04-10T22:54:36Z    -90.7076   28.8167   22.7171      31.479    269.0160843           2          
MisPlume(west)    GOM_UW_1704    2017-04-10T22:56:04Z    -90.7117   28.8171   22.7361      31.505    270.7570746           2          
MisPlume(west)    GOM_UW_1704    2017-04-10T22:57:33Z    -90.716    28.8175   22.6316      31.582    271.6054551           2          
MisPlume(west)    GOM_UW_1704    2017-04-10T22:59:04Z    -90.7203   28.8179   22.7         31.591    272.5102411           2          
MisPlume(west)    GOM_UW_1704    2017-04-10T23:00:31Z    -90.7245   28.8183   22.7306      31.642    274.130269            2          
MisPlume(west)    GOM_UW_1704    2017-04-10T23:02:00Z    -90.7288   28.8187   22.7724      31.705    275.50507             2          
MisPlume(west)    GOM_UW_1704    2017-04-10T23:03:28Z    -90.7329   28.819    22.7994      31.765    275.1369828           2          
MisPlume(west)    GOM_UW_1704    2017-04-10T23:04:57Z    -90.7371   28.8195   22.7942      31.847    273.1118195           2          
MisPlume(west)    GOM_UW_1704    2017-04-10T23:06:25Z    -90.7413   28.8198   22.9136      31.906    271.8963282           2          
MisPlume(west)    GOM_UW_1704    2017-04-10T23:07:54Z    -90.7456   28.8202   23.0329      31.943    266.8259505           2          
MisPlume(west)    GOM_UW_1704    2017-04-10T23:09:24Z    -90.7498   28.8206   23.053       32.021    266.4807489           2          
MisPlume(west)    GOM_UW_1704    2017-04-10T23:10:52Z    -90.7539   28.821    23.0856      32.041    256.3698123           2          
MisPlume(west)    GOM_UW_1704    2017-04-10T23:12:22Z    -90.7582   28.8214   23.0489      32.006    252.390781            2          
MisPlume(west)    GOM_UW_1704    2017-04-10T23:13:50Z    -90.7624   28.8218   23.0475      31.96     253.3070523           2          
MisPlume(west)    GOM_UW_1704    2017-04-10T23:15:19Z    -90.7666   28.8222   22.8661      31.857    258.2913131           2          
MisPlume(west)    GOM_UW_1704    2017-04-10T23:16:47Z    -90.7707   28.8225   22.7695      31.793    266.0829214           2          
MisPlume(west)    GOM_UW_1704    2017-04-10T23:18:16Z    -90.7749   28.8229   22.6251      31.715    268.9321021           2          
MisPlume(west)    GOM_UW_1704    2017-04-10T23:19:45Z    -90.7791   28.8233   22.6617      31.718    270.5704661           2          
MisPlume(west)    GOM_UW_1704    2017-04-10T23:21:13Z    -90.7833   28.8237   22.6739      31.724    269.709379            2          
MisPlume(west)    GOM_UW_1704    2017-04-10T23:22:41Z    -90.7874   28.8241   22.6882      31.722    269.0345168           2          
MisPlume(west)    GOM_UW_1704    2017-04-10T23:24:12Z    -90.7917   28.8245   22.7939      31.753    265.3348414           2          
MisPlume(west)    GOM_UW_1704    2017-04-10T23:25:41Z    -90.7959   28.8249   22.8381      31.784    263.8563878           2          
MisPlume(west)    GOM_UW_1704    2017-04-10T23:27:09Z    -90.8001   28.8253   22.9201      31.816    259.2371244           2          
MisPlume(west)    GOM_UW_1704    2017-04-10T23:28:37Z    -90.8043   28.8256   22.8792      31.798    262.9867589           2          
MisPlume(west)    GOM_UW_1704    2017-04-10T23:30:06Z    -90.8086   28.826    22.8373      31.774    254.8757829           2          
MisPlume(west)    GOM_UW_1704    2017-04-10T23:31:34Z    -90.8127   28.8264   22.8071      31.75     260.4989112           2          
MisPlume(west)    GOM_UW_1704    2017-04-10T23:33:02Z    -90.8169   28.8268   22.7004      31.714    259.565046            2          
MisPlume(west)    GOM_UW_1704    2017-04-10T23:34:32Z    -90.8212   28.8272   22.5977      31.702    262.5670944           2          
MisPlume(west)    GOM_UW_1704    2017-04-10T23:36:00Z    -90.8253   28.8276   22.5696      31.701    265.5105232           2          
MisPlume(west)    GOM_UW_1704    2017-04-10T23:37:28Z    -90.8295   28.828    22.612       31.714    255.6868527           2          
MisPlume(west)    GOM_UW_1704    2017-04-10T23:38:57Z    -90.8337   28.8283   22.7732      31.728    257.4852787           2          
MisPlume(west)    GOM_UW_1704    2017-04-10T23:40:26Z    -90.838    28.8287   22.9525      31.793    257.7979792           2          
MisPlume(west)    GOM_UW_1704    2017-04-10T23:41:54Z    -90.8422   28.8291   23.0315      31.817    258.390675            2          
MisPlume(west)    GOM_UW_1704    2017-04-10T23:43:22Z    -90.8463   28.8294   22.9553      31.801    255.5767518           2          
MisPlume(west)    GOM_UW_1704    2017-04-10T23:44:54Z    -90.8507   28.8297   23.0065      31.794    256.7027229           2          
MisPlume(west)    GOM_UW_1704    2017-04-10T23:46:21Z    -90.8549   28.8301   23.0044      31.815    263.5834136           2          
MisPlume(west)    GOM_UW_1704    2017-04-10T23:47:49Z    -90.8592   28.8304   23.0021      31.825    263.4156701           2          
MisPlume(west)    GOM_UW_1704    2017-04-10T23:49:17Z    -90.8633   28.8307   22.9547      31.825    261.2265504           2          
MisPlume(west)    GOM_UW_1704    2017-04-10T23:50:45Z    -90.8675   28.8311   22.9207      31.823    258.9467383           2          
MisPlume(west)    GOM_UW_1704    2017-04-10T23:52:14Z    -90.8718   28.8313   22.9054      31.821    261.507566            2          
MisPlume(west)    GOM_UW_1704    2017-04-10T23:53:43Z    -90.8761   28.8317   22.869       31.815    260.3572746           2          
MisPlume(west)    GOM_UW_1704    2017-04-10T23:55:12Z    -90.8803   28.832    22.8714      31.807    260.2218621           2          
MisPlume(west)    GOM_UW_1704    2017-04-10T23:56:40Z    -90.8845   28.8323   22.8357      31.811    260.6168225           2          
MisPlume(west)    GOM_UW_1704    2017-04-10T23:58:11Z    -90.8888   28.8327   22.8311      31.798    257.8288502           2          
MisPlume(west)    GOM_UW_1704    2017-04-10T23:59:40Z    -90.8931   28.833    22.8241      31.784    259.2418692           2          
MisPlume(west)    GOM_UW_1704    2017-04-11T00:01:08Z    -90.8973   28.8333   22.8116      31.758    260.7681009           2          
MisPlume(west)    GOM_UW_1704    2017-04-11T00:02:38Z    -90.9016   28.8336   22.8887      31.786    260.7538191           2          
MisPlume(west)    GOM_UW_1704    2017-04-11T00:04:07Z    -90.9059   28.8339   22.8956      31.788    258.5052085           2          
MisPlume(west)    GOM_UW_1704    2017-04-11T00:05:34Z    -90.9101   28.8343   22.8965      31.786    260.121875            2          
MisPlume(west)    GOM_UW_1704    2017-04-11T00:07:02Z    -90.9142   28.8346   22.8737      31.781    254.7415096           2          
MisPlume(west)    GOM_UW_1704    2017-04-11T00:08:31Z    -90.9185   28.8349   22.8824      31.78     257.1181299           2          
MisPlume(west)    GOM_UW_1704    2017-04-11T00:10:00Z    -90.9228   28.8353   22.8815      31.778    251.6964007           2          
MisPlume(west)    GOM_UW_1704    2017-04-11T00:11:31Z    -90.9271   28.8356   22.8816      31.766    252.3848865           2          
MisPlume(west)    GOM_UW_1704    2017-04-11T00:12:59Z    -90.9313   28.8359   22.9003      31.761    249.5057756           2          
MisPlume(west)    GOM_UW_1704    2017-04-11T00:14:28Z    -90.9356   28.8363   22.9108      31.762    252.7381682           2          
MisPlume(west)    GOM_UW_1704    2017-04-11T00:15:56Z    -90.9398   28.8366   22.9138      31.758    257.9815693           2          
MisPlume(west)    GOM_UW_1704    2017-04-11T00:17:24Z    -90.944    28.8369   22.7896      31.704    256.4537032           2          
MisPlume(west)    GOM_UW_1704    2017-04-11T00:18:52Z    -90.9482   28.8372   22.7249      31.692    258.2326905           2          
MisPlume(west)    GOM_UW_1704    2017-04-11T00:20:20Z    -90.9524   28.8375   22.7508      31.697    258.0108625           2          
MisPlume(west)    GOM_UW_1704    2017-04-11T00:21:50Z    -90.9567   28.8379   22.7294      31.696    254.3326802           2          
MisPlume(west)    GOM_UW_1704    2017-04-11T00:23:21Z    -90.9611   28.8382   22.7489      31.71     261.6801212           2          
MisPlume(west)    GOM_UW_1704    2017-04-11T00:24:48Z    -90.9652   28.8385   22.8297      31.737    256.0854467           2          
MisPlume(west)    GOM_UW_1704    2017-04-11T00:26:17Z    -90.9695   28.8389   22.8415      31.726    257.1360077           2          
MisPlume(west)    GOM_UW_1704    2017-04-11T00:27:45Z    -90.9737   28.8391   22.7898      31.719    255.8378796           2          
MisPlume(west)    GOM_UW_1704    2017-04-11T00:29:14Z    -90.978    28.8395   22.761       31.691    255.7040863           2          
MisPlume(west)    GOM_UW_1704    2017-04-11T00:30:45Z    -90.9824   28.8399   22.711       31.681    256.8412779           2          
MisPlume(west)    GOM_UW_1704    2017-04-11T00:32:13Z    -90.9866   28.8402   22.6803      31.682    261.1704648           2          
MisPlume(west)    GOM_UW_1704    2017-04-11T00:33:42Z    -90.9909   28.8405   22.7249      31.682    262.0043382           2          
MisPlume(west)    GOM_UW_1704    2017-04-11T00:35:09Z    -90.995    28.8408   22.7288      31.7      261.6362817           2          
MisPlume(west)    GOM_UW_1704    2017-04-11T00:36:38Z    -90.9992   28.8411   22.7668      31.719    265.327829            2          
MisPlume(west)    GOM_UW_1704    2017-04-11T00:38:07Z    -91.0035   28.8415   22.787       31.741    271.0252056           2          
MisPlume(west)    GOM_UW_1704    2017-04-11T00:39:35Z    -91.0077   28.8418   22.8179      31.777    275.6498657           2          
MisPlume(west)    GOM_UW_1704    2017-04-11T00:41:03Z    -91.0119   28.8421   22.8244      31.795    281.371951            2          
MisPlume(west)    GOM_UW_1704    2017-04-11T00:42:31Z    -91.016    28.8424   22.8456      31.81     286.5467761           2          
MisPlume(west)    GOM_UW_1704    2017-04-11T00:44:00Z    -91.0203   28.8427   22.8659      31.815    292.7133466           2          
MisPlume(west)    GOM_UW_1704    2017-04-11T00:45:28Z    -91.0245   28.843    22.8301      31.801    291.1487492           2          
MisPlume(west)    GOM_UW_1704    2017-04-11T00:46:56Z    -91.0287   28.8433   22.7947      31.796    285.3588108           2          
MisPlume(west)    GOM_UW_1704    2017-04-11T00:48:24Z    -91.0327   28.8437   22.7921      31.82     295.6230225           2          
MisPlume(west)    GOM_UW_1704    2017-04-11T00:49:56Z    -91.0372   28.844    22.833       31.854    296.9961703           2          
MisPlume(west)    GOM_UW_1704    2017-04-11T00:51:25Z    -91.0415   28.8443   22.8096      31.855    299.2528386           2          
MisPlume(west)    GOM_UW_1704    2017-04-11T00:52:52Z    -91.0455   28.8447   22.8981      31.895    308.1011233           2          
MisPlume(west)    GOM_UW_1704    2017-04-11T00:54:20Z    -91.0497   28.8449   22.9421      31.917    300.891608            2          
MisPlume(west)    GOM_UW_1704    2017-04-11T00:55:50Z    -91.054    28.8453   22.8106      31.857    301.6089452           2          
MisPlume(west)    GOM_UW_1704    2017-04-11T00:57:18Z    -91.0582   28.8456   22.8398      31.866    301.7149874           2          
MisPlume(west)    GOM_UW_1704    2017-04-11T00:58:46Z    -91.0624   28.8459   22.829       31.861    298.7763987           2          
MisPlume(west)    GOM_UW_1704    2017-04-11T01:00:15Z    -91.0666   28.8462   22.8017      31.864    298.2721686           2          
MisPlume(west)    GOM_UW_1704    2017-04-11T01:01:42Z    -91.0708   28.8466   22.8221      31.873    296.4440705           2          
MisPlume(west)    GOM_UW_1704    2017-04-11T01:03:11Z    -91.0751   28.8469   22.8751      31.905    296.6880945           2          
MisPlume(west)    GOM_UW_1704    2017-04-11T01:04:39Z    -91.0792   28.8472   22.8097      31.884    297.6905603           2          
MisPlume(west)    GOM_UW_1704    2017-04-11T01:06:07Z    -91.0834   28.8476   22.7735      31.869    297.4655429           2          
MisPlume(west)    GOM_UW_1704    2017-04-11T01:07:38Z    -91.0877   28.8479   22.7561      31.866    292.8286979           2          
MisPlume(west)    GOM_UW_1704    2017-04-11T01:09:06Z    -91.0918   28.8482   22.7723      31.878    291.9069008           2          
MisPlume(west)    GOM_UW_1704    2017-04-11T01:10:37Z    -91.0962   28.8485   22.7968      31.893    293.4774197           2          
MisPlume(west)    GOM_UW_1704    2017-04-11T01:12:05Z    -91.1004   28.8488   22.8325      31.918    293.5320811           2          
MisPlume(west)    GOM_UW_1704    2017-04-11T01:13:33Z    -91.1046   28.8492   22.8568      31.933    295.696927            2          
MisPlume(west)    GOM_UW_1704    2017-04-11T01:15:02Z    -91.1087   28.8495   22.8784      31.966    300.2113934           2          
MisPlume(west)    GOM_UW_1704    2017-04-11T01:16:29Z    -91.1128   28.8498   22.897       31.991    302.1802322           2          
MisPlume(west)    GOM_UW_1704    2017-04-11T01:17:58Z    -91.1169   28.8501   22.9099      32.009    306.7920466           2          
MisPlume(west)    GOM_UW_1704    2017-04-11T01:19:26Z    -91.121    28.8504   22.9195      32.027    304.5292931           2          
MisPlume(west)    GOM_UW_1704    2017-04-11T01:20:55Z    -91.1253   28.8507   22.905       32.023    297.4610699           2          
MisPlume(west)    GOM_UW_1704    2017-04-11T01:22:23Z    -91.1295   28.851    22.8683      31.995    299.499137            2          
MisPlume(west)    GOM_UW_1704    2017-04-11T01:23:51Z    -91.1336   28.8514   22.8555      31.978    308.832144            2          
MisPlume(west)    GOM_UW_1704    2017-04-11T01:25:21Z    -91.1379   28.8517   22.9121      32.001    303.3473053           2          
MisPlume(west)    GOM_UW_1704    2017-04-11T01:26:49Z    -91.142    28.852    22.9352      32.008    305.4969739           2          
MisPlume(west)    GOM_UW_1704    2017-04-11T01:28:17Z    -91.1461   28.8523   22.9181      31.986    296.7209413           2          
MisPlume(west)    GOM_UW_1704    2017-04-11T01:29:46Z    -91.1503   28.8526   22.9113      31.976    304.5740816           2          
MisPlume(west)    GOM_UW_1704    2017-04-11T01:31:15Z    -91.1545   28.853    22.8753      31.964    332.8364544           2          
MisPlume(west)    GOM_UW_1704    2017-04-11T01:32:42Z    -91.1586   28.8533   22.8299      31.955    367.5283827           2          
MisPlume(west)    GOM_UW_1704    2017-04-11T01:34:11Z    -91.1627   28.8536   22.7535      31.917    397.375632            2          
MisPlume(west)    GOM_UW_1704    2017-04-11T01:35:39Z    -91.1668   28.8539   22.7219      31.917    434.8290156           2          
MisPlume(west)    GOM_UW_1704    2017-04-11T01:37:07Z    -91.1709   28.8542   22.6837      31.917    544.2477486           2          
MisPlume(west)    GOM_UW_1704    2017-04-11T01:38:35Z    -91.1751   28.8546   22.6286      31.908    566.0988797           2          
MisPlume(west)    GOM_UW_1704    2017-04-11T01:51:13Z    -91.2111   28.8557   22.8299      31.717    308.2085796           2          
MisPlume(west)    GOM_UW_1704    2017-04-11T01:52:42Z    -91.2153   28.8559   22.8428      31.666    325.2199185           2          
MisPlume(west)    GOM_UW_1704    2017-04-11T01:54:10Z    -91.2195   28.8561   22.7856      31.621    289.0360063           2          
MisPlume(west)    GOM_UW_1704    2017-04-11T01:55:39Z    -91.2237   28.8564   22.8767      31.665    293.984323            2          
MisPlume(west)    GOM_UW_1704    2017-04-11T01:57:08Z    -91.228    28.8566   22.8649      31.686    297.3539157           2          
MisPlume(west)    GOM_UW_1704    2017-04-11T01:58:36Z    -91.2322   28.8569   22.8333      31.68     293.6436479           2          
MisPlume(west)    GOM_UW_1704    2017-04-11T02:00:05Z    -91.2365   28.8571   22.754       31.648    301.0545257           2          
MisPlume(west)    GOM_UW_1704    2017-04-11T02:01:34Z    -91.2408   28.8574   22.8662      31.695    300.0978022           2          
MisPlume(west)    GOM_UW_1704    2017-04-11T02:03:03Z    -91.245    28.8577   22.7773      31.645    301.0943286           2          
MisPlume(west)    GOM_UW_1704    2017-04-11T02:04:33Z    -91.249    28.8579   22.7635      31.645    302.7599461           2          
MisPlume(west)    GOM_UW_1704    2017-04-11T02:06:02Z    -91.2503   28.8584   22.7795      31.666    293.7482155           2          
MisPlume(west)    GOM_UW_1704    2017-04-11T02:07:31Z    -91.2508   28.8589   22.7873      31.665    285.6598647           2          
MisPlume(west)    GOM_UW_1704    2017-04-11T02:08:59Z    -91.2515   28.8593   22.7879      31.663    289.9298751           2          
MisPlume(west)    GOM_UW_1704    2017-04-11T02:10:27Z    -91.252    28.8596   22.7914      31.663    293.9655539           2          
MisPlume(west)    GOM_UW_1704    2017-04-11T02:11:56Z    -91.2527   28.8598   22.7894      31.664    292.056202            2          
MisPlume(west)    GOM_UW_1704    2017-04-11T02:13:26Z    -91.2533   28.86     22.7897      31.663    295.9485657           2          
MisPlume(west)    GOM_UW_1704    2017-04-11T02:14:55Z    -91.2539   28.8602   22.7894      31.664    290.2272012           2          
MisPlume(west)    GOM_UW_1704    2017-04-11T02:16:23Z    -91.2546   28.8604   22.7924      31.658    282.4656988           2          
MisPlume(west)    GOM_UW_1704    2017-04-11T02:17:52Z    -91.2549   28.8609   22.7907      31.661    283.299401            2          
MisPlume(west)    GOM_UW_1704    2017-04-11T02:19:22Z    -91.2548   28.8608   22.7925      31.652    284.2229102           2          
MisPlume(west)    GOM_UW_1704    2017-04-11T02:20:52Z    -91.2549   28.8594   22.7889      31.663    288.6574454           2          
MisPlume(west)    GOM_UW_1704    2017-04-11T02:22:20Z    -91.2549   28.8578   22.763       31.662    282.3633369           2          
MisPlume(west)    GOM_UW_1704    2017-04-11T02:23:52Z    -91.255    28.8561   22.806       31.707    287.1149934           2          
MisPlume(west)    GOM_UW_1704    2017-04-11T02:25:20Z    -91.2549   28.8545   22.8359      31.734    290.8156942           2          
MisPlume(west)    GOM_UW_1704    2017-04-11T02:26:50Z    -91.255    28.8528   22.9099      31.75     285.7214322           2          
MisPlume(west)    GOM_UW_1704    2017-04-11T02:28:18Z    -91.2549   28.8512   23.0032      31.785    288.1165              2          
MisPlume(west)    GOM_UW_1704    2017-04-11T02:29:47Z    -91.2548   28.8493   23.0661      31.766    285.7184964           2          
MisPlume(west)    GOM_UW_1704    2017-04-11T02:31:16Z    -91.2547   28.8463   23.0981      31.747    297.980214            2          
MisPlume(west)    GOM_UW_1704    2017-04-11T02:32:47Z    -91.2545   28.8431   23.04        31.745    302.8322396           2          
MisPlume(west)    GOM_UW_1704    2017-04-11T02:34:14Z    -91.2542   28.8401   23.0427      31.724    298.4893998           2          
MisPlume(west)    GOM_UW_1704    2017-04-11T02:35:44Z    -91.2539   28.837    23.0514      31.687    299.5856954           2          
MisPlume(west)    GOM_UW_1704    2017-04-11T02:37:11Z    -91.2537   28.834    23.0437      31.698    293.4894578           2          
MisPlume(west)    GOM_UW_1704    2017-04-11T02:38:41Z    -91.2535   28.8308   22.9942      31.673    302.1027486           2          
MisPlume(west)    GOM_UW_1704    2017-04-11T02:40:09Z    -91.2534   28.8278   22.965       31.679    299.2641054           2          
MisPlume(west)    GOM_UW_1704    2017-04-11T02:41:40Z    -91.2533   28.8246   22.9045      31.697    299.8285881           2          
MisPlume(west)    GOM_UW_1704    2017-04-11T02:43:09Z    -91.2532   28.8216   22.8818      31.711    300.9429517           2          
MisPlume(west)    GOM_UW_1704    2017-04-11T02:44:38Z    -91.2531   28.8184   22.8767      31.733    297.5853865           2          
MisPlume(west)    GOM_UW_1704    2017-04-11T02:46:07Z    -91.253    28.8154   22.8266      31.762    300.2001057           2          
MisPlume(west)    GOM_UW_1704    2017-04-11T02:47:34Z    -91.2529   28.8123   22.7329      31.798    297.0599533           2          
MisPlume(west)    GOM_UW_1704    2017-04-11T02:49:05Z    -91.253    28.809    22.7273      31.797    295.8248591           2          
MisPlume(west)    GOM_UW_1704    2017-04-11T02:50:33Z    -91.2528   28.8059   22.7246      31.825    296.0294752           2          
MisPlume(west)    GOM_UW_1704    2017-04-11T02:52:02Z    -91.2528   28.8028   22.7368      31.849    289.8204216           2          
MisPlume(west)    GOM_UW_1704    2017-04-11T02:53:31Z    -91.2529   28.7998   22.8133      31.929    294.7911401           2          
MisPlume(west)    GOM_UW_1704    2017-04-11T02:55:02Z    -91.253    28.7966   22.8011      31.992    303.621188            2          
MisPlume(west)    GOM_UW_1704    2017-04-11T02:56:33Z    -91.2532   28.7934   22.8065      32.045    308.2083551           2          
MisPlume(west)    GOM_UW_1704    2017-04-11T02:58:04Z    -91.2533   28.7903   22.859       32.076    316.2765858           2          
MisPlume(west)    GOM_UW_1704    2017-04-11T02:59:35Z    -91.2533   28.7871   22.8942      32.059    317.0429608           2          
MisPlume(west)    GOM_UW_1704    2017-04-11T03:01:05Z    -91.2532   28.7839   22.8877      32.062    311.4220028           2          
MisPlume(west)    GOM_UW_1704    2017-04-11T03:02:36Z    -91.2531   28.7807   22.8557      32.063    318.6521498           2          
MisPlume(west)    GOM_UW_1704    2017-04-11T03:04:08Z    -91.2531   28.7774   22.88        32.106    313.1413121           2          
MisPlume(west)    GOM_UW_1704    2017-04-11T03:05:38Z    -91.2531   28.7742   22.868       32.123    318.2857655           2          
MisPlume(west)    GOM_UW_1704    2017-04-11T03:07:06Z    -91.2531   28.7711   22.8791      32.155    323.2390905           2          
MisPlume(west)    GOM_UW_1704    2017-04-11T03:08:37Z    -91.2534   28.768    22.8919      32.176    321.5765469           2          
MisPlume(west)    GOM_UW_1704    2017-04-11T03:10:06Z    -91.2538   28.7648   22.877       32.25     317.309651            2          
MisPlume(west)    GOM_UW_1704    2017-04-11T03:11:38Z    -91.2542   28.7615   22.9617      32.437    321.3844982           2          
MisPlume(west)    GOM_UW_1704    2017-04-11T03:13:06Z    -91.2547   28.7583   22.9768      32.686    325.4904627           2          
MisPlume(west)    GOM_UW_1704    2017-04-11T03:14:34Z    -91.2551   28.7552   23.0054      32.817    330.1607729           2          
MisPlume(west)    GOM_UW_1704    2017-04-11T03:16:02Z    -91.2555   28.752    23.0175      32.924    332.2596015           2          
MisPlume(west)    GOM_UW_1704    2017-04-11T03:17:31Z    -91.2559   28.7489   22.9883      33.03     335.0642162           2          
MisPlume(west)    GOM_UW_1704    2017-04-11T03:19:02Z    -91.2564   28.7455   22.9526      33.347    338.5665941           2          
MisPlume(west)    GOM_UW_1704    2017-04-11T03:20:33Z    -91.2568   28.7425   22.868       33.544    351.4245401           2          
MisPlume(west)    GOM_UW_1704    2017-04-11T03:22:04Z    -91.2572   28.7392   22.7396      33.602    347.0809235           2          
MisPlume(west)    GOM_UW_1704    2017-04-11T03:23:31Z    -91.2577   28.7362   22.765       33.679    355.3418845           2          
MisPlume(west)    GOM_UW_1704    2017-04-11T03:24:59Z    -91.2581   28.733    22.8067      33.771    346.0545289           2          
MisPlume(west)    GOM_UW_1704    2017-04-11T03:26:27Z    -91.2583   28.7299   22.8412      33.822    332.3982988           2          
MisPlume(west)    GOM_UW_1704    2017-04-11T03:27:55Z    -91.258    28.7268   22.7919      33.834    329.9267761           2          
MisPlume(west)    GOM_UW_1704    2017-04-11T03:29:25Z    -91.2577   28.7238   22.7426      33.839    331.5694513           2          
MisPlume(west)    GOM_UW_1704    2017-04-11T03:30:53Z    -91.2573   28.7207   22.698       33.817    330.2088536           2          
MisPlume(west)    GOM_UW_1704    2017-04-11T03:32:22Z    -91.257    28.7176   22.685       33.778    334.5205875           2          
MisPlume(west)    GOM_UW_1704    2017-04-11T03:33:53Z    -91.2567   28.7143   22.6693      33.744    334.2366159           2          
MisPlume(west)    GOM_UW_1704    2017-04-11T03:35:21Z    -91.2565   28.7111   22.6646      33.714    329.2398441           2          
MisPlume(west)    GOM_UW_1704    2017-04-11T03:36:51Z    -91.2563   28.7078   22.6517      33.688    328.9176816           2          
MisPlume(west)    GOM_UW_1704    2017-04-11T03:38:20Z    -91.256    28.7046   22.633       33.678    332.8673546           2          
MisPlume(west)    GOM_UW_1704    2017-04-11T03:39:48Z    -91.2557   28.7014   22.6027      33.662    323.5343573           2          
MisPlume(west)    GOM_UW_1704    2017-04-11T03:41:18Z    -91.2554   28.6982   22.5797      33.65     328.8609123           2          
MisPlume(west)    GOM_UW_1704    2017-04-11T03:42:47Z    -91.255    28.695    22.5709      33.624    320.2345867           2          
MisPlume(west)    GOM_UW_1704    2017-04-11T03:44:15Z    -91.2546   28.6918   22.5703      33.611    320.5480035           2          
MisPlume(west)    GOM_UW_1704    2017-04-11T03:45:43Z    -91.2541   28.6888   22.5599      33.594    327.1492135           2          
MisPlume(west)    GOM_UW_1704    2017-04-11T03:47:12Z    -91.2536   28.6857   22.5523      33.561    318.956307            2          
MisPlume(west)    GOM_UW_1704    2017-04-11T03:48:40Z    -91.2533   28.6826   22.5397      33.545    325.567423            2          
MisPlume(west)    GOM_UW_1704    2017-04-11T03:50:10Z    -91.2528   28.6796   22.5298      33.532    331.6567856           2          
MisPlume(west)    GOM_UW_1704    2017-04-11T03:51:38Z    -91.2524   28.6765   22.5374      33.516    322.2291099           2          
MisPlume(west)    GOM_UW_1704    2017-04-11T03:53:07Z    -91.252    28.6734   22.565       33.517    323.2517093           2          
MisPlume(west)    GOM_UW_1704    2017-04-11T03:54:35Z    -91.2516   28.6705   22.5924      33.531    328.8486581           2          
MisPlume(west)    GOM_UW_1704    2017-04-11T03:56:04Z    -91.2511   28.6674   22.6566      33.566    323.8935867           2          
MisPlume(west)    GOM_UW_1704    2017-04-11T03:57:32Z    -91.2507   28.6642   22.7023      33.588    324.1538422           2          
MisPlume(west)    GOM_UW_1704    2017-04-11T03:59:00Z    -91.2503   28.661    22.7347      33.596    322.783033            2          
MisPlume(west)    GOM_UW_1704    2017-04-11T04:00:29Z    -91.2502   28.6588   22.7514      33.641    324.5650279           2          
MisPlume(west)    GOM_UW_1704    2017-04-11T04:01:59Z    -91.2504   28.6589   22.7521      33.663    319.1849818           2          
MisPlume(west)    GOM_UW_1704    2017-04-11T04:03:29Z    -91.2511   28.6593   22.7494      33.654    314.7929892           2          
MisPlume(west)    GOM_UW_1704    2017-04-11T04:04:57Z    -91.2519   28.6595   22.7613      33.653    311.978246            2          
MisPlume(west)    GOM_UW_1704    2017-04-11T04:06:26Z    -91.2526   28.6597   22.7585      33.654    313.045238            2          
MisPlume(west)    GOM_UW_1704    2017-04-11T04:07:55Z    -91.2533   28.6598   22.7597      33.663    314.2738401           2          
MisPlume(west)    GOM_UW_1704    2017-04-11T04:09:22Z    -91.2541   28.66     22.7766      33.674    313.7369673           2          
MisPlume(west)    GOM_UW_1704    2017-04-11T04:10:51Z    -91.2548   28.6601   22.7727      33.667    314.1707233           2          
MisPlume(west)    GOM_UW_1704    2017-04-11T04:12:21Z    -91.2556   28.6603   22.7769      33.686    315.1559188           2          
MisPlume(west)    GOM_UW_1704    2017-04-11T04:13:49Z    -91.2564   28.6604   22.7867      33.701    315.71402             2          
MisPlume(west)    GOM_UW_1704    2017-04-11T04:15:17Z    -91.2571   28.6606   22.7916      33.71     312.10952             2          
MisPlume(west)    GOM_UW_1704    2017-04-11T04:16:45Z    -91.2578   28.6607   22.8019      33.735    312.5474412           2          
MisPlume(west)    GOM_UW_1704    2017-04-11T04:18:13Z    -91.2585   28.6609   22.808       33.737    313.9525239           2          
MisPlume(west)    GOM_UW_1704    2017-04-11T04:19:41Z    -91.2592   28.6611   22.7983      33.731    313.6316762           2          
MisPlume(west)    GOM_UW_1704    2017-04-11T04:21:09Z    -91.2599   28.6613   22.7917      33.723    313.8613735           2          
MisPlume(west)    GOM_UW_1704    2017-04-11T04:22:38Z    -91.2606   28.6614   22.7856      33.729    314.9548709           2          
MisPlume(west)    GOM_UW_1704    2017-04-11T04:24:09Z    -91.2613   28.6616   22.7815      33.724    313.2765487           2          
MisPlume(west)    GOM_UW_1704    2017-04-11T04:25:38Z    -91.2621   28.6617   22.7712      33.721    313.196784            2          
MisPlume(west)    GOM_UW_1704    2017-04-11T04:27:08Z    -91.2628   28.6619   22.7698      33.72     313.8842634           2          
MisPlume(west)    GOM_UW_1704    2017-04-11T04:28:37Z    -91.2635   28.662    22.7523      33.712    312.6483287           2          
MisPlume(west)    GOM_UW_1704    2017-04-11T04:30:05Z    -91.2642   28.6622   22.7264      33.705    312.7467085           2          
MisPlume(west)    GOM_UW_1704    2017-04-11T04:31:34Z    -91.2649   28.6624   22.7309      33.707    313.7044903           2          
MisPlume(west)    GOM_UW_1704    2017-04-11T04:33:05Z    -91.2656   28.6626   22.7224      33.707    314.3157717           2          
MisPlume(west)    GOM_UW_1704    2017-04-11T04:34:32Z    -91.2663   28.6627   22.7169      33.704    313.5179843           2          
MisPlume(west)    GOM_UW_1704    2017-04-11T04:36:00Z    -91.2674   28.663    22.7151      33.704    313.380904            2          
MisPlume(west)    GOM_UW_1704    2017-04-11T04:37:29Z    -91.2673   28.6604   22.7225      33.723    320.1039353           2          
MisPlume(west)    GOM_UW_1704    2017-04-11T04:38:57Z    -91.2663   28.6574   22.8359      33.845    323.8429313           2          
MisPlume(west)    GOM_UW_1704    2017-04-11T04:40:27Z    -91.2652   28.6543   22.8029      33.943    328.4933546           2          
MisPlume(west)    GOM_UW_1704    2017-04-11T04:41:54Z    -91.2642   28.6513   22.7722      34        331.9463707           2          
MisPlume(west)    GOM_UW_1704    2017-04-11T04:43:23Z    -91.2633   28.6482   22.7345      34.024    333.4725628           2          
MisPlume(west)    GOM_UW_1704    2017-04-11T04:44:51Z    -91.2623   28.6452   22.7271      34.046    330.0007168           2          
MisPlume(west)    GOM_UW_1704    2017-04-11T04:46:20Z    -91.2615   28.6422   22.7604      34.053    333.3634665           2          
MisPlume(west)    GOM_UW_1704    2017-04-11T04:47:48Z    -91.2605   28.6392   22.7833      34.069    344.7328037           2          
MisPlume(west)    GOM_UW_1704    2017-04-11T05:00:24Z    -91.2538   28.6126   22.6766      34.246    352.6090358           2          
MisPlume(west)    GOM_UW_1704    2017-04-11T05:01:53Z    -91.2529   28.6094   22.6801      34.319    348.5360507           2          
MisPlume(west)    GOM_UW_1704    2017-04-11T05:03:22Z    -91.252    28.6062   22.6834      34.396    347.1297605           2          
MisPlume(west)    GOM_UW_1704    2017-04-11T05:04:53Z    -91.251    28.6029   22.6837      34.428    348.3129601           2          
MisPlume(west)    GOM_UW_1704    2017-04-11T05:06:21Z    -91.2502   28.5997   22.7474      34.471    341.7511491           2          
MisPlume(west)    GOM_UW_1704    2017-04-11T05:07:50Z    -91.2493   28.5965   22.7189      34.453    339.480388            2          
MisPlume(west)    GOM_UW_1704    2017-04-11T05:09:21Z    -91.2488   28.5932   22.71        34.513    349.1776445           2          
MisPlume(west)    GOM_UW_1704    2017-04-11T05:10:50Z    -91.2489   28.5898   22.7628      34.625    343.4718873           2          
MisPlume(west)    GOM_UW_1704    2017-04-11T05:12:19Z    -91.2489   28.5864   22.7967      34.906    343.2346643           2          
MisPlume(west)    GOM_UW_1704    2017-04-11T05:13:47Z    -91.249    28.5837   22.7404      35.083    358.3310286           2          
MisPlume(west)    GOM_UW_1704    2017-04-11T05:15:15Z    -91.2491   28.5835   22.7238      35.081    353.8431982           2          
MisPlume(west)    GOM_UW_1704    2017-04-11T05:16:45Z    -91.2497   28.5836   22.7238      35.085    352.6201626           2          
MisPlume(west)    GOM_UW_1704    2017-04-11T05:18:17Z    -91.2503   28.5837   22.7112      35.088    350.0322385           2          
MisPlume(west)    GOM_UW_1704    2017-04-11T05:19:45Z    -91.2508   28.5838   22.7011      35.079    350.063278            2          
MisPlume(west)    GOM_UW_1704    2017-04-11T05:21:13Z    -91.2514   28.584    22.6757      35.065    349.8801337           2          
MisPlume(west)    GOM_UW_1704    2017-04-11T05:22:41Z    -91.2519   28.584    22.6232      35.016    348.0356629           2          
MisPlume(west)    GOM_UW_1704    2017-04-11T05:24:13Z    -91.2524   28.5842   22.5784      34.97     347.1685033           2          
MisPlume(west)    GOM_UW_1704    2017-04-11T05:25:42Z    -91.2528   28.5851   22.5885      34.939    348.1146229           2          
MisPlume(west)    GOM_UW_1704    2017-04-11T05:27:11Z    -91.2524   28.5862   22.6128      35.027    346.7307952           2          
MisPlume(west)    GOM_UW_1704    2017-04-11T05:28:39Z    -91.2525   28.5867   22.7336      35.116    347.5106316           2          
MisPlume(west)    GOM_UW_1704    2017-04-11T06:08:15Z    -91.2589   28.5347   22.6351      35.423    381.2071883           2          
MisPlume(west)    GOM_UW_1704    2017-04-11T06:09:44Z    -91.2588   28.5313   22.6332      35.478    385.4797476           2          
MisPlume(west)    GOM_UW_1704    2017-04-11T06:11:12Z    -91.2586   28.528    22.6291      35.532    382.9668334           2          
MisPlume(west)    GOM_UW_1704    2017-04-11T06:12:41Z    -91.2584   28.5247   22.6309      35.581    398.3171392           2          
MisPlume(west)    GOM_UW_1704    2017-04-11T06:14:09Z    -91.2582   28.5213   22.6159      35.633    393.604226            2          
MisPlume(west)    GOM_UW_1704    2017-04-11T06:15:37Z    -91.258    28.5181   22.6011      35.682    399.8408741           2          
MisPlume(west)    GOM_UW_1704    2017-04-11T06:17:06Z    -91.2578   28.5147   22.5859      35.722    390.352054            2          
MisPlume(west)    GOM_UW_1704    2017-04-11T06:18:37Z    -91.2574   28.5113   22.5686      35.741    391.6310915           2          
MisPlume(west)    GOM_UW_1704    2017-04-11T06:20:05Z    -91.2572   28.508    22.5578      35.756    398.0149494           2          
MisPlume(west)    GOM_UW_1704    2017-04-11T06:21:35Z    -91.257    28.5046   22.5499      35.773    401.3665406           2          
MisPlume(west)    GOM_UW_1704    2017-04-11T06:23:03Z    -91.2567   28.5013   22.5518      35.791    388.8430131           2          
MisPlume(west)    GOM_UW_1704    2017-04-11T06:24:33Z    -91.2564   28.4979   22.5746      35.803    399.9360455           2          
MisPlume(west)    GOM_UW_1704    2017-04-11T06:26:01Z    -91.2561   28.4945   22.5811      35.828    389.9845438           2          
MisPlume(west)    GOM_UW_1704    2017-04-11T06:27:29Z    -91.2559   28.4912   22.5756      35.821    394.4739129           2          
MisPlume(west)    GOM_UW_1704    2017-04-11T06:28:57Z    -91.2556   28.4879   22.5785      35.848    394.9277568           2          
MisPlume(west)    GOM_UW_1704    2017-04-11T06:30:26Z    -91.2553   28.4845   22.5703      35.858    398.7644562           2          
MisPlume(west)    GOM_UW_1704    2017-04-11T06:44:18Z    -91.2536   28.4529   22.7729      36.131    391.6148493           2          
MisPlume(west)    GOM_UW_1704    2017-04-11T06:45:48Z    -91.2536   28.4495   22.9927      36.243    387.304691            2          
MisPlume(west)    GOM_UW_1704    2017-04-11T06:47:17Z    -91.2535   28.4461   22.955       36.286    389.9778706           2          
MisPlume(west)    GOM_UW_1704    2017-04-11T06:48:45Z    -91.2535   28.4428   22.944       36.292    399.6275641           2          
MisPlume(west)    GOM_UW_1704    2017-04-11T06:50:14Z    -91.2534   28.4395   22.9457      36.292    397.0340164           2          
MisPlume(west)    GOM_UW_1704    2017-04-11T06:51:42Z    -91.2533   28.4362   22.9433      36.297    388.8762614           2          
MisPlume(west)    GOM_UW_1704    2017-04-11T06:53:11Z    -91.2532   28.4328   22.9247      36.294    390.3751876           2          
MisPlume(west)    GOM_UW_1704    2017-04-11T06:54:40Z    -91.2532   28.4294   22.9325      36.286    397.0491415           2          
MisPlume(west)    GOM_UW_1704    2017-04-11T06:56:09Z    -91.2531   28.426    22.933       36.282    387.6121019           2          
MisPlume(west)    GOM_UW_1704    2017-04-11T06:57:38Z    -91.253    28.4226   22.9336      36.301    383.6190648           2          
MisPlume(west)    GOM_UW_1704    2017-04-11T06:59:06Z    -91.253    28.4193   22.9619      36.284    393.9031047           2          
MisPlume(west)    GOM_UW_1704    2017-04-11T07:00:35Z    -91.2528   28.416    22.9687      36.295    391.2491748           2          
MisPlume(west)    GOM_UW_1704    2017-04-11T07:02:02Z    -91.2525   28.4127   22.9692      36.268    388.9164309           2          
MisPlume(west)    GOM_UW_1704    2017-04-11T07:03:32Z    -91.2521   28.4093   22.9706      36.29     388.2479488           2          
MisPlume(west)    GOM_UW_1704    2017-04-11T07:04:59Z    -91.2518   28.406    22.9762      36.292    391.7057799           2          
MisPlume(west)    GOM_UW_1704    2017-04-11T07:06:27Z    -91.2514   28.4027   22.9846      36.29     387.3937698           2          
MisPlume(west)    GOM_UW_1704    2017-04-11T07:07:55Z    -91.2512   28.3993   22.99        36.292    388.3431815           2          
MisPlume(west)    GOM_UW_1704    2017-04-11T07:09:23Z    -91.2509   28.3961   22.9973      36.281    400.1152813           2          
MisPlume(west)    GOM_UW_1704    2017-04-11T07:10:51Z    -91.2505   28.3928   23.0075      36.264    390.8106769           2          
MisPlume(west)    GOM_UW_1704    2017-04-11T07:12:19Z    -91.2502   28.3895   23.0208      36.291    395.7604245           2          
MisPlume(west)    GOM_UW_1704    2017-04-11T07:13:51Z    -91.2499   28.3861   23.026       36.29     394.5790186           2          
MisPlume(west)    GOM_UW_1704    2017-04-11T07:15:19Z    -91.2495   28.3827   23.0288      36.283    388.8839154           2          
MisPlume(west)    GOM_UW_1704    2017-04-11T07:16:50Z    -91.2492   28.3793   23.0323      36.286    393.8850447           2          
MisPlume(west)    GOM_UW_1704    2017-04-11T07:18:21Z    -91.2488   28.376    23.0429      36.287    392.316523            2          
MisPlume(west)    GOM_UW_1704    2017-04-11T07:19:49Z    -91.2489   28.375    23.0406      36.28     396.4260035           2          
MisPlume(west)    GOM_UW_1704    2017-04-11T07:21:17Z    -91.2494   28.3753   23.0414      36.284    392.415472            2          
MisPlume(west)    GOM_UW_1704    2017-04-11T07:22:48Z    -91.2498   28.3754   23.0494      36.285    379.282104            2          
MisPlume(west)    GOM_UW_1704    2017-04-11T07:24:17Z    -91.2503   28.3756   23.0487      36.288    380.4197493           2          
MisPlume(west)    GOM_UW_1704    2017-04-11T07:25:45Z    -91.2507   28.3757   23.051       36.288    378.3495115           2          
MisPlume(west)    GOM_UW_1704    2017-04-11T07:27:16Z    -91.2512   28.3759   23.051       36.287    378.8424013           2          
MisPlume(west)    GOM_UW_1704    2017-04-11T07:28:45Z    -91.2517   28.376    23.053       36.29     384.2446182           2          
MisPlume(west)    GOM_UW_1704    2017-04-11T07:30:13Z    -91.2521   28.3761   23.0512      36.29     379.3657287           2          
MisPlume(west)    GOM_UW_1704    2017-04-11T07:31:41Z    -91.2526   28.3762   23.0489      36.29     379.4081651           2          
MisPlume(west)    GOM_UW_1704    2017-04-11T07:33:11Z    -91.253    28.3764   23.0496      36.291    379.2723653           2          
MisPlume(west)    GOM_UW_1704    2017-04-11T07:34:41Z    -91.2535   28.3765   23.0569      36.29     379.2979593           2          
MisPlume(west)    GOM_UW_1704    2017-04-11T07:36:08Z    -91.254    28.3766   23.0587      36.29     378.4228786           2          
MisPlume(west)    GOM_UW_1704    2017-04-11T07:37:39Z    -91.2545   28.3767   23.0606      36.29     379.7659394           2          
MisPlume(west)    GOM_UW_1704    2017-04-11T07:39:07Z    -91.2549   28.3768   23.062       36.29     378.2057903           2          
MisPlume(west)    GOM_UW_1704    2017-04-11T07:40:38Z    -91.2554   28.3769   23.0664      36.289    377.6214156           2          
MisPlume(west)    GOM_UW_1704    2017-04-11T07:42:06Z    -91.2559   28.3771   23.0599      36.289    376.5695649           2          
MisPlume(west)    GOM_UW_1704    2017-04-11T07:43:36Z    -91.2563   28.3772   23.0564      36.289    380.107007            2          
MisPlume(west)    GOM_UW_1704    2017-04-11T07:45:05Z    -91.2568   28.3773   23.058       36.289    377.2776871           2          
MisPlume(west)    GOM_UW_1704    2017-04-11T07:46:34Z    -91.2573   28.3775   23.058       36.288    377.2336795           2          
MisPlume(west)    GOM_UW_1704    2017-04-11T07:48:05Z    -91.2577   28.3776   23.0538      36.288    377.6842741           2          
MisPlume(west)    GOM_UW_1704    2017-04-11T07:49:33Z    -91.2582   28.3778   23.0534      36.288    377.6125532           2          
MisPlume(west)    GOM_UW_1704    2017-04-11T07:51:02Z    -91.2587   28.3779   23.0571      36.288    378.1732153           2          
MisPlume(west)    GOM_UW_1704    2017-04-11T07:52:30Z    -91.2591   28.378    23.0595      36.287    377.310915            2          
MisPlume(west)    GOM_UW_1704    2017-04-11T07:53:58Z    -91.2596   28.3782   23.0583      36.287    376.1677167           2          
MisPlume(west)    GOM_UW_1704    2017-04-11T07:55:26Z    -91.26     28.3783   23.0587      36.288    376.4600305           2          
MisPlume(west)    GOM_UW_1704    2017-04-11T07:56:54Z    -91.2604   28.3784   23.058       36.289    377.1994826           2          
MisPlume(west)    GOM_UW_1704    2017-04-11T07:58:22Z    -91.2609   28.3786   23.0552      36.29     377.1665168           2          
MisPlume(west)    GOM_UW_1704    2017-04-11T07:59:52Z    -91.2614   28.3787   23.0626      36.289    377.9066581           2          
MisPlume(west)    GOM_UW_1704    2017-04-11T08:01:21Z    -91.2618   28.3789   23.0549      36.289    376.7220784           2          
MisPlume(west)    GOM_UW_1704    2017-04-11T08:02:50Z    -91.2623   28.379    23.0561      36.289    378.3990818           2          
MisPlume(west)    GOM_UW_1704    2017-04-11T08:04:18Z    -91.2628   28.3791   23.0545      36.289    376.4867295           2          
MisPlume(west)    GOM_UW_1704    2017-04-11T08:05:46Z    -91.2632   28.3792   23.0566      36.288    376.5813629           2          
MisPlume(west)    GOM_UW_1704    2017-04-11T08:07:16Z    -91.2637   28.3794   23.0548      36.288    377.6624808           2          
MisPlume(west)    GOM_UW_1704    2017-04-11T08:08:47Z    -91.2642   28.3795   23.0523      36.288    378.6200486           2          
MisPlume(west)    GOM_UW_1704    2017-04-11T08:10:15Z    -91.2646   28.3796   23.053       36.287    377.6309286           2          
MisPlume(west)    GOM_UW_1704    2017-04-11T08:11:45Z    -91.2651   28.3797   23.0551      36.275    377.0278683           2          
MisPlume(west)    GOM_UW_1704    2017-04-11T08:13:13Z    -91.2656   28.3799   23.0536      36.287    375.956393            2          
MisPlume(west)    GOM_UW_1704    2017-04-11T08:14:41Z    -91.2661   28.38     23.0583      36.287    375.9876716           2          
MisPlume(west)    GOM_UW_1704    2017-04-11T08:16:12Z    -91.2665   28.38     23.0539      36.288    376.584928            2          
MisPlume(west)    GOM_UW_1704    2017-04-11T08:17:40Z    -91.267    28.3802   23.054       36.287    375.8749754           2          
MisPlume(west)    GOM_UW_1704    2017-04-11T08:19:09Z    -91.2675   28.3803   23.0558      36.287    376.3383964           2          
MisPlume(west)    GOM_UW_1704    2017-04-11T08:20:36Z    -91.268    28.3804   23.0531      36.287    377.075936            2          
MisPlume(west)    GOM_UW_1704    2017-04-11T08:22:05Z    -91.2685   28.3805   23.0541      36.286    376.3458111           2          
MisPlume(west)    GOM_UW_1704    2017-04-11T08:23:33Z    -91.2689   28.3806   23.0562      36.285    375.9861515           2          
MisPlume(west)    GOM_UW_1704    2017-04-11T08:25:02Z    -91.2694   28.3808   23.0569      36.285    377.4448427           2          
MisPlume(west)    GOM_UW_1704    2017-04-11T08:26:31Z    -91.2699   28.3809   23.0522      36.287    376.3873135           2          
MisPlume(west)    GOM_UW_1704    2017-04-11T08:27:59Z    -91.2703   28.381    23.048       36.286    377.5600278           2          
MisPlume(west)    GOM_UW_1704    2017-04-11T08:29:31Z    -91.2708   28.3812   23.0509      36.286    376.4201579           2          
MisPlume(west)    GOM_UW_1704    2017-04-11T08:31:01Z    -91.2713   28.3813   23.0454      36.286    378.128375            2          
MisPlume(west)    GOM_UW_1704    2017-04-11T08:32:31Z    -91.2718   28.3814   23.0473      36.285    378.9711054           2          
MisPlume(west)    GOM_UW_1704    2017-04-11T08:34:03Z    -91.2723   28.3817   23.0441      36.287    380.6599073           2          
MisPlume(west)    GOM_UW_1704    2017-04-11T08:35:33Z    -91.2728   28.3818   23.0505      36.287    377.0751658           2          
MisPlume(west)    GOM_UW_1704    2017-04-11T08:37:05Z    -91.2733   28.3819   23.0475      36.286    376.8027163           2          
MisPlume(west)    GOM_UW_1704    2017-04-11T08:38:35Z    -91.2737   28.382    23.0486      36.287    376.9883821           2          
MisPlume(west)    GOM_UW_1704    2017-04-11T08:40:07Z    -91.2742   28.3822   23.047       36.286    378.9203644           2          
MisPlume(west)    GOM_UW_1704    2017-04-11T08:41:38Z    -91.2747   28.3823   23.0489      36.285    377.6191636           2          
MisPlume(west)    GOM_UW_1704    2017-04-11T08:43:08Z    -91.2752   28.3825   23.0454      36.285    376.6477104           2          
MisPlume(west)    GOM_UW_1704    2017-04-11T08:44:40Z    -91.2756   28.3826   23.0466      36.285    376.6595375           2          
MisPlume(west)    GOM_UW_1704    2017-04-11T08:46:11Z    -91.275    28.3831   23.0422      36.284    378.3785379           2          
MisPlume(west)    GOM_UW_1704    2017-04-11T08:47:41Z    -91.2726   28.3823   23.044       36.244    385.5645098           2          
MisPlume(west)    GOM_UW_1704    2017-04-11T08:49:12Z    -91.2704   28.3815   23.0408      36.267    384.8453583           2          
MisPlume(west)    GOM_UW_1704    2017-04-11T08:50:43Z    -91.2682   28.3807   23.0401      36.269    380.8625967           2          
MisPlume(west)    GOM_UW_1704    2017-04-11T08:52:14Z    -91.2659   28.3799   23.0404      36.243    383.8709135           2          
MisPlume(west)    GOM_UW_1704    2017-04-11T08:53:45Z    -91.2634   28.3791   23.0352      36.286    377.4233558           2          
MisPlume(west)    GOM_UW_1704    2017-04-11T08:55:15Z    -91.2614   28.3785   23.0374      36.251    387.4032823           2          
MisPlume(west)    GOM_UW_1704    2017-04-11T08:56:48Z    -91.2593   28.3776   23.0315      36.241    381.395939            2          
MisPlume(west)    GOM_UW_1704    2017-04-11T08:58:18Z    -91.2571   28.377    23.0331      36.256    384.4677984           2          
MisPlume(west)    GOM_UW_1704    2017-04-11T08:59:50Z    -91.2548   28.3762   23.0284      36.225    384.7160196           2          
MisPlume(west)    GOM_UW_1704    2017-04-11T09:01:20Z    -91.2527   28.3755   23.0249      36.253    389.513625            2          
MisPlume(west)    GOM_UW_1704    2017-04-11T09:02:51Z    -91.2516   28.3751   23.0313      36.255    395.3711191           2          
MisPlume(west)    GOM_UW_1704    2017-04-11T09:04:22Z    -91.2517   28.3756   23.031       36.289    384.6981015           2          
MisPlume(west)    GOM_UW_1704    2017-04-11T09:05:52Z    -91.252    28.3759   23.0327      36.291    381.6540359           2          
MisPlume(west)    GOM_UW_1704    2017-04-11T09:07:24Z    -91.2524   28.376    23.0326      36.29     385.274486            2          
MisPlume(west)    GOM_UW_1704    2017-04-11T09:08:55Z    -91.2529   28.3761   23.0322      36.29     381.2177332           2          
MisPlume(west)    GOM_UW_1704    2017-04-11T09:10:26Z    -91.2532   28.3759   23.0452      36.291    377.4604237           2          
MisPlume(west)    GOM_UW_1704    2017-04-11T09:11:56Z    -91.2536   28.376    23.036       36.291    379.4614528           2          
MisPlume(west)    GOM_UW_1704    2017-04-11T09:13:27Z    -91.2541   28.3762   23.0368      36.29     381.1180311           2          
MisPlume(west)    GOM_UW_1704    2017-04-11T09:14:58Z    -91.2547   28.3764   23.0391      36.288    379.4558826           2          
MisPlume(west)    GOM_UW_1704    2017-04-11T09:16:29Z    -91.2551   28.3764   23.0399      36.288    379.0899791           2          
MisPlume(west)    GOM_UW_1704    2017-04-11T09:18:00Z    -91.2556   28.3766   23.0406      36.288    380.6115827           2          
MisPlume(west)    GOM_UW_1704    2017-04-11T09:19:31Z    -91.2562   28.3767   23.0458      36.287    376.3699              2          
MisPlume(west)    GOM_UW_1704    2017-04-11T09:21:02Z    -91.2567   28.3769   23.0472      36.287    376.0490292           2          
MisPlume(west)    GOM_UW_1704    2017-04-11T09:22:32Z    -91.2571   28.3768   23.0523      36.287    376.3260745           2          
MisPlume(west)    GOM_UW_1704    2017-04-11T09:24:03Z    -91.2575   28.3769   23.0477      36.286    375.7887638           2          
MisPlume(west)    GOM_UW_1704    2017-04-11T09:25:35Z    -91.258    28.3769   23.0488      36.285    375.484192            2          
MisPlume(west)    GOM_UW_1704    2017-04-11T09:27:05Z    -91.2584   28.377    23.0468      36.285    375.9098467           2          
MisPlume(west)    GOM_UW_1704    2017-04-11T09:28:36Z    -91.2589   28.3772   23.049       36.286    375.5959028           2          
MisPlume(west)    GOM_UW_1704    2017-04-11T09:30:08Z    -91.2594   28.3773   23.0516      36.285    375.5441753           2          
MisPlume(west)    GOM_UW_1704    2017-04-11T09:31:38Z    -91.2598   28.3775   23.0389      36.285    376.0188127           2          
MisPlume(west)    GOM_UW_1704    2017-04-11T09:33:08Z    -91.2604   28.3777   23.0467      36.285    376.875317            2          
MisPlume(west)    GOM_UW_1704    2017-04-11T09:34:40Z    -91.2609   28.3778   23.0464      36.285    375.9920557           2          
MisPlume(west)    GOM_UW_1704    2017-04-11T09:36:11Z    -91.2613   28.378    23.045       36.29     376.8535737           2          
MisPlume(west)    GOM_UW_1704    2017-04-11T09:37:43Z    -91.2619   28.3781   23.0423      36.292    376.5573715           2          
MisPlume(west)    GOM_UW_1704    2017-04-11T09:39:13Z    -91.2624   28.3782   23.0416      36.291    375.6454966           2          
MisPlume(west)    GOM_UW_1704    2017-04-11T09:40:44Z    -91.2628   28.3784   23.0407      36.293    376.1364727           2          
MisPlume(west)    GOM_UW_1704    2017-04-11T09:42:15Z    -91.2633   28.3785   23.0424      36.292    376.5316619           2          
MisPlume(west)    GOM_UW_1704    2017-04-11T09:54:51Z    -91.2673   28.3804   23.0396      36.289    376.5899534           2          
MisPlume(west)    GOM_UW_1704    2017-04-11T09:56:21Z    -91.2684   28.3802   23.0355      36.29     378.2238536           2          
MisPlume(west)    GOM_UW_1704    2017-04-11T09:57:52Z    -91.2681   28.3778   23.0303      36.292    383.945899            2          
MisPlume(west)    GOM_UW_1704    2017-04-11T09:59:23Z    -91.2677   28.3751   23.0368      36.292    384.6738896           2          
MisPlume(west)    GOM_UW_1704    2017-04-11T10:00:53Z    -91.2674   28.3726   23.039       36.296    386.0918598           2          
MisPlume(west)    GOM_UW_1704    2017-04-11T10:02:24Z    -91.267    28.37     23.0404      36.299    383.774481            2          
MisPlume(west)    GOM_UW_1704    2017-04-11T10:03:56Z    -91.2666   28.3673   23.0396      36.299    383.0186279           2          
MisPlume(west)    GOM_UW_1704    2017-04-11T10:05:26Z    -91.2663   28.3647   23.0495      36.299    382.9947213           2          
MisPlume(west)    GOM_UW_1704    2017-04-11T10:06:57Z    -91.2659   28.362    23.052       36.299    380.7248824           2          
MisPlume(west)    GOM_UW_1704    2017-04-11T10:08:28Z    -91.2655   28.3595   23.0463      36.3      381.4841659           2          
MisPlume(west)    GOM_UW_1704    2017-04-11T10:09:59Z    -91.2652   28.3567   23.0407      36.297    379.4042635           2          
MisPlume(west)    GOM_UW_1704    2017-04-11T10:11:29Z    -91.2648   28.354    23.0634      36.295    380.3353335           2          
MisPlume(west)    GOM_UW_1704    2017-04-11T10:13:00Z    -91.2644   28.3512   23.0643      36.294    380.3782399           2          
MisPlume(west)    GOM_UW_1704    2017-04-11T10:14:29Z    -91.264    28.3485   23.0666      36.291    381.8804602           2          
MisPlume(west)    GOM_UW_1704    2017-04-11T10:16:00Z    -91.2636   28.3458   23.0682      36.29     381.4049768           2          
MisPlume(west)    GOM_UW_1704    2017-04-11T10:17:30Z    -91.2633   28.343    23.0572      36.291    380.0915312           2          
MisPlume(west)    GOM_UW_1704    2017-04-11T10:18:58Z    -91.263    28.3405   23.0517      36.29     380.1701319           2          
MisPlume(west)    GOM_UW_1704    2017-04-11T10:20:30Z    -91.2626   28.3379   23.0566      36.286    380.9118733           2          
MisPlume(west)    GOM_UW_1704    2017-04-11T10:21:58Z    -91.2622   28.3352   23.0606      36.282    380.3778709           2          
MisPlume(west)    GOM_UW_1704    2017-04-11T10:23:26Z    -91.2619   28.3327   23.0598      36.279    380.5763921           2          
MisPlume(west)    GOM_UW_1704    2017-04-11T10:24:56Z    -91.2615   28.33     23.0594      36.277    381.3935574           2          
MisPlume(west)    GOM_UW_1704    2017-04-11T10:26:24Z    -91.2611   28.3274   23.0564      36.278    381.2442345           2          
MisPlume(west)    GOM_UW_1704    2017-04-11T10:27:56Z    -91.2607   28.3247   23.0507      36.277    381.3114349           2          
MisPlume(west)    GOM_UW_1704    2017-04-11T10:29:27Z    -91.2603   28.3219   23.046       36.276    380.6330031           2          
MisPlume(west)    GOM_UW_1704    2017-04-11T10:30:58Z    -91.2599   28.3192   23.0358      36.273    380.8189218           2          
MisPlume(west)    GOM_UW_1704    2017-04-11T10:32:29Z    -91.2595   28.3166   23.0279      36.268    380.0521154           2          
MisPlume(west)    GOM_UW_1704    2017-04-11T10:33:58Z    -91.2592   28.3139   23.0198      36.266    379.4894266           2          
MisPlume(west)    GOM_UW_1704    2017-04-11T10:35:28Z    -91.2588   28.3112   23.0169      36.262    380.2780343           2          
MisPlume(west)    GOM_UW_1704    2017-04-11T10:36:56Z    -91.2584   28.3086   23.0159      36.261    379.226235            2          
MisPlume(west)    GOM_UW_1704    2017-04-11T10:38:26Z    -91.2581   28.3058   23.0125      36.261    379.8178566           2          
MisPlume(west)    GOM_UW_1704    2017-04-11T10:39:54Z    -91.2577   28.3033   23.0048      36.261    379.9836433           2          
MisPlume(west)    GOM_UW_1704    2017-04-11T10:41:25Z    -91.2573   28.3005   23.0092      36.239    379.62064             2          
MisPlume(west)    GOM_UW_1704    2017-04-11T10:42:53Z    -91.2569   28.2978   23.0075      36.258    379.5232845           2          
MisPlume(west)    GOM_UW_1704    2017-04-11T10:44:25Z    -91.2565   28.295    23.0017      36.257    379.6880951           2          
MisPlume(west)    GOM_UW_1704    2017-04-11T10:45:56Z    -91.2562   28.2923   23.0068      36.258    380.0807113           2          
MisPlume(west)    GOM_UW_1704    2017-04-11T10:47:27Z    -91.2558   28.2895   22.9998      36.257    380.3529788           2          
MisPlume(west)    GOM_UW_1704    2017-04-11T10:48:55Z    -91.2554   28.2869   22.9892      36.257    379.7357427           2          
MisPlume(west)    GOM_UW_1704    2017-04-11T10:50:26Z    -91.2549   28.2843   22.986       36.256    379.0573669           2          
MisPlume(west)    GOM_UW_1704    2017-04-11T10:51:57Z    -91.2544   28.2816   22.9726      36.255    380.6437398           2          
MisPlume(west)    GOM_UW_1704    2017-04-11T10:53:28Z    -91.2538   28.279    22.9562      36.255    379.5503146           2          
MisPlume(west)    GOM_UW_1704    2017-04-11T10:54:59Z    -91.2533   28.2763   22.9342      36.25     380.6929344           2          
MisPlume(west)    GOM_UW_1704    2017-04-11T10:56:29Z    -91.2527   28.2736   22.912       36.248    380.0567343           2          
MisPlume(west)    GOM_UW_1704    2017-04-11T10:57:59Z    -91.2522   28.2709   22.8876      36.247    379.9263299           2          
MisPlume(west)    GOM_UW_1704    2017-04-11T10:59:31Z    -91.2517   28.2682   22.8845      36.251    380.8211693           2          
MisPlume(west)    GOM_UW_1704    2017-04-11T11:01:02Z    -91.2512   28.2656   22.8795      36.251    382.3694515           2          
MisPlume(west)    GOM_UW_1704    2017-04-11T11:02:31Z    -91.2506   28.2632   22.8702      36.256    382.6157938           2          
MisPlume(west)    GOM_UW_1704    2017-04-11T11:04:02Z    -91.2501   28.2607   22.8692      36.257    382.6503476           2          
MisPlume(west)    GOM_UW_1704    2017-04-11T11:05:31Z    -91.2498   28.2579   22.858       36.257    381.687205            2          
MisPlume(west)    GOM_UW_1704    2017-04-11T11:06:59Z    -91.2496   28.2565   22.849       36.258    381.9292563           2          
MisPlume(west)    GOM_UW_1704    2017-04-11T11:08:29Z    -91.25     28.2567   22.851       36.257    378.5501231           2          
MisPlume(west)    GOM_UW_1704    2017-04-11T11:10:00Z    -91.2504   28.2568   22.8519      36.258    377.5285209           2          
MisPlume(west)    GOM_UW_1704    2017-04-11T11:11:31Z    -91.2509   28.257    22.8555      36.258    379.0049226           2          
MisPlume(west)    GOM_UW_1704    2017-04-11T11:12:59Z    -91.2514   28.2573   22.8588      36.257    380.1818748           2          
MisPlume(west)    GOM_UW_1704    2017-04-11T11:14:30Z    -91.2519   28.2575   22.8525      36.258    377.7344818           2          
MisPlume(west)    GOM_UW_1704    2017-04-11T11:16:02Z    -91.2523   28.2577   22.864       36.258    377.285704            2          
MisPlume(west)    GOM_UW_1704    2017-04-11T11:17:30Z    -91.2528   28.2579   22.8578      36.258    379.6945022           2          
MisPlume(west)    GOM_UW_1704    2017-04-11T11:19:01Z    -91.2532   28.2581   22.8572      36.257    379.6072847           2          
MisPlume(west)    GOM_UW_1704    2017-04-11T11:20:32Z    -91.2537   28.2583   22.8538      36.257    379.5454951           2          
MisPlume(west)    GOM_UW_1704    2017-04-11T11:22:02Z    -91.2542   28.2585   22.8538      36.257    383.4304352           2          
MisPlume(west)    GOM_UW_1704    2017-04-11T11:23:32Z    -91.2547   28.2587   22.8548      36.256    380.3029386           2          
MisPlume(west)    GOM_UW_1704    2017-04-11T11:25:00Z    -91.2551   28.2589   22.8526      36.257    381.5675122           2          
MisPlume(west)    GOM_UW_1704    2017-04-11T11:26:28Z    -91.2555   28.2591   22.8564      36.256    379.3925732           2          
MisPlume(west)    GOM_UW_1704    2017-04-11T11:28:00Z    -91.256    28.2593   22.8563      36.256    379.9081385           2          
MisPlume(west)    GOM_UW_1704    2017-04-11T11:29:27Z    -91.2564   28.2595   22.8607      36.256    380.7096614           2          
MisPlume(west)    GOM_UW_1704    2017-04-11T11:30:55Z    -91.2569   28.2597   22.8539      36.257    379.8534605           2          
MisPlume(west)    GOM_UW_1704    2017-04-11T11:32:24Z    -91.2574   28.2599   22.8579      36.257    382.9211579           2          
MisPlume(west)    GOM_UW_1704    2017-04-11T11:33:53Z    -91.2579   28.2601   22.8639      36.257    383.0577532           2          
MisPlume(west)    GOM_UW_1704    2017-04-11T11:35:22Z    -91.2584   28.2603   22.8678      36.257    381.7962947           2          
MisPlume(west)    GOM_UW_1704    2017-04-11T11:36:52Z    -91.2589   28.2605   22.8652      36.257    382.4378971           2          
MisPlume(west)    GOM_UW_1704    2017-04-11T11:38:24Z    -91.2594   28.2607   22.8627      36.257    380.9466981           2          
MisPlume(west)    GOM_UW_1704    2017-04-11T11:39:54Z    -91.2598   28.2609   22.8664      36.257    379.217658            2          
MisPlume(west)    GOM_UW_1704    2017-04-11T11:41:26Z    -91.2603   28.2611   22.8647      36.259    382.1833883           2          
MisPlume(west)    GOM_UW_1704    2017-04-11T11:42:56Z    -91.2607   28.2614   22.8655      36.258    379.825845            2          
MisPlume(west)    GOM_UW_1704    2017-04-11T11:44:26Z    -91.2612   28.2616   22.862       36.259    381.6558061           2          
MisPlume(west)    GOM_UW_1704    2017-04-11T11:45:57Z    -91.2618   28.2618   22.8639      36.259    381.7325926           2          
MisPlume(west)    GOM_UW_1704    2017-04-11T11:47:27Z    -91.2622   28.262    22.8626      36.258    380.3383461           2          
MisPlume(west)    GOM_UW_1704    2017-04-11T11:48:58Z    -91.2627   28.2623   22.876       36.258    378.2096626           2          
MisPlume(west)    GOM_UW_1704    2017-04-11T11:50:27Z    -91.2631   28.2625   22.8675      36.258    377.0416223           2          
MisPlume(west)    GOM_UW_1704    2017-04-11T11:51:59Z    -91.2637   28.2627   22.8717      36.257    379.0264281           2          
MisPlume(west)    GOM_UW_1704    2017-04-11T11:53:29Z    -91.2641   28.2645   22.8642      36.257    377.4179528           2          
MisPlume(west)    GOM_UW_1704    2017-04-11T11:55:00Z    -91.2655   28.268    22.8637      36.25     380.7576151           2          
MisPlume(west)    GOM_UW_1704    2017-04-11T11:56:28Z    -91.2669   28.2714   22.8476      36.252    379.9809459           2          
MisPlume(west)    GOM_UW_1704    2017-04-11T11:57:57Z    -91.2684   28.275    22.8575      36.244    381.3335556           2          
MisPlume(west)    GOM_UW_1704    2017-04-11T11:59:27Z    -91.2699   28.2785   22.8797      36.25     383.5391351           2          
MisPlume(west)    GOM_UW_1704    2017-04-11T12:00:58Z    -91.2714   28.2821   22.8857      36.243    381.8229534           2          
MisPlume(west)    GOM_UW_1704    2017-04-11T12:02:29Z    -91.2729   28.2858   22.8986      36.22     383.5306434           2          
MisPlume(west)    GOM_UW_1704    2017-04-11T12:03:57Z    -91.2743   28.2893   22.9065      36.233    381.4042784           2          
MisPlume(west)    GOM_UW_1704    2017-04-11T12:05:28Z    -91.2758   28.293    22.917       36.242    381.5681496           2          
MisPlume(west)    GOM_UW_1704    2017-04-11T12:06:59Z    -91.2773   28.2966   22.9337      36.245    384.8121755           2          
MisPlume(west)    GOM_UW_1704    2017-04-11T12:08:27Z    -91.2788   28.3001   22.9508      36.236    381.8498017           2          
MisPlume(west)    GOM_UW_1704    2017-04-11T12:09:57Z    -91.2803   28.3036   22.9622      36.246    379.6718522           2          
MisPlume(west)    GOM_UW_1704    2017-04-11T12:11:29Z    -91.282    28.3073   22.9708      36.253    381.9012008           2          
MisPlume(west)    GOM_UW_1704    2017-04-11T12:12:58Z    -91.2837   28.3107   22.9857      36.25     383.7015721           2          
MisPlume(west)    GOM_UW_1704    2017-04-11T12:14:26Z    -91.2853   28.3141   22.9952      36.255    382.6956533           2          
MisPlume(west)    GOM_UW_1704    2017-04-11T12:15:55Z    -91.287    28.3176   23.0063      36.258    384.5605214           2          
MisPlume(west)    GOM_UW_1704    2017-04-11T12:17:25Z    -91.2887   28.3211   23.0124      36.262    383.7186629           2          
MisPlume(west)    GOM_UW_1704    2017-04-11T12:18:57Z    -91.2904   28.3247   23.0235      36.267    384.8013984           2          
MisPlume(west)    GOM_UW_1704    2017-04-11T12:20:25Z    -91.2921   28.3282   23.0267      36.266    382.7937384           2          
MisPlume(west)    GOM_UW_1704    2017-04-11T12:21:56Z    -91.2938   28.3318   23.0326      36.271    383.2040444           2          
MisPlume(west)    GOM_UW_1704    2017-04-11T12:23:25Z    -91.2956   28.3353   23.0393      36.271    382.9452071           2          
MisPlume(west)    GOM_UW_1704    2017-04-11T12:24:53Z    -91.2972   28.3388   23.0379      36.276    387.0806521           2          
MisPlume(west)    GOM_UW_1704    2017-04-11T12:26:20Z    -91.2988   28.3421   23.0411      36.277    389.4282823           2          
MisPlume(west)    GOM_UW_1704    2017-04-11T12:27:50Z    -91.3005   28.3456   23.0429      36.278    387.1720781           2          
MisPlume(west)    GOM_UW_1704    2017-04-11T12:29:19Z    -91.3021   28.349    23.0409      36.277    384.701074            2          
MisPlume(west)    GOM_UW_1704    2017-04-11T12:30:47Z    -91.3038   28.3525   23.0229      36.29     382.3388652           2          
MisPlume(west)    GOM_UW_1704    2017-04-11T12:32:15Z    -91.3055   28.3559   23.0243      36.291    380.77764             2          
MisPlume(west)    GOM_UW_1704    2017-04-11T12:33:46Z    -91.3072   28.3595   23.0074      36.291    382.9820047           2          
MisPlume(west)    GOM_UW_1704    2017-04-11T12:35:17Z    -91.3089   28.363    23.0088      36.287    383.648601            2          
MisPlume(west)    GOM_UW_1704    2017-04-11T12:36:48Z    -91.3106   28.3665   23.0085      36.274    383.2461316           2          
MisPlume(west)    GOM_UW_1704    2017-04-11T12:38:17Z    -91.3123   28.3699   23.0018      36.293    386.4638471           2          
MisPlume(west)    GOM_UW_1704    2017-04-11T12:39:45Z    -91.3139   28.3734   23.001       36.281    385.378852            2          
MisPlume(west)    GOM_UW_1704    2017-04-11T12:41:13Z    -91.3155   28.3768   23.0008      36.289    379.8145332           2          
MisPlume(west)    GOM_UW_1704    2017-04-11T12:42:44Z    -91.3173   28.3803   23.0037      36.289    382.7151448           2          
MisPlume(west)    GOM_UW_1704    2017-04-11T12:44:13Z    -91.319    28.3838   23.0006      36.289    384.9219288           2          
MisPlume(west)    GOM_UW_1704    2017-04-11T12:45:41Z    -91.3206   28.3872   22.9935      36.283    384.6008461           2          
MisPlume(west)    GOM_UW_1704    2017-04-11T12:47:12Z    -91.3223   28.3908   22.9824      36.279    383.7087159           2          
MisPlume(west)    GOM_UW_1704    2017-04-11T12:48:39Z    -91.324    28.3941   22.9858      36.281    386.6889123           2          
MisPlume(west)    GOM_UW_1704    2017-04-11T12:50:10Z    -91.3257   28.3977   22.9874      36.278    382.5828201           2          
MisPlume(west)    GOM_UW_1704    2017-04-11T12:51:38Z    -91.3273   28.4011   22.9888      36.264    386.6198034           2          
MisPlume(west)    GOM_UW_1704    2017-04-11T12:53:10Z    -91.329    28.4046   22.9727      36.294    385.0533016           2          
MisPlume(west)    GOM_UW_1704    2017-04-11T13:05:46Z    -91.348    28.4317   22.9252      36.295    386.3472806           2          
MisPlume(west)    GOM_UW_1704    2017-04-11T13:07:17Z    -91.3504   28.4349   22.9165      36.295    386.2708476           2          
MisPlume(west)    GOM_UW_1704    2017-04-11T13:08:45Z    -91.3527   28.438    22.9161      36.292    382.6739542           2          
MisPlume(west)    GOM_UW_1704    2017-04-11T13:10:13Z    -91.355    28.4411   22.9092      36.289    384.0523654           2          
MisPlume(west)    GOM_UW_1704    2017-04-11T13:11:44Z    -91.3574   28.4444   22.9008      36.296    379.8058317           2          
MisPlume(west)    GOM_UW_1704    2017-04-11T13:13:15Z    -91.3599   28.4476   22.8994      36.297    382.9114477           2          
MisPlume(west)    GOM_UW_1704    2017-04-11T13:14:46Z    -91.3623   28.4508   22.8941      36.292    381.8107947           2          
MisPlume(west)    GOM_UW_1704    2017-04-11T13:16:13Z    -91.3645   28.4539   22.8999      36.295    386.2485341           2          
MisPlume(west)    GOM_UW_1704    2017-04-11T13:17:42Z    -91.3668   28.4571   22.8958      36.296    383.1010029           2          
MisPlume(west)    GOM_UW_1704    2017-04-11T13:19:14Z    -91.3693   28.4603   22.9009      36.295    391.9839453           2          
MisPlume(west)    GOM_UW_1704    2017-04-11T13:20:44Z    -91.3716   28.4635   22.9067      36.293    384.1788408           2          
MisPlume(west)    GOM_UW_1704    2017-04-11T13:22:12Z    -91.3738   28.4666   22.9057      36.296    389.7729672           2          
MisPlume(west)    GOM_UW_1704    2017-04-11T13:23:41Z    -91.3761   28.4698   22.8977      36.295    385.2438514           2          
MisPlume(west)    GOM_UW_1704    2017-04-11T13:25:09Z    -91.3785   28.4728   22.8968      36.285    394.9765701           2          
MisPlume(west)    GOM_UW_1704    2017-04-11T13:26:37Z    -91.3807   28.4759   22.8966      36.291    386.9655778           2          
MisPlume(west)    GOM_UW_1704    2017-04-11T13:28:05Z    -91.383    28.4789   22.8911      36.293    387.2187364           2          
MisPlume(west)    GOM_UW_1704    2017-04-11T13:29:34Z    -91.3853   28.482    22.8885      36.291    388.1250658           2          
MisPlume(west)    GOM_UW_1704    2017-04-11T13:31:05Z    -91.3876   28.4852   22.8701      36.286    388.0854785           2          
MisPlume(west)    GOM_UW_1704    2017-04-11T13:32:33Z    -91.3899   28.4883   22.8587      36.277    390.2228522           2          
MisPlume(west)    GOM_UW_1704    2017-04-11T13:34:03Z    -91.3923   28.4915   22.7617      36.238    388.6692604           2          
MisPlume(west)    GOM_UW_1704    2017-04-11T13:35:31Z    -91.3946   28.4946   22.7365      36.195    391.0804157           2          
MisPlume(west)    GOM_UW_1704    2017-04-11T13:37:00Z    -91.3969   28.4977   22.741       36.221    391.1973741           2          
MisPlume(west)    GOM_UW_1704    2017-04-11T13:38:31Z    -91.3993   28.5009   22.7038      36.204    392.2668093           2          
MisPlume(west)    GOM_UW_1704    2017-04-11T13:39:59Z    -91.4016   28.5039   22.7229      36.198    394.1091027           2          
MisPlume(west)    GOM_UW_1704    2017-04-11T13:41:30Z    -91.4039   28.5071   22.7201      36.2      390.8310673           2          
MisPlume(west)    GOM_UW_1704    2017-04-11T13:43:01Z    -91.4063   28.5103   22.7018      36.182    396.6803361           2          
MisPlume(west)    GOM_UW_1704    2017-04-11T13:44:30Z    -91.4085   28.5134   22.6797      36.187    397.2854372           2          
MisPlume(west)    GOM_UW_1704    2017-04-11T13:45:58Z    -91.4108   28.5165   22.6446      36.168    395.2659535           2          
MisPlume(west)    GOM_UW_1704    2017-04-11T13:47:28Z    -91.4132   28.5196   22.678       36.164    392.6564213           2          
MisPlume(west)    GOM_UW_1704    2017-04-11T13:48:56Z    -91.4155   28.5227   22.6615      36.165    399.6563365           2          
MisPlume(west)    GOM_UW_1704    2017-04-11T13:50:26Z    -91.4178   28.5259   22.6499      36.152    387.3537515           2          
MisPlume(west)    GOM_UW_1704    2017-04-11T13:51:53Z    -91.42     28.5289   22.6432      36.167    393.434529            2          
MisPlume(west)    GOM_UW_1704    2017-04-11T13:53:22Z    -91.4222   28.532    22.6571      36.17     394.4991514           2          
MisPlume(west)    GOM_UW_1704    2017-04-11T13:54:52Z    -91.4246   28.5351   22.664       36.173    398.2645455           2          
MisPlume(west)    GOM_UW_1704    2017-04-11T13:56:21Z    -91.4269   28.5382   22.6704      36.171    390.9796811           2          
MisPlume(west)    GOM_UW_1704    2017-04-11T13:57:48Z    -91.429    28.5414   22.6711      36.179    389.3747868           2          
MisPlume(west)    GOM_UW_1704    2017-04-11T13:59:17Z    -91.4306   28.5447   22.6761      36.181    388.1494741           2          
MisPlume(west)    GOM_UW_1704    2017-04-11T14:00:46Z    -91.4322   28.5481   22.6912      36.188    393.6973119           2          
MisPlume(west)    GOM_UW_1704    2017-04-11T14:02:14Z    -91.4339   28.5514   22.7031      36.191    395.1909662           2          
MisPlume(west)    GOM_UW_1704    2017-04-11T14:03:42Z    -91.4354   28.5547   22.7083      36.192    397.2161026           2          
MisPlume(west)    GOM_UW_1704    2017-04-11T14:05:13Z    -91.4371   28.5581   22.7193      36.187    396.6472425           2          
MisPlume(west)    GOM_UW_1704    2017-04-11T14:06:44Z    -91.4388   28.5615   22.7243      36.158    394.596559            2          
MisPlume(west)    GOM_UW_1704    2017-04-11T14:08:12Z    -91.4402   28.5649   22.7273      36.177    392.4819985           2          
MisPlume(west)    GOM_UW_1704    2017-04-11T14:09:40Z    -91.4416   28.5683   22.7224      36.172    394.5678642           2          
MisPlume(west)    GOM_UW_1704    2017-04-11T14:11:09Z    -91.4432   28.5717   22.7089      36.164    391.0532123           2          
MisPlume(west)    GOM_UW_1704    2017-04-11T14:12:39Z    -91.4452   28.5749   22.6858      36.142    396.4725037           2          
MisPlume(west)    GOM_UW_1704    2017-04-11T14:14:07Z    -91.447    28.5781   22.6555      36.106    396.9850236           2          
MisPlume(west)    GOM_UW_1704    2017-04-11T14:15:38Z    -91.4489   28.5814   22.651       36.094    399.8181347           2          
MisPlume(west)    GOM_UW_1704    2017-04-11T14:17:06Z    -91.4507   28.5846   22.6484      36.08     404.2468143           2          
MisPlume(west)    GOM_UW_1704    2017-04-11T14:18:37Z    -91.4524   28.588    22.6544      36.072    396.6853286           2          
MisPlume(west)    GOM_UW_1704    2017-04-11T14:20:09Z    -91.4541   28.5915   22.6407      36.063    402.3198071           2          
MisPlume(west)    GOM_UW_1704    2017-04-11T14:21:39Z    -91.4559   28.5948   22.6304      36.045    405.4841746           2          
MisPlume(west)    GOM_UW_1704    2017-04-11T14:23:07Z    -91.4576   28.598    22.6312      36.044    400.9478309           2          
MisPlume(west)    GOM_UW_1704    2017-04-11T14:24:35Z    -91.4592   28.6014   22.6306      36.036    400.6184433           2          
MisPlume(west)    GOM_UW_1704    2017-04-11T14:26:03Z    -91.4608   28.6046   22.6234      36.04     406.5376391           2          
MisPlume(west)    GOM_UW_1704    2017-04-11T14:27:30Z    -91.4625   28.6078   22.6183      36.033    405.6708445           2          
MisPlume(west)    GOM_UW_1704    2017-04-11T14:29:00Z    -91.4641   28.6112   22.6084      36.017    402.0357783           2          
MisPlume(west)    GOM_UW_1704    2017-04-11T14:30:28Z    -91.4655   28.6147   22.602       36.01     403.5164902           2          
MisPlume(west)    GOM_UW_1704    2017-04-11T14:31:56Z    -91.467    28.618    22.5956      35.989    399.7203951           2          
MisPlume(west)    GOM_UW_1704    2017-04-11T14:33:24Z    -91.4685   28.6215   22.5898      35.992    397.6322348           2          
MisPlume(west)    GOM_UW_1704    2017-04-11T14:34:53Z    -91.4701   28.625    22.588       35.983    403.776471            2          
MisPlume(west)    GOM_UW_1704    2017-04-11T14:36:21Z    -91.4715   28.6284   22.5875      35.976    401.8157035           2          
MisPlume(west)    GOM_UW_1704    2017-04-11T14:37:50Z    -91.4728   28.6319   22.5886      35.971    400.3012079           2          
MisPlume(west)    GOM_UW_1704    2017-04-11T14:39:21Z    -91.4743   28.6355   22.5931      35.971    403.602302            2          
MisPlume(west)    GOM_UW_1704    2017-04-11T14:40:52Z    -91.4757   28.6391   22.5957      35.972    404.0507242           2          
MisPlume(west)    GOM_UW_1704    2017-04-11T14:42:23Z    -91.4771   28.6427   22.5938      35.969    407.838502            2          
MisPlume(west)    GOM_UW_1704    2017-04-11T14:43:51Z    -91.4784   28.6462   22.6017      35.97     404.4439011           2          
MisPlume(west)    GOM_UW_1704    2017-04-11T14:45:19Z    -91.4798   28.6497   22.6029      35.963    405.7426995           2          
MisPlume(west)    GOM_UW_1704    2017-04-11T14:46:51Z    -91.4812   28.6533   22.6093      35.964    405.7442359           2          
MisPlume(west)    GOM_UW_1704    2017-04-11T14:48:18Z    -91.4826   28.6568   22.6112      35.963    407.2781823           2          
MisPlume(west)    GOM_UW_1704    2017-04-11T14:49:46Z    -91.484    28.6603   22.6157      35.96     406.4941528           2          
MisPlume(west)    GOM_UW_1704    2017-04-11T14:51:16Z    -91.4854   28.6639   22.6306      35.966    405.3171388           2          
MisPlume(west)    GOM_UW_1704    2017-04-11T14:52:46Z    -91.4868   28.6675   22.6363      35.946    402.1074644           2          
MisPlume(west)    GOM_UW_1704    2017-04-11T14:54:17Z    -91.4882   28.6711   22.6404      35.945    403.9319037           2          
MisPlume(west)    GOM_UW_1704    2017-04-11T14:55:46Z    -91.4896   28.6747   22.6479      35.94     405.1076152           2          
MisPlume(west)    GOM_UW_1704    2017-04-11T14:57:14Z    -91.491    28.6782   22.6542      35.925    403.983327            2          
MisPlume(west)    GOM_UW_1704    2017-04-11T14:58:45Z    -91.4924   28.6818   22.6655      35.923    400.0612755           2          
MisPlume(west)    GOM_UW_1704    2017-04-11T15:00:13Z    -91.4938   28.6854   22.6695      35.919    399.8619798           2          
MisPlume(west)    GOM_UW_1704    2017-04-11T15:01:40Z    -91.4952   28.6889   22.6692      35.913    397.3300222           2          
MisPlume(west)    GOM_UW_1704    2017-04-11T15:03:08Z    -91.4966   28.6924   22.6665      35.889    401.9222742           2          
MisPlume(west)    GOM_UW_1704    2017-04-11T15:04:36Z    -91.498    28.696    22.6603      35.868    398.2855551           2          
MisPlume(west)    GOM_UW_1704    2017-04-11T15:06:08Z    -91.4995   28.6997   22.6622      35.843    399.7696565           2          
MisPlume(west)    GOM_UW_1704    2017-04-11T15:07:39Z    -91.5009   28.7034   22.6646      35.813    398.3601609           2          
MisPlume(west)    GOM_UW_1704    2017-04-11T15:09:08Z    -91.5023   28.7071   22.6599      35.791    400.0707795           2          
MisPlume(west)    GOM_UW_1704    2017-04-11T15:10:39Z    -91.5038   28.7108   22.6636      35.774    392.262983            2          
MisPlume(west)    GOM_UW_1704    2017-04-11T15:12:08Z    -91.5052   28.7144   22.6592      35.732    395.1806138           2          
MisPlume(west)    GOM_UW_1704    2017-04-11T15:13:36Z    -91.5066   28.718    22.6583      35.714    392.9434579           2          
MisPlume(west)    GOM_UW_1704    2017-04-11T15:15:07Z    -91.5081   28.7217   22.6531      35.695    393.7416545           2          
MisPlume(west)    GOM_UW_1704    2017-04-11T15:16:35Z    -91.5096   28.7254   22.655       35.639    396.1722223           2          
MisPlume(west)    GOM_UW_1704    2017-04-11T15:18:04Z    -91.5111   28.7291   22.6648      35.546    391.5001089           2          
MisPlume(west)    GOM_UW_1704    2017-04-11T15:19:32Z    -91.5125   28.7328   22.6707      35.468    390.2840948           2          
MisPlume(west)    GOM_UW_1704    2017-04-11T15:21:01Z    -91.514    28.7366   22.6853      35.443    378.7960524           2          
MisPlume(west)    GOM_UW_1704    2017-04-11T15:22:29Z    -91.5154   28.7403   22.669       35.366    382.7072457           2          
MisPlume(west)    GOM_UW_1704    2017-04-11T15:23:58Z    -91.5169   28.7441   22.7153      35.334    383.5143829           2          
MisPlume(west)    GOM_UW_1704    2017-04-11T15:25:26Z    -91.5184   28.7478   22.725       35.348    378.2334696           2          
MisPlume(west)    GOM_UW_1704    2017-04-11T15:26:57Z    -91.5198   28.7516   22.7278      35.331    379.075672            2          
MisPlume(west)    GOM_UW_1704    2017-04-11T15:28:25Z    -91.5213   28.7553   22.7412      35.252    379.8845796           2          
MisPlume(west)    GOM_UW_1704    2017-04-11T15:29:53Z    -91.5228   28.759    22.7605      35.128    382.0179861           2          
MisPlume(west)    GOM_UW_1704    2017-04-11T15:31:21Z    -91.5241   28.7627   22.7774      35.028    376.8207299           2          
MisPlume(west)    GOM_UW_1704    2017-04-11T15:32:49Z    -91.5253   28.7664   22.7531      34.919    374.9239445           2          
MisPlume(west)    GOM_UW_1704    2017-04-11T15:34:17Z    -91.5266   28.7701   22.7228      34.804    369.7672235           2          
MisPlume(west)    GOM_UW_1704    2017-04-11T15:35:46Z    -91.5279   28.7738   22.7134      34.699    366.1242333           2          
MisPlume(west)    GOM_UW_1704    2017-04-11T15:37:18Z    -91.5293   28.7777   22.719       34.657    360.6820793           2          
MisPlume(west)    GOM_UW_1704    2017-04-11T15:38:46Z    -91.5306   28.7814   22.7207      34.649    356.6858394           2          
MisPlume(west)    GOM_UW_1704    2017-04-11T15:40:13Z    -91.5319   28.785    22.7182      34.649    361.5782863           2          
MisPlume(west)    GOM_UW_1704    2017-04-11T15:41:45Z    -91.5332   28.7889   22.7166      34.653    361.1105816           2          
MisPlume(west)    GOM_UW_1704    2017-04-11T15:43:15Z    -91.5346   28.7926   22.7292      34.663    360.0733823           2          
MisPlume(west)    GOM_UW_1704    2017-04-11T15:44:46Z    -91.5361   28.7963   22.742       34.61     362.887629            2          
MisPlume(west)    GOM_UW_1704    2017-04-11T15:46:14Z    -91.5375   28.7999   22.7258      34.579    362.4416137           2          
MisPlume(west)    GOM_UW_1704    2017-04-11T15:47:43Z    -91.539    28.8035   22.7299      34.544    360.8618896           2          
MisPlume(west)    GOM_UW_1704    2017-04-11T15:49:15Z    -91.5405   28.8073   22.7416      34.556    359.0134608           2          
MisPlume(west)    GOM_UW_1704    2017-04-11T15:50:46Z    -91.5419   28.811    22.7303      34.539    357.5374392           2          
MisPlume(west)    GOM_UW_1704    2017-04-11T15:52:13Z    -91.5433   28.8146   22.7322      34.532    359.4540077           2          
MisPlume(west)    GOM_UW_1704    2017-04-11T15:53:42Z    -91.5447   28.8182   22.7458      34.531    359.3006867           2          
MisPlume(west)    GOM_UW_1704    2017-04-11T15:55:10Z    -91.5461   28.8218   22.7881      34.56     359.748139            2          
MisPlume(west)    GOM_UW_1704    2017-04-11T15:56:38Z    -91.5475   28.8254   22.8061      34.555    361.1902467           2          
MisPlume(west)    GOM_UW_1704    2017-04-11T15:58:06Z    -91.5489   28.8289   22.8271      34.491    361.1348666           2          
MisPlume(west)    GOM_UW_1704    2017-04-11T15:59:34Z    -91.5503   28.8324   22.8912      34.432    364.7229491           2          
MisPlume(west)    GOM_UW_1704    2017-04-11T16:01:04Z    -91.5518   28.8361   22.9221      34.367    370.1234293           2          
MisPlume(west)    GOM_UW_1704    2017-04-11T16:02:35Z    -91.5532   28.8398   22.9259      34.332    363.9671126           2          
MisPlume(west)    GOM_UW_1704    2017-04-11T16:15:12Z    -91.5656   28.8713   22.9602      33.718    343.2017082           2          
MisPlume(west)    GOM_UW_1704    2017-04-11T16:16:40Z    -91.5671   28.8749   22.9627      33.675    338.6944716           2          
MisPlume(west)    GOM_UW_1704    2017-04-11T16:18:09Z    -91.5685   28.8786   22.9816      33.663    337.7423538           2          
MisPlume(west)    GOM_UW_1704    2017-04-11T16:19:38Z    -91.5699   28.8823   22.9904      33.635    337.7797499           2          
MisPlume(west)    GOM_UW_1704    2017-04-11T16:21:06Z    -91.5714   28.886    22.9996      33.605    336.2481428           2          
MisPlume(west)    GOM_UW_1704    2017-04-11T16:22:36Z    -91.5729   28.8898   22.9942      33.572    335.0247692           2          
MisPlume(west)    GOM_UW_1704    2017-04-11T16:24:07Z    -91.5744   28.8935   22.9853      33.514    335.697012            2          
MisPlume(west)    GOM_UW_1704    2017-04-11T16:25:35Z    -91.5758   28.8971   22.9881      33.519    335.1157819           2          
MisPlume(west)    GOM_UW_1704    2017-04-11T16:27:04Z    -91.5772   28.9008   22.9763      33.53     334.5044127           2          
MisPlume(west)    GOM_UW_1704    2017-04-11T16:28:35Z    -91.5787   28.9045   22.9816      33.492    334.8494819           2          
MisPlume(west)    GOM_UW_1704    2017-04-11T16:30:06Z    -91.5802   28.9083   22.9833      33.5      331.436855            2          
MisPlume(west)    GOM_UW_1704    2017-04-11T16:31:34Z    -91.5816   28.9119   22.9718      33.489    332.9349579           2          
MisPlume(west)    GOM_UW_1704    2017-04-11T16:33:02Z    -91.5831   28.9156   22.9681      33.492    334.6156146           2          
MisPlume(west)    GOM_UW_1704    2017-04-11T16:34:33Z    -91.5846   28.9194   22.9584      33.482    334.1754309           2          
MisPlume(west)    GOM_UW_1704    2017-04-11T16:36:04Z    -91.586    28.9232   22.9446      33.47     331.2225454           2          
MisPlume(west)    GOM_UW_1704    2017-04-11T16:37:35Z    -91.5875   28.927    22.9214      33.459    330.5210556           2          
MisPlume(west)    GOM_UW_1704    2017-04-11T16:39:04Z    -91.589    28.9307   22.9239      33.418    329.2329042           2          
MisPlume(west)    GOM_UW_1704    2017-04-11T16:40:34Z    -91.5905   28.9345   22.9557      33.432    327.1622817           2          
MisPlume(west)    GOM_UW_1704    2017-04-11T16:42:03Z    -91.592    28.9383   22.9585      33.408    329.0352862           2          
MisPlume(west)    GOM_UW_1704    2017-04-11T16:43:30Z    -91.5934   28.9419   22.9516      33.424    330.2773165           2          
MisPlume(west)    GOM_UW_1704    2017-04-11T16:45:00Z    -91.595    28.9457   22.9735      33.4      327.9037818           2          
MisPlume(west)    GOM_UW_1704    2017-04-11T16:46:28Z    -91.5964   28.9494   22.9882      33.473    329.4900278           2          
MisPlume(west)    GOM_UW_1704    2017-04-11T16:47:59Z    -91.5979   28.9531   22.9935      33.513    329.1734619           2          
MisPlume(west)    GOM_UW_1704    2017-04-11T16:49:30Z    -91.5994   28.9569   22.9953      33.517    327.9519413           2          
MisPlume(west)    GOM_UW_1704    2017-04-11T16:51:00Z    -91.6009   28.9606   23.0168      33.365    329.1713207           2          
MisPlume(west)    GOM_UW_1704    2017-04-11T16:52:29Z    -91.6023   28.9643   23.0209      33.292    325.3174593           2          
MisPlume(west)    GOM_UW_1704    2017-04-11T16:54:00Z    -91.6038   28.9681   23.062       33.174    323.6130597           2          
MisPlume(west)    GOM_UW_1704    2017-04-11T16:55:28Z    -91.6052   28.9718   23.0761      33.059    319.7879209           2          
MisPlume(west)    GOM_UW_1704    2017-04-11T16:56:59Z    -91.6067   28.9755   23.0972      32.964    315.3113762           2          
MisPlume(west)    GOM_UW_1704    2017-04-11T16:58:27Z    -91.6081   28.9792   23.0786      32.858    313.4317109           2          
MisPlume(west)    GOM_UW_1704    2017-04-11T16:59:57Z    -91.6096   28.9829   23.039       32.827    315.131251            2          
MisPlume(west)    GOM_UW_1704    2017-04-11T17:01:29Z    -91.6111   28.9867   23.0316      32.846    316.7366769           2          
MisPlume(west)    GOM_UW_1704    2017-04-11T17:02:57Z    -91.6125   28.9903   22.927       32.777    315.5670694           2          
MisPlume(west)    GOM_UW_1704    2017-04-11T17:04:25Z    -91.6139   28.9939   22.8628      32.668    312.6852757           2          
MisPlume(west)    GOM_UW_1704    2017-04-11T17:05:52Z    -91.6153   28.9972   22.8593      32.62     307.0021122           2          
MisPlume(west)    GOM_UW_1704    2017-04-11T17:07:23Z    -91.6165   28.9989   22.8564      32.572    303.1395142           2          
MisPlume(west)    GOM_UW_1704    2017-04-11T17:08:53Z    -91.617    28.9994   22.8599      32.569    305.351301            2          
MisPlume(west)    GOM_UW_1704    2017-04-11T17:10:22Z    -91.6177   28.9997   22.872       32.567    305.460557            2          
MisPlume(west)    GOM_UW_1704    2017-04-11T17:11:50Z    -91.6183   29        22.8867      32.567    304.0655957           2          
MisPlume(west)    GOM_UW_1704    2017-04-11T17:13:19Z    -91.6191   29.0003   22.8747      32.569    304.2940969           2          
MisPlume(west)    GOM_UW_1704    2017-04-11T17:14:49Z    -91.6197   29.0006   22.8745      32.572    304.3618799           2          
MisPlume(west)    GOM_UW_1704    2017-04-11T17:16:19Z    -91.6204   29.001    22.868       32.577    303.97366             2          
MisPlume(west)    GOM_UW_1704    2017-04-11T17:17:51Z    -91.6203   29.0017   22.8743      32.57     302.8747468           2          
MisPlume(west)    GOM_UW_1704    2017-04-11T17:19:19Z    -91.6205   29.0004   22.8721      32.565    305.0574321           2          
MisPlume(west)    GOM_UW_1704    2017-04-11T17:20:46Z    -91.6205   28.9991   22.8761      32.581    309.024199            2          
MisPlume(west)    GOM_UW_1704    2017-04-11T17:22:17Z    -91.6204   28.9975   22.8692      32.619    308.0867127           2          
MisPlume(west)    GOM_UW_1704    2017-04-11T17:23:48Z    -91.6204   28.9957   22.8511      32.656    312.227521            2          
MisPlume(west)    GOM_UW_1704    2017-04-11T17:25:17Z    -91.6204   28.994    22.8749      32.697    312.3222579           2          
MisPlume(west)    GOM_UW_1704    2017-04-11T17:26:45Z    -91.6203   28.9923   22.9398      32.743    314.0217991           2          
MisPlume(west)    GOM_UW_1704    2017-04-11T17:28:13Z    -91.6203   28.9906   22.9023      32.77     315.8176362           2          
MisPlume(west)    GOM_UW_1704    2017-04-11T17:29:42Z    -91.6202   28.9888   22.9656      32.833    317.3530248           2          
MisPlume(west)    GOM_UW_1704    2017-04-11T17:31:10Z    -91.6201   28.9872   23.0308      32.881    321.8226422           2          
MisPlume(west)    GOM_UW_1704    2017-04-11T17:32:40Z    -91.62     28.9855   23.0814      32.862    320.2947785           2          
MisPlume(west)    GOM_UW_1704    2017-04-11T17:34:10Z    -91.6199   28.9826   23.0953      32.877    319.3159384           2          
MisPlume(west)    GOM_UW_1704    2017-04-11T17:35:41Z    -91.6198   28.9793   23.1205      32.921    318.7176386           2          
MisPlume(west)    GOM_UW_1704    2017-04-11T17:37:09Z    -91.6197   28.9761   23.1355      33.003    319.3892125           2          
MisPlume(west)    GOM_UW_1704    2017-04-11T17:38:38Z    -91.6195   28.9729   23.1184      33.164    321.3229717           2          
MisPlume(west)    GOM_UW_1704    2017-04-11T17:40:06Z    -91.6194   28.9697   23.0909      33.329    324.008035            2          
MisPlume(west)    GOM_UW_1704    2017-04-11T17:41:34Z    -91.6193   28.9665   23.0667      33.318    329.1909948           2          
MisPlume(west)    GOM_UW_1704    2017-04-11T17:43:02Z    -91.6191   28.9632   23.0114      33.358    331.4906563           2          
MisPlume(west)    GOM_UW_1704    2017-04-11T17:44:32Z    -91.619    28.9598   23.0321      33.431    332.0754267           2          
MisPlume(west)    GOM_UW_1704    2017-04-11T17:46:00Z    -91.6189   28.9565   23.0683      33.495    332.3083763           2          
MisPlume(west)    GOM_UW_1704    2017-04-11T17:47:28Z    -91.6187   28.9532   22.9535      33.523    330.1246539           2          
MisPlume(west)    GOM_UW_1704    2017-04-11T17:48:59Z    -91.6186   28.9498   22.9734      33.585    331.5882927           2          
MisPlume(west)    GOM_UW_1704    2017-04-11T17:50:27Z    -91.6185   28.9464   22.9953      33.664    334.9017197           2          
MisPlume(west)    GOM_UW_1704    2017-04-11T17:51:55Z    -91.6183   28.9431   22.993       33.634    336.5093361           2          
MisPlume(west)    GOM_UW_1704    2017-04-11T17:53:26Z    -91.6182   28.9397   22.9738      33.637    336.8625131           2          
MisPlume(west)    GOM_UW_1704    2017-04-11T17:54:54Z    -91.6181   28.9365   22.9749      33.663    337.6826285           2          
MisPlume(west)    GOM_UW_1704    2017-04-11T17:56:25Z    -91.618    28.9331   22.9818      33.683    340.7095909           2          
MisPlume(west)    GOM_UW_1704    2017-04-11T17:57:56Z    -91.6178   28.9298   22.9671      33.697    340.8651338           2          
MisPlume(west)    GOM_UW_1704    2017-04-11T17:59:24Z    -91.6177   28.9265   22.9788      33.692    339.0301335           2          
MisPlume(west)    GOM_UW_1704    2017-04-11T18:00:52Z    -91.6176   28.9233   22.9867      33.685    341.6437502           2          
MisPlume(west)    GOM_UW_1704    2017-04-11T18:02:22Z    -91.6175   28.9199   22.972       33.7      343.1178534           2          
MisPlume(west)    GOM_UW_1704    2017-04-11T18:03:51Z    -91.6174   28.9167   22.9731      33.709    345.2836591           2          
MisPlume(west)    GOM_UW_1704    2017-04-11T18:05:19Z    -91.6172   28.9135   22.9839      33.723    345.1088827           2          
MisPlume(west)    GOM_UW_1704    2017-04-11T18:06:50Z    -91.6171   28.9102   22.9669      33.747    345.3078124           2          
MisPlume(west)    GOM_UW_1704    2017-04-11T18:08:18Z    -91.6169   28.9069   22.9684      33.767    345.5654244           2          
MisPlume(west)    GOM_UW_1704    2017-04-11T18:09:50Z    -91.6168   28.9035   22.9488      33.802    346.6181386           2          
MisPlume(west)    GOM_UW_1704    2017-04-11T18:11:21Z    -91.6167   28.9001   23.0044      33.816    351.5728899           2          
MisPlume(west)    GOM_UW_1704    2017-04-11T18:12:48Z    -91.6165   28.8968   23.0245      33.813    nd                    2          
MisPlume(west)    GOM_UW_1704    2017-04-11T18:14:17Z    -91.6164   28.8936   23.0373      33.829    349.8223023           2          
MisPlume(west)    GOM_UW_1704    2017-04-11T18:15:47Z    -91.6163   28.8902   22.9662      33.888    353.2670155           2          
MisPlume(west)    GOM_UW_1704    2017-04-11T18:17:17Z    -91.6161   28.8868   22.9535      33.899    353.979266            2          
MisPlume(west)    GOM_UW_1704    2017-04-11T18:18:46Z    -91.6163   28.8842   22.9678      33.947    356.7533012           2          
MisPlume(west)    GOM_UW_1704    2017-04-11T18:20:14Z    -91.6164   28.8842   22.9412      33.973    353.4245015           2          
MisPlume(west)    GOM_UW_1704    2017-04-11T18:21:43Z    -91.617    28.8845   22.9274      33.977    353.5446565           2          
MisPlume(west)    GOM_UW_1704    2017-04-11T18:23:14Z    -91.6176   28.8847   22.9581      33.97     352.8288472           2          
MisPlume(west)    GOM_UW_1704    2017-04-11T18:24:45Z    -91.6181   28.885    22.9731      33.975    353.227519            2          
MisPlume(west)    GOM_UW_1704    2017-04-11T18:26:16Z    -91.6187   28.8853   22.9611      33.979    352.1581452           2          
MisPlume(west)    GOM_UW_1704    2017-04-11T18:27:45Z    -91.6193   28.8856   22.9603      33.98     356.5636476           2          
MisPlume(west)    GOM_UW_1704    2017-04-11T18:29:14Z    -91.6199   28.8859   22.9604      33.983    354.5360632           2          
MisPlume(west)    GOM_UW_1704    2017-04-11T18:30:45Z    -91.6204   28.8865   22.9526      33.986    354.6409788           2          
MisPlume(west)    GOM_UW_1704    2017-04-11T18:32:15Z    -91.6218   28.8863   22.9556      33.978    348.406756            2          
MisPlume(west)    GOM_UW_1704    2017-04-11T18:33:44Z    -91.6221   28.8843   22.9665      34.017    351.8828554           2          
MisPlume(west)    GOM_UW_1704    2017-04-11T18:35:15Z    -91.6221   28.8822   22.9953      34.042    354.7456119           2          
MisPlume(west)    GOM_UW_1704    2017-04-11T18:36:43Z    -91.6222   28.8802   23.0263      34.059    355.2199831           2          
MisPlume(west)    GOM_UW_1704    2017-04-11T18:38:12Z    -91.6223   28.8783   23.0523      34.09     359.0153072           2          
MisPlume(west)    GOM_UW_1704    2017-04-11T18:39:40Z    -91.6223   28.8764   23.037       34.202    360.2078025           2          
MisPlume(west)    GOM_UW_1704    2017-04-11T18:41:08Z    -91.6224   28.8745   23.0472      34.231    363.9769057           2          
MisPlume(west)    GOM_UW_1704    2017-04-11T18:42:39Z    -91.6224   28.8726   23.063       34.247    367.1802078           2          
MisPlume(west)    GOM_UW_1704    2017-04-11T18:44:08Z    -91.6224   28.8706   23.066       34.263    365.2411773           2          
MisPlume(west)    GOM_UW_1704    2017-04-11T18:45:36Z    -91.6223   28.8688   23.0522      34.289    364.4016559           2          
MisPlume(west)    GOM_UW_1704    2017-04-11T18:47:04Z    -91.6223   28.8666   23.0479      34.318    366.2591402           2          
MisPlume(west)    GOM_UW_1704    2017-04-11T18:48:36Z    -91.6223   28.8632   22.9593      34.33     365.917342            2          
MisPlume(west)    GOM_UW_1704    2017-04-11T18:50:03Z    -91.6224   28.86     22.9614      34.382    nd                    2          
MisPlume(west)    GOM_UW_1704    2017-04-11T18:51:31Z    -91.6223   28.8566   22.9586      34.442    364.1761221           2          
MisPlume(west)    GOM_UW_1704    2017-04-11T18:53:02Z    -91.6223   28.8532   22.9688      34.472    367.4193909           2          
MisPlume(west)    GOM_UW_1704    2017-04-11T18:54:30Z    -91.6224   28.8499   22.9579      34.484    368.5489041           2          
MisPlume(west)    GOM_UW_1704    2017-04-11T18:56:01Z    -91.6222   28.8466   22.9479      34.531    366.689038            2          
MisPlume(west)    GOM_UW_1704    2017-04-11T18:57:32Z    -91.6219   28.8432   22.9653      34.592    369.939627            2          
MisPlume(west)    GOM_UW_1704    2017-04-11T18:59:02Z    -91.6216   28.8398   22.9286      34.61     369.0616118           2          
MisPlume(west)    GOM_UW_1704    2017-04-11T19:00:32Z    -91.6213   28.8365   22.907       34.645    368.6599833           2          
MisPlume(west)    GOM_UW_1704    2017-04-11T19:02:02Z    -91.6209   28.8332   22.8532      34.696    366.1368732           2          
MisPlume(west)    GOM_UW_1704    2017-04-11T19:03:30Z    -91.6206   28.83     22.8786      34.711    365.969009            2          
MisPlume(west)    GOM_UW_1704    2017-04-11T19:04:59Z    -91.6203   28.8268   22.9052      34.737    365.8405294           2          
MisPlume(west)    GOM_UW_1704    2017-04-11T19:06:29Z    -91.6199   28.8236   22.9151      34.759    366.6933121           2          
MisPlume(west)    GOM_UW_1704    2017-04-11T19:07:57Z    -91.6196   28.8204   22.9155      34.787    368.7653641           2          
MisPlume(west)    GOM_UW_1704    2017-04-11T19:09:25Z    -91.6193   28.8172   22.9235      34.813    368.8405331           2          
MisPlume(west)    GOM_UW_1704    2017-04-11T19:10:54Z    -91.619    28.814    22.9245      34.847    370.458794            2          
MisPlume(west)    GOM_UW_1704    2017-04-11T19:12:24Z    -91.6186   28.8107   22.9068      34.884    369.8918413           2          
MisPlume(west)    GOM_UW_1704    2017-04-11T19:25:00Z    -91.616    28.7859   22.8857      35.23     388.2195641           2          
MisPlume(west)    GOM_UW_1704    2017-04-11T19:26:30Z    -91.6163   28.7863   22.8764      35.216    388.0172715           2          
MisPlume(west)    GOM_UW_1704    2017-04-11T19:27:58Z    -91.6167   28.7867   22.8639      35.208    388.4837407           2          
MisPlume(west)    GOM_UW_1704    2017-04-11T19:29:29Z    -91.6172   28.787    22.8879      35.206    390.2045245           2          
MisPlume(west)    GOM_UW_1704    2017-04-11T19:31:01Z    -91.6178   28.7872   22.8943      35.203    390.8759133           2          
MisPlume(west)    GOM_UW_1704    2017-04-11T19:32:30Z    -91.6185   28.7874   22.8951      35.196    389.9191784           2          
MisPlume(west)    GOM_UW_1704    2017-04-11T19:33:57Z    -91.619    28.7876   22.8997      35.192    388.9968454           2          
MisPlume(west)    GOM_UW_1704    2017-04-11T19:35:27Z    -91.6197   28.7878   22.886       35.184    388.6389553           2          
MisPlume(west)    GOM_UW_1704    2017-04-11T19:36:55Z    -91.6203   28.788    22.8976      35.18     387.4070272           2          
MisPlume(west)    GOM_UW_1704    2017-04-11T19:38:24Z    -91.6205   28.7884   22.8942      35.166    386.5166049           2          
MisPlume(west)    GOM_UW_1704    2017-04-11T19:39:52Z    -91.6206   28.7879   22.9145      35.173    383.9319822           2          
MisPlume(west)    GOM_UW_1704    2017-04-11T19:41:23Z    -91.6205   28.7861   22.8888      35.197    382.985666            2          
MisPlume(west)    GOM_UW_1704    2017-04-11T19:42:52Z    -91.6203   28.7842   22.907       35.246    386.8230334           2          
MisPlume(west)    GOM_UW_1704    2017-04-11T19:44:19Z    -91.6202   28.7825   22.972       35.325    385.8505919           2          
MisPlume(west)    GOM_UW_1704    2017-04-11T19:45:50Z    -91.6201   28.7807   22.9717      35.324    386.2472662           2          
MisPlume(west)    GOM_UW_1704    2017-04-11T19:47:19Z    -91.62     28.7788   22.9606      35.321    389.2811281           2          
MisPlume(west)    GOM_UW_1704    2017-04-11T19:48:50Z    -91.6199   28.7769   22.9702      35.316    387.5719275           2          
MisPlume(west)    GOM_UW_1704    2017-04-11T19:50:19Z    -91.6198   28.7751   22.9648      35.314    386.9537549           2          
MisPlume(west)    GOM_UW_1704    2017-04-11T19:51:47Z    -91.6197   28.7735   22.9697      35.311    389.270927            2          
MisPlume(west)    GOM_UW_1704    2017-04-11T19:53:16Z    -91.6196   28.7718   22.9671      35.288    388.2925034           2          
MisPlume(west)    GOM_UW_1704    2017-04-11T19:54:46Z    -91.6194   28.7699   22.9751      35.282    386.2876978           2          
MisPlume(west)    GOM_UW_1704    2017-04-11T19:56:18Z    -91.6193   28.768    22.9779      35.268    387.2710428           2          
MisPlume(west)    GOM_UW_1704    2017-04-11T19:57:47Z    -91.6192   28.7662   23.0407      35.257    389.9765654           2          
MisPlume(west)    GOM_UW_1704    2017-04-11T19:59:16Z    -91.6191   28.7642   23.065       35.243    391.8228499           2          
MisPlume(west)    GOM_UW_1704    2017-04-11T20:00:43Z    -91.6189   28.7623   23.0456      35.208    390.744712            2          
MisPlume(west)    GOM_UW_1704    2017-04-11T20:02:11Z    -91.6189   28.7604   23.04        35.205    388.9531921           2          
MisPlume(west)    GOM_UW_1704    2017-04-11T20:03:39Z    -91.6186   28.7576   23.0516      35.21     388.1541007           2          
MisPlume(west)    GOM_UW_1704    2017-04-11T20:05:08Z    -91.6185   28.7542   23.0076      35.218    388.6356271           2          
MisPlume(west)    GOM_UW_1704    2017-04-11T20:06:38Z    -91.6183   28.7507   22.8889      35.282    386.7951856           2          
MisPlume(west)    GOM_UW_1704    2017-04-11T20:08:06Z    -91.6181   28.7474   22.842       35.37     390.2037995           2          
MisPlume(west)    GOM_UW_1704    2017-04-11T20:09:34Z    -91.6179   28.7439   22.8027      35.453    391.1047198           2          
MisPlume(west)    GOM_UW_1704    2017-04-11T20:11:05Z    -91.6177   28.7403   22.791       35.512    389.7808257           2          
MisPlume(west)    GOM_UW_1704    2017-04-11T20:12:32Z    -91.6175   28.7369   22.8127      35.656    397.0811305           2          
MisPlume(west)    GOM_UW_1704    2017-04-11T20:14:02Z    -91.6173   28.7335   22.8273      35.751    412.7598934           2          
MisPlume(west)    GOM_UW_1704    2017-04-11T20:15:30Z    -91.617    28.7301   22.8231      35.777    415.4778339           2          
MisPlume(west)    GOM_UW_1704    2017-04-11T20:16:58Z    -91.6168   28.7266   22.8556      35.834    415.7933236           2          
MisPlume(west)    GOM_UW_1704    2017-04-11T20:18:26Z    -91.6167   28.7233   22.8391      35.856    415.9792927           2          
MisPlume(west)    GOM_UW_1704    2017-04-11T20:19:55Z    -91.6165   28.7198   22.8821      35.896    410.8678119           2          
MisPlume(west)    GOM_UW_1704    2017-04-11T20:21:24Z    -91.6163   28.7164   22.9117      35.936    412.8934292           2          
MisPlume(west)    GOM_UW_1704    2017-04-11T20:22:53Z    -91.6164   28.713    22.9107      35.966    409.2301477           2          
MisPlume(west)    GOM_UW_1704    2017-04-11T20:24:23Z    -91.6167   28.7095   22.9389      36.049    406.4331013           2          
MisPlume(west)    GOM_UW_1704    2017-04-11T20:25:50Z    -91.6169   28.7061   22.9621      36.214    402.5405288           2          
MisPlume(west)    GOM_UW_1704    2017-04-11T20:27:21Z    -91.6172   28.7026   22.916       36.256    398.4965725           2          
MisPlume(west)    GOM_UW_1704    2017-04-11T20:28:51Z    -91.6175   28.6991   22.8529      36.251    398.1553753           2          
MisPlume(west)    GOM_UW_1704    2017-04-11T20:30:18Z    -91.6178   28.6958   22.851       36.238    399.3320195           2          
MisPlume(west)    GOM_UW_1704    2017-04-11T20:31:49Z    -91.6179   28.6927   22.781       36.177    402.1860669           2          
MisPlume(west)    GOM_UW_1704    2017-04-11T20:33:17Z    -91.6172   28.6924   22.7639      36.195    402.4745002           2          
MisPlume(west)    GOM_UW_1704    2017-04-11T20:34:45Z    -91.6171   28.6928   22.7787      36.209    402.9131204           2          
MisPlume(west)    GOM_UW_1704    2017-04-11T20:36:14Z    -91.6173   28.6931   22.8012      36.211    401.3663253           2          
MisPlume(west)    GOM_UW_1704    2017-04-11T20:37:42Z    -91.6175   28.6935   22.7809      36.197    402.1739966           2          
MisPlume(west)    GOM_UW_1704    2017-04-11T20:39:12Z    -91.6178   28.6937   22.7665      36.181    403.3463695           2          
MisPlume(west)    GOM_UW_1704    2017-04-11T20:40:39Z    -91.6182   28.6939   22.7627      36.171    400.5720114           2          
MisPlume(west)    GOM_UW_1704    2017-04-11T20:42:09Z    -91.6184   28.6941   22.7643      36.167    398.0863887           2          
MisPlume(west)    GOM_UW_1704    2017-04-11T20:43:39Z    -91.6188   28.6943   22.7747      36.164    396.4311698           2          
MisPlume(west)    GOM_UW_1704    2017-04-11T20:45:07Z    -91.6191   28.6945   22.7888      36.162    395.1113801           2          
MisPlume(west)    GOM_UW_1704    2017-04-11T20:46:35Z    -91.6195   28.6947   22.7932      36.163    395.2174138           2          
MisPlume(west)    GOM_UW_1704    2017-04-11T20:48:04Z    -91.6198   28.6948   22.8042      36.164    393.2136177           2          
MisPlume(west)    GOM_UW_1704    2017-04-11T20:49:32Z    -91.6201   28.695    22.8094      36.165    395.3696699           2          
MisPlume(west)    GOM_UW_1704    2017-04-11T20:51:02Z    -91.6205   28.6952   22.8255      36.165    393.251137            2          
MisPlume(west)    GOM_UW_1704    2017-04-11T20:52:29Z    -91.6208   28.6954   22.8408      36.165    391.3276313           2          
MisPlume(west)    GOM_UW_1704    2017-04-11T20:53:59Z    -91.6212   28.6956   22.8439      36.166    389.5889179           2          
MisPlume(west)    GOM_UW_1704    2017-04-11T20:55:28Z    -91.6215   28.6957   22.8439      36.168    390.1968283           2          
MisPlume(west)    GOM_UW_1704    2017-04-11T20:56:56Z    -91.6218   28.6959   22.8371      36.168    391.2429552           2          
MisPlume(west)    GOM_UW_1704    2017-04-11T20:58:27Z    -91.6221   28.696    22.8325      36.166    391.7485902           2          
MisPlume(west)    GOM_UW_1704    2017-04-11T20:59:55Z    -91.6224   28.6961   22.8166      36.166    392.2104016           2          
MisPlume(west)    GOM_UW_1704    2017-04-11T21:01:23Z    -91.6227   28.6963   22.8123      36.165    392.7970692           2          
MisPlume(west)    GOM_UW_1704    2017-04-11T21:02:51Z    -91.623    28.6965   22.796       36.164    393.1563538           2          
MisPlume(west)    GOM_UW_1704    2017-04-11T21:04:19Z    -91.6234   28.6966   22.7876      36.161    393.8064056           2          
MisPlume(west)    GOM_UW_1704    2017-04-11T21:05:48Z    -91.6236   28.6968   22.7971      36.159    390.1679919           2          
MisPlume(west)    GOM_UW_1704    2017-04-11T21:07:16Z    -91.6239   28.6969   22.7928      36.158    389.894004            2          
MisPlume(west)    GOM_UW_1704    2017-04-11T21:08:44Z    -91.6243   28.6971   22.8084      36.157    388.2304117           2          
MisPlume(west)    GOM_UW_1704    2017-04-11T21:10:13Z    -91.6246   28.6972   22.8026      36.146    386.2101644           2          
MisPlume(west)    GOM_UW_1704    2017-04-11T21:11:41Z    -91.625    28.6981   22.7977      36.163    388.2123175           2          
MisPlume(west)    GOM_UW_1704    2017-04-11T21:13:12Z    -91.6257   28.6973   22.7953      36.17     387.6842788           2          
MisPlume(west)    GOM_UW_1704    2017-04-11T21:14:39Z    -91.6255   28.6942   22.7854      36.163    393.350464            2          
MisPlume(west)    GOM_UW_1704    2017-04-11T21:16:10Z    -91.6251   28.6907   22.7949      36.148    394.7775474           2          
MisPlume(west)    GOM_UW_1704    2017-04-11T21:17:38Z    -91.6249   28.6873   22.77        36.153    395.4251756           2          
MisPlume(west)    GOM_UW_1704    2017-04-11T21:19:08Z    -91.6246   28.6838   22.7582      36.155    396.194114            2          
MisPlume(west)    GOM_UW_1704    2017-04-11T21:20:36Z    -91.6243   28.6804   22.7694      36.156    395.5962876           2          
MisPlume(west)    GOM_UW_1704    2017-04-11T21:22:05Z    -91.624    28.677    22.7508      36.157    395.5910997           2          
MisPlume(west)    GOM_UW_1704    2017-04-11T21:23:34Z    -91.6238   28.6736   22.7517      36.151    397.8356579           2          
MisPlume(west)    GOM_UW_1704    2017-04-11T21:25:03Z    -91.6235   28.6702   22.7502      36.138    395.5839484           2          
MisPlume(west)    GOM_UW_1704    2017-04-11T21:26:31Z    -91.6232   28.6668   22.98        36.134    402.9248186           2          
MisPlume(west)    GOM_UW_1704    2017-04-11T21:28:00Z    -91.623    28.6633   22.7651      36.138    396.0331261           2          
MisPlume(west)    GOM_UW_1704    2017-04-11T21:29:29Z    -91.6227   28.6599   22.7453      36.145    396.8579147           2          
MisPlume(west)    GOM_UW_1704    2017-04-11T21:30:56Z    -91.6225   28.6566   22.7388      36.152    395.5492603           2          
MisPlume(west)    GOM_UW_1704    2017-04-11T21:32:25Z    -91.6222   28.653    22.7103      36.155    394.9880253           2          
MisPlume(west)    GOM_UW_1704    2017-04-11T21:33:56Z    -91.6219   28.6495   22.6733      36.158    393.6965879           2          
MisPlume(west)    GOM_UW_1704    2017-04-11T21:35:24Z    -91.6217   28.646    22.6537      36.163    393.1813476           2          
MisPlume(west)    GOM_UW_1704    2017-04-11T21:36:52Z    -91.6214   28.6426   22.6255      36.172    395.2703149           2          
MisPlume(west)    GOM_UW_1704    2017-04-11T21:38:20Z    -91.6212   28.6392   22.6312      36.191    394.134535            2          
MisPlume(west)    GOM_UW_1704    2017-04-11T21:39:49Z    -91.6209   28.6357   22.78        36.251    391.549648            2          
MisPlume(west)    GOM_UW_1704    2017-04-11T21:41:19Z    -91.6206   28.6323   22.8009      36.26     391.2984121           2          
MisPlume(west)    GOM_UW_1704    2017-04-11T21:42:48Z    -91.6203   28.6288   22.808       36.263    390.1866683           2          
MisPlume(west)    GOM_UW_1704    2017-04-11T21:44:17Z    -91.62     28.6254   22.829       36.265    389.1290488           2          
MisPlume(west)    GOM_UW_1704    2017-04-11T21:45:44Z    -91.6197   28.622    22.8114      36.265    388.4636293           2          
MisPlume(west)    GOM_UW_1704    2017-04-11T21:47:14Z    -91.6195   28.6185   22.8156      36.268    387.4096162           2          
MisPlume(west)    GOM_UW_1704    2017-04-11T21:48:42Z    -91.6192   28.6151   22.8195      36.269    386.9931477           2          
MisPlume(west)    GOM_UW_1704    2017-04-11T21:50:12Z    -91.619    28.6117   22.8405      36.271    387.2867289           2          
MisPlume(west)    GOM_UW_1704    2017-04-11T21:51:40Z    -91.6189   28.6082   22.8109      36.271    386.6273366           2          
MisPlume(west)    GOM_UW_1704    2017-04-11T21:53:11Z    -91.6187   28.6047   22.8239      36.272    385.8148442           2          
MisPlume(west)    GOM_UW_1704    2017-04-11T21:54:42Z    -91.6186   28.6013   22.8282      36.271    385.500658            2          
MisPlume(west)    GOM_UW_1704    2017-04-11T21:56:09Z    -91.6184   28.5979   22.8306      36.272    385.5685967           2          
MisPlume(west)    GOM_UW_1704    2017-04-11T21:57:40Z    -91.618    28.5944   22.8432      36.273    384.4791104           2          
MisPlume(west)    GOM_UW_1704    2017-04-11T21:59:08Z    -91.6178   28.591    22.8327      36.274    384.4809956           2          
MisPlume(west)    GOM_UW_1704    2017-04-11T22:00:39Z    -91.6176   28.5875   22.8571      36.274    383.442162            2          
MisPlume(west)    GOM_UW_1704    2017-04-11T22:02:07Z    -91.6174   28.5842   22.8458      36.275    384.9915217           2          
MisPlume(west)    GOM_UW_1704    2017-04-11T22:03:36Z    -91.6166   28.5834   22.8667      36.277    381.8496761           2          
MisPlume(west)    GOM_UW_1704    2017-04-11T22:05:07Z    -91.6163   28.5837   22.8703      36.277    384.2767438           2          
MisPlume(west)    GOM_UW_1704    2017-04-11T22:06:35Z    -91.6164   28.5841   22.8506      36.275    384.0143487           2          
MisPlume(west)    GOM_UW_1704    2017-04-11T22:08:04Z    -91.6165   28.5843   22.8595      36.275    384.4189757           2          
MisPlume(west)    GOM_UW_1704    2017-04-11T22:09:32Z    -91.6168   28.5845   22.8671      36.275    385.3107151           2          
MisPlume(west)    GOM_UW_1704    2017-04-11T22:11:01Z    -91.617    28.5847   22.861       36.278    384.0775603           2          
MisPlume(west)    GOM_UW_1704    2017-04-11T22:12:32Z    -91.6173   28.5848   22.8555      36.277    383.8527379           2          
MisPlume(west)    GOM_UW_1704    2017-04-11T22:13:59Z    -91.6176   28.585    22.8503      36.277    383.6280849           2          
MisPlume(west)    GOM_UW_1704    2017-04-11T22:15:28Z    -91.6178   28.5851   22.8714      36.277    383.5733361           2          
MisPlume(west)    GOM_UW_1704    2017-04-11T22:16:58Z    -91.6181   28.5853   22.8759      36.277    382.2559813           2          
MisPlume(west)    GOM_UW_1704    2017-04-11T22:18:27Z    -91.6183   28.5855   22.8737      36.277    381.6704553           2          
MisPlume(west)    GOM_UW_1704    2017-04-11T22:19:57Z    -91.6185   28.5856   22.8841      36.277    380.1968886           2          
MisPlume(west)    GOM_UW_1704    2017-04-11T22:21:26Z    -91.6188   28.5858   22.887       36.278    381.4019037           2          
MisPlume(west)    GOM_UW_1704    2017-04-11T22:34:05Z    -91.6207   28.5873   22.8741      36.276    383.5565731           2          
MisPlume(west)    GOM_UW_1704    2017-04-11T22:35:34Z    -91.6209   28.5874   22.8745      36.276    384.3001154           2          
MisPlume(west)    GOM_UW_1704    2017-04-11T22:37:02Z    -91.6212   28.5876   22.873       36.276    384.5716779           2          
MisPlume(west)    GOM_UW_1704    2017-04-11T22:38:31Z    -91.6214   28.5877   22.8673      36.275    383.2332263           2          
MisPlume(west)    GOM_UW_1704    2017-04-11T22:39:59Z    -91.622    28.5882   22.8618      36.275    384.0771192           2          
MisPlume(west)    GOM_UW_1704    2017-04-11T22:41:30Z    -91.6221   28.5864   22.8554      36.282    383.9617831           2          
MisPlume(west)    GOM_UW_1704    2017-04-11T22:42:59Z    -91.622    28.5837   22.8677      36.282    385.9800623           2          
MisPlume(west)    GOM_UW_1704    2017-04-11T22:44:30Z    -91.6219   28.581    22.8749      36.283    386.1203249           2          
MisPlume(west)    GOM_UW_1704    2017-04-11T22:46:01Z    -91.6218   28.5782   22.86        36.283    384.602386            2          
MisPlume(west)    GOM_UW_1704    2017-04-11T22:47:29Z    -91.6217   28.5755   22.8485      36.283    386.0072939           2          
MisPlume(west)    GOM_UW_1704    2017-04-11T22:48:56Z    -91.6216   28.5728   22.8599      36.285    386.4098232           2          
MisPlume(west)    GOM_UW_1704    2017-04-11T22:50:24Z    -91.6215   28.5701   22.8616      36.286    384.664343            2          
MisPlume(west)    GOM_UW_1704    2017-04-11T22:51:53Z    -91.6213   28.5674   22.8884      36.282    385.9784756           2          
MisPlume(west)    GOM_UW_1704    2017-04-11T22:53:22Z    -91.6212   28.5646   22.8905      36.289    385.8584441           2          
MisPlume(west)    GOM_UW_1704    2017-04-11T22:54:51Z    -91.6211   28.5617   22.8783      36.29     386.3148583           2          
MisPlume(west)    GOM_UW_1704    2017-04-11T22:56:19Z    -91.621    28.559    22.8937      36.291    386.5718134           2          
MisPlume(west)    GOM_UW_1704    2017-04-11T22:57:46Z    -91.6209   28.5563   22.8987      36.292    386.2860078           2          
MisPlume(west)    GOM_UW_1704    2017-04-11T22:59:18Z    -91.6208   28.5536   22.903       36.293    386.5516903           2          
MisPlume(west)    GOM_UW_1704    2017-04-11T23:00:46Z    -91.6207   28.5509   22.9039      36.293    387.0330682           2          
MisPlume(west)    GOM_UW_1704    2017-04-11T23:02:14Z    -91.6206   28.5482   22.9084      36.294    384.9818129           2          
MisPlume(west)    GOM_UW_1704    2017-04-11T23:03:46Z    -91.6205   28.5454   22.9134      36.296    384.3574358           2          
MisPlume(west)    GOM_UW_1704    2017-04-11T23:05:15Z    -91.6204   28.5426   22.9272      36.297    385.4358102           2          
MisPlume(west)    GOM_UW_1704    2017-04-11T23:06:42Z    -91.6203   28.5399   22.9484      36.298    384.1382179           2          
MisPlume(west)    GOM_UW_1704    2017-04-11T23:08:13Z    -91.6202   28.5371   22.9475      36.298    382.9041856           2          
MisPlume(west)    GOM_UW_1704    2017-04-11T23:09:42Z    -91.6201   28.5344   22.9447      36.298    384.5389481           2          
MisPlume(west)    GOM_UW_1704    2017-04-11T23:11:13Z    -91.6199   28.5316   22.9541      36.298    385.860754            2          
MisPlume(west)    GOM_UW_1704    2017-04-11T23:12:41Z    -91.6198   28.5289   22.9523      36.299    386.1398553           2          
MisPlume(west)    GOM_UW_1704    2017-04-11T23:14:09Z    -91.6197   28.5261   22.9689      36.298    384.9979187           2          
MisPlume(west)    GOM_UW_1704    2017-04-11T23:15:41Z    -91.6196   28.5233   22.9586      36.3      389.4852713           2          
MisPlume(west)    GOM_UW_1704    2017-04-11T23:17:09Z    -91.6195   28.5207   22.9618      36.3      387.2253127           2          
MisPlume(west)    GOM_UW_1704    2017-04-11T23:18:36Z    -91.6194   28.5179   22.9793      36.298    388.2926464           2          
MisPlume(west)    GOM_UW_1704    2017-04-11T23:20:05Z    -91.6193   28.5152   23.0114      36.296    387.5442235           2          
MisPlume(west)    GOM_UW_1704    2017-04-11T23:21:32Z    -91.6192   28.5125   22.9949      36.296    387.9429435           2          
MisPlume(west)    GOM_UW_1704    2017-04-11T23:23:04Z    -91.6191   28.5097   23.0027      36.293    388.2380101           2          
MisPlume(west)    GOM_UW_1704    2017-04-11T23:24:31Z    -91.619    28.5071   23.0049      36.291    390.3154287           2          
MisPlume(west)    GOM_UW_1704    2017-04-11T23:26:00Z    -91.6189   28.5044   23.0245      36.288    389.2462212           2          
MisPlume(west)    GOM_UW_1704    2017-04-11T23:27:28Z    -91.6188   28.5017   23.0205      36.287    387.8381809           2          
MisPlume(west)    GOM_UW_1704    2017-04-11T23:28:56Z    -91.6187   28.499    23.0404      36.285    389.7193914           2          
MisPlume(west)    GOM_UW_1704    2017-04-11T23:30:24Z    -91.6186   28.4963   23.0097      36.285    390.2126225           2          
MisPlume(west)    GOM_UW_1704    2017-04-11T23:31:55Z    -91.6184   28.4935   23.0243      36.283    389.7153464           2          
MisPlume(west)    GOM_UW_1704    2017-04-11T23:33:26Z    -91.6183   28.4906   23.0394      36.28     391.1912389           2          
MisPlume(west)    GOM_UW_1704    2017-04-11T23:34:54Z    -91.6182   28.488    23.0415      36.279    390.8453226           2          
MisPlume(west)    GOM_UW_1704    2017-04-11T23:36:22Z    -91.6181   28.4854   23.0566      36.276    390.9804317           2          
MisPlume(west)    GOM_UW_1704    2017-04-11T23:37:51Z    -91.618    28.4826   23.0529      36.275    392.0720136           2          
MisPlume(west)    GOM_UW_1704    2017-04-11T23:39:23Z    -91.6179   28.4798   23.0684      36.273    395.9764007           2          
MisPlume(west)    GOM_UW_1704    2017-04-11T23:40:53Z    -91.6178   28.477    23.0539      36.271    394.4161528           2          
MisPlume(west)    GOM_UW_1704    2017-04-11T23:42:22Z    -91.6177   28.4742   23.054       36.271    394.6784865           2          
MisPlume(west)    GOM_UW_1704    2017-04-11T23:43:51Z    -91.6176   28.4715   23.0493      36.272    393.9259913           2          
MisPlume(west)    GOM_UW_1704    2017-04-11T23:45:18Z    -91.6174   28.4688   23.042       36.271    394.6762624           2          
MisPlume(west)    GOM_UW_1704    2017-04-11T23:46:49Z    -91.6174   28.466    23.0519      36.27     397.2748344           2          
MisPlume(west)    GOM_UW_1704    2017-04-11T23:48:17Z    -91.6173   28.4633   23.0471      36.269    395.6244664           2          
MisPlume(west)    GOM_UW_1704    2017-04-11T23:49:46Z    -91.6172   28.4605   23.0533      36.269    393.1736514           2          
MisPlume(west)    GOM_UW_1704    2017-04-11T23:51:14Z    -91.617    28.4578   23.0545      36.268    394.7169206           2          
MisPlume(west)    GOM_UW_1704    2017-04-11T23:52:43Z    -91.6169   28.4552   23.0703      36.268    393.7310676           2          
MisPlume(west)    GOM_UW_1704    2017-04-11T23:54:14Z    -91.6168   28.4524   23.0852      36.268    395.3904321           2          
MisPlume(west)    GOM_UW_1704    2017-04-11T23:55:46Z    -91.6166   28.4502   23.083       36.268    393.6488745           2          
MisPlume(west)    GOM_UW_1704    2017-04-11T23:57:17Z    -91.6163   28.4503   23.0938      36.267    393.4744559           2          
MisPlume(west)    GOM_UW_1704    2017-04-11T23:58:44Z    -91.6164   28.4505   23.1043      36.268    391.3005498           2          
MisPlume(west)    GOM_UW_1704    2017-04-12T00:00:13Z    -91.6166   28.4507   23.0981      36.268    393.650038            2          
MisPlume(west)    GOM_UW_1704    2017-04-12T00:01:42Z    -91.6167   28.4509   23.0968      36.267    393.1632221           2          
MisPlume(west)    GOM_UW_1704    2017-04-12T00:03:11Z    -91.617    28.451    23.0948      36.267    391.592996            2          
MisPlume(west)    GOM_UW_1704    2017-04-12T00:04:39Z    -91.6172   28.4511   23.0978      36.267    392.6622491           2          
MisPlume(west)    GOM_UW_1704    2017-04-12T00:06:07Z    -91.6175   28.4513   23.0905      36.268    396.1021927           2          
MisPlume(west)    GOM_UW_1704    2017-04-12T00:07:37Z    -91.6177   28.4514   23.084       36.268    394.2996253           2          
MisPlume(west)    GOM_UW_1704    2017-04-12T00:09:05Z    -91.618    28.4515   23.0802      36.268    396.4729645           2          
MisPlume(west)    GOM_UW_1704    2017-04-12T00:10:33Z    -91.6182   28.4516   23.0843      36.268    395.7111032           2          
MisPlume(west)    GOM_UW_1704    2017-04-12T00:12:02Z    -91.6185   28.4517   23.0894      36.268    390.3807608           2          
MisPlume(west)    GOM_UW_1704    2017-04-12T00:13:33Z    -91.6188   28.4518   23.0841      36.267    395.717574            2          
MisPlume(west)    GOM_UW_1704    2017-04-12T00:15:01Z    -91.619    28.4519   23.079       36.267    395.4912181           2          
MisPlume(west)    GOM_UW_1704    2017-04-12T00:16:30Z    -91.6193   28.452    23.0767      36.267    392.0260754           2          
MisPlume(west)    GOM_UW_1704    2017-04-12T00:18:00Z    -91.6196   28.4522   23.0734      36.268    396.7955472           2          
MisPlume(west)    GOM_UW_1704    2017-04-12T00:19:31Z    -91.6199   28.4523   23.0697      36.268    398.7977959           2          
MisPlume(west)    GOM_UW_1704    2017-04-12T00:21:01Z    -91.6202   28.4524   23.0724      36.268    396.51205             2          
MisPlume(west)    GOM_UW_1704    2017-04-12T00:22:31Z    -91.6205   28.4525   23.068       36.268    397.5218813           2          
MisPlume(west)    GOM_UW_1704    2017-04-12T00:24:00Z    -91.6208   28.4526   23.0691      36.267    394.2498293           2          
MisPlume(west)    GOM_UW_1704    2017-04-12T00:25:27Z    -91.621    28.4527   23.0718      36.268    393.5412484           2          
MisPlume(west)    GOM_UW_1704    2017-04-12T00:26:57Z    -91.6213   28.4528   23.0727      36.268    395.271002            2          
MisPlume(west)    GOM_UW_1704    2017-04-12T00:28:28Z    -91.6218   28.4533   23.0752      36.267    392.2129666           2          
MisPlume(west)    GOM_UW_1704    2017-04-12T00:29:55Z    -91.6229   28.453    23.058       36.267    390.5237611           2          
MisPlume(west)    GOM_UW_1704    2017-04-12T00:31:26Z    -91.6228   28.4501   23.0634      36.267    393.6454246           2          
MisPlume(west)    GOM_UW_1704    2017-04-12T00:32:55Z    -91.6227   28.4466   23.0741      36.266    397.1905736           2          
MisPlume(west)    GOM_UW_1704    2017-04-12T00:34:23Z    -91.6226   28.4431   23.0845      36.266    401.5030744           2          
MisPlume(west)    GOM_UW_1704    2017-04-12T00:35:51Z    -91.6226   28.4396   23.0814      36.265    395.4622159           2          
MisPlume(west)    GOM_UW_1704    2017-04-12T00:37:22Z    -91.6225   28.436    23.0833      36.265    396.5356947           2          
MisPlume(west)    GOM_UW_1704    2017-04-12T00:38:50Z    -91.6224   28.4325   23.086       36.262    395.6214051           2          
MisPlume(west)    GOM_UW_1704    2017-04-12T00:40:19Z    -91.6224   28.429    23.0868      36.265    399.1643753           2          
MisPlume(west)    GOM_UW_1704    2017-04-12T00:41:46Z    -91.6223   28.4256   23.0807      36.264    401.0611651           2          
MisPlume(west)    GOM_UW_1704    2017-04-12T00:43:15Z    -91.6223   28.4221   23.086       36.262    397.8401667           2          
MisPlume(west)    GOM_UW_1704    2017-04-12T00:44:42Z    -91.6222   28.4186   23.0851      36.263    395.6656454           2          
MisPlume(west)    GOM_UW_1704    2017-04-12T00:46:11Z    -91.6221   28.4151   23.0906      36.261    396.2394925           2          
MisPlume(west)    GOM_UW_1704    2017-04-12T00:47:39Z    -91.6221   28.4116   23.0901      36.259    395.7527475           2          
MisPlume(west)    GOM_UW_1704    2017-04-12T00:49:07Z    -91.622    28.4081   23.0779      36.259    393.6369576           2          
MisPlume(west)    GOM_UW_1704    2017-04-12T00:50:36Z    -91.6219   28.4046   23.0677      36.259    392.7870077           2          
MisPlume(west)    GOM_UW_1704    2017-04-12T00:52:04Z    -91.6218   28.4011   23.081       36.257    396.3476983           2          
MisPlume(west)    GOM_UW_1704    2017-04-12T00:53:34Z    -91.6218   28.3976   23.0761      36.256    394.6730683           2          
MisPlume(west)    GOM_UW_1704    2017-04-12T00:55:02Z    -91.6216   28.3941   23.0692      36.256    397.987141            2          
MisPlume(west)    GOM_UW_1704    2017-04-12T00:56:31Z    -91.6216   28.3906   23.0659      36.255    394.9501471           2          
MisPlume(west)    GOM_UW_1704    2017-04-12T00:57:59Z    -91.6216   28.3872   23.0744      36.256    394.0724836           2          
MisPlume(west)    GOM_UW_1704    2017-04-12T00:59:29Z    -91.6215   28.3837   23.0652      36.257    393.7884484           2          
MisPlume(west)    GOM_UW_1704    2017-04-12T01:00:57Z    -91.6214   28.3802   23.074       36.257    392.7006044           2          
MisPlume(west)    GOM_UW_1704    2017-04-12T01:02:27Z    -91.6214   28.3767   23.0618      36.256    398.3681305           2          
MisPlume(west)    GOM_UW_1704    2017-04-12T01:03:56Z    -91.6213   28.3732   23.0514      36.255    395.4041151           2          
MisPlume(west)    GOM_UW_1704    2017-04-12T01:05:24Z    -91.6212   28.3698   23.0526      36.255    398.2624431           2          
MisPlume(west)    GOM_UW_1704    2017-04-12T01:06:53Z    -91.6211   28.3663   23.0609      36.254    393.7323286           2          
MisPlume(west)    GOM_UW_1704    2017-04-12T01:08:21Z    -91.6211   28.3628   23.1247      36.245    392.9827247           2          
MisPlume(west)    GOM_UW_1704    2017-04-12T01:09:49Z    -91.621    28.3593   23.0956      36.244    392.8100486           2          
MisPlume(west)    GOM_UW_1704    2017-04-12T01:11:17Z    -91.6209   28.3558   23.1152      36.236    394.6839348           2          
MisPlume(west)    GOM_UW_1704    2017-04-12T01:12:48Z    -91.6209   28.3522   23.126       36.232    395.2916362           2          
MisPlume(west)    GOM_UW_1704    2017-04-12T01:14:16Z    -91.6208   28.3487   23.1747      36.209    398.4405836           2          
MisPlume(west)    GOM_UW_1704    2017-04-12T01:15:47Z    -91.6207   28.3449   23.1882      36.197    398.8437757           2          
MisPlume(west)    GOM_UW_1704    2017-04-12T01:17:15Z    -91.6207   28.3414   23.1875      36.194    401.248651            2          
MisPlume(west)    GOM_UW_1704    2017-04-12T01:18:43Z    -91.6206   28.3378   23.1779      36.192    396.9567096           2          
MisPlume(west)    GOM_UW_1704    2017-04-12T01:20:12Z    -91.6205   28.3343   23.1754      36.191    404.2177161           2          
MisPlume(west)    GOM_UW_1704    2017-04-12T01:21:40Z    -91.6204   28.3307   23.1789      36.185    400.6084902           2          
MisPlume(west)    GOM_UW_1704    2017-04-12T01:23:10Z    -91.6204   28.3271   23.1988      36.18     396.3547566           2          
MisPlume(west)    GOM_UW_1704    2017-04-12T01:24:38Z    -91.6202   28.3236   23.2025      36.177    403.2219214           2          
MisPlume(west)    GOM_UW_1704    2017-04-12T01:26:05Z    -91.6202   28.32     23.213       36.173    401.04465             2          
MisPlume(west)    GOM_UW_1704    2017-04-12T01:27:34Z    -91.6202   28.3164   23.2258      36.168    398.6879941           2          
MisPlume(west)    GOM_UW_1704    2017-04-12T01:29:05Z    -91.6201   28.3127   23.2331      36.166    397.6060666           2          
MisPlume(west)    GOM_UW_1704    2017-04-12T01:30:34Z    -91.62     28.309    23.2549      36.162    400.3642885           2          
MisPlume(west)    GOM_UW_1704    2017-04-12T01:43:10Z    -91.6194   28.2783   23.3775      36.102    401.3054733           2          
MisPlume(west)    GOM_UW_1704    2017-04-12T01:44:38Z    -91.6193   28.2747   23.3853      36.098    401.3636599           2          
MisPlume(west)    GOM_UW_1704    2017-04-12T01:46:08Z    -91.6192   28.271    23.4074      36.092    401.1387176           2          
MisPlume(west)    GOM_UW_1704    2017-04-12T01:47:39Z    -91.6192   28.2674   23.412       36.087    401.0648732           2          
MisPlume(west)    GOM_UW_1704    2017-04-12T01:49:08Z    -91.6191   28.2637   23.4152      36.085    398.5140335           2          
MisPlume(west)    GOM_UW_1704    2017-04-12T01:50:37Z    -91.619    28.2601   23.4135      36.082    396.5054608           2          
MisPlume(west)    GOM_UW_1704    2017-04-12T01:52:05Z    -91.6189   28.2565   23.4168      36.075    400.7944439           2          
MisPlume(west)    GOM_UW_1704    2017-04-12T01:53:34Z    -91.6189   28.253    23.4298      36.074    398.6863048           2          
MisPlume(west)    GOM_UW_1704    2017-04-12T01:55:01Z    -91.6189   28.2495   23.4356      36.068    402.0362399           2          
MisPlume(west)    GOM_UW_1704    2017-04-12T01:56:29Z    -91.6188   28.246    23.4534      36.064    405.8394734           2          
MisPlume(west)    GOM_UW_1704    2017-04-12T01:57:57Z    -91.6187   28.2425   23.4542      36.057    404.3986987           2          
MisPlume(west)    GOM_UW_1704    2017-04-12T01:59:26Z    -91.6186   28.2389   23.4804      36.046    404.4744487           2          
MisPlume(west)    GOM_UW_1704    2017-04-12T02:00:57Z    -91.6185   28.2353   23.4799      36.04     402.490711            2          
MisPlume(west)    GOM_UW_1704    2017-04-12T02:02:25Z    -91.6184   28.2317   23.4924      36.042    400.2238283           2          
MisPlume(west)    GOM_UW_1704    2017-04-12T02:03:55Z    -91.6184   28.2281   23.4981      36.039    405.4159998           2          
MisPlume(west)    GOM_UW_1704    2017-04-12T02:05:24Z    -91.6183   28.2245   23.5135      36.037    404.0212453           2          
MisPlume(west)    GOM_UW_1704    2017-04-12T02:06:51Z    -91.6182   28.2211   23.5046      36.029    405.2975675           2          
MisPlume(west)    GOM_UW_1704    2017-04-12T02:08:20Z    -91.6181   28.2175   23.4922      36.023    401.2828396           2          
MisPlume(west)    GOM_UW_1704    2017-04-12T02:09:48Z    -91.6181   28.2139   23.4842      36.022    400.421594            2          
MisPlume(west)    GOM_UW_1704    2017-04-12T02:11:16Z    -91.6181   28.2104   23.4849      36.019    404.7715523           2          
MisPlume(west)    GOM_UW_1704    2017-04-12T02:12:44Z    -91.618    28.2068   23.5164      36.012    403.3253854           2          
MisPlume(west)    GOM_UW_1704    2017-04-12T02:14:12Z    -91.6179   28.2032   23.5184      36.01     403.1877328           2          
MisPlume(west)    GOM_UW_1704    2017-04-12T02:15:44Z    -91.6178   28.1995   23.5084      36.01     403.7450975           2          
MisPlume(west)    GOM_UW_1704    2017-04-12T02:17:14Z    -91.6178   28.1959   23.5085      36.012    402.0197366           2          
MisPlume(west)    GOM_UW_1704    2017-04-12T02:18:44Z    -91.6177   28.1923   23.5186      36        402.905763            2          
MisPlume(west)    GOM_UW_1704    2017-04-12T02:20:14Z    -91.6176   28.1887   23.5344      35.971    402.0899294           2          
MisPlume(west)    GOM_UW_1704    2017-04-12T02:21:41Z    -91.6175   28.1852   23.5367      35.93     400.4821165           2          
MisPlume(west)    GOM_UW_1704    2017-04-12T02:23:10Z    -91.6175   28.1816   23.5316      35.877    403.8267407           2          
MisPlume(west)    GOM_UW_1704    2017-04-12T02:24:38Z    -91.6174   28.1781   23.513       35.853    403.9356326           2          
MisPlume(west)    GOM_UW_1704    2017-04-12T02:26:06Z    -91.6173   28.1747   23.4977      35.864    408.5120694           2          
MisPlume(west)    GOM_UW_1704    2017-04-12T02:27:36Z    -91.6173   28.171    23.5058      35.855    402.8548183           2          
MisPlume(west)    GOM_UW_1704    2017-04-12T02:29:04Z    -91.6172   28.1675   23.5129      35.825    400.7162086           2          
MisPlume(west)    GOM_UW_1704    2017-04-12T02:30:32Z    -91.6171   28.164    23.492       35.776    403.3340402           2          
MisPlume(west)    GOM_UW_1704    2017-04-12T02:32:01Z    -91.6171   28.1605   23.472       35.731    402.8669336           2          
MisPlume(west)    GOM_UW_1704    2017-04-12T02:33:29Z    -91.617    28.157    23.4609      35.702    401.751595            2          
MisPlume(west)    GOM_UW_1704    2017-04-12T02:34:58Z    -91.617    28.1534   23.4477      35.682    403.2839014           2          
MisPlume(west)    GOM_UW_1704    2017-04-12T02:36:27Z    -91.6169   28.1499   23.444       35.68     404.6019699           2          
MisPlume(west)    GOM_UW_1704    2017-04-12T02:37:55Z    -91.6168   28.1464   23.4467      35.658    405.9972529           2          
MisPlume(west)    GOM_UW_1704    2017-04-12T02:39:26Z    -91.6167   28.1428   23.4529      35.643    406.027531            2          
MisPlume(west)    GOM_UW_1704    2017-04-12T02:40:54Z    -91.6167   28.1393   23.4549      35.629    404.6153809           2          
MisPlume(west)    GOM_UW_1704    2017-04-12T02:42:23Z    -91.6166   28.1357   23.4518      35.621    402.2970752           2          
MisPlume(west)    GOM_UW_1704    2017-04-12T02:43:54Z    -91.6165   28.1321   23.4496      35.616    399.9393481           2          
MisPlume(west)    GOM_UW_1704    2017-04-12T02:45:21Z    -91.6166   28.1286   23.4636      35.601    403.1385005           2          
MisPlume(west)    GOM_UW_1704    2017-04-12T02:46:51Z    -91.6166   28.125    23.473       35.591    403.4290149           2          
MisPlume(west)    GOM_UW_1704    2017-04-12T02:48:18Z    -91.6167   28.1215   23.4856      35.583    403.293506            2          
MisPlume(west)    GOM_UW_1704    2017-04-12T02:49:50Z    -91.6167   28.1178   23.4968      35.558    402.9986211           2          
MisPlume(west)    GOM_UW_1704    2017-04-12T02:51:19Z    -91.6168   28.1143   23.4941      35.547    403.2914849           2          
MisPlume(west)    GOM_UW_1704    2017-04-12T02:52:47Z    -91.6168   28.1108   23.4928      35.543    404.2414322           2          
MisPlume(west)    GOM_UW_1704    2017-04-12T02:54:16Z    -91.6168   28.1072   23.4922      35.535    402.5452876           2          
MisPlume(west)    GOM_UW_1704    2017-04-12T02:55:45Z    -91.6169   28.1037   23.4921      35.525    401.0901585           2          
MisPlume(west)    GOM_UW_1704    2017-04-12T02:57:13Z    -91.617    28.1003   23.4945      35.511    402.0087273           2          
MisPlume(west)    GOM_UW_1704    2017-04-12T02:58:41Z    -91.6171   28.0968   23.4825      35.508    402.8288358           2          
MisPlume(west)    GOM_UW_1704    2017-04-12T03:00:08Z    -91.6171   28.0933   23.4749      35.5      402.6522906           2          
MisPlume(west)    GOM_UW_1704    2017-04-12T03:01:37Z    -91.6172   28.0897   23.4642      35.503    399.7505479           2          
MisPlume(west)    GOM_UW_1704    2017-04-12T03:03:05Z    -91.6172   28.0862   23.4571      35.501    399.9729664           2          
MisPlume(west)    GOM_UW_1704    2017-04-12T03:04:33Z    -91.6173   28.0827   23.4581      35.496    401.9108718           2          
MisPlume(west)    GOM_UW_1704    2017-04-12T03:06:01Z    -91.6174   28.0792   23.4608      35.49     401.1226991           2          
MisPlume(west)    GOM_UW_1704    2017-04-12T03:07:29Z    -91.6174   28.0758   23.4655      35.487    402.5174698           2          
MisPlume(west)    GOM_UW_1704    2017-04-12T03:08:57Z    -91.6175   28.0722   23.472       35.485    398.4660483           2          
MisPlume(west)    GOM_UW_1704    2017-04-12T03:10:26Z    -91.6176   28.0686   23.474       35.484    399.540834            2          
MisPlume(west)    GOM_UW_1704    2017-04-12T03:11:55Z    -91.6176   28.0651   23.477       35.484    399.7000072           2          
MisPlume(west)    GOM_UW_1704    2017-04-12T03:13:24Z    -91.6177   28.0616   23.4794      35.484    402.5430153           2          
MisPlume(west)    GOM_UW_1704    2017-04-12T03:14:51Z    -91.6177   28.0581   23.4899      35.485    402.3013446           2          
MisPlume(west)    GOM_UW_1704    2017-04-12T03:16:20Z    -91.6177   28.0545   23.518       35.486    401.1498718           2          
MisPlume(west)    GOM_UW_1704    2017-04-12T03:17:49Z    -91.6176   28.051    23.5426      35.486    401.7913043           2          
MisPlume(west)    GOM_UW_1704    2017-04-12T03:19:17Z    -91.6176   28.0474   23.5541      35.484    403.3034907           2          
MisPlume(west)    GOM_UW_1704    2017-04-12T03:20:48Z    -91.6175   28.0438   23.5635      35.482    403.9708136           2          
MisPlume(west)    GOM_UW_1704    2017-04-12T03:22:17Z    -91.6174   28.0402   23.5719      35.477    403.3890109           2          
MisPlume(west)    GOM_UW_1704    2017-04-12T03:23:45Z    -91.6174   28.0367   23.5694      35.479    402.7932479           2          
MisPlume(west)    GOM_UW_1704    2017-04-12T03:25:15Z    -91.6173   28.0332   23.5667      35.481    406.4244745           2          
MisPlume(west)    GOM_UW_1704    2017-04-12T03:26:45Z    -91.6172   28.0296   23.5685      35.479    398.9167627           2          
MisPlume(west)    GOM_UW_1704    2017-04-12T03:28:13Z    -91.6171   28.0261   23.5743      35.473    402.3547553           2          
MisPlume(west)    GOM_UW_1704    2017-04-12T03:29:43Z    -91.6171   28.0225   23.5741      35.471    398.603065            2          
MisPlume(west)    GOM_UW_1704    2017-04-12T03:31:12Z    -91.6171   28.019    23.5699      35.471    398.075801            2          
MisPlume(west)    GOM_UW_1704    2017-04-12T03:32:39Z    -91.617    28.0155   23.5772      35.462    400.6630864           2          
MisPlume(west)    GOM_UW_1704    2017-04-12T03:34:09Z    -91.6169   28.012    23.5737      35.46     403.7547704           2          
MisPlume(west)    GOM_UW_1704    2017-04-12T03:35:36Z    -91.6168   28.0086   23.5717      35.455    401.6137975           2          
MisPlume(west)    GOM_UW_1704    2017-04-12T03:37:07Z    -91.6167   28.005    23.5698      35.458    400.5788264           2          
MisPlume(west)    GOM_UW_1704    2017-04-12T03:38:35Z    -91.6167   28.0024   23.571       35.458    401.4354551           2          
MisPlume(west)    GOM_UW_1704    2017-04-12T03:40:04Z    -91.6166   28.0009   23.5768      35.457    401.8473781           2          
MisPlume(west)    GOM_UW_1704    2017-04-12T03:41:33Z    -91.6164   28.0003   23.5755      35.458    393.6871145           2          
MisPlume(west)    GOM_UW_1704    2017-04-12T03:43:04Z    -91.6165   28.0004   23.5768      35.457    398.8552038           2          
MisPlume(west)    GOM_UW_1704    2017-04-12T03:44:33Z    -91.6167   28.0005   23.5777      35.458    401.1672582           2          
MisPlume(west)    GOM_UW_1704    2017-04-12T03:46:03Z    -91.617    28.0006   23.5757      35.458    403.835807            2          
MisPlume(west)    GOM_UW_1704    2017-04-12T03:47:33Z    -91.6171   28.0007   23.5803      35.459    401.2987279           2          
MisPlume(west)    GOM_UW_1704    2017-04-12T03:49:00Z    -91.6173   28.0008   23.5797      35.459    403.4570637           2          
MisPlume(west)    GOM_UW_1704    2017-04-12T03:50:29Z    -91.6175   28.0009   23.5769      35.461    403.5690646           2          
MisPlume(west)    GOM_UW_1704    2017-04-12T03:52:01Z    -91.6177   28.0009   23.58        35.441    401.1213587           2          
MisPlume(west)    GOM_UW_1704    2017-04-12T03:53:28Z    -91.6179   28.001    23.5741      35.463    402.8953544           2          
MisPlume(west)    GOM_UW_1704    2017-04-12T03:54:59Z    -91.6181   28.001    23.5769      35.464    399.2765084           2          
MisPlume(west)    GOM_UW_1704    2017-04-12T03:56:28Z    -91.6183   28.0011   23.5747      35.465    401.4744016           2          
MisPlume(west)    GOM_UW_1704    2017-04-12T03:57:58Z    -91.6184   28.0012   23.5684      35.466    403.7451385           2          
MisPlume(west)    GOM_UW_1704    2017-04-12T03:59:30Z    -91.6186   28.0013   23.5723      35.467    398.967047            2          
MisPlume(west)    GOM_UW_1704    2017-04-12T04:01:01Z    -91.6188   28.0014   23.5705      35.468    400.3261354           2          
MisPlume(west)    GOM_UW_1704    2017-04-12T04:02:32Z    -91.619    28.0015   23.5742      35.469    399.0375494           2          
MisPlume(west)    GOM_UW_1704    2017-04-12T04:04:03Z    -91.6193   28.0016   23.568       35.475    401.0312243           2          
MisPlume(west)    GOM_UW_1704    2017-04-12T04:05:31Z    -91.6195   28.0017   23.5635      35.476    400.1369111           2          
MisPlume(west)    GOM_UW_1704    2017-04-12T04:06:59Z    -91.6198   28.0018   23.5802      35.477    400.7261448           2          
MisPlume(west)    GOM_UW_1704    2017-04-12T04:08:27Z    -91.62     28.002    23.5763      35.478    391.9712788           2          
MisPlume(west)    GOM_UW_1704    2017-04-12T04:54:36Z    -91.6256   28.0457   23.5489      35.488    393.703811            2          
MisPlume(west)    GOM_UW_1704    2017-04-12T04:56:04Z    -91.6262   28.0492   23.5413      35.491    396.3174813           2          
MisPlume(west)    GOM_UW_1704    2017-04-12T04:57:32Z    -91.6269   28.0528   23.5452      35.428    394.85877             2          
MisPlume(west)    GOM_UW_1704    2017-04-12T04:59:03Z    -91.6276   28.0565   23.5495      35.488    395.3008747           2          
MisPlume(west)    GOM_UW_1704    2017-04-12T05:00:34Z    -91.6282   28.0602   23.5436      35.486    394.0489524           2          
MisPlume(west)    GOM_UW_1704    2017-04-12T05:02:02Z    -91.6289   28.0638   23.538       35.487    395.1867228           2          
MisPlume(west)    GOM_UW_1704    2017-04-12T05:03:31Z    -91.6295   28.0674   23.5219      35.493    394.085182            2          
MisPlume(west)    GOM_UW_1704    2017-04-12T05:04:58Z    -91.6302   28.0709   23.5091      35.492    399.192713            2          
MisPlume(west)    GOM_UW_1704    2017-04-12T05:06:29Z    -91.6308   28.0746   23.4898      35.495    394.3798269           2          
MisPlume(west)    GOM_UW_1704    2017-04-12T05:07:58Z    -91.6315   28.0782   23.487       35.472    393.4188553           2          
MisPlume(west)    GOM_UW_1704    2017-04-12T05:09:25Z    -91.6321   28.0817   23.4813      35.494    392.4123153           2          
MisPlume(west)    GOM_UW_1704    2017-04-12T05:10:54Z    -91.6328   28.0853   23.4725      35.495    392.8878367           2          
MisPlume(west)    GOM_UW_1704    2017-04-12T05:12:24Z    -91.6334   28.089    23.4658      35.471    391.9458258           2          
MisPlume(west)    GOM_UW_1704    2017-04-12T05:13:54Z    -91.6341   28.0926   23.4523      35.493    394.0937677           2          
MisPlume(west)    GOM_UW_1704    2017-04-12T05:15:25Z    -91.6348   28.0964   23.448       35.503    394.2568136           2          
MisPlume(west)    GOM_UW_1704    2017-04-12T05:16:54Z    -91.6354   28.1      23.439       35.508    393.8076694           2          
MisPlume(west)    GOM_UW_1704    2017-04-12T05:18:23Z    -91.6361   28.1036   23.4318      35.514    394.707057            2          
MisPlume(west)    GOM_UW_1704    2017-04-12T05:19:51Z    -91.6367   28.1072   23.4298      35.516    396.4943994           2          
MisPlume(west)    GOM_UW_1704    2017-04-12T05:21:22Z    -91.6374   28.1109   23.4327      35.526    390.8645169           2          
MisPlume(west)    GOM_UW_1704    2017-04-12T05:22:53Z    -91.6381   28.1146   23.4356      35.527    393.6370799           2          
MisPlume(west)    GOM_UW_1704    2017-04-12T05:24:22Z    -91.6387   28.1181   23.4351      35.545    393.2100963           2          
MisPlume(west)    GOM_UW_1704    2017-04-12T05:25:49Z    -91.6393   28.1216   23.4408      35.549    394.5667776           2          
MisPlume(west)    GOM_UW_1704    2017-04-12T05:27:18Z    -91.64     28.1252   23.4445      35.557    391.3792011           2          
MisPlume(west)    GOM_UW_1704    2017-04-12T05:28:49Z    -91.6407   28.1289   23.4489      35.567    397.2159888           2          
MisPlume(west)    GOM_UW_1704    2017-04-12T05:30:18Z    -91.6413   28.1325   23.4404      35.582    401.4382466           2          
MisPlume(west)    GOM_UW_1704    2017-04-12T05:31:46Z    -91.6421   28.1361   23.4227      35.608    394.7206095           2          
MisPlume(west)    GOM_UW_1704    2017-04-12T05:33:14Z    -91.6427   28.1396   23.413       35.625    395.0470924           2          
MisPlume(west)    GOM_UW_1704    2017-04-12T05:34:43Z    -91.6433   28.1431   23.4048      35.635    395.1641281           2          
MisPlume(west)    GOM_UW_1704    2017-04-12T05:36:11Z    -91.644    28.1467   23.4096      35.647    393.3732742           2          
MisPlume(west)    GOM_UW_1704    2017-04-12T05:37:42Z    -91.6447   28.1503   23.4082      35.662    397.0652571           2          
MisPlume(west)    GOM_UW_1704    2017-04-12T05:39:10Z    -91.6453   28.1538   23.403       35.679    392.8709677           2          
MisPlume(west)    GOM_UW_1704    2017-04-12T05:40:38Z    -91.646    28.1574   23.3979      35.7      391.2536257           2          
MisPlume(west)    GOM_UW_1704    2017-04-12T05:42:07Z    -91.6467   28.1609   23.3991      35.714    393.633654            2          
MisPlume(west)    GOM_UW_1704    2017-04-12T05:43:35Z    -91.6473   28.1644   23.4032      35.72     393.9826116           2          
MisPlume(west)    GOM_UW_1704    2017-04-12T05:45:04Z    -91.648    28.168    23.4051      35.729    396.6267022           2          
MisPlume(west)    GOM_UW_1704    2017-04-12T05:46:33Z    -91.6486   28.1716   23.4062      35.738    393.8525936           2          
MisPlume(west)    GOM_UW_1704    2017-04-12T05:48:01Z    -91.6493   28.1751   23.4108      35.767    394.850223            2          
MisPlume(west)    GOM_UW_1704    2017-04-12T05:49:29Z    -91.6499   28.1786   23.4168      35.776    395.8033441           2          
MisPlume(west)    GOM_UW_1704    2017-04-12T05:50:59Z    -91.6506   28.1822   23.4207      35.787    395.9302898           2          
MisPlume(west)    GOM_UW_1704    2017-04-12T05:52:27Z    -91.6512   28.1858   23.4179      35.8      394.8678789           2          
MisPlume(west)    GOM_UW_1704    2017-04-12T05:53:58Z    -91.6519   28.1894   23.4211      35.827    394.8556198           2          
MisPlume(west)    GOM_UW_1704    2017-04-12T05:55:26Z    -91.6526   28.193    23.4307      35.843    398.261381            2          
MisPlume(west)    GOM_UW_1704    2017-04-12T05:56:54Z    -91.6533   28.1965   23.4388      35.866    394.7836124           2          
MisPlume(west)    GOM_UW_1704    2017-04-12T05:58:23Z    -91.6539   28.2001   23.4495      35.861    394.8495242           2          
MisPlume(west)    GOM_UW_1704    2017-04-12T05:59:51Z    -91.6546   28.2035   23.4725      35.9      396.2736588           2          
MisPlume(west)    GOM_UW_1704    2017-04-12T06:01:19Z    -91.6553   28.2071   23.4704      35.899    396.614857            2          
MisPlume(west)    GOM_UW_1704    2017-04-12T06:02:50Z    -91.6559   28.2107   23.4724      35.921    397.3321413           2          
MisPlume(west)    GOM_UW_1704    2017-04-12T06:04:21Z    -91.6566   28.2143   23.4823      35.948    399.8439599           2          
MisPlume(west)    GOM_UW_1704    2017-04-12T06:05:51Z    -91.6573   28.2179   23.4787      35.979    393.9487304           2          
MisPlume(west)    GOM_UW_1704    2017-04-12T06:07:22Z    -91.658    28.2215   23.4791      35.987    396.9794272           2          
MisPlume(west)    GOM_UW_1704    2017-04-12T06:08:50Z    -91.6586   28.2251   23.4767      35.984    396.3252742           2          
MisPlume(west)    GOM_UW_1704    2017-04-12T06:10:19Z    -91.6594   28.2286   23.4745      35.988    392.5608618           2          
MisPlume(west)    GOM_UW_1704    2017-04-12T06:11:50Z    -91.6606   28.2322   23.4608      36.014    393.8288782           2          
MisPlume(west)    GOM_UW_1704    2017-04-12T06:13:19Z    -91.6618   28.2357   23.4375      36.016    393.7322836           2          
MisPlume(west)    GOM_UW_1704    2017-04-12T06:14:47Z    -91.6629   28.2391   23.4343      36.015    398.1746991           2          
MisPlume(west)    GOM_UW_1704    2017-04-12T06:16:15Z    -91.664    28.2426   23.4294      36.014    397.3846072           2          
MisPlume(west)    GOM_UW_1704    2017-04-12T06:17:46Z    -91.6651   28.2461   23.4274      36.013    396.2364754           2          
MisPlume(west)    GOM_UW_1704    2017-04-12T06:19:14Z    -91.6663   28.2496   23.423       36.009    394.3237868           2          
MisPlume(west)    GOM_UW_1704    2017-04-12T06:20:43Z    -91.6676   28.253    23.4217      36.01     393.7033319           2          
MisPlume(west)    GOM_UW_1704    2017-04-12T06:22:12Z    -91.669    28.2564   23.4108      35.999    395.1678825           2          
MisPlume(west)    GOM_UW_1704    2017-04-12T06:23:42Z    -91.6704   28.2598   23.4058      36.017    395.051433            2          
MisPlume(west)    GOM_UW_1704    2017-04-12T06:25:11Z    -91.6718   28.2632   23.4022      36.019    398.7383317           2          
MisPlume(west)    GOM_UW_1704    2017-04-12T06:26:40Z    -91.6732   28.2665   23.4011      36.019    398.6418551           2          
MisPlume(west)    GOM_UW_1704    2017-04-12T06:28:08Z    -91.6746   28.2699   23.3985      36.02     393.8326993           2          
MisPlume(west)    GOM_UW_1704    2017-04-12T06:29:36Z    -91.676    28.2733   23.394       36.02     400.045695            2          
MisPlume(west)    GOM_UW_1704    2017-04-12T06:31:04Z    -91.6774   28.2766   23.3902      36.017    398.0460793           2          
MisPlume(west)    GOM_UW_1704    2017-04-12T06:32:32Z    -91.6788   28.2799   23.3851      36.024    398.5149714           2          
MisPlume(west)    GOM_UW_1704    2017-04-12T06:34:00Z    -91.6802   28.2833   23.3839      36.024    398.6855749           2          
MisPlume(west)    GOM_UW_1704    2017-04-12T06:35:28Z    -91.6813   28.2866   23.3754      36.023    397.6419384           2          
MisPlume(west)    GOM_UW_1704    2017-04-12T06:36:56Z    -91.682    28.2902   23.3712      36.024    399.87433             2          
MisPlume(west)    GOM_UW_1704    2017-04-12T06:38:27Z    -91.6826   28.2939   23.3617      36.029    400.8656969           2          
MisPlume(west)    GOM_UW_1704    2017-04-12T06:39:55Z    -91.6832   28.2974   23.3524      36.034    397.5499107           2          
MisPlume(west)    GOM_UW_1704    2017-04-12T06:41:23Z    -91.6839   28.301    23.3442      36.025    398.6062724           2          
MisPlume(west)    GOM_UW_1704    2017-04-12T06:42:52Z    -91.6845   28.3045   23.3398      36.038    397.7412802           2          
MisPlume(west)    GOM_UW_1704    2017-04-12T06:44:23Z    -91.6852   28.3082   23.3269      36.043    402.2625691           2          
MisPlume(west)    GOM_UW_1704    2017-04-12T06:45:50Z    -91.6858   28.3117   23.3198      36.045    397.4946405           2          
MisPlume(west)    GOM_UW_1704    2017-04-12T06:47:21Z    -91.6864   28.3154   23.2921      36.062    395.8338064           2          
MisPlume(west)    GOM_UW_1704    2017-04-12T06:48:49Z    -91.6871   28.3189   23.2902      36.071    400.7750139           2          
MisPlume(west)    GOM_UW_1704    2017-04-12T06:50:19Z    -91.6877   28.3225   23.2784      36.078    404.1638972           2          
MisPlume(west)    GOM_UW_1704    2017-04-12T06:51:48Z    -91.6884   28.3261   23.2794      36.081    396.1730812           2          
MisPlume(west)    GOM_UW_1704    2017-04-12T06:53:16Z    -91.6894   28.3296   23.2583      36.09     396.2935399           2          
MisPlume(west)    GOM_UW_1704    2017-04-12T06:54:43Z    -91.6903   28.333    23.2552      36.095    399.5607669           2          
MisPlume(west)    GOM_UW_1704    2017-04-12T06:56:15Z    -91.6912   28.3367   23.2195      36.114    399.4021928           2          
MisPlume(west)    GOM_UW_1704    2017-04-12T06:57:43Z    -91.6922   28.3402   23.21        36.121    402.6546504           2          
MisPlume(west)    GOM_UW_1704    2017-04-12T06:59:11Z    -91.6932   28.3436   23.2133      36.124    404.066491            2          
MisPlume(west)    GOM_UW_1704    2017-04-12T07:00:41Z    -91.6941   28.3472   23.2075      36.128    396.4670528           2          
MisPlume(west)    GOM_UW_1704    2017-04-12T07:02:09Z    -91.6951   28.3507   23.2052      36.133    400.411369            2          
MisPlume(west)    GOM_UW_1704    2017-04-12T07:03:37Z    -91.696    28.3541   23.2027      36.137    397.2495491           2          
MisPlume(west)    GOM_UW_1704    2017-04-12T07:05:07Z    -91.6969   28.3577   23.2084      36.141    394.3452459           2          
MisPlume(west)    GOM_UW_1704    2017-04-12T07:06:38Z    -91.6979   28.3613   23.2039      36.147    396.6776093           2          
MisPlume(west)    GOM_UW_1704    2017-04-12T07:08:09Z    -91.6989   28.3648   23.1799      36.159    396.0764484           2          
MisPlume(west)    GOM_UW_1704    2017-04-12T07:09:37Z    -91.6999   28.3683   23.1739      36.128    394.0524792           2          
MisPlume(west)    GOM_UW_1704    2017-04-12T07:11:05Z    -91.7008   28.3717   23.1595      36.155    396.2419878           2          
MisPlume(west)    GOM_UW_1704    2017-04-12T07:12:33Z    -91.7017   28.3751   23.1388      36.177    397.8724479           2          
MisPlume(west)    GOM_UW_1704    2017-04-12T07:14:01Z    -91.7027   28.3786   23.1217      36.182    395.8231705           2          
MisPlume(west)    GOM_UW_1704    2017-04-12T07:15:30Z    -91.7036   28.3821   23.0993      36.189    397.6743487           2          
MisPlume(west)    GOM_UW_1704    2017-04-12T07:17:00Z    -91.7046   28.3856   23.0773      36.196    403.2543667           2          
MisPlume(west)    GOM_UW_1704    2017-04-12T07:18:31Z    -91.7055   28.3892   23.0181      36.217    402.0284619           2          
MisPlume(west)    GOM_UW_1704    2017-04-12T07:19:59Z    -91.7065   28.3926   22.9905      36.23     400.6721701           2          
MisPlume(west)    GOM_UW_1704    2017-04-12T07:21:27Z    -91.7074   28.3961   22.9774      36.234    395.7920778           2          
MisPlume(west)    GOM_UW_1704    2017-04-12T07:22:58Z    -91.7083   28.3996   22.9672      36.232    393.2635047           2          
MisPlume(west)    GOM_UW_1704    2017-04-12T07:24:26Z    -91.7093   28.4031   22.9636      36.247    399.3533987           2          
MisPlume(west)    GOM_UW_1704    2017-04-12T07:25:55Z    -91.7103   28.4066   22.9507      36.253    404.8249716           2          
MisPlume(west)    GOM_UW_1704    2017-04-12T07:27:24Z    -91.7112   28.4101   22.9452      36.257    393.4406635           2          
MisPlume(west)    GOM_UW_1704    2017-04-12T07:28:51Z    -91.7121   28.4135   22.9341      36.258    399.6289524           2          
MisPlume(west)    GOM_UW_1704    2017-04-12T07:30:20Z    -91.7132   28.417    22.9159      36.266    404.4601032           2          
MisPlume(west)    GOM_UW_1704    2017-04-12T07:31:47Z    -91.7141   28.4205   22.9032      36.271    395.8173687           2          
MisPlume(west)    GOM_UW_1704    2017-04-12T07:33:17Z    -91.715    28.424    22.8834      36.275    393.2246923           2          
MisPlume(west)    GOM_UW_1704    2017-04-12T07:34:45Z    -91.716    28.4275   22.8821      36.283    388.8311841           2          
MisPlume(west)    GOM_UW_1704    2017-04-12T07:36:13Z    -91.7169   28.4309   22.8819      36.282    394.3454031           2          
MisPlume(west)    GOM_UW_1704    2017-04-12T07:37:41Z    -91.7179   28.4344   22.8822      36.279    388.7321864           2          
MisPlume(west)    GOM_UW_1704    2017-04-12T07:39:12Z    -91.7188   28.438    22.8827      36.28     391.4384991           2          
MisPlume(west)    GOM_UW_1704    2017-04-12T07:40:42Z    -91.7198   28.4415   22.8778      36.283    393.1877111           2          
MisPlume(west)    GOM_UW_1704    2017-04-12T07:42:10Z    -91.7207   28.4449   22.8796      36.284    393.983985            2          
MisPlume(west)    GOM_UW_1704    2017-04-12T07:43:40Z    -91.7217   28.4484   22.8777      36.285    393.7742751           2          
MisPlume(west)    GOM_UW_1704    2017-04-12T07:45:09Z    -91.7227   28.4519   22.8743      36.286    391.7330765           2          
MisPlume(west)    GOM_UW_1704    2017-04-12T07:46:37Z    -91.7236   28.4554   22.8838      36.284    392.7455989           2          
MisPlume(west)    GOM_UW_1704    2017-04-12T07:48:06Z    -91.7245   28.4588   22.8806      36.281    397.424931            2          
MisPlume(west)    GOM_UW_1704    2017-04-12T07:49:34Z    -91.7254   28.4623   22.8681      36.278    391.5022636           2          
MisPlume(west)    GOM_UW_1704    2017-04-12T07:51:02Z    -91.7264   28.4657   22.8668      36.285    392.1087363           2          
MisPlume(west)    GOM_UW_1704    2017-04-12T08:03:36Z    -91.7343   28.4948   22.8434      36.301    392.8419635           2          
MisPlume(west)    GOM_UW_1704    2017-04-12T08:05:05Z    -91.7352   28.4982   22.8444      36.302    401.0700141           2          
MisPlume(west)    GOM_UW_1704    2017-04-12T08:06:34Z    -91.7362   28.5016   22.8487      36.293    394.0658869           2          
MisPlume(west)    GOM_UW_1704    2017-04-12T08:08:01Z    -91.7371   28.505    22.855       36.295    392.5136692           2          
MisPlume(west)    GOM_UW_1704    2017-04-12T08:09:33Z    -91.7381   28.5085   22.8584      36.293    394.0479072           2          
MisPlume(west)    GOM_UW_1704    2017-04-12T08:11:04Z    -91.739    28.512    22.8625      36.294    397.978215            2          
MisPlume(west)    GOM_UW_1704    2017-04-12T08:12:32Z    -91.7399   28.5154   22.8563      36.292    398.4857696           2          
MisPlume(west)    GOM_UW_1704    2017-04-12T08:13:59Z    -91.7408   28.5187   22.8519      36.305    393.3629733           2          
MisPlume(west)    GOM_UW_1704    2017-04-12T08:15:28Z    -91.7417   28.5222   22.8508      36.298    394.6930722           2          
MisPlume(west)    GOM_UW_1704    2017-04-12T08:16:56Z    -91.7426   28.5255   22.8542      36.303    394.6493655           2          
MisPlume(west)    GOM_UW_1704    2017-04-12T08:18:25Z    -91.7436   28.529    22.8484      36.304    399.1611356           2          
MisPlume(west)    GOM_UW_1704    2017-04-12T08:19:53Z    -91.7445   28.5323   22.8541      36.271    395.6123682           2          
MisPlume(west)    GOM_UW_1704    2017-04-12T08:21:23Z    -91.7455   28.5358   22.8547      36.304    397.6776506           2          
MisPlume(west)    GOM_UW_1704    2017-04-12T08:22:51Z    -91.7464   28.5392   22.8525      36.303    393.8510581           2          
MisPlume(west)    GOM_UW_1704    2017-04-12T08:24:19Z    -91.7474   28.5425   22.8535      36.301    394.9724227           2          
MisPlume(west)    GOM_UW_1704    2017-04-12T08:25:48Z    -91.7483   28.546    22.851       36.297    396.1542119           2          
MisPlume(west)    GOM_UW_1704    2017-04-12T08:27:15Z    -91.7492   28.5493   22.8477      36.295    395.5480215           2          
MisPlume(west)    GOM_UW_1704    2017-04-12T08:28:45Z    -91.7501   28.5528   22.8452      36.292    nd                    2          
MisPlume(west)    GOM_UW_1704    2017-04-12T08:30:14Z    -91.7511   28.5562   22.8325      36.293    396.4691084           2          
MisPlume(west)    GOM_UW_1704    2017-04-12T08:31:42Z    -91.752    28.5595   22.8343      36.294    395.4132421           2          
MisPlume(west)    GOM_UW_1704    2017-04-12T08:33:13Z    -91.753    28.563    22.8317      36.295    399.4880296           2          
MisPlume(west)    GOM_UW_1704    2017-04-12T08:34:41Z    -91.7539   28.5663   22.8253      36.293    403.0793591           2          
MisPlume(west)    GOM_UW_1704    2017-04-12T08:36:09Z    -91.7548   28.5697   22.8171      36.293    398.1078977           2          
MisPlume(west)    GOM_UW_1704    2017-04-12T08:37:38Z    -91.7557   28.5731   22.8087      36.283    398.5953106           2          
MisPlume(west)    GOM_UW_1704    2017-04-12T08:39:06Z    -91.7566   28.5765   22.8039      36.283    398.7339157           2          
MisPlume(west)    GOM_UW_1704    2017-04-12T08:40:34Z    -91.7575   28.5798   22.7968      36.278    398.8474261           2          
MisPlume(west)    GOM_UW_1704    2017-04-12T08:42:02Z    -91.7584   28.5832   22.7905      36.275    404.3422893           2          
MisPlume(west)    GOM_UW_1704    2017-04-12T08:43:30Z    -91.7595   28.5865   22.7868      36.276    400.3527719           2          
MisPlume(west)    GOM_UW_1704    2017-04-12T08:44:58Z    -91.7606   28.5899   22.7842      36.271    396.9181411           2          
MisPlume(west)    GOM_UW_1704    2017-04-12T08:46:26Z    -91.7617   28.5932   22.7735      36.273    400.2093454           2          
MisPlume(west)    GOM_UW_1704    2017-04-12T08:47:55Z    -91.7628   28.5966   22.7722      36.273    399.5420662           2          
MisPlume(west)    GOM_UW_1704    2017-04-12T08:49:26Z    -91.764    28.6      22.7595      36.272    402.712949            2          
MisPlume(west)    GOM_UW_1704    2017-04-12T08:50:55Z    -91.7651   28.6034   22.7502      36.269    400.3901485           2          
MisPlume(west)    GOM_UW_1704    2017-04-12T08:52:25Z    -91.7662   28.6068   22.7411      36.273    399.0667157           2          
MisPlume(west)    GOM_UW_1704    2017-04-12T08:53:55Z    -91.7673   28.6102   22.7332      36.267    397.0754331           2          
MisPlume(west)    GOM_UW_1704    2017-04-12T08:55:23Z    -91.7684   28.6135   22.7213      36.269    395.9924541           2          
MisPlume(west)    GOM_UW_1704    2017-04-12T08:56:52Z    -91.7695   28.6168   22.7099      36.265    400.3126204           2          
MisPlume(west)    GOM_UW_1704    2017-04-12T08:58:22Z    -91.7706   28.6203   22.7051      36.266    394.6746345           2          
MisPlume(west)    GOM_UW_1704    2017-04-12T08:59:52Z    -91.7717   28.6237   22.6935      36.271    397.1826651           2          
MisPlume(west)    GOM_UW_1704    2017-04-12T09:01:20Z    -91.7729   28.627    22.6825      36.271    403.3122242           2          
MisPlume(west)    GOM_UW_1704    2017-04-12T09:02:48Z    -91.774    28.6303   22.6684      36.268    405.1134802           2          
MisPlume(west)    GOM_UW_1704    2017-04-12T09:04:19Z    -91.7751   28.6338   22.6662      36.266    397.3335669           2          
MisPlume(west)    GOM_UW_1704    2017-04-12T09:05:47Z    -91.7763   28.6371   22.6572      36.265    395.1934925           2          
MisPlume(west)    GOM_UW_1704    2017-04-12T09:07:15Z    -91.7774   28.6405   22.6505      36.263    402.7427715           2          
MisPlume(west)    GOM_UW_1704    2017-04-12T09:08:43Z    -91.7785   28.6438   22.6404      36.259    403.9851795           2          
MisPlume(west)    GOM_UW_1704    2017-04-12T09:10:14Z    -91.7796   28.6472   22.6388      36.254    398.8947948           2          
MisPlume(west)    GOM_UW_1704    2017-04-12T09:11:43Z    -91.7807   28.6506   22.6241      36.251    396.1641217           2          
MisPlume(west)    GOM_UW_1704    2017-04-12T09:13:13Z    -91.7819   28.654    22.6135      36.25     400.7125245           2          
MisPlume(west)    GOM_UW_1704    2017-04-12T09:14:41Z    -91.783    28.6573   22.6051      36.242    402.9492336           2          
MisPlume(west)    GOM_UW_1704    2017-04-12T09:16:09Z    -91.7841   28.6606   22.5962      36.233    403.0110195           2          
MisPlume(west)    GOM_UW_1704    2017-04-12T09:17:37Z    -91.7852   28.6639   22.5865      36.211    402.6627783           2          
MisPlume(west)    GOM_UW_1704    2017-04-12T09:19:07Z    -91.7863   28.6672   22.5734      36.176    405.788168            2          
MisPlume(west)    GOM_UW_1704    2017-04-12T09:20:35Z    -91.7874   28.6705   22.5346      36.147    407.8775592           2          
MisPlume(west)    GOM_UW_1704    2017-04-12T09:22:06Z    -91.7885   28.6739   22.5151      36.136    404.7966447           2          
MisPlume(west)    GOM_UW_1704    2017-04-12T09:23:35Z    -91.7896   28.6772   22.5381      36.119    412.0703628           2          
MisPlume(west)    GOM_UW_1704    2017-04-12T09:25:03Z    -91.7907   28.6805   22.5875      36.091    406.7510503           2          
MisPlume(west)    GOM_UW_1704    2017-04-12T09:26:31Z    -91.7918   28.6838   22.6406      36.084    403.4224665           2          
MisPlume(west)    GOM_UW_1704    2017-04-12T09:28:02Z    -91.7929   28.6872   22.6963      36.089    405.6762382           2          
MisPlume(west)    GOM_UW_1704    2017-04-12T09:29:29Z    -91.794    28.6905   22.7269      36.098    407.0416758           2          
MisPlume(west)    GOM_UW_1704    2017-04-12T09:30:57Z    -91.7951   28.6938   22.7343      36.098    404.5866247           2          
MisPlume(west)    GOM_UW_1704    2017-04-12T09:32:25Z    -91.7962   28.6971   22.741       36.105    397.938712            2          
MisPlume(west)    GOM_UW_1704    2017-04-12T09:33:55Z    -91.7973   28.7005   22.7506      36.108    398.2659576           2          
MisPlume(west)    GOM_UW_1704    2017-04-12T09:35:23Z    -91.7984   28.7038   22.7592      36.101    397.6855216           2          
MisPlume(west)    GOM_UW_1704    2017-04-12T09:36:51Z    -91.7995   28.7071   22.7143      36.1      397.6012025           2          
MisPlume(west)    GOM_UW_1704    2017-04-12T09:38:19Z    -91.8006   28.7104   22.7099      36.101    395.3234381           2          
MisPlume(west)    GOM_UW_1704    2017-04-12T09:39:48Z    -91.8017   28.7137   22.7138      36.099    394.6683493           2          
MisPlume(west)    GOM_UW_1704    2017-04-12T09:41:17Z    -91.8028   28.717    22.7447      36.091    396.5547956           2          
MisPlume(west)    GOM_UW_1704    2017-04-12T09:42:45Z    -91.8039   28.7203   22.7607      36.089    396.5743408           2          
MisPlume(west)    GOM_UW_1704    2017-04-12T09:44:14Z    -91.805    28.7237   22.77        36.087    396.8520721           2          
MisPlume(west)    GOM_UW_1704    2017-04-12T09:45:42Z    -91.8061   28.727    22.7708      36.083    393.9762222           2          
MisPlume(west)    GOM_UW_1704    2017-04-12T09:47:11Z    -91.8072   28.7303   22.7447      36.069    394.9010496           2          
MisPlume(west)    GOM_UW_1704    2017-04-12T09:48:42Z    -91.8084   28.7337   22.6593      36.037    395.0239199           2          
MisPlume(west)    GOM_UW_1704    2017-04-12T09:50:09Z    -91.8095   28.737    22.6546      36.031    396.8867642           2          
MisPlume(west)    GOM_UW_1704    2017-04-12T09:51:40Z    -91.8106   28.7404   22.6703      36.03     395.2783549           2          
MisPlume(west)    GOM_UW_1704    2017-04-12T09:53:09Z    -91.8117   28.7438   22.6391      36.016    392.6468547           2          
MisPlume(west)    GOM_UW_1704    2017-04-12T09:54:37Z    -91.8128   28.7471   22.6286      36.008    394.6676947           2          
MisPlume(west)    GOM_UW_1704    2017-04-12T09:56:04Z    -91.8139   28.7503   22.668       36.018    394.4337969           2          
MisPlume(west)    GOM_UW_1704    2017-04-12T09:57:34Z    -91.815    28.7537   22.6945      36.029    393.3271523           2          
MisPlume(west)    GOM_UW_1704    2017-04-12T09:59:03Z    -91.8161   28.7571   22.6772      36.017    397.0578705           2          
MisPlume(west)    GOM_UW_1704    2017-04-12T10:00:33Z    -91.8172   28.7604   22.6846      36.034    395.3514709           2          
MisPlume(west)    GOM_UW_1704    2017-04-12T10:02:02Z    -91.8183   28.7638   22.7154      36.008    404.9919875           2          
MisPlume(west)    GOM_UW_1704    2017-04-12T10:03:30Z    -91.8194   28.7672   22.7021      35.93     406.560107            2          
MisPlume(west)    GOM_UW_1704    2017-04-12T10:05:01Z    -91.8207   28.7707   22.6931      35.851    397.3543558           2          
MisPlume(west)    GOM_UW_1704    2017-04-12T10:06:29Z    -91.8218   28.7742   22.6837      35.775    396.8084577           2          
MisPlume(west)    GOM_UW_1704    2017-04-12T10:07:58Z    -91.823    28.7778   22.6751      35.721    394.7941094           2          
MisPlume(west)    GOM_UW_1704    2017-04-12T10:09:29Z    -91.8242   28.7814   22.6665      35.656    388.9930434           2          
MisPlume(west)    GOM_UW_1704    2017-04-12T10:10:59Z    -91.8254   28.785    22.6404      35.597    390.3450027           2          
MisPlume(west)    GOM_UW_1704    2017-04-12T10:12:30Z    -91.8266   28.7887   22.6007      35.532    385.4127013           2          
MisPlume(west)    GOM_UW_1704    2017-04-12T10:13:57Z    -91.8278   28.7922   22.5627      35.389    381.3129658           2          
MisPlume(west)    GOM_UW_1704    2017-04-12T10:15:28Z    -91.829    28.7959   22.5695      35.304    378.5885831           2          
MisPlume(west)    GOM_UW_1704    2017-04-12T10:16:59Z    -91.8302   28.7995   22.5858      35.201    378.4900438           2          
MisPlume(west)    GOM_UW_1704    2017-04-12T10:18:28Z    -91.8314   28.8031   22.6209      35.131    373.7444531           2          
MisPlume(west)    GOM_UW_1704    2017-04-12T10:19:57Z    -91.8325   28.8066   22.6414      35.081    371.9581123           2          
MisPlume(west)    GOM_UW_1704    2017-04-12T10:21:24Z    -91.8337   28.81     22.6496      35.057    371.20948             2          
MisPlume(west)    GOM_UW_1704    2017-04-12T10:22:56Z    -91.8349   28.8137   22.6454      35.037    372.7757754           2          
MisPlume(west)    GOM_UW_1704    2017-04-12T10:24:23Z    -91.8361   28.8172   22.639       35.027    369.1842881           2          
MisPlume(west)    GOM_UW_1704    2017-04-12T10:25:52Z    -91.8372   28.8207   22.631       35.012    372.3273018           2          
MisPlume(west)    GOM_UW_1704    2017-04-12T10:27:23Z    -91.8387   28.8242   22.632       35.007    368.3035635           2          
MisPlume(west)    GOM_UW_1704    2017-04-12T10:28:53Z    -91.84     28.8278   22.638       35.004    369.2121576           2          
MisPlume(west)    GOM_UW_1704    2017-04-12T10:30:22Z    -91.8414   28.8313   22.6476      35.014    367.2117609           2          
MisPlume(west)    GOM_UW_1704    2017-04-12T10:31:53Z    -91.8428   28.8348   22.6601      35.024    367.682611            2          
MisPlume(west)    GOM_UW_1704    2017-04-12T10:33:24Z    -91.8442   28.8384   22.6714      35.028    369.0746197           2          
MisPlume(west)    GOM_UW_1704    2017-04-12T10:34:52Z    -91.8455   28.8418   22.6697      35.027    372.7103248           2          
MisPlume(west)    GOM_UW_1704    2017-04-12T10:36:21Z    -91.8469   28.8454   22.6607      35.039    369.5553498           2          
MisPlume(west)    GOM_UW_1704    2017-04-12T10:37:52Z    -91.8483   28.849    22.6672      35.077    370.341042            2          
MisPlume(west)    GOM_UW_1704    2017-04-12T10:39:21Z    -91.8497   28.8524   22.6929      35.118    370.4537258           2          
MisPlume(west)    GOM_UW_1704    2017-04-12T10:40:51Z    -91.8511   28.856    22.7205      35.143    372.033398            2          
MisPlume(west)    GOM_UW_1704    2017-04-12T10:42:22Z    -91.8525   28.8596   22.7416      35.155    373.3277319           2          
MisPlume(west)    GOM_UW_1704    2017-04-12T10:43:50Z    -91.8537   28.8631   22.7463      35.155    373.6528463           2          
MisPlume(west)    GOM_UW_1704    2017-04-12T10:45:19Z    -91.8548   28.8667   22.7406      35.163    371.5192971           2          
MisPlume(west)    GOM_UW_1704    2017-04-12T10:46:48Z    -91.856    28.8702   22.735       35.164    370.3341445           2          
MisPlume(west)    GOM_UW_1704    2017-04-12T10:48:16Z    -91.8572   28.8738   22.7373      35.171    375.7178095           2          
MisPlume(west)    GOM_UW_1704    2017-04-12T10:49:47Z    -91.8583   28.8774   22.7399      35.176    375.7617981           2          
MisPlume(west)    GOM_UW_1704    2017-04-12T10:51:15Z    -91.8595   28.881    22.7404      35.177    374.2699961           2          
MisPlume(west)    GOM_UW_1704    2017-04-12T10:52:46Z    -91.8607   28.8847   22.7431      35.177    373.8634227           2          
MisPlume(west)    GOM_UW_1704    2017-04-12T10:54:14Z    -91.8618   28.8882   22.7389      35.187    377.305861            2          
MisPlume(west)    GOM_UW_1704    2017-04-12T10:55:41Z    -91.863    28.8917   22.7328      35.197    377.1667057           2          
MisPlume(west)    GOM_UW_1704    2017-04-12T10:57:10Z    -91.8642   28.8953   22.7159      35.215    373.6529127           2          
MisPlume(west)    GOM_UW_1704    2017-04-12T10:58:39Z    -91.8653   28.8989   22.7022      35.236    375.9156686           2          
MisPlume(west)    GOM_UW_1704    2017-04-12T11:00:07Z    -91.8665   28.9024   22.6813      35.258    374.7727363           2          
MisPlume(west)    GOM_UW_1704    2017-04-12T11:12:44Z    -91.8763   28.9325   22.6858      35.582    383.9940872           2          
MisPlume(west)    GOM_UW_1704    2017-04-12T11:14:12Z    -91.8774   28.9359   22.6725      35.579    384.7324266           2          
MisPlume(west)    GOM_UW_1704    2017-04-12T11:15:43Z    -91.8786   28.9395   22.6781      35.587    386.3510648           2          
MisPlume(west)    GOM_UW_1704    2017-04-12T11:17:14Z    -91.8798   28.9431   22.6784      35.561    384.7104256           2          
MisPlume(west)    GOM_UW_1704    2017-04-12T11:18:42Z    -91.8809   28.9465   22.7149      35.42     380.5729234           2          
MisPlume(west)    GOM_UW_1704    2017-04-12T11:20:11Z    -91.8821   28.95     22.7393      35.334    379.0618565           2          
MisPlume(west)    GOM_UW_1704    2017-04-12T11:21:42Z    -91.8832   28.9536   22.7731      35.276    377.6263935           2          
MisPlume(west)    GOM_UW_1704    2017-04-12T11:23:13Z    -91.8844   28.9572   22.787       35.26     376.5070593           2          
MisPlume(west)    GOM_UW_1704    2017-04-12T11:24:41Z    -91.8855   28.9606   22.7796      35.223    377.4404506           2          
MisPlume(west)    GOM_UW_1704    2017-04-12T11:26:10Z    -91.8867   28.9642   22.721       35.127    377.693018            2          
MisPlume(west)    GOM_UW_1704    2017-04-12T11:27:39Z    -91.8878   28.9678   22.6837      34.942    369.349041            2          
MisPlume(west)    GOM_UW_1704    2017-04-12T11:29:06Z    -91.889    28.9713   22.6742      34.791    365.8330276           2          
MisPlume(west)    GOM_UW_1704    2017-04-12T11:30:35Z    -91.8901   28.9749   22.6967      34.697    362.9799755           2          
MisPlume(west)    GOM_UW_1704    2017-04-12T11:32:05Z    -91.8914   28.9786   22.7183      34.655    360.4943059           2          
MisPlume(west)    GOM_UW_1704    2017-04-12T11:33:33Z    -91.8926   28.9822   22.7358      34.603    359.5769101           2          
MisPlume(west)    GOM_UW_1704    2017-04-12T11:35:03Z    -91.8937   28.9859   22.7618      34.581    357.2049361           2          
MisPlume(west)    GOM_UW_1704    2017-04-12T11:36:32Z    -91.8949   28.9895   22.7955      34.589    357.5082102           2          
MisPlume(west)    GOM_UW_1704    2017-04-12T11:38:00Z    -91.8961   28.9931   22.8253      34.585    358.6947235           2          
MisPlume(west)    GOM_UW_1704    2017-04-12T11:39:29Z    -91.8973   28.9966   22.8322      34.546    359.3875882           2          
MisPlume(west)    GOM_UW_1704    2017-04-12T11:40:57Z    -91.8984   29.0002   22.8301      34.52     357.8923892           2          
MisPlume(west)    GOM_UW_1704    2017-04-12T11:42:26Z    -91.8996   29.0038   22.8521      34.476    357.8569937           2          
MisPlume(west)    GOM_UW_1704    2017-04-12T11:43:54Z    -91.9008   29.0074   22.7798      34.369    361.7144252           2          
MisPlume(west)    GOM_UW_1704    2017-04-12T11:45:24Z    -91.902    29.0111   22.7941      34.33     366.779705            2          
MisPlume(west)    GOM_UW_1704    2017-04-12T11:46:53Z    -91.9031   29.0147   22.7672      34.221    361.0602609           2          
MisPlume(west)    GOM_UW_1704    2017-04-12T11:48:24Z    -91.9044   29.0184   22.7802      34.191    359.0468248           2          
MisPlume(west)    GOM_UW_1704    2017-04-12T11:49:53Z    -91.9056   29.0221   22.8049      34.174    357.4969367           2          
MisPlume(west)    GOM_UW_1704    2017-04-12T11:51:24Z    -91.9068   29.0259   22.7683      34.044    352.3112366           2          
MisPlume(west)    GOM_UW_1704    2017-04-12T11:52:54Z    -91.908    29.0297   22.7616      33.955    348.833871            2          
MisPlume(west)    GOM_UW_1704    2017-04-12T11:54:22Z    -91.9092   29.0334   22.728       33.767    345.0068038           2          
MisPlume(west)    GOM_UW_1704    2017-04-12T11:55:50Z    -91.9104   29.0371   22.7497      33.743    344.2862352           2          
MisPlume(west)    GOM_UW_1704    2017-04-12T11:57:19Z    -91.9117   29.0408   22.7652      33.747    345.1936147           2          
MisPlume(west)    GOM_UW_1704    2017-04-12T11:58:47Z    -91.9129   29.0445   22.7819      33.74     344.0248529           2          
MisPlume(west)    GOM_UW_1704    2017-04-12T12:00:15Z    -91.9141   29.0482   22.7835      33.714    346.6987235           2          
MisPlume(west)    GOM_UW_1704    2017-04-12T12:01:43Z    -91.9153   29.0519   22.8175      33.686    343.313806            2          
MisPlume(west)    GOM_UW_1704    2017-04-12T12:03:11Z    -91.9165   29.0556   22.8317      33.644    340.8055349           2          
MisPlume(west)    GOM_UW_1704    2017-04-12T12:04:39Z    -91.9177   29.0593   22.7918      33.588    340.015047            2          
MisPlume(west)    GOM_UW_1704    2017-04-12T12:06:07Z    -91.919    29.063    22.7982      33.573    336.1301994           2          
MisPlume(west)    GOM_UW_1704    2017-04-12T12:07:35Z    -91.9201   29.0667   22.7957      33.538    334.5954903           2          
MisPlume(west)    GOM_UW_1704    2017-04-12T12:09:06Z    -91.9213   29.0704   22.7988      33.519    334.0603173           2          
MisPlume(west)    GOM_UW_1704    2017-04-12T12:10:38Z    -91.9226   29.0743   22.8005      33.509    333.7490569           2          
MisPlume(west)    GOM_UW_1704    2017-04-12T12:12:05Z    -91.9237   29.0778   22.8137      33.553    331.7244919           2          
MisPlume(west)    GOM_UW_1704    2017-04-12T12:13:33Z    -91.9249   29.0814   22.8621      33.469    332.6023215           2          
MisPlume(west)    GOM_UW_1704    2017-04-12T12:15:03Z    -91.9261   29.0851   22.8741      33.456    335.9171896           2          
MisPlume(west)    GOM_UW_1704    2017-04-12T12:16:32Z    -91.9272   29.0887   22.8471      33.46     347.8925982           2          
MisPlume(west)    GOM_UW_1704    2017-04-12T12:18:00Z    -91.9284   29.0921   22.7484      32.587    366.8206644           2          
MisPlume(west)    GOM_UW_1704    2017-04-12T12:19:28Z    -91.9295   29.0956   22.7938      32.244    317.6670871           2          
MisPlume(west)    GOM_UW_1704    2017-04-12T12:20:57Z    -91.9307   29.0991   22.8386      32.179    305.1629772           2          
MisPlume(west)    GOM_UW_1704    2017-04-12T12:22:28Z    -91.9318   29.1027   22.8487      32.065    295.0096776           2          
MisPlume(west)    GOM_UW_1704    2017-04-12T12:23:57Z    -91.9329   29.1062   22.8589      31.951    286.4037826           2          
MisPlume(west)    GOM_UW_1704    2017-04-12T12:25:25Z    -91.9341   29.1097   22.8493      31.867    280.7009963           2          
MisPlume(west)    GOM_UW_1704    2017-04-12T12:26:53Z    -91.9364   29.1124   22.8535      31.792    276.7542101           2          
MisPlume(west)    GOM_UW_1704    2017-04-12T12:28:24Z    -91.9404   29.1138   22.8455      31.818    277.3843682           2          
MisPlume(west)    GOM_UW_1704    2017-04-12T12:29:54Z    -91.9445   29.115    22.8403      31.839    275.1468198           2          
MisPlume(west)    GOM_UW_1704    2017-04-12T12:31:24Z    -91.9486   29.1162   22.7861      31.884    273.7354876           2          
MisPlume(west)    GOM_UW_1704    2017-04-12T12:32:51Z    -91.9524   29.1175   22.7594      31.781    273.5415223           2          
MisPlume(west)    GOM_UW_1704    2017-04-12T12:34:21Z    -91.9564   29.1188   22.7524      31.693    268.2234884           2          
MisPlume(west)    GOM_UW_1704    2017-04-12T12:35:49Z    -91.9603   29.1201   22.7594      31.634    263.5924861           2          
MisPlume(west)    GOM_UW_1704    2017-04-12T12:37:21Z    -91.9644   29.1215   22.7681      31.622    263.5316023           2          
MisPlume(west)    GOM_UW_1704    2017-04-12T12:38:49Z    -91.9683   29.1228   22.7729      31.62     263.5514123           2          
MisPlume(west)    GOM_UW_1704    2017-04-12T12:40:18Z    -91.9722   29.1241   22.7918      31.628    261.7351269           2          
MisPlume(west)    GOM_UW_1704    2017-04-12T12:41:49Z    -91.9762   29.1254   22.7927      31.639    260.1391551           2          
MisPlume(west)    GOM_UW_1704    2017-04-12T12:43:19Z    -91.9802   29.1268   22.7941      31.634    261.2719671           2          
MisPlume(west)    GOM_UW_1704    2017-04-12T12:44:47Z    -91.984    29.1282   22.7901      31.652    260.3983867           2          
MisPlume(west)    GOM_UW_1704    2017-04-12T12:46:15Z    -91.9879   29.1294   22.7835      31.665    261.2019908           2          
MisPlume(west)    GOM_UW_1704    2017-04-12T12:47:43Z    -91.9919   29.1305   22.7739      31.666    262.6324697           2          
MisPlume(west)    GOM_UW_1704    2017-04-12T12:49:11Z    -91.9958   29.1317   22.7607      31.671    264.3520776           2          
MisPlume(west)    GOM_UW_1704    2017-04-12T12:50:42Z    -91.9994   29.1329   22.7406      31.678    263.6479158           2          
MisPlume(west)    GOM_UW_1704    2017-04-12T12:52:10Z    -92.0002   29.1334   22.729       31.667    262.5683836           2          
MisPlume(west)    GOM_UW_1704    2017-04-12T12:53:38Z    -92.0003   29.1338   22.726       31.676    262.6412786           2          
MisPlume(west)    GOM_UW_1704    2017-04-12T12:55:06Z    -92.0004   29.1342   22.7267      31.679    263.1665607           2          
MisPlume(west)    GOM_UW_1704    2017-04-12T12:56:37Z    -92.0005   29.1346   22.7341      31.679    263.5796291           2          
MisPlume(west)    GOM_UW_1704    2017-04-12T12:58:06Z    -92.0007   29.135    22.724       31.681    262.871397            2          
MisPlume(west)    GOM_UW_1704    2017-04-12T12:59:33Z    -92.001    29.1353   22.7274      31.683    262.4384731           2          
MisPlume(west)    GOM_UW_1704    2017-04-12T13:01:04Z    -92.0014   29.1361   22.7272      31.688    261.3072011           2          
MisPlume(west)    GOM_UW_1704    2017-04-12T13:02:32Z    -92.0016   29.1349   22.712       31.698    263.9436635           2          
MisPlume(west)    GOM_UW_1704    2017-04-12T13:04:00Z    -92.0016   29.1332   22.7392      31.676    263.8880667           2          
MisPlume(west)    GOM_UW_1704    2017-04-12T13:05:31Z    -92.0018   29.1313   22.7554      31.69     263.8109486           2          
MisPlume(west)    GOM_UW_1704    2017-04-12T13:06:59Z    -92.0019   29.1295   22.7648      31.718    263.7666431           2          
MisPlume(west)    GOM_UW_1704    2017-04-12T13:08:30Z    -92.0021   29.1276   22.7683      31.741    265.4236991           2          
MisPlume(west)    GOM_UW_1704    2017-04-12T13:09:58Z    -92.0023   29.1258   22.7682      31.735    265.0511594           2          
MisPlume(west)    GOM_UW_1704    2017-04-12T13:11:26Z    -92.0024   29.1239   22.7704      31.723    265.4094589           2          
MisPlume(west)    GOM_UW_1704    2017-04-12T13:12:55Z    -92.0026   29.1221   22.7738      31.728    266.8484144           2          
MisPlume(west)    GOM_UW_1704    2017-04-12T13:14:24Z    -92.0028   29.1202   22.7808      31.734    265.3820308           2          
MisPlume(west)    GOM_UW_1704    2017-04-12T13:15:53Z    -92.003    29.1183   22.7789      31.731    266.0452901           2          
MisPlume(west)    GOM_UW_1704    2017-04-12T13:17:20Z    -92.0032   29.1165   22.7795      31.729    264.5268818           2          
MisPlume(west)    GOM_UW_1704    2017-04-12T13:18:52Z    -92.0034   29.1146   22.7835      31.714    264.5401982           2          
MisPlume(west)    GOM_UW_1704    2017-04-12T13:20:20Z    -92.0036   29.1118   22.7862      31.698    266.0830219           2          
MisPlume(west)    GOM_UW_1704    2017-04-12T13:21:47Z    -92.0036   29.1084   22.7945      31.694    271.1039406           2          
MisPlume(west)    GOM_UW_1704    2017-04-12T13:23:16Z    -92.0036   29.1048   22.797       31.646    264.6752927           2          
MisPlume(west)    GOM_UW_1704    2017-04-12T13:24:44Z    -92.0036   29.1014   22.809       31.619    262.2042246           2          
MisPlume(west)    GOM_UW_1704    2017-04-12T13:26:12Z    -92.0036   29.0979   22.8116      31.611    259.4131785           2          
MisPlume(west)    GOM_UW_1704    2017-04-12T13:27:44Z    -92.0036   29.0942   22.8185      31.608    258.9739234           2          
MisPlume(west)    GOM_UW_1704    2017-04-12T13:29:14Z    -92.0036   29.0906   22.8165      31.626    261.8058245           2          
MisPlume(west)    GOM_UW_1704    2017-04-12T13:30:44Z    -92.0036   29.0869   22.8149      31.643    266.8556196           2          
MisPlume(west)    GOM_UW_1704    2017-04-12T13:32:13Z    -92.0036   29.0833   22.8036      31.655    267.2679985           2          
MisPlume(west)    GOM_UW_1704    2017-04-12T13:33:43Z    -92.0035   29.0796   22.812       31.694    267.9184319           2          
MisPlume(west)    GOM_UW_1704    2017-04-12T13:35:19Z    -92.0034   29.0756   22.7831      31.706    268.5505497           2          
MisPlume(west)    GOM_UW_1704    2017-04-12T13:36:46Z    -92.0033   29.072    22.7571      31.763    272.2818425           2          
MisPlume(west)    GOM_UW_1704    2017-04-12T13:38:17Z    -92.0032   29.0682   22.7556      31.779    275.4234935           2          
MisPlume(west)    GOM_UW_1704    2017-04-12T13:39:46Z    -92.0031   29.0645   22.7533      31.788    275.3303302           2          
MisPlume(west)    GOM_UW_1704    2017-04-12T13:41:16Z    -92.003    29.0608   22.7622      31.797    276.7766581           2          
MisPlume(west)    GOM_UW_1704    2017-04-12T13:42:44Z    -92.0029   29.0572   22.7622      31.79     275.9502128           2          
MisPlume(west)    GOM_UW_1704    2017-04-12T13:44:13Z    -92.0029   29.0535   22.7625      31.785    276.0734218           2          
MisPlume(west)    GOM_UW_1704    2017-04-12T13:45:41Z    -92.0028   29.0498   22.7585      31.795    276.2002829           2          
MisPlume(west)    GOM_UW_1704    2017-04-12T13:47:09Z    -92.0027   29.0461   22.7521      31.767    276.7006455           2          
MisPlume(west)    GOM_UW_1704    2017-04-12T13:48:38Z    -92.0026   29.0424   22.7519      31.716    274.0965633           2          
MisPlume(west)    GOM_UW_1704    2017-04-12T13:50:06Z    -92.0025   29.0387   22.7552      31.684    274.6995675           2          
MisPlume(west)    GOM_UW_1704    2017-04-12T13:51:35Z    -92.0024   29.035    22.756       31.642    271.9197771           2          
MisPlume(west)    GOM_UW_1704    2017-04-12T13:53:03Z    -92.0023   29.0313   22.7538      31.62     269.2994939           2          
MisPlume(west)    GOM_UW_1704    2017-04-12T13:54:33Z    -92.0022   29.0276   22.7603      31.598    268.9468453           2          
MisPlume(west)    GOM_UW_1704    2017-04-12T13:56:02Z    -92.0021   29.0239   22.7588      31.592    268.846189            2          
MisPlume(west)    GOM_UW_1704    2017-04-12T13:57:30Z    -92.002    29.0202   22.7581      31.624    267.6573879           2          
MisPlume(west)    GOM_UW_1704    2017-04-12T13:59:00Z    -92.0019   29.0166   22.7613      31.627    270.5415286           2          
MisPlume(west)    GOM_UW_1704    2017-04-12T14:00:30Z    -92.0018   29.0129   22.7495      31.595    266.3593164           2          
MisPlume(west)    GOM_UW_1704    2017-04-12T14:02:01Z    -92.0017   29.0091   22.7562      31.799    271.255755            2          
MisPlume(west)    GOM_UW_1704    2017-04-12T14:03:29Z    -92.0016   29.0054   22.7143      32.196    289.0409688           2          
MisPlume(west)    GOM_UW_1704    2017-04-12T14:04:57Z    -92.0016   29.0018   22.7294      32.392    302.587434            2          
MisPlume(west)    GOM_UW_1704    2017-04-12T14:06:24Z    -92.0015   28.9982   22.6961      32.462    311.939582            2          
MisPlume(west)    GOM_UW_1704    2017-04-12T14:07:54Z    -92.0014   28.9945   22.7113      32.684    333.362009            2          
MisPlume(west)    GOM_UW_1704    2017-04-12T14:09:24Z    -92.0012   28.9907   22.6853      32.806    350.9068568           2          
MisPlume(west)    GOM_UW_1704    2017-04-12T14:21:59Z    -92.0028   28.9832   22.7386      33.315    330.8357443           2          
MisPlume(west)    GOM_UW_1704    2017-04-12T14:23:27Z    -92.0033   28.9832   22.7467      33.29     329.584214            2          
MisPlume(west)    GOM_UW_1704    2017-04-12T14:24:56Z    -92.0038   28.9831   22.7679      33.281    328.9616777           2          
MisPlume(west)    GOM_UW_1704    2017-04-12T14:26:26Z    -92.0043   28.9831   22.787       33.286    331.5326649           2          
MisPlume(west)    GOM_UW_1704    2017-04-12T14:27:55Z    -92.0047   28.983    22.8053      33.279    328.4962163           2          
MisPlume(west)    GOM_UW_1704    2017-04-12T14:29:26Z    -92.0053   28.983    22.8018      33.275    328.5711828           2          
MisPlume(west)    GOM_UW_1704    2017-04-12T14:30:54Z    -92.0057   28.983    22.8104      33.278    328.997615            2          
MisPlume(west)    GOM_UW_1704    2017-04-12T14:32:22Z    -92.0062   28.9829   22.7957      33.284    329.566966            2          
MisPlume(west)    GOM_UW_1704    2017-04-12T14:33:50Z    -92.0067   28.9829   22.7969      33.299    329.9240514           2          
MisPlume(west)    GOM_UW_1704    2017-04-12T14:35:18Z    -92.0071   28.983    22.8221      33.295    330.8860302           2          
MisPlume(west)    GOM_UW_1704    2017-04-12T14:36:47Z    -92.0076   28.983    22.8201      33.249    330.6158694           2          
MisPlume(west)    GOM_UW_1704    2017-04-12T14:38:15Z    -92.0081   28.9829   22.8304      33.218    330.6191826           2          
MisPlume(west)    GOM_UW_1704    2017-04-12T14:39:46Z    -92.0085   28.9829   22.8319      33.197    328.2283318           2          
MisPlume(west)    GOM_UW_1704    2017-04-12T14:41:15Z    -92.0091   28.9829   22.8107      33.178    328.8106508           2          
MisPlume(west)    GOM_UW_1704    2017-04-12T14:42:43Z    -92.0095   28.9829   22.82        33.166    330.5740148           2          
MisPlume(west)    GOM_UW_1704    2017-04-12T14:44:12Z    -92.01     28.9829   22.8274      33.163    328.3083465           2          
MisPlume(west)    GOM_UW_1704    2017-04-12T14:45:39Z    -92.0105   28.9829   22.8267      33.155    329.6468727           2          
MisPlume(west)    GOM_UW_1704    2017-04-12T14:47:07Z    -92.0109   28.9829   22.8218      33.15     331.5245062           2          
MisPlume(west)    GOM_UW_1704    2017-04-12T14:48:38Z    -92.0113   28.9832   22.8137      33.17     333.3324823           2          
MisPlume(west)    GOM_UW_1704    2017-04-12T14:50:09Z    -92.0125   28.9827   22.8008      33.059    329.4574804           2          
MisPlume(west)    GOM_UW_1704    2017-04-12T14:51:37Z    -92.0125   28.9792   22.8143      33.126    336.2425359           2          
MisPlume(west)    GOM_UW_1704    2017-04-12T14:53:05Z    -92.0123   28.9754   22.7799      33.411    335.1191661           2          
MisPlume(west)    GOM_UW_1704    2017-04-12T14:54:35Z    -92.012    28.9718   22.7512      33.726    338.7489102           2          
MisPlume(west)    GOM_UW_1704    2017-04-12T14:56:05Z    -92.0117   28.9681   22.7783      33.52     344.5213633           2          
MisPlume(west)    GOM_UW_1704    2017-04-12T14:57:33Z    -92.0112   28.9646   22.834       33.382    338.4788338           2          
MisPlume(west)    GOM_UW_1704    2017-04-12T14:59:03Z    -92.0108   28.961    22.8352      33.225    337.1299369           2          
MisPlume(west)    GOM_UW_1704    2017-04-12T15:00:31Z    -92.0102   28.9574   22.8274      33.079    331.4464424           2          
MisPlume(west)    GOM_UW_1704    2017-04-12T15:01:59Z    -92.0097   28.9538   22.8127      32.987    325.7943597           2          
MisPlume(west)    GOM_UW_1704    2017-04-12T15:03:28Z    -92.0091   28.9503   22.8185      32.912    324.3302002           2          
MisPlume(west)    GOM_UW_1704    2017-04-12T15:04:56Z    -92.0085   28.9468   22.8305      32.879    321.1531546           2          
MisPlume(west)    GOM_UW_1704    2017-04-12T15:06:27Z    -92.0079   28.9431   22.8385      32.852    318.6667438           2          
MisPlume(west)    GOM_UW_1704    2017-04-12T15:07:58Z    -92.0073   28.9394   22.8365      32.849    316.0619072           2          
MisPlume(west)    GOM_UW_1704    2017-04-12T15:09:29Z    -92.0066   28.9358   22.7967      32.897    316.7021467           2          
MisPlume(west)    GOM_UW_1704    2017-04-12T15:11:00Z    -92.0059   28.9321   22.8152      32.953    317.9943582           2          
MisPlume(west)    GOM_UW_1704    2017-04-12T15:12:28Z    -92.0052   28.9285   22.8075      32.989    318.9540404           2          
MisPlume(west)    GOM_UW_1704    2017-04-12T15:13:58Z    -92.0045   28.9249   22.7677      33.043    321.0643574           2          
MisPlume(west)    GOM_UW_1704    2017-04-12T15:15:27Z    -92.0039   28.9213   22.756       33.242    324.9868065           2          
MisPlume(west)    GOM_UW_1704    2017-04-12T15:16:54Z    -92.0032   28.9177   22.8178      33.524    336.8260264           2          
MisPlume(west)    GOM_UW_1704    2017-04-12T15:18:24Z    -92.0025   28.9141   22.8926      33.662    342.8976502           2          
MisPlume(west)    GOM_UW_1704    2017-04-12T15:19:53Z    -92.0019   28.9104   22.9081      33.699    343.7158868           2          
MisPlume(west)    GOM_UW_1704    2017-04-12T15:21:21Z    -92.0013   28.9068   22.9034      33.697    344.6694959           2          
MisPlume(west)    GOM_UW_1704    2017-04-12T15:22:49Z    -92.0007   28.9031   22.9059      33.751    345.5471526           2          
MisPlume(west)    GOM_UW_1704    2017-04-12T15:24:17Z    -92.0002   28.9001   22.9205      33.797    346.767587            2          
MisPlume(west)    GOM_UW_1704    2017-04-12T15:25:45Z    -91.9998   28.8995   22.9052      33.795    346.0109987           2          
MisPlume(west)    GOM_UW_1704    2017-04-12T15:27:13Z    -91.9998   28.8996   22.916       33.794    346.6468765           2          
MisPlume(west)    GOM_UW_1704    2017-04-12T15:28:40Z    -92        28.8997   22.9138      33.792    345.483373            2          
MisPlume(west)    GOM_UW_1704    2017-04-12T15:30:09Z    -92.0003   28.8998   22.9241      33.791    346.8372816           2          
MisPlume(west)    GOM_UW_1704    2017-04-12T15:31:41Z    -92.0006   28.8998   22.924       33.83     347.9522928           2          
MisPlume(west)    GOM_UW_1704    2017-04-12T15:33:09Z    -92.0009   28.8997   22.9117      33.826    347.8446865           2          
MisPlume(west)    GOM_UW_1704    2017-04-12T15:34:36Z    -92.0012   28.8997   22.9221      33.805    347.47179             2          
MisPlume(west)    GOM_UW_1704    2017-04-12T15:36:04Z    -92.0016   28.8996   22.935       33.791    347.40275             2          
MisPlume(west)    GOM_UW_1704    2017-04-12T15:37:34Z    -92.0019   28.8996   22.9364      33.792    347.8799445           2          
MisPlume(west)    GOM_UW_1704    2017-04-12T15:39:05Z    -92.0023   28.8996   22.9355      33.795    347.3455345           2          
MisPlume(west)    GOM_UW_1704    2017-04-12T15:40:33Z    -92.0026   28.8996   22.9531      33.793    346.1698874           2          
MisPlume(west)    GOM_UW_1704    2017-04-12T15:42:01Z    -92.003    28.8995   22.9509      33.795    347.1226836           2          
MisPlume(west)    GOM_UW_1704    2017-04-12T15:43:33Z    -92.0033   28.8995   22.9674      33.795    345.6615367           2          
MisPlume(west)    GOM_UW_1704    2017-04-12T15:45:04Z    -92.0037   28.8994   22.9611      33.799    346.9412792           2          
MisPlume(west)    GOM_UW_1704    2017-04-12T15:46:34Z    -92.0041   28.8994   22.9525      33.807    348.3300846           2          
MisPlume(west)    GOM_UW_1704    2017-04-12T15:48:03Z    -92.0045   28.8994   22.955       33.801    346.7689462           2          
MisPlume(west)    GOM_UW_1704    2017-04-12T15:49:34Z    -92.0048   28.8993   22.958       33.785    347.7028681           2          
MisPlume(west)    GOM_UW_1704    2017-04-12T15:51:03Z    -92.0051   28.8992   22.9561      33.792    346.9670078           2          
MisPlume(west)    GOM_UW_1704    2017-04-12T15:52:32Z    -92.0055   28.8992   22.955       33.787    346.110953            2          
MisPlume(west)    GOM_UW_1704    2017-04-12T15:54:00Z    -92.0058   28.8992   22.9671      33.781    345.4000929           2          
MisPlume(west)    GOM_UW_1704    2017-04-12T15:55:27Z    -92.0062   28.8991   22.9684      33.775    346.3581412           2          
MisPlume(west)    GOM_UW_1704    2017-04-12T15:56:56Z    -92.0065   28.8991   22.9659      33.77     346.1848019           2          
MisPlume(west)    GOM_UW_1704    2017-04-12T15:58:25Z    -92.0069   28.8991   22.9744      33.766    348.0128593           2          
MisPlume(west)    GOM_UW_1704    2017-04-12T15:59:56Z    -92.0072   28.8992   22.9716      33.763    345.6460756           2          
MisPlume(west)    GOM_UW_1704    2017-04-12T16:01:25Z    -92.0078   28.8994   22.9963      33.75     345.4563142           2          
MisPlume(west)    GOM_UW_1704    2017-04-12T16:02:54Z    -92.0079   28.8961   23.0004      33.763    347.2873245           2          
MisPlume(west)    GOM_UW_1704    2017-04-12T16:04:21Z    -92.0079   28.8924   23.0079      33.806    348.7724031           2          
MisPlume(west)    GOM_UW_1704    2017-04-12T16:05:52Z    -92.0077   28.8886   23.0179      33.842    352.9745362           2          
MisPlume(west)    GOM_UW_1704    2017-04-12T16:07:21Z    -92.0075   28.8848   23.0352      33.841    352.2930072           2          
MisPlume(west)    GOM_UW_1704    2017-04-12T16:08:49Z    -92.0072   28.8812   23.0115      33.82     355.9184309           2          
MisPlume(west)    GOM_UW_1704    2017-04-12T16:10:17Z    -92.0068   28.8776   22.9862      33.915    358.5410615           2          
MisPlume(west)    GOM_UW_1704    2017-04-12T16:11:45Z    -92.0065   28.874    22.9669      34.014    360.2181442           2          
MisPlume(west)    GOM_UW_1704    2017-04-12T16:13:14Z    -92.0063   28.8702   22.9904      34.192    362.9977907           2          
MisPlume(west)    GOM_UW_1704    2017-04-12T16:14:45Z    -92.006    28.8665   22.9913      34.499    361.5732598           2          
MisPlume(west)    GOM_UW_1704    2017-04-12T16:16:14Z    -92.0056   28.863    23.0296      34.638    367.5552029           2          
MisPlume(west)    GOM_UW_1704    2017-04-12T16:17:42Z    -92.0053   28.8594   23.0529      34.655    369.0234994           2          
MisPlume(west)    GOM_UW_1704    2017-04-12T16:19:10Z    -92.005    28.8558   23.0303      34.656    372.3621851           2          
MisPlume(west)    GOM_UW_1704    2017-04-12T16:20:38Z    -92.0048   28.8522   22.9903      34.673    372.9752278           2          
MisPlume(west)    GOM_UW_1704    2017-04-12T16:22:07Z    -92.0045   28.8485   22.9892      34.717    373.0148108           2          
MisPlume(west)    GOM_UW_1704    2017-04-12T16:23:34Z    -92.0041   28.845    23.0048      34.752    374.8370421           2          
MisPlume(west)    GOM_UW_1704    2017-04-12T16:25:04Z    -92.0038   28.8412   22.9871      34.858    376.137108            2          
MisPlume(west)    GOM_UW_1704    2017-04-12T16:26:31Z    -92.0034   28.8376   22.988       34.946    378.0451884           2          
MisPlume(west)    GOM_UW_1704    2017-04-12T16:28:03Z    -92.0031   28.8339   22.9798      35.002    378.757888            2          
MisPlume(west)    GOM_UW_1704    2017-04-12T16:29:33Z    -92.0028   28.8302   23.004       35.054    nd                    2          
MisPlume(west)    GOM_UW_1704    2017-04-12T16:31:04Z    -92.0025   28.8266   23.0019      35.088    381.4339751           2          
MisPlume(west)    GOM_UW_1704    2017-04-12T16:32:33Z    -92.0023   28.823    23.011       35.121    382.5543366           2          
MisPlume(west)    GOM_UW_1704    2017-04-12T16:34:04Z    -92.002    28.8194   23.0146      35.153    383.7157029           2          
MisPlume(west)    GOM_UW_1704    2017-04-12T16:35:31Z    -92.0017   28.8158   23.0158      35.187    383.3625659           2          
MisPlume(west)    GOM_UW_1704    2017-04-12T16:37:01Z    -92.0014   28.8121   23.0154      35.232    384.9813292           2          
MisPlume(west)    GOM_UW_1704    2017-04-12T16:38:28Z    -92.0012   28.8086   23.0132      35.276    390.7916896           2          
MisPlume(west)    GOM_UW_1704    2017-04-12T16:39:57Z    -92.001    28.805    23.0011      35.309    392.9135193           2          
MisPlume(west)    GOM_UW_1704    2017-04-12T16:41:24Z    -92.0007   28.8014   23.0055      35.361    396.6710929           2          
MisPlume(west)    GOM_UW_1704    2017-04-12T16:42:56Z    -92.0006   28.7977   23.0049      35.419    399.7285122           2          
MisPlume(west)    GOM_UW_1704    2017-04-12T16:44:24Z    -92.0007   28.7941   23.0052      35.462    398.2814976           2          
MisPlume(west)    GOM_UW_1704    2017-04-12T16:45:52Z    -92.0011   28.7918   22.9816      35.523    396.1747905           2          
MisPlume(west)    GOM_UW_1704    2017-04-12T16:47:21Z    -92.0013   28.7916   22.931       35.604    393.9005696           2          
MisPlume(west)    GOM_UW_1704    2017-04-12T16:48:49Z    -92.0017   28.7916   22.8841      35.694    393.5235585           2          
MisPlume(west)    GOM_UW_1704    2017-04-12T16:50:17Z    -92.0021   28.7915   22.9449      35.58     393.8610246           2          
MisPlume(west)    GOM_UW_1704    2017-04-12T16:51:45Z    -92.0026   28.7916   22.9641      35.57     392.4749396           2          
MisPlume(west)    GOM_UW_1704    2017-04-12T16:53:15Z    -92.003    28.7916   22.9784      35.563    395.0118808           2          
MisPlume(west)    GOM_UW_1704    2017-04-12T16:54:43Z    -92.0035   28.7916   22.9863      35.576    392.7928723           2          
MisPlume(west)    GOM_UW_1704    2017-04-12T16:56:11Z    -92.0039   28.7917   22.9861      35.576    394.8457756           2          
MisPlume(west)    GOM_UW_1704    2017-04-12T16:57:40Z    -92.0044   28.7916   23.0041      35.569    393.5447351           2          
MisPlume(west)    GOM_UW_1704    2017-04-12T16:59:07Z    -92.0048   28.7916   23.0068      35.581    393.4354059           2          
MisPlume(west)    GOM_UW_1704    2017-04-12T17:00:36Z    -92.0053   28.7916   22.9897      35.597    394.4884916           2          
MisPlume(west)    GOM_UW_1704    2017-04-12T17:02:04Z    -92.0058   28.7916   23.0008      35.581    395.8319902           2          
MisPlume(west)    GOM_UW_1704    2017-04-12T17:03:33Z    -92.0062   28.7916   22.9956      35.587    395.3010075           2          
MisPlume(west)    GOM_UW_1704    2017-04-12T17:05:04Z    -92.0065   28.7917   22.8958      35.721    395.4980037           2          
MisPlume(west)    GOM_UW_1704    2017-04-12T17:06:32Z    -92.0067   28.7919   22.9843      35.61     392.3341666           2          
MisPlume(west)    GOM_UW_1704    2017-04-12T17:08:00Z    -92.007    28.7921   23.0165      35.581    396.3768422           2          
MisPlume(west)    GOM_UW_1704    2017-04-12T17:09:29Z    -92.0073   28.7923   23.0152      35.581    396.1534655           2          
MisPlume(west)    GOM_UW_1704    2017-04-12T17:11:00Z    -92.0076   28.7925   23.0374      35.576    395.9199656           2          
MisPlume(west)    GOM_UW_1704    2017-04-12T17:12:28Z    -92.0082   28.7926   23.0558      35.569    397.4944551           2          
MisPlume(west)    GOM_UW_1704    2017-04-12T17:13:56Z    -92.0089   28.7905   23.0342      35.545    395.7526077           2          
MisPlume(west)    GOM_UW_1704    2017-04-12T17:15:24Z    -92.0087   28.787    23.0325      35.528    397.554609            2          
MisPlume(west)    GOM_UW_1704    2017-04-12T17:16:53Z    -92.0083   28.7834   23.0302      35.532    395.8318136           2          
MisPlume(west)    GOM_UW_1704    2017-04-12T17:18:21Z    -92.0079   28.78     23.0281      35.548    395.7508239           2          
MisPlume(west)    GOM_UW_1704    2017-04-12T17:30:56Z    -92.0057   28.7505   22.9138      35.671    393.4431142           2          
MisPlume(west)    GOM_UW_1704    2017-04-12T17:32:26Z    -92.0055   28.7471   22.9067      35.688    394.6306202           2          
MisPlume(west)    GOM_UW_1704    2017-04-12T17:33:55Z    -92.0052   28.7436   22.9089      35.703    394.3147823           2          
MisPlume(west)    GOM_UW_1704    2017-04-12T17:35:24Z    -92.005    28.7402   22.9047      35.701    394.1980984           2          
MisPlume(west)    GOM_UW_1704    2017-04-12T17:36:52Z    -92.0047   28.7368   22.8804      35.714    391.7763914           2          
MisPlume(west)    GOM_UW_1704    2017-04-12T17:38:21Z    -92.0044   28.7334   22.8685      35.735    392.9816722           2          
MisPlume(west)    GOM_UW_1704    2017-04-12T17:39:52Z    -92.0042   28.7299   22.8801      35.731    394.7943256           2          
MisPlume(west)    GOM_UW_1704    2017-04-12T17:41:21Z    -92.0039   28.7264   22.8947      35.765    395.7014262           2          
MisPlume(west)    GOM_UW_1704    2017-04-12T17:42:50Z    -92.0037   28.723    22.9121      35.795    394.0544294           2          
MisPlume(west)    GOM_UW_1704    2017-04-12T17:44:21Z    -92.0034   28.7195   22.9102      35.812    397.3874926           2          
MisPlume(west)    GOM_UW_1704    2017-04-12T17:45:52Z    -92.0032   28.716    22.9093      35.815    399.7535642           2          
MisPlume(west)    GOM_UW_1704    2017-04-12T17:47:20Z    -92.0029   28.7126   22.8974      35.831    nd                    2          
MisPlume(west)    GOM_UW_1704    2017-04-12T17:48:49Z    -92.0027   28.7091   23.0009      35.89     397.7382355           2          
MisPlume(west)    GOM_UW_1704    2017-04-12T17:50:17Z    -92.0025   28.7057   22.9684      35.938    402.3941998           2          
MisPlume(west)    GOM_UW_1704    2017-04-12T17:51:44Z    -92.0023   28.7023   22.9968      35.941    399.3955039           2          
MisPlume(west)    GOM_UW_1704    2017-04-12T17:53:16Z    -92.0021   28.6987   22.9677      35.965    403.3676625           2          
MisPlume(west)    GOM_UW_1704    2017-04-12T17:54:47Z    -92.0018   28.6952   22.9044      35.999    402.3052496           2          
MisPlume(west)    GOM_UW_1704    2017-04-12T17:56:15Z    -92.0016   28.6918   22.8575      36.015    401.7928342           2          
MisPlume(west)    GOM_UW_1704    2017-04-12T17:57:46Z    -92.0014   28.6882   22.8921      36.02     399.5811703           2          
MisPlume(west)    GOM_UW_1704    2017-04-12T17:59:14Z    -92.0012   28.6848   22.888       36.034    400.3153737           2          
MisPlume(west)    GOM_UW_1704    2017-04-12T18:00:43Z    -92.001    28.6814   22.8768      36.045    401.7329839           2          
MisPlume(west)    GOM_UW_1704    2017-04-12T18:02:12Z    -92.0007   28.678    22.8559      36.046    398.7285135           2          
MisPlume(west)    GOM_UW_1704    2017-04-12T18:03:40Z    -92.0004   28.6751   22.8566      36.049    401.2368891           2          
MisPlume(west)    GOM_UW_1704    2017-04-12T18:05:11Z    -92        28.675    22.8823      36.046    395.9120245           2          
MisPlume(west)    GOM_UW_1704    2017-04-12T18:06:39Z    -92.0002   28.6754   22.8767      36.046    400.0495364           2          
MisPlume(west)    GOM_UW_1704    2017-04-12T18:08:07Z    -92.0005   28.6757   22.8686      36.046    405.6389544           2          
MisPlume(west)    GOM_UW_1704    2017-04-12T18:09:36Z    -92.0008   28.676    22.8783      36.046    401.5320091           2          
MisPlume(west)    GOM_UW_1704    2017-04-12T18:11:04Z    -92.0012   28.6762   22.8704      36.047    399.7051851           2          
MisPlume(west)    GOM_UW_1704    2017-04-12T18:12:33Z    -92.0016   28.6765   22.7811      36.057    399.2598643           2          
MisPlume(west)    GOM_UW_1704    2017-04-12T18:14:02Z    -92.0021   28.6766   22.7959      36.053    402.7691642           2          
MisPlume(west)    GOM_UW_1704    2017-04-12T18:15:30Z    -92.0025   28.6768   22.8709      36.047    398.4116523           2          
MisPlume(west)    GOM_UW_1704    2017-04-12T18:16:58Z    -92.0029   28.677    22.8867      36.049    395.5509852           2          
MisPlume(west)    GOM_UW_1704    2017-04-12T18:18:26Z    -92.0034   28.6772   22.8729      36.051    389.6731428           2          
MisPlume(west)    GOM_UW_1704    2017-04-12T18:19:55Z    -92.0039   28.6773   22.8725      36.052    391.5081886           2          
MisPlume(west)    GOM_UW_1704    2017-04-12T18:21:24Z    -92.0043   28.6775   22.8573      36.054    394.5035368           2          
MisPlume(west)    GOM_UW_1704    2017-04-12T18:22:52Z    -92.0048   28.6777   22.8723      36.053    397.2346098           2          
MisPlume(west)    GOM_UW_1704    2017-04-12T18:24:22Z    -92.0052   28.678    22.8971      36.052    398.527629            2          
MisPlume(west)    GOM_UW_1704    2017-04-12T18:25:52Z    -92.0057   28.6782   22.9127      36.052    397.0477111           2          
MisPlume(west)    GOM_UW_1704    2017-04-12T18:27:20Z    -92.0061   28.6784   22.8952      36.054    394.6161111           2          
MisPlume(west)    GOM_UW_1704    2017-04-12T18:28:47Z    -92.0065   28.6786   22.8949      36.055    391.3945433           2          
MisPlume(west)    GOM_UW_1704    2017-04-12T18:30:19Z    -92.007    28.6787   22.9028      36.054    389.1282969           2          
MisPlume(west)    GOM_UW_1704    2017-04-12T18:31:47Z    -92.0075   28.6789   22.9223      36.054    394.821732            2          
MisPlume(west)    GOM_UW_1704    2017-04-12T18:33:16Z    -92.0081   28.6802   22.9091      36.055    397.9317454           2          
MisPlume(west)    GOM_UW_1704    2017-04-12T18:34:44Z    -92.0101   28.6833   22.9143      36.056    398.1169117           2          
MisPlume(west)    GOM_UW_1704    2017-04-12T18:36:11Z    -92.0124   28.6866   22.9533      36.063    400.0483516           2          
MisPlume(west)    GOM_UW_1704    2017-04-12T18:37:42Z    -92.0147   28.69     22.8864      36.088    403.5103902           2          
MisPlume(west)    GOM_UW_1704    2017-04-12T18:39:10Z    -92.017    28.6933   22.8616      36.095    397.9877605           2          
MisPlume(west)    GOM_UW_1704    2017-04-12T18:40:38Z    -92.0192   28.6966   22.9237      36.108    397.8826854           2          
MisPlume(west)    GOM_UW_1704    2017-04-12T18:42:06Z    -92.0214   28.6999   22.8995      36.155    404.5829983           2          
MisPlume(west)    GOM_UW_1704    2017-04-12T18:43:36Z    -92.0237   28.7032   22.8764      36.147    403.9190474           2          
MisPlume(west)    GOM_UW_1704    2017-04-12T18:45:05Z    -92.0259   28.7065   22.9289      36.113    404.1857206           2          
MisPlume(west)    GOM_UW_1704    2017-04-12T18:46:35Z    -92.0282   28.7099   22.9369      36.068    402.0224481           2          
MisPlume(west)    GOM_UW_1704    2017-04-12T18:48:03Z    -92.0305   28.7133   22.9716      36.033    403.2158984           2          
MisPlume(west)    GOM_UW_1704    2017-04-12T18:49:34Z    -92.0328   28.7167   23.0251      35.998    401.1999832           2          
MisPlume(west)    GOM_UW_1704    2017-04-12T18:51:04Z    -92.0351   28.7202   23.0041      36.011    404.6553955           2          
MisPlume(west)    GOM_UW_1704    2017-04-12T18:52:33Z    -92.0375   28.7236   22.9542      36.03     402.6965274           2          
MisPlume(west)    GOM_UW_1704    2017-04-12T18:54:01Z    -92.0397   28.727    22.9374      36.038    402.3116587           2          
MisPlume(west)    GOM_UW_1704    2017-04-12T18:55:28Z    -92.042    28.7303   22.9151      36.045    401.1463391           2          
MisPlume(west)    GOM_UW_1704    2017-04-12T18:57:00Z    -92.0444   28.7338   22.9151      36.048    408.9768414           2          
MisPlume(west)    GOM_UW_1704    2017-04-12T18:58:29Z    -92.0467   28.7372   22.9196      36.048    405.2706163           2          
MisPlume(west)    GOM_UW_1704    2017-04-12T18:59:57Z    -92.049    28.7405   22.9375      36.044    407.2787307           2          
MisPlume(west)    GOM_UW_1704    2017-04-12T19:01:26Z    -92.0513   28.7439   22.9265      36.051    406.6267596           2          
MisPlume(west)    GOM_UW_1704    2017-04-12T19:02:54Z    -92.0536   28.7473   22.9309      36.073    407.1222125           2          
MisPlume(west)    GOM_UW_1704    2017-04-12T19:04:23Z    -92.0561   28.7505   22.934       36.079    402.681177            2          
MisPlume(west)    GOM_UW_1704    2017-04-12T19:05:51Z    -92.0589   28.7535   22.9039      36.091    397.5734159           2          
MisPlume(west)    GOM_UW_1704    2017-04-12T19:07:20Z    -92.0616   28.7565   22.8566      36.103    401.4811294           2          
MisPlume(west)    GOM_UW_1704    2017-04-12T19:08:49Z    -92.0644   28.7596   22.8289      36.109    400.065775            2          
MisPlume(west)    GOM_UW_1704    2017-04-12T19:10:19Z    -92.0671   28.7627   22.8392      36.107    399.4333326           2          
MisPlume(west)    GOM_UW_1704    2017-04-12T19:11:48Z    -92.0699   28.7658   22.8988      36.094    403.3964745           2          
MisPlume(west)    GOM_UW_1704    2017-04-12T19:13:17Z    -92.0727   28.7689   22.9564      36.086    402.8098518           2          
MisPlume(west)    GOM_UW_1704    2017-04-12T19:14:45Z    -92.0754   28.7719   22.9672      36.092    400.2132749           2          
MisPlume(west)    GOM_UW_1704    2017-04-12T19:16:13Z    -92.0782   28.775    22.9922      36.104    401.9144562           2          
MisPlume(west)    GOM_UW_1704    2017-04-12T19:17:41Z    -92.081    28.778    22.989       36.156    400.0495738           2          
MisPlume(west)    GOM_UW_1704    2017-04-12T19:19:10Z    -92.0837   28.7811   22.9404      36.189    402.3166833           2          
MisPlume(west)    GOM_UW_1704    2017-04-12T19:20:41Z    -92.0865   28.7841   22.9564      36.198    398.7532476           2          
MisPlume(west)    GOM_UW_1704    2017-04-12T19:22:08Z    -92.0891   28.7871   22.9194      36.196    403.5760726           2          
MisPlume(west)    GOM_UW_1704    2017-04-12T19:23:37Z    -92.0919   28.7901   22.8987      36.188    404.5794235           2          
MisPlume(west)    GOM_UW_1704    2017-04-12T19:25:07Z    -92.0946   28.7932   22.9162      36.191    397.0846749           2          
MisPlume(west)    GOM_UW_1704    2017-04-12T19:26:36Z    -92.0973   28.7962   22.9415      36.199    398.3055114           2          
MisPlume(west)    GOM_UW_1704    2017-04-12T19:28:07Z    -92.1001   28.7993   22.9666      36.203    406.9411919           2          
MisPlume(west)    GOM_UW_1704    2017-04-12T19:29:36Z    -92.1028   28.8023   22.9782      36.177    402.069289            2          
MisPlume(west)    GOM_UW_1704    2017-04-12T19:31:04Z    -92.1039   28.8058   22.9679      36.152    403.2850194           2          
MisPlume(west)    GOM_UW_1704    2017-04-12T19:32:31Z    -92.1051   28.8093   22.9317      36.119    404.5330898           2          
MisPlume(west)    GOM_UW_1704    2017-04-12T19:33:59Z    -92.1063   28.8129   22.9261      36.106    405.3057322           2          
MisPlume(west)    GOM_UW_1704    2017-04-12T19:35:28Z    -92.1075   28.8165   22.9603      36.087    406.5288057           2          
MisPlume(west)    GOM_UW_1704    2017-04-12T19:36:57Z    -92.1087   28.8201   23.0089      36.068    416.3665793           2          
MisPlume(west)    GOM_UW_1704    2017-04-12T19:38:28Z    -92.1099   28.8238   23.0793      36.052    411.8239178           2          
MisPlume(west)    GOM_UW_1704    2017-04-12T19:39:55Z    -92.111    28.8273   23.0393      36.016    409.9018002           2          
MisPlume(west)    GOM_UW_1704    2017-04-12T19:41:25Z    -92.1122   28.831    23.0701      35.979    407.2803865           2          
MisPlume(west)    GOM_UW_1704    2017-04-12T19:42:52Z    -92.1134   28.8344   23.0203      35.905    408.1176222           2          
MisPlume(west)    GOM_UW_1704    2017-04-12T19:44:20Z    -92.1146   28.838    23.0594      35.857    414.1602425           2          
MisPlume(west)    GOM_UW_1704    2017-04-12T19:45:49Z    -92.1158   28.8417   23.118       35.608    407.7459223           2          
MisPlume(west)    GOM_UW_1704    2017-04-12T19:47:19Z    -92.117    28.8454   23.1331      35.345    399.7963126           2          
MisPlume(west)    GOM_UW_1704    2017-04-12T19:48:47Z    -92.1182   28.8491   23.18        35.006    397.2579814           2          
MisPlume(west)    GOM_UW_1704    2017-04-12T19:50:15Z    -92.1194   28.8528   23.3112      34.704    389.9294446           2          
MisPlume(west)    GOM_UW_1704    2017-04-12T19:51:43Z    -92.1207   28.8565   23.2503      34.657    385.5760509           2          
MisPlume(west)    GOM_UW_1704    2017-04-12T19:53:11Z    -92.1218   28.8601   23.2375      34.545    381.0965962           2          
MisPlume(west)    GOM_UW_1704    2017-04-12T19:54:39Z    -92.123    28.8638   23.1609      34.485    380.0877415           2          
MisPlume(west)    GOM_UW_1704    2017-04-12T19:56:07Z    -92.1242   28.8675   23.1623      34.466    382.0721097           2          
MisPlume(west)    GOM_UW_1704    2017-04-12T19:57:36Z    -92.1255   28.8712   23.1924      34.422    384.0160928           2          
MisPlume(west)    GOM_UW_1704    2017-04-12T19:59:05Z    -92.1267   28.8749   23.1864      34.419    383.3859458           2          
MisPlume(west)    GOM_UW_1704    2017-04-12T20:00:33Z    -92.1279   28.8787   23.1899      34.402    381.7899563           2          
MisPlume(west)    GOM_UW_1704    2017-04-12T20:02:01Z    -92.1291   28.8824   23.2024      34.363    380.9213815           2          
MisPlume(west)    GOM_UW_1704    2017-04-12T20:03:29Z    -92.1303   28.8861   23.2238      34.371    379.0828752           2          
MisPlume(west)    GOM_UW_1704    2017-04-12T20:04:57Z    -92.1316   28.8898   23.2227      34.406    379.5003342           2          
MisPlume(west)    GOM_UW_1704    2017-04-12T20:06:26Z    -92.1328   28.8935   23.2414      34.379    379.1124232           2          
MisPlume(west)    GOM_UW_1704    2017-04-12T20:07:57Z    -92.134    28.8973   23.17        34.426    376.6785197           2          
MisPlume(west)    GOM_UW_1704    2017-04-12T20:09:24Z    -92.1353   28.9009   23.1915      34.406    376.3039023           2          
MisPlume(west)    GOM_UW_1704    2017-04-12T20:10:52Z    -92.1367   28.9045   23.1785      34.433    378.3774326           2          
MisPlume(west)    GOM_UW_1704    2017-04-12T20:12:20Z    -92.1387   28.9078   23.1693      34.449    376.1890217           2          
MisPlume(west)    GOM_UW_1704    2017-04-12T20:13:51Z    -92.1407   28.9114   23.1538      34.45     376.6890836           2          
MisPlume(west)    GOM_UW_1704    2017-04-12T20:15:23Z    -92.1427   28.9149   23.1052      34.416    374.8848754           2          
MisPlume(west)    GOM_UW_1704    2017-04-12T20:16:51Z    -92.1447   28.9183   23.1284      34.407    374.3262569           2          
MisPlume(west)    GOM_UW_1704    2017-04-12T20:18:20Z    -92.1468   28.9217   23.1581      34.397    370.9377275           2          
MisPlume(west)    GOM_UW_1704    2017-04-12T20:19:49Z    -92.1488   28.9252   23.1851      34.361    371.8219511           2          
MisPlume(west)    GOM_UW_1704    2017-04-12T20:21:17Z    -92.1508   28.9286   23.3598      34.034    371.2746869           2          
MisPlume(west)    GOM_UW_1704    2017-04-12T20:22:45Z    -92.1528   28.932    23.3736      33.768    363.8639145           2          
MisPlume(west)    GOM_UW_1704    2017-04-12T20:24:14Z    -92.155    28.9355   23.3329      33.651    361.128668            2          
MisPlume(west)    GOM_UW_1704    2017-04-12T20:25:42Z    -92.1572   28.9389   23.3538      33.579    358.6667552           2          
MisPlume(west)    GOM_UW_1704    2017-04-12T20:27:10Z    -92.1594   28.9423   23.3148      33.566    354.6320469           2          
MisPlume(west)    GOM_UW_1704    2017-04-12T20:39:48Z    -92.1783   28.9722   23.2937      33.47     354.3898913           2          
MisPlume(west)    GOM_UW_1704    2017-04-12T20:41:16Z    -92.1805   28.9757   23.2969      33.434    353.3496691           2          
MisPlume(west)    GOM_UW_1704    2017-04-12T20:42:44Z    -92.1827   28.9792   23.2991      33.418    353.7655671           2          
MisPlume(west)    GOM_UW_1704    2017-04-12T20:44:12Z    -92.185    28.9827   23.2948      33.388    353.0828692           2          
MisPlume(west)    GOM_UW_1704    2017-04-12T20:45:40Z    -92.1872   28.9862   23.3262      33.353    348.1945583           2          
MisPlume(west)    GOM_UW_1704    2017-04-12T20:47:10Z    -92.1895   28.9898   23.3282      33.33     348.7653256           2          
MisPlume(west)    GOM_UW_1704    2017-04-12T20:48:40Z    -92.1917   28.9935   23.3418      33.291    347.9283721           2          
MisPlume(west)    GOM_UW_1704    2017-04-12T20:50:08Z    -92.194    28.9971   23.3462      33.259    344.8531764           2          
MisPlume(west)    GOM_UW_1704    2017-04-12T20:51:36Z    -92.1963   29.0006   23.37        33.225    343.6344809           2          
MisPlume(west)    GOM_UW_1704    2017-04-12T20:53:04Z    -92.1986   29.0042   23.3728      33.228    344.1322664           2          
MisPlume(west)    GOM_UW_1704    2017-04-12T20:54:33Z    -92.2009   29.0079   23.3766      33.232    348.7576774           2          
MisPlume(west)    GOM_UW_1704    2017-04-12T20:56:01Z    -92.2032   29.0115   23.3755      33.241    nd                    2          
MisPlume(west)    GOM_UW_1704    2017-04-12T20:57:29Z    -92.2054   29.0151   23.3765      33.261    347.2638161           2          
MisPlume(west)    GOM_UW_1704    2017-04-12T20:58:58Z    -92.2078   29.0187   23.3734      33.277    349.9786756           2          
MisPlume(west)    GOM_UW_1704    2017-04-12T21:00:26Z    -92.2101   29.0224   23.3552      33.311    349.7156364           2          
MisPlume(west)    GOM_UW_1704    2017-04-12T21:01:54Z    -92.2124   29.026    23.3687      33.31     352.1769037           2          
MisPlume(west)    GOM_UW_1704    2017-04-12T21:03:23Z    -92.2148   29.0297   23.3629      33.33     348.3513234           2          
MisPlume(west)    GOM_UW_1704    2017-04-12T21:04:50Z    -92.217    29.0333   23.3424      33.379    348.1478033           2          
MisPlume(west)    GOM_UW_1704    2017-04-12T21:06:19Z    -92.2194   29.037    23.3461      33.405    355.1131398           2          
MisPlume(west)    GOM_UW_1704    2017-04-12T21:07:46Z    -92.2217   29.0405   23.3481      33.415    353.6139352           2          
MisPlume(west)    GOM_UW_1704    2017-04-12T21:09:15Z    -92.224    29.0442   23.3623      33.445    353.8250584           2          
MisPlume(west)    GOM_UW_1704    2017-04-12T21:10:44Z    -92.2263   29.0479   23.3746      33.454    357.3475173           2          
MisPlume(west)    GOM_UW_1704    2017-04-12T21:12:11Z    -92.2286   29.0515   23.3978      33.456    348.5470592           2          
MisPlume(west)    GOM_UW_1704    2017-04-12T21:13:40Z    -92.231    29.0552   23.4212      33.476    348.7216504           2          
MisPlume(west)    GOM_UW_1704    2017-04-12T21:15:07Z    -92.2333   29.0589   23.4317      33.512    359.0347138           2          
MisPlume(west)    GOM_UW_1704    2017-04-12T21:16:35Z    -92.2356   29.0625   23.4483      33.53     354.4098065           2          
MisPlume(west)    GOM_UW_1704    2017-04-12T21:18:04Z    -92.238    29.0662   23.444       33.59     359.7572989           2          
MisPlume(west)    GOM_UW_1704    2017-04-12T21:19:32Z    -92.2403   29.0699   23.4387      33.636    352.4978565           2          
MisPlume(west)    GOM_UW_1704    2017-04-12T21:21:01Z    -92.2427   29.0736   23.4241      33.685    353.8391045           2          
MisPlume(west)    GOM_UW_1704    2017-04-12T21:22:28Z    -92.2449   29.0772   23.385       33.783    359.8199006           2          
MisPlume(west)    GOM_UW_1704    2017-04-12T21:23:57Z    -92.2473   29.0808   23.3885      33.826    360.0366876           2          
MisPlume(west)    GOM_UW_1704    2017-04-12T21:25:25Z    -92.2495   29.0845   23.3246      33.952    358.3535651           2          
MisPlume(west)    GOM_UW_1704    2017-04-12T21:26:54Z    -92.2519   29.0881   23.2652      34.063    361.2034667           2          
MisPlume(west)    GOM_UW_1704    2017-04-12T21:28:22Z    -92.2541   29.0917   23.2658      34.076    360.6137938           2          
MisPlume(west)    GOM_UW_1704    2017-04-12T21:29:51Z    -92.2565   29.0953   23.2392      34.134    365.3672652           2          
MisPlume(west)    GOM_UW_1704    2017-04-12T21:31:20Z    -92.2587   29.0989   23.2395      34.175    366.1301458           2          
MisPlume(west)    GOM_UW_1704    2017-04-12T21:32:51Z    -92.2611   29.1026   23.1969      34.268    363.1618455           2          
MisPlume(west)    GOM_UW_1704    2017-04-12T21:34:19Z    -92.2633   29.1061   23.204       34.321    364.2538521           2          
MisPlume(west)    GOM_UW_1704    2017-04-12T21:35:50Z    -92.2656   29.1097   23.2156      34.341    373.7181166           2          
MisPlume(west)    GOM_UW_1704    2017-04-12T21:37:22Z    -92.2679   29.1132   23.1064      34.325    367.8832833           2          
MisPlume(west)    GOM_UW_1704    2017-04-12T21:38:50Z    -92.27     29.1166   22.9579      34.041    370.3601152           2          
MisPlume(west)    GOM_UW_1704    2017-04-12T21:40:20Z    -92.2721   29.12     22.855       33.917    372.4243122           2          
MisPlume(west)    GOM_UW_1704    2017-04-12T21:41:48Z    -92.2742   29.1233   22.8949      33.861    372.9201172           2          
MisPlume(west)    GOM_UW_1704    2017-04-12T21:43:20Z    -92.2765   29.1268   22.9267      33.765    354.8377857           2          
MisPlume(west)    GOM_UW_1704    2017-04-12T21:44:47Z    -92.2786   29.1301   23.009       33.686    347.7713057           2          
MisPlume(west)    GOM_UW_1704    2017-04-12T21:46:16Z    -92.2808   29.1336   23.0715      33.617    357.8513997           2          
MisPlume(west)    GOM_UW_1704    2017-04-12T21:47:45Z    -92.283    29.1371   23.1359      33.574    346.8975899           2          
MisPlume(west)    GOM_UW_1704    2017-04-12T21:49:14Z    -92.2852   29.1405   23.1548      33.575    353.3882018           2          
MisPlume(west)    GOM_UW_1704    2017-04-12T21:50:45Z    -92.2874   29.1441   23.1643      33.597    353.06906             2          
MisPlume(west)    GOM_UW_1704    2017-04-12T21:52:13Z    -92.2897   29.1476   23.2343      33.591    350.7137473           2          
MisPlume(west)    GOM_UW_1704    2017-04-12T21:53:42Z    -92.2919   29.1511   23.3268      33.586    349.4585585           2          
MisPlume(west)    GOM_UW_1704    2017-04-12T21:55:09Z    -92.2941   29.1544   23.0919      33.613    347.5850206           2          
MisPlume(west)    GOM_UW_1704    2017-04-12T21:56:41Z    -92.2963   29.158    23.1692      33.601    349.0446822           2          
MisPlume(west)    GOM_UW_1704    2017-04-12T21:58:09Z    -92.2985   29.1614   23.2664      33.582    352.6542916           2          
MisPlume(west)    GOM_UW_1704    2017-04-12T21:59:37Z    -92.3007   29.1649   23.2859      33.584    345.6754484           2          
MisPlume(west)    GOM_UW_1704    2017-04-12T22:01:05Z    -92.3029   29.1683   23.2867      33.597    348.4598414           2          
MisPlume(west)    GOM_UW_1704    2017-04-12T22:02:34Z    -92.3051   29.1718   23.2994      33.608    348.1334847           2          
MisPlume(west)    GOM_UW_1704    2017-04-12T22:04:01Z    -92.3072   29.1752   23.325       33.595    347.4090017           2          
MisPlume(west)    GOM_UW_1704    2017-04-12T22:05:31Z    -92.3094   29.1786   23.3221      33.631    354.3507768           2          
MisPlume(west)    GOM_UW_1704    2017-04-12T22:07:02Z    -92.3116   29.182    23.3313      33.644    353.9914256           2          
MisPlume(west)    GOM_UW_1704    2017-04-12T22:08:30Z    -92.3137   29.1853   23.3496      33.662    351.1842831           2          
MisPlume(west)    GOM_UW_1704    2017-04-12T22:09:58Z    -92.3157   29.1885   23.3831      33.676    352.3358096           2          
MisPlume(west)    GOM_UW_1704    2017-04-12T22:11:26Z    -92.3177   29.1916   23.4192      33.695    356.8579578           2          
MisPlume(west)    GOM_UW_1704    2017-04-12T22:12:54Z    -92.3205   29.1943   23.4652      33.719    354.4668378           2          
MisPlume(west)    GOM_UW_1704    2017-04-12T22:14:23Z    -92.3235   29.1968   23.4964      33.756    362.219892            2          
MisPlume(west)    GOM_UW_1704    2017-04-12T22:15:51Z    -92.3266   29.1992   23.5284      33.809    351.878087            2          
MisPlume(west)    GOM_UW_1704    2017-04-12T22:17:19Z    -92.3296   29.2017   23.5593      33.878    366.0514879           2          
MisPlume(west)    GOM_UW_1704    2017-04-12T22:18:48Z    -92.3327   29.2042   23.5789      33.958    361.2664494           2          
MisPlume(west)    GOM_UW_1704    2017-04-12T22:20:17Z    -92.3357   29.2067   23.5903      34.042    369.1562207           2          
MisPlume(west)    GOM_UW_1704    2017-04-12T22:21:45Z    -92.3387   29.2091   23.6141      34.102    373.1080846           2          
MisPlume(west)    GOM_UW_1704    2017-04-12T22:23:13Z    -92.3418   29.2116   23.6121      34.144    385.5285106           2          
MisPlume(west)    GOM_UW_1704    2017-04-12T22:24:44Z    -92.345    29.2142   23.6296      34.149    380.1969243           2          
MisPlume(west)    GOM_UW_1704    2017-04-12T22:26:12Z    -92.348    29.2166   23.6444      34.136    385.6769479           2          
MisPlume(west)    GOM_UW_1704    2017-04-12T22:27:41Z    -92.3511   29.2192   23.6459      34.109    385.6568301           2          
MisPlume(west)    GOM_UW_1704    2017-04-12T22:29:09Z    -92.353    29.2225   23.5991      34.061    395.9578771           2          
MisPlume(west)    GOM_UW_1704    2017-04-12T22:30:38Z    -92.3542   29.226    23.5994      34.03     392.3836758           2          
MisPlume(west)    GOM_UW_1704    2017-04-12T22:32:08Z    -92.3556   29.2295   23.5721      34.01     392.5934297           2          
MisPlume(west)    GOM_UW_1704    2017-04-12T22:33:37Z    -92.3569   29.233    23.5346      33.994    390.7671511           2          
MisPlume(west)    GOM_UW_1704    2017-04-12T22:35:05Z    -92.3582   29.2365   23.5225      33.975    401.0124203           2          
MisPlume(west)    GOM_UW_1704    2017-04-12T22:36:35Z    -92.3595   29.2401   23.5382      33.958    397.1723426           2          
MisPlume(west)    GOM_UW_1704    2017-04-12T22:38:05Z    -92.3608   29.2436   23.4691      33.887    397.6846769           2          
MisPlume(west)    GOM_UW_1704    2017-04-12T22:39:35Z    -92.3622   29.2472   23.5751      33.728    402.7578808           2          
MisPlume(west)    GOM_UW_1704    2017-04-12T22:41:03Z    -92.3635   29.2508   23.7005      33.463    383.7497767           2          
MisPlume(west)    GOM_UW_1704    2017-04-12T22:42:31Z    -92.3648   29.2543   23.6292      33.162    377.1084279           2          
MisPlume(west)    GOM_UW_1704    2017-04-12T22:44:02Z    -92.3662   29.258    23.6312      32.804    373.7158127           2          
MisPlume(west)    GOM_UW_1704    2017-04-12T22:45:31Z    -92.3676   29.2617   23.7195      32.297    351.6740001           2          
MisPlume(west)    GOM_UW_1704    2017-04-12T22:47:00Z    -92.3689   29.2654   23.7896      31.834    326.9426617           2          
MisPlume(west)    GOM_UW_1704    2017-04-12T22:48:31Z    -92.3703   29.2692   23.8719      31.381    313.5051989           2          
MisPlume(west)    GOM_UW_1704    2017-04-12T22:49:59Z    -92.3718   29.2729   23.8663      31.04     304.5290747           2          
MisPlume(west)    GOM_UW_1704    2017-04-12T22:51:27Z    -92.3734   29.2765   23.8825      30.655    291.583               2          
MisPlume(west)    GOM_UW_1704    2017-04-12T22:52:56Z    -92.3749   29.2803   23.9465      30.11     278.5406951           2          
MisPlume(west)    GOM_UW_1704    2017-04-12T22:54:24Z    -92.3765   29.284    23.969       29.534    259.1346049           2          
MisPlume(west)    GOM_UW_1704    2017-04-12T22:55:53Z    -92.3781   29.2879   23.9337      29.095    246.6453761           2          
MisPlume(west)    GOM_UW_1704    2017-04-12T22:57:22Z    -92.3797   29.2917   23.9294      28.782    242.5082287           2          
MisPlume(west)    GOM_UW_1704    2017-04-12T22:58:50Z    -92.3811   29.2955   23.8896      28.611    234.676173            2          
MisPlume(west)    GOM_UW_1704    2017-04-12T23:00:18Z    -92.3826   29.2991   23.8625      28.491    227.6279056           2          
MisPlume(west)    GOM_UW_1704    2017-04-12T23:01:50Z    -92.3829   29.3007   23.8777      28.289    227.434979            2          
MisPlume(west)    GOM_UW_1704    2017-04-12T23:03:20Z    -92.3835   29.3011   23.4876      29.887    258.4713152           2          
MisPlume(west)    GOM_UW_1704    2017-04-12T23:04:49Z    -92.3842   29.3015   23.6837      28.929    262.7402956           2          
MisPlume(west)    GOM_UW_1704    2017-04-12T23:06:18Z    -92.3849   29.3018   23.7024      28.854    250.5901011           2          
MisPlume(west)    GOM_UW_1704    2017-04-12T23:07:46Z    -92.3856   29.3022   23.7039      28.897    251.51927             2          
MisPlume(west)    GOM_UW_1704    2017-04-12T23:09:13Z    -92.3863   29.3025   23.7479      28.725    245.8153922           2          
MisPlume(west)    GOM_UW_1704    2017-04-12T23:10:45Z    -92.3871   29.3029   23.7395      28.737    246.2663058           2          
MisPlume(west)    GOM_UW_1704    2017-04-12T23:12:13Z    -92.3878   29.3034   23.7259      28.805    247.0688795           2          
MisPlume(west)    GOM_UW_1704    2017-04-12T23:13:42Z    -92.3885   29.3038   23.7259      28.833    243.5669108           2          
MisPlume(west)    GOM_UW_1704    2017-04-12T23:15:12Z    -92.3892   29.3041   23.7393      28.81     245.5651352           2          
MisPlume(west)    GOM_UW_1704    2017-04-12T23:16:42Z    -92.3894   29.3045   23.7102      28.882    242.8455351           2          
MisPlume(west)    GOM_UW_1704    2017-04-12T23:18:09Z    -92.3899   29.3039   23.7552      28.706    228.1935539           2          
MisPlume(west)    GOM_UW_1704    2017-04-12T23:19:38Z    -92.3903   29.3028   23.8181      28.573    238.4061507           2          
MisPlume(west)    GOM_UW_1704    2017-04-12T23:21:05Z    -92.3901   29.3016   23.803       28.718    244.9740822           2          
MisPlume(west)    GOM_UW_1704    2017-04-12T23:22:35Z    -92.3901   29.3001   23.7981      28.805    238.0487507           2          
MisPlume(west)    GOM_UW_1704    2017-04-12T23:24:02Z    -92.39     29.2986   23.8467      28.781    241.8271471           2          
MisPlume(west)    GOM_UW_1704    2017-04-12T23:25:32Z    -92.39     29.2971   23.8748      28.745    236.3473398           2          
MisPlume(west)    GOM_UW_1704    2017-04-12T23:27:00Z    -92.39     29.2955   23.8348      28.882    235.2201963           2          
MisPlume(west)    GOM_UW_1704    2017-04-12T23:28:28Z    -92.3899   29.2927   23.8483      29.086    237.6113718           2          
MisPlume(west)    GOM_UW_1704    2017-04-12T23:29:56Z    -92.3898   29.2895   23.843       29.391    248.0199164           2          
MisPlume(west)    GOM_UW_1704    2017-04-12T23:31:25Z    -92.3899   29.2863   23.8305      29.861    255.8658077           2          
MisPlume(west)    GOM_UW_1704    2017-04-12T23:32:56Z    -92.3899   29.2829   23.6958      30.501    271.2996144           2          
MisPlume(west)    GOM_UW_1704    2017-04-12T23:34:24Z    -92.3899   29.2796   23.7317      30.829    nd                    2          
MisPlume(west)    GOM_UW_1704    2017-04-12T23:35:52Z    -92.3898   29.2763   23.7137      31.184    301.9871311           2          
MisPlume(west)    GOM_UW_1704    2017-04-12T23:48:25Z    -92.3883   29.2478   23.3824      33.778    nd                    2          
MisPlume(west)    GOM_UW_1704    2017-04-12T23:49:53Z    -92.3881   29.2445   23.3926      33.898    408.9532282           2          
MisPlume(west)    GOM_UW_1704    2017-04-12T23:51:21Z    -92.3877   29.2411   23.5213      33.961    397.2762397           2          
MisPlume(west)    GOM_UW_1704    2017-04-12T23:52:53Z    -92.3867   29.2378   23.5554      33.988    387.3359295           2          
MisPlume(west)    GOM_UW_1704    2017-04-12T23:54:21Z    -92.3855   29.2346   23.5563      34.007    386.3991199           2          
MisPlume(west)    GOM_UW_1704    2017-04-12T23:55:48Z    -92.3842   29.2315   23.5378      34.031    384.5189326           2          
MisPlume(west)    GOM_UW_1704    2017-04-12T23:57:17Z    -92.3832   29.2283   23.523       34.048    379.481943            2          
MisPlume(west)    GOM_UW_1704    2017-04-12T23:58:45Z    -92.3832   29.2249   23.4819      34.069    382.4229233           2          
MisPlume(west)    GOM_UW_1704    2017-04-13T00:00:13Z    -92.3832   29.2215   23.4454      34.097    379.0028157           2          
MisPlume(west)    GOM_UW_1704    2017-04-13T00:01:42Z    -92.3834   29.2181   23.419       34.116    377.9351694           2          
MisPlume(west)    GOM_UW_1704    2017-04-13T00:03:09Z    -92.3839   29.2149   23.5232      34.013    364.7441616           2          
MisPlume(west)    GOM_UW_1704    2017-04-13T00:04:38Z    -92.3844   29.2115   23.4704      33.968    355.2773107           2          
MisPlume(west)    GOM_UW_1704    2017-04-13T00:06:07Z    -92.3848   29.2081   23.4225      33.937    354.1821139           2          
MisPlume(west)    GOM_UW_1704    2017-04-13T00:07:35Z    -92.3851   29.2048   23.3944      33.942    350.9186629           2          
MisPlume(west)    GOM_UW_1704    2017-04-13T00:09:03Z    -92.3854   29.2015   23.3902      33.952    349.4643394           2          
MisPlume(west)    GOM_UW_1704    2017-04-13T00:10:31Z    -92.3853   29.1983   23.4398      33.952    348.6125042           2          
MisPlume(west)    GOM_UW_1704    2017-04-13T00:12:00Z    -92.3852   29.195    23.4209      33.969    349.4275439           2          
MisPlume(west)    GOM_UW_1704    2017-04-13T00:13:29Z    -92.3852   29.1917   23.382       33.977    352.2860542           2          
MisPlume(west)    GOM_UW_1704    2017-04-13T00:14:57Z    -92.3851   29.1884   23.373       33.972    349.2115885           2          
MisPlume(west)    GOM_UW_1704    2017-04-13T00:16:27Z    -92.385    29.185    23.3632      33.974    351.2535836           2          
MisPlume(west)    GOM_UW_1704    2017-04-13T00:17:58Z    -92.385    29.1816   23.3371      33.976    349.1591769           2          
MisPlume(west)    GOM_UW_1704    2017-04-13T00:19:27Z    -92.3849   29.1782   23.3085      33.975    350.0405574           2          
MisPlume(west)    GOM_UW_1704    2017-04-13T00:20:58Z    -92.3848   29.1748   23.287       33.977    351.6784253           2          
MisPlume(west)    GOM_UW_1704    2017-04-13T00:22:26Z    -92.3849   29.1714   23.253       33.98     351.1811299           2          
MisPlume(west)    GOM_UW_1704    2017-04-13T00:23:55Z    -92.3849   29.168    23.242       33.977    351.765307            2          
MisPlume(west)    GOM_UW_1704    2017-04-13T00:25:26Z    -92.385    29.1645   23.224       33.975    350.6765137           2          
MisPlume(west)    GOM_UW_1704    2017-04-13T00:26:54Z    -92.385    29.1612   23.2152      33.974    353.7624611           2          
MisPlume(west)    GOM_UW_1704    2017-04-13T00:28:22Z    -92.385    29.1583   23.2024      33.976    351.593321            2          
MisPlume(west)    GOM_UW_1704    2017-04-13T00:29:50Z    -92.3844   29.1583   23.1969      33.973    353.2782484           2          
MisPlume(west)    GOM_UW_1704    2017-04-13T00:31:18Z    -92.3844   29.1589   23.188       33.975    349.8291301           2          
MisPlume(west)    GOM_UW_1704    2017-04-13T00:32:46Z    -92.3846   29.1594   23.1826      33.977    349.34201             2          
MisPlume(west)    GOM_UW_1704    2017-04-13T00:34:14Z    -92.3849   29.1598   23.1913      33.977    350.4726656           2          
MisPlume(west)    GOM_UW_1704    2017-04-13T00:35:41Z    -92.3853   29.1601   23.188       33.976    349.8959757           2          
MisPlume(west)    GOM_UW_1704    2017-04-13T00:37:11Z    -92.3858   29.1604   23.1861      33.976    353.3776299           2          
MisPlume(west)    GOM_UW_1704    2017-04-13T00:38:38Z    -92.3863   29.1607   23.183       33.977    350.8955605           2          
MisPlume(west)    GOM_UW_1704    2017-04-13T00:40:06Z    -92.3867   29.161    23.1973      33.978    350.4126335           2          
MisPlume(west)    GOM_UW_1704    2017-04-13T00:41:35Z    -92.3866   29.1614   23.1892      33.978    344.6312054           2          
MisPlume(west)    GOM_UW_1704    2017-04-13T00:43:03Z    -92.3869   29.1597   23.1832      33.98     347.4033547           2          
MisPlume(west)    GOM_UW_1704    2017-04-13T00:44:32Z    -92.3868   29.1564   23.1818      33.979    352.6064887           2          
MisPlume(west)    GOM_UW_1704    2017-04-13T00:46:00Z    -92.3867   29.153    23.174       33.979    352.4793515           2          
MisPlume(west)    GOM_UW_1704    2017-04-13T00:47:30Z    -92.3868   29.1495   23.1783      33.98     360.000393            2          
MisPlume(west)    GOM_UW_1704    2017-04-13T00:48:59Z    -92.3868   29.1461   23.1667      33.983    353.4205979           2          
MisPlume(west)    GOM_UW_1704    2017-04-13T00:50:26Z    -92.3867   29.1427   23.1414      33.991    354.073266            2          
MisPlume(west)    GOM_UW_1704    2017-04-13T00:51:56Z    -92.3868   29.1392   23.1365      33.996    352.6160275           2          
MisPlume(west)    GOM_UW_1704    2017-04-13T00:53:25Z    -92.3868   29.1357   23.1238      34.004    355.3211982           2          
MisPlume(west)    GOM_UW_1704    2017-04-13T00:54:54Z    -92.3868   29.1322   23.1005      34.018    356.627878            2          
MisPlume(west)    GOM_UW_1704    2017-04-13T00:56:21Z    -92.3868   29.1288   23.1583      34.028    357.5237188           2          
MisPlume(west)    GOM_UW_1704    2017-04-13T00:57:50Z    -92.3867   29.1254   23.1234      34.038    366.5926726           2          
MisPlume(west)    GOM_UW_1704    2017-04-13T00:59:19Z    -92.3867   29.1219   23.0483      34.042    362.7656844           2          
MisPlume(west)    GOM_UW_1704    2017-04-13T01:00:47Z    -92.3866   29.1185   23.0232      34.051    367.3239659           2          
MisPlume(west)    GOM_UW_1704    2017-04-13T01:02:16Z    -92.3866   29.1149   22.9964      34.066    360.2236206           2          
MisPlume(west)    GOM_UW_1704    2017-04-13T01:03:44Z    -92.3865   29.1115   23.0342      34.087    363.6626511           2          
MisPlume(west)    GOM_UW_1704    2017-04-13T01:05:12Z    -92.3864   29.108    23.0136      34.087    365.6531576           2          
MisPlume(west)    GOM_UW_1704    2017-04-13T01:06:41Z    -92.3863   29.1046   23.0152      34.085    364.5793435           2          
MisPlume(west)    GOM_UW_1704    2017-04-13T01:08:09Z    -92.3863   29.1012   23.0972      34.081    363.2827744           2          
MisPlume(west)    GOM_UW_1704    2017-04-13T01:09:40Z    -92.3862   29.0977   23.1044      34.086    362.544439            2          
MisPlume(west)    GOM_UW_1704    2017-04-13T01:11:09Z    -92.3861   29.0943   23.1334      34.087    365.1513063           2          
MisPlume(west)    GOM_UW_1704    2017-04-13T01:12:38Z    -92.386    29.0908   23.13        34.104    366.1683703           2          
MisPlume(west)    GOM_UW_1704    2017-04-13T01:14:06Z    -92.3859   29.0875   23.1311      34.136    365.1397778           2          
MisPlume(west)    GOM_UW_1704    2017-04-13T01:15:37Z    -92.3859   29.0839   23.1226      34.206    366.8155171           2          
MisPlume(west)    GOM_UW_1704    2017-04-13T01:17:06Z    -92.3858   29.0805   23.0831      34.292    368.0637935           2          
MisPlume(west)    GOM_UW_1704    2017-04-13T01:18:34Z    -92.3858   29.077    23.1336      34.374    371.1188601           2          
MisPlume(west)    GOM_UW_1704    2017-04-13T01:20:03Z    -92.3857   29.0735   23.0986      34.41     372.6685941           2          
MisPlume(west)    GOM_UW_1704    2017-04-13T01:21:30Z    -92.3856   29.0701   23.0316      34.437    371.6912678           2          
MisPlume(west)    GOM_UW_1704    2017-04-13T01:22:59Z    -92.3855   29.0666   23.0389      34.466    375.1930606           2          
MisPlume(west)    GOM_UW_1704    2017-04-13T01:24:27Z    -92.3855   29.0631   23.0687      34.503    371.6757207           2          
MisPlume(west)    GOM_UW_1704    2017-04-13T01:25:56Z    -92.3854   29.0596   23.0565      34.527    371.2589118           2          
MisPlume(west)    GOM_UW_1704    2017-04-13T01:27:26Z    -92.3854   29.056    23.0717      34.576    372.8372338           2          
MisPlume(west)    GOM_UW_1704    2017-04-13T01:28:55Z    -92.3853   29.0525   23.0562      34.642    369.4959256           2          
MisPlume(west)    GOM_UW_1704    2017-04-13T01:30:23Z    -92.3852   29.0491   23.0368      34.664    374.8242226           2          
MisPlume(west)    GOM_UW_1704    2017-04-13T01:31:52Z    -92.3851   29.0456   23.0253      34.702    369.1912265           2          
MisPlume(west)    GOM_UW_1704    2017-04-13T01:33:20Z    -92.385    29.0421   23.1609      34.796    372.5352486           2          
MisPlume(west)    GOM_UW_1704    2017-04-13T01:34:47Z    -92.385    29.0386   23.0869      34.835    376.9430619           2          
MisPlume(west)    GOM_UW_1704    2017-04-13T01:36:18Z    -92.3848   29.035    23.0515      35.005    379.5863273           2          
MisPlume(west)    GOM_UW_1704    2017-04-13T01:37:49Z    -92.3841   29.033    23.0939      35.092    378.7469756           2          
MisPlume(west)    GOM_UW_1704    2017-04-13T01:39:17Z    -92.3838   29.0333   23.0893      35.098    382.1627805           2          
MisPlume(west)    GOM_UW_1704    2017-04-13T01:40:45Z    -92.3839   29.0337   23.0897      35.091    380.4278801           2          
MisPlume(west)    GOM_UW_1704    2017-04-13T01:42:13Z    -92.3841   29.0339   23.0909      35.088    382.7430266           2          
MisPlume(west)    GOM_UW_1704    2017-04-13T01:43:42Z    -92.3843   29.0341   23.1013      35.091    385.8766813           2          
MisPlume(west)    GOM_UW_1704    2017-04-13T01:45:10Z    -92.3845   29.0343   23.0954      35.09     384.9284199           2          
MisPlume(west)    GOM_UW_1704    2017-04-13T01:46:38Z    -92.3848   29.0344   23.0934      35.09     382.3993846           2          
MisPlume(west)    GOM_UW_1704    2017-04-13T01:48:06Z    -92.3851   29.0345   23.1018      35.095    387.8800897           2          
MisPlume(west)    GOM_UW_1704    2017-04-13T01:49:34Z    -92.3854   29.0347   23.0947      35.095    383.513925            2          
MisPlume(west)    GOM_UW_1704    2017-04-13T01:51:03Z    -92.3856   29.0348   23.0961      35.1      378.082034            2          
MisPlume(west)    GOM_UW_1704    2017-04-13T01:52:30Z    -92.3858   29.0349   23.0865      35.103    380.8707943           2          
MisPlume(west)    GOM_UW_1704    2017-04-13T01:53:59Z    -92.3861   29.035    23.0872      35.109    379.5394243           2          
MisPlume(west)    GOM_UW_1704    2017-04-13T01:55:29Z    -92.3864   29.0352   23.0893      35.112    384.8884889           2          
MisPlume(west)    GOM_UW_1704    2017-04-13T01:56:57Z    -92.3866   29.0353   23.0897      35.118    382.8776921           2          
MisPlume(west)    GOM_UW_1704    2017-04-13T01:58:25Z    -92.3869   29.0355   23.0789      35.118    386.5671146           2          
MisPlume(west)    GOM_UW_1704    2017-04-13T01:59:53Z    -92.3871   29.0356   23.0843      35.12     377.5253538           2          
MisPlume(west)    GOM_UW_1704    2017-04-13T02:01:21Z    -92.3874   29.0358   23.0893      35.125    375.6736938           2          
MisPlume(west)    GOM_UW_1704    2017-04-13T02:02:53Z    -92.3877   29.0359   23.0826      35.126    376.093411            2          
MisPlume(west)    GOM_UW_1704    2017-04-13T02:04:23Z    -92.3879   29.036    23.079       35.13     378.9142785           2          
MisPlume(west)    GOM_UW_1704    2017-04-13T02:05:51Z    -92.3881   29.0361   23.0786      35.132    387.3491259           2          
MisPlume(west)    GOM_UW_1704    2017-04-13T02:07:21Z    -92.3884   29.0363   23.0804      35.134    388.0327336           2          
MisPlume(west)    GOM_UW_1704    2017-04-13T02:08:48Z    -92.3886   29.0364   23.0856      35.135    384.3764917           2          
MisPlume(west)    GOM_UW_1704    2017-04-13T02:10:17Z    -92.3889   29.0365   23.0776      35.136    386.5273956           2          
MisPlume(west)    GOM_UW_1704    2017-04-13T02:11:48Z    -92.3893   29.0371   23.0774      35.139    385.6783384           2          
MisPlume(west)    GOM_UW_1704    2017-04-13T02:13:15Z    -92.3897   29.0361   23.0713      35.139    381.5091483           2          
MisPlume(west)    GOM_UW_1704    2017-04-13T02:14:46Z    -92.3895   29.0327   23.061       35.164    386.9774566           2          
MisPlume(west)    GOM_UW_1704    2017-04-13T02:16:14Z    -92.3894   29.0291   23.0096      35.181    393.8378784           2          
MisPlume(west)    GOM_UW_1704    2017-04-13T02:17:42Z    -92.3892   29.0256   22.9511      35.177    389.2110908           2          
MisPlume(west)    GOM_UW_1704    2017-04-13T02:19:10Z    -92.3891   29.0221   22.9243      35.161    390.3772541           2          
MisPlume(west)    GOM_UW_1704    2017-04-13T02:20:39Z    -92.3889   29.0185   22.9096      35.118    383.0204927           2          
MisPlume(west)    GOM_UW_1704    2017-04-13T02:22:10Z    -92.3888   29.0149   22.9249      35.064    380.879243            2          
MisPlume(west)    GOM_UW_1704    2017-04-13T02:23:37Z    -92.3886   29.0115   22.9428      35.039    380.8555425           2          
MisPlume(west)    GOM_UW_1704    2017-04-13T02:25:05Z    -92.3886   29.008    22.9406      35.032    381.5940048           2          
MisPlume(west)    GOM_UW_1704    2017-04-13T02:26:37Z    -92.3884   29.0045   22.9325      35.031    381.8530572           2          
MisPlume(west)    GOM_UW_1704    2017-04-13T02:28:06Z    -92.3883   29.001    22.9178      35.027    377.579599            2          
MisPlume(west)    GOM_UW_1704    2017-04-13T02:29:36Z    -92.3881   28.9975   22.9153      35.018    378.2527325           2          
MisPlume(west)    GOM_UW_1704    2017-04-13T02:31:04Z    -92.388    28.9941   22.9229      34.991    378.0219678           2          
MisPlume(west)    GOM_UW_1704    2017-04-13T02:32:32Z    -92.3878   28.9906   22.9346      34.967    376.5931639           2          
MisPlume(west)    GOM_UW_1704    2017-04-13T02:34:01Z    -92.3877   28.987    22.9347      34.945    376.2670159           2          
MisPlume(west)    GOM_UW_1704    2017-04-13T02:35:29Z    -92.3876   28.9837   22.9373      34.772    377.6290584           2          
MisPlume(west)    GOM_UW_1704    2017-04-13T02:36:57Z    -92.3875   28.9803   22.9469      34.91     376.2129413           2          
MisPlume(west)    GOM_UW_1704    2017-04-13T02:38:24Z    -92.3874   28.9769   22.9489      34.886    373.0535482           2          
MisPlume(west)    GOM_UW_1704    2017-04-13T02:39:53Z    -92.3872   28.9735   22.9592      34.866    380.0979809           2          
MisPlume(west)    GOM_UW_1704    2017-04-13T02:41:21Z    -92.3871   28.9701   22.9555      34.854    371.7295714           2          
MisPlume(west)    GOM_UW_1704    2017-04-13T02:42:49Z    -92.3869   28.9666   22.9718      34.821    369.0976896           2          
MisPlume(west)    GOM_UW_1704    2017-04-13T02:44:18Z    -92.3867   28.9632   22.9697      34.821    367.9894732           2          
MisPlume(west)    GOM_UW_1704    2017-04-13T02:56:53Z    -92.3853   28.9339   22.9568      34.882    371.9802657           2          
MisPlume(west)    GOM_UW_1704    2017-04-13T02:58:20Z    -92.3851   28.9305   22.9726      34.865    369.3330751           2          
MisPlume(west)    GOM_UW_1704    2017-04-13T02:59:48Z    -92.385    28.9271   22.9734      34.872    369.3413069           2          
MisPlume(west)    GOM_UW_1704    2017-04-13T03:01:17Z    -92.3848   28.9237   22.9678      34.878    369.7078501           2          
MisPlume(west)    GOM_UW_1704    2017-04-13T03:02:49Z    -92.3845   28.9201   22.9631      34.9      369.2325474           2          
MisPlume(west)    GOM_UW_1704    2017-04-13T03:04:17Z    -92.3843   28.9167   22.9443      34.917    370.1679877           2          
MisPlume(west)    GOM_UW_1704    2017-04-13T03:05:44Z    -92.3841   28.9133   22.9409      34.943    371.8555671           2          
MisPlume(west)    GOM_UW_1704    2017-04-13T03:07:13Z    -92.3843   28.9097   22.9447      34.964    375.2698019           2          
MisPlume(west)    GOM_UW_1704    2017-04-13T03:08:40Z    -92.3843   28.908    22.933       34.979    372.6833715           2          
MisPlume(west)    GOM_UW_1704    2017-04-13T03:10:12Z    -92.3843   28.9082   22.9288      34.983    371.65986             2          
MisPlume(west)    GOM_UW_1704    2017-04-13T03:11:39Z    -92.3848   28.9086   22.9336      34.982    372.9537781           2          
MisPlume(west)    GOM_UW_1704    2017-04-13T03:13:11Z    -92.3854   28.9088   22.9296      34.98     375.073066            2          
MisPlume(west)    GOM_UW_1704    2017-04-13T03:14:39Z    -92.3859   28.9091   22.93        34.982    378.7719228           2          
MisPlume(west)    GOM_UW_1704    2017-04-13T03:16:06Z    -92.3865   28.9093   22.9314      34.988    376.3330093           2          
MisPlume(west)    GOM_UW_1704    2017-04-13T03:17:35Z    -92.3872   28.9095   22.9292      34.989    374.9212662           2          
MisPlume(west)    GOM_UW_1704    2017-04-13T03:19:06Z    -92.3878   28.9096   22.9186      34.989    373.0102422           2          
MisPlume(west)    GOM_UW_1704    2017-04-13T03:20:34Z    -92.3883   28.9098   22.9272      34.982    373.1568124           2          
MisPlume(west)    GOM_UW_1704    2017-04-13T03:22:02Z    -92.3887   28.9101   22.9221      34.957    369.1462194           2          
MisPlume(west)    GOM_UW_1704    2017-04-13T03:23:31Z    -92.3891   28.9104   22.9363      34.978    378.1321334           2          
MisPlume(west)    GOM_UW_1704    2017-04-13T03:24:59Z    -92.3896   28.9107   22.9206      34.979    372.4248713           2          
MisPlume(west)    GOM_UW_1704    2017-04-13T03:26:27Z    -92.39     28.9111   22.9259      34.986    373.8012277           2          
MisPlume(west)    GOM_UW_1704    2017-04-13T03:27:57Z    -92.3905   28.9115   22.9303      34.988    372.3058683           2          
MisPlume(west)    GOM_UW_1704    2017-04-13T03:29:25Z    -92.391    28.9118   22.9234      34.985    372.0752352           2          
MisPlume(west)    GOM_UW_1704    2017-04-13T03:30:55Z    -92.3915   28.9122   22.925       34.986    372.5324874           2          
MisPlume(west)    GOM_UW_1704    2017-04-13T03:32:23Z    -92.392    28.9126   22.9225      34.983    372.7740422           2          
MisPlume(west)    GOM_UW_1704    2017-04-13T03:33:51Z    -92.3924   28.913    22.9229      34.99     370.3264827           2          
MisPlume(west)    GOM_UW_1704    2017-04-13T03:35:22Z    -92.3929   28.9134   22.9236      34.988    371.7269385           2          
MisPlume(west)    GOM_UW_1704    2017-04-13T03:36:50Z    -92.3934   28.9137   22.9159      34.985    373.8159383           2          
MisPlume(west)    GOM_UW_1704    2017-04-13T03:38:18Z    -92.3942   28.9118   22.9186      34.988    372.4299747           2          
MisPlume(west)    GOM_UW_1704    2017-04-13T03:39:47Z    -92.3937   28.9085   22.9147      35.005    nd                    2          
MisPlume(west)    GOM_UW_1704    2017-04-13T03:41:16Z    -92.3935   28.905    22.9322      34.983    376.7440883           2          
MisPlume(west)    GOM_UW_1704    2017-04-13T03:42:45Z    -92.3932   28.9015   22.939       35.022    376.5843711           2          
MisPlume(west)    GOM_UW_1704    2017-04-13T03:44:13Z    -92.3929   28.898    22.9182      35.043    378.2982554           2          
MisPlume(west)    GOM_UW_1704    2017-04-13T03:45:40Z    -92.3925   28.8946   22.8921      35.069    379.1271778           2          
MisPlume(west)    GOM_UW_1704    2017-04-13T03:47:08Z    -92.3923   28.891    22.8263      35.121    378.5367796           2          
MisPlume(west)    GOM_UW_1704    2017-04-13T03:48:36Z    -92.392    28.8875   22.8091      35.16     381.9701522           2          
MisPlume(west)    GOM_UW_1704    2017-04-13T03:50:08Z    -92.3917   28.8838   22.867       35.252    384.8076949           2          
MisPlume(west)    GOM_UW_1704    2017-04-13T03:51:36Z    -92.3915   28.8803   22.9289      35.257    386.815412            2          
MisPlume(west)    GOM_UW_1704    2017-04-13T03:53:03Z    -92.3912   28.8768   22.963       35.244    384.4238336           2          
MisPlume(west)    GOM_UW_1704    2017-04-13T03:54:32Z    -92.3909   28.8732   22.9604      35.209    383.8263103           2          
MisPlume(west)    GOM_UW_1704    2017-04-13T03:56:03Z    -92.3906   28.8696   22.9354      35.215    384.1155456           2          
MisPlume(west)    GOM_UW_1704    2017-04-13T03:57:34Z    -92.3903   28.866    22.9056      35.232    384.8357989           2          
MisPlume(west)    GOM_UW_1704    2017-04-13T03:59:05Z    -92.39     28.8624   22.8587      35.272    386.2711196           2          
MisPlume(west)    GOM_UW_1704    2017-04-13T04:00:34Z    -92.3898   28.8588   22.9524      35.365    386.442261            2          
MisPlume(west)    GOM_UW_1704    2017-04-13T04:02:02Z    -92.3895   28.8553   22.8375      35.346    384.8181937           2          
MisPlume(west)    GOM_UW_1704    2017-04-13T04:03:30Z    -92.3892   28.8518   22.8784      35.39     385.9076975           2          
MisPlume(west)    GOM_UW_1704    2017-04-13T04:05:01Z    -92.3889   28.8482   22.8967      35.421    384.7725885           2          
MisPlume(west)    GOM_UW_1704    2017-04-13T04:06:30Z    -92.3886   28.8447   22.8535      35.463    384.8590142           2          
MisPlume(west)    GOM_UW_1704    2017-04-13T04:07:58Z    -92.3883   28.8412   22.8489      35.499    384.2482903           2          
MisPlume(west)    GOM_UW_1704    2017-04-13T04:09:27Z    -92.3881   28.8377   22.7993      35.533    388.9273139           2          
MisPlume(west)    GOM_UW_1704    2017-04-13T04:10:55Z    -92.3878   28.8342   22.7601      35.577    389.3947268           2          
MisPlume(west)    GOM_UW_1704    2017-04-13T04:12:25Z    -92.3875   28.8307   22.7465      35.64     388.0422504           2          
MisPlume(west)    GOM_UW_1704    2017-04-13T04:13:53Z    -92.3872   28.8272   22.7539      35.713    390.2800704           2          
MisPlume(west)    GOM_UW_1704    2017-04-13T04:15:21Z    -92.3869   28.8238   22.7924      35.76     390.0809583           2          
MisPlume(west)    GOM_UW_1704    2017-04-13T04:16:50Z    -92.3866   28.8203   22.8105      35.793    392.2219644           2          
MisPlume(west)    GOM_UW_1704    2017-04-13T04:18:17Z    -92.3863   28.8169   22.824       35.809    393.5494918           2          
MisPlume(west)    GOM_UW_1704    2017-04-13T04:19:48Z    -92.3861   28.8133   22.8418      35.824    393.9435106           2          
MisPlume(west)    GOM_UW_1704    2017-04-13T04:21:16Z    -92.3858   28.81     22.8225      35.85     401.2276686           2          
MisPlume(west)    GOM_UW_1704    2017-04-13T04:22:45Z    -92.3855   28.8065   22.8159      35.881    394.2792112           2          
MisPlume(west)    GOM_UW_1704    2017-04-13T04:24:13Z    -92.3852   28.803    22.8108      35.896    396.2072768           2          
MisPlume(west)    GOM_UW_1704    2017-04-13T04:25:42Z    -92.385    28.7995   22.8349      35.924    393.9222031           2          
MisPlume(west)    GOM_UW_1704    2017-04-13T04:27:11Z    -92.3848   28.796    22.8447      35.938    394.9965698           2          
MisPlume(west)    GOM_UW_1704    2017-04-13T04:28:42Z    -92.3846   28.7924   22.8423      35.948    397.2073574           2          
MisPlume(west)    GOM_UW_1704    2017-04-13T04:30:12Z    -92.3844   28.7888   22.8405      35.958    394.9635788           2          
MisPlume(west)    GOM_UW_1704    2017-04-13T04:31:41Z    -92.3842   28.7853   22.865       35.96     393.8649673           2          
MisPlume(west)    GOM_UW_1704    2017-04-13T04:33:09Z    -92.384    28.7818   22.861       35.965    394.9729855           2          
MisPlume(west)    GOM_UW_1704    2017-04-13T04:34:38Z    -92.3837   28.7783   22.8325      35.953    397.1232588           2          
MisPlume(west)    GOM_UW_1704    2017-04-13T04:36:07Z    -92.3836   28.7752   22.8183      35.962    398.2142557           2          
MisPlume(west)    GOM_UW_1704    2017-04-13T04:37:36Z    -92.3833   28.7749   22.8069      35.963    392.0109107           2          
MisPlume(west)    GOM_UW_1704    2017-04-13T04:39:06Z    -92.3835   28.7752   22.8075      35.962    394.8837517           2          
MisPlume(west)    GOM_UW_1704    2017-04-13T04:40:34Z    -92.3839   28.7754   22.8067      35.962    397.5578466           2          
MisPlume(west)    GOM_UW_1704    2017-04-13T04:42:02Z    -92.3842   28.7756   22.8082      35.961    401.4102255           2          
MisPlume(west)    GOM_UW_1704    2017-04-13T04:43:30Z    -92.3846   28.7757   22.8041      35.959    400.8968564           2          
MisPlume(west)    GOM_UW_1704    2017-04-13T04:45:01Z    -92.385    28.7758   22.8056      35.959    400.2415666           2          
MisPlume(west)    GOM_UW_1704    2017-04-13T04:46:29Z    -92.3853   28.7759   22.8115      35.957    399.1334655           2          
MisPlume(west)    GOM_UW_1704    2017-04-13T04:48:00Z    -92.3857   28.776    22.8067      35.919    394.6387233           2          
MisPlume(west)    GOM_UW_1704    2017-04-13T04:49:30Z    -92.3861   28.7761   22.7989      35.954    394.1802949           2          
MisPlume(west)    GOM_UW_1704    2017-04-13T04:50:58Z    -92.3864   28.7762   22.8076      35.949    393.9969609           2          
MisPlume(west)    GOM_UW_1704    2017-04-13T04:52:26Z    -92.3867   28.7763   22.8126      35.944    389.2993853           2          
MisPlume(west)    GOM_UW_1704    2017-04-13T04:53:53Z    -92.3869   28.7766   22.8141      35.945    392.195933            2          
MisPlume(west)    GOM_UW_1704    2017-04-13T04:55:25Z    -92.3872   28.7769   22.8125      35.943    394.0466978           2          
MisPlume(west)    GOM_UW_1704    2017-04-13T04:56:52Z    -92.3874   28.7772   22.8129      35.942    395.3896472           2          
MisPlume(west)    GOM_UW_1704    2017-04-13T04:58:24Z    -92.3877   28.7774   22.8201      35.942    398.6187839           2          
MisPlume(west)    GOM_UW_1704    2017-04-13T04:59:52Z    -92.3879   28.7777   22.8159      35.94     397.6274036           2          
MisPlume(west)    GOM_UW_1704    2017-04-13T05:01:20Z    -92.3882   28.778    22.8193      35.94     395.6672826           2          
MisPlume(west)    GOM_UW_1704    2017-04-13T05:02:48Z    -92.3884   28.7783   22.8204      35.938    394.4985073           2          
MisPlume(west)    GOM_UW_1704    2017-04-13T05:04:18Z    -92.3887   28.7787   22.823       35.939    393.8021471           2          
MisPlume(west)    GOM_UW_1704    2017-04-13T05:05:46Z    -92.3889   28.779    22.8242      35.939    394.5331778           2          
MisPlume(west)    GOM_UW_1704    2017-04-13T05:07:14Z    -92.3891   28.7793   22.8255      35.94     390.7432621           2          
MisPlume(west)    GOM_UW_1704    2017-04-13T05:08:43Z    -92.3894   28.7796   22.8274      35.942    391.8242501           2          
MisPlume(west)    GOM_UW_1704    2017-04-13T05:10:12Z    -92.3896   28.7799   22.8227      35.942    390.8861117           2          
MisPlume(west)    GOM_UW_1704    2017-04-13T05:11:40Z    -92.3898   28.7802   22.8275      35.943    391.8583727           2          
MisPlume(west)    GOM_UW_1704    2017-04-13T05:13:08Z    -92.3905   28.7786   22.822       35.946    392.7742302           2          
MisPlume(west)    GOM_UW_1704    2017-04-13T05:14:39Z    -92.3901   28.7751   22.8049      35.937    393.5658942           2          
MisPlume(west)    GOM_UW_1704    2017-04-13T05:16:11Z    -92.3897   28.7715   22.7953      35.933    394.7240077           2          
MisPlume(west)    GOM_UW_1704    2017-04-13T05:17:41Z    -92.3894   28.768    22.7878      35.922    392.6751256           2          
MisPlume(west)    GOM_UW_1704    2017-04-13T05:19:09Z    -92.3891   28.7645   22.7607      35.911    393.4047081           2          
MisPlume(west)    GOM_UW_1704    2017-04-13T05:20:38Z    -92.3889   28.761    22.7553      35.889    393.6578206           2          
MisPlume(west)    GOM_UW_1704    2017-04-13T05:22:07Z    -92.3886   28.7575   22.7602      35.88     397.5467916           2          
MisPlume(west)    GOM_UW_1704    2017-04-13T05:23:36Z    -92.3883   28.754    22.782       35.864    394.895737            2          
MisPlume(west)    GOM_UW_1704    2017-04-13T05:25:04Z    -92.3881   28.7506   22.8062      35.853    398.3719861           2          
MisPlume(west)    GOM_UW_1704    2017-04-13T05:26:33Z    -92.3878   28.7471   22.8163      35.846    396.701372            2          
MisPlume(west)    GOM_UW_1704    2017-04-13T05:28:01Z    -92.3875   28.7436   22.814       35.826    395.2655827           2          
MisPlume(west)    GOM_UW_1704    2017-04-13T05:29:30Z    -92.3872   28.7402   22.824       35.804    393.8683328           2          
MisPlume(west)    GOM_UW_1704    2017-04-13T05:30:58Z    -92.387    28.7367   22.8285      35.797    394.8380829           2          
MisPlume(west)    GOM_UW_1704    2017-04-13T05:32:27Z    -92.3867   28.7333   22.821       35.777    393.3662421           2          
MisPlume(west)    GOM_UW_1704    2017-04-13T05:33:55Z    -92.3865   28.7298   22.8163      35.771    394.3762368           2          
MisPlume(west)    GOM_UW_1704    2017-04-13T05:35:23Z    -92.3863   28.7263   22.8175      35.768    393.4997742           2          
MisPlume(west)    GOM_UW_1704    2017-04-13T05:36:54Z    -92.3861   28.7227   22.8243      35.776    395.2948843           2          
MisPlume(west)    GOM_UW_1704    2017-04-13T05:38:22Z    -92.3858   28.7192   22.8397      35.786    394.0328566           2          
MisPlume(west)    GOM_UW_1704    2017-04-13T05:39:50Z    -92.3856   28.7157   22.825       35.795    394.3953563           2          
MisPlume(west)    GOM_UW_1704    2017-04-13T05:41:21Z    -92.3854   28.7121   22.7865      35.804    394.9468106           2          
MisPlume(west)    GOM_UW_1704    2017-04-13T05:42:49Z    -92.3852   28.7085   22.7428      35.813    391.8308543           2          
MisPlume(west)    GOM_UW_1704    2017-04-13T05:44:18Z    -92.385    28.705    22.7291      35.814    396.1026754           2          
MisPlume(west)    GOM_UW_1704    2017-04-13T05:45:46Z    -92.3848   28.7015   22.7292      35.812    395.5544996           2          
MisPlume(west)    GOM_UW_1704    2017-04-13T05:47:14Z    -92.3846   28.698    22.7077      35.818    396.3310428           2          
MisPlume(west)    GOM_UW_1704    2017-04-13T05:48:43Z    -92.3844   28.6944   22.6294      35.846    398.5018431           2          
MisPlume(west)    GOM_UW_1704    2017-04-13T05:50:10Z    -92.3841   28.691    22.6078      35.896    396.9203527           2          
MisPlume(west)    GOM_UW_1704    2017-04-13T05:51:39Z    -92.384    28.6875   22.7295      36.008    394.6723964           2          
MisPlume(west)    GOM_UW_1704    2017-04-13T05:53:07Z    -92.384    28.6839   22.8206      36.136    395.9000574           2          
MisPlume(west)    GOM_UW_1704    2017-04-13T06:05:42Z    -92.383    28.6565   22.5274      36.021    390.8153367           2          
MisPlume(west)    GOM_UW_1704    2017-04-13T06:07:09Z    -92.383    28.6568   22.5174      36.034    393.5128334           2          
MisPlume(west)    GOM_UW_1704    2017-04-13T06:08:38Z    -92.3833   28.6571   22.5082      36.032    395.5028008           2          
MisPlume(west)    GOM_UW_1704    2017-04-13T06:10:06Z    -92.3836   28.6574   22.5176      36.021    393.0843762           2          
MisPlume(west)    GOM_UW_1704    2017-04-13T06:11:35Z    -92.384    28.6576   22.5304      36.019    396.9953975           2          
MisPlume(west)    GOM_UW_1704    2017-04-13T06:13:04Z    -92.3843   28.6578   22.5423      36.018    398.4079144           2          
MisPlume(west)    GOM_UW_1704    2017-04-13T06:14:34Z    -92.3847   28.6579   22.5578      36.017    398.1733843           2          
MisPlume(west)    GOM_UW_1704    2017-04-13T06:16:03Z    -92.385    28.6581   22.5714      36.017    395.247377            2          
MisPlume(west)    GOM_UW_1704    2017-04-13T06:17:32Z    -92.3854   28.6582   22.5916      36.018    394.9141994           2          
MisPlume(west)    GOM_UW_1704    2017-04-13T06:19:00Z    -92.3858   28.6584   22.5946      36.012    394.8225691           2          
MisPlume(west)    GOM_UW_1704    2017-04-13T06:20:28Z    -92.3862   28.6585   22.5806      35.997    387.8015167           2          
MisPlume(west)    GOM_UW_1704    2017-04-13T06:21:56Z    -92.3865   28.6586   22.5841      35.99     391.5055357           2          
MisPlume(west)    GOM_UW_1704    2017-04-13T06:23:25Z    -92.3868   28.6588   22.5816      35.977    392.6994786           2          
MisPlume(west)    GOM_UW_1704    2017-04-13T06:24:54Z    -92.3871   28.6592   22.593       35.967    389.2283566           2          
MisPlume(west)    GOM_UW_1704    2017-04-13T06:26:23Z    -92.3873   28.6596   22.5976      35.969    390.520741            2          
MisPlume(west)    GOM_UW_1704    2017-04-13T06:27:51Z    -92.3876   28.6599   22.6045      35.982    392.1393452           2          
MisPlume(west)    GOM_UW_1704    2017-04-13T06:29:22Z    -92.3879   28.6603   22.6131      35.978    389.4820648           2          
MisPlume(west)    GOM_UW_1704    2017-04-13T06:30:51Z    -92.3881   28.6607   22.625       35.977    390.6190138           2          
MisPlume(west)    GOM_UW_1704    2017-04-13T06:32:18Z    -92.3883   28.661    22.6277      35.975    391.7151098           2          
MisPlume(west)    GOM_UW_1704    2017-04-13T06:33:47Z    -92.3886   28.6613   22.6293      35.973    390.2088093           2          
MisPlume(west)    GOM_UW_1704    2017-04-13T06:35:17Z    -92.3888   28.6617   22.6364      35.972    391.8419611           2          
MisPlume(west)    GOM_UW_1704    2017-04-13T06:36:44Z    -92.3891   28.6621   22.6441      35.97     390.287474            2          
MisPlume(west)    GOM_UW_1704    2017-04-13T06:38:15Z    -92.3897   28.6621   22.65        35.968    390.7494131           2          
MisPlume(west)    GOM_UW_1704    2017-04-13T06:39:44Z    -92.3898   28.6591   22.6511      35.961    388.492997            2          
MisPlume(west)    GOM_UW_1704    2017-04-13T06:41:13Z    -92.3897   28.6557   22.6069      35.983    392.7228337           2          
MisPlume(west)    GOM_UW_1704    2017-04-13T06:42:40Z    -92.3896   28.6523   22.5817      35.985    393.1777117           2          
MisPlume(west)    GOM_UW_1704    2017-04-13T06:44:11Z    -92.3894   28.6488   22.5741      35.989    392.7576132           2          
MisPlume(west)    GOM_UW_1704    2017-04-13T06:45:39Z    -92.3892   28.6453   22.5574      35.983    391.2093754           2          
MisPlume(west)    GOM_UW_1704    2017-04-13T06:47:08Z    -92.3891   28.6418   22.6258      36.042    392.4006904           2          
MisPlume(west)    GOM_UW_1704    2017-04-13T06:48:39Z    -92.389    28.6383   22.7696      36.138    395.645285            2          
MisPlume(west)    GOM_UW_1704    2017-04-13T06:50:07Z    -92.3889   28.6349   22.791       36.143    396.9962387           2          
MisPlume(west)    GOM_UW_1704    2017-04-13T06:51:35Z    -92.3887   28.6314   22.803       36.141    391.8930994           2          
MisPlume(west)    GOM_UW_1704    2017-04-13T06:53:03Z    -92.3886   28.6281   22.7871      36.133    393.9799575           2          
MisPlume(west)    GOM_UW_1704    2017-04-13T06:54:31Z    -92.3884   28.6246   22.805       36.135    394.670015            2          
MisPlume(west)    GOM_UW_1704    2017-04-13T06:56:00Z    -92.3883   28.6212   22.8205      36.142    394.2158025           2          
MisPlume(west)    GOM_UW_1704    2017-04-13T06:57:28Z    -92.3882   28.6177   22.8261      36.145    393.1406561           2          
MisPlume(west)    GOM_UW_1704    2017-04-13T06:58:56Z    -92.3881   28.6143   22.8354      36.141    393.9174366           2          
MisPlume(west)    GOM_UW_1704    2017-04-13T07:00:24Z    -92.3879   28.6109   22.8506      36.122    395.3332293           2          
MisPlume(west)    GOM_UW_1704    2017-04-13T07:01:53Z    -92.3878   28.6075   22.8585      36.135    392.4591928           2          
MisPlume(west)    GOM_UW_1704    2017-04-13T07:03:21Z    -92.3877   28.6041   22.8638      36.13     391.544173            2          
MisPlume(west)    GOM_UW_1704    2017-04-13T07:04:49Z    -92.3876   28.6007   22.8806      36.123    392.824631            2          
MisPlume(west)    GOM_UW_1704    2017-04-13T07:06:17Z    -92.3874   28.5973   22.9013      36.116    392.8028824           2          
MisPlume(west)    GOM_UW_1704    2017-04-13T07:07:45Z    -92.3873   28.5939   22.9092      36.113    391.9954893           2          
MisPlume(west)    GOM_UW_1704    2017-04-13T07:09:14Z    -92.3871   28.5905   22.9237      36.106    392.2118101           2          
MisPlume(west)    GOM_UW_1704    2017-04-13T07:10:42Z    -92.387    28.5871   22.9541      36.1      390.6699425           2          
MisPlume(west)    GOM_UW_1704    2017-04-13T07:12:10Z    -92.3869   28.5838   22.9705      36.071    394.7554011           2          
MisPlume(west)    GOM_UW_1704    2017-04-13T07:13:38Z    -92.3867   28.5804   22.9856      36.079    396.3640676           2          
MisPlume(west)    GOM_UW_1704    2017-04-13T07:15:08Z    -92.3866   28.5769   23.0301      36.081    391.6583595           2          
MisPlume(west)    GOM_UW_1704    2017-04-13T07:16:38Z    -92.3864   28.5735   23.0543      36.075    391.7764856           2          
MisPlume(west)    GOM_UW_1704    2017-04-13T07:18:06Z    -92.3863   28.5701   23.0634      36.069    393.2990285           2          
MisPlume(west)    GOM_UW_1704    2017-04-13T07:19:34Z    -92.3861   28.5667   23.0625      36.065    393.9646549           2          
MisPlume(west)    GOM_UW_1704    2017-04-13T07:21:04Z    -92.386    28.5632   23.0652      36.061    392.0128825           2          
MisPlume(west)    GOM_UW_1704    2017-04-13T07:22:33Z    -92.3858   28.5598   23.0674      36.055    391.9693444           2          
MisPlume(west)    GOM_UW_1704    2017-04-13T07:24:01Z    -92.3857   28.5565   23.0721      36.053    392.3831276           2          
MisPlume(west)    GOM_UW_1704    2017-04-13T07:25:29Z    -92.3856   28.5531   23.0722      36.048    393.7620402           2          
MisPlume(west)    GOM_UW_1704    2017-04-13T07:26:57Z    -92.3854   28.5497   23.0896      36.042    392.9996259           2          
MisPlume(west)    GOM_UW_1704    2017-04-13T07:28:26Z    -92.3853   28.5462   23.0993      36.036    391.8419812           2          
MisPlume(west)    GOM_UW_1704    2017-04-13T07:29:54Z    -92.3852   28.5429   23.103       36.032    391.536202            2          
MisPlume(west)    GOM_UW_1704    2017-04-13T07:31:22Z    -92.385    28.5394   23.1007      36.029    391.1588948           2          
MisPlume(west)    GOM_UW_1704    2017-04-13T07:32:50Z    -92.3849   28.536    23.1126      36.021    392.0603983           2          
MisPlume(west)    GOM_UW_1704    2017-04-13T07:34:18Z    -92.3847   28.5326   23.1216      36.015    394.3760845           2          
MisPlume(west)    GOM_UW_1704    2017-04-13T07:35:46Z    -92.3846   28.5292   23.1222      36.008    391.6830846           2          
MisPlume(west)    GOM_UW_1704    2017-04-13T07:37:15Z    -92.3845   28.5258   23.1165      36.006    391.3070492           2          
MisPlume(west)    GOM_UW_1704    2017-04-13T07:38:47Z    -92.3844   28.5222   23.1091      36.004    390.403016            2          
MisPlume(west)    GOM_UW_1704    2017-04-13T07:40:14Z    -92.3842   28.5188   23.1049      36.004    392.1133029           2          
MisPlume(west)    GOM_UW_1704    2017-04-13T07:41:43Z    -92.3839   28.5168   23.1368      36.005    389.7273141           2          
MisPlume(west)    GOM_UW_1704    2017-04-13T07:43:12Z    -92.3837   28.5168   23.1572      36.007    393.6508629           2          
MisPlume(west)    GOM_UW_1704    2017-04-13T07:44:42Z    -92.384    28.5172   23.1615      36.008    394.4933634           2          
MisPlume(west)    GOM_UW_1704    2017-04-13T07:46:10Z    -92.3843   28.5174   23.1535      36.014    392.0531104           2          
MisPlume(west)    GOM_UW_1704    2017-04-13T07:47:37Z    -92.3847   28.5176   23.1541      36.013    393.4908943           2          
MisPlume(west)    GOM_UW_1704    2017-04-13T07:49:07Z    -92.3851   28.5177   23.1531      36.013    391.7377345           2          
MisPlume(west)    GOM_UW_1704    2017-04-13T07:50:35Z    -92.3855   28.5179   23.148       36.013    395.1590625           2          
MisPlume(west)    GOM_UW_1704    2017-04-13T07:52:04Z    -92.3858   28.5179   23.1463      36.011    395.0305014           2          
MisPlume(west)    GOM_UW_1704    2017-04-13T07:53:34Z    -92.3863   28.5181   23.1385      36.01     393.7702639           2          
MisPlume(west)    GOM_UW_1704    2017-04-13T07:55:02Z    -92.3867   28.5182   23.1423      36.009    389.7507469           2          
MisPlume(west)    GOM_UW_1704    2017-04-13T07:56:31Z    -92.3871   28.5184   23.1451      36.008    390.2162883           2          
MisPlume(west)    GOM_UW_1704    2017-04-13T07:57:58Z    -92.3875   28.5185   23.1392      36.01     389.3591092           2          
MisPlume(west)    GOM_UW_1704    2017-04-13T07:59:26Z    -92.3879   28.5186   23.1406      36.01     391.1796272           2          
MisPlume(west)    GOM_UW_1704    2017-04-13T08:00:58Z    -92.3883   28.5187   23.141       36.009    392.13948             2          
MisPlume(west)    GOM_UW_1704    2017-04-13T08:02:26Z    -92.3888   28.5189   23.1306      36.009    390.2986536           2          
MisPlume(west)    GOM_UW_1704    2017-04-13T08:03:54Z    -92.3891   28.519    23.1344      36.009    389.9766993           2          
MisPlume(west)    GOM_UW_1704    2017-04-13T08:05:21Z    -92.3894   28.5192   23.1281      36.009    391.3576588           2          
MisPlume(west)    GOM_UW_1704    2017-04-13T08:06:50Z    -92.3899   28.5194   23.1287      35.994    389.8350322           2          
MisPlume(west)    GOM_UW_1704    2017-04-13T08:08:18Z    -92.3903   28.5195   23.1335      36.011    384.1904455           2          
MisPlume(west)    GOM_UW_1704    2017-04-13T08:09:46Z    -92.3907   28.5196   23.1306      36.01     384.7058365           2          
MisPlume(west)    GOM_UW_1704    2017-04-13T08:11:16Z    -92.3911   28.5198   23.1227      36.009    385.5725989           2          
MisPlume(west)    GOM_UW_1704    2017-04-13T08:12:45Z    -92.3914   28.52     23.1207      36.009    389.4918447           2          
MisPlume(west)    GOM_UW_1704    2017-04-13T08:14:14Z    -92.3917   28.5202   23.1208      36.009    389.3079591           2          
MisPlume(west)    GOM_UW_1704    2017-04-13T08:15:44Z    -92.3922   28.5204   23.1154      36.008    390.762137            2          
MisPlume(west)    GOM_UW_1704    2017-04-13T08:17:12Z    -92.3926   28.5206   23.1127      36.008    389.6596895           2          
MisPlume(west)    GOM_UW_1704    2017-04-13T08:18:42Z    -92.3929   28.5208   23.1057      36.007    388.6129102           2          
MisPlume(west)    GOM_UW_1704    2017-04-13T08:20:10Z    -92.3934   28.5209   23.0971      36.007    391.6483709           2          
MisPlume(west)    GOM_UW_1704    2017-04-13T08:21:38Z    -92.3937   28.5211   23.0927      36.007    390.3124418           2          
MisPlume(west)    GOM_UW_1704    2017-04-13T08:23:08Z    -92.394    28.5215   23.0922      36.008    391.4126553           2          
MisPlume(west)    GOM_UW_1704    2017-04-13T08:24:36Z    -92.3937   28.5218   23.0859      36.007    387.0816303           2          
MisPlume(west)    GOM_UW_1704    2017-04-13T08:26:07Z    -92.3936   28.5205   23.0895      36.011    390.6781054           2          
MisPlume(west)    GOM_UW_1704    2017-04-13T08:27:34Z    -92.3933   28.5182   23.156       36.018    396.8161402           2          
MisPlume(west)    GOM_UW_1704    2017-04-13T08:29:03Z    -92.3932   28.5152   23.1646      36.021    395.0824172           2          
MisPlume(west)    GOM_UW_1704    2017-04-13T08:30:32Z    -92.3932   28.5122   23.1509      36.022    399.2921496           2          
MisPlume(west)    GOM_UW_1704    2017-04-13T08:32:00Z    -92.3931   28.5092   23.1453      36.021    396.1120906           2          
MisPlume(west)    GOM_UW_1704    2017-04-13T08:33:29Z    -92.3931   28.5062   23.1438      36.021    396.1220408           2          
MisPlume(west)    GOM_UW_1704    2017-04-13T08:34:57Z    -92.3931   28.503    23.1808      36.02     398.5634716           2          
MisPlume(west)    GOM_UW_1704    2017-04-13T08:36:26Z    -92.3932   28.4995   23.1832      36.021    392.1981877           2          
MisPlume(west)    GOM_UW_1704    2017-04-13T08:37:55Z    -92.3934   28.4961   23.2135      36.024    390.6302073           2          
MisPlume(west)    GOM_UW_1704    2017-04-13T08:39:22Z    -92.3936   28.4928   23.2417      36.028    393.0697864           2          
MisPlume(west)    GOM_UW_1704    2017-04-13T08:40:52Z    -92.3938   28.4893   23.2549      36.028    392.6336818           2          
MisPlume(west)    GOM_UW_1704    2017-04-13T08:42:23Z    -92.394    28.4857   23.2486      36.029    396.0690887           2          
MisPlume(west)    GOM_UW_1704    2017-04-13T08:43:51Z    -92.3943   28.4823   23.2362      36.029    392.8575694           2          
MisPlume(west)    GOM_UW_1704    2017-04-13T08:45:20Z    -92.3947   28.4789   23.2412      36.026    391.1641383           2          
MisPlume(west)    GOM_UW_1704    2017-04-13T08:46:47Z    -92.3951   28.4755   23.2447      36.016    394.0726699           2          
MisPlume(west)    GOM_UW_1704    2017-04-13T08:48:17Z    -92.3956   28.472    23.252       36.025    391.2489464           2          
MisPlume(west)    GOM_UW_1704    2017-04-13T08:49:44Z    -92.396    28.4687   23.2545      36.034    395.9665377           2          
MisPlume(west)    GOM_UW_1704    2017-04-13T08:51:13Z    -92.3963   28.4652   23.2603      36.031    393.6671329           2          
MisPlume(west)    GOM_UW_1704    2017-04-13T08:52:41Z    -92.3967   28.4618   23.2707      36.029    393.3296489           2          
MisPlume(west)    GOM_UW_1704    2017-04-13T08:54:10Z    -92.3968   28.4584   23.2809      36.026    390.5249764           2          
MisPlume(west)    GOM_UW_1704    2017-04-13T08:55:38Z    -92.3967   28.455    23.2875      36.026    392.9073658           2          
MisPlume(west)    GOM_UW_1704    2017-04-13T08:57:06Z    -92.3967   28.4516   23.2904      36.023    392.1999424           2          
MisPlume(west)    GOM_UW_1704    2017-04-13T08:58:34Z    -92.3966   28.4482   23.2971      36.021    393.2939296           2          
MisPlume(west)    GOM_UW_1704    2017-04-13T09:00:03Z    -92.3965   28.4448   23.3059      36.017    392.8308711           2          
MisPlume(west)    GOM_UW_1704    2017-04-13T09:01:34Z    -92.3965   28.4413   23.3112      36.016    390.6217416           2          
MisPlume(west)    GOM_UW_1704    2017-04-13T09:14:08Z    -92.3959   28.412    23.3109      35.997    396.5388263           2          
MisPlume(west)    GOM_UW_1704    2017-04-13T09:15:35Z    -92.3958   28.4086   23.3137      35.993    395.0363859           2          
MisPlume(west)    GOM_UW_1704    2017-04-13T09:17:04Z    -92.3957   28.4052   23.3273      35.99     396.687806            2          
MisPlume(west)    GOM_UW_1704    2017-04-13T09:18:33Z    -92.3957   28.4018   23.3336      35.987    396.1705177           2          
MisPlume(west)    GOM_UW_1704    2017-04-13T09:20:02Z    -92.3957   28.3983   23.3362      35.986    396.0343961           2          
MisPlume(west)    GOM_UW_1704    2017-04-13T09:21:30Z    -92.3956   28.3949   23.3394      35.984    399.0332047           2          
MisPlume(west)    GOM_UW_1704    2017-04-13T09:22:57Z    -92.3955   28.3916   23.3434      35.982    397.1529833           2          
MisPlume(west)    GOM_UW_1704    2017-04-13T09:24:26Z    -92.3955   28.3881   23.3448      35.979    396.7141898           2          
MisPlume(west)    GOM_UW_1704    2017-04-13T09:25:54Z    -92.3954   28.3847   23.3394      35.981    396.9449715           2          
MisPlume(west)    GOM_UW_1704    2017-04-13T09:27:22Z    -92.3953   28.3813   23.3318      35.978    395.6230025           2          
MisPlume(west)    GOM_UW_1704    2017-04-13T09:28:51Z    -92.3953   28.3778   23.3269      35.981    396.7881961           2          
MisPlume(west)    GOM_UW_1704    2017-04-13T09:30:19Z    -92.3952   28.3744   23.3334      35.978    396.4739078           2          
MisPlume(west)    GOM_UW_1704    2017-04-13T09:31:50Z    -92.3951   28.3708   23.3364      35.978    393.4826899           2          
MisPlume(west)    GOM_UW_1704    2017-04-13T09:33:18Z    -92.3951   28.3673   23.3478      35.978    393.6551256           2          
MisPlume(west)    GOM_UW_1704    2017-04-13T09:34:49Z    -92.395    28.3638   23.3784      35.981    396.2283993           2          
MisPlume(west)    GOM_UW_1704    2017-04-13T09:36:16Z    -92.395    28.3604   23.3885      35.982    395.4289187           2          
MisPlume(west)    GOM_UW_1704    2017-04-13T09:37:45Z    -92.3949   28.3569   23.4185      35.981    393.3304011           2          
MisPlume(west)    GOM_UW_1704    2017-04-13T09:39:12Z    -92.3948   28.3535   23.4322      35.983    396.468296            2          
MisPlume(west)    GOM_UW_1704    2017-04-13T09:40:41Z    -92.3947   28.35     23.5001      35.986    395.47895             2          
MisPlume(west)    GOM_UW_1704    2017-04-13T09:42:10Z    -92.3946   28.3466   23.4995      35.985    402.2654781           2          
MisPlume(west)    GOM_UW_1704    2017-04-13T09:43:38Z    -92.3946   28.343    23.4714      35.979    393.545716            2          
MisPlume(west)    GOM_UW_1704    2017-04-13T09:45:07Z    -92.3945   28.3395   23.4487      35.99     395.9087975           2          
MisPlume(west)    GOM_UW_1704    2017-04-13T09:46:35Z    -92.3945   28.3361   23.465       35.99     397.5997684           2          
MisPlume(west)    GOM_UW_1704    2017-04-13T09:48:03Z    -92.3944   28.3326   23.4763      35.987    397.8149531           2          
MisPlume(west)    GOM_UW_1704    2017-04-13T09:49:32Z    -92.3943   28.3291   23.5403      35.98     396.1943634           2          
MisPlume(west)    GOM_UW_1704    2017-04-13T09:51:01Z    -92.3943   28.3256   23.5783      35.981    400.6490746           2          
MisPlume(west)    GOM_UW_1704    2017-04-13T09:52:29Z    -92.3942   28.3222   23.5952      35.975    399.1411045           2          
MisPlume(west)    GOM_UW_1704    2017-04-13T09:53:57Z    -92.3941   28.3188   23.5967      35.976    397.5126926           2          
MisPlume(west)    GOM_UW_1704    2017-04-13T09:55:29Z    -92.394    28.3151   23.5911      35.968    394.8526095           2          
MisPlume(west)    GOM_UW_1704    2017-04-13T09:56:57Z    -92.394    28.3116   23.5925      35.961    394.0220286           2          
MisPlume(west)    GOM_UW_1704    2017-04-13T09:58:29Z    -92.3939   28.308    23.593       35.952    392.2655562           2          
MisPlume(west)    GOM_UW_1704    2017-04-13T09:59:59Z    -92.3938   28.3045   23.618       35.943    395.5509318           2          
MisPlume(west)    GOM_UW_1704    2017-04-13T10:01:28Z    -92.3937   28.301    23.6518      35.934    400.7884494           2          
MisPlume(west)    GOM_UW_1704    2017-04-13T10:02:57Z    -92.3936   28.2976   23.6875      35.926    398.401294            2          
MisPlume(west)    GOM_UW_1704    2017-04-13T10:04:25Z    -92.3936   28.2941   23.6959      35.918    399.9639357           2          
MisPlume(west)    GOM_UW_1704    2017-04-13T10:05:56Z    -92.3936   28.2906   23.6948      35.895    399.0151843           2          
MisPlume(west)    GOM_UW_1704    2017-04-13T10:07:25Z    -92.3934   28.287    23.6974      35.909    394.4367569           2          
MisPlume(west)    GOM_UW_1704    2017-04-13T10:08:54Z    -92.3934   28.2835   23.7045      35.883    399.2444407           2          
MisPlume(west)    GOM_UW_1704    2017-04-13T10:10:23Z    -92.3933   28.28     23.7008      35.895    396.9634924           2          
MisPlume(west)    GOM_UW_1704    2017-04-13T10:11:53Z    -92.3932   28.2764   23.6904      35.889    393.4417373           2          
MisPlume(west)    GOM_UW_1704    2017-04-13T10:13:21Z    -92.3931   28.273    23.6872      35.886    395.6643838           2          
MisPlume(west)    GOM_UW_1704    2017-04-13T10:14:51Z    -92.3931   28.2695   23.6928      35.882    398.7350035           2          
MisPlume(west)    GOM_UW_1704    2017-04-13T10:16:23Z    -92.393    28.2659   23.6969      35.867    393.1898122           2          
MisPlume(west)    GOM_UW_1704    2017-04-13T10:17:51Z    -92.3929   28.2624   23.7075      35.863    389.0117916           2          
MisPlume(west)    GOM_UW_1704    2017-04-13T10:19:22Z    -92.3928   28.2588   23.72        35.858    389.53262             2          
MisPlume(west)    GOM_UW_1704    2017-04-13T10:20:51Z    -92.3928   28.2554   23.7273      35.854    391.6176616           2          
MisPlume(west)    GOM_UW_1704    2017-04-13T10:22:22Z    -92.3928   28.2518   23.7302      35.845    390.517609            2          
MisPlume(west)    GOM_UW_1704    2017-04-13T10:23:49Z    -92.3927   28.2485   23.7307      35.841    390.619576            2          
MisPlume(west)    GOM_UW_1704    2017-04-13T10:25:17Z    -92.3927   28.245    23.736       35.833    391.8051443           2          
MisPlume(west)    GOM_UW_1704    2017-04-13T10:26:48Z    -92.3926   28.2415   23.7401      35.826    389.77728             2          
MisPlume(west)    GOM_UW_1704    2017-04-13T10:28:16Z    -92.3925   28.2381   23.7405      35.825    391.862533            2          
MisPlume(west)    GOM_UW_1704    2017-04-13T10:29:47Z    -92.3924   28.2346   23.7425      35.826    390.1144872           2          
MisPlume(west)    GOM_UW_1704    2017-04-13T10:31:18Z    -92.3922   28.231    23.7456      35.822    391.7495688           2          
MisPlume(west)    GOM_UW_1704    2017-04-13T10:32:46Z    -92.3922   28.2275   23.7491      35.819    388.4097162           2          
MisPlume(west)    GOM_UW_1704    2017-04-13T10:34:14Z    -92.3921   28.224    23.748       35.813    389.1973363           2          
MisPlume(west)    GOM_UW_1704    2017-04-13T10:35:43Z    -92.3921   28.2205   23.7476      35.812    390.6070344           2          
MisPlume(west)    GOM_UW_1704    2017-04-13T10:37:11Z    -92.3921   28.2172   23.7453      35.811    389.7493261           2          
MisPlume(west)    GOM_UW_1704    2017-04-13T10:38:39Z    -92.392    28.2138   23.7406      35.807    390.3589562           2          
MisPlume(west)    GOM_UW_1704    2017-04-13T10:40:08Z    -92.3919   28.2103   23.7361      35.804    nd                    2          
MisPlume(west)    GOM_UW_1704    2017-04-13T10:41:39Z    -92.3917   28.2067   23.731       35.8      388.8710436           2          
MisPlume(west)    GOM_UW_1704    2017-04-13T10:43:07Z    -92.3916   28.2032   23.7251      35.799    390.3804566           2          
MisPlume(west)    GOM_UW_1704    2017-04-13T10:44:35Z    -92.3915   28.1997   23.7203      35.795    388.2127127           2          
MisPlume(west)    GOM_UW_1704    2017-04-13T10:46:03Z    -92.3913   28.1963   23.7192      35.798    390.2435135           2          
MisPlume(west)    GOM_UW_1704    2017-04-13T10:47:31Z    -92.3912   28.1928   23.7173      35.798    391.8789904           2          
MisPlume(west)    GOM_UW_1704    2017-04-13T10:49:02Z    -92.391    28.1892   23.7154      35.796    388.7975085           2          
MisPlume(west)    GOM_UW_1704    2017-04-13T10:50:31Z    -92.3909   28.1856   23.7179      35.797    387.307301            2          
MisPlume(west)    GOM_UW_1704    2017-04-13T10:52:01Z    -92.3908   28.182    23.7217      35.791    388.0572996           2          
MisPlume(west)    GOM_UW_1704    2017-04-13T10:53:30Z    -92.3907   28.1785   23.7216      35.786    388.1602253           2          
MisPlume(west)    GOM_UW_1704    2017-04-13T10:54:59Z    -92.3905   28.1751   23.7232      35.783    387.9862886           2          
MisPlume(west)    GOM_UW_1704    2017-04-13T10:56:28Z    -92.3904   28.1715   23.7287      35.78     387.0237284           2          
MisPlume(west)    GOM_UW_1704    2017-04-13T10:57:56Z    -92.3902   28.1681   23.7403      35.778    387.2616738           2          
MisPlume(west)    GOM_UW_1704    2017-04-13T10:59:24Z    -92.3901   28.1645   23.7586      35.74     387.0622525           2          
MisPlume(west)    GOM_UW_1704    2017-04-13T11:00:53Z    -92.3899   28.161    23.773       35.778    388.0147491           2          
MisPlume(west)    GOM_UW_1704    2017-04-13T11:02:24Z    -92.3898   28.1574   23.7876      35.776    388.2446441           2          
MisPlume(west)    GOM_UW_1704    2017-04-13T11:03:53Z    -92.3897   28.1538   23.7955      35.781    387.5960263           2          
MisPlume(west)    GOM_UW_1704    2017-04-13T11:05:21Z    -92.3895   28.1503   23.794       35.777    388.1866509           2          
MisPlume(west)    GOM_UW_1704    2017-04-13T11:06:53Z    -92.3894   28.1466   23.8001      35.774    388.9436215           2          
MisPlume(west)    GOM_UW_1704    2017-04-13T11:08:23Z    -92.3892   28.1431   23.8127      35.77     387.4173484           2          
MisPlume(west)    GOM_UW_1704    2017-04-13T11:09:51Z    -92.3891   28.1396   23.822       35.768    390.2289298           2          
MisPlume(west)    GOM_UW_1704    2017-04-13T11:11:19Z    -92.3889   28.1361   23.8216      35.776    388.7546204           2          
MisPlume(west)    GOM_UW_1704    2017-04-13T11:12:50Z    -92.3888   28.1324   23.8308      35.776    387.5068676           2          
MisPlume(west)    GOM_UW_1704    2017-04-13T11:14:21Z    -92.3887   28.1288   23.8355      35.775    389.2180339           2          
MisPlume(west)    GOM_UW_1704    2017-04-13T11:15:51Z    -92.3885   28.1253   23.8387      35.776    390.8570035           2          
MisPlume(west)    GOM_UW_1704    2017-04-13T11:17:20Z    -92.3883   28.1217   23.8383      35.776    387.6038042           2          
MisPlume(west)    GOM_UW_1704    2017-04-13T11:18:48Z    -92.3882   28.1182   23.8448      35.782    387.7553788           2          
MisPlume(west)    GOM_UW_1704    2017-04-13T11:20:16Z    -92.3881   28.1146   23.8454      35.786    387.6585041           2          
MisPlume(west)    GOM_UW_1704    2017-04-13T11:21:44Z    -92.388    28.1112   23.8434      35.793    389.1059674           2          
MisPlume(west)    GOM_UW_1704    2017-04-13T11:23:12Z    -92.3878   28.1076   23.8448      35.8      389.2401988           2          
MisPlume(west)    GOM_UW_1704    2017-04-13T11:24:40Z    -92.3877   28.1041   23.8624      35.812    388.9418997           2          
MisPlume(west)    GOM_UW_1704    2017-04-13T11:26:11Z    -92.3877   28.1005   23.8612      35.815    388.3285542           2          
MisPlume(west)    GOM_UW_1704    2017-04-13T11:27:39Z    -92.3876   28.0969   23.8477      35.808    387.499772            2          
MisPlume(west)    GOM_UW_1704    2017-04-13T11:29:07Z    -92.3875   28.0933   23.8596      35.813    387.49498             2          
MisPlume(west)    GOM_UW_1704    2017-04-13T11:30:36Z    -92.3874   28.0897   23.8938      35.836    387.9336704           2          
MisPlume(west)    GOM_UW_1704    2017-04-13T11:32:05Z    -92.3872   28.0861   23.922       35.847    389.3056607           2          
MisPlume(west)    GOM_UW_1704    2017-04-13T11:33:36Z    -92.3871   28.0825   23.9168      35.789    392.3632576           2          
MisPlume(west)    GOM_UW_1704    2017-04-13T11:35:05Z    -92.3869   28.0789   23.9249      35.856    390.4276749           2          
MisPlume(west)    GOM_UW_1704    2017-04-13T11:36:32Z    -92.3867   28.0754   23.9332      35.853    390.333293            2          
MisPlume(west)    GOM_UW_1704    2017-04-13T11:38:01Z    -92.3866   28.0718   23.9502      35.841    390.0295517           2          
MisPlume(west)    GOM_UW_1704    2017-04-13T11:39:30Z    -92.3864   28.0683   23.9522      35.832    391.9912064           2          
MisPlume(west)    GOM_UW_1704    2017-04-13T11:40:58Z    -92.3863   28.0648   23.9347      35.815    393.6602214           2          
MisPlume(west)    GOM_UW_1704    2017-04-13T11:42:26Z    -92.3862   28.0614   23.925       35.799    396.9859286           2          
MisPlume(west)    GOM_UW_1704    2017-04-13T11:43:54Z    -92.386    28.0579   23.9145      35.798    393.2977284           2          
MisPlume(west)    GOM_UW_1704    2017-04-13T11:45:23Z    -92.3859   28.0544   23.9108      35.804    396.4876413           2          
MisPlume(west)    GOM_UW_1704    2017-04-13T11:46:52Z    -92.3857   28.0508   23.8901      35.797    393.6756691           2          
MisPlume(west)    GOM_UW_1704    2017-04-13T11:48:21Z    -92.3856   28.0473   23.8674      35.77     392.1107879           2          
MisPlume(west)    GOM_UW_1704    2017-04-13T11:49:49Z    -92.3855   28.0437   23.8595      35.735    393.2022804           2          
MisPlume(west)    GOM_UW_1704    2017-04-13T11:51:17Z    -92.3854   28.0402   23.8514      35.71     392.0775957           2          
MisPlume(west)    GOM_UW_1704    2017-04-13T11:52:45Z    -92.3852   28.0367   23.8149      35.672    389.8903153           2          
MisPlume(west)    GOM_UW_1704    2017-04-13T11:54:14Z    -92.3851   28.0332   23.8021      35.667    396.8269449           2          
MisPlume(west)    GOM_UW_1704    2017-04-13T11:55:43Z    -92.385    28.0297   23.7889      35.666    394.4015179           2          
MisPlume(west)    GOM_UW_1704    2017-04-13T11:57:12Z    -92.3848   28.0261   23.7623      35.644    391.5807751           2          
MisPlume(west)    GOM_UW_1704    2017-04-13T11:58:40Z    -92.3847   28.0226   23.7455      35.629    393.2926225           2          
MisPlume(west)    GOM_UW_1704    2017-04-13T12:00:08Z    -92.3846   28.0192   23.7183      35.615    393.3973551           2          
MisPlume(west)    GOM_UW_1704    2017-04-13T12:01:36Z    -92.3845   28.0157   23.7011      35.601    392.3113881           2          
MisPlume(west)    GOM_UW_1704    2017-04-13T12:03:06Z    -92.3843   28.0121   23.6906      35.589    392.3446512           2          
MisPlume(west)    GOM_UW_1704    2017-04-13T12:04:34Z    -92.3841   28.0086   23.6527      35.557    392.234179            2          
MisPlume(west)    GOM_UW_1704    2017-04-13T12:06:02Z    -92.384    28.0051   23.6432      35.547    392.4164516           2          
MisPlume(west)    GOM_UW_1704    2017-04-13T12:07:33Z    -92.3838   28.0015   23.6316      35.548    391.9857604           2          
MisPlume(west)    GOM_UW_1704    2017-04-13T12:09:02Z    -92.3833   27.9999   23.6137      35.547    390.3120873           2          
MisPlume(west)    GOM_UW_1704    2017-04-13T12:10:33Z    -92.3833   28.0001   23.6078      35.544    386.618072            2          
MisPlume(west)    GOM_UW_1704    2017-04-13T12:23:09Z    -92.3861   28.0002   23.6281      35.551    385.3820805           2          
MisPlume(west)    GOM_UW_1704    2017-04-13T12:24:38Z    -92.3865   28.0002   23.6437      35.558    385.229419            2          
MisPlume(west)    GOM_UW_1704    2017-04-13T12:26:06Z    -92.3869   28.0002   23.6527      35.561    384.7256797           2          
MisPlume(west)    GOM_UW_1704    2017-04-13T12:27:37Z    -92.3872   28.0002   23.6526      35.563    385.2751185           2          
MisPlume(west)    GOM_UW_1704    2017-04-13T12:29:09Z    -92.3875   28.0002   23.6592      35.562    384.1505476           2          
MisPlume(west)    GOM_UW_1704    2017-04-13T12:30:38Z    -92.3879   28.0003   23.6544      35.57     385.3433251           2          
MisPlume(west)    GOM_UW_1704    2017-04-13T12:32:09Z    -92.3882   28.0005   23.6552      35.568    386.9897777           2          
MisPlume(west)    GOM_UW_1704    2017-04-13T12:33:40Z    -92.3885   28.0006   23.6487      35.566    387.8680468           2          
MisPlume(west)    GOM_UW_1704    2017-04-13T12:35:09Z    -92.3888   28.0008   23.6529      35.566    387.6428741           2          
MisPlume(west)    GOM_UW_1704    2017-04-13T12:36:40Z    -92.3892   28.001    23.6498      35.569    388.2784325           2          
MisPlume(west)    GOM_UW_1704    2017-04-13T12:38:09Z    -92.3894   28.0012   23.6484      35.568    386.2241152           2          
MisPlume(west)    GOM_UW_1704    2017-04-13T12:39:37Z    -92.3897   28.0014   23.64        35.567    387.4798622           2          
MisPlume(west)    GOM_UW_1704    2017-04-13T12:41:07Z    -92.39     28.0016   23.6418      35.567    386.4824873           2          
MisPlume(west)    GOM_UW_1704    2017-04-13T12:42:38Z    -92.3904   28.0018   23.6425      35.566    387.2137716           2          
MisPlume(west)    GOM_UW_1704    2017-04-13T12:44:06Z    -92.3907   28.002    23.6431      35.566    387.2286339           2          
MisPlume(west)    GOM_UW_1704    2017-04-13T12:45:35Z    -92.391    28.0022   23.6425      35.564    388.4735735           2          
MisPlume(west)    GOM_UW_1704    2017-04-13T12:47:04Z    -92.3914   28.0024   23.6417      35.561    386.9601948           2          
MisPlume(west)    GOM_UW_1704    2017-04-13T12:48:31Z    -92.3917   28.0026   23.6379      35.558    386.8982553           2          
MisPlume(west)    GOM_UW_1704    2017-04-13T12:50:01Z    -92.392    28.0028   23.6498      35.56     387.4974593           2          
MisPlume(west)    GOM_UW_1704    2017-04-13T12:51:32Z    -92.3923   28.003    23.6593      35.563    389.6783139           2          
MisPlume(west)    GOM_UW_1704    2017-04-13T12:53:00Z    -92.3927   28.0031   23.6641      35.555    389.8756925           2          
MisPlume(west)    GOM_UW_1704    2017-04-13T12:54:29Z    -92.393    28.0033   23.6582      35.558    389.7925863           2          
MisPlume(west)    GOM_UW_1704    2017-04-13T12:56:00Z    -92.3933   28.0036   23.6552      35.557    389.76639             2          
MisPlume(west)    GOM_UW_1704    2017-04-13T12:57:30Z    -92.3937   28.0023   23.6577      35.557    389.2262374           2          
MisPlume(west)    GOM_UW_1704    2017-04-13T12:58:59Z    -92.3937   27.9989   23.6406      35.555    393.0895216           2          
MisPlume(west)    GOM_UW_1704    2017-04-13T13:00:26Z    -92.3938   27.9954   23.6342      35.548    390.6757256           2          
MisPlume(west)    GOM_UW_1704    2017-04-13T13:01:54Z    -92.3939   27.9918   23.6257      35.484    389.8510262           2          
MisPlume(west)    GOM_UW_1704    2017-04-13T13:03:24Z    -92.3939   27.9882   23.6086      35.551    390.0218022           2          
MisPlume(west)    GOM_UW_1704    2017-04-13T13:04:55Z    -92.394    27.9845   23.5895      35.549    388.706769            2          
MisPlume(west)    GOM_UW_1704    2017-04-13T13:06:22Z    -92.3941   27.9809   23.5883      35.564    387.8363592           2          
MisPlume(west)    GOM_UW_1704    2017-04-13T13:07:51Z    -92.3941   27.9772   23.588       35.578    389.3684481           2          
MisPlume(west)    GOM_UW_1704    2017-04-13T13:09:19Z    -92.3942   27.9737   23.6506      35.636    386.739367            2          
MisPlume(west)    GOM_UW_1704    2017-04-13T13:10:48Z    -92.3943   27.97     23.6416      35.622    388.5714158           2          
MisPlume(west)    GOM_UW_1704    2017-04-13T13:12:16Z    -92.3944   27.9664   23.6744      35.667    386.9997826           2          
MisPlume(west)    GOM_UW_1704    2017-04-13T13:13:45Z    -92.3944   27.9628   23.7126      35.714    392.3728775           2          
MisPlume(west)    GOM_UW_1704    2017-04-13T13:15:13Z    -92.3945   27.9592   23.7473      35.735    389.8271791           2          
MisPlume(west)    GOM_UW_1704    2017-04-13T13:16:41Z    -92.3946   27.9557   23.8217      35.771    391.6779215           2          
MisPlume(west)    GOM_UW_1704    2017-04-13T13:18:10Z    -92.3946   27.9521   23.8349      35.761    391.2894805           2          
MisPlume(west)    GOM_UW_1704    2017-04-13T13:19:39Z    -92.3947   27.9485   23.8196      35.762    390.0128157           2          
MisPlume(west)    GOM_UW_1704    2017-04-13T13:21:08Z    -92.3948   27.945    23.8226      35.764    392.2483138           2          
MisPlume(west)    GOM_UW_1704    2017-04-13T13:22:38Z    -92.3949   27.9413   23.8157      35.755    389.6238319           2          
MisPlume(west)    GOM_UW_1704    2017-04-13T13:24:06Z    -92.3949   27.9378   23.8292      35.752    390.8182018           2          
MisPlume(west)    GOM_UW_1704    2017-04-13T13:25:35Z    -92.395    27.9342   23.8282      35.731    390.6104612           2          
MisPlume(west)    GOM_UW_1704    2017-04-13T13:27:03Z    -92.3951   27.9306   23.833       35.746    391.1371553           2          
MisPlume(west)    GOM_UW_1704    2017-04-13T13:28:33Z    -92.3952   27.927    23.833       35.745    392.4526796           2          
MisPlume(west)    GOM_UW_1704    2017-04-13T13:30:01Z    -92.3952   27.9234   23.8275      35.741    391.7399971           2          
MisPlume(west)    GOM_UW_1704    2017-04-13T13:31:29Z    -92.3954   27.9199   23.8073      35.752    389.6801819           2          
MisPlume(west)    GOM_UW_1704    2017-04-13T13:32:59Z    -92.3954   27.9163   23.7943      35.747    390.1019528           2          
MisPlume(west)    GOM_UW_1704    2017-04-13T13:34:29Z    -92.3954   27.9126   23.8062      35.745    390.1539677           2          
MisPlume(west)    GOM_UW_1704    2017-04-13T13:35:57Z    -92.3954   27.909    23.8036      35.744    391.0541728           2          
MisPlume(west)    GOM_UW_1704    2017-04-13T13:37:25Z    -92.3954   27.9054   23.7838      35.739    391.890872            2          
MisPlume(west)    GOM_UW_1704    2017-04-13T13:38:53Z    -92.3954   27.902    23.7991      35.738    389.8937148           2          
MisPlume(west)    GOM_UW_1704    2017-04-13T13:40:24Z    -92.3954   27.8984   23.8147      35.736    390.7196001           2          
MisPlume(west)    GOM_UW_1704    2017-04-13T13:41:53Z    -92.3954   27.8948   23.8102      35.737    390.4481305           2          
MisPlume(west)    GOM_UW_1704    2017-04-13T13:43:21Z    -92.3953   27.8912   23.8039      35.735    389.6689936           2          
MisPlume(west)    GOM_UW_1704    2017-04-13T13:44:49Z    -92.3953   27.8877   23.8221      35.734    388.1492083           2          
MisPlume(west)    GOM_UW_1704    2017-04-13T13:46:17Z    -92.3953   27.8841   23.8256      35.736    389.5604257           2          
MisPlume(west)    GOM_UW_1704    2017-04-13T13:47:47Z    -92.3954   27.8804   23.8132      35.73     389.1846301           2          
MisPlume(west)    GOM_UW_1704    2017-04-13T13:49:16Z    -92.3954   27.8768   23.8098      35.726    389.8303102           2          
MisPlume(west)    GOM_UW_1704    2017-04-13T13:50:44Z    -92.3954   27.8733   23.7997      35.729    388.9818417           2          
MisPlume(west)    GOM_UW_1704    2017-04-13T13:52:12Z    -92.3954   27.8697   23.7969      35.731    389.9697468           2          
MisPlume(west)    GOM_UW_1704    2017-04-13T13:53:41Z    -92.3954   27.8661   23.7935      35.739    389.4075521           2          
MisPlume(west)    GOM_UW_1704    2017-04-13T13:55:09Z    -92.3954   27.8625   23.7827      35.741    389.8143823           2          
MisPlume(west)    GOM_UW_1704    2017-04-13T13:56:37Z    -92.3953   27.8589   23.7856      35.743    387.3481938           2          
MisPlume(west)    GOM_UW_1704    2017-04-13T13:58:06Z    -92.3953   27.8553   23.7829      35.746    387.9985897           2          
MisPlume(west)    GOM_UW_1704    2017-04-13T13:59:33Z    -92.3953   27.8518   23.7669      35.742    389.3319696           2          
MisPlume(west)    GOM_UW_1704    2017-04-13T14:01:02Z    -92.3953   27.8483   23.7573      35.741    388.7331001           2          
MisPlume(west)    GOM_UW_1704    2017-04-13T14:02:31Z    -92.3953   27.8446   23.7516      35.736    387.4902072           2          
MisPlume(west)    GOM_UW_1704    2017-04-13T14:04:00Z    -92.3953   27.8411   23.7527      35.735    389.0889567           2          
MisPlume(west)    GOM_UW_1704    2017-04-13T14:05:27Z    -92.3954   27.8376   23.7523      35.735    388.2884162           2          
MisPlume(west)    GOM_UW_1704    2017-04-13T14:06:56Z    -92.3953   27.834    23.7395      35.734    388.8390945           2          
MisPlume(west)    GOM_UW_1704    2017-04-13T14:08:25Z    -92.3953   27.8304   23.759       35.747    388.7298934           2          
MisPlume(west)    GOM_UW_1704    2017-04-13T14:09:53Z    -92.3953   27.8268   23.7614      35.75     389.3633574           2          
MisPlume(west)    GOM_UW_1704    2017-04-13T14:11:24Z    -92.3953   27.8232   23.7401      35.689    388.9619016           2          
MisPlume(west)    GOM_UW_1704    2017-04-13T14:12:52Z    -92.3953   27.8196   23.7326      35.684    389.5932269           2          
MisPlume(west)    GOM_UW_1704    2017-04-13T14:14:20Z    -92.3952   27.8162   23.7338      35.67     389.278553            2          
MisPlume(west)    GOM_UW_1704    2017-04-13T14:15:52Z    -92.3951   27.8124   23.7621      35.669    390.1592532           2          
MisPlume(west)    GOM_UW_1704    2017-04-13T14:17:20Z    -92.395    27.8089   23.7897      35.672    388.6607954           2          
MisPlume(west)    GOM_UW_1704    2017-04-13T14:18:49Z    -92.395    27.8054   23.7948      35.671    388.1531238           2          
MisPlume(west)    GOM_UW_1704    2017-04-13T14:20:18Z    -92.3949   27.8018   23.8027      35.677    390.2670188           2          
MisPlume(west)    GOM_UW_1704    2017-04-13T14:21:47Z    -92.3949   27.7983   23.831       35.682    390.0053877           2          
MisPlume(west)    GOM_UW_1704    2017-04-13T14:23:16Z    -92.3948   27.7947   23.8554      35.686    388.9707161           2          
MisPlume(west)    GOM_UW_1704    2017-04-13T14:24:46Z    -92.3947   27.7912   23.854       35.686    391.8532568           2          
MisPlume(west)    GOM_UW_1704    2017-04-13T14:26:17Z    -92.3947   27.7876   23.8413      35.678    390.6477728           2          
MisPlume(west)    GOM_UW_1704    2017-04-13T14:27:48Z    -92.3946   27.7839   23.8476      35.682    389.5430089           2          
MisPlume(west)    GOM_UW_1704    2017-04-13T14:29:18Z    -92.3945   27.7804   23.8689      35.684    389.6556808           2          
MisPlume(west)    GOM_UW_1704    2017-04-13T14:30:47Z    -92.3944   27.7768   23.8973      35.697    390.2973237           2          
MisPlume(west)    GOM_UW_1704    2017-04-13T14:32:18Z    -92.3943   27.7732   23.9045      35.697    390.0265473           2          
MisPlume(west)    GOM_UW_1704    2017-04-13T14:33:46Z    -92.3943   27.7697   23.8953      35.702    389.5351451           2          
MisPlume(west)    GOM_UW_1704    2017-04-13T14:35:14Z    -92.3942   27.7661   23.8787      35.697    388.9579605           2          
MisPlume(west)    GOM_UW_1704    2017-04-13T14:36:42Z    -92.3942   27.7626   23.8846      35.697    389.6727668           2          
MisPlume(west)    GOM_UW_1704    2017-04-13T14:38:11Z    -92.3941   27.759    23.8916      35.695    389.5136969           2          
MisPlume(west)    GOM_UW_1704    2017-04-13T14:39:43Z    -92.394    27.7554   23.8961      35.692    389.6531013           2          
MisPlume(west)    GOM_UW_1704    2017-04-13T14:41:13Z    -92.394    27.7518   23.9026      35.697    389.2488066           2          
MisPlume(west)    GOM_UW_1704    2017-04-13T14:42:42Z    -92.3939   27.7483   23.903       35.694    389.3385689           2          
MisPlume(west)    GOM_UW_1704    2017-04-13T14:44:11Z    -92.3938   27.7448   23.9032      35.685    390.8637899           2          
MisPlume(west)    GOM_UW_1704    2017-04-13T14:45:41Z    -92.3937   27.7412   23.9126      35.682    390.2748868           2          
MisPlume(west)    GOM_UW_1704    2017-04-13T14:47:10Z    -92.3936   27.7377   23.9153      35.673    390.2946423           2          
MisPlume(west)    GOM_UW_1704    2017-04-13T14:48:41Z    -92.3935   27.7342   23.9367      35.677    390.1732802           2          
MisPlume(west)    GOM_UW_1704    2017-04-13T14:50:10Z    -92.3934   27.7307   23.9046      35.669    390.3631355           2          
MisPlume(west)    GOM_UW_1704    2017-04-13T14:51:37Z    -92.3932   27.7272   23.8899      35.665    389.2595202           2          
MisPlume(west)    GOM_UW_1704    2017-04-13T14:53:06Z    -92.3932   27.7237   23.8961      35.669    389.4202001           2          
MisPlume(west)    GOM_UW_1704    2017-04-13T14:54:37Z    -92.393    27.72     23.8773      35.649    389.0351299           2          
MisPlume(west)    GOM_UW_1704    2017-04-13T14:56:06Z    -92.3928   27.7165   23.8609      35.647    388.3693247           2          
MisPlume(west)    GOM_UW_1704    2017-04-13T14:57:37Z    -92.3926   27.713    23.823       35.635    388.9572471           2          
MisPlume(west)    GOM_UW_1704    2017-04-13T14:59:08Z    -92.3925   27.7094   23.7837      35.609    387.7759811           2          
MisPlume(west)    GOM_UW_1704    2017-04-13T15:00:35Z    -92.3923   27.7059   23.7877      35.598    387.9328833           2          
MisPlume(west)    GOM_UW_1704    2017-04-13T15:02:06Z    -92.3922   27.7023   23.7913      35.591    388.0982601           2          
MisPlume(west)    GOM_UW_1704    2017-04-13T15:03:35Z    -92.3921   27.6988   23.8073      35.593    389.176497            2          
MisPlume(west)    GOM_UW_1704    2017-04-13T15:05:04Z    -92.392    27.6952   23.794       35.584    387.4035631           2          
MisPlume(west)    GOM_UW_1704    2017-04-13T15:06:32Z    -92.3918   27.6917   23.7991      35.578    389.4291423           2          
MisPlume(west)    GOM_UW_1704    2017-04-13T15:08:03Z    -92.3916   27.6881   23.8024      35.574    386.961767            2          
MisPlume(west)    GOM_UW_1704    2017-04-13T15:09:34Z    -92.3915   27.6845   23.8018      35.598    387.9618388           2          
MisPlume(west)    GOM_UW_1704    2017-04-13T15:11:03Z    -92.3913   27.681    23.8151      35.596    387.4195737           2          
MisPlume(west)    GOM_UW_1704    2017-04-13T15:12:31Z    -92.3912   27.6775   23.8136      35.601    387.2722248           2          
MisPlume(west)    GOM_UW_1704    2017-04-13T15:14:00Z    -92.391    27.674    23.8077      35.611    388.3239248           2          
MisPlume(west)    GOM_UW_1704    2017-04-13T15:15:28Z    -92.3909   27.6706   23.7975      35.615    388.7414177           2          
MisPlume(west)    GOM_UW_1704    2017-04-13T15:16:56Z    -92.3908   27.6672   23.7826      35.622    389.3995666           2          
MisPlume(west)    GOM_UW_1704    2017-04-13T15:18:24Z    -92.3907   27.6637   23.8151      35.666    388.4881589           2          
MisPlume(west)    GOM_UW_1704    2017-04-13T15:19:53Z    -92.3906   27.6601   23.8151      35.693    388.0782559           2          
MisPlume(west)    GOM_UW_1704    2017-04-13T15:32:34Z    -92.3894   27.6299   23.5869      35.628    387.1307736           2          
MisPlume(west)    GOM_UW_1704    2017-04-13T15:34:02Z    -92.3893   27.6265   23.5363      35.6      386.0876683           2          
MisPlume(west)    GOM_UW_1704    2017-04-13T15:35:31Z    -92.3891   27.6231   23.5001      35.593    385.3434822           2          
MisPlume(west)    GOM_UW_1704    2017-04-13T15:37:01Z    -92.3889   27.6196   23.4847      35.587    385.9725329           2          
MisPlume(west)    GOM_UW_1704    2017-04-13T15:38:29Z    -92.3888   27.6162   23.4653      35.57     385.5092456           2          
MisPlume(west)    GOM_UW_1704    2017-04-13T15:39:57Z    -92.3887   27.6128   23.4551      35.571    385.1737415           2          
MisPlume(west)    GOM_UW_1704    2017-04-13T15:41:26Z    -92.3885   27.6093   23.4602      35.575    384.7481291           2          
MisPlume(west)    GOM_UW_1704    2017-04-13T15:42:57Z    -92.3884   27.6058   23.481       35.575    384.1944845           2          
MisPlume(west)    GOM_UW_1704    2017-04-13T15:44:25Z    -92.3883   27.6023   23.5178      35.59     385.2040392           2          
MisPlume(west)    GOM_UW_1704    2017-04-13T15:45:53Z    -92.3882   27.5989   23.5396      35.603    384.9357489           2          
MisPlume(west)    GOM_UW_1704    2017-04-13T15:47:23Z    -92.388    27.5954   23.5527      35.607    386.1502345           2          
MisPlume(west)    GOM_UW_1704    2017-04-13T15:48:51Z    -92.3879   27.592    23.56        35.61     385.4351557           2          
MisPlume(west)    GOM_UW_1704    2017-04-13T15:50:19Z    -92.3878   27.5885   23.5634      35.616    385.6566188           2          
MisPlume(west)    GOM_UW_1704    2017-04-13T15:51:47Z    -92.3876   27.5851   23.5561      35.613    386.1666134           2          
MisPlume(west)    GOM_UW_1704    2017-04-13T15:53:15Z    -92.3875   27.5816   23.5487      35.614    385.7839703           2          
MisPlume(west)    GOM_UW_1704    2017-04-13T15:54:43Z    -92.3874   27.5782   23.5341      35.612    386.6372265           2          
MisPlume(west)    GOM_UW_1704    2017-04-13T15:56:14Z    -92.3872   27.5746   23.5382      35.612    385.3821145           2          
MisPlume(west)    GOM_UW_1704    2017-04-13T15:57:43Z    -92.3872   27.571    23.5752      35.623    385.5477148           2          
MisPlume(west)    GOM_UW_1704    2017-04-13T15:59:11Z    -92.387    27.5675   23.6037      35.629    386.1204427           2          
MisPlume(west)    GOM_UW_1704    2017-04-13T16:00:40Z    -92.3868   27.564    23.6273      35.64     386.054337            2          
MisPlume(west)    GOM_UW_1704    2017-04-13T16:02:08Z    -92.3867   27.5605   23.6498      35.651    386.8096849           2          
MisPlume(west)    GOM_UW_1704    2017-04-13T16:03:36Z    -92.3866   27.557    23.6621      35.656    386.4469164           2          
MisPlume(west)    GOM_UW_1704    2017-04-13T16:05:06Z    -92.3864   27.5535   23.671       35.662    388.7144243           2          
MisPlume(west)    GOM_UW_1704    2017-04-13T16:06:34Z    -92.3862   27.55     23.6617      35.663    387.0397044           2          
MisPlume(west)    GOM_UW_1704    2017-04-13T16:08:04Z    -92.386    27.5464   23.5931      35.642    387.3732617           2          
MisPlume(west)    GOM_UW_1704    2017-04-13T16:09:31Z    -92.3857   27.543    23.61        35.652    387.1669452           2          
MisPlume(west)    GOM_UW_1704    2017-04-13T16:11:00Z    -92.3855   27.5394   23.6685      35.679    387.6165459           2          
MisPlume(west)    GOM_UW_1704    2017-04-13T16:12:31Z    -92.3853   27.5358   23.7584      35.725    388.160515            2          
MisPlume(west)    GOM_UW_1704    2017-04-13T16:14:00Z    -92.3851   27.5322   23.7554      35.738    388.4944771           2          
MisPlume(west)    GOM_UW_1704    2017-04-13T16:15:27Z    -92.3849   27.5287   23.7982      35.769    388.1451836           2          
MisPlume(west)    GOM_UW_1704    2017-04-13T16:16:57Z    -92.3847   27.5251   24.0753      35.897    388.1549856           2          
MisPlume(west)    GOM_UW_1704    2017-04-13T16:18:28Z    -92.3845   27.5216   24.0675      35.89     390.1508238           2          
MisPlume(west)    GOM_UW_1704    2017-04-13T16:19:57Z    -92.3843   27.5181   24.0436      35.878    389.238978            2          
MisPlume(west)    GOM_UW_1704    2017-04-13T16:21:24Z    -92.384    27.5147   24.0427      35.887    389.3708144           2          
MisPlume(west)    GOM_UW_1704    2017-04-13T16:22:53Z    -92.3838   27.5111   24.0366      35.886    388.8465145           2          
MisPlume(west)    GOM_UW_1704    2017-04-13T16:24:20Z    -92.3837   27.5077   24.0595      35.899    388.6121991           2          
MisPlume(west)    GOM_UW_1704    2017-04-13T16:25:52Z    -92.3835   27.504    24.1144      35.93     390.4063909           2          
MisPlume(west)    GOM_UW_1704    2017-04-13T17:04:50Z    -92.3859   27.5024   24.5612      36.144    388.9011302           2          
MisPlume(west)    GOM_UW_1704    2017-04-13T17:06:19Z    -92.386    27.5025   24.5819      36.154    388.5034746           2          
MisPlume(west)    GOM_UW_1704    2017-04-13T17:07:46Z    -92.3861   27.5025   24.5993      36.164    387.964186            2          
MisPlume(west)    GOM_UW_1704    2017-04-13T17:09:17Z    -92.3861   27.5026   24.6111      36.168    388.0106289           2          
MisPlume(west)    GOM_UW_1704    2017-04-13T17:10:46Z    -92.3863   27.5026   24.6157      36.174    389.2206215           2          
MisPlume(west)    GOM_UW_1704    2017-04-13T17:12:14Z    -92.3865   27.5026   24.6197      36.179    390.9408665           2          
MisPlume(west)    GOM_UW_1704    2017-04-13T17:13:45Z    -92.3865   27.5026   24.6284      36.181    387.7879586           2          
MisPlume(west)    GOM_UW_1704    2017-04-13T17:15:13Z    -92.3867   27.5026   24.6379      36.19     388.5354715           2          
MisPlume(west)    GOM_UW_1704    2017-04-13T17:16:44Z    -92.3867   27.5026   24.6651      36.215    390.4858566           2          
MisPlume(west)    GOM_UW_1704    2017-04-13T17:18:16Z    -92.3869   27.5025   24.6782      36.228    389.4623566           2          
MisPlume(west)    GOM_UW_1704    2017-04-13T17:19:46Z    -92.387    27.5025   24.6768      36.23     388.9634185           2          
MisPlume(west)    GOM_UW_1704    2017-04-13T17:21:18Z    -92.3871   27.5024   24.6852      36.231    390.8799391           2          
MisPlume(west)    GOM_UW_1704    2017-04-13T17:22:49Z    -92.3872   27.5023   24.6691      36.228    391.0831506           2          
MisPlume(west)    GOM_UW_1704    2017-04-13T17:24:17Z    -92.3873   27.5023   24.6768      36.229    389.0530898           2          
MisPlume(west)    GOM_UW_1704    2017-04-13T17:25:45Z    -92.3874   27.5022   24.6738      36.23     389.4041266           2          
MisPlume(west)    GOM_UW_1704    2017-04-13T17:27:14Z    -92.3875   27.5021   24.6516      36.223    389.5913313           2          
MisPlume(west)    GOM_UW_1704    2017-04-13T17:28:43Z    -92.3876   27.502    24.641       36.221    390.0539139           2          
MisPlume(west)    GOM_UW_1704    2017-04-13T17:42:35Z    -92.3888   27.5012   24.6578      36.224    385.7348463           2          
MisPlume(west)    GOM_UW_1704    2017-04-13T17:44:03Z    -92.3889   27.5011   24.6622      36.226    385.6391491           2          
MisPlume(west)    GOM_UW_1704    2017-04-13T17:45:33Z    -92.3891   27.5011   24.6679      36.228    385.7526914           2          
MisPlume(west)    GOM_UW_1704    2017-04-13T17:47:04Z    -92.3893   27.501    24.6652      36.229    385.6751926           2          
MisPlume(west)    GOM_UW_1704    2017-04-13T17:48:33Z    -92.3894   27.5008   24.6687      36.229    385.7928069           2          
MisPlume(west)    GOM_UW_1704    2017-04-13T17:50:01Z    -92.3896   27.5007   24.6673      36.23     386.2344895           2          
MisPlume(west)    GOM_UW_1704    2017-04-13T17:51:30Z    -92.3898   27.5006   24.6646      36.23     385.8361445           2          
MisPlume(west)    GOM_UW_1704    2017-04-13T17:52:59Z    -92.3898   27.5005   24.6227      36.21     386.3124309           2          
MisPlume(west)    GOM_UW_1704    2017-04-13T17:54:26Z    -92.39     27.5003   24.5339      36.16     385.4391132           2          
MisPlume(west)    GOM_UW_1704    2017-04-13T17:55:58Z    -92.3901   27.5002   24.4756      36.134    385.737979            2          
MisPlume(west)    GOM_UW_1704    2017-04-13T17:57:26Z    -92.3902   27.5001   24.4451      36.117    386.3535244           2          
MisPlume(west)    GOM_UW_1704    2017-04-13T17:58:54Z    -92.3903   27.5      24.4164      36.107    387.4039067           2          
MisPlume(west)    GOM_UW_1704    2017-04-13T18:00:22Z    -92.3905   27.5      24.4056      36.098    385.8818662           2          
MisPlume(west)    GOM_UW_1704    2017-04-13T18:01:51Z    -92.3906   27.5004   24.3784      36.08     388.8897065           2          
MisPlume(west)    GOM_UW_1704    2017-04-13T18:03:19Z    -92.3912   27.5032   24.3554      36.07     385.7420524           2          
MisPlume(west)    GOM_UW_1704    2017-04-13T18:04:51Z    -92.392    27.5067   24.3455      36.066    385.3403655           2          
MisPlume(west)    GOM_UW_1704    2017-04-13T18:06:20Z    -92.3928   27.5101   24.387       36.092    387.5728054           2          
MisPlume(west)    GOM_UW_1704    2017-04-13T18:07:50Z    -92.3936   27.5136   24.5139      36.149    388.3444398           2          
MisPlume(west)    GOM_UW_1704    2017-04-13T18:09:19Z    -92.3943   27.5171   24.5377      36.15     387.7529584           2          
MisPlume(west)    GOM_UW_1704    2017-04-13T18:10:47Z    -92.3953   27.5204   24.3902      36.009    386.5895709           2          
MisPlume(west)    GOM_UW_1704    2017-04-13T18:12:15Z    -92.3964   27.5237   24.1945      35.903    387.409362            2          
MisPlume(west)    GOM_UW_1704    2017-04-13T18:13:43Z    -92.3975   27.527    24.0483      35.829    389.1071177           2          
MisPlume(west)    GOM_UW_1704    2017-04-13T18:15:12Z    -92.3985   27.5304   24.0284      35.825    389.3604128           2          
MisPlume(west)    GOM_UW_1704    2017-04-13T18:16:40Z    -92.3997   27.5337   24.0136      35.82     388.7118175           2          
MisPlume(west)    GOM_UW_1704    2017-04-13T18:18:08Z    -92.4007   27.5371   24.0596      35.835    388.0630455           2          
MisPlume(west)    GOM_UW_1704    2017-04-13T18:19:39Z    -92.4018   27.5405   24.0881      35.842    391.7201089           2          
MisPlume(west)    GOM_UW_1704    2017-04-13T18:21:08Z    -92.4029   27.5439   24.0114      35.797    390.2263879           2          
MisPlume(west)    GOM_UW_1704    2017-04-13T18:22:36Z    -92.404    27.5473   23.9864      35.791    389.8730675           2          
MisPlume(west)    GOM_UW_1704    2017-04-13T18:24:04Z    -92.4051   27.5507   24.0049      35.794    390.8423514           2          
MisPlume(west)    GOM_UW_1704    2017-04-13T18:25:34Z    -92.4062   27.5541   24.0091      35.786    389.8475176           2          
MisPlume(west)    GOM_UW_1704    2017-04-13T18:27:02Z    -92.4073   27.5574   24.0181      35.793    390.9137149           2          
MisPlume(west)    GOM_UW_1704    2017-04-13T18:28:31Z    -92.4084   27.5608   23.9865      35.748    390.7976269           2          
MisPlume(west)    GOM_UW_1704    2017-04-13T18:29:59Z    -92.4095   27.5641   23.92        35.74     391.232762            2          
MisPlume(west)    GOM_UW_1704    2017-04-13T18:31:27Z    -92.4105   27.5675   23.8953      35.732    389.6319127           2          
MisPlume(west)    GOM_UW_1704    2017-04-13T18:32:57Z    -92.4116   27.5709   23.8499      35.711    391.5287315           2          
MisPlume(west)    GOM_UW_1704    2017-04-13T18:34:26Z    -92.4126   27.5743   23.7885      35.675    388.731327            2          
MisPlume(west)    GOM_UW_1704    2017-04-13T18:35:55Z    -92.4137   27.5777   23.7271      35.647    389.9998858           2          
MisPlume(west)    GOM_UW_1704    2017-04-13T18:37:23Z    -92.4148   27.581    23.6461      35.607    391.0351971           2          
MisPlume(west)    GOM_UW_1704    2017-04-13T18:38:52Z    -92.4158   27.5845   23.6221      35.612    392.3769487           2          
MisPlume(west)    GOM_UW_1704    2017-04-13T18:40:21Z    -92.4168   27.5879   23.594       35.601    389.2205461           2          
MisPlume(west)    GOM_UW_1704    2017-04-13T18:41:50Z    -92.418    27.5912   23.5925      35.595    390.2296383           2          
MisPlume(west)    GOM_UW_1704    2017-04-13T18:43:19Z    -92.419    27.5946   23.5769      35.541    392.0100564           2          
MisPlume(west)    GOM_UW_1704    2017-04-13T18:44:48Z    -92.4201   27.598    23.5272      35.559    391.8737123           2          
MisPlume(west)    GOM_UW_1704    2017-04-13T18:46:17Z    -92.4212   27.6014   23.4678      35.575    391.282926            2          
MisPlume(west)    GOM_UW_1704    2017-04-13T18:47:45Z    -92.4222   27.6048   23.4954      35.582    389.9566572           2          
MisPlume(west)    GOM_UW_1704    2017-04-13T18:49:15Z    -92.4233   27.6083   23.5468      35.607    391.7357034           2          
MisPlume(west)    GOM_UW_1704    2017-04-13T18:50:45Z    -92.4244   27.6118   23.5626      35.628    393.933064            2          
MisPlume(west)    GOM_UW_1704    2017-04-13T18:52:13Z    -92.4255   27.6151   23.7168      35.718    390.3656281           2          
MisPlume(west)    GOM_UW_1704    2017-04-13T18:53:42Z    -92.4266   27.6186   23.8065      35.752    393.172376            2          
MisPlume(west)    GOM_UW_1704    2017-04-13T18:55:10Z    -92.4276   27.6219   23.833       35.765    393.3956112           2          
MisPlume(west)    GOM_UW_1704    2017-04-13T18:56:37Z    -92.4286   27.6252   23.8134      35.753    396.1433707           2          
MisPlume(west)    GOM_UW_1704    2017-04-13T18:58:08Z    -92.4297   27.6287   23.8436      35.753    395.0951285           2          
MisPlume(west)    GOM_UW_1704    2017-04-13T18:59:36Z    -92.4308   27.6321   23.8857      35.77     394.6328825           2          
MisPlume(west)    GOM_UW_1704    2017-04-13T19:01:04Z    -92.4319   27.6355   23.8948      35.761    394.4316732           2          
MisPlume(west)    GOM_UW_1704    2017-04-13T19:02:34Z    -92.433    27.639    23.8715      35.735    407.6821842           2          
MisPlume(west)    GOM_UW_1704    2017-04-13T19:04:04Z    -92.434    27.6424   23.8708      35.735    394.6087301           2          
MisPlume(west)    GOM_UW_1704    2017-04-13T19:05:34Z    -92.4351   27.6459   23.912       35.766    395.7980802           2          
MisPlume(west)    GOM_UW_1704    2017-04-13T19:07:01Z    -92.4361   27.6492   23.9652      35.784    395.5623549           2          
MisPlume(west)    GOM_UW_1704    2017-04-13T19:08:30Z    -92.4372   27.6526   23.9675      35.783    398.6314745           2          
MisPlume(west)    GOM_UW_1704    2017-04-13T19:09:58Z    -92.4383   27.656    23.903       35.743    396.2175789           2          
MisPlume(west)    GOM_UW_1704    2017-04-13T19:11:27Z    -92.4394   27.6594   23.8567      35.721    400.9406977           2          
MisPlume(west)    GOM_UW_1704    2017-04-13T19:12:55Z    -92.4404   27.6628   23.8329      35.713    401.3335944           2          
MisPlume(west)    GOM_UW_1704    2017-04-13T19:14:26Z    -92.4415   27.6663   23.814       35.686    405.5478105           2          
MisPlume(west)    GOM_UW_1704    2017-04-13T19:15:54Z    -92.4426   27.6697   23.8238      35.696    403.0340589           2          
MisPlume(west)    GOM_UW_1704    2017-04-13T19:17:22Z    -92.4436   27.6731   23.8277      35.648    404.4634188           2          
MisPlume(west)    GOM_UW_1704    2017-04-13T19:18:50Z    -92.4447   27.6765   23.8293      35.695    402.3305374           2          
MisPlume(west)    GOM_UW_1704    2017-04-13T19:20:20Z    -92.4458   27.68     23.8292      35.692    398.6048343           2          
MisPlume(west)    GOM_UW_1704    2017-04-13T19:21:50Z    -92.4469   27.6834   23.8497      35.698    401.5379169           2          
MisPlume(west)    GOM_UW_1704    2017-04-13T19:23:18Z    -92.4479   27.6868   23.8647      35.707    399.7242841           2          
MisPlume(west)    GOM_UW_1704    2017-04-13T19:24:47Z    -92.449    27.6902   23.8711      35.71     401.373023            2          
MisPlume(west)    GOM_UW_1704    2017-04-13T19:26:15Z    -92.4501   27.6937   23.8372      35.691    406.0137091           2          
MisPlume(west)    GOM_UW_1704    2017-04-13T19:27:44Z    -92.4511   27.6971   23.8186      35.664    401.6858722           2          
MisPlume(west)    GOM_UW_1704    2017-04-13T19:29:15Z    -92.4523   27.7006   23.8119      35.644    404.0591621           2          
MisPlume(west)    GOM_UW_1704    2017-04-13T19:30:43Z    -92.4534   27.704    23.8082      35.63     407.0374972           2          
MisPlume(west)    GOM_UW_1704    2017-04-13T19:32:12Z    -92.4544   27.7074   23.8063      35.62     405.7092384           2          
MisPlume(west)    GOM_UW_1704    2017-04-13T19:33:40Z    -92.4555   27.7108   23.8044      35.61     399.7478435           2          
MisPlume(west)    GOM_UW_1704    2017-04-13T19:35:08Z    -92.4566   27.7142   23.8104      35.614    403.2656426           2          
MisPlume(west)    GOM_UW_1704    2017-04-13T19:36:36Z    -92.4576   27.7176   23.8048      35.606    400.9179137           2          
MisPlume(west)    GOM_UW_1704    2017-04-13T19:38:05Z    -92.4587   27.721    23.797       35.597    400.2683701           2          
MisPlume(west)    GOM_UW_1704    2017-04-13T19:39:32Z    -92.4598   27.7244   23.778       35.592    402.0514882           2          
MisPlume(west)    GOM_UW_1704    2017-04-13T19:41:02Z    -92.4609   27.7278   23.7642      35.599    399.6248711           2          
MisPlume(west)    GOM_UW_1704    2017-04-13T19:42:30Z    -92.4619   27.7312   23.7682      35.636    401.6327224           2          
MisPlume(west)    GOM_UW_1704    2017-04-13T19:43:59Z    -92.463    27.7347   23.7898      35.671    400.1600101           2          
MisPlume(west)    GOM_UW_1704    2017-04-13T19:45:27Z    -92.4641   27.738    23.8084      35.676    402.1214178           2          
MisPlume(west)    GOM_UW_1704    2017-04-13T19:46:56Z    -92.4652   27.7415   23.8264      35.686    401.0667727           2          
MisPlume(west)    GOM_UW_1704    2017-04-13T19:48:25Z    -92.4662   27.7448   23.8456      35.687    405.8654864           2          
MisPlume(west)    GOM_UW_1704    2017-04-13T19:49:53Z    -92.4673   27.7482   23.8582      35.686    403.2023175           2          
MisPlume(west)    GOM_UW_1704    2017-04-13T19:51:21Z    -92.4683   27.7516   23.8618      35.681    405.3387365           2          
MisPlume(west)    GOM_UW_1704    2017-04-13T19:52:48Z    -92.4694   27.755    23.8641      35.685    404.1223584           2          
MisPlume(west)    GOM_UW_1704    2017-04-13T19:54:17Z    -92.4704   27.7584   23.861       35.678    405.2352877           2          
MisPlume(west)    GOM_UW_1704    2017-04-13T19:55:46Z    -92.4715   27.7619   23.8607      35.68     403.2965594           2          
MisPlume(west)    GOM_UW_1704    2017-04-13T19:57:14Z    -92.4726   27.7652   23.8639      35.687    403.066143            2          
MisPlume(west)    GOM_UW_1704    2017-04-13T19:58:43Z    -92.4736   27.7686   23.8679      35.685    407.8155377           2          
MisPlume(west)    GOM_UW_1704    2017-04-13T20:00:11Z    -92.4747   27.7721   23.8714      35.688    406.2866417           2          
MisPlume(west)    GOM_UW_1704    2017-04-13T20:01:39Z    -92.4758   27.7755   23.8799      35.687    409.7063889           2          
MisPlume(west)    GOM_UW_1704    2017-04-13T20:03:07Z    -92.4769   27.7789   23.8822      35.687    406.011136            2          
MisPlume(west)    GOM_UW_1704    2017-04-13T20:04:36Z    -92.478    27.7823   23.8804      35.689    404.4068948           2          
MisPlume(west)    GOM_UW_1704    2017-04-13T20:06:04Z    -92.479    27.7858   23.8774      35.622    404.2558503           2          
MisPlume(west)    GOM_UW_1704    2017-04-13T20:07:32Z    -92.4801   27.7891   23.8772      35.688    405.0786812           2          
MisPlume(west)    GOM_UW_1704    2017-04-13T20:09:01Z    -92.4812   27.7926   23.8785      35.696    406.5793272           2          
MisPlume(west)    GOM_UW_1704    2017-04-13T20:10:32Z    -92.4823   27.7962   23.8794      35.703    404.7666821           2          
MisPlume(west)    GOM_UW_1704    2017-04-13T20:12:00Z    -92.4834   27.7996   23.8772      35.706    408.5887543           2          
MisPlume(west)    GOM_UW_1704    2017-04-13T20:13:28Z    -92.4844   27.803    23.8712      35.705    404.3419726           2          
MisPlume(west)    GOM_UW_1704    2017-04-13T20:14:56Z    -92.4855   27.8065   23.8649      35.702    404.0341029           2          
MisPlume(west)    GOM_UW_1704    2017-04-13T20:16:25Z    -92.4867   27.81     23.8678      35.701    407.0368506           2          
MisPlume(west)    GOM_UW_1704    2017-04-13T20:17:55Z    -92.4878   27.8136   23.8754      35.702    406.7957612           2          
MisPlume(west)    GOM_UW_1704    2017-04-13T20:19:23Z    -92.4888   27.817    23.8804      35.706    404.9277508           2          
MisPlume(west)    GOM_UW_1704    2017-04-13T20:20:50Z    -92.4899   27.8204   23.8789      35.7      401.3091137           2          
MisPlume(west)    GOM_UW_1704    2017-04-13T20:22:19Z    -92.491    27.824    23.8835      35.696    399.0411702           2          
MisPlume(west)    GOM_UW_1704    2017-04-13T20:23:48Z    -92.4922   27.8275   23.8933      35.694    401.6685912           2          
MisPlume(west)    GOM_UW_1704    2017-04-13T20:25:16Z    -92.4932   27.831    23.8955      35.707    403.0411846           2          
MisPlume(west)    GOM_UW_1704    2017-04-13T20:26:45Z    -92.4943   27.8345   23.898       35.712    405.568016            2          
MisPlume(west)    GOM_UW_1704    2017-04-13T20:28:13Z    -92.4955   27.838    23.8998      35.715    403.2033609           2          
MisPlume(west)    GOM_UW_1704    2017-04-13T20:29:42Z    -92.4965   27.8415   23.9057      35.718    402.6729416           2          
MisPlume(west)    GOM_UW_1704    2017-04-13T20:31:11Z    -92.4977   27.845    23.916       35.718    401.9830622           2          
MisPlume(west)    GOM_UW_1704    2017-04-13T20:32:38Z    -92.4987   27.8484   23.9235      35.715    401.6759118           2          
MisPlume(west)    GOM_UW_1704    2017-04-13T20:34:06Z    -92.4998   27.8519   23.9253      35.72     402.71746             2          
MisPlume(west)    GOM_UW_1704    2017-04-13T20:35:34Z    -92.5009   27.8554   23.9318      35.717    402.9086297           2          
MisPlume(west)    GOM_UW_1704    2017-04-13T20:37:02Z    -92.502    27.859    23.9275      35.726    400.6013718           2          
MisPlume(west)    GOM_UW_1704    2017-04-13T20:38:33Z    -92.5032   27.8626   23.923       35.725    400.0799366           2          
MisPlume(west)    GOM_UW_1704    2017-04-13T20:51:10Z    -92.5127   27.8927   23.9008      35.77     393.0583341           2          
MisPlume(west)    GOM_UW_1704    2017-04-13T20:52:39Z    -92.5138   27.8962   23.8911      35.772    393.2782817           2          
MisPlume(west)    GOM_UW_1704    2017-04-13T20:54:06Z    -92.5148   27.8996   23.8964      35.764    390.9875199           2          
MisPlume(west)    GOM_UW_1704    2017-04-13T20:55:34Z    -92.5159   27.903    23.9026      35.762    390.9585906           2          
MisPlume(west)    GOM_UW_1704    2017-04-13T20:57:04Z    -92.517    27.9065   23.8813      35.716    389.8282436           2          
MisPlume(west)    GOM_UW_1704    2017-04-13T20:58:32Z    -92.5181   27.91     23.8577      35.678    389.4716434           2          
MisPlume(west)    GOM_UW_1704    2017-04-13T21:00:00Z    -92.5192   27.9134   23.8075      35.633    389.6399219           2          
MisPlume(west)    GOM_UW_1704    2017-04-13T21:01:28Z    -92.5203   27.9169   23.7309      35.581    389.4992052           2          
MisPlume(west)    GOM_UW_1704    2017-04-13T21:02:58Z    -92.5214   27.9204   23.7733      35.585    389.9756906           2          
MisPlume(west)    GOM_UW_1704    2017-04-13T21:04:26Z    -92.5225   27.9238   23.8701      35.628    390.1528223           2          
MisPlume(west)    GOM_UW_1704    2017-04-13T21:05:55Z    -92.5236   27.9273   23.8658      35.627    390.410491            2          
MisPlume(west)    GOM_UW_1704    2017-04-13T21:07:23Z    -92.5246   27.9307   23.8252      35.61     390.5534734           2          
MisPlume(west)    GOM_UW_1704    2017-04-13T21:08:53Z    -92.5257   27.9342   23.7996      35.587    391.0594207           2          
MisPlume(west)    GOM_UW_1704    2017-04-13T21:10:22Z    -92.5268   27.9377   23.7967      35.585    387.34303             2          
MisPlume(west)    GOM_UW_1704    2017-04-13T21:11:54Z    -92.5279   27.9412   23.8038      35.591    388.1434035           2          
MisPlume(west)    GOM_UW_1704    2017-04-13T21:13:25Z    -92.529    27.9447   23.8119      35.598    388.4786734           2          
MisPlume(west)    GOM_UW_1704    2017-04-13T21:14:52Z    -92.5301   27.9481   23.8245      35.594    388.6754047           2          
MisPlume(west)    GOM_UW_1704    2017-04-13T21:16:21Z    -92.5312   27.9515   23.8294      35.588    388.5784511           2          
MisPlume(west)    GOM_UW_1704    2017-04-13T21:17:50Z    -92.5323   27.955    23.8372      35.587    388.2218651           2          
MisPlume(west)    GOM_UW_1704    2017-04-13T21:19:19Z    -92.5333   27.9584   23.8461      35.578    387.5098577           2          
MisPlume(west)    GOM_UW_1704    2017-04-13T21:20:46Z    -92.5344   27.9619   23.843       35.587    388.770931            2          
MisPlume(west)    GOM_UW_1704    2017-04-13T21:22:15Z    -92.5355   27.9654   23.8447      35.585    388.4511319           2          
MisPlume(west)    GOM_UW_1704    2017-04-13T21:23:44Z    -92.5367   27.9689   23.8455      35.58     388.6393413           2          
MisPlume(west)    GOM_UW_1704    2017-04-13T21:25:12Z    -92.5378   27.9724   23.8549      35.582    388.6648796           2          
MisPlume(west)    GOM_UW_1704    2017-04-13T21:26:40Z    -92.5388   27.9759   23.8614      35.578    389.2208364           2          
MisPlume(west)    GOM_UW_1704    2017-04-13T21:28:08Z    -92.5399   27.9794   23.863       35.57     389.3952249           2          
MisPlume(west)    GOM_UW_1704    2017-04-13T21:29:39Z    -92.5411   27.9831   23.8661      35.58     388.5195261           2          
MisPlume(west)    GOM_UW_1704    2017-04-13T21:31:08Z    -92.5422   27.9866   23.868       35.557    389.7488235           2          
MisPlume(west)    GOM_UW_1704    2017-04-13T21:32:35Z    -92.5433   27.9901   23.8591      35.575    388.4965036           2          
MisPlume(west)    GOM_UW_1704    2017-04-13T21:34:06Z    -92.5444   27.9937   23.8681      35.584    388.2917179           2          
MisPlume(west)    GOM_UW_1704    2017-04-13T21:35:34Z    -92.5456   27.9972   23.8609      35.586    390.0382703           2          
MisPlume(west)    GOM_UW_1704    2017-04-13T21:37:02Z    -92.5466   28.0007   23.8748      35.583    389.6697321           2          
MisPlume(west)    GOM_UW_1704    2017-04-13T21:38:33Z    -92.5478   28.0044   23.8722      35.577    388.7831284           2          
MisPlume(west)    GOM_UW_1704    2017-04-13T21:40:03Z    -92.549    28.008    23.8797      35.497    388.1628147           2          
MisPlume(west)    GOM_UW_1704    2017-04-13T21:41:32Z    -92.5501   28.0116   23.8837      35.575    387.9089744           2          
MisPlume(west)    GOM_UW_1704    2017-04-13T21:43:00Z    -92.5512   28.0151   23.8861      35.578    388.3827532           2          
MisPlume(west)    GOM_UW_1704    2017-04-13T21:44:28Z    -92.5523   28.0187   23.8862      35.563    387.6035519           2          
MisPlume(west)    GOM_UW_1704    2017-04-13T21:45:56Z    -92.5534   28.0222   23.8895      35.577    388.1529772           2          
MisPlume(west)    GOM_UW_1704    2017-04-13T21:47:24Z    -92.5546   28.0258   23.8899      35.58     387.7649484           2          
MisPlume(west)    GOM_UW_1704    2017-04-13T21:48:52Z    -92.5557   28.0294   23.8841      35.577    388.670738            2          
MisPlume(west)    GOM_UW_1704    2017-04-13T21:50:20Z    -92.5568   28.0329   23.885       35.578    386.8197168           2          
MisPlume(west)    GOM_UW_1704    2017-04-13T21:51:48Z    -92.558    28.0365   23.889       35.581    388.2747354           2          
MisPlume(west)    GOM_UW_1704    2017-04-13T21:53:19Z    -92.5591   28.0402   23.8901      35.54     389.0679381           2          
MisPlume(west)    GOM_UW_1704    2017-04-13T21:54:51Z    -92.5603   28.0439   23.8933      35.578    387.9970252           2          
MisPlume(west)    GOM_UW_1704    2017-04-13T21:56:19Z    -92.5614   28.0475   23.899       35.577    388.7132573           2          
MisPlume(west)    GOM_UW_1704    2017-04-13T21:57:46Z    -92.5625   28.0511   23.902       35.585    388.7143857           2          
MisPlume(west)    GOM_UW_1704    2017-04-13T21:59:15Z    -92.5637   28.0547   23.9066      35.58     387.2045035           2          
MisPlume(west)    GOM_UW_1704    2017-04-13T22:00:44Z    -92.5648   28.0583   23.9115      35.571    387.1838671           2          
MisPlume(west)    GOM_UW_1704    2017-04-13T22:02:12Z    -92.566    28.0619   23.9179      35.587    388.5280261           2          
MisPlume(west)    GOM_UW_1704    2017-04-13T22:03:40Z    -92.5671   28.0655   23.9211      35.597    388.4981228           2          
MisPlume(west)    GOM_UW_1704    2017-04-13T22:05:08Z    -92.5682   28.0691   23.9269      35.6      388.5032904           2          
MisPlume(west)    GOM_UW_1704    2017-04-13T22:06:36Z    -92.5694   28.0726   23.9343      35.599    389.1197896           2          
MisPlume(west)    GOM_UW_1704    2017-04-13T22:08:05Z    -92.5705   28.0763   23.9462      35.605    389.4799495           2          
MisPlume(west)    GOM_UW_1704    2017-04-13T22:09:35Z    -92.5717   28.08     23.9534      35.61     389.6235461           2          
MisPlume(west)    GOM_UW_1704    2017-04-13T22:11:03Z    -92.5728   28.0836   23.9551      35.603    390.9374563           2          
MisPlume(west)    GOM_UW_1704    2017-04-13T22:12:31Z    -92.5739   28.0871   23.9607      35.615    388.1799282           2          
MisPlume(west)    GOM_UW_1704    2017-04-13T22:14:00Z    -92.5751   28.0908   23.9698      35.617    388.9137133           2          
MisPlume(west)    GOM_UW_1704    2017-04-13T22:15:28Z    -92.5762   28.0944   23.983       35.629    389.8116394           2          
MisPlume(west)    GOM_UW_1704    2017-04-13T22:16:58Z    -92.5774   28.0981   23.9904      35.637    389.5875432           2          
MisPlume(west)    GOM_UW_1704    2017-04-13T22:18:28Z    -92.5785   28.1018   23.9677      35.64     389.1695641           2          
MisPlume(west)    GOM_UW_1704    2017-04-13T22:19:57Z    -92.5797   28.1053   23.958       35.633    387.8273993           2          
MisPlume(west)    GOM_UW_1704    2017-04-13T22:21:26Z    -92.5808   28.1089   23.9582      35.632    388.1906345           2          
MisPlume(west)    GOM_UW_1704    2017-04-13T22:22:54Z    -92.5819   28.1124   23.9698      35.639    389.4118237           2          
MisPlume(west)    GOM_UW_1704    2017-04-13T22:24:22Z    -92.583    28.116    23.9661      35.668    387.6947554           2          
MisPlume(west)    GOM_UW_1704    2017-04-13T22:25:52Z    -92.5841   28.1196   23.9725      35.676    387.9628888           2          
MisPlume(west)    GOM_UW_1704    2017-04-13T22:27:21Z    -92.5853   28.1232   23.978       35.684    387.9615341           2          
MisPlume(west)    GOM_UW_1704    2017-04-13T22:28:50Z    -92.5864   28.1268   23.9946      35.69     386.8841555           2          
MisPlume(west)    GOM_UW_1704    2017-04-13T22:30:18Z    -92.5875   28.1303   24.0108      35.691    388.1720227           2          
MisPlume(west)    GOM_UW_1704    2017-04-13T22:31:46Z    -92.5886   28.1339   24.0236      35.699    390.0391078           2          
MisPlume(west)    GOM_UW_1704    2017-04-13T22:33:14Z    -92.5898   28.1374   24.0351      35.711    388.6319721           2          
MisPlume(west)    GOM_UW_1704    2017-04-13T22:34:45Z    -92.5909   28.141    24.0364      35.726    387.5327283           2          
MisPlume(west)    GOM_UW_1704    2017-04-13T22:36:14Z    -92.592    28.1445   24.0446      35.735    389.2691972           2          
MisPlume(west)    GOM_UW_1704    2017-04-13T22:37:42Z    -92.5931   28.148    24.0518      35.744    389.0732632           2          
MisPlume(west)    GOM_UW_1704    2017-04-13T22:39:11Z    -92.5942   28.1515   24.0674      35.745    389.6574969           2          
MisPlume(west)    GOM_UW_1704    2017-04-13T22:40:38Z    -92.5953   28.155    24.0413      35.754    390.0616598           2          
MisPlume(west)    GOM_UW_1704    2017-04-13T22:42:07Z    -92.5964   28.1585   24.0165      35.76     389.8043226           2          
MisPlume(west)    GOM_UW_1704    2017-04-13T22:43:37Z    -92.5975   28.162    24.0147      35.756    388.0651719           2          
MisPlume(west)    GOM_UW_1704    2017-04-13T22:45:07Z    -92.5987   28.1656   24.0324      35.749    390.1405395           2          
MisPlume(west)    GOM_UW_1704    2017-04-13T22:46:34Z    -92.5997   28.1691   24.021       35.75     387.6299093           2          
MisPlume(west)    GOM_UW_1704    2017-04-13T22:48:04Z    -92.6008   28.1727   24.0078      35.754    388.5930385           2          
MisPlume(west)    GOM_UW_1704    2017-04-13T22:49:33Z    -92.602    28.1762   23.9835      35.762    388.2029279           2          
MisPlume(west)    GOM_UW_1704    2017-04-13T22:51:01Z    -92.6031   28.1797   23.9719      35.768    390.6100778           2          
MisPlume(west)    GOM_UW_1704    2017-04-13T22:52:30Z    -92.6042   28.1832   23.9685      35.771    390.1037003           2          
MisPlume(west)    GOM_UW_1704    2017-04-13T22:53:57Z    -92.6053   28.1867   23.9691      35.779    389.1418865           2          
MisPlume(west)    GOM_UW_1704    2017-04-13T22:55:25Z    -92.6064   28.1902   23.9327      35.784    387.8821608           2          
MisPlume(west)    GOM_UW_1704    2017-04-13T22:56:53Z    -92.6075   28.1936   23.9421      35.795    389.5650225           2          
MisPlume(west)    GOM_UW_1704    2017-04-13T22:58:24Z    -92.6087   28.1973   23.9319      35.802    389.5812112           2          
MisPlume(west)    GOM_UW_1704    2017-04-13T22:59:53Z    -92.6098   28.2008   23.9018      35.809    389.0941247           2          
MisPlume(west)    GOM_UW_1704    2017-04-13T23:01:20Z    -92.6109   28.2043   23.8983      35.809    390.8131222           2          
MisPlume(west)    GOM_UW_1704    2017-04-13T23:02:48Z    -92.6119   28.2078   23.8205      35.813    393.3392679           2          
MisPlume(west)    GOM_UW_1704    2017-04-13T23:04:17Z    -92.6131   28.2113   23.7869      35.817    394.4170113           2          
MisPlume(west)    GOM_UW_1704    2017-04-13T23:05:44Z    -92.6142   28.2147   23.7691      35.817    391.1931195           2          
MisPlume(west)    GOM_UW_1704    2017-04-13T23:07:13Z    -92.6153   28.2183   23.7584      35.818    389.5433108           2          
MisPlume(west)    GOM_UW_1704    2017-04-13T23:08:41Z    -92.6164   28.2217   23.7599      35.813    392.7144742           2          
MisPlume(west)    GOM_UW_1704    2017-04-13T23:10:10Z    -92.6175   28.2253   23.7345      35.82     390.7028522           2          
MisPlume(west)    GOM_UW_1704    2017-04-13T23:11:38Z    -92.6186   28.2288   23.7225      35.827    396.1735712           2          
MisPlume(west)    GOM_UW_1704    2017-04-13T23:13:09Z    -92.6198   28.2324   23.7221      35.827    391.1823697           2          
MisPlume(west)    GOM_UW_1704    2017-04-13T23:14:36Z    -92.6208   28.2359   23.6941      35.826    391.6325423           2          
MisPlume(west)    GOM_UW_1704    2017-04-13T23:16:04Z    -92.622    28.2394   23.6869      35.822    393.2195451           2          
MisPlume(west)    GOM_UW_1704    2017-04-13T23:17:33Z    -92.6231   28.2429   23.6791      35.82     394.6510602           2          
MisPlume(west)    GOM_UW_1704    2017-04-13T23:19:01Z    -92.6242   28.2465   23.6805      35.824    394.0882262           2          
MisPlume(west)    GOM_UW_1704    2017-04-13T23:20:29Z    -92.6253   28.25     23.6779      35.819    392.4079725           2          
MisPlume(west)    GOM_UW_1704    2017-04-13T23:21:58Z    -92.6265   28.2536   23.6657      35.817    393.3746141           2          
MisPlume(west)    GOM_UW_1704    2017-04-13T23:23:29Z    -92.6276   28.2572   23.6486      35.822    394.8096606           2          
MisPlume(west)    GOM_UW_1704    2017-04-13T23:24:58Z    -92.6287   28.2608   23.6294      35.823    395.4939518           2          
MisPlume(west)    GOM_UW_1704    2017-04-13T23:26:26Z    -92.6298   28.2642   23.6125      35.823    395.2761383           2          
MisPlume(west)    GOM_UW_1704    2017-04-13T23:27:56Z    -92.631    28.2678   23.6102      35.831    394.1604757           2          
MisPlume(west)    GOM_UW_1704    2017-04-13T23:29:25Z    -92.6321   28.2714   23.6062      35.832    395.6996034           2          
MisPlume(west)    GOM_UW_1704    2017-04-13T23:30:54Z    -92.6332   28.2749   23.5971      35.828    393.9187262           2          
MisPlume(west)    GOM_UW_1704    2017-04-13T23:32:24Z    -92.6343   28.2784   23.5866      35.814    395.1754355           2          
MisPlume(west)    GOM_UW_1704    2017-04-13T23:33:55Z    -92.6355   28.2821   23.5886      35.832    393.5878085           2          
MisPlume(west)    GOM_UW_1704    2017-04-13T23:35:26Z    -92.6366   28.2857   23.5736      35.833    398.127638            2          
MisPlume(west)    GOM_UW_1704    2017-04-13T23:36:55Z    -92.6377   28.2892   23.5693      35.835    399.1093233           2          
MisPlume(west)    GOM_UW_1704    2017-04-13T23:38:25Z    -92.6389   28.2928   23.5678      35.824    394.0701459           2          
MisPlume(west)    GOM_UW_1704    2017-04-13T23:39:54Z    -92.64     28.2964   23.5689      35.838    394.8463233           2          
MisPlume(west)    GOM_UW_1704    2017-04-13T23:41:22Z    -92.6411   28.2999   23.5741      35.84     402.8994835           2          
MisPlume(west)    GOM_UW_1704    2017-04-13T23:42:51Z    -92.6422   28.3035   23.5712      35.845    397.5258753           2          
MisPlume(west)    GOM_UW_1704    2017-04-13T23:44:20Z    -92.6433   28.307    23.5627      35.844    399.1591646           2          
MisPlume(west)    GOM_UW_1704    2017-04-13T23:45:48Z    -92.6445   28.3105   23.5529      35.851    395.7430189           2          
MisPlume(west)    GOM_UW_1704    2017-04-13T23:47:20Z    -92.6456   28.3142   23.5547      35.835    396.2284454           2          
MisPlume(west)    GOM_UW_1704    2017-04-13T23:59:56Z    -92.6551   28.3444   23.5291      35.891    399.9083369           2          
MisPlume(west)    GOM_UW_1704    2017-04-14T00:01:24Z    -92.6563   28.3479   23.5195      35.915    398.6458413           2          
MisPlume(west)    GOM_UW_1704    2017-04-14T00:02:53Z    -92.6574   28.3515   23.5105      35.921    399.0656077           2          
MisPlume(west)    GOM_UW_1704    2017-04-14T00:04:25Z    -92.6586   28.3552   23.4908      35.93     400.6208804           2          
MisPlume(west)    GOM_UW_1704    2017-04-14T00:05:52Z    -92.6597   28.3588   23.4544      35.947    401.6435546           2          
MisPlume(west)    GOM_UW_1704    2017-04-14T00:07:21Z    -92.6608   28.3624   23.4512      35.955    401.6236071           2          
MisPlume(west)    GOM_UW_1704    2017-04-14T00:08:49Z    -92.6619   28.3659   23.4387      35.971    400.2984193           2          
MisPlume(west)    GOM_UW_1704    2017-04-14T00:10:18Z    -92.6631   28.3694   23.4314      35.976    399.1364173           2          
MisPlume(west)    GOM_UW_1704    2017-04-14T00:11:46Z    -92.6642   28.373    23.4352      35.975    404.2940637           2          
MisPlume(west)    GOM_UW_1704    2017-04-14T00:13:16Z    -92.6654   28.3767   23.4208      35.982    402.5316908           2          
MisPlume(west)    GOM_UW_1704    2017-04-14T00:14:45Z    -92.6665   28.3803   23.3979      35.995    401.2921314           2          
MisPlume(west)    GOM_UW_1704    2017-04-14T00:16:13Z    -92.6676   28.3838   23.3759      36.009    403.5148625           2          
MisPlume(west)    GOM_UW_1704    2017-04-14T00:17:43Z    -92.6688   28.3875   23.3763      36.013    403.6890917           2          
MisPlume(west)    GOM_UW_1704    2017-04-14T00:19:13Z    -92.6699   28.3911   23.3528      36.034    401.8072302           2          
MisPlume(west)    GOM_UW_1704    2017-04-14T00:20:44Z    -92.6711   28.3948   23.3358      36.049    403.8068213           2          
MisPlume(west)    GOM_UW_1704    2017-04-14T00:22:15Z    -92.6723   28.3985   23.3496      36.057    402.9697212           2          
MisPlume(west)    GOM_UW_1704    2017-04-14T00:23:46Z    -92.6734   28.4021   23.3127      36.084    402.9749926           2          
MisPlume(west)    GOM_UW_1704    2017-04-14T00:25:18Z    -92.6746   28.4059   23.2767      36.093    400.6326172           2          
MisPlume(west)    GOM_UW_1704    2017-04-14T00:26:45Z    -92.6757   28.4094   23.3055      36.093    402.4555661           2          
MisPlume(west)    GOM_UW_1704    2017-04-14T00:28:16Z    -92.6769   28.4131   23.2031      36.082    404.4147553           2          
MisPlume(west)    GOM_UW_1704    2017-04-14T00:29:45Z    -92.678    28.4167   23.1449      36.09     402.5109495           2          
MisPlume(west)    GOM_UW_1704    2017-04-14T00:31:16Z    -92.6791   28.4203   23.1349      36.095    400.8091701           2          
MisPlume(west)    GOM_UW_1704    2017-04-14T00:32:44Z    -92.6803   28.4238   23.1194      36.088    397.9935458           2          
MisPlume(west)    GOM_UW_1704    2017-04-14T00:34:15Z    -92.6814   28.4275   23.1266      36.091    399.2016217           2          
MisPlume(west)    GOM_UW_1704    2017-04-14T00:35:44Z    -92.6826   28.4311   23.1404      36.089    401.2045719           2          
MisPlume(west)    GOM_UW_1704    2017-04-14T00:37:15Z    -92.6837   28.4347   23.1002      36.089    401.8645612           2          
MisPlume(west)    GOM_UW_1704    2017-04-14T00:38:45Z    -92.6848   28.4383   23.1118      36.088    400.7229839           2          
MisPlume(west)    GOM_UW_1704    2017-04-14T00:40:16Z    -92.686    28.4419   23.1203      36.086    399.3601944           2          
MisPlume(west)    GOM_UW_1704    2017-04-14T00:41:44Z    -92.6871   28.4455   23.1209      36.084    396.7051001           2          
MisPlume(west)    GOM_UW_1704    2017-04-14T00:43:15Z    -92.6883   28.4491   23.1113      36.081    397.7702128           2          
MisPlume(west)    GOM_UW_1704    2017-04-14T00:44:44Z    -92.6893   28.4526   23.1174      36.081    398.3807701           2          
MisPlume(west)    GOM_UW_1704    2017-04-14T00:46:13Z    -92.6905   28.4562   23.132       36.081    397.1289219           2          
MisPlume(west)    GOM_UW_1704    2017-04-14T00:47:43Z    -92.6917   28.4599   23.1421      36.078    397.1234099           2          
MisPlume(west)    GOM_UW_1704    2017-04-14T00:49:14Z    -92.6928   28.4635   23.1528      36.072    394.7175113           2          
MisPlume(west)    GOM_UW_1704    2017-04-14T00:50:42Z    -92.694    28.4671   23.1534      36.064    400.7224204           2          
MisPlume(west)    GOM_UW_1704    2017-04-14T00:52:10Z    -92.6951   28.4706   23.1618      36.069    401.0655337           2          
MisPlume(west)    GOM_UW_1704    2017-04-14T00:53:39Z    -92.6962   28.4742   23.1694      36.065    400.2297943           2          
MisPlume(west)    GOM_UW_1704    2017-04-14T00:55:10Z    -92.6974   28.4779   23.179       36.062    399.7449049           2          
MisPlume(west)    GOM_UW_1704    2017-04-14T00:56:39Z    -92.6985   28.4815   23.1928      36.059    401.0184572           2          
MisPlume(west)    GOM_UW_1704    2017-04-14T00:58:07Z    -92.6996   28.4851   23.1829      36.065    403.2266931           2          
MisPlume(west)    GOM_UW_1704    2017-04-14T00:59:36Z    -92.7008   28.4887   23.1797      36.06     406.4883582           2          
MisPlume(west)    GOM_UW_1704    2017-04-14T01:01:04Z    -92.7019   28.4922   23.1542      36.062    403.3193896           2          
MisPlume(west)    GOM_UW_1704    2017-04-14T01:02:35Z    -92.7031   28.4959   23.1806      36.068    401.3201741           2          
MisPlume(west)    GOM_UW_1704    2017-04-14T01:04:04Z    -92.7042   28.4995   23.2077      36.068    401.0956539           2          
MisPlume(west)    GOM_UW_1704    2017-04-14T01:05:35Z    -92.7054   28.5032   23.2172      36.072    403.8953078           2          
MisPlume(west)    GOM_UW_1704    2017-04-14T01:07:06Z    -92.7066   28.5068   23.2111      36.069    405.0394              2          
MisPlume(west)    GOM_UW_1704    2017-04-14T01:08:33Z    -92.7076   28.5103   23.2373      36.067    402.4557973           2          
MisPlume(west)    GOM_UW_1704    2017-04-14T01:10:04Z    -92.7088   28.514    23.2421      36.071    402.475294            2          
MisPlume(west)    GOM_UW_1704    2017-04-14T01:11:35Z    -92.71     28.5176   23.2458      36.073    403.3846797           2          
MisPlume(west)    GOM_UW_1704    2017-04-14T01:13:06Z    -92.7111   28.5213   23.2544      36.07     398.6196734           2          
MisPlume(west)    GOM_UW_1704    2017-04-14T01:14:34Z    -92.7122   28.5249   23.2659      36.076    399.8201862           2          
MisPlume(west)    GOM_UW_1704    2017-04-14T01:16:03Z    -92.7134   28.5285   23.2874      36.072    403.7768208           2          
MisPlume(west)    GOM_UW_1704    2017-04-14T01:17:31Z    -92.7146   28.5321   23.2773      36.082    401.8989799           2          
MisPlume(west)    GOM_UW_1704    2017-04-14T01:19:00Z    -92.7157   28.5357   23.2711      36.083    402.7910563           2          
MisPlume(west)    GOM_UW_1704    2017-04-14T01:20:30Z    -92.7168   28.5394   23.2621      36.084    407.4726762           2          
MisPlume(west)    GOM_UW_1704    2017-04-14T01:21:58Z    -92.718    28.5429   23.2474      36.083    409.5350052           2          
MisPlume(west)    GOM_UW_1704    2017-04-14T01:23:28Z    -92.7191   28.5465   23.248       36.082    409.3296375           2          
MisPlume(west)    GOM_UW_1704    2017-04-14T01:24:58Z    -92.7202   28.5501   23.2522      36.08     404.6317897           2          
MisPlume(west)    GOM_UW_1704    2017-04-14T01:26:27Z    -92.7214   28.5537   23.2355      36.082    402.0898923           2          
MisPlume(west)    GOM_UW_1704    2017-04-14T01:27:56Z    -92.7225   28.5573   23.2331      36.083    403.0766225           2          
MisPlume(west)    GOM_UW_1704    2017-04-14T01:29:24Z    -92.7236   28.5608   23.2285      36.081    402.3711843           2          
MisPlume(west)    GOM_UW_1704    2017-04-14T01:30:51Z    -92.7248   28.5642   23.2243      36.079    404.5013869           2          
MisPlume(west)    GOM_UW_1704    2017-04-14T01:32:20Z    -92.7259   28.5678   23.2192      36.078    408.3090731           2          
MisPlume(west)    GOM_UW_1704    2017-04-14T01:33:48Z    -92.727    28.5713   23.1945      36.075    404.6672136           2          
MisPlume(west)    GOM_UW_1704    2017-04-14T01:35:17Z    -92.7282   28.5748   23.1843      36.05     407.2078151           2          
MisPlume(west)    GOM_UW_1704    2017-04-14T01:36:47Z    -92.7293   28.5784   23.1668      36.065    403.2174466           2          
MisPlume(west)    GOM_UW_1704    2017-04-14T01:38:14Z    -92.7305   28.5819   23.1573      36.06     411.5531878           2          
MisPlume(west)    GOM_UW_1704    2017-04-14T01:39:42Z    -92.7315   28.5855   23.1543      36.057    408.8365319           2          
MisPlume(west)    GOM_UW_1704    2017-04-14T01:41:12Z    -92.7326   28.589    23.1559      36.053    408.4641878           2          
MisPlume(west)    GOM_UW_1704    2017-04-14T01:42:40Z    -92.7337   28.5926   23.159       36.053    410.09934             2          
MisPlume(west)    GOM_UW_1704    2017-04-14T01:44:08Z    -92.7348   28.5961   23.1656      36.02     409.8338231           2          
MisPlume(west)    GOM_UW_1704    2017-04-14T01:45:36Z    -92.736    28.5996   23.1718      36.053    404.3526423           2          
MisPlume(west)    GOM_UW_1704    2017-04-14T01:47:07Z    -92.7371   28.6032   23.1782      36.015    404.2238501           2          
MisPlume(west)    GOM_UW_1704    2017-04-14T01:48:36Z    -92.7383   28.6068   23.1754      36.035    405.9382213           2          
MisPlume(west)    GOM_UW_1704    2017-04-14T01:50:06Z    -92.7395   28.6105   23.178       36.047    407.8141186           2          
MisPlume(west)    GOM_UW_1704    2017-04-14T01:51:35Z    -92.7406   28.614    23.1812      36.05     402.0133747           2          
MisPlume(west)    GOM_UW_1704    2017-04-14T01:53:04Z    -92.7417   28.6176   23.1768      36.055    404.7427934           2          
MisPlume(west)    GOM_UW_1704    2017-04-14T01:54:31Z    -92.7428   28.621    23.1546      36.059    411.4070839           2          
MisPlume(west)    GOM_UW_1704    2017-04-14T01:56:03Z    -92.7439   28.6247   23.1578      36.06     410.2290601           2          
MisPlume(west)    GOM_UW_1704    2017-04-14T01:57:30Z    -92.7451   28.6282   23.1683      36.06     410.2549176           2          
MisPlume(west)    GOM_UW_1704    2017-04-14T01:58:59Z    -92.7462   28.6318   23.15        36.063    405.9276888           2          
MisPlume(west)    GOM_UW_1704    2017-04-14T02:00:27Z    -92.7474   28.6353   23.1252      36.066    405.0019715           2          
MisPlume(west)    GOM_UW_1704    2017-04-14T02:01:57Z    -92.7487   28.6389   23.1217      36.072    399.0075952           2          
MisPlume(west)    GOM_UW_1704    2017-04-14T02:03:24Z    -92.7498   28.6415   23.1185      36.084    403.2679438           2          
MisPlume(west)    GOM_UW_1704    2017-04-14T02:04:54Z    -92.7503   28.6423   23.1087      36.095    411.5531076           2          
MisPlume(west)    GOM_UW_1704    2017-04-14T02:06:22Z    -92.7505   28.6424   23.1154      36.095    406.3453127           2          
MisPlume(west)    GOM_UW_1704    2017-04-14T02:07:50Z    -92.7509   28.6425   23.1172      36.095    404.0995642           2          
MisPlume(west)    GOM_UW_1704    2017-04-14T02:09:18Z    -92.7512   28.6426   23.1176      36.095    401.6356321           2          
MisPlume(west)    GOM_UW_1704    2017-04-14T02:10:49Z    -92.7516   28.6426   23.1101      36.096    402.5473806           2          
MisPlume(west)    GOM_UW_1704    2017-04-14T02:12:20Z    -92.7519   28.6427   23.1126      36.095    398.858084            2          
MisPlume(west)    GOM_UW_1704    2017-04-14T02:13:48Z    -92.7522   28.6427   23.1125      36.095    395.3917348           2          
MisPlume(west)    GOM_UW_1704    2017-04-14T02:15:19Z    -92.7526   28.6427   23.1109      36.096    396.5930516           2          
MisPlume(west)    GOM_UW_1704    2017-04-14T02:16:49Z    -92.7529   28.6427   23.1082      36.096    396.7740108           2          
MisPlume(west)    GOM_UW_1704    2017-04-14T02:18:18Z    -92.7533   28.6428   23.1069      36.096    396.2524399           2          
MisPlume(west)    GOM_UW_1704    2017-04-14T02:19:48Z    -92.7536   28.6428   23.1093      36.077    393.2480806           2          
MisPlume(west)    GOM_UW_1704    2017-04-14T02:21:18Z    -92.754    28.6428   23.1169      36.097    393.2981489           2          
MisPlume(west)    GOM_UW_1704    2017-04-14T02:22:46Z    -92.7544   28.6428   23.1098      36.096    392.115927            2          
MisPlume(west)    GOM_UW_1704    2017-04-14T02:24:14Z    -92.7547   28.6428   23.1107      36.096    397.29722             2          
MisPlume(west)    GOM_UW_1704    2017-04-14T02:25:45Z    -92.7551   28.6429   23.1035      36.096    400.214929            2          
MisPlume(west)    GOM_UW_1704    2017-04-14T02:27:14Z    -92.7555   28.643    23.1032      36.096    398.498929            2          
MisPlume(west)    GOM_UW_1704    2017-04-14T02:28:41Z    -92.7558   28.6431   23.1183      36.095    397.0346461           2          
MisPlume(west)    GOM_UW_1704    2017-04-14T02:30:11Z    -92.7562   28.6432   23.1107      36.095    387.7835397           2          
MisPlume(west)    GOM_UW_1704    2017-04-14T02:31:39Z    -92.7565   28.6432   23.1204      36.095    393.1705218           2          
MisPlume(west)    GOM_UW_1704    2017-04-14T02:33:06Z    -92.7569   28.6432   23.1189      36.096    390.9417703           2          
MisPlume(west)    GOM_UW_1704    2017-04-14T02:34:34Z    -92.7572   28.6432   23.1093      36.096    393.582089            2          
MisPlume(west)    GOM_UW_1704    2017-04-14T02:36:06Z    -92.7576   28.6433   23.1149      36.095    394.8893123           2          
MisPlume(west)    GOM_UW_1704    2017-04-14T02:37:35Z    -92.7579   28.6433   23.1075      36.095    394.9516668           2          
MisPlume(west)    GOM_UW_1704    2017-04-14T02:39:03Z    -92.7583   28.6433   23.101       36.095    397.0372925           2          
MisPlume(west)    GOM_UW_1704    2017-04-14T02:40:34Z    -92.7586   28.6434   23.103       36.093    396.9774816           2          
MisPlume(west)    GOM_UW_1704    2017-04-14T02:42:02Z    -92.759    28.6434   23.105       36.093    394.4698104           2          
MisPlume(west)    GOM_UW_1704    2017-04-14T02:43:32Z    -92.7594   28.6435   23.1111      36.094    390.9698131           2          
MisPlume(west)    GOM_UW_1704    2017-04-14T02:45:03Z    -92.7597   28.6434   23.1114      36.093    392.0974777           2          
MisPlume(west)    GOM_UW_1704    2017-04-14T02:46:34Z    -92.7601   28.6435   23.1072      36.093    392.9549804           2          
MisPlume(west)    GOM_UW_1704    2017-04-14T02:48:02Z    -92.7605   28.6436   23.1068      36.095    395.6452842           2          
MisPlume(west)    GOM_UW_1704    2017-04-14T02:49:30Z    -92.7609   28.6437   23.1007      36.095    398.0751389           2          
MisPlume(west)    GOM_UW_1704    2017-04-14T02:51:00Z    -92.7613   28.6438   23.1043      36.094    398.6383933           2          
MisPlume(west)    GOM_UW_1704    2017-04-14T02:52:29Z    -92.7616   28.6438   23.1008      36.094    403.4873707           2          
MisPlume(west)    GOM_UW_1704    2017-04-14T02:53:58Z    -92.762    28.6439   23.0935      36.065    405.370368            2          
MisPlume(west)    GOM_UW_1704    2017-04-14T02:55:29Z    -92.7623   28.6439   23.103       36.083    398.2589654           2          
MisPlume(west)    GOM_UW_1704    2017-04-14T02:56:56Z    -92.7627   28.644    23.1036      36.087    396.60899             2          
MisPlume(west)    GOM_UW_1704    2017-04-14T03:09:30Z    -92.7594   28.6725   23.0436      36.093    396.7940901           2          
MisPlume(west)    GOM_UW_1704    2017-04-14T03:10:59Z    -92.7589   28.6762   23.0376      36.097    397.048774            2          
MisPlume(west)    GOM_UW_1704    2017-04-14T03:12:29Z    -92.7585   28.68     23.0241      36.098    397.7603927           2          
MisPlume(west)    GOM_UW_1704    2017-04-14T03:13:58Z    -92.7581   28.6837   23.0182      36.099    399.7173035           2          
MisPlume(west)    GOM_UW_1704    2017-04-14T03:15:29Z    -92.7576   28.6875   23.0064      36.104    398.1788362           2          
MisPlume(west)    GOM_UW_1704    2017-04-14T03:16:59Z    -92.7571   28.6912   23.0001      36.107    398.0698502           2          
MisPlume(west)    GOM_UW_1704    2017-04-14T03:18:29Z    -92.7567   28.695    22.9901      36.111    398.5644769           2          
MisPlume(west)    GOM_UW_1704    2017-04-14T03:19:56Z    -92.7563   28.6986   22.9808      36.115    397.4015757           2          
MisPlume(west)    GOM_UW_1704    2017-04-14T03:21:26Z    -92.7558   28.7024   22.9697      36.119    403.5596945           2          
MisPlume(west)    GOM_UW_1704    2017-04-14T03:22:57Z    -92.7553   28.7062   22.9651      36.122    401.8521249           2          
MisPlume(west)    GOM_UW_1704    2017-04-14T03:24:25Z    -92.7549   28.7098   22.96        36.126    398.4447801           2          
MisPlume(west)    GOM_UW_1704    2017-04-14T03:25:53Z    -92.7545   28.7135   22.9467      36.129    399.7908715           2          
MisPlume(west)    GOM_UW_1704    2017-04-14T03:27:21Z    -92.754    28.7172   22.931       36.133    400.4596632           2          
MisPlume(west)    GOM_UW_1704    2017-04-14T03:28:52Z    -92.7535   28.721    22.9145      36.138    399.63262             2          
MisPlume(west)    GOM_UW_1704    2017-04-14T03:30:21Z    -92.7531   28.7247   22.914       36.138    403.7544313           2          
MisPlume(west)    GOM_UW_1704    2017-04-14T03:31:51Z    -92.7526   28.7285   22.9071      36.14     408.1079351           2          
MisPlume(west)    GOM_UW_1704    2017-04-14T03:33:19Z    -92.7522   28.7322   22.8918      36.142    404.4164999           2          
MisPlume(west)    GOM_UW_1704    2017-04-14T03:34:48Z    -92.7518   28.7359   22.8744      36.139    402.1880973           2          
MisPlume(west)    GOM_UW_1704    2017-04-14T03:36:16Z    -92.7513   28.7395   22.869       36.145    398.6163516           2          
MisPlume(west)    GOM_UW_1704    2017-04-14T03:37:45Z    -92.7509   28.7432   22.8569      36.145    399.2194312           2          
MisPlume(west)    GOM_UW_1704    2017-04-14T03:39:15Z    -92.7506   28.747    22.8506      36.145    405.9063655           2          
MisPlume(west)    GOM_UW_1704    2017-04-14T03:40:45Z    -92.7503   28.7508   22.8504      36.147    411.5343941           2          
MisPlume(west)    GOM_UW_1704    2017-04-14T03:42:16Z    -92.7498   28.7546   22.8375      36.147    407.0736157           2          
MisPlume(west)    GOM_UW_1704    2017-04-14T03:43:44Z    -92.7496   28.7575   22.8285      36.144    406.093037            2          
MisPlume(west)    GOM_UW_1704    2017-04-14T03:45:15Z    -92.7497   28.7581   22.8316      36.148    408.8161613           2          
MisPlume(west)    GOM_UW_1704    2017-04-14T03:46:44Z    -92.7498   28.7583   22.8325      36.147    408.6702128           2          
MisPlume(west)    GOM_UW_1704    2017-04-14T03:48:14Z    -92.7501   28.7585   22.8309      36.148    406.9519341           2          
MisPlume(west)    GOM_UW_1704    2017-04-14T03:49:45Z    -92.7504   28.7587   22.8239      36.147    403.3522507           2          
MisPlume(west)    GOM_UW_1704    2017-04-14T03:51:12Z    -92.7506   28.7588   22.8221      36.147    404.5023431           2          
MisPlume(west)    GOM_UW_1704    2017-04-14T03:52:41Z    -92.7509   28.7589   22.8253      36.146    403.8602008           2          
MisPlume(west)    GOM_UW_1704    2017-04-14T03:54:10Z    -92.7511   28.759    22.8233      36.146    404.5514405           2          
MisPlume(west)    GOM_UW_1704    2017-04-14T03:55:41Z    -92.7513   28.7592   22.8186      36.148    398.4462362           2          
MisPlume(west)    GOM_UW_1704    2017-04-14T03:57:12Z    -92.7517   28.7593   22.8174      36.148    401.6921969           2          
MisPlume(west)    GOM_UW_1704    2017-04-14T03:58:40Z    -92.752    28.7594   22.8199      36.148    398.5728979           2          
MisPlume(west)    GOM_UW_1704    2017-04-14T04:00:09Z    -92.7522   28.7595   22.822       36.148    398.238184            2          
MisPlume(west)    GOM_UW_1704    2017-04-14T04:01:37Z    -92.7525   28.7596   22.8185      36.148    396.7996732           2          
MisPlume(west)    GOM_UW_1704    2017-04-14T04:03:05Z    -92.7528   28.7597   22.8297      36.149    401.3873918           2          
MisPlume(west)    GOM_UW_1704    2017-04-14T04:04:36Z    -92.7531   28.7598   22.8188      36.15     403.0655267           2          
MisPlume(west)    GOM_UW_1704    2017-04-14T04:06:04Z    -92.7534   28.7599   22.8159      36.15     nd                    2          
MisPlume(west)    GOM_UW_1704    2017-04-14T04:07:32Z    -92.7536   28.76     22.815       36.15     399.5109038           2          
MisPlume(west)    GOM_UW_1704    2017-04-14T04:08:59Z    -92.7538   28.7601   22.8112      36.152    406.6306267           2          
MisPlume(west)    GOM_UW_1704    2017-04-14T04:10:28Z    -92.7542   28.7602   22.8152      36.154    408.0635448           2          
MisPlume(west)    GOM_UW_1704    2017-04-14T04:11:56Z    -92.7544   28.7603   22.8189      36.154    402.0467263           2          
MisPlume(west)    GOM_UW_1704    2017-04-14T04:13:25Z    -92.7547   28.7604   22.8234      36.154    402.2558591           2          
MisPlume(west)    GOM_UW_1704    2017-04-14T04:14:57Z    -92.7551   28.7605   22.8206      36.156    408.4172505           2          
MisPlume(west)    GOM_UW_1704    2017-04-14T04:16:25Z    -92.7553   28.7607   22.8187      36.156    407.7925213           2          
MisPlume(west)    GOM_UW_1704    2017-04-14T04:17:56Z    -92.7556   28.7608   22.8155      36.155    401.3790368           2          
MisPlume(west)    GOM_UW_1704    2017-04-14T04:19:24Z    -92.755    28.7635   22.809       36.155    397.9918345           2          
MisPlume(west)    GOM_UW_1704    2017-04-14T04:20:54Z    -92.7546   28.7672   22.811       36.155    398.774075            2          
MisPlume(west)    GOM_UW_1704    2017-04-14T04:22:24Z    -92.7541   28.771    22.8116      36.157    405.3999023           2          
MisPlume(west)    GOM_UW_1704    2017-04-14T04:23:53Z    -92.7537   28.7747   22.8063      36.159    409.7661895           2          
MisPlume(west)    GOM_UW_1704    2017-04-14T04:25:22Z    -92.7532   28.7784   22.7807      36.161    397.7254087           2          
MisPlume(west)    GOM_UW_1704    2017-04-14T04:26:50Z    -92.7528   28.7821   22.7679      36.162    410.8041372           2          
MisPlume(west)    GOM_UW_1704    2017-04-14T04:28:18Z    -92.7524   28.7858   22.7695      36.164    410.4042562           2          
MisPlume(west)    GOM_UW_1704    2017-04-14T04:29:47Z    -92.7521   28.7894   22.7619      36.165    405.4307345           2          
MisPlume(west)    GOM_UW_1704    2017-04-14T04:31:15Z    -92.752    28.7931   22.759       36.166    405.9460477           2          
MisPlume(west)    GOM_UW_1704    2017-04-14T04:32:46Z    -92.7518   28.7969   22.7686      36.167    409.324977            2          
MisPlume(west)    GOM_UW_1704    2017-04-14T04:34:14Z    -92.7517   28.8006   22.7696      36.169    405.8001332           2          
MisPlume(west)    GOM_UW_1704    2017-04-14T04:35:45Z    -92.7515   28.8044   22.7711      36.172    409.0330488           2          
MisPlume(west)    GOM_UW_1704    2017-04-14T04:37:13Z    -92.7514   28.8081   22.7603      36.173    401.6788441           2          
MisPlume(west)    GOM_UW_1704    2017-04-14T04:38:42Z    -92.7513   28.8118   22.7506      36.173    412.783949            2          
MisPlume(west)    GOM_UW_1704    2017-04-14T04:40:12Z    -92.7511   28.8156   22.7409      36.175    411.0885357           2          
MisPlume(west)    GOM_UW_1704    2017-04-14T04:41:41Z    -92.7509   28.8194   22.7379      36.174    408.2495289           2          
MisPlume(west)    GOM_UW_1704    2017-04-14T04:43:10Z    -92.7508   28.8231   22.7409      36.175    413.0848284           2          
MisPlume(west)    GOM_UW_1704    2017-04-14T04:44:38Z    -92.7506   28.8268   22.7304      36.175    401.242526            2          
MisPlume(west)    GOM_UW_1704    2017-04-14T04:46:06Z    -92.7505   28.8305   22.7299      36.176    405.2877408           2          
MisPlume(west)    GOM_UW_1704    2017-04-14T04:47:33Z    -92.7503   28.8342   22.7316      36.175    402.7861664           2          
MisPlume(west)    GOM_UW_1704    2017-04-14T04:49:04Z    -92.7502   28.838    22.7443      36.175    405.3119251           2          
MisPlume(west)    GOM_UW_1704    2017-04-14T04:50:33Z    -92.7501   28.8417   22.7456      36.174    413.1584412           2          
MisPlume(west)    GOM_UW_1704    2017-04-14T04:52:04Z    -92.75     28.8455   22.7407      36.175    405.2191925           2          
MisPlume(west)    GOM_UW_1704    2017-04-14T04:53:34Z    -92.75     28.8493   22.757       36.178    416.6080272           2          
MisPlume(west)    GOM_UW_1704    2017-04-14T04:55:02Z    -92.7499   28.853    22.7596      36.178    410.3912739           2          
MisPlume(west)    GOM_UW_1704    2017-04-14T04:56:30Z    -92.7498   28.8567   22.7522      36.177    403.075064            2          
MisPlume(west)    GOM_UW_1704    2017-04-14T04:58:01Z    -92.7497   28.8605   22.7597      36.174    407.1935328           2          
MisPlume(west)    GOM_UW_1704    2017-04-14T04:59:32Z    -92.7496   28.8643   22.7706      36.175    406.9850687           2          
MisPlume(west)    GOM_UW_1704    2017-04-14T05:01:00Z    -92.7496   28.8681   22.7756      36.175    400.0898857           2          
MisPlume(west)    GOM_UW_1704    2017-04-14T05:02:32Z    -92.7495   28.8719   22.7833      36.175    407.4528719           2          
MisPlume(west)    GOM_UW_1704    2017-04-14T05:04:00Z    -92.7494   28.8757   22.7903      36.161    411.4951015           2          
MisPlume(west)    GOM_UW_1704    2017-04-14T05:05:29Z    -92.7493   28.8794   22.7809      36.161    421.4537996           2          
MisPlume(west)    GOM_UW_1704    2017-04-14T05:06:58Z    -92.7492   28.8831   22.8014      36.176    410.7770028           2          
MisPlume(west)    GOM_UW_1704    2017-04-14T05:08:27Z    -92.7491   28.8869   22.8081      36.176    412.0384019           2          
MisPlume(west)    GOM_UW_1704    2017-04-14T05:09:55Z    -92.7492   28.8904   22.8165      36.176    411.0905207           2          
MisPlume(west)    GOM_UW_1704    2017-04-14T05:11:23Z    -92.7493   28.8912   22.8205      36.179    417.0480191           2          
MisPlume(west)    GOM_UW_1704    2017-04-14T05:12:51Z    -92.7494   28.8914   22.8329      36.179    408.1877258           2          
MisPlume(west)    GOM_UW_1704    2017-04-14T05:14:22Z    -92.7497   28.8916   22.8258      36.179    409.8508721           2          
MisPlume(west)    GOM_UW_1704    2017-04-14T05:15:51Z    -92.75     28.8918   22.8259      36.178    408.894823            2          
MisPlume(west)    GOM_UW_1704    2017-04-14T05:17:22Z    -92.7503   28.892    22.8213      36.177    408.6876323           2          
MisPlume(west)    GOM_UW_1704    2017-04-14T05:18:49Z    -92.7505   28.8921   22.8169      36.176    409.4619031           2          
MisPlume(west)    GOM_UW_1704    2017-04-14T05:20:21Z    -92.7508   28.8922   22.8181      36.176    414.7280355           2          
MisPlume(west)    GOM_UW_1704    2017-04-14T05:21:49Z    -92.7511   28.8923   22.8255      36.175    407.8600122           2          
MisPlume(west)    GOM_UW_1704    2017-04-14T05:23:18Z    -92.7514   28.8924   22.8306      36.173    403.2047354           2          
MisPlume(west)    GOM_UW_1704    2017-04-14T05:24:46Z    -92.7517   28.8925   22.8216      36.172    397.0368547           2          
MisPlume(west)    GOM_UW_1704    2017-04-14T05:26:14Z    -92.752    28.8926   22.8283      36.172    398.2194624           2          
MisPlume(west)    GOM_UW_1704    2017-04-14T05:27:43Z    -92.7524   28.8928   22.8237      36.169    401.7065858           2          
MisPlume(west)    GOM_UW_1704    2017-04-14T05:29:11Z    -92.7527   28.8929   22.8325      36.168    398.6648591           2          
MisPlume(west)    GOM_UW_1704    2017-04-14T05:30:40Z    -92.753    28.893    22.8297      36.172    395.4757147           2          
MisPlume(west)    GOM_UW_1704    2017-04-14T05:32:08Z    -92.7533   28.8931   22.8293      36.171    397.5992483           2          
MisPlume(west)    GOM_UW_1704    2017-04-14T05:33:36Z    -92.7536   28.8932   22.8214      36.171    398.7801525           2          
MisPlume(west)    GOM_UW_1704    2017-04-14T05:35:04Z    -92.7539   28.8934   22.8191      36.17     402.8301313           2          
MisPlume(west)    GOM_UW_1704    2017-04-14T05:36:33Z    -92.7542   28.8935   22.8206      36.171    409.8341404           2          
MisPlume(west)    GOM_UW_1704    2017-04-14T05:38:01Z    -92.7545   28.8936   22.8262      36.17     409.3662544           2          
MisPlume(west)    GOM_UW_1704    2017-04-14T05:39:30Z    -92.7549   28.8937   22.8227      36.169    413.4486821           2          
MisPlume(west)    GOM_UW_1704    2017-04-14T05:40:58Z    -92.7551   28.8937   22.8104      36.168    413.1438729           2          
MisPlume(west)    GOM_UW_1704    2017-04-14T05:42:29Z    -92.7554   28.8947   22.8125      36.167    408.861858            2          
MisPlume(west)    GOM_UW_1704    2017-04-14T05:43:57Z    -92.7553   28.8983   22.8262      36.168    412.5549035           2          
MisPlume(west)    GOM_UW_1704    2017-04-14T05:45:29Z    -92.7553   28.9022   22.8287      36.166    409.6977405           2          
MisPlume(west)    GOM_UW_1704    2017-04-14T05:46:58Z    -92.7552   28.9061   22.831       36.165    416.862206            2          
MisPlume(west)    GOM_UW_1704    2017-04-14T05:48:29Z    -92.7551   28.91     22.843       36.163    406.8785955           2          
MisPlume(west)    GOM_UW_1704    2017-04-14T05:50:00Z    -92.755    28.9139   22.8598      36.165    407.620302            2          
MisPlume(west)    GOM_UW_1704    2017-04-14T05:51:30Z    -92.7549   28.9177   22.8741      36.163    406.3787785           2          
MisPlume(west)    GOM_UW_1704    2017-04-14T05:52:59Z    -92.7549   28.9215   22.8804      36.16     412.6423048           2          
MisPlume(west)    GOM_UW_1704    2017-04-14T05:54:30Z    -92.7548   28.9254   22.8854      36.149    418.4205036           2          
MisPlume(west)    GOM_UW_1704    2017-04-14T05:55:58Z    -92.7547   28.9292   22.9023      36.148    413.2049201           2          
MisPlume(west)    GOM_UW_1704    2017-04-14T05:57:29Z    -92.7545   28.9331   22.9049      36.145    412.693264            2          
MisPlume(west)    GOM_UW_1704    2017-04-14T05:58:57Z    -92.7543   28.9369   22.8821      36.135    407.5843535           2          
MisPlume(west)    GOM_UW_1704    2017-04-14T06:00:25Z    -92.7542   28.9407   22.869       36.129    408.6651104           2          
MisPlume(west)    GOM_UW_1704    2017-04-14T06:01:53Z    -92.754    28.9445   22.8325      36.091    406.4597535           2          
MisPlume(west)    GOM_UW_1704    2017-04-14T06:03:22Z    -92.7539   28.9483   22.8513      36.105    406.7452846           2          
MisPlume(west)    GOM_UW_1704    2017-04-14T06:04:50Z    -92.7537   28.952    22.9039      36.116    406.9905532           2          
MisPlume(west)    GOM_UW_1704    2017-04-14T06:06:20Z    -92.7536   28.9559   22.9623      36.132    404.9032133           2          
MisPlume(west)    GOM_UW_1704    2017-04-14T06:18:58Z    -92.7523   28.9882   22.8823      35.787    412.6857758           2          
MisPlume(west)    GOM_UW_1704    2017-04-14T06:20:26Z    -92.7522   28.992    22.6909      35.605    411.57168             2          
MisPlume(west)    GOM_UW_1704    2017-04-14T06:21:58Z    -92.752    28.9959   22.6409      35.533    416.4612328           2          
MisPlume(west)    GOM_UW_1704    2017-04-14T06:23:28Z    -92.7518   28.9998   22.6194      35.496    416.4835498           2          
MisPlume(west)    GOM_UW_1704    2017-04-14T06:24:57Z    -92.7516   29.0036   22.6947      35.486    412.3834715           2          
MisPlume(west)    GOM_UW_1704    2017-04-14T06:26:29Z    -92.7515   29.0076   22.7669      35.479    409.8533389           2          
MisPlume(west)    GOM_UW_1704    2017-04-14T06:28:00Z    -92.7513   29.0115   22.8429      35.508    405.2344767           2          
MisPlume(west)    GOM_UW_1704    2017-04-14T06:29:30Z    -92.7512   29.0153   22.9562      35.576    406.8493801           2          
MisPlume(west)    GOM_UW_1704    2017-04-14T06:30:57Z    -92.751    29.0191   22.8919      35.526    410.2627291           2          
MisPlume(west)    GOM_UW_1704    2017-04-14T06:32:26Z    -92.7509   29.0229   22.8707      35.495    404.6062022           2          
MisPlume(west)    GOM_UW_1704    2017-04-14T06:33:57Z    -92.7507   29.0268   22.9304      35.518    399.6520147           2          
MisPlume(west)    GOM_UW_1704    2017-04-14T06:35:26Z    -92.7506   29.0306   22.9904      35.545    399.3507867           2          
MisPlume(west)    GOM_UW_1704    2017-04-14T06:36:55Z    -92.7504   29.0344   23.0365      35.564    400.7688638           2          
MisPlume(west)    GOM_UW_1704    2017-04-14T06:38:23Z    -92.7503   29.0381   23.0308      35.565    399.4601281           2          
MisPlume(west)    GOM_UW_1704    2017-04-14T06:39:53Z    -92.7501   29.0419   23.0597      35.591    399.366581            2          
MisPlume(west)    GOM_UW_1704    2017-04-14T06:41:22Z    -92.75     29.0457   23.0595      35.559    402.3496655           2          
MisPlume(west)    GOM_UW_1704    2017-04-14T06:42:51Z    -92.7498   29.0489   23.0529      35.575    402.2469995           2          
MisPlume(west)    GOM_UW_1704    2017-04-14T06:44:20Z    -92.7497   29.0496   23.0438      35.554    403.4592135           2          
MisPlume(west)    GOM_UW_1704    2017-04-14T06:45:48Z    -92.75     29.0498   23.059       35.551    409.562207            2          
MisPlume(west)    GOM_UW_1704    2017-04-14T06:47:16Z    -92.7503   29.05     23.0464      35.548    408.3635297           2          
MisPlume(west)    GOM_UW_1704    2017-04-14T06:48:45Z    -92.7508   29.0502   23.0396      35.546    405.3497743           2          
MisPlume(west)    GOM_UW_1704    2017-04-14T06:50:14Z    -92.7512   29.0503   23.0427      35.525    406.6650357           2          
MisPlume(west)    GOM_UW_1704    2017-04-14T06:51:42Z    -92.7516   29.0503   23.0458      35.543    400.8821126           2          
MisPlume(west)    GOM_UW_1704    2017-04-14T06:53:11Z    -92.7521   29.0504   23.0405      35.543    399.5723147           2          
MisPlume(west)    GOM_UW_1704    2017-04-14T06:54:42Z    -92.7525   29.0505   23.0425      35.542    399.6466893           2          
MisPlume(west)    GOM_UW_1704    2017-04-14T06:56:09Z    -92.7529   29.0505   23.0465      35.542    396.3662101           2          
MisPlume(west)    GOM_UW_1704    2017-04-14T06:57:38Z    -92.7533   29.0506   23.0587      35.541    394.6431002           2          
MisPlume(west)    GOM_UW_1704    2017-04-14T06:59:07Z    -92.7538   29.0506   23.0474      35.54     395.0504895           2          
MisPlume(west)    GOM_UW_1704    2017-04-14T07:00:35Z    -92.7542   29.0507   23.0504      35.54     397.5533017           2          
MisPlume(west)    GOM_UW_1704    2017-04-14T07:02:04Z    -92.7546   29.0508   23.0493      35.54     399.0084049           2          
MisPlume(west)    GOM_UW_1704    2017-04-14T07:03:34Z    -92.755    29.0508   23.05        35.538    398.7275949           2          
MisPlume(west)    GOM_UW_1704    2017-04-14T07:05:03Z    -92.7554   29.0509   23.0502      35.538    398.3979536           2          
MisPlume(west)    GOM_UW_1704    2017-04-14T07:06:32Z    -92.7559   29.051    23.0493      35.54     398.4804941           2          
MisPlume(west)    GOM_UW_1704    2017-04-14T07:08:00Z    -92.7563   29.0511   23.0506      35.54     398.973096            2          
MisPlume(west)    GOM_UW_1704    2017-04-14T07:09:28Z    -92.7568   29.0511   23.0482      35.536    398.1926833           2          
MisPlume(west)    GOM_UW_1704    2017-04-14T07:10:57Z    -92.7572   29.0512   23.0536      35.539    399.1131544           2          
MisPlume(west)    GOM_UW_1704    2017-04-14T07:12:26Z    -92.7569   29.0533   23.0464      35.539    398.6911403           2          
MisPlume(west)    GOM_UW_1704    2017-04-14T07:13:55Z    -92.7566   29.0565   23.0462      35.529    401.7362978           2          
MisPlume(west)    GOM_UW_1704    2017-04-14T07:15:26Z    -92.7563   29.06     23.0472      35.519    402.0117349           2          
MisPlume(west)    GOM_UW_1704    2017-04-14T07:16:55Z    -92.756    29.0637   23.0679      35.523    401.116241            2          
MisPlume(west)    GOM_UW_1704    2017-04-14T07:18:23Z    -92.7557   29.0674   23.0721      35.561    404.3695014           2          
MisPlume(west)    GOM_UW_1704    2017-04-14T07:19:52Z    -92.7554   29.0712   23.0797      35.589    407.9829621           2          
MisPlume(west)    GOM_UW_1704    2017-04-14T07:21:21Z    -92.7551   29.075    23.0498      35.542    401.5029155           2          
MisPlume(west)    GOM_UW_1704    2017-04-14T07:22:49Z    -92.7548   29.0787   23.0206      35.511    402.2792714           2          
MisPlume(west)    GOM_UW_1704    2017-04-14T07:24:18Z    -92.7545   29.0826   22.9864      35.494    404.0317799           2          
MisPlume(west)    GOM_UW_1704    2017-04-14T07:25:47Z    -92.7542   29.0864   22.9666      35.48     399.880923            2          
MisPlume(west)    GOM_UW_1704    2017-04-14T07:27:14Z    -92.7539   29.0901   22.9894      35.478    401.7103532           2          
MisPlume(west)    GOM_UW_1704    2017-04-14T07:28:43Z    -92.7535   29.094    22.9872      35.469    397.9406371           2          
MisPlume(west)    GOM_UW_1704    2017-04-14T07:30:12Z    -92.7533   29.0978   22.9616      35.445    397.5033713           2          
MisPlume(west)    GOM_UW_1704    2017-04-14T07:31:43Z    -92.7529   29.1017   22.9091      35.401    396.4177434           2          
MisPlume(west)    GOM_UW_1704    2017-04-14T07:33:12Z    -92.7527   29.1055   22.8742      35.359    396.2153225           2          
MisPlume(west)    GOM_UW_1704    2017-04-14T07:34:40Z    -92.7523   29.1093   22.8987      35.36     400.8186762           2          
MisPlume(west)    GOM_UW_1704    2017-04-14T07:36:09Z    -92.752    29.1131   22.9161      35.356    398.8620448           2          
MisPlume(west)    GOM_UW_1704    2017-04-14T07:37:40Z    -92.7517   29.117    22.9104      35.352    395.9886831           2          
MisPlume(west)    GOM_UW_1704    2017-04-14T07:39:11Z    -92.7514   29.121    22.8958      35.345    400.7918158           2          
MisPlume(west)    GOM_UW_1704    2017-04-14T07:40:38Z    -92.7511   29.1247   22.8429      35.328    404.788276            2          
MisPlume(west)    GOM_UW_1704    2017-04-14T07:42:07Z    -92.7508   29.1285   22.7882      35.288    403.7943834           2          
MisPlume(west)    GOM_UW_1704    2017-04-14T07:43:35Z    -92.7505   29.1322   22.8113      35.265    408.4698291           2          
MisPlume(west)    GOM_UW_1704    2017-04-14T07:45:04Z    -92.7502   29.136    22.8431      35.256    407.8954429           2          
MisPlume(west)    GOM_UW_1704    2017-04-14T07:46:31Z    -92.7499   29.1397   22.8635      35.236    404.3931126           2          
MisPlume(west)    GOM_UW_1704    2017-04-14T07:48:00Z    -92.7496   29.1435   22.8344      35.198    401.1396577           2          
MisPlume(west)    GOM_UW_1704    2017-04-14T07:49:28Z    -92.7493   29.1473   22.792       35.149    403.344629            2          
MisPlume(west)    GOM_UW_1704    2017-04-14T07:50:57Z    -92.749    29.151    22.7319      35.087    403.1474095           2          
MisPlume(west)    GOM_UW_1704    2017-04-14T07:52:29Z    -92.7487   29.155    22.7673      35.105    394.6796217           2          
MisPlume(west)    GOM_UW_1704    2017-04-14T07:53:57Z    -92.7484   29.1587   22.8991      35.153    399.5199774           2          
MisPlume(west)    GOM_UW_1704    2017-04-14T07:55:26Z    -92.7486   29.1625   22.9854      35.128    393.4741332           2          
MisPlume(west)    GOM_UW_1704    2017-04-14T07:56:54Z    -92.7488   29.1663   22.8062      35.007    385.1686718           2          
MisPlume(west)    GOM_UW_1704    2017-04-14T07:58:24Z    -92.7491   29.1701   22.7896      34.974    386.6617128           2          
MisPlume(west)    GOM_UW_1704    2017-04-14T07:59:53Z    -92.7494   29.1739   22.7741      34.95     389.4319975           2          
MisPlume(west)    GOM_UW_1704    2017-04-14T08:01:20Z    -92.7497   29.1776   22.7253      34.905    391.093044            2          
MisPlume(west)    GOM_UW_1704    2017-04-14T08:02:49Z    -92.7499   29.1785   22.719       34.893    392.494677            2          
MisPlume(west)    GOM_UW_1704    2017-04-14T08:04:18Z    -92.7502   29.1787   22.7122      34.886    394.3758504           2          
MisPlume(west)    GOM_UW_1704    2017-04-14T08:05:45Z    -92.7505   29.1789   22.7077      34.886    390.7200801           2          
MisPlume(west)    GOM_UW_1704    2017-04-14T08:07:14Z    -92.7508   29.179    22.7008      34.883    393.0782096           2          
MisPlume(west)    GOM_UW_1704    2017-04-14T08:08:43Z    -92.7511   29.1792   22.6928      34.878    394.3581362           2          
MisPlume(west)    GOM_UW_1704    2017-04-14T08:10:10Z    -92.7514   29.1794   22.6936      34.874    392.264485            2          
MisPlume(west)    GOM_UW_1704    2017-04-14T08:11:38Z    -92.7517   29.1795   22.6857      34.87     388.32648             2          
MisPlume(west)    GOM_UW_1704    2017-04-14T08:13:08Z    -92.752    29.1797   22.6817      34.859    388.9502247           2          
MisPlume(west)    GOM_UW_1704    2017-04-14T08:14:37Z    -92.7523   29.1798   22.6756      34.859    391.5755287           2          
MisPlume(west)    GOM_UW_1704    2017-04-14T08:16:08Z    -92.7526   29.18     22.6624      34.85     390.5080993           2          
MisPlume(west)    GOM_UW_1704    2017-04-14T08:17:36Z    -92.7529   29.1801   22.6555      34.841    391.9746787           2          
MisPlume(west)    GOM_UW_1704    2017-04-14T08:19:04Z    -92.7532   29.1802   22.6438      34.835    392.4518585           2          
MisPlume(west)    GOM_UW_1704    2017-04-14T08:20:32Z    -92.7535   29.1803   22.6418      34.831    394.613328            2          
MisPlume(west)    GOM_UW_1704    2017-04-14T08:22:03Z    -92.7538   29.1804   22.6347      34.826    392.432368            2          
MisPlume(west)    GOM_UW_1704    2017-04-14T08:23:31Z    -92.7541   29.1805   22.6464      34.829    392.0238698           2          
MisPlume(west)    GOM_UW_1704    2017-04-14T08:24:59Z    -92.7544   29.1807   22.6472      34.833    392.3613951           2          
MisPlume(west)    GOM_UW_1704    2017-04-14T08:26:27Z    -92.7547   29.1808   22.6546      34.837    393.0377837           2          
MisPlume(west)    GOM_UW_1704    2017-04-14T08:27:57Z    -92.7549   29.1811   22.6796      34.84     394.6364956           2          
MisPlume(west)    GOM_UW_1704    2017-04-14T08:29:29Z    -92.7544   29.1837   22.5839      34.752    398.9282284           2          
MisPlume(west)    GOM_UW_1704    2017-04-14T08:30:59Z    -92.7543   29.1875   22.5862      34.659    395.440118            2          
MisPlume(west)    GOM_UW_1704    2017-04-14T08:32:31Z    -92.7541   29.1915   22.5652      34.59     389.2614877           2          
MisPlume(west)    GOM_UW_1704    2017-04-14T08:34:00Z    -92.7539   29.1952   22.5424      34.521    388.9159079           2          
MisPlume(west)    GOM_UW_1704    2017-04-14T08:35:27Z    -92.7537   29.199    22.5817      34.504    383.9831511           2          
MisPlume(west)    GOM_UW_1704    2017-04-14T08:36:56Z    -92.7535   29.2028   22.6824      34.578    384.2389345           2          
MisPlume(west)    GOM_UW_1704    2017-04-14T08:38:24Z    -92.7533   29.2066   22.8587      34.9      381.7930798           2          
MisPlume(west)    GOM_UW_1704    2017-04-14T08:39:55Z    -92.753    29.2106   22.9759      34.94     384.4443274           2          
MisPlume(west)    GOM_UW_1704    2017-04-14T08:41:25Z    -92.7527   29.2145   22.9793      34.868    387.3261556           2          
MisPlume(west)    GOM_UW_1704    2017-04-14T08:42:56Z    -92.7525   29.2184   22.9629      34.827    390.2730929           2          
MisPlume(west)    GOM_UW_1704    2017-04-14T08:44:25Z    -92.7523   29.2223   22.988       34.791    391.3270789           2          
MisPlume(west)    GOM_UW_1704    2017-04-14T08:45:53Z    -92.7521   29.2261   22.9672      34.742    392.5156753           2          
MisPlume(west)    GOM_UW_1704    2017-04-14T08:47:22Z    -92.7518   29.23     22.9544      34.703    389.481734            2          
MisPlume(west)    GOM_UW_1704    2017-04-14T08:48:49Z    -92.7516   29.2338   22.9463      34.638    388.729027            2          
MisPlume(west)    GOM_UW_1704    2017-04-14T08:50:19Z    -92.7513   29.2377   22.8987      34.591    384.9564205           2          
MisPlume(west)    GOM_UW_1704    2017-04-14T08:51:49Z    -92.7511   29.2416   22.9242      34.579    383.7228225           2          
MisPlume(west)    GOM_UW_1704    2017-04-14T08:53:20Z    -92.751    29.2455   22.9685      34.568    380.1142967           2          
MisPlume(west)    GOM_UW_1704    2017-04-14T08:54:48Z    -92.7509   29.2494   22.9778      34.558    378.4720466           2          
MisPlume(west)    GOM_UW_1704    2017-04-14T08:56:16Z    -92.7508   29.2533   23.0214      34.554    380.5798176           2          
MisPlume(west)    GOM_UW_1704    2017-04-14T08:57:44Z    -92.7508   29.2571   23.0226      34.539    382.2107165           2          
MisPlume(west)    GOM_UW_1704    2017-04-14T08:59:15Z    -92.7507   29.2611   23.0851      34.514    377.2515595           2          
MisPlume(west)    GOM_UW_1704    2017-04-14T09:00:44Z    -92.7506   29.265    23.0978      34.469    375.5482845           2          
MisPlume(west)    GOM_UW_1704    2017-04-14T09:02:13Z    -92.7505   29.2688   23.0239      34.426    375.2667733           2          
MisPlume(west)    GOM_UW_1704    2017-04-14T09:03:42Z    -92.7504   29.2727   22.9863      34.4      377.5141559           2          
MisPlume(west)    GOM_UW_1704    2017-04-14T09:05:13Z    -92.7503   29.2767   22.9973      34.39     371.7960027           2          
MisPlume(west)    GOM_UW_1704    2017-04-14T09:06:42Z    -92.7502   29.2806   22.9846      34.389    372.0481447           2          
MisPlume(west)    GOM_UW_1704    2017-04-14T09:08:10Z    -92.7502   29.2844   22.9855      34.391    371.0184486           2          
MisPlume(west)    GOM_UW_1704    2017-04-14T09:09:38Z    -92.7501   29.2882   23.0067      34.391    368.3521341           2          
MisPlume(west)    GOM_UW_1704    2017-04-14T09:11:06Z    -92.7499   29.292    23.0264      34.393    365.7027192           2          
MisPlume(west)    GOM_UW_1704    2017-04-14T09:12:34Z    -92.7496   29.2945   23.0292      34.404    366.1925166           2          
MisPlume(west)    GOM_UW_1704    2017-04-14T09:14:03Z    -92.7495   29.2952   23.0383      34.4      364.2024635           2          
MisPlume(west)    GOM_UW_1704    2017-04-14T09:15:32Z    -92.7498   29.2954   23.0501      34.402    360.3812077           2          
MisPlume(west)    GOM_UW_1704    2017-04-14T09:28:06Z    -92.7524   29.2969   23.0319      34.407    354.4404229           2          
MisPlume(west)    GOM_UW_1704    2017-04-14T09:29:34Z    -92.7527   29.297    23.0242      34.407    354.8965456           2          
MisPlume(west)    GOM_UW_1704    2017-04-14T09:31:02Z    -92.753    29.2971   23.0276      34.407    355.7011545           2          
MisPlume(west)    GOM_UW_1704    2017-04-14T09:32:30Z    -92.7533   29.2972   23.0362      34.408    354.5394411           2          
MisPlume(west)    GOM_UW_1704    2017-04-14T09:34:02Z    -92.7536   29.2974   23.0309      34.409    352.9219672           2          
MisPlume(west)    GOM_UW_1704    2017-04-14T09:35:32Z    -92.7539   29.2975   23.0226      34.411    353.288229            2          
MisPlume(west)    GOM_UW_1704    2017-04-14T09:37:01Z    -92.7542   29.2977   23.0166      34.411    354.1710148           2          
MisPlume(west)    GOM_UW_1704    2017-04-14T09:38:28Z    -92.7545   29.2978   23.0119      34.411    354.8298252           2          
MisPlume(west)    GOM_UW_1704    2017-04-14T09:39:56Z    -92.7548   29.298    23.0146      34.41     357.4538118           2          
MisPlume(west)    GOM_UW_1704    2017-04-14T09:41:27Z    -92.7557   29.2986   23.0014      34.399    364.6972633           2          
MisPlume(west)    GOM_UW_1704    2017-04-14T09:42:55Z    -92.7564   29.2968   22.9938      34.41     358.3991148           2          
MisPlume(west)    GOM_UW_1704    2017-04-14T09:44:24Z    -92.7573   29.2935   23.0053      34.412    358.7497412           2          
MisPlume(west)    GOM_UW_1704    2017-04-14T09:45:53Z    -92.7584   29.2901   23.0099      34.403    356.1853164           2          
MisPlume(west)    GOM_UW_1704    2017-04-14T09:47:24Z    -92.7595   29.2865   22.9967      34.4      356.0527578           2          
MisPlume(west)    GOM_UW_1704    2017-04-14T09:48:51Z    -92.7605   29.2831   22.9807      34.399    357.2062057           2          
MisPlume(west)    GOM_UW_1704    2017-04-14T09:50:20Z    -92.7616   29.2797   22.9625      34.393    359.3663612           2          
MisPlume(west)    GOM_UW_1704    2017-04-14T09:51:49Z    -92.7626   29.2762   22.9868      34.39     359.9910912           2          
MisPlume(west)    GOM_UW_1704    2017-04-14T09:53:17Z    -92.7637   29.2727   22.9838      34.391    358.1886182           2          
MisPlume(west)    GOM_UW_1704    2017-04-14T09:54:49Z    -92.7648   29.2691   22.9593      34.394    360.6844868           2          
MisPlume(west)    GOM_UW_1704    2017-04-14T09:56:20Z    -92.7659   29.2655   22.9355      34.409    363.2469334           2          
MisPlume(west)    GOM_UW_1704    2017-04-14T09:57:50Z    -92.7671   29.2619   22.9703      34.439    368.2975704           2          
MisPlume(west)    GOM_UW_1704    2017-04-14T09:59:19Z    -92.7682   29.2583   22.9253      34.418    369.0098526           2          
MisPlume(west)    GOM_UW_1704    2017-04-14T10:00:47Z    -92.7692   29.2548   22.9198      34.419    365.5994595           2          
MisPlume(west)    GOM_UW_1704    2017-04-14T10:02:15Z    -92.7703   29.2513   22.8998      34.421    367.1857928           2          
MisPlume(west)    GOM_UW_1704    2017-04-14T10:03:44Z    -92.7714   29.2477   22.8832      34.42     366.9341643           2          
MisPlume(west)    GOM_UW_1704    2017-04-14T10:05:13Z    -92.7724   29.2441   22.8419      34.437    367.4673615           2          
MisPlume(west)    GOM_UW_1704    2017-04-14T10:06:44Z    -92.7736   29.2404   22.8137      34.44     366.73606             2          
MisPlume(west)    GOM_UW_1704    2017-04-14T10:08:13Z    -92.7747   29.2369   22.7876      34.446    365.9760704           2          
MisPlume(west)    GOM_UW_1704    2017-04-14T10:09:41Z    -92.7758   29.2334   22.7704      34.438    365.3370514           2          
MisPlume(west)    GOM_UW_1704    2017-04-14T10:11:12Z    -92.7769   29.2297   22.7604      34.441    366.8323061           2          
MisPlume(west)    GOM_UW_1704    2017-04-14T10:12:40Z    -92.778    29.2261   22.7462      34.439    367.2699922           2          
MisPlume(west)    GOM_UW_1704    2017-04-14T10:14:10Z    -92.7791   29.2225   22.7409      34.445    366.6149238           2          
MisPlume(west)    GOM_UW_1704    2017-04-14T10:15:39Z    -92.7803   29.2189   22.7267      34.453    366.0712468           2          
MisPlume(west)    GOM_UW_1704    2017-04-14T10:17:08Z    -92.7814   29.2153   22.7027      34.447    365.8814906           2          
MisPlume(west)    GOM_UW_1704    2017-04-14T10:18:35Z    -92.7824   29.2118   22.6818      34.45     365.7188836           2          
MisPlume(west)    GOM_UW_1704    2017-04-14T10:20:04Z    -92.7835   29.2082   22.6588      34.465    368.5877635           2          
MisPlume(west)    GOM_UW_1704    2017-04-14T10:21:32Z    -92.7846   29.2046   22.6615      34.491    368.5209087           2          
MisPlume(west)    GOM_UW_1704    2017-04-14T10:23:02Z    -92.7857   29.201    22.6489      34.503    371.9055817           2          
MisPlume(west)    GOM_UW_1704    2017-04-14T10:24:34Z    -92.7868   29.1973   22.6346      34.554    370.2207561           2          
MisPlume(west)    GOM_UW_1704    2017-04-14T10:26:02Z    -92.7879   29.1938   22.6132      34.579    373.15016             2          
MisPlume(west)    GOM_UW_1704    2017-04-14T10:27:33Z    -92.789    29.1901   22.6184      34.666    377.1762208           2          
MisPlume(west)    GOM_UW_1704    2017-04-14T10:29:03Z    -92.7901   29.1865   22.7297      34.807    380.5232108           2          
MisPlume(west)    GOM_UW_1704    2017-04-14T10:30:32Z    -92.7911   29.1829   22.7401      34.87     379.5628828           2          
MisPlume(west)    GOM_UW_1704    2017-04-14T10:32:01Z    -92.792    29.1793   22.7581      34.917    380.8730412           2          
MisPlume(west)    GOM_UW_1704    2017-04-14T10:33:28Z    -92.793    29.1758   22.8086      34.984    383.0981951           2          
MisPlume(west)    GOM_UW_1704    2017-04-14T10:34:57Z    -92.7939   29.1722   22.8719      35.047    380.3614478           2          
MisPlume(west)    GOM_UW_1704    2017-04-14T10:36:28Z    -92.7948   29.1685   22.8061      35.025    380.3654651           2          
MisPlume(west)    GOM_UW_1704    2017-04-14T10:37:59Z    -92.7958   29.1648   22.7773      35.067    377.683362            2          
MisPlume(west)    GOM_UW_1704    2017-04-14T10:39:26Z    -92.7968   29.1613   22.7821      35.096    376.5950803           2          
MisPlume(west)    GOM_UW_1704    2017-04-14T10:40:57Z    -92.7978   29.1576   22.7718      35.146    381.0762842           2          
MisPlume(west)    GOM_UW_1704    2017-04-14T10:42:25Z    -92.7987   29.154    22.8185      35.222    383.0979641           2          
MisPlume(west)    GOM_UW_1704    2017-04-14T10:43:54Z    -92.7997   29.1504   22.8657      35.272    383.8241848           2          
MisPlume(west)    GOM_UW_1704    2017-04-14T10:45:23Z    -92.8006   29.1469   22.9029      35.319    386.3846443           2          
MisPlume(west)    GOM_UW_1704    2017-04-14T10:46:53Z    -92.8016   29.1432   22.9593      35.385    388.3001459           2          
MisPlume(west)    GOM_UW_1704    2017-04-14T10:48:23Z    -92.8026   29.1396   22.9599      35.4      391.3054995           2          
MisPlume(west)    GOM_UW_1704    2017-04-14T10:49:51Z    -92.8035   29.1361   22.9263      35.407    390.976044            2          
MisPlume(west)    GOM_UW_1704    2017-04-14T10:51:19Z    -92.8044   29.1325   22.8923      35.419    390.9323614           2          
MisPlume(west)    GOM_UW_1704    2017-04-14T10:52:47Z    -92.8053   29.1289   22.8745      35.426    389.2570026           2          
MisPlume(west)    GOM_UW_1704    2017-04-14T10:54:15Z    -92.8063   29.1254   22.8496      35.44     388.601773            2          
MisPlume(west)    GOM_UW_1704    2017-04-14T10:55:43Z    -92.8072   29.1218   22.8293      35.449    389.3475084           2          
MisPlume(west)    GOM_UW_1704    2017-04-14T10:57:12Z    -92.8082   29.1182   22.8103      35.443    387.523945            2          
MisPlume(west)    GOM_UW_1704    2017-04-14T10:58:44Z    -92.8091   29.1145   22.7647      35.387    385.3919757           2          
MisPlume(west)    GOM_UW_1704    2017-04-14T11:00:12Z    -92.81     29.111    22.769       35.38     384.3886792           2          
MisPlume(west)    GOM_UW_1704    2017-04-14T11:01:41Z    -92.811    29.1075   22.7735      35.376    384.0327811           2          
MisPlume(west)    GOM_UW_1704    2017-04-14T11:03:10Z    -92.812    29.1039   22.7779      35.382    383.455356            2          
MisPlume(west)    GOM_UW_1704    2017-04-14T11:04:40Z    -92.8129   29.1003   22.7834      35.375    385.2224576           2          
MisPlume(west)    GOM_UW_1704    2017-04-14T11:06:08Z    -92.8138   29.0968   22.7828      35.371    385.9083447           2          
MisPlume(west)    GOM_UW_1704    2017-04-14T11:07:37Z    -92.8148   29.0932   22.7936      35.362    384.850913            2          
MisPlume(west)    GOM_UW_1704    2017-04-14T11:09:05Z    -92.8157   29.0897   22.7984      35.349    385.2545141           2          
MisPlume(west)    GOM_UW_1704    2017-04-14T11:10:34Z    -92.8167   29.0861   22.8036      35.354    382.8956315           2          
MisPlume(west)    GOM_UW_1704    2017-04-14T11:12:05Z    -92.8177   29.0824   22.8131      35.351    384.4611861           2          
MisPlume(west)    GOM_UW_1704    2017-04-14T11:13:33Z    -92.8186   29.0788   22.8231      35.349    390.021225            2          
MisPlume(west)    GOM_UW_1704    2017-04-14T11:15:04Z    -92.8195   29.0752   22.8272      35.342    387.115417            2          
MisPlume(west)    GOM_UW_1704    2017-04-14T11:16:32Z    -92.8205   29.0716   22.827       35.339    386.9234028           2          
MisPlume(west)    GOM_UW_1704    2017-04-14T11:18:00Z    -92.8214   29.0681   22.8365      35.341    389.3226962           2          
MisPlume(west)    GOM_UW_1704    2017-04-14T11:19:28Z    -92.8223   29.0645   22.835       35.342    391.5452398           2          
MisPlume(west)    GOM_UW_1704    2017-04-14T11:20:59Z    -92.8233   29.0608   22.8244      35.344    390.6944605           2          
MisPlume(west)    GOM_UW_1704    2017-04-14T11:22:28Z    -92.8243   29.0572   22.821       35.344    391.3793792           2          
MisPlume(west)    GOM_UW_1704    2017-04-14T11:23:56Z    -92.8252   29.0536   22.8083      35.343    391.1663109           2          
MisPlume(west)    GOM_UW_1704    2017-04-14T11:25:27Z    -92.8262   29.0499   22.79        35.343    390.4589329           2          
MisPlume(west)    GOM_UW_1704    2017-04-14T11:26:55Z    -92.8272   29.0464   22.7787      35.34     390.4697115           2          
MisPlume(west)    GOM_UW_1704    2017-04-14T11:28:26Z    -92.8283   29.0428   22.7488      35.354    387.5476236           2          
MisPlume(west)    GOM_UW_1704    2017-04-14T11:29:54Z    -92.8293   29.0392   22.7227      35.364    389.1722155           2          
MisPlume(west)    GOM_UW_1704    2017-04-14T11:31:23Z    -92.8303   29.0356   22.6956      35.367    389.7454419           2          
MisPlume(west)    GOM_UW_1704    2017-04-14T11:32:52Z    -92.8313   29.032    22.7073      35.369    390.5412343           2          
MisPlume(west)    GOM_UW_1704    2017-04-14T11:34:21Z    -92.8323   29.0284   22.7048      35.391    389.7815582           2          
MisPlume(west)    GOM_UW_1704    2017-04-14T11:35:50Z    -92.8333   29.0248   22.68        35.418    392.9121925           2          
MisPlume(west)    GOM_UW_1704    2017-04-14T11:37:19Z    -92.8343   29.0213   22.658       35.472    394.7733074           2          
MisPlume(west)    GOM_UW_1704    2017-04-14T11:38:50Z    -92.8353   29.0176   22.6232      35.518    393.8975544           2          
MisPlume(west)    GOM_UW_1704    2017-04-14T11:40:20Z    -92.8363   29.014    22.6408      35.557    394.9947197           2          
MisPlume(west)    GOM_UW_1704    2017-04-14T11:41:50Z    -92.8373   29.0104   22.7378      35.637    401.7074281           2          
MisPlume(west)    GOM_UW_1704    2017-04-14T11:43:20Z    -92.8383   29.0068   22.854       35.712    397.8101888           2          
MisPlume(west)    GOM_UW_1704    2017-04-14T11:44:49Z    -92.8393   29.0032   22.8649      35.739    399.4078722           2          
MisPlume(west)    GOM_UW_1704    2017-04-14T11:46:17Z    -92.8403   28.9997   22.8255      35.756    402.0323241           2          
MisPlume(west)    GOM_UW_1704    2017-04-14T11:47:49Z    -92.8413   28.996    22.8531      35.802    402.9650953           2          
MisPlume(west)    GOM_UW_1704    2017-04-14T11:49:20Z    -92.8423   28.9923   22.8199      35.836    401.0000474           2          
MisPlume(west)    GOM_UW_1704    2017-04-14T11:50:49Z    -92.8434   28.9887   22.7387      35.823    402.2262954           2          
MisPlume(west)    GOM_UW_1704    2017-04-14T11:52:19Z    -92.8444   28.985    22.7077      35.834    398.3946648           2          
MisPlume(west)    GOM_UW_1704    2017-04-14T11:53:47Z    -92.8454   28.9814   22.6913      35.857    398.893971            2          
MisPlume(west)    GOM_UW_1704    2017-04-14T11:55:16Z    -92.8464   28.9778   22.7177      35.897    395.4591638           2          
MisPlume(west)    GOM_UW_1704    2017-04-14T11:56:45Z    -92.8474   28.9742   22.7279      35.931    398.9299304           2          
MisPlume(west)    GOM_UW_1704    2017-04-14T11:58:15Z    -92.8484   28.9706   22.7426      35.957    401.7439026           2          
MisPlume(west)    GOM_UW_1704    2017-04-14T11:59:43Z    -92.8494   28.967    22.7578      36.001    401.7360494           2          
MisPlume(west)    GOM_UW_1704    2017-04-14T12:01:11Z    -92.8504   28.9634   22.842       36.061    399.8642363           2          
MisPlume(west)    GOM_UW_1704    2017-04-14T12:02:39Z    -92.8513   28.9599   22.9392      36.13     402.0439489           2          
MisPlume(west)    GOM_UW_1704    2017-04-14T12:04:07Z    -92.8523   28.9563   22.9143      36.134    401.0760248           2          
MisPlume(west)    GOM_UW_1704    2017-04-14T12:05:36Z    -92.8533   28.9527   22.9038      36.142    401.5954974           2          
MisPlume(west)    GOM_UW_1704    2017-04-14T12:07:05Z    -92.8543   28.9491   22.8857      36.144    401.130058            2          
MisPlume(west)    GOM_UW_1704    2017-04-14T12:08:33Z    -92.8553   28.9455   22.8608      36.148    401.9889191           2          
MisPlume(west)    GOM_UW_1704    2017-04-14T12:10:02Z    -92.8563   28.942    22.8365      36.154    401.9481905           2          
MisPlume(west)    GOM_UW_1704    2017-04-14T12:11:30Z    -92.8573   28.9384   22.8127      36.155    400.5208897           2          
MisPlume(west)    GOM_UW_1704    2017-04-14T12:13:00Z    -92.8583   28.9347   22.7972      36.155    402.1104389           2          
MisPlume(west)    GOM_UW_1704    2017-04-14T12:14:28Z    -92.8593   28.9312   22.7909      36.157    397.1408562           2          
MisPlume(west)    GOM_UW_1704    2017-04-14T12:15:56Z    -92.8603   28.9276   22.7854      36.172    399.9813326           2          
MisPlume(west)    GOM_UW_1704    2017-04-14T12:17:25Z    -92.8613   28.924    22.7778      36.17     398.6409982           2          
MisPlume(west)    GOM_UW_1704    2017-04-14T12:18:54Z    -92.8623   28.9204   22.7635      36.169    398.2429837           2          
MisPlume(west)    GOM_UW_1704    2017-04-14T12:20:21Z    -92.8633   28.9169   22.7536      36.164    397.0967221           2          
MisPlume(west)    GOM_UW_1704    2017-04-14T12:21:50Z    -92.8643   28.9133   22.745       36.163    398.3576472           2          
MisPlume(west)    GOM_UW_1704    2017-04-14T12:23:18Z    -92.8653   28.9098   22.739       36.161    395.4892536           2          
MisPlume(west)    GOM_UW_1704    2017-04-14T12:24:46Z    -92.8663   28.9062   22.7308      36.166    393.780721            2          
MisPlume(west)    GOM_UW_1704    2017-04-14T12:37:21Z    -92.8748   28.8755   22.7028      36.141    392.3680574           2          
MisPlume(west)    GOM_UW_1704    2017-04-14T12:38:49Z    -92.8758   28.872    22.7017      36.136    392.2107212           2          
MisPlume(west)    GOM_UW_1704    2017-04-14T12:40:17Z    -92.8768   28.8684   22.6992      36.134    392.6145359           2          
MisPlume(west)    GOM_UW_1704    2017-04-14T12:41:48Z    -92.8778   28.8648   22.6947      36.133    391.5649907           2          
MisPlume(west)    GOM_UW_1704    2017-04-14T12:43:16Z    -92.8788   28.8613   22.6954      36.13     393.0861247           2          
MisPlume(west)    GOM_UW_1704    2017-04-14T12:44:46Z    -92.8798   28.8576   22.6964      36.129    392.5201041           2          
MisPlume(west)    GOM_UW_1704    2017-04-14T12:46:14Z    -92.8808   28.854    22.6974      36.116    391.459882            2          
MisPlume(west)    GOM_UW_1704    2017-04-14T12:47:44Z    -92.8817   28.8504   22.696       36.117    391.207878            2          
MisPlume(west)    GOM_UW_1704    2017-04-14T12:49:12Z    -92.8827   28.8469   22.6943      36.125    390.3145699           2          
MisPlume(west)    GOM_UW_1704    2017-04-14T12:50:43Z    -92.8837   28.8432   22.697       36.126    391.3712921           2          
MisPlume(west)    GOM_UW_1704    2017-04-14T12:52:14Z    -92.8847   28.8395   22.6939      36.133    392.4541212           2          
MisPlume(west)    GOM_UW_1704    2017-04-14T12:53:41Z    -92.8857   28.836    22.6901      36.132    392.6660211           2          
MisPlume(west)    GOM_UW_1704    2017-04-14T12:55:10Z    -92.8868   28.8324   22.6887      36.13     392.3271626           2          
MisPlume(west)    GOM_UW_1704    2017-04-14T12:56:39Z    -92.8878   28.8288   22.6863      36.132    394.281724            2          
MisPlume(west)    GOM_UW_1704    2017-04-14T12:58:10Z    -92.8888   28.8251   22.6869      36.13     391.6900337           2          
MisPlume(west)    GOM_UW_1704    2017-04-14T12:59:41Z    -92.8898   28.8214   22.6829      36.128    391.6783108           2          
MisPlume(west)    GOM_UW_1704    2017-04-14T13:01:09Z    -92.8909   28.8178   22.6828      36.124    392.187226            2          
MisPlume(west)    GOM_UW_1704    2017-04-14T13:02:38Z    -92.8918   28.8142   22.6833      36.12     390.5248963           2          
MisPlume(west)    GOM_UW_1704    2017-04-14T13:04:06Z    -92.8928   28.8107   22.6864      36.115    389.7772528           2          
MisPlume(west)    GOM_UW_1704    2017-04-14T13:05:36Z    -92.8938   28.807    22.69        36.114    390.3016133           2          
MisPlume(west)    GOM_UW_1704    2017-04-14T13:07:05Z    -92.8949   28.8034   22.6889      36.108    391.3255252           2          
MisPlume(west)    GOM_UW_1704    2017-04-14T13:08:36Z    -92.8959   28.7997   22.6871      36.117    390.4447038           2          
MisPlume(west)    GOM_UW_1704    2017-04-14T13:10:04Z    -92.8969   28.7962   22.6828      36.116    393.5922892           2          
MisPlume(west)    GOM_UW_1704    2017-04-14T13:11:32Z    -92.8979   28.7926   22.6769      36.111    392.1188034           2          
MisPlume(west)    GOM_UW_1704    2017-04-14T13:12:59Z    -92.8989   28.7891   22.6728      36.121    389.6086141           2          
MisPlume(west)    GOM_UW_1704    2017-04-14T13:14:28Z    -92.8999   28.7855   22.6732      36.121    393.094294            2          
MisPlume(west)    GOM_UW_1704    2017-04-14T13:15:56Z    -92.9008   28.7819   22.6752      36.087    396.0959142           2          
MisPlume(west)    GOM_UW_1704    2017-04-14T13:17:25Z    -92.9019   28.7783   22.6744      36.119    392.6383301           2          
MisPlume(west)    GOM_UW_1704    2017-04-14T13:18:53Z    -92.9029   28.7748   22.6806      36.121    394.0886794           2          
MisPlume(west)    GOM_UW_1704    2017-04-14T13:20:21Z    -92.9038   28.7712   22.6868      36.123    396.3171948           2          
MisPlume(west)    GOM_UW_1704    2017-04-14T13:21:52Z    -92.9048   28.7675   22.6937      36.124    395.1664921           2          
MisPlume(west)    GOM_UW_1704    2017-04-14T13:23:20Z    -92.9058   28.764    22.6949      36.124    nd                    2          
MisPlume(west)    GOM_UW_1704    2017-04-14T13:24:48Z    -92.9068   28.7605   22.7128      36.124    396.0448142           2          
MisPlume(west)    GOM_UW_1704    2017-04-14T13:26:15Z    -92.9078   28.7569   22.7135      36.13     393.3410764           2          
MisPlume(west)    GOM_UW_1704    2017-04-14T13:27:44Z    -92.9088   28.7533   22.7305      36.13     394.8554361           2          
MisPlume(west)    GOM_UW_1704    2017-04-14T13:29:11Z    -92.9097   28.7498   22.7368      36.126    393.8226028           2          
MisPlume(west)    GOM_UW_1704    2017-04-14T13:30:43Z    -92.9108   28.7461   22.7447      36.126    394.7292631           2          
MisPlume(west)    GOM_UW_1704    2017-04-14T13:32:14Z    -92.9118   28.7425   22.7541      36.124    396.3425387           2          
MisPlume(west)    GOM_UW_1704    2017-04-14T13:33:42Z    -92.9128   28.7389   22.7527      36.123    395.1219688           2          
MisPlume(west)    GOM_UW_1704    2017-04-14T13:35:10Z    -92.9138   28.7353   22.7484      36.124    395.6081166           2          
MisPlume(west)    GOM_UW_1704    2017-04-14T13:36:39Z    -92.9148   28.7317   22.7537      36.122    397.0685253           2          
MisPlume(west)    GOM_UW_1704    2017-04-14T13:38:08Z    -92.9158   28.7281   22.7583      36.121    391.2508099           2          
MisPlume(west)    GOM_UW_1704    2017-04-14T13:39:35Z    -92.9168   28.7246   22.7686      36.118    392.0861115           2          
MisPlume(west)    GOM_UW_1704    2017-04-14T13:41:04Z    -92.9177   28.721    22.7805      36.118    391.7899598           2          
MisPlume(west)    GOM_UW_1704    2017-04-14T13:42:32Z    -92.9187   28.7174   22.7809      36.117    390.718384            2          
MisPlume(west)    GOM_UW_1704    2017-04-14T13:44:01Z    -92.9197   28.7138   22.7812      36.122    389.6946105           2          
MisPlume(west)    GOM_UW_1704    2017-04-14T13:45:29Z    -92.9207   28.7103   22.7884      36.122    391.1402343           2          
MisPlume(west)    GOM_UW_1704    2017-04-14T13:46:57Z    -92.9217   28.7068   22.7993      36.079    390.2528247           2          
MisPlume(west)    GOM_UW_1704    2017-04-14T13:48:25Z    -92.9227   28.7032   22.8096      36.052    391.2898104           2          
MisPlume(west)    GOM_UW_1704    2017-04-14T13:49:54Z    -92.9237   28.6996   22.8155      36.123    390.8435737           2          
MisPlume(west)    GOM_UW_1704    2017-04-14T13:51:24Z    -92.9247   28.696    22.8156      36.121    390.400069            2          
MisPlume(west)    GOM_UW_1704    2017-04-14T13:52:54Z    -92.9257   28.6924   22.8167      36.12     390.070337            2          
MisPlume(west)    GOM_UW_1704    2017-04-14T13:54:22Z    -92.9267   28.6888   22.8178      36.122    388.2651766           2          
MisPlume(west)    GOM_UW_1704    2017-04-14T13:55:52Z    -92.9277   28.6852   22.8205      36.13     387.9642605           2          
MisPlume(west)    GOM_UW_1704    2017-04-14T13:57:20Z    -92.9287   28.6817   22.8217      36.129    388.8031304           2          
MisPlume(west)    GOM_UW_1704    2017-04-14T13:58:48Z    -92.9296   28.6781   22.8183      36.128    388.4049938           2          
MisPlume(west)    GOM_UW_1704    2017-04-14T14:00:16Z    -92.9306   28.6746   22.8212      36.128    388.6627866           2          
MisPlume(west)    GOM_UW_1704    2017-04-14T14:01:44Z    -92.9316   28.671    22.8212      36.126    387.8782269           2          
MisPlume(west)    GOM_UW_1704    2017-04-14T14:03:13Z    -92.9326   28.6675   22.8219      36.127    386.7261474           2          
MisPlume(west)    GOM_UW_1704    2017-04-14T14:04:42Z    -92.9336   28.6638   22.8169      36.107    385.8372674           2          
MisPlume(west)    GOM_UW_1704    2017-04-14T14:06:09Z    -92.9346   28.6604   22.8186      36.122    387.2755634           2          
MisPlume(west)    GOM_UW_1704    2017-04-14T14:07:37Z    -92.9356   28.6568   22.8264      36.12     387.5453882           2          
MisPlume(west)    GOM_UW_1704    2017-04-14T14:09:06Z    -92.9366   28.6532   22.8419      36.119    387.1118687           2          
MisPlume(west)    GOM_UW_1704    2017-04-14T14:10:34Z    -92.9375   28.6497   22.8515      36.118    387.2550232           2          
MisPlume(west)    GOM_UW_1704    2017-04-14T14:12:05Z    -92.9385   28.646    22.8614      36.103    387.3840387           2          
MisPlume(west)    GOM_UW_1704    2017-04-14T14:13:33Z    -92.9395   28.6425   22.871       36.123    386.7705786           2          
MisPlume(west)    GOM_UW_1704    2017-04-14T14:15:01Z    -92.9405   28.6389   22.8762      36.121    386.1019343           2          
MisPlume(west)    GOM_UW_1704    2017-04-14T14:16:29Z    -92.9415   28.6354   22.8751      36.121    385.6566818           2          
MisPlume(west)    GOM_UW_1704    2017-04-14T14:17:57Z    -92.9425   28.6319   22.876       36.121    386.8207535           2          
MisPlume(west)    GOM_UW_1704    2017-04-14T14:19:27Z    -92.9435   28.6283   22.8748      36.119    387.0220571           2          
MisPlume(west)    GOM_UW_1704    2017-04-14T14:20:54Z    -92.9445   28.6248   22.8723      36.121    387.3420684           2          
MisPlume(west)    GOM_UW_1704    2017-04-14T14:22:22Z    -92.9455   28.6212   22.8682      36.121    387.2283756           2          
MisPlume(west)    GOM_UW_1704    2017-04-14T14:23:51Z    -92.9465   28.6176   22.8646      36.12     386.7808413           2          
MisPlume(west)    GOM_UW_1704    2017-04-14T14:25:18Z    -92.9474   28.6141   22.8614      36.12     384.8922999           2          
MisPlume(west)    GOM_UW_1704    2017-04-14T14:26:47Z    -92.9485   28.6105   22.8573      36.12     386.9783203           2          
MisPlume(west)    GOM_UW_1704    2017-04-14T14:28:15Z    -92.9494   28.607    22.8532      36.109    386.6896196           2          
MisPlume(west)    GOM_UW_1704    2017-04-14T14:29:45Z    -92.9504   28.6034   22.8584      36.118    387.3959084           2          
MisPlume(west)    GOM_UW_1704    2017-04-14T14:31:13Z    -92.9514   28.5998   22.8661      36.118    385.9917022           2          
MisPlume(west)    GOM_UW_1704    2017-04-14T14:32:42Z    -92.9524   28.5962   22.877       36.118    387.5874698           2          
MisPlume(west)    GOM_UW_1704    2017-04-14T14:34:13Z    -92.9534   28.5925   22.8764      36.118    386.2564369           2          
MisPlume(west)    GOM_UW_1704    2017-04-14T14:35:41Z    -92.9544   28.589    22.8842      36.12     387.5433834           2          
MisPlume(west)    GOM_UW_1704    2017-04-14T14:37:09Z    -92.9554   28.5855   22.8923      36.127    387.1416897           2          
MisPlume(west)    GOM_UW_1704    2017-04-14T14:38:37Z    -92.9564   28.5819   22.9099      36.128    385.4793531           2          
MisPlume(west)    GOM_UW_1704    2017-04-14T14:40:07Z    -92.9574   28.5782   22.9237      36.132    386.2849849           2          
MisPlume(west)    GOM_UW_1704    2017-04-14T14:41:36Z    -92.9583   28.5746   22.9308      36.129    385.0428383           2          
MisPlume(west)    GOM_UW_1704    2017-04-14T14:43:05Z    -92.9587   28.5709   22.9339      36.131    386.6367985           2          
MisPlume(west)    GOM_UW_1704    2017-04-14T14:44:32Z    -92.9591   28.5673   22.9342      36.089    385.9720192           2          
MisPlume(west)    GOM_UW_1704    2017-04-14T14:46:04Z    -92.9595   28.5635   22.9407      36.144    386.0660997           2          
MisPlume(west)    GOM_UW_1704    2017-04-14T14:47:32Z    -92.96     28.5598   22.9379      36.143    386.3212517           2          
MisPlume(west)    GOM_UW_1704    2017-04-14T14:49:00Z    -92.9604   28.5562   22.9356      36.142    385.5155444           2          
MisPlume(west)    GOM_UW_1704    2017-04-14T14:50:29Z    -92.9611   28.5526   22.9371      36.14     386.1197749           2          
MisPlume(west)    GOM_UW_1704    2017-04-14T14:51:58Z    -92.9619   28.5489   22.9384      36.137    386.1554489           2          
MisPlume(west)    GOM_UW_1704    2017-04-14T14:53:26Z    -92.9627   28.5453   22.9415      36.136    385.4260423           2          
MisPlume(west)    GOM_UW_1704    2017-04-14T14:54:55Z    -92.9634   28.5417   22.9487      36.137    385.6987255           2          
MisPlume(west)    GOM_UW_1704    2017-04-14T14:56:25Z    -92.9642   28.538    22.9449      36.133    385.5738558           2          
MisPlume(west)    GOM_UW_1704    2017-04-14T14:57:54Z    -92.9652   28.5345   22.9415      36.131    386.4464463           2          
MisPlume(west)    GOM_UW_1704    2017-04-14T14:59:25Z    -92.9663   28.5308   22.9495      36.13     386.2534078           2          
MisPlume(west)    GOM_UW_1704    2017-04-14T15:00:57Z    -92.9673   28.5271   22.9611      36.124    385.3422303           2          
MisPlume(west)    GOM_UW_1704    2017-04-14T15:02:25Z    -92.9684   28.5235   22.9701      36.124    385.1628061           2          
MisPlume(west)    GOM_UW_1704    2017-04-14T15:03:52Z    -92.9694   28.52     22.9655      36.127    384.945623            2          
MisPlume(west)    GOM_UW_1704    2017-04-14T15:05:23Z    -92.9705   28.5163   22.9758      36.123    384.9513056           2          
MisPlume(west)    GOM_UW_1704    2017-04-14T15:06:51Z    -92.9715   28.5127   22.978       36.121    386.3326365           2          
MisPlume(west)    GOM_UW_1704    2017-04-14T15:08:20Z    -92.9725   28.5092   22.9903      36.118    386.8764032           2          
MisPlume(west)    GOM_UW_1704    2017-04-14T15:09:51Z    -92.9736   28.5055   22.9906      36.118    385.8690975           2          
MisPlume(west)    GOM_UW_1704    2017-04-14T15:11:20Z    -92.9746   28.5019   22.9874      36.12     384.7519521           2          
MisPlume(west)    GOM_UW_1704    2017-04-14T15:12:48Z    -92.9756   28.4984   22.9863      36.117    385.2220635           2          
MisPlume(west)    GOM_UW_1704    2017-04-14T15:14:15Z    -92.9766   28.4949   22.9869      36.114    385.9613387           2          
MisPlume(west)    GOM_UW_1704    2017-04-14T15:15:45Z    -92.9777   28.4913   22.9981      36.112    386.0877838           2          
MisPlume(west)    GOM_UW_1704    2017-04-14T15:17:13Z    -92.9787   28.4878   22.9976      36.088    385.6524539           2          
MisPlume(west)    GOM_UW_1704    2017-04-14T15:18:41Z    -92.9797   28.4843   22.9954      36.105    385.0910042           2          
MisPlume(west)    GOM_UW_1704    2017-04-14T15:20:10Z    -92.9807   28.4807   22.9971      36.104    386.2082221           2          
MisPlume(west)    GOM_UW_1704    2017-04-14T15:21:38Z    -92.9818   28.4772   23.011       36.098    384.9428314           2          
MisPlume(west)    GOM_UW_1704    2017-04-14T15:23:07Z    -92.9827   28.4736   23.0161      36.098    383.9942672           2          
MisPlume(west)    GOM_UW_1704    2017-04-14T15:24:36Z    -92.9838   28.4701   23.0139      36.097    384.8042026           2          
MisPlume(west)    GOM_UW_1704    2017-04-14T15:26:04Z    -92.9848   28.4666   23.0285      36.098    385.5121823           2          
MisPlume(west)    GOM_UW_1704    2017-04-14T15:27:32Z    -92.9858   28.463    23.05        36.091    384.9462283           2          
MisPlume(west)    GOM_UW_1704    2017-04-14T15:28:59Z    -92.9868   28.4596   23.0602      36.112    384.994458            2          
MisPlume(west)    GOM_UW_1704    2017-04-14T15:30:27Z    -92.9878   28.4561   23.0555      36.111    385.5073813           2          
MisPlume(west)    GOM_UW_1704    2017-04-14T15:31:55Z    -92.9888   28.4525   23.064       36.106    385.216535            2          
MisPlume(west)    GOM_UW_1704    2017-04-14T15:33:23Z    -92.9898   28.449    23.0721      36.108    386.0045758           2          
MisPlume(west)    GOM_UW_1704    2017-04-14T15:45:57Z    -92.9982   28.4196   23.2176      35.782    386.9889147           2          
MisPlume(west)    GOM_UW_1704    2017-04-14T15:47:26Z    -92.9993   28.4161   23.2134      35.772    386.8739013           2          
MisPlume(west)    GOM_UW_1704    2017-04-14T15:48:54Z    -93.0002   28.4126   23.2157      35.755    386.4986945           2          
MisPlume(west)    GOM_UW_1704    2017-04-14T15:50:24Z    -93.0013   28.4091   23.2232      35.747    386.9777184           2          
MisPlume(west)    GOM_UW_1704    2017-04-14T15:51:53Z    -93.0023   28.4056   23.2155      35.711    386.5405996           2          
MisPlume(west)    GOM_UW_1704    2017-04-14T15:53:20Z    -93.0033   28.4021   23.2214      35.657    386.4899179           2          
MisPlume(west)    GOM_UW_1704    2017-04-14T15:54:50Z    -93.0043   28.3986   23.23        35.627    386.4990687           2          
MisPlume(west)    GOM_UW_1704    2017-04-14T15:56:18Z    -93.0053   28.3952   23.2438      35.611    386.2453928           2          
MisPlume(west)    GOM_UW_1704    2017-04-14T15:57:47Z    -93.0063   28.3917   23.2363      35.586    387.6930277           2          
MisPlume(west)    GOM_UW_1704    2017-04-14T15:59:16Z    -93.0073   28.3882   23.2375      35.565    386.9714542           2          
MisPlume(west)    GOM_UW_1704    2017-04-14T16:00:44Z    -93.0082   28.3848   23.2401      35.548    386.5821421           2          
MisPlume(west)    GOM_UW_1704    2017-04-14T16:02:12Z    -93.0092   28.3813   23.2497      35.518    386.8583605           2          
MisPlume(west)    GOM_UW_1704    2017-04-14T16:03:40Z    -93.0102   28.3779   23.2409      35.505    387.7140928           2          
MisPlume(west)    GOM_UW_1704    2017-04-14T16:05:08Z    -93.0112   28.3744   23.2381      35.513    387.2013176           2          
MisPlume(west)    GOM_UW_1704    2017-04-14T16:06:37Z    -93.0122   28.3709   23.2393      35.511    386.7935936           2          
MisPlume(west)    GOM_UW_1704    2017-04-14T16:08:07Z    -93.0133   28.3673   23.2347      35.444    385.2769453           2          
MisPlume(west)    GOM_UW_1704    2017-04-14T16:09:38Z    -93.0143   28.3637   23.2468      35.411    385.3230366           2          
MisPlume(west)    GOM_UW_1704    2017-04-14T16:11:06Z    -93.0153   28.3603   23.2465      35.367    384.8976346           2          
MisPlume(west)    GOM_UW_1704    2017-04-14T16:12:35Z    -93.0163   28.3568   23.2403      35.32     385.5618986           2          
MisPlume(west)    GOM_UW_1704    2017-04-14T16:14:03Z    -93.0173   28.3534   23.2378      35.287    385.2875302           2          
MisPlume(west)    GOM_UW_1704    2017-04-14T16:15:32Z    -93.0183   28.3499   23.2314      35.255    384.682002            2          
MisPlume(west)    GOM_UW_1704    2017-04-14T16:17:00Z    -93.0193   28.3464   23.2303      35.237    385.3521667           2          
MisPlume(west)    GOM_UW_1704    2017-04-14T16:18:28Z    -93.0203   28.3429   23.2093      35.212    385.9325446           2          
MisPlume(west)    GOM_UW_1704    2017-04-14T16:19:59Z    -93.0213   28.3393   23.1916      35.174    384.8057583           2          
MisPlume(west)    GOM_UW_1704    2017-04-14T16:21:27Z    -93.0223   28.3357   23.179       35.18     384.4226714           2          
MisPlume(west)    GOM_UW_1704    2017-04-14T16:22:55Z    -93.0233   28.3322   23.168       35.162    nd                    2          
MisPlume(west)    GOM_UW_1704    2017-04-14T16:24:26Z    -93.0244   28.3286   23.1525      35.145    382.9472453           2          
MisPlume(west)    GOM_UW_1704    2017-04-14T16:25:54Z    -93.0254   28.325    23.1435      35.128    382.7342836           2          
MisPlume(west)    GOM_UW_1704    2017-04-14T16:27:25Z    -93.0264   28.3214   23.1606      35.132    382.2882998           2          
MisPlume(west)    GOM_UW_1704    2017-04-14T16:28:54Z    -93.0275   28.3178   23.1829      35.104    382.4656582           2          
MisPlume(west)    GOM_UW_1704    2017-04-14T16:30:25Z    -93.0285   28.3141   23.2032      35.099    383.2126356           2          
MisPlume(west)    GOM_UW_1704    2017-04-14T16:31:56Z    -93.0297   28.3105   23.2123      35.087    383.0500465           2          
MisPlume(west)    GOM_UW_1704    2017-04-14T16:33:23Z    -93.0306   28.307    23.1987      35.05     383.6130237           2          
MisPlume(west)    GOM_UW_1704    2017-04-14T16:34:55Z    -93.0317   28.3033   23.1968      35.049    385.5177261           2          
MisPlume(west)    GOM_UW_1704    2017-04-14T16:36:23Z    -93.0327   28.2997   23.2008      35.059    385.1845622           2          
MisPlume(west)    GOM_UW_1704    2017-04-14T16:37:50Z    -93.0337   28.2963   23.1922      35.055    382.3102933           2          
MisPlume(west)    GOM_UW_1704    2017-04-14T16:39:19Z    -93.0348   28.2926   23.1897      35.045    383.1284674           2          
MisPlume(west)    GOM_UW_1704    2017-04-14T16:40:47Z    -93.0357   28.2891   23.2107      35.029    383.1945766           2          
MisPlume(west)    GOM_UW_1704    2017-04-14T16:42:15Z    -93.0368   28.2855   23.2247      35.054    381.9967037           2          
MisPlume(west)    GOM_UW_1704    2017-04-14T16:43:44Z    -93.0378   28.2819   23.2239      35.066    384.0273631           2          
MisPlume(west)    GOM_UW_1704    2017-04-14T16:45:12Z    -93.0388   28.2784   23.2293      35.081    383.0608476           2          
MisPlume(west)    GOM_UW_1704    2017-04-14T16:46:41Z    -93.0399   28.2747   23.2474      35.099    383.3245208           2          
MisPlume(west)    GOM_UW_1704    2017-04-14T16:48:09Z    -93.0408   28.2712   23.2746      35.114    384.2184069           2          
MisPlume(west)    GOM_UW_1704    2017-04-14T16:49:37Z    -93.0419   28.2676   23.2921      35.135    383.5714057           2          
MisPlume(west)    GOM_UW_1704    2017-04-14T16:51:08Z    -93.043    28.2639   23.362       35.184    383.5808569           2          
MisPlume(west)    GOM_UW_1704    2017-04-14T16:52:36Z    -93.044    28.2604   23.5392      35.269    385.5003646           2          
MisPlume(west)    GOM_UW_1704    2017-04-14T16:54:05Z    -93.045    28.2568   23.6311      35.281    386.3044683           2          
MisPlume(west)    GOM_UW_1704    2017-04-14T16:55:37Z    -93.0461   28.2531   23.5869      35.224    385.8162867           2          
MisPlume(west)    GOM_UW_1704    2017-04-14T16:57:05Z    -93.0471   28.2495   23.5704      35.218    385.6465927           2          
MisPlume(west)    GOM_UW_1704    2017-04-14T16:58:33Z    -93.0481   28.246    23.5549      35.207    386.7462939           2          
MisPlume(west)    GOM_UW_1704    2017-04-14T17:00:02Z    -93.0491   28.2424   23.5247      35.194    385.4339547           2          
MisPlume(west)    GOM_UW_1704    2017-04-14T17:01:30Z    -93.0501   28.2388   23.5243      35.188    385.0197849           2          
MisPlume(west)    GOM_UW_1704    2017-04-14T17:02:58Z    -93.051    28.2353   23.5611      35.196    385.2962896           2          
MisPlume(west)    GOM_UW_1704    2017-04-14T17:04:30Z    -93.0521   28.2316   23.5775      35.193    385.0466477           2          
MisPlume(west)    GOM_UW_1704    2017-04-14T17:06:00Z    -93.0531   28.2279   23.5724      35.179    386.1156249           2          
MisPlume(west)    GOM_UW_1704    2017-04-14T17:07:30Z    -93.0542   28.2243   23.5706      35.188    386.4419311           2          
MisPlume(west)    GOM_UW_1704    2017-04-14T17:09:00Z    -93.0553   28.2207   23.6092      35.209    385.6893391           2          
MisPlume(west)    GOM_UW_1704    2017-04-14T17:10:28Z    -93.0563   28.2171   23.6127      35.21     386.0522467           2          
MisPlume(west)    GOM_UW_1704    2017-04-14T17:11:57Z    -93.0574   28.2135   23.6034      35.204    385.8252271           2          
MisPlume(west)    GOM_UW_1704    2017-04-14T17:13:25Z    -93.0584   28.21     23.5922      35.195    386.3804436           2          
MisPlume(west)    GOM_UW_1704    2017-04-14T17:14:53Z    -93.0594   28.2065   23.5615      35.19     386.897057            2          
MisPlume(west)    GOM_UW_1704    2017-04-14T17:16:21Z    -93.0605   28.2029   23.5385      35.177    386.4685568           2          
MisPlume(west)    GOM_UW_1704    2017-04-14T17:17:50Z    -93.0615   28.1993   23.5274      35.187    385.6134388           2          
MisPlume(west)    GOM_UW_1704    2017-04-14T17:19:18Z    -93.0625   28.1958   23.5274      35.187    387.0160337           2          
MisPlume(west)    GOM_UW_1704    2017-04-14T17:20:46Z    -93.0635   28.1922   23.5166      35.194    388.1733873           2          
MisPlume(west)    GOM_UW_1704    2017-04-14T17:22:17Z    -93.0646   28.1885   23.5188      35.199    388.5688923           2          
MisPlume(west)    GOM_UW_1704    2017-04-14T17:23:47Z    -93.0656   28.1849   23.5088      35.205    389.7651944           2          
MisPlume(west)    GOM_UW_1704    2017-04-14T17:25:15Z    -93.0667   28.1813   23.5049      35.214    387.9799976           2          
MisPlume(west)    GOM_UW_1704    2017-04-14T17:26:44Z    -93.0677   28.1777   23.5072      35.221    389.2700764           2          
MisPlume(west)    GOM_UW_1704    2017-04-14T17:28:13Z    -93.0687   28.1741   23.4466      35.131    390.5079838           2          
MisPlume(west)    GOM_UW_1704    2017-04-14T17:29:41Z    -93.0698   28.1705   23.4155      35.142    386.5039521           2          
MisPlume(west)    GOM_UW_1704    2017-04-14T17:31:11Z    -93.0708   28.1668   23.4718      35.18     391.6102348           2          
MisPlume(west)    GOM_UW_1704    2017-04-14T17:32:39Z    -93.0718   28.1633   23.4159      35.109    391.6043426           2          
MisPlume(west)    GOM_UW_1704    2017-04-14T17:34:07Z    -93.0728   28.1598   23.3384      35.021    391.0006838           2          
MisPlume(west)    GOM_UW_1704    2017-04-14T17:35:35Z    -93.0738   28.1563   23.3249      34.989    393.1985986           2          
MisPlume(west)    GOM_UW_1704    2017-04-14T17:37:03Z    -93.0748   28.1527   23.2711      34.95     386.7693644           2          
MisPlume(west)    GOM_UW_1704    2017-04-14T17:38:32Z    -93.0759   28.1491   23.2314      34.907    384.5407958           2          
MisPlume(west)    GOM_UW_1704    2017-04-14T17:40:03Z    -93.0769   28.1455   23.2066      34.908    384.9756911           2          
MisPlume(west)    GOM_UW_1704    2017-04-14T17:41:33Z    -93.078    28.1419   23.194       34.9      387.1243146           2          
MisPlume(west)    GOM_UW_1704    2017-04-14T17:43:03Z    -93.079    28.1382   23.1675      34.893    386.6952407           2          
MisPlume(west)    GOM_UW_1704    2017-04-14T17:44:33Z    -93.0801   28.1346   23.1513      34.877    388.4602873           2          
MisPlume(west)    GOM_UW_1704    2017-04-14T17:46:00Z    -93.081    28.131    23.136       34.87     387.4492291           2          
MisPlume(west)    GOM_UW_1704    2017-04-14T17:47:29Z    -93.0819   28.1274   23.1342      34.872    395.7553178           2          
MisPlume(west)    GOM_UW_1704    2017-04-14T17:48:57Z    -93.0827   28.1238   23.1117      34.872    387.3823698           2          
MisPlume(west)    GOM_UW_1704    2017-04-14T17:50:26Z    -93.0834   28.1204   23.1493      34.891    390.2820258           2          
MisPlume(west)    GOM_UW_1704    2017-04-14T17:51:57Z    -93.0832   28.1194   23.1877      34.921    392.0032666           2          
MisPlume(west)    GOM_UW_1704    2017-04-14T17:53:26Z    -93.0832   28.1192   23.1949      34.924    388.3582199           2          
MisPlume(west)    GOM_UW_1704    2017-04-14T17:54:55Z    -93.0833   28.1191   23.1902      34.925    388.1940291           2          
MisPlume(west)    GOM_UW_1704    2017-04-14T17:56:23Z    -93.0835   28.119    23.1972      34.91     381.6958982           2          
MisPlume(west)    GOM_UW_1704    2017-04-14T17:57:51Z    -93.0837   28.1188   23.2068      34.928    384.8339187           2          
MisPlume(west)    GOM_UW_1704    2017-04-14T17:59:19Z    -93.0838   28.1187   23.2032      34.928    388.8363559           2          
MisPlume(west)    GOM_UW_1704    2017-04-14T18:00:47Z    -93.084    28.1186   23.2088      34.928    394.3577781           2          
MisPlume(west)    GOM_UW_1704    2017-04-14T18:02:17Z    -93.0842   28.1184   23.2192      34.929    394.4305639           2          
MisPlume(west)    GOM_UW_1704    2017-04-14T18:03:45Z    -93.0843   28.1183   23.2146      34.929    389.0482564           2          
MisPlume(west)    GOM_UW_1704    2017-04-14T18:05:16Z    -93.0844   28.1181   23.2167      34.93     395.883696            2          
MisPlume(west)    GOM_UW_1704    2017-04-14T18:06:45Z    -93.0846   28.118    23.219       34.93     389.1173148           2          
MisPlume(west)    GOM_UW_1704    2017-04-14T18:08:16Z    -93.0847   28.1178   23.2114      34.93     386.1542243           2          
MisPlume(west)    GOM_UW_1704    2017-04-14T18:09:44Z    -93.0849   28.1177   23.2069      34.931    396.3299844           2          
MisPlume(west)    GOM_UW_1704    2017-04-14T18:11:12Z    -93.085    28.1175   23.2192      34.931    394.1380149           2          
MisPlume(west)    GOM_UW_1704    2017-04-14T18:12:42Z    -93.0852   28.1173   23.2246      34.93     391.0618316           2          
MisPlume(west)    GOM_UW_1704    2017-04-14T18:14:12Z    -93.0854   28.1171   23.2198      34.931    389.1108106           2          
MisPlume(west)    GOM_UW_1704    2017-04-14T18:15:40Z    -93.0855   28.117    23.2281      34.932    386.6609779           2          
MisPlume(west)    GOM_UW_1704    2017-04-14T18:17:10Z    -93.0856   28.1168   23.2286      34.933    384.5796988           2          
MisPlume(west)    GOM_UW_1704    2017-04-14T18:18:39Z    -93.0857   28.1166   23.2306      34.941    382.6129204           2          
MisPlume(west)    GOM_UW_1704    2017-04-14T18:20:06Z    -93.0859   28.1165   23.2324      34.941    382.0555108           2          
MisPlume(west)    GOM_UW_1704    2017-04-14T18:21:35Z    -93.086    28.1162   23.231       34.941    387.5688702           2          
MisPlume(west)    GOM_UW_1704    2017-04-14T18:23:03Z    -93.0862   28.116    23.2374      34.942    387.3290207           2          
MisPlume(west)    GOM_UW_1704    2017-04-14T18:24:32Z    -93.0863   28.1158   23.228       34.944    383.9920294           2          
MisPlume(west)    GOM_UW_1704    2017-04-14T18:25:59Z    -93.0864   28.1156   23.23        34.947    388.0054437           2          
MisPlume(west)    GOM_UW_1704    2017-04-14T18:27:28Z    -93.0865   28.1155   23.2306      34.949    385.2791918           2          
MisPlume(west)    GOM_UW_1704    2017-04-14T18:28:56Z    -93.0867   28.1153   23.2328      34.952    385.324887            2          
MisPlume(west)    GOM_UW_1704    2017-04-14T18:30:28Z    -93.0869   28.1151   23.2357      34.953    387.2676302           2          
MisPlume(west)    GOM_UW_1704    2017-04-14T18:31:56Z    -93.087    28.1149   23.2368      34.96     386.6251412           2          
MisPlume(west)    GOM_UW_1704    2017-04-14T18:33:24Z    -93.0872   28.1148   23.2362      34.963    386.427447            2          
MisPlume(west)    GOM_UW_1704    2017-04-14T18:34:53Z    -93.0873   28.1146   23.2324      34.967    384.42727             2          
MisPlume(west)    GOM_UW_1704    2017-04-14T18:36:20Z    -93.0875   28.1144   23.2259      34.964    387.0371214           2          
MisPlume(west)    GOM_UW_1704    2017-04-14T18:37:50Z    -93.0876   28.1142   23.2224      34.96     385.7064135           2          
MisPlume(west)    GOM_UW_1704    2017-04-14T18:39:18Z    -93.0878   28.1139   23.2198      34.957    386.3270569           2          
MisPlume(west)    GOM_UW_1704    2017-04-14T18:40:48Z    -93.0881   28.1138   23.2203      34.955    385.5825222           2          
MisPlume(west)    GOM_UW_1704    2017-04-14T18:42:17Z    -93.0884   28.1162   23.2165      34.926    384.5039693           2          
MisPlume(west)    GOM_UW_1704    2017-04-14T18:54:53Z    -93.0875   28.1467   23.2892      34.848    389.6296936           2          
MisPlume(west)    GOM_UW_1704    2017-04-14T18:56:23Z    -93.0874   28.1503   23.319       34.848    388.9575493           2          
MisPlume(west)    GOM_UW_1704    2017-04-14T18:57:51Z    -93.0873   28.1539   23.3295      34.864    390.8890985           2          
MisPlume(west)    GOM_UW_1704    2017-04-14T18:59:22Z    -93.0871   28.1575   23.3701      34.888    390.8190897           2          
MisPlume(west)    GOM_UW_1704    2017-04-14T19:00:53Z    -93.0869   28.1612   23.3731      34.904    389.2696413           2          
MisPlume(west)    GOM_UW_1704    2017-04-14T19:02:23Z    -93.0868   28.1649   23.3911      34.919    392.7782466           2          
MisPlume(west)    GOM_UW_1704    2017-04-14T19:03:52Z    -93.0866   28.1684   23.4182      34.931    390.4032662           2          
MisPlume(west)    GOM_UW_1704    2017-04-14T19:05:20Z    -93.0865   28.172    23.4455      34.949    390.6606696           2          
MisPlume(west)    GOM_UW_1704    2017-04-14T19:06:49Z    -93.0863   28.1756   23.489       34.99     391.7657034           2          
MisPlume(west)    GOM_UW_1704    2017-04-14T19:08:18Z    -93.0862   28.1793   23.4813      35.031    390.8838274           2          
MisPlume(west)    GOM_UW_1704    2017-04-14T19:09:47Z    -93.0861   28.1829   23.5219      35.081    391.0705393           2          
MisPlume(west)    GOM_UW_1704    2017-04-14T19:11:15Z    -93.086    28.1863   23.4807      35.098    392.6632192           2          
MisPlume(west)    GOM_UW_1704    2017-04-14T19:12:44Z    -93.0858   28.1899   23.443       35.056    391.5970243           2          
MisPlume(west)    GOM_UW_1704    2017-04-14T19:14:11Z    -93.0856   28.1933   23.4364      35.033    388.7831419           2          
MisPlume(west)    GOM_UW_1704    2017-04-14T19:15:42Z    -93.0855   28.197    23.4527      35.017    389.3176496           2          
MisPlume(west)    GOM_UW_1704    2017-04-14T19:17:14Z    -93.0854   28.2006   23.4747      35.04     385.6629318           2          
MisPlume(west)    GOM_UW_1704    2017-04-14T19:18:44Z    -93.0853   28.2042   23.4824      35.078    388.0323576           2          
MisPlume(west)    GOM_UW_1704    2017-04-14T19:20:13Z    -93.0851   28.2077   23.486       35.101    391.1171259           2          
MisPlume(west)    GOM_UW_1704    2017-04-14T19:21:40Z    -93.085    28.2111   23.6268      35.186    392.1121999           2          
MisPlume(west)    GOM_UW_1704    2017-04-14T19:23:08Z    -93.0848   28.2146   23.6612      35.176    397.085031            2          
MisPlume(west)    GOM_UW_1704    2017-04-14T19:24:37Z    -93.0847   28.2181   23.6448      35.156    399.1836728           2          
MisPlume(west)    GOM_UW_1704    2017-04-14T19:26:06Z    -93.0845   28.2216   23.6314      35.142    397.9228674           2          
MisPlume(west)    GOM_UW_1704    2017-04-14T19:27:37Z    -93.0844   28.2252   23.6528      35.15     401.814492            2          
MisPlume(west)    GOM_UW_1704    2017-04-14T19:29:04Z    -93.0843   28.2286   23.6985      35.173    400.8905454           2          
MisPlume(west)    GOM_UW_1704    2017-04-14T19:30:32Z    -93.0841   28.232    23.7155      35.17     399.1504053           2          
MisPlume(west)    GOM_UW_1704    2017-04-14T19:32:00Z    -93.084    28.2355   23.7172      35.169    399.9762215           2          
MisPlume(west)    GOM_UW_1704    2017-04-14T19:33:30Z    -93.0838   28.239    23.7476      35.185    396.1295936           2          
MisPlume(west)    GOM_UW_1704    2017-04-14T19:34:58Z    -93.0839   28.2424   23.7447      35.187    400.1615459           2          
MisPlume(west)    GOM_UW_1704    2017-04-14T19:36:27Z    -93.0839   28.2458   23.7456      35.186    400.7827115           2          
MisPlume(west)    GOM_UW_1704    2017-04-14T19:37:56Z    -93.084    28.2493   23.7505      35.186    398.697495            2          
MisPlume(west)    GOM_UW_1704    2017-04-14T19:39:25Z    -93.084    28.2527   23.7233      35.18     395.3293011           2          
MisPlume(west)    GOM_UW_1704    2017-04-14T19:40:53Z    -93.0841   28.256    23.7348      35.179    395.8417612           2          
MisPlume(west)    GOM_UW_1704    2017-04-14T19:42:21Z    -93.0842   28.2595   23.7576      35.184    394.0380757           2          
MisPlume(west)    GOM_UW_1704    2017-04-14T19:43:52Z    -93.0843   28.263    23.7633      35.199    393.6010485           2          
MisPlume(west)    GOM_UW_1704    2017-04-14T19:45:20Z    -93.0843   28.2665   23.7823      35.214    394.9658056           2          
MisPlume(west)    GOM_UW_1704    2017-04-14T19:46:49Z    -93.0844   28.2699   23.8141      35.253    393.9190836           2          
MisPlume(west)    GOM_UW_1704    2017-04-14T19:48:16Z    -93.0845   28.2733   23.3864      35.044    393.1719488           2          
MisPlume(west)    GOM_UW_1704    2017-04-14T19:49:44Z    -93.0845   28.2767   23.3414      35.003    390.8211246           2          
MisPlume(west)    GOM_UW_1704    2017-04-14T19:51:14Z    -93.0846   28.2802   23.3475      34.987    389.6416805           2          
MisPlume(west)    GOM_UW_1704    2017-04-14T19:52:44Z    -93.0847   28.2836   23.3568      34.974    386.9447356           2          
MisPlume(west)    GOM_UW_1704    2017-04-14T19:54:15Z    -93.0847   28.2871   23.3494      34.957    388.8559332           2          
MisPlume(west)    GOM_UW_1704    2017-04-14T19:55:43Z    -93.0848   28.2905   23.3523      34.945    389.423049            2          
MisPlume(west)    GOM_UW_1704    2017-04-14T19:57:14Z    -93.0849   28.294    23.3621      34.944    388.7245749           2          
MisPlume(west)    GOM_UW_1704    2017-04-14T19:58:43Z    -93.085    28.2975   23.3483      34.947    388.5902529           2          
MisPlume(west)    GOM_UW_1704    2017-04-14T20:00:15Z    -93.0851   28.301    23.3378      34.918    390.1758054           2          
MisPlume(west)    GOM_UW_1704    2017-04-14T20:01:43Z    -93.0851   28.3044   23.3219      34.936    388.7450476           2          
MisPlume(west)    GOM_UW_1704    2017-04-14T20:03:11Z    -93.0859   28.3078   23.3119      34.935    387.9969451           2          
MisPlume(west)    GOM_UW_1704    2017-04-14T20:04:40Z    -93.0865   28.3112   23.3045      34.933    385.863573            2          
MisPlume(west)    GOM_UW_1704    2017-04-14T20:06:08Z    -93.0872   28.3146   23.2878      34.937    385.992616            2          
MisPlume(west)    GOM_UW_1704    2017-04-14T20:07:37Z    -93.0881   28.3179   23.2872      34.952    385.9510644           2          
MisPlume(west)    GOM_UW_1704    2017-04-14T20:09:06Z    -93.089    28.3213   23.3004      34.972    386.5438764           2          
MisPlume(west)    GOM_UW_1704    2017-04-14T20:10:36Z    -93.0893   28.3247   23.315       34.997    387.7016987           2          
MisPlume(west)    GOM_UW_1704    2017-04-14T20:12:04Z    -93.0891   28.3281   23.3217      35.042    391.0320624           2          
MisPlume(west)    GOM_UW_1704    2017-04-14T20:13:33Z    -93.0888   28.3315   23.3466      35.073    389.8632866           2          
MisPlume(west)    GOM_UW_1704    2017-04-14T20:15:02Z    -93.0885   28.335    23.3716      35.099    389.9793354           2          
MisPlume(west)    GOM_UW_1704    2017-04-14T20:16:30Z    -93.0882   28.3384   23.3999      35.126    389.3808543           2          
MisPlume(west)    GOM_UW_1704    2017-04-14T20:17:58Z    -93.088    28.3418   23.4191      35.165    391.2872527           2          
MisPlume(west)    GOM_UW_1704    2017-04-14T20:19:27Z    -93.0877   28.3452   23.4319      35.195    391.1151253           2          
MisPlume(west)    GOM_UW_1704    2017-04-14T20:20:56Z    -93.0874   28.3487   23.4382      35.227    390.734703            2          
MisPlume(west)    GOM_UW_1704    2017-04-14T20:22:24Z    -93.0871   28.3521   23.4672      35.259    390.6582261           2          
MisPlume(west)    GOM_UW_1704    2017-04-14T20:23:56Z    -93.0869   28.3557   23.4503      35.29     391.0159738           2          
MisPlume(west)    GOM_UW_1704    2017-04-14T20:25:24Z    -93.0866   28.3591   23.45        35.305    389.9710615           2          
MisPlume(west)    GOM_UW_1704    2017-04-14T20:26:52Z    -93.0864   28.3625   23.4662      35.34     390.9151245           2          
MisPlume(west)    GOM_UW_1704    2017-04-14T20:28:19Z    -93.0861   28.3659   23.4672      35.375    391.6357633           2          
MisPlume(west)    GOM_UW_1704    2017-04-14T20:29:48Z    -93.0858   28.3694   23.4792      35.416    394.7064418           2          
MisPlume(west)    GOM_UW_1704    2017-04-14T20:31:20Z    -93.0857   28.3729   23.4432      35.437    392.0747315           2          
MisPlume(west)    GOM_UW_1704    2017-04-14T20:32:49Z    -93.0855   28.3764   23.4519      35.447    393.051952            2          
MisPlume(west)    GOM_UW_1704    2017-04-14T20:34:17Z    -93.0854   28.3799   23.4672      35.469    393.0269368           2          
MisPlume(west)    GOM_UW_1704    2017-04-14T20:35:45Z    -93.0853   28.3833   23.4397      35.506    394.3967423           2          
MisPlume(west)    GOM_UW_1704    2017-04-14T20:37:14Z    -93.0851   28.3869   23.4275      35.539    391.8453383           2          
MisPlume(west)    GOM_UW_1704    2017-04-14T20:38:45Z    -93.085    28.3904   23.4086      35.547    393.4789969           2          
MisPlume(west)    GOM_UW_1704    2017-04-14T20:40:13Z    -93.0848   28.3939   23.4136      35.576    395.2827704           2          
MisPlume(west)    GOM_UW_1704    2017-04-14T20:41:44Z    -93.0846   28.3975   23.4188      35.579    391.6502226           2          
MisPlume(west)    GOM_UW_1704    2017-04-14T20:43:12Z    -93.0845   28.401    23.4395      35.586    393.6046226           2          
MisPlume(west)    GOM_UW_1704    2017-04-14T20:44:40Z    -93.0844   28.4045   23.4539      35.592    394.4921242           2          
MisPlume(west)    GOM_UW_1704    2017-04-14T20:46:12Z    -93.0842   28.4082   23.4431      35.612    397.1504506           2          
MisPlume(west)    GOM_UW_1704    2017-04-14T20:47:40Z    -93.0841   28.4117   23.4431      35.634    398.3926299           2          
MisPlume(west)    GOM_UW_1704    2017-04-14T20:49:09Z    -93.084    28.4153   23.4399      35.647    400.4490557           2          
MisPlume(west)    GOM_UW_1704    2017-04-14T20:50:38Z    -93.0838   28.4188   23.4462      35.671    402.9325601           2          
MisPlume(west)    GOM_UW_1704    2017-04-14T20:52:07Z    -93.0836   28.4224   23.4381      35.71     399.4351965           2          
MisPlume(west)    GOM_UW_1704    2017-04-14T20:53:37Z    -93.0835   28.4261   23.4571      35.754    403.2116342           2          
MisPlume(west)    GOM_UW_1704    2017-04-14T20:55:06Z    -93.0834   28.4296   23.4693      35.748    399.7474795           2          
MisPlume(west)    GOM_UW_1704    2017-04-14T20:56:36Z    -93.0832   28.4333   23.489       35.751    395.8637165           2          
MisPlume(west)    GOM_UW_1704    2017-04-14T20:58:03Z    -93.083    28.4368   23.4907      35.779    395.4052906           2          
MisPlume(west)    GOM_UW_1704    2017-04-14T20:59:32Z    -93.0829   28.4404   23.4916      35.803    396.0467188           2          
MisPlume(west)    GOM_UW_1704    2017-04-14T21:01:01Z    -93.0828   28.4439   23.473       35.832    396.3544791           2          
MisPlume(west)    GOM_UW_1704    2017-04-14T21:02:31Z    -93.0826   28.4475   23.4028      35.869    396.2167311           2          
MisPlume(west)    GOM_UW_1704    2017-04-14T21:04:00Z    -93.0825   28.4511   23.3579      35.899    391.6198982           2          
MisPlume(west)    GOM_UW_1704    2017-04-14T21:05:29Z    -93.0823   28.4547   23.4004      35.887    393.7535696           2          
MisPlume(west)    GOM_UW_1704    2017-04-14T21:06:57Z    -93.0822   28.4582   23.4161      35.901    395.1814351           2          
MisPlume(west)    GOM_UW_1704    2017-04-14T21:08:25Z    -93.0822   28.4608   23.3961      35.941    394.7538604           2          
MisPlume(west)    GOM_UW_1704    2017-04-14T21:09:53Z    -93.0822   28.4616   23.3763      35.956    393.2686948           2          
MisPlume(west)    GOM_UW_1704    2017-04-14T21:11:21Z    -93.0825   28.4619   23.3796      35.96     391.2431785           2          
MisPlume(west)    GOM_UW_1704    2017-04-14T21:12:49Z    -93.0828   28.462    23.3964      35.958    391.1316134           2          
MisPlume(west)    GOM_UW_1704    2017-04-14T21:14:18Z    -93.0832   28.462    23.399       35.959    391.0456707           2          
MisPlume(west)    GOM_UW_1704    2017-04-14T21:15:45Z    -93.0836   28.4618   23.4003      35.958    389.1160971           2          
MisPlume(west)    GOM_UW_1704    2017-04-14T21:17:14Z    -93.084    28.4617   23.4009      35.959    388.4719002           2          
MisPlume(west)    GOM_UW_1704    2017-04-14T21:18:43Z    -93.0843   28.4615   23.3911      35.961    388.2392341           2          
MisPlume(west)    GOM_UW_1704    2017-04-14T21:20:14Z    -93.0847   28.4613   23.3893      35.962    388.1364933           2          
MisPlume(west)    GOM_UW_1704    2017-04-14T21:21:42Z    -93.0851   28.4611   23.3855      35.961    389.0702098           2          
MisPlume(west)    GOM_UW_1704    2017-04-14T21:23:12Z    -93.0854   28.4609   23.3809      35.844    389.4957424           2          
MisPlume(west)    GOM_UW_1704    2017-04-14T21:24:40Z    -93.0858   28.4608   23.3781      35.97     388.5118025           2          
MisPlume(west)    GOM_UW_1704    2017-04-14T21:26:08Z    -93.0862   28.4606   23.3876      35.967    390.128038            2          
MisPlume(west)    GOM_UW_1704    2017-04-14T21:27:35Z    -93.0865   28.4605   23.3893      35.965    390.1765762           2          
MisPlume(west)    GOM_UW_1704    2017-04-14T21:29:04Z    -93.0869   28.4603   23.4003      35.953    391.4561518           2          
MisPlume(west)    GOM_UW_1704    2017-04-14T21:30:32Z    -93.0873   28.4602   23.4059      35.956    390.9873793           2          
MisPlume(west)    GOM_UW_1704    2017-04-14T21:32:03Z    -93.0877   28.46     23.4121      35.954    390.0289877           2          
MisPlume(west)    GOM_UW_1704    2017-04-14T21:33:32Z    -93.088    28.4599   23.4124      35.952    390.0964571           2          
MisPlume(west)    GOM_UW_1704    2017-04-14T21:35:00Z    -93.0884   28.4597   23.4154      35.948    390.2675886           2          
MisPlume(west)    GOM_UW_1704    2017-04-14T21:36:30Z    -93.0888   28.4596   23.415       35.947    391.7834769           2          
MisPlume(west)    GOM_UW_1704    2017-04-14T21:38:02Z    -93.0892   28.4593   23.42        35.943    390.6008513           2          
MisPlume(west)    GOM_UW_1704    2017-04-14T21:39:31Z    -93.0896   28.4592   23.4297      35.939    389.5456603           2          
MisPlume(west)    GOM_UW_1704    2017-04-14T21:40:59Z    -93.09     28.459    23.4322      35.935    389.5592496           2          
MisPlume(west)    GOM_UW_1704    2017-04-14T21:42:26Z    -93.0903   28.4588   23.4264      35.931    391.227936            2          
MisPlume(west)    GOM_UW_1704    2017-04-14T21:43:58Z    -93.0908   28.4587   23.4226      35.93     392.6299844           2          
MisPlume(west)    GOM_UW_1704    2017-04-14T21:45:26Z    -93.0912   28.4586   23.425       35.926    391.7169864           2          
MisPlume(west)    GOM_UW_1704    2017-04-14T21:46:54Z    -93.0916   28.4585   23.4176      35.929    391.4307935           2          
MisPlume(west)    GOM_UW_1704    2017-04-14T21:48:23Z    -93.0919   28.4602   23.4147      35.929    390.8252424           2          
MisPlume(west)    GOM_UW_1704    2017-04-14T21:49:54Z    -93.0917   28.4636   23.407       35.953    392.0156005           2          
MisPlume(west)    GOM_UW_1704    2017-04-14T21:51:23Z    -93.0916   28.4671   23.3625      36        391.7125878           2          
MisPlume(west)    GOM_UW_1704    2017-04-14T22:03:57Z    -93.0904   28.4976   23.19        36.104    391.4952695           2          
MisPlume(west)    GOM_UW_1704    2017-04-14T22:05:25Z    -93.0903   28.5011   23.1998      36.106    390.824401            2          
MisPlume(west)    GOM_UW_1704    2017-04-14T22:06:54Z    -93.0901   28.5047   23.2114      36.109    391.3499556           2          
MisPlume(west)    GOM_UW_1704    2017-04-14T22:08:25Z    -93.09     28.5083   23.2057      36.11     390.0223153           2          
MisPlume(west)    GOM_UW_1704    2017-04-14T22:09:53Z    -93.0898   28.5119   23.1939      36.107    390.300793            2          
MisPlume(west)    GOM_UW_1704    2017-04-14T22:11:22Z    -93.0897   28.5154   23.19        36.108    391.0574616           2          
MisPlume(west)    GOM_UW_1704    2017-04-14T22:12:49Z    -93.0895   28.5189   23.1892      36.106    391.4626442           2          
MisPlume(west)    GOM_UW_1704    2017-04-14T22:14:18Z    -93.0894   28.5225   23.1646      36.104    390.5335319           2          
MisPlume(west)    GOM_UW_1704    2017-04-14T22:15:47Z    -93.0892   28.526    23.1679      36.102    391.2234685           2          
MisPlume(west)    GOM_UW_1704    2017-04-14T22:17:14Z    -93.0891   28.5295   23.1913      36.102    391.2643559           2          
MisPlume(west)    GOM_UW_1704    2017-04-14T22:18:43Z    -93.0891   28.5331   23.1666      36.1      389.7404534           2          
MisPlume(west)    GOM_UW_1704    2017-04-14T22:20:14Z    -93.089    28.5367   23.1578      36.102    390.1995685           2          
MisPlume(west)    GOM_UW_1704    2017-04-14T22:21:42Z    -93.0889   28.5403   23.1747      36.099    390.7073029           2          
MisPlume(west)    GOM_UW_1704    2017-04-14T22:23:11Z    -93.0889   28.5439   23.1725      36.1      390.9245287           2          
MisPlume(west)    GOM_UW_1704    2017-04-14T22:24:39Z    -93.0888   28.5474   23.1613      36.098    390.2696258           2          
MisPlume(west)    GOM_UW_1704    2017-04-14T22:26:07Z    -93.0888   28.5509   23.1528      36.1      390.7938005           2          
MisPlume(west)    GOM_UW_1704    2017-04-14T22:27:36Z    -93.0887   28.5545   23.1499      36.099    391.5952246           2          
MisPlume(west)    GOM_UW_1704    2017-04-14T22:29:04Z    -93.0886   28.558    23.1482      36.097    390.3594              2          
MisPlume(west)    GOM_UW_1704    2017-04-14T22:30:32Z    -93.0885   28.5615   23.1449      36.099    390.9201722           2          
MisPlume(west)    GOM_UW_1704    2017-04-14T22:32:02Z    -93.0884   28.5651   23.148       36.098    390.7492131           2          
MisPlume(west)    GOM_UW_1704    2017-04-14T22:33:30Z    -93.0883   28.5686   23.1536      36.1      390.2375511           2          
MisPlume(west)    GOM_UW_1704    2017-04-14T22:34:57Z    -93.0883   28.5721   23.1461      36.099    389.965656            2          
MisPlume(west)    GOM_UW_1704    2017-04-14T22:36:27Z    -93.0882   28.5757   23.1542      36.098    390.3902249           2          
MisPlume(west)    GOM_UW_1704    2017-04-14T22:37:55Z    -93.0882   28.5792   23.149       36.096    390.9276143           2          
MisPlume(west)    GOM_UW_1704    2017-04-14T22:39:22Z    -93.0881   28.5826   23.1517      36.097    391.5964973           2          
MisPlume(west)    GOM_UW_1704    2017-04-14T22:40:53Z    -93.088    28.5863   23.1503      36.098    390.6152829           2          
MisPlume(west)    GOM_UW_1704    2017-04-14T22:42:24Z    -93.088    28.5899   23.1505      36.097    389.8490948           2          
MisPlume(west)    GOM_UW_1704    2017-04-14T22:43:53Z    -93.0879   28.5935   23.1548      36.095    390.9560908           2          
MisPlume(west)    GOM_UW_1704    2017-04-14T22:45:20Z    -93.0879   28.5969   23.1378      36.093    391.4824933           2          
MisPlume(west)    GOM_UW_1704    2017-04-14T22:46:51Z    -93.0878   28.6005   23.1421      36.091    390.8415821           2          
MisPlume(west)    GOM_UW_1704    2017-04-14T22:48:19Z    -93.0877   28.6041   23.1443      36.09     390.8082843           2          
MisPlume(west)    GOM_UW_1704    2017-04-14T22:49:50Z    -93.0876   28.6076   23.1461      36.095    391.0726418           2          
MisPlume(west)    GOM_UW_1704    2017-04-14T22:51:20Z    -93.0875   28.6112   23.1434      36.092    391.6422839           2          
MisPlume(west)    GOM_UW_1704    2017-04-14T22:52:50Z    -93.0875   28.6148   23.1524      36.093    392.0449743           2          
MisPlume(west)    GOM_UW_1704    2017-04-14T22:54:21Z    -93.0873   28.6185   23.1473      36.093    391.4161918           2          
MisPlume(west)    GOM_UW_1704    2017-04-14T22:55:49Z    -93.0873   28.622    23.1474      36.09     392.2859895           2          
MisPlume(west)    GOM_UW_1704    2017-04-14T22:57:18Z    -93.0872   28.6255   23.1357      36.094    391.9542288           2          
MisPlume(west)    GOM_UW_1704    2017-04-14T22:58:46Z    -93.0872   28.629    23.1373      36.093    390.8800636           2          
MisPlume(west)    GOM_UW_1704    2017-04-14T23:00:14Z    -93.0871   28.6326   23.1265      36.092    389.4806649           2          
MisPlume(west)    GOM_UW_1704    2017-04-14T23:01:43Z    -93.087    28.6361   23.1355      36.089    392.2335851           2          
MisPlume(west)    GOM_UW_1704    2017-04-14T23:03:11Z    -93.087    28.6396   23.1193      36.092    390.4200559           2          
MisPlume(west)    GOM_UW_1704    2017-04-14T23:04:39Z    -93.0869   28.6432   23.1002      36.09     390.4045229           2          
MisPlume(west)    GOM_UW_1704    2017-04-14T23:06:09Z    -93.0868   28.6467   23.0892      36.094    391.5792145           2          
MisPlume(west)    GOM_UW_1704    2017-04-14T23:07:36Z    -93.0867   28.6502   23.0854      36.081    391.9491722           2          
MisPlume(west)    GOM_UW_1704    2017-04-14T23:09:05Z    -93.0867   28.6537   23.0647      36.089    390.4518398           2          
MisPlume(west)    GOM_UW_1704    2017-04-14T23:10:33Z    -93.0865   28.6572   23.0586      36.087    390.1481419           2          
MisPlume(west)    GOM_UW_1704    2017-04-14T23:12:02Z    -93.0865   28.6607   23.0678      36.091    390.6832182           2          
MisPlume(west)    GOM_UW_1704    2017-04-14T23:13:31Z    -93.0865   28.6642   23.0626      36.088    391.7625989           2          
MisPlume(west)    GOM_UW_1704    2017-04-14T23:15:01Z    -93.0863   28.6678   23.0581      36.09     390.547406            2          
MisPlume(west)    GOM_UW_1704    2017-04-14T23:16:29Z    -93.0863   28.6713   23.0431      36.092    389.9754761           2          
MisPlume(west)    GOM_UW_1704    2017-04-14T23:17:57Z    -93.0862   28.6748   23.0391      36.088    388.3008173           2          
MisPlume(west)    GOM_UW_1704    2017-04-14T23:19:27Z    -93.0861   28.6784   23.0343      36.098    390.1421041           2          
MisPlume(west)    GOM_UW_1704    2017-04-14T23:20:54Z    -93.0861   28.6818   23.0198      36.096    389.7776058           2          
MisPlume(west)    GOM_UW_1704    2017-04-14T23:22:23Z    -93.0861   28.6853   23.0213      36.096    391.4807227           2          
MisPlume(west)    GOM_UW_1704    2017-04-14T23:23:51Z    -93.086    28.6888   23.0157      36.095    388.7172892           2          
MisPlume(west)    GOM_UW_1704    2017-04-14T23:25:19Z    -93.0866   28.6923   23.0124      36.096    389.1877257           2          
MisPlume(west)    GOM_UW_1704    2017-04-14T23:26:48Z    -93.0873   28.6958   23.0132      36.099    389.8590069           2          
MisPlume(west)    GOM_UW_1704    2017-04-14T23:28:19Z    -93.088    28.6994   23.0064      36.095    387.9390646           2          
MisPlume(west)    GOM_UW_1704    2017-04-14T23:29:47Z    -93.0887   28.7029   22.9979      36.096    389.1828572           2          
MisPlume(west)    GOM_UW_1704    2017-04-14T23:31:16Z    -93.0891   28.7064   23.0045      36.096    390.012293            2          
MisPlume(west)    GOM_UW_1704    2017-04-14T23:32:44Z    -93.0888   28.7098   22.9969      36.093    388.5874644           2          
MisPlume(west)    GOM_UW_1704    2017-04-14T23:34:13Z    -93.0883   28.7133   22.9939      36.093    389.2175015           2          
MisPlume(west)    GOM_UW_1704    2017-04-14T23:35:41Z    -93.0881   28.7167   22.9895      36.09     389.3526134           2          
MisPlume(west)    GOM_UW_1704    2017-04-14T23:37:09Z    -93.0879   28.7202   22.9608      36.096    389.4173263           2          
MisPlume(west)    GOM_UW_1704    2017-04-14T23:38:38Z    -93.0877   28.7237   22.9413      36.096    391.5057766           2          
MisPlume(west)    GOM_UW_1704    2017-04-14T23:40:06Z    -93.0875   28.7271   22.943       36.096    389.6808321           2          
MisPlume(west)    GOM_UW_1704    2017-04-14T23:41:35Z    -93.0873   28.7306   22.9474      36.095    391.5287808           2          
MisPlume(west)    GOM_UW_1704    2017-04-14T23:43:03Z    -93.0871   28.734    22.9584      36.073    390.8664953           2          
MisPlume(west)    GOM_UW_1704    2017-04-14T23:44:32Z    -93.0869   28.7375   22.9712      36.099    393.9895731           2          
MisPlume(west)    GOM_UW_1704    2017-04-14T23:45:59Z    -93.0867   28.7409   22.9651      36.098    395.4418301           2          
MisPlume(west)    GOM_UW_1704    2017-04-14T23:47:30Z    -93.0865   28.7444   22.9605      36.101    393.7906617           2          
MisPlume(west)    GOM_UW_1704    2017-04-14T23:48:59Z    -93.0862   28.748    22.9554      36.064    399.5255597           2          
MisPlume(west)    GOM_UW_1704    2017-04-14T23:50:28Z    -93.0861   28.7515   22.9548      36.099    397.5087854           2          
MisPlume(west)    GOM_UW_1704    2017-04-14T23:51:55Z    -93.0859   28.7548   22.955       36.101    397.2341153           2          
MisPlume(west)    GOM_UW_1704    2017-04-14T23:53:25Z    -93.0857   28.7584   22.9536      36.101    394.9469241           2          
MisPlume(west)    GOM_UW_1704    2017-04-14T23:54:55Z    -93.0854   28.7619   22.9567      36.1      394.7815261           2          
MisPlume(west)    GOM_UW_1704    2017-04-14T23:56:24Z    -93.0852   28.7654   22.9553      36.091    394.9055569           2          
MisPlume(west)    GOM_UW_1704    2017-04-14T23:57:51Z    -93.085    28.7689   22.961       36.101    395.2638092           2          
MisPlume(west)    GOM_UW_1704    2017-04-14T23:59:20Z    -93.0848   28.7723   22.9566      36.102    398.5872699           2          
MisPlume(west)    GOM_UW_1704    2017-04-15T00:00:51Z    -93.0846   28.7758   22.9448      36.105    397.2251338           2          
MisPlume(west)    GOM_UW_1704    2017-04-15T00:02:20Z    -93.0843   28.7793   22.9456      36.106    399.0366204           2          
MisPlume(west)    GOM_UW_1704    2017-04-15T00:03:49Z    -93.0842   28.7829   22.9474      36.107    397.1446648           2          
MisPlume(west)    GOM_UW_1704    2017-04-15T00:05:20Z    -93.0839   28.7864   22.9419      36.108    393.0463603           2          
MisPlume(west)    GOM_UW_1704    2017-04-15T00:06:48Z    -93.0838   28.7899   22.9409      36.109    398.2764327           2          
MisPlume(west)    GOM_UW_1704    2017-04-15T00:08:19Z    -93.0835   28.7934   22.9386      36.111    394.3891294           2          
MisPlume(west)    GOM_UW_1704    2017-04-15T00:09:47Z    -93.0833   28.7969   22.9285      36.113    392.8959705           2          
MisPlume(west)    GOM_UW_1704    2017-04-15T00:11:16Z    -93.0829   28.7993   22.9255      36.109    395.5017297           2          
MisPlume(west)    GOM_UW_1704    2017-04-15T00:12:45Z    -93.0827   28.8      22.927       36.108    396.3725519           2          
MisPlume(west)    GOM_UW_1704    2017-04-15T00:14:12Z    -93.083    28.8003   22.933       36.109    395.5792609           2          
MisPlume(west)    GOM_UW_1704    2017-04-15T00:15:42Z    -93.0835   28.8004   22.9374      36.106    398.0288222           2          
MisPlume(west)    GOM_UW_1704    2017-04-15T00:17:09Z    -93.0841   28.8004   22.9264      36.108    398.6672382           2          
MisPlume(west)    GOM_UW_1704    2017-04-15T00:18:37Z    -93.0846   28.8003   22.9261      36.107    397.4116003           2          
MisPlume(west)    GOM_UW_1704    2017-04-15T00:20:06Z    -93.0851   28.8002   22.9281      36.106    393.3482171           2          
MisPlume(west)    GOM_UW_1704    2017-04-15T00:21:33Z    -93.0857   28.8      22.9248      36.108    395.1904018           2          
MisPlume(west)    GOM_UW_1704    2017-04-15T00:23:05Z    -93.0862   28.7999   22.9231      36.11     397.9780906           2          
MisPlume(west)    GOM_UW_1704    2017-04-15T00:24:34Z    -93.0868   28.7998   22.9378      36.11     395.3958232           2          
MisPlume(west)    GOM_UW_1704    2017-04-15T00:26:02Z    -93.0873   28.7996   22.934       36.109    387.9595282           2          
MisPlume(west)    GOM_UW_1704    2017-04-15T00:27:31Z    -93.0879   28.7995   22.9341      36.108    388.2459687           2          
MisPlume(west)    GOM_UW_1704    2017-04-15T00:29:01Z    -93.0884   28.7994   22.937       36.107    388.0280465           2          
MisPlume(west)    GOM_UW_1704    2017-04-15T00:30:30Z    -93.089    28.7992   22.9297      36.106    389.7710036           2          
MisPlume(west)    GOM_UW_1704    2017-04-15T00:31:57Z    -93.0895   28.7991   22.9288      36.107    388.8739668           2          
MisPlume(west)    GOM_UW_1704    2017-04-15T00:33:26Z    -93.09     28.799    22.929       36.107    388.8833757           2          
MisPlume(west)    GOM_UW_1704    2017-04-15T00:34:54Z    -93.0905   28.7988   22.9312      36.108    386.8305007           2          
MisPlume(west)    GOM_UW_1704    2017-04-15T00:36:26Z    -93.0912   28.7988   22.9215      36.108    389.7318936           2          
MisPlume(west)    GOM_UW_1704    2017-04-15T00:37:54Z    -93.0917   28.7986   22.9211      36.108    387.8218536           2          
MisPlume(west)    GOM_UW_1704    2017-04-15T00:39:23Z    -93.0922   28.7985   22.9111      36.112    388.7281358           2          
MisPlume(west)    GOM_UW_1704    2017-04-15T00:40:51Z    -93.0927   28.7984   22.9115      36.112    391.4360902           2          
MisPlume(west)    GOM_UW_1704    2017-04-15T00:42:19Z    -93.0933   28.7982   22.9124      36.115    391.241183            2          
MisPlume(west)    GOM_UW_1704    2017-04-15T00:43:48Z    -93.0939   28.798    22.9074      36.116    392.3111971           2          
MisPlume(west)    GOM_UW_1704    2017-04-15T00:45:18Z    -93.0945   28.7979   22.9089      36.115    393.6333281           2          
MisPlume(west)    GOM_UW_1704    2017-04-15T00:46:46Z    -93.095    28.7985   22.9035      36.116    394.9321528           2          
MisPlume(west)    GOM_UW_1704    2017-04-15T00:48:15Z    -93.0946   28.8018   22.9076      36.116    394.0731771           2          
MisPlume(west)    GOM_UW_1704    2017-04-15T00:49:44Z    -93.0943   28.8053   22.925       36.13     396.0133975           2          
MisPlume(west)    GOM_UW_1704    2017-04-15T00:51:13Z    -93.0941   28.8088   22.9311      36.131    398.1307862           2          
MisPlume(west)    GOM_UW_1704    2017-04-15T00:52:42Z    -93.0938   28.8123   22.9198      36.132    400.4186062           2          
MisPlume(west)    GOM_UW_1704    2017-04-15T00:54:10Z    -93.0936   28.8159   22.9142      36.132    402.488038            2          
MisPlume(west)    GOM_UW_1704    2017-04-15T00:55:38Z    -93.0933   28.8194   22.9114      36.134    403.5283744           2          
MisPlume(west)    GOM_UW_1704    2017-04-15T00:57:06Z    -93.093    28.8229   22.9065      36.137    395.1445751           2          
MisPlume(west)    GOM_UW_1704    2017-04-15T00:58:34Z    -93.0927   28.8265   22.9039      36.138    397.3452059           2          
MisPlume(west)    GOM_UW_1704    2017-04-15T01:00:03Z    -93.0924   28.83     22.8965      36.142    398.6415694           2          
MisPlume(west)    GOM_UW_1704    2017-04-15T01:12:36Z    -93.09     28.8602   22.8867      36.161    397.8874881           2          
MisPlume(west)    GOM_UW_1704    2017-04-15T01:14:04Z    -93.0898   28.8638   22.901       36.164    398.9246283           2          
MisPlume(west)    GOM_UW_1704    2017-04-15T01:15:32Z    -93.0894   28.8673   22.8957      36.168    400.4732192           2          
MisPlume(west)    GOM_UW_1704    2017-04-15T01:17:04Z    -93.0892   28.8709   22.8796      36.169    400.3899003           2          
MisPlume(west)    GOM_UW_1704    2017-04-15T01:18:32Z    -93.0888   28.8744   22.8886      36.176    405.4374096           2          
MisPlume(west)    GOM_UW_1704    2017-04-15T01:20:00Z    -93.0886   28.8779   22.9201      36.177    407.4534175           2          
MisPlume(west)    GOM_UW_1704    2017-04-15T01:21:29Z    -93.0883   28.8815   22.8929      36.185    401.5552912           2          
MisPlume(west)    GOM_UW_1704    2017-04-15T01:22:58Z    -93.088    28.885    22.8811      36.186    401.823747            2          
MisPlume(west)    GOM_UW_1704    2017-04-15T01:24:26Z    -93.0878   28.8885   22.9041      36.187    399.178537            2          
MisPlume(west)    GOM_UW_1704    2017-04-15T01:25:54Z    -93.0875   28.8921   22.8858      36.189    397.9399214           2          
MisPlume(west)    GOM_UW_1704    2017-04-15T01:27:24Z    -93.0872   28.8957   22.8963      36.194    399.7504086           2          
MisPlume(west)    GOM_UW_1704    2017-04-15T01:28:52Z    -93.0869   28.8992   22.8968      36.197    399.6590302           2          
MisPlume(west)    GOM_UW_1704    2017-04-15T01:30:20Z    -93.0866   28.9028   22.8915      36.199    400.4693677           2          
MisPlume(west)    GOM_UW_1704    2017-04-15T01:31:47Z    -93.0863   28.9063   22.899       36.195    401.9554518           2          
MisPlume(west)    GOM_UW_1704    2017-04-15T01:33:17Z    -93.086    28.9099   22.9008      36.177    401.2802785           2          
MisPlume(west)    GOM_UW_1704    2017-04-15T01:34:46Z    -93.0858   28.9135   22.9084      36.184    400.3631772           2          
MisPlume(west)    GOM_UW_1704    2017-04-15T01:36:13Z    -93.0855   28.917    22.9293      36.205    399.8578714           2          
MisPlume(west)    GOM_UW_1704    2017-04-15T01:37:41Z    -93.0852   28.9205   22.9198      36.208    402.5235046           2          
MisPlume(west)    GOM_UW_1704    2017-04-15T01:39:11Z    -93.0848   28.9241   22.9257      36.209    400.1117868           2          
MisPlume(west)    GOM_UW_1704    2017-04-15T01:40:39Z    -93.0846   28.9277   22.932       36.206    399.1753753           2          
MisPlume(west)    GOM_UW_1704    2017-04-15T01:42:07Z    -93.0843   28.9313   22.9263      36.208    401.6242138           2          
MisPlume(west)    GOM_UW_1704    2017-04-15T01:43:36Z    -93.0842   28.9349   22.944       36.208    401.9667289           2          
MisPlume(west)    GOM_UW_1704    2017-04-15T01:45:04Z    -93.0841   28.9384   22.9308      36.203    404.3312301           2          
MisPlume(west)    GOM_UW_1704    2017-04-15T01:46:33Z    -93.0839   28.9419   22.9423      36.207    406.4991558           2          
MisPlume(west)    GOM_UW_1704    2017-04-15T01:48:01Z    -93.0838   28.9456   22.9406      36.205    400.0806329           2          
MisPlume(west)    GOM_UW_1704    2017-04-15T01:49:29Z    -93.0836   28.9492   22.9451      36.206    399.6189338           2          
MisPlume(west)    GOM_UW_1704    2017-04-15T01:50:58Z    -93.0835   28.9527   22.9476      36.191    403.6434204           2          
MisPlume(west)    GOM_UW_1704    2017-04-15T01:52:30Z    -93.0834   28.9565   22.949       36.208    402.4677673           2          
MisPlume(west)    GOM_UW_1704    2017-04-15T01:53:58Z    -93.0832   28.9601   22.9424      36.206    401.4278488           2          
MisPlume(west)    GOM_UW_1704    2017-04-15T01:55:26Z    -93.0831   28.9637   22.9569      36.204    401.6104656           2          
MisPlume(west)    GOM_UW_1704    2017-04-15T01:56:57Z    -93.083    28.966    22.9707      36.204    405.8661246           2          
MisPlume(west)    GOM_UW_1704    2017-04-15T01:58:25Z    -93.0832   28.9667   22.9739      36.205    403.5387914           2          
MisPlume(west)    GOM_UW_1704    2017-04-15T01:59:53Z    -93.0836   28.9669   22.9803      36.204    404.2211509           2          
MisPlume(west)    GOM_UW_1704    2017-04-15T02:01:22Z    -93.0841   28.967    22.9813      36.204    406.2966433           2          
MisPlume(west)    GOM_UW_1704    2017-04-15T02:02:51Z    -93.0847   28.9671   22.9771      36.205    400.7805679           2          
MisPlume(west)    GOM_UW_1704    2017-04-15T02:04:20Z    -93.0853   28.967    22.9755      36.204    398.2569132           2          
MisPlume(west)    GOM_UW_1704    2017-04-15T02:05:49Z    -93.0859   28.967    22.9691      36.204    397.2205268           2          
MisPlume(west)    GOM_UW_1704    2017-04-15T02:07:18Z    -93.0865   28.967    22.9733      36.204    398.36802             2          
MisPlume(west)    GOM_UW_1704    2017-04-15T02:08:47Z    -93.0871   28.9669   22.9745      36.205    398.4377148           2          
MisPlume(west)    GOM_UW_1704    2017-04-15T02:10:16Z    -93.0877   28.9669   22.9697      36.205    399.9574354           2          
MisPlume(west)    GOM_UW_1704    2017-04-15T02:11:45Z    -93.0883   28.9669   22.9719      36.204    399.3674548           2          
MisPlume(west)    GOM_UW_1704    2017-04-15T02:13:13Z    -93.0889   28.9668   22.9723      36.204    399.1717311           2          
MisPlume(west)    GOM_UW_1704    2017-04-15T02:14:42Z    -93.0894   28.9668   22.9706      36.203    397.0589636           2          
MisPlume(west)    GOM_UW_1704    2017-04-15T02:16:10Z    -93.0901   28.9668   22.9797      36.203    394.8130666           2          
MisPlume(west)    GOM_UW_1704    2017-04-15T02:17:41Z    -93.0907   28.9668   22.977       36.205    396.1089709           2          
MisPlume(west)    GOM_UW_1704    2017-04-15T02:19:12Z    -93.0914   28.9668   22.9723      36.205    400.8251331           2          
MisPlume(west)    GOM_UW_1704    2017-04-15T02:20:40Z    -93.092    28.9669   22.9763      36.205    397.9951822           2          
MisPlume(west)    GOM_UW_1704    2017-04-15T02:22:09Z    -93.0925   28.9672   22.9761      36.205    398.3126002           2          
MisPlume(west)    GOM_UW_1704    2017-04-15T02:23:37Z    -93.0909   28.9693   22.9646      36.214    400.1717189           2          
MisPlume(west)    GOM_UW_1704    2017-04-15T02:25:06Z    -93.0884   28.9716   22.9559      36.212    409.883835            2          
MisPlume(west)    GOM_UW_1704    2017-04-15T02:26:35Z    -93.0882   28.9752   22.9554      36.211    405.8777865           2          
MisPlume(west)    GOM_UW_1704    2017-04-15T02:28:02Z    -93.0879   28.9786   22.9698      36.208    402.5965478           2          
MisPlume(west)    GOM_UW_1704    2017-04-15T02:29:30Z    -93.0878   28.9823   22.9847      36.207    409.4300221           2          
MisPlume(west)    GOM_UW_1704    2017-04-15T02:31:00Z    -93.0877   28.9859   23.0006      36.199    402.7519123           2          
MisPlume(west)    GOM_UW_1704    2017-04-15T02:32:27Z    -93.0876   28.9895   23.0211      36.19     400.7536424           2          
MisPlume(west)    GOM_UW_1704    2017-04-15T02:33:57Z    -93.0875   28.9932   23.048       36.193    403.5837999           2          
MisPlume(west)    GOM_UW_1704    2017-04-15T02:35:26Z    -93.0876   28.9968   23.0459      36.192    403.130382            2          
MisPlume(west)    GOM_UW_1704    2017-04-15T02:36:55Z    -93.0874   29.0004   23.0369      36.185    403.0255022           2          
MisPlume(west)    GOM_UW_1704    2017-04-15T02:38:23Z    -93.0874   29.004    23.0515      36.18     402.0759842           2          
MisPlume(west)    GOM_UW_1704    2017-04-15T02:39:52Z    -93.0873   29.0076   23.0639      36.161    404.5564324           2          
MisPlume(west)    GOM_UW_1704    2017-04-15T02:41:21Z    -93.0873   29.0112   23.0734      36.142    410.3049895           2          
MisPlume(west)    GOM_UW_1704    2017-04-15T02:42:49Z    -93.0871   29.0147   23.0319      36.132    412.4063579           2          
MisPlume(west)    GOM_UW_1704    2017-04-15T02:44:17Z    -93.0872   29.0184   22.9843      36.093    408.7262204           2          
MisPlume(west)    GOM_UW_1704    2017-04-15T02:45:45Z    -93.0871   29.022    22.9506      36.072    411.9896084           2          
MisPlume(west)    GOM_UW_1704    2017-04-15T02:47:15Z    -93.0869   29.0256   22.9274      36.056    411.7747206           2          
MisPlume(west)    GOM_UW_1704    2017-04-15T02:48:44Z    -93.0869   29.0293   22.9231      36.048    411.7774291           2          
MisPlume(west)    GOM_UW_1704    2017-04-15T02:50:14Z    -93.0869   29.0329   22.9594      36.046    410.6929479           2          
MisPlume(west)    GOM_UW_1704    2017-04-15T02:51:41Z    -93.0868   29.0364   22.9645      36.046    412.6016948           2          
MisPlume(west)    GOM_UW_1704    2017-04-15T02:53:12Z    -93.0866   29.0399   23.0017      36.056    417.2913326           2          
MisPlume(west)    GOM_UW_1704    2017-04-15T02:54:42Z    -93.0863   29.0435   23.0686      36.072    410.9209031           2          
MisPlume(west)    GOM_UW_1704    2017-04-15T02:56:11Z    -93.0861   29.0471   23.1017      36.07     413.0180227           2          
MisPlume(west)    GOM_UW_1704    2017-04-15T02:57:40Z    -93.0859   29.0507   23.0075      35.995    412.4720218           2          
MisPlume(west)    GOM_UW_1704    2017-04-15T02:59:09Z    -93.0857   29.0543   22.859       35.934    420.7314706           2          
MisPlume(west)    GOM_UW_1704    2017-04-15T03:00:36Z    -93.0856   29.0578   22.799       35.884    416.976863            2          
MisPlume(west)    GOM_UW_1704    2017-04-15T03:02:04Z    -93.0853   29.0612   22.819       35.877    416.6675525           2          
MisPlume(west)    GOM_UW_1704    2017-04-15T03:03:32Z    -93.0849   29.0648   22.8691      35.899    415.2691662           2          
MisPlume(west)    GOM_UW_1704    2017-04-15T03:05:04Z    -93.0847   29.0685   22.8437      35.882    414.8400131           2          
MisPlume(west)    GOM_UW_1704    2017-04-15T03:06:32Z    -93.0845   29.072    22.8611      35.867    416.0141156           2          
MisPlume(west)    GOM_UW_1704    2017-04-15T03:08:02Z    -93.0843   29.0756   22.8846      35.861    412.7541774           2          
MisPlume(west)    GOM_UW_1704    2017-04-15T03:09:32Z    -93.0841   29.0792   22.9363      35.871    410.6840247           2          
MisPlume(west)    GOM_UW_1704    2017-04-15T03:11:03Z    -93.0839   29.0829   22.9901      35.876    411.0813354           2          
MisPlume(west)    GOM_UW_1704    2017-04-15T03:12:32Z    -93.0837   29.0865   22.9452      35.837    413.8409485           2          
MisPlume(west)    GOM_UW_1704    2017-04-15T03:14:00Z    -93.0835   29.0901   22.9105      35.77     413.2101906           2          
MisPlume(west)    GOM_UW_1704    2017-04-15T03:15:28Z    -93.0833   29.0937   22.9653      35.756    411.6933209           2          
MisPlume(west)    GOM_UW_1704    2017-04-15T03:16:55Z    -93.083    29.0972   22.8333      35.675    414.3253413           2          
MisPlume(west)    GOM_UW_1704    2017-04-15T03:18:27Z    -93.0828   29.1009   22.811       35.66     420.3257185           2          
MisPlume(west)    GOM_UW_1704    2017-04-15T03:19:55Z    -93.0826   29.1045   22.8315      35.663    420.7350367           2          
MisPlume(west)    GOM_UW_1704    2017-04-15T03:21:23Z    -93.0824   29.108    22.8352      35.662    423.8599298           2          
MisPlume(west)    GOM_UW_1704    2017-04-15T03:22:51Z    -93.0826   29.1116   22.8493      35.669    417.1562788           2          
MisPlume(west)    GOM_UW_1704    2017-04-15T03:24:20Z    -93.0826   29.1152   22.8647      35.644    420.5812483           2          
MisPlume(west)    GOM_UW_1704    2017-04-15T03:25:49Z    -93.0828   29.1164   22.8772      35.641    420.630842            2          
MisPlume(west)    GOM_UW_1704    2017-04-15T03:27:16Z    -93.0834   29.1166   22.8817      35.641    414.3462517           2          
MisPlume(west)    GOM_UW_1704    2017-04-15T03:28:45Z    -93.084    29.1167   22.8737      35.639    414.2313316           2          
MisPlume(west)    GOM_UW_1704    2017-04-15T03:30:15Z    -93.0846   29.1168   22.8647      35.636    416.6881704           2          
MisPlume(west)    GOM_UW_1704    2017-04-15T03:31:46Z    -93.0854   29.1168   22.8662      35.631    414.105068            2          
MisPlume(west)    GOM_UW_1704    2017-04-15T03:33:13Z    -93.086    29.1169   22.8737      35.629    410.7170278           2          
MisPlume(west)    GOM_UW_1704    2017-04-15T03:34:42Z    -93.0867   29.117    22.8794      35.626    408.0554474           2          
MisPlume(west)    GOM_UW_1704    2017-04-15T03:36:13Z    -93.0874   29.117    22.8953      35.627    407.8938859           2          
MisPlume(west)    GOM_UW_1704    2017-04-15T03:37:43Z    -93.0881   29.1171   22.9059      35.628    409.2165759           2          
MisPlume(west)    GOM_UW_1704    2017-04-15T03:39:13Z    -93.0888   29.1171   22.9132      35.625    405.9122969           2          
MisPlume(west)    GOM_UW_1704    2017-04-15T03:40:43Z    -93.0894   29.1172   22.917       35.623    405.334575            2          
MisPlume(west)    GOM_UW_1704    2017-04-15T03:42:11Z    -93.09     29.1173   22.9226      35.622    404.9519394           2          
MisPlume(west)    GOM_UW_1704    2017-04-15T03:43:39Z    -93.0907   29.1173   22.9184      35.618    407.0286031           2          
MisPlume(west)    GOM_UW_1704    2017-04-15T03:45:08Z    -93.0914   29.1174   22.9272      35.616    407.2698109           2          
MisPlume(west)    GOM_UW_1704    2017-04-15T03:46:36Z    -93.092    29.1175   22.923       35.613    408.0562919           2          
MisPlume(west)    GOM_UW_1704    2017-04-15T03:48:07Z    -93.0926   29.1176   22.9257      35.613    408.0909493           2          
MisPlume(west)    GOM_UW_1704    2017-04-15T03:49:35Z    -93.0931   29.1179   22.9337      35.61     409.0929777           2          
MisPlume(west)    GOM_UW_1704    2017-04-15T03:51:04Z    -93.093    29.1211   22.9192      35.598    409.3772639           2          
MisPlume(west)    GOM_UW_1704    2017-04-15T03:52:34Z    -93.0926   29.1247   22.9016      35.555    410.6869937           2          
MisPlume(west)    GOM_UW_1704    2017-04-15T03:54:02Z    -93.0922   29.1283   22.8923      35.529    410.8723304           2          
MisPlume(west)    GOM_UW_1704    2017-04-15T03:55:30Z    -93.0919   29.1319   22.8922      35.495    411.6783715           2          
MisPlume(west)    GOM_UW_1704    2017-04-15T03:57:00Z    -93.0917   29.1355   22.9197      35.457    416.643758            2          
MisPlume(west)    GOM_UW_1704    2017-04-15T03:58:29Z    -93.0913   29.1392   22.9413      35.449    413.8606279           2          
MisPlume(west)    GOM_UW_1704    2017-04-15T03:59:57Z    -93.0909   29.1428   22.9314      35.443    414.714188            2          
MisPlume(west)    GOM_UW_1704    2017-04-15T04:01:27Z    -93.0907   29.1464   22.929       35.445    411.4533348           2          
MisPlume(west)    GOM_UW_1704    2017-04-15T04:02:58Z    -93.0904   29.1502   22.9385      35.425    410.280941            2          
MisPlume(west)    GOM_UW_1704    2017-04-15T04:04:26Z    -93.0901   29.1538   22.946       35.409    406.5888473           2          
MisPlume(west)    GOM_UW_1704    2017-04-15T04:05:54Z    -93.0898   29.1574   23.0061      35.394    409.8996221           2          
MisPlume(west)    GOM_UW_1704    2017-04-15T04:07:25Z    -93.0895   29.1611   23.0537      35.382    409.1563405           2          
MisPlume(west)    GOM_UW_1704    2017-04-15T04:08:53Z    -93.0892   29.1648   23.0327      35.378    411.0842148           2          
MisPlume(west)    GOM_UW_1704    2017-04-15T04:21:27Z    -93.0872   29.1959   22.9842      35.278    420.4303526           2          
MisPlume(west)    GOM_UW_1704    2017-04-15T04:22:55Z    -93.087    29.1995   22.9682      35.263    417.1970409           2          
MisPlume(west)    GOM_UW_1704    2017-04-15T04:24:23Z    -93.0868   29.2032   22.9578      35.249    421.5864561           2          
MisPlume(west)    GOM_UW_1704    2017-04-15T04:25:51Z    -93.0866   29.2068   22.9483      35.234    416.174534            2          
MisPlume(west)    GOM_UW_1704    2017-04-15T04:27:23Z    -93.0864   29.2106   22.9233      35.217    418.7901208           2          
MisPlume(west)    GOM_UW_1704    2017-04-15T04:28:51Z    -93.0863   29.2142   22.9093      35.214    419.4894777           2          
MisPlume(west)    GOM_UW_1704    2017-04-15T04:30:21Z    -93.0862   29.2179   23.0034      35.321    422.7955436           2          
MisPlume(west)    GOM_UW_1704    2017-04-15T04:31:52Z    -93.0861   29.2216   22.9828      35.291    420.5453735           2          
MisPlume(west)    GOM_UW_1704    2017-04-15T04:33:21Z    -93.086    29.2254   22.9422      35.228    419.8786229           2          
MisPlume(west)    GOM_UW_1704    2017-04-15T04:34:51Z    -93.0859   29.2291   22.955       35.228    421.0313568           2          
MisPlume(west)    GOM_UW_1704    2017-04-15T04:36:19Z    -93.0859   29.2329   22.9444      35.189    420.0671373           2          
MisPlume(west)    GOM_UW_1704    2017-04-15T04:37:48Z    -93.0856   29.2366   22.9282      35.152    421.4564192           2          
MisPlume(west)    GOM_UW_1704    2017-04-15T04:39:19Z    -93.0854   29.2405   22.9322      35.116    421.9324063           2          
MisPlume(west)    GOM_UW_1704    2017-04-15T04:40:47Z    -93.0851   29.2442   22.9384      35.091    423.1201661           2          
MisPlume(west)    GOM_UW_1704    2017-04-15T04:42:17Z    -93.0849   29.2479   22.9323      35.065    424.1400668           2          
MisPlume(west)    GOM_UW_1704    2017-04-15T04:43:45Z    -93.0847   29.2516   22.922       35.023    423.7011826           2          
MisPlume(west)    GOM_UW_1704    2017-04-15T04:45:12Z    -93.0845   29.2553   22.9176      35.016    421.8063219           2          
MisPlume(west)    GOM_UW_1704    2017-04-15T04:46:41Z    -93.0843   29.259    22.914       34.975    421.0838032           2          
MisPlume(west)    GOM_UW_1704    2017-04-15T04:48:12Z    -93.0841   29.2629   22.922       34.873    424.3752316           2          
MisPlume(west)    GOM_UW_1704    2017-04-15T04:49:41Z    -93.0838   29.2666   22.924       34.652    435.5328539           2          
MisPlume(west)    GOM_UW_1704    2017-04-15T04:51:08Z    -93.0836   29.2702   22.9568      34.431    454.3528613           2          
MisPlume(west)    GOM_UW_1704    2017-04-15T04:52:40Z    -93.0833   29.274    22.9727      34.262    464.6568844           2          
MisPlume(west)    GOM_UW_1704    2017-04-15T04:54:08Z    -93.0832   29.2776   22.9689      34.114    468.9376822           2          
MisPlume(west)    GOM_UW_1704    2017-04-15T04:55:36Z    -93.0832   29.2812   22.9819      34.051    469.8195503           2          
MisPlume(west)    GOM_UW_1704    2017-04-15T04:57:03Z    -93.0831   29.2848   23.003       33.983    464.8644658           2          
MisPlume(west)    GOM_UW_1704    2017-04-15T04:58:33Z    -93.083    29.2886   23.011       33.911    461.3786162           2          
MisPlume(west)    GOM_UW_1704    2017-04-15T05:00:02Z    -93.083    29.2911   22.9985      33.878    457.3357954           2          
MisPlume(west)    GOM_UW_1704    2017-04-15T05:01:30Z    -93.0835   29.2915   23.0095      33.875    461.0569901           2          
MisPlume(west)    GOM_UW_1704    2017-04-15T05:02:58Z    -93.0841   29.2918   23.0095      33.879    461.53508             2          
MisPlume(west)    GOM_UW_1704    2017-04-15T05:04:28Z    -93.0848   29.2921   23.0066      33.886    460.4192208           2          
MisPlume(west)    GOM_UW_1704    2017-04-15T05:05:56Z    -93.0855   29.2923   23.0059      33.888    457.9991408           2          
MisPlume(west)    GOM_UW_1704    2017-04-15T05:07:25Z    -93.0862   29.2926   22.9976      33.885    458.4923313           2          
MisPlume(west)    GOM_UW_1704    2017-04-15T05:08:53Z    -93.0869   29.2928   23.0061      33.886    456.1846119           2          
MisPlume(west)    GOM_UW_1704    2017-04-15T05:10:21Z    -93.0875   29.293    23.006       33.887    455.8684993           2          
MisPlume(west)    GOM_UW_1704    2017-04-15T05:11:49Z    -93.0882   29.2933   23.011       33.896    453.6108978           2          
MisPlume(west)    GOM_UW_1704    2017-04-15T05:13:17Z    -93.0889   29.2935   23.0086      33.895    454.4508444           2          
MisPlume(west)    GOM_UW_1704    2017-04-15T05:14:45Z    -93.0895   29.2937   23.015       33.9      453.4629722           2          
MisPlume(west)    GOM_UW_1704    2017-04-15T05:16:16Z    -93.0902   29.294    23.0229      33.904    453.1558895           2          
MisPlume(west)    GOM_UW_1704    2017-04-15T05:17:46Z    -93.0908   29.2942   23.0192      33.901    452.7645758           2          
MisPlume(west)    GOM_UW_1704    2017-04-15T05:19:14Z    -93.0915   29.2944   23.0253      33.901    452.0704019           2          
MisPlume(west)    GOM_UW_1704    2017-04-15T05:20:42Z    -93.0922   29.2947   23.0201      33.901    451.678687            2          
MisPlume(west)    GOM_UW_1704    2017-04-15T05:22:10Z    -93.0928   29.2949   23.0135      33.9      451.576481            2          
MisPlume(west)    GOM_UW_1704    2017-04-15T05:23:41Z    -93.0934   29.2952   23.0128      33.902    452.9352986           2          
MisPlume(west)    GOM_UW_1704    2017-04-15T05:25:09Z    -93.0941   29.2956   23.0075      33.901    453.7558459           2          
MisPlume(west)    GOM_UW_1704    2017-04-15T05:26:37Z    -93.0929   29.298    23.0103      33.902    454.8034922           2          
MisPlume(west)    GOM_UW_1704    2017-04-15T05:28:04Z    -93.0924   29.3016   23.0098      33.876    460.4336617           2          
MisPlume(west)    GOM_UW_1704    2017-04-15T05:29:34Z    -93.0918   29.3053   23.0259      33.849    455.2062901           2          
MisPlume(west)    GOM_UW_1704    2017-04-15T05:31:03Z    -93.0912   29.3091   23.039       33.827    450.3844041           2          
MisPlume(west)    GOM_UW_1704    2017-04-15T05:32:31Z    -93.0908   29.3128   23.0482      33.802    447.72827             2          
MisPlume(west)    GOM_UW_1704    2017-04-15T05:34:00Z    -93.0903   29.3166   23.0568      33.781    445.6605026           2          
MisPlume(west)    GOM_UW_1704    2017-04-15T05:35:29Z    -93.0897   29.3203   23.0748      33.733    439.265209            2          
MisPlume(west)    GOM_UW_1704    2017-04-15T05:36:58Z    -93.0892   29.324    23.1082      33.691    431.4920338           2          
MisPlume(west)    GOM_UW_1704    2017-04-15T05:38:25Z    -93.0887   29.3277   23.1238      33.644    424.5911527           2          
MisPlume(west)    GOM_UW_1704    2017-04-15T05:39:54Z    -93.0882   29.3314   23.1302      33.602    419.2928705           2          
MisPlume(west)    GOM_UW_1704    2017-04-15T05:41:22Z    -93.0877   29.3351   23.1264      33.543    414.240848            2          
MisPlume(west)    GOM_UW_1704    2017-04-15T05:42:50Z    -93.0871   29.3388   23.1379      33.404    403.3561218           2          
MisPlume(west)    GOM_UW_1704    2017-04-15T05:44:19Z    -93.0865   29.3426   23.134       33.313    395.9747213           2          
MisPlume(west)    GOM_UW_1704    2017-04-15T05:45:48Z    -93.0861   29.3464   23.1569      33.336    392.6429875           2          
MisPlume(west)    GOM_UW_1704    2017-04-15T05:47:18Z    -93.0855   29.3502   23.1487      33.342    391.0072384           2          
MisPlume(west)    GOM_UW_1704    2017-04-15T05:48:47Z    -93.0852   29.354    23.1422      33.366    391.6514348           2          
MisPlume(west)    GOM_UW_1704    2017-04-15T05:50:15Z    -93.0849   29.3578   23.157       33.332    394.0305372           2          
MisPlume(west)    GOM_UW_1704    2017-04-15T05:51:46Z    -93.0845   29.3616   23.1571      33.264    390.1167838           2          
MisPlume(west)    GOM_UW_1704    2017-04-15T05:53:17Z    -93.0841   29.3654   23.1469      33.158    387.4827599           2          
MisPlume(west)    GOM_UW_1704    2017-04-15T05:54:46Z    -93.0838   29.3692   23.1247      33.061    385.2556143           2          
MisPlume(west)    GOM_UW_1704    2017-04-15T05:56:14Z    -93.0837   29.3729   23.0603      32.819    385.7081834           2          
MisPlume(west)    GOM_UW_1704    2017-04-15T05:57:42Z    -93.0834   29.3766   23.0856      32.683    373.2051117           2          
MisPlume(west)    GOM_UW_1704    2017-04-15T05:59:10Z    -93.0833   29.3803   23.0595      32.571    374.3344569           2          
MisPlume(west)    GOM_UW_1704    2017-04-15T06:00:39Z    -93.0832   29.384    23.0873      32.482    371.2855741           2          
MisPlume(west)    GOM_UW_1704    2017-04-15T06:02:07Z    -93.0831   29.3877   23.1016      32.411    374.8353604           2          
MisPlume(west)    GOM_UW_1704    2017-04-15T06:03:36Z    -93.083    29.3907   23.0781      32.35